<?xml version="1.0" encoding="UTF-8" standalone="no" ?>
<gpx xmlns="http://www.topografix.com/GPX/1/1" xmlns:xsi="http://www.w3.org/2001/XMLSchema-instance" xsi:schemaLocation="http://www.topografix.com/GPX/1/1 http://www.topografix.com/GPX/1/1/gpx.xsd" version="1.1" creator="VisuGPX - https://www.visugpx.com">
  <metadata>
    <name>Mtp_St_Clément 25102020</name>
  </metadata>
  <trk>
    <name><![CDATA[Move]]></name>
    <trkseg>
      <trkpt lat="43.61168" lon="3.87747">
        <ele>53.79999923706</ele>
        <time>2020-10-25T11:35:25.000Z</time>
      </trkpt>
      <trkpt lat="43.61171" lon="3.87744">
        <ele>61.79999923706</ele>
        <time>2020-10-25T11:36:07.000Z</time>
      </trkpt>
      <trkpt lat="43.61171" lon="3.87743">
        <ele>63.104962442748</ele>
        <time>2020-10-25T11:36:13.000Z</time>
      </trkpt>
      <trkpt lat="43.61167" lon="3.87743">
        <ele>65</ele>
        <time>2020-10-25T11:36:23.000Z</time>
      </trkpt>
      <trkpt lat="43.61167" lon="3.87743">
        <ele>65</ele>
        <time>2020-10-25T11:36:27.000Z</time>
      </trkpt>
      <trkpt lat="43.61171" lon="3.8775">
        <ele>64.993853114754</ele>
        <time>2020-10-25T11:36:41.000Z</time>
      </trkpt>
      <trkpt lat="43.61175" lon="3.87755">
        <ele>64.174180983607</ele>
        <time>2020-10-25T11:36:49.000Z</time>
      </trkpt>
      <trkpt lat="43.61177" lon="3.87752">
        <ele>64</ele>
        <time>2020-10-25T11:36:58.000Z</time>
      </trkpt>
      <trkpt lat="43.61175" lon="3.87755">
        <ele>64</ele>
        <time>2020-10-25T11:37:05.000Z</time>
      </trkpt>
      <trkpt lat="43.61179" lon="3.87756">
        <ele>64</ele>
        <time>2020-10-25T11:37:18.000Z</time>
      </trkpt>
      <trkpt lat="43.6118" lon="3.87755">
        <ele>63</ele>
        <time>2020-10-25T11:37:59.000Z</time>
      </trkpt>
      <trkpt lat="43.61174" lon="3.87756">
        <ele>62.77000064</ele>
        <time>2020-10-25T11:38:11.000Z</time>
      </trkpt>
      <trkpt lat="43.61166" lon="3.87752">
        <ele>61.82999936</ele>
        <time>2020-10-25T11:38:57.000Z</time>
      </trkpt>
      <trkpt lat="43.61157" lon="3.87757">
        <ele>62.828343203732</ele>
        <time>2020-10-25T11:39:07.000Z</time>
      </trkpt>
      <trkpt lat="43.61148" lon="3.87761">
        <ele>61.685371584531</ele>
        <time>2020-10-25T11:39:12.000Z</time>
      </trkpt>
      <trkpt lat="43.61143" lon="3.87748">
        <ele>70.121236349551</ele>
        <time>2020-10-25T11:39:32.000Z</time>
      </trkpt>
      <trkpt lat="43.61141" lon="3.87736">
        <ele>83.561601602233</ele>
        <time>2020-10-25T11:39:44.000Z</time>
      </trkpt>
      <trkpt lat="43.6114" lon="3.87733">
        <ele>81.62814403919</ele>
        <time>2020-10-25T11:39:56.000Z</time>
      </trkpt>
      <trkpt lat="43.61142" lon="3.87731">
        <ele>80</ele>
        <time>2020-10-25T11:40:01.000Z</time>
      </trkpt>
      <trkpt lat="43.61143" lon="3.87733">
        <ele>80</ele>
        <time>2020-10-25T11:40:09.000Z</time>
      </trkpt>
      <trkpt lat="43.61144" lon="3.87734">
        <ele>80</ele>
        <time>2020-10-25T11:40:14.000Z</time>
      </trkpt>
      <trkpt lat="43.61142" lon="3.87733">
        <ele>78</ele>
        <time>2020-10-25T11:40:21.000Z</time>
      </trkpt>
      <trkpt lat="43.61142" lon="3.87733">
        <ele>78</ele>
        <time>2020-10-25T11:40:26.000Z</time>
      </trkpt>
      <trkpt lat="43.61137" lon="3.87735">
        <ele>82</ele>
        <time>2020-10-25T11:41:07.000Z</time>
      </trkpt>
      <trkpt lat="43.61137" lon="3.87735">
        <ele>81.967072780488</ele>
        <time>2020-10-25T11:41:11.000Z</time>
      </trkpt>
      <trkpt lat="43.61136" lon="3.87743">
        <ele>80.993853114754</ele>
        <time>2020-10-25T11:41:19.000Z</time>
      </trkpt>
      <trkpt lat="43.61136" lon="3.87744">
        <ele>80.891394098361</ele>
        <time>2020-10-25T11:41:20.000Z</time>
      </trkpt>
      <trkpt lat="43.61141" lon="3.87732">
        <ele>80.27664</ele>
        <time>2020-10-25T11:41:26.000Z</time>
      </trkpt>
      <trkpt lat="43.61146" lon="3.87727">
        <ele>79.498911720374</ele>
        <time>2020-10-25T11:41:31.000Z</time>
      </trkpt>
      <trkpt lat="43.61144" lon="3.87726">
        <ele>78</ele>
        <time>2020-10-25T11:41:38.000Z</time>
      </trkpt>
      <trkpt lat="43.61142" lon="3.87729">
        <ele>78</ele>
        <time>2020-10-25T11:41:41.000Z</time>
      </trkpt>
      <trkpt lat="43.61142" lon="3.87731">
        <ele>78.17991741601</ele>
        <time>2020-10-25T11:41:42.000Z</time>
      </trkpt>
      <trkpt lat="43.61142" lon="3.87736">
        <ele>78.598326897638</ele>
        <time>2020-10-25T11:41:44.000Z</time>
      </trkpt>
      <trkpt lat="43.61142" lon="3.8774">
        <ele>78.807531638451</ele>
        <time>2020-10-25T11:41:45.000Z</time>
      </trkpt>
      <trkpt lat="43.61141" lon="3.87743">
        <ele>79.016736379265</ele>
        <time>2020-10-25T11:41:46.000Z</time>
      </trkpt>
      <trkpt lat="43.61142" lon="3.87746">
        <ele>79.225941120079</ele>
        <time>2020-10-25T11:41:47.000Z</time>
      </trkpt>
      <trkpt lat="43.61143" lon="3.8775">
        <ele>79.435145860893</ele>
        <time>2020-10-25T11:41:48.000Z</time>
      </trkpt>
      <trkpt lat="43.61143" lon="3.87754">
        <ele>79.644350601706</ele>
        <time>2020-10-25T11:41:49.000Z</time>
      </trkpt>
      <trkpt lat="43.61145" lon="3.87757">
        <ele>80</ele>
        <time>2020-10-25T11:41:51.000Z</time>
      </trkpt>
      <trkpt lat="43.61148" lon="3.87757">
        <ele>80</ele>
        <time>2020-10-25T11:41:54.000Z</time>
      </trkpt>
      <trkpt lat="43.61148" lon="3.87759">
        <ele>80</ele>
        <time>2020-10-25T11:42:00.000Z</time>
      </trkpt>
      <trkpt lat="43.61143" lon="3.8776">
        <ele>80</ele>
        <time>2020-10-25T11:42:03.000Z</time>
      </trkpt>
      <trkpt lat="43.6114" lon="3.87759">
        <ele>79.242105773739</ele>
        <time>2020-10-25T11:42:05.000Z</time>
      </trkpt>
      <trkpt lat="43.61135" lon="3.87762">
        <ele>77.978948729971</ele>
        <time>2020-10-25T11:42:08.000Z</time>
      </trkpt>
      <trkpt lat="43.61133" lon="3.87763">
        <ele>77.557896382049</ele>
        <time>2020-10-25T11:42:09.000Z</time>
      </trkpt>
      <trkpt lat="43.6113" lon="3.87763">
        <ele>77.136844034126</ele>
        <time>2020-10-25T11:42:10.000Z</time>
      </trkpt>
      <trkpt lat="43.61128" lon="3.87763">
        <ele>76.715791686204</ele>
        <time>2020-10-25T11:42:11.000Z</time>
      </trkpt>
      <trkpt lat="43.61125" lon="3.87762">
        <ele>75.88000256</ele>
        <time>2020-10-25T11:42:13.000Z</time>
      </trkpt>
      <trkpt lat="43.61122" lon="3.87761">
        <ele>75.08000256</ele>
        <time>2020-10-25T11:42:15.000Z</time>
      </trkpt>
      <trkpt lat="43.61119" lon="3.8776">
        <ele>74.68000256</ele>
        <time>2020-10-25T11:42:16.000Z</time>
      </trkpt>
      <trkpt lat="43.61117" lon="3.87759">
        <ele>74.28000256</ele>
        <time>2020-10-25T11:42:17.000Z</time>
      </trkpt>
      <trkpt lat="43.61114" lon="3.87756">
        <ele>73.88000256</ele>
        <time>2020-10-25T11:42:18.000Z</time>
      </trkpt>
      <trkpt lat="43.61112" lon="3.87753">
        <ele>73.48000256</ele>
        <time>2020-10-25T11:42:19.000Z</time>
      </trkpt>
      <trkpt lat="43.6111" lon="3.87749">
        <ele>73.08000256</ele>
        <time>2020-10-25T11:42:20.000Z</time>
      </trkpt>
      <trkpt lat="43.61109" lon="3.87744">
        <ele>72.68000256</ele>
        <time>2020-10-25T11:42:21.000Z</time>
      </trkpt>
      <trkpt lat="43.61109" lon="3.87737">
        <ele>72.28000256</ele>
        <time>2020-10-25T11:42:22.000Z</time>
      </trkpt>
      <trkpt lat="43.6111" lon="3.8773">
        <ele>71.883723410853</ele>
        <time>2020-10-25T11:42:23.000Z</time>
      </trkpt>
      <trkpt lat="43.61111" lon="3.87724">
        <ele>71.496126511628</ele>
        <time>2020-10-25T11:42:24.000Z</time>
      </trkpt>
      <trkpt lat="43.61112" lon="3.87718">
        <ele>71.108529612403</ele>
        <time>2020-10-25T11:42:25.000Z</time>
      </trkpt>
      <trkpt lat="43.61114" lon="3.87713">
        <ele>70.720932713178</ele>
        <time>2020-10-25T11:42:26.000Z</time>
      </trkpt>
      <trkpt lat="43.61114" lon="3.87707">
        <ele>70.333335813953</ele>
        <time>2020-10-25T11:42:27.000Z</time>
      </trkpt>
      <trkpt lat="43.61115" lon="3.87702">
        <ele>69.945738914729</ele>
        <time>2020-10-25T11:42:28.000Z</time>
      </trkpt>
      <trkpt lat="43.61114" lon="3.87698">
        <ele>69.558142015504</ele>
        <time>2020-10-25T11:42:29.000Z</time>
      </trkpt>
      <trkpt lat="43.61114" lon="3.87693">
        <ele>69.170545116279</ele>
        <time>2020-10-25T11:42:30.000Z</time>
      </trkpt>
      <trkpt lat="43.61113" lon="3.87688">
        <ele>68.782948217054</ele>
        <time>2020-10-25T11:42:31.000Z</time>
      </trkpt>
      <trkpt lat="43.61111" lon="3.87685">
        <ele>68.395351317829</ele>
        <time>2020-10-25T11:42:32.000Z</time>
      </trkpt>
      <trkpt lat="43.61106" lon="3.87683">
        <ele>68.007754418605</ele>
        <time>2020-10-25T11:42:33.000Z</time>
      </trkpt>
      <trkpt lat="43.61101" lon="3.8768">
        <ele>67.696282975207</ele>
        <time>2020-10-25T11:42:34.000Z</time>
      </trkpt>
      <trkpt lat="43.61096" lon="3.87678">
        <ele>67.386365619835</ele>
        <time>2020-10-25T11:42:35.000Z</time>
      </trkpt>
      <trkpt lat="43.61093" lon="3.87678">
        <ele>67.076448264463</ele>
        <time>2020-10-25T11:42:36.000Z</time>
      </trkpt>
      <trkpt lat="43.61091" lon="3.87675">
        <ele>66.766530909091</ele>
        <time>2020-10-25T11:42:37.000Z</time>
      </trkpt>
      <trkpt lat="43.61089" lon="3.87671">
        <ele>66.456613553719</ele>
        <time>2020-10-25T11:42:38.000Z</time>
      </trkpt>
      <trkpt lat="43.61088" lon="3.87666">
        <ele>66.146696198347</ele>
        <time>2020-10-25T11:42:39.000Z</time>
      </trkpt>
      <trkpt lat="43.61087" lon="3.87661">
        <ele>65.836778842975</ele>
        <time>2020-10-25T11:42:40.000Z</time>
      </trkpt>
      <trkpt lat="43.61087" lon="3.87656">
        <ele>65.526861487603</ele>
        <time>2020-10-25T11:42:41.000Z</time>
      </trkpt>
      <trkpt lat="43.61088" lon="3.87649">
        <ele>65.216944132231</ele>
        <time>2020-10-25T11:42:42.000Z</time>
      </trkpt>
      <trkpt lat="43.61089" lon="3.87645">
        <ele>64.941177651674</ele>
        <time>2020-10-25T11:42:43.000Z</time>
      </trkpt>
      <trkpt lat="43.61089" lon="3.87641">
        <ele>64.745098974242</ele>
        <time>2020-10-25T11:42:44.000Z</time>
      </trkpt>
      <trkpt lat="43.61088" lon="3.87636">
        <ele>64.54902029681</ele>
        <time>2020-10-25T11:42:45.000Z</time>
      </trkpt>
      <trkpt lat="43.61087" lon="3.87631">
        <ele>64.352941619378</ele>
        <time>2020-10-25T11:42:46.000Z</time>
      </trkpt>
      <trkpt lat="43.61086" lon="3.87626">
        <ele>64.156862941946</ele>
        <time>2020-10-25T11:42:47.000Z</time>
      </trkpt>
      <trkpt lat="43.61085" lon="3.87621">
        <ele>63.960784264514</ele>
        <time>2020-10-25T11:42:48.000Z</time>
      </trkpt>
      <trkpt lat="43.61085" lon="3.87615">
        <ele>63.764705587082</ele>
        <time>2020-10-25T11:42:49.000Z</time>
      </trkpt>
      <trkpt lat="43.61084" lon="3.87609">
        <ele>63.56862690965</ele>
        <time>2020-10-25T11:42:50.000Z</time>
      </trkpt>
      <trkpt lat="43.61085" lon="3.87603">
        <ele>63.372548232217</ele>
        <time>2020-10-25T11:42:51.000Z</time>
      </trkpt>
      <trkpt lat="43.61085" lon="3.87597">
        <ele>63.176469554785</ele>
        <time>2020-10-25T11:42:52.000Z</time>
      </trkpt>
      <trkpt lat="43.61086" lon="3.87592">
        <ele>63</ele>
        <time>2020-10-25T11:42:53.000Z</time>
      </trkpt>
      <trkpt lat="43.61086" lon="3.87586">
        <ele>63</ele>
        <time>2020-10-25T11:42:54.000Z</time>
      </trkpt>
      <trkpt lat="43.61086" lon="3.8758">
        <ele>63</ele>
        <time>2020-10-25T11:42:55.000Z</time>
      </trkpt>
      <trkpt lat="43.61086" lon="3.87575">
        <ele>63</ele>
        <time>2020-10-25T11:42:56.000Z</time>
      </trkpt>
      <trkpt lat="43.61087" lon="3.87569">
        <ele>63</ele>
        <time>2020-10-25T11:42:57.000Z</time>
      </trkpt>
      <trkpt lat="43.61087" lon="3.87563">
        <ele>63</ele>
        <time>2020-10-25T11:42:58.000Z</time>
      </trkpt>
      <trkpt lat="43.61087" lon="3.87557">
        <ele>63</ele>
        <time>2020-10-25T11:42:59.000Z</time>
      </trkpt>
      <trkpt lat="43.61088" lon="3.87551">
        <ele>63</ele>
        <time>2020-10-25T11:43:00.000Z</time>
      </trkpt>
      <trkpt lat="43.61088" lon="3.87546">
        <ele>63</ele>
        <time>2020-10-25T11:43:01.000Z</time>
      </trkpt>
      <trkpt lat="43.61088" lon="3.8754">
        <ele>63</ele>
        <time>2020-10-25T11:43:02.000Z</time>
      </trkpt>
      <trkpt lat="43.61089" lon="3.87534">
        <ele>63.02999936</ele>
        <time>2020-10-25T11:43:03.000Z</time>
      </trkpt>
      <trkpt lat="43.61089" lon="3.87529">
        <ele>63.12999936</ele>
        <time>2020-10-25T11:43:04.000Z</time>
      </trkpt>
      <trkpt lat="43.6109" lon="3.87524">
        <ele>63.22999936</ele>
        <time>2020-10-25T11:43:05.000Z</time>
      </trkpt>
      <trkpt lat="43.6109" lon="3.87518">
        <ele>63.32999936</ele>
        <time>2020-10-25T11:43:06.000Z</time>
      </trkpt>
      <trkpt lat="43.6109" lon="3.87513">
        <ele>63.42999936</ele>
        <time>2020-10-25T11:43:07.000Z</time>
      </trkpt>
      <trkpt lat="43.61091" lon="3.87509">
        <ele>63.52999936</ele>
        <time>2020-10-25T11:43:08.000Z</time>
      </trkpt>
      <trkpt lat="43.61091" lon="3.87506">
        <ele>63.62999936</ele>
        <time>2020-10-25T11:43:09.000Z</time>
      </trkpt>
      <trkpt lat="43.61092" lon="3.87499">
        <ele>63.82999936</ele>
        <time>2020-10-25T11:43:11.000Z</time>
      </trkpt>
      <trkpt lat="43.61092" lon="3.87496">
        <ele>63.92999936</ele>
        <time>2020-10-25T11:43:12.000Z</time>
      </trkpt>
      <trkpt lat="43.61092" lon="3.87493">
        <ele>63.970060499839</ele>
        <time>2020-10-25T11:43:13.000Z</time>
      </trkpt>
      <trkpt lat="43.61092" lon="3.8749">
        <ele>63.870260036893</ele>
        <time>2020-10-25T11:43:14.000Z</time>
      </trkpt>
      <trkpt lat="43.61092" lon="3.87486">
        <ele>63.770459573946</ele>
        <time>2020-10-25T11:43:15.000Z</time>
      </trkpt>
      <trkpt lat="43.61092" lon="3.87483">
        <ele>63.670659111</ele>
        <time>2020-10-25T11:43:16.000Z</time>
      </trkpt>
      <trkpt lat="43.61093" lon="3.8748">
        <ele>63.570858648053</ele>
        <time>2020-10-25T11:43:17.000Z</time>
      </trkpt>
      <trkpt lat="43.61095" lon="3.87476">
        <ele>63.471058185107</ele>
        <time>2020-10-25T11:43:18.000Z</time>
      </trkpt>
      <trkpt lat="43.61096" lon="3.87472">
        <ele>63.371257722161</ele>
        <time>2020-10-25T11:43:19.000Z</time>
      </trkpt>
      <trkpt lat="43.61097" lon="3.87468">
        <ele>63.271457259214</ele>
        <time>2020-10-25T11:43:20.000Z</time>
      </trkpt>
      <trkpt lat="43.61098" lon="3.87463">
        <ele>63.171656796268</ele>
        <time>2020-10-25T11:43:21.000Z</time>
      </trkpt>
      <trkpt lat="43.61098" lon="3.87459">
        <ele>63.071856333321</ele>
        <time>2020-10-25T11:43:22.000Z</time>
      </trkpt>
      <trkpt lat="43.61098" lon="3.87454">
        <ele>63.056112188465</ele>
        <time>2020-10-25T11:43:23.000Z</time>
      </trkpt>
      <trkpt lat="43.61097" lon="3.8745">
        <ele>63.256512861555</ele>
        <time>2020-10-25T11:43:24.000Z</time>
      </trkpt>
      <trkpt lat="43.61097" lon="3.87446">
        <ele>63.456913534645</ele>
        <time>2020-10-25T11:43:25.000Z</time>
      </trkpt>
      <trkpt lat="43.61097" lon="3.87442">
        <ele>63.657314207734</ele>
        <time>2020-10-25T11:43:26.000Z</time>
      </trkpt>
      <trkpt lat="43.61097" lon="3.87437">
        <ele>63.857714880824</ele>
        <time>2020-10-25T11:43:27.000Z</time>
      </trkpt>
      <trkpt lat="43.61097" lon="3.87433">
        <ele>64.058115553914</ele>
        <time>2020-10-25T11:43:28.000Z</time>
      </trkpt>
      <trkpt lat="43.61097" lon="3.87428">
        <ele>64.258516227004</ele>
        <time>2020-10-25T11:43:29.000Z</time>
      </trkpt>
      <trkpt lat="43.61096" lon="3.87424">
        <ele>64.458916900093</ele>
        <time>2020-10-25T11:43:30.000Z</time>
      </trkpt>
      <trkpt lat="43.61096" lon="3.87419">
        <ele>64.659317573183</ele>
        <time>2020-10-25T11:43:31.000Z</time>
      </trkpt>
      <trkpt lat="43.61096" lon="3.87415">
        <ele>64.859718246273</ele>
        <time>2020-10-25T11:43:32.000Z</time>
      </trkpt>
      <trkpt lat="43.61097" lon="3.8741">
        <ele>65.029182293145</ele>
        <time>2020-10-25T11:43:33.000Z</time>
      </trkpt>
      <trkpt lat="43.61096" lon="3.87406">
        <ele>65.126458678859</ele>
        <time>2020-10-25T11:43:34.000Z</time>
      </trkpt>
      <trkpt lat="43.61096" lon="3.87401">
        <ele>65.223735064573</ele>
        <time>2020-10-25T11:43:35.000Z</time>
      </trkpt>
      <trkpt lat="43.61096" lon="3.87397">
        <ele>65.321011450287</ele>
        <time>2020-10-25T11:43:36.000Z</time>
      </trkpt>
      <trkpt lat="43.61096" lon="3.87393">
        <ele>65.418287836</ele>
        <time>2020-10-25T11:43:37.000Z</time>
      </trkpt>
      <trkpt lat="43.61096" lon="3.87389">
        <ele>65.515564221714</ele>
        <time>2020-10-25T11:43:38.000Z</time>
      </trkpt>
      <trkpt lat="43.61096" lon="3.87385">
        <ele>65.612840607428</ele>
        <time>2020-10-25T11:43:39.000Z</time>
      </trkpt>
      <trkpt lat="43.61098" lon="3.87379">
        <ele>65.710116993142</ele>
        <time>2020-10-25T11:43:40.000Z</time>
      </trkpt>
      <trkpt lat="43.61099" lon="3.87373">
        <ele>65.807393378856</ele>
        <time>2020-10-25T11:43:41.000Z</time>
      </trkpt>
      <trkpt lat="43.611" lon="3.87368">
        <ele>65.904669764569</ele>
        <time>2020-10-25T11:43:42.000Z</time>
      </trkpt>
      <trkpt lat="43.61101" lon="3.87362">
        <ele>66</ele>
        <time>2020-10-25T11:43:43.000Z</time>
      </trkpt>
      <trkpt lat="43.61102" lon="3.87356">
        <ele>66</ele>
        <time>2020-10-25T11:43:44.000Z</time>
      </trkpt>
      <trkpt lat="43.61103" lon="3.87351">
        <ele>66</ele>
        <time>2020-10-25T11:43:45.000Z</time>
      </trkpt>
      <trkpt lat="43.61105" lon="3.87345">
        <ele>66</ele>
        <time>2020-10-25T11:43:46.000Z</time>
      </trkpt>
      <trkpt lat="43.61105" lon="3.8734">
        <ele>66</ele>
        <time>2020-10-25T11:43:47.000Z</time>
      </trkpt>
      <trkpt lat="43.61106" lon="3.87335">
        <ele>66</ele>
        <time>2020-10-25T11:43:48.000Z</time>
      </trkpt>
      <trkpt lat="43.61107" lon="3.87329">
        <ele>66</ele>
        <time>2020-10-25T11:43:49.000Z</time>
      </trkpt>
      <trkpt lat="43.61107" lon="3.87325">
        <ele>66</ele>
        <time>2020-10-25T11:43:50.000Z</time>
      </trkpt>
      <trkpt lat="43.61108" lon="3.8732">
        <ele>66</ele>
        <time>2020-10-25T11:43:51.000Z</time>
      </trkpt>
      <trkpt lat="43.61108" lon="3.87315">
        <ele>66</ele>
        <time>2020-10-25T11:43:52.000Z</time>
      </trkpt>
      <trkpt lat="43.61109" lon="3.87309">
        <ele>65.970060499839</ele>
        <time>2020-10-25T11:43:53.000Z</time>
      </trkpt>
      <trkpt lat="43.61109" lon="3.87305">
        <ele>65.870260036893</ele>
        <time>2020-10-25T11:43:54.000Z</time>
      </trkpt>
      <trkpt lat="43.61109" lon="3.873">
        <ele>65.770459573946</ele>
        <time>2020-10-25T11:43:55.000Z</time>
      </trkpt>
      <trkpt lat="43.61108" lon="3.87297">
        <ele>65.670659111</ele>
        <time>2020-10-25T11:43:56.000Z</time>
      </trkpt>
      <trkpt lat="43.61107" lon="3.87293">
        <ele>65.570858648053</ele>
        <time>2020-10-25T11:43:57.000Z</time>
      </trkpt>
      <trkpt lat="43.61107" lon="3.87289">
        <ele>65.471058185107</ele>
        <time>2020-10-25T11:43:58.000Z</time>
      </trkpt>
      <trkpt lat="43.61108" lon="3.87285">
        <ele>65.371257722161</ele>
        <time>2020-10-25T11:43:59.000Z</time>
      </trkpt>
      <trkpt lat="43.61108" lon="3.87281">
        <ele>65.271457259214</ele>
        <time>2020-10-25T11:44:00.000Z</time>
      </trkpt>
      <trkpt lat="43.61109" lon="3.87277">
        <ele>65.171656796268</ele>
        <time>2020-10-25T11:44:01.000Z</time>
      </trkpt>
      <trkpt lat="43.61109" lon="3.87272">
        <ele>65.071856333321</ele>
        <time>2020-10-25T11:44:02.000Z</time>
      </trkpt>
      <trkpt lat="43.6111" lon="3.87268">
        <ele>65</ele>
        <time>2020-10-25T11:44:03.000Z</time>
      </trkpt>
      <trkpt lat="43.6111" lon="3.87264">
        <ele>65</ele>
        <time>2020-10-25T11:44:04.000Z</time>
      </trkpt>
      <trkpt lat="43.6111" lon="3.8726">
        <ele>65</ele>
        <time>2020-10-25T11:44:05.000Z</time>
      </trkpt>
      <trkpt lat="43.61111" lon="3.87256">
        <ele>65</ele>
        <time>2020-10-25T11:44:06.000Z</time>
      </trkpt>
      <trkpt lat="43.61112" lon="3.87252">
        <ele>65</ele>
        <time>2020-10-25T11:44:08.000Z</time>
      </trkpt>
      <trkpt lat="43.61113" lon="3.87249">
        <ele>65</ele>
        <time>2020-10-25T11:44:09.000Z</time>
      </trkpt>
      <trkpt lat="43.61114" lon="3.87246">
        <ele>65</ele>
        <time>2020-10-25T11:44:10.000Z</time>
      </trkpt>
      <trkpt lat="43.61114" lon="3.87242">
        <ele>65</ele>
        <time>2020-10-25T11:44:11.000Z</time>
      </trkpt>
      <trkpt lat="43.61115" lon="3.87237">
        <ele>65</ele>
        <time>2020-10-25T11:44:12.000Z</time>
      </trkpt>
      <trkpt lat="43.61116" lon="3.87233">
        <ele>64.91000192</ele>
        <time>2020-10-25T11:44:13.000Z</time>
      </trkpt>
      <trkpt lat="43.61117" lon="3.87228">
        <ele>64.61000192</ele>
        <time>2020-10-25T11:44:14.000Z</time>
      </trkpt>
      <trkpt lat="43.61119" lon="3.87225">
        <ele>64.31000192</ele>
        <time>2020-10-25T11:44:15.000Z</time>
      </trkpt>
      <trkpt lat="43.61121" lon="3.87221">
        <ele>64.01000192</ele>
        <time>2020-10-25T11:44:16.000Z</time>
      </trkpt>
      <trkpt lat="43.61124" lon="3.87218">
        <ele>63.71000192</ele>
        <time>2020-10-25T11:44:17.000Z</time>
      </trkpt>
      <trkpt lat="43.61126" lon="3.87214">
        <ele>63.41000192</ele>
        <time>2020-10-25T11:44:18.000Z</time>
      </trkpt>
      <trkpt lat="43.61128" lon="3.8721">
        <ele>63.11000192</ele>
        <time>2020-10-25T11:44:19.000Z</time>
      </trkpt>
      <trkpt lat="43.61131" lon="3.87206">
        <ele>62.81000192</ele>
        <time>2020-10-25T11:44:20.000Z</time>
      </trkpt>
      <trkpt lat="43.61134" lon="3.87203">
        <ele>62.51000192</ele>
        <time>2020-10-25T11:44:21.000Z</time>
      </trkpt>
      <trkpt lat="43.61139" lon="3.87201">
        <ele>62.21000192</ele>
        <time>2020-10-25T11:44:22.000Z</time>
      </trkpt>
      <trkpt lat="43.61143" lon="3.87201">
        <ele>61.88000256</ele>
        <time>2020-10-25T11:44:23.000Z</time>
      </trkpt>
      <trkpt lat="43.61148" lon="3.87202">
        <ele>61.48000256</ele>
        <time>2020-10-25T11:44:24.000Z</time>
      </trkpt>
      <trkpt lat="43.61154" lon="3.87202">
        <ele>61.08000256</ele>
        <time>2020-10-25T11:44:25.000Z</time>
      </trkpt>
      <trkpt lat="43.6116" lon="3.87202">
        <ele>60.68000256</ele>
        <time>2020-10-25T11:44:26.000Z</time>
      </trkpt>
      <trkpt lat="43.61166" lon="3.87201">
        <ele>60.28000256</ele>
        <time>2020-10-25T11:44:27.000Z</time>
      </trkpt>
      <trkpt lat="43.61173" lon="3.87201">
        <ele>59.88000256</ele>
        <time>2020-10-25T11:44:28.000Z</time>
      </trkpt>
      <trkpt lat="43.61179" lon="3.872">
        <ele>59.48000256</ele>
        <time>2020-10-25T11:44:29.000Z</time>
      </trkpt>
      <trkpt lat="43.61185" lon="3.87199">
        <ele>59.08000256</ele>
        <time>2020-10-25T11:44:30.000Z</time>
      </trkpt>
      <trkpt lat="43.61189" lon="3.87196">
        <ele>58.68000256</ele>
        <time>2020-10-25T11:44:31.000Z</time>
      </trkpt>
      <trkpt lat="43.61193" lon="3.87192">
        <ele>58.28000256</ele>
        <time>2020-10-25T11:44:32.000Z</time>
      </trkpt>
      <trkpt lat="43.61195" lon="3.87185">
        <ele>58</ele>
        <time>2020-10-25T11:44:33.000Z</time>
      </trkpt>
      <trkpt lat="43.61197" lon="3.87178">
        <ele>58</ele>
        <time>2020-10-25T11:44:34.000Z</time>
      </trkpt>
      <trkpt lat="43.61198" lon="3.87171">
        <ele>58</ele>
        <time>2020-10-25T11:44:35.000Z</time>
      </trkpt>
      <trkpt lat="43.61199" lon="3.87164">
        <ele>58</ele>
        <time>2020-10-25T11:44:36.000Z</time>
      </trkpt>
      <trkpt lat="43.612" lon="3.87157">
        <ele>58</ele>
        <time>2020-10-25T11:44:37.000Z</time>
      </trkpt>
      <trkpt lat="43.612" lon="3.87151">
        <ele>58</ele>
        <time>2020-10-25T11:44:38.000Z</time>
      </trkpt>
      <trkpt lat="43.612" lon="3.87144">
        <ele>58</ele>
        <time>2020-10-25T11:44:39.000Z</time>
      </trkpt>
      <trkpt lat="43.61201" lon="3.87136">
        <ele>58</ele>
        <time>2020-10-25T11:44:40.000Z</time>
      </trkpt>
      <trkpt lat="43.61202" lon="3.87129">
        <ele>58</ele>
        <time>2020-10-25T11:44:41.000Z</time>
      </trkpt>
      <trkpt lat="43.61202" lon="3.87122">
        <ele>58</ele>
        <time>2020-10-25T11:44:42.000Z</time>
      </trkpt>
      <trkpt lat="43.61202" lon="3.87114">
        <ele>57.947417824576</ele>
        <time>2020-10-25T11:44:43.000Z</time>
      </trkpt>
      <trkpt lat="43.61203" lon="3.87107">
        <ele>57.75962434092</ele>
        <time>2020-10-25T11:44:44.000Z</time>
      </trkpt>
      <trkpt lat="43.61203" lon="3.87099">
        <ele>57.571830857264</ele>
        <time>2020-10-25T11:44:45.000Z</time>
      </trkpt>
      <trkpt lat="43.61204" lon="3.87092">
        <ele>57.384037373607</ele>
        <time>2020-10-25T11:44:46.000Z</time>
      </trkpt>
      <trkpt lat="43.61205" lon="3.87084">
        <ele>57.196243889951</ele>
        <time>2020-10-25T11:44:47.000Z</time>
      </trkpt>
      <trkpt lat="43.61205" lon="3.87076">
        <ele>57.008450406295</ele>
        <time>2020-10-25T11:44:48.000Z</time>
      </trkpt>
      <trkpt lat="43.61206" lon="3.87069">
        <ele>56.820656922639</ele>
        <time>2020-10-25T11:44:49.000Z</time>
      </trkpt>
      <trkpt lat="43.61206" lon="3.87061">
        <ele>56.632863438982</ele>
        <time>2020-10-25T11:44:50.000Z</time>
      </trkpt>
      <trkpt lat="43.61207" lon="3.87053">
        <ele>56.445069955326</ele>
        <time>2020-10-25T11:44:51.000Z</time>
      </trkpt>
      <trkpt lat="43.61207" lon="3.87045">
        <ele>56.25727647167</ele>
        <time>2020-10-25T11:44:52.000Z</time>
      </trkpt>
      <trkpt lat="43.61208" lon="3.87037">
        <ele>56.069482988014</ele>
        <time>2020-10-25T11:44:53.000Z</time>
      </trkpt>
      <trkpt lat="43.61208" lon="3.87029">
        <ele>55.864951221486</ele>
        <time>2020-10-25T11:44:54.000Z</time>
      </trkpt>
      <trkpt lat="43.61209" lon="3.87021">
        <ele>55.650589169812</ele>
        <time>2020-10-25T11:44:55.000Z</time>
      </trkpt>
      <trkpt lat="43.61209" lon="3.87013">
        <ele>55.436227118137</ele>
        <time>2020-10-25T11:44:56.000Z</time>
      </trkpt>
      <trkpt lat="43.6121" lon="3.87005">
        <ele>55.221865066462</ele>
        <time>2020-10-25T11:44:57.000Z</time>
      </trkpt>
      <trkpt lat="43.61211" lon="3.86997">
        <ele>55.007503014788</ele>
        <time>2020-10-25T11:44:58.000Z</time>
      </trkpt>
      <trkpt lat="43.61211" lon="3.86989">
        <ele>54.793140963113</ele>
        <time>2020-10-25T11:44:59.000Z</time>
      </trkpt>
      <trkpt lat="43.61212" lon="3.8698">
        <ele>54.578778911439</ele>
        <time>2020-10-25T11:45:00.000Z</time>
      </trkpt>
      <trkpt lat="43.61213" lon="3.86972">
        <ele>54.364416859764</ele>
        <time>2020-10-25T11:45:01.000Z</time>
      </trkpt>
      <trkpt lat="43.61214" lon="3.86963">
        <ele>54.150054808089</ele>
        <time>2020-10-25T11:45:02.000Z</time>
      </trkpt>
      <trkpt lat="43.61214" lon="3.86955">
        <ele>53.940240242537</ele>
        <time>2020-10-25T11:45:03.000Z</time>
      </trkpt>
      <trkpt lat="43.61215" lon="3.86946">
        <ele>53.741036801322</ele>
        <time>2020-10-25T11:45:04.000Z</time>
      </trkpt>
      <trkpt lat="43.61216" lon="3.86938">
        <ele>53.541833360106</ele>
        <time>2020-10-25T11:45:05.000Z</time>
      </trkpt>
      <trkpt lat="43.61217" lon="3.86929">
        <ele>53.342629918891</ele>
        <time>2020-10-25T11:45:06.000Z</time>
      </trkpt>
      <trkpt lat="43.61217" lon="3.8692">
        <ele>53.143426477675</ele>
        <time>2020-10-25T11:45:07.000Z</time>
      </trkpt>
      <trkpt lat="43.61217" lon="3.86911">
        <ele>52.94422303646</ele>
        <time>2020-10-25T11:45:08.000Z</time>
      </trkpt>
      <trkpt lat="43.61218" lon="3.86902">
        <ele>52.745019595244</ele>
        <time>2020-10-25T11:45:09.000Z</time>
      </trkpt>
      <trkpt lat="43.61218" lon="3.86893">
        <ele>52.545816154029</ele>
        <time>2020-10-25T11:45:10.000Z</time>
      </trkpt>
      <trkpt lat="43.61218" lon="3.86883">
        <ele>52.346612712813</ele>
        <time>2020-10-25T11:45:11.000Z</time>
      </trkpt>
      <trkpt lat="43.61219" lon="3.86875">
        <ele>52.147409271598</ele>
        <time>2020-10-25T11:45:12.000Z</time>
      </trkpt>
      <trkpt lat="43.6122" lon="3.86867">
        <ele>51.947894542432</ele>
        <time>2020-10-25T11:45:13.000Z</time>
      </trkpt>
      <trkpt lat="43.6122" lon="3.86861">
        <ele>51.747493869343</ele>
        <time>2020-10-25T11:45:14.000Z</time>
      </trkpt>
      <trkpt lat="43.61221" lon="3.86854">
        <ele>51.547093196253</ele>
        <time>2020-10-25T11:45:15.000Z</time>
      </trkpt>
      <trkpt lat="43.61222" lon="3.86847">
        <ele>51.346692523163</ele>
        <time>2020-10-25T11:45:16.000Z</time>
      </trkpt>
      <trkpt lat="43.61223" lon="3.8684">
        <ele>51.146291850073</ele>
        <time>2020-10-25T11:45:17.000Z</time>
      </trkpt>
      <trkpt lat="43.61223" lon="3.86833">
        <ele>50.945891176984</ele>
        <time>2020-10-25T11:45:18.000Z</time>
      </trkpt>
      <trkpt lat="43.61224" lon="3.86826">
        <ele>50.745490503894</ele>
        <time>2020-10-25T11:45:19.000Z</time>
      </trkpt>
      <trkpt lat="43.61223" lon="3.86818">
        <ele>50.545089830804</ele>
        <time>2020-10-25T11:45:20.000Z</time>
      </trkpt>
      <trkpt lat="43.61221" lon="3.8681">
        <ele>50.344689157714</ele>
        <time>2020-10-25T11:45:21.000Z</time>
      </trkpt>
      <trkpt lat="43.61217" lon="3.86802">
        <ele>50.144288484625</ele>
        <time>2020-10-25T11:45:22.000Z</time>
      </trkpt>
      <trkpt lat="43.61213" lon="3.86795">
        <ele>49.97273613313</ele>
        <time>2020-10-25T11:45:23.000Z</time>
      </trkpt>
      <trkpt lat="43.61209" lon="3.86787">
        <ele>49.875365180022</ele>
        <time>2020-10-25T11:45:24.000Z</time>
      </trkpt>
      <trkpt lat="43.61206" lon="3.86779">
        <ele>49.777994226915</ele>
        <time>2020-10-25T11:45:25.000Z</time>
      </trkpt>
      <trkpt lat="43.61205" lon="3.8677">
        <ele>49.680623273808</ele>
        <time>2020-10-25T11:45:26.000Z</time>
      </trkpt>
      <trkpt lat="43.61204" lon="3.86761">
        <ele>49.5832523207</ele>
        <time>2020-10-25T11:45:27.000Z</time>
      </trkpt>
      <trkpt lat="43.61204" lon="3.86751">
        <ele>49.485881367593</ele>
        <time>2020-10-25T11:45:28.000Z</time>
      </trkpt>
      <trkpt lat="43.61205" lon="3.86741">
        <ele>49.388510414486</ele>
        <time>2020-10-25T11:45:29.000Z</time>
      </trkpt>
      <trkpt lat="43.61205" lon="3.86731">
        <ele>49.291139461378</ele>
        <time>2020-10-25T11:45:30.000Z</time>
      </trkpt>
      <trkpt lat="43.61205" lon="3.86721">
        <ele>49.193768508271</ele>
        <time>2020-10-25T11:45:31.000Z</time>
      </trkpt>
      <trkpt lat="43.61205" lon="3.86711">
        <ele>49.096397555163</ele>
        <time>2020-10-25T11:45:32.000Z</time>
      </trkpt>
      <trkpt lat="43.61206" lon="3.86702">
        <ele>48.997953571489</ele>
        <time>2020-10-25T11:45:33.000Z</time>
      </trkpt>
      <trkpt lat="43.61208" lon="3.86694">
        <ele>48.793245213755</ele>
        <time>2020-10-25T11:45:34.000Z</time>
      </trkpt>
      <trkpt lat="43.61209" lon="3.86686">
        <ele>48.58853685602</ele>
        <time>2020-10-25T11:45:35.000Z</time>
      </trkpt>
      <trkpt lat="43.61208" lon="3.86679">
        <ele>48.383828498286</ele>
        <time>2020-10-25T11:45:36.000Z</time>
      </trkpt>
      <trkpt lat="43.61207" lon="3.86672">
        <ele>48.179120140551</ele>
        <time>2020-10-25T11:45:37.000Z</time>
      </trkpt>
      <trkpt lat="43.61206" lon="3.86666">
        <ele>47.974411782817</ele>
        <time>2020-10-25T11:45:38.000Z</time>
      </trkpt>
      <trkpt lat="43.61207" lon="3.8666">
        <ele>47.769703425082</ele>
        <time>2020-10-25T11:45:39.000Z</time>
      </trkpt>
      <trkpt lat="43.61207" lon="3.86654">
        <ele>47.564995067347</ele>
        <time>2020-10-25T11:45:40.000Z</time>
      </trkpt>
      <trkpt lat="43.61208" lon="3.86647">
        <ele>47.360286709613</ele>
        <time>2020-10-25T11:45:41.000Z</time>
      </trkpt>
      <trkpt lat="43.61209" lon="3.86641">
        <ele>47.155578351878</ele>
        <time>2020-10-25T11:45:42.000Z</time>
      </trkpt>
      <trkpt lat="43.61208" lon="3.86634">
        <ele>47.048289707339</ele>
        <time>2020-10-25T11:45:43.000Z</time>
      </trkpt>
      <trkpt lat="43.61207" lon="3.86627">
        <ele>47.24949682125</ele>
        <time>2020-10-25T11:45:44.000Z</time>
      </trkpt>
      <trkpt lat="43.61205" lon="3.86621">
        <ele>47.45070393516</ele>
        <time>2020-10-25T11:45:45.000Z</time>
      </trkpt>
      <trkpt lat="43.61203" lon="3.86614">
        <ele>47.651911049071</ele>
        <time>2020-10-25T11:45:46.000Z</time>
      </trkpt>
      <trkpt lat="43.61202" lon="3.86608">
        <ele>47.853118162982</ele>
        <time>2020-10-25T11:45:47.000Z</time>
      </trkpt>
      <trkpt lat="43.61201" lon="3.86601">
        <ele>48.054325276893</ele>
        <time>2020-10-25T11:45:48.000Z</time>
      </trkpt>
      <trkpt lat="43.612" lon="3.86595">
        <ele>48.255532390804</ele>
        <time>2020-10-25T11:45:49.000Z</time>
      </trkpt>
      <trkpt lat="43.61199" lon="3.86588">
        <ele>48.456739504715</ele>
        <time>2020-10-25T11:45:50.000Z</time>
      </trkpt>
      <trkpt lat="43.61198" lon="3.86582">
        <ele>48.657946618626</ele>
        <time>2020-10-25T11:45:51.000Z</time>
      </trkpt>
      <trkpt lat="43.61196" lon="3.86576">
        <ele>48.859153732537</ele>
        <time>2020-10-25T11:45:52.000Z</time>
      </trkpt>
      <trkpt lat="43.61195" lon="3.86571">
        <ele>49</ele>
        <time>2020-10-25T11:45:53.000Z</time>
      </trkpt>
      <trkpt lat="43.61193" lon="3.86566">
        <ele>49</ele>
        <time>2020-10-25T11:45:54.000Z</time>
      </trkpt>
      <trkpt lat="43.61191" lon="3.8656">
        <ele>49</ele>
        <time>2020-10-25T11:45:55.000Z</time>
      </trkpt>
      <trkpt lat="43.61188" lon="3.86556">
        <ele>49</ele>
        <time>2020-10-25T11:45:56.000Z</time>
      </trkpt>
      <trkpt lat="43.61186" lon="3.86551">
        <ele>49</ele>
        <time>2020-10-25T11:45:57.000Z</time>
      </trkpt>
      <trkpt lat="43.61184" lon="3.86545">
        <ele>49</ele>
        <time>2020-10-25T11:45:58.000Z</time>
      </trkpt>
      <trkpt lat="43.61183" lon="3.8654">
        <ele>49</ele>
        <time>2020-10-25T11:45:59.000Z</time>
      </trkpt>
      <trkpt lat="43.61183" lon="3.86534">
        <ele>49</ele>
        <time>2020-10-25T11:46:00.000Z</time>
      </trkpt>
      <trkpt lat="43.61184" lon="3.86528">
        <ele>49</ele>
        <time>2020-10-25T11:46:01.000Z</time>
      </trkpt>
      <trkpt lat="43.61184" lon="3.86523">
        <ele>49</ele>
        <time>2020-10-25T11:46:02.000Z</time>
      </trkpt>
      <trkpt lat="43.61184" lon="3.86517">
        <ele>49</ele>
        <time>2020-10-25T11:46:03.000Z</time>
      </trkpt>
      <trkpt lat="43.61185" lon="3.86511">
        <ele>49</ele>
        <time>2020-10-25T11:46:04.000Z</time>
      </trkpt>
      <trkpt lat="43.61185" lon="3.86505">
        <ele>49</ele>
        <time>2020-10-25T11:46:05.000Z</time>
      </trkpt>
      <trkpt lat="43.61186" lon="3.86499">
        <ele>49</ele>
        <time>2020-10-25T11:46:06.000Z</time>
      </trkpt>
      <trkpt lat="43.61186" lon="3.86493">
        <ele>49</ele>
        <time>2020-10-25T11:46:07.000Z</time>
      </trkpt>
      <trkpt lat="43.61186" lon="3.86488">
        <ele>49</ele>
        <time>2020-10-25T11:46:08.000Z</time>
      </trkpt>
      <trkpt lat="43.61186" lon="3.86481">
        <ele>49</ele>
        <time>2020-10-25T11:46:09.000Z</time>
      </trkpt>
      <trkpt lat="43.61187" lon="3.86475">
        <ele>49</ele>
        <time>2020-10-25T11:46:10.000Z</time>
      </trkpt>
      <trkpt lat="43.61187" lon="3.86469">
        <ele>49</ele>
        <time>2020-10-25T11:46:11.000Z</time>
      </trkpt>
      <trkpt lat="43.61187" lon="3.86462">
        <ele>49</ele>
        <time>2020-10-25T11:46:12.000Z</time>
      </trkpt>
      <trkpt lat="43.61187" lon="3.86456">
        <ele>49</ele>
        <time>2020-10-25T11:46:13.000Z</time>
      </trkpt>
      <trkpt lat="43.61188" lon="3.8645">
        <ele>49</ele>
        <time>2020-10-25T11:46:14.000Z</time>
      </trkpt>
      <trkpt lat="43.61189" lon="3.86444">
        <ele>49</ele>
        <time>2020-10-25T11:46:15.000Z</time>
      </trkpt>
      <trkpt lat="43.6119" lon="3.86437">
        <ele>49</ele>
        <time>2020-10-25T11:46:16.000Z</time>
      </trkpt>
      <trkpt lat="43.6119" lon="3.86431">
        <ele>49</ele>
        <time>2020-10-25T11:46:17.000Z</time>
      </trkpt>
      <trkpt lat="43.61191" lon="3.86424">
        <ele>49</ele>
        <time>2020-10-25T11:46:18.000Z</time>
      </trkpt>
      <trkpt lat="43.61192" lon="3.86418">
        <ele>49</ele>
        <time>2020-10-25T11:46:19.000Z</time>
      </trkpt>
      <trkpt lat="43.61192" lon="3.86412">
        <ele>49</ele>
        <time>2020-10-25T11:46:20.000Z</time>
      </trkpt>
      <trkpt lat="43.61193" lon="3.86406">
        <ele>49</ele>
        <time>2020-10-25T11:46:21.000Z</time>
      </trkpt>
      <trkpt lat="43.61193" lon="3.864">
        <ele>49</ele>
        <time>2020-10-25T11:46:22.000Z</time>
      </trkpt>
      <trkpt lat="43.61193" lon="3.86395">
        <ele>49.028056094233</ele>
        <time>2020-10-25T11:46:23.000Z</time>
      </trkpt>
      <trkpt lat="43.61194" lon="3.86389">
        <ele>49.128256430777</ele>
        <time>2020-10-25T11:46:24.000Z</time>
      </trkpt>
      <trkpt lat="43.61195" lon="3.86383">
        <ele>49.228456767322</ele>
        <time>2020-10-25T11:46:25.000Z</time>
      </trkpt>
      <trkpt lat="43.61196" lon="3.86377">
        <ele>49.328657103867</ele>
        <time>2020-10-25T11:46:26.000Z</time>
      </trkpt>
      <trkpt lat="43.61196" lon="3.86371">
        <ele>49.428857440412</ele>
        <time>2020-10-25T11:46:27.000Z</time>
      </trkpt>
      <trkpt lat="43.61197" lon="3.86365">
        <ele>49.529057776957</ele>
        <time>2020-10-25T11:46:28.000Z</time>
      </trkpt>
      <trkpt lat="43.61198" lon="3.86359">
        <ele>49.629258113502</ele>
        <time>2020-10-25T11:46:29.000Z</time>
      </trkpt>
      <trkpt lat="43.61199" lon="3.86352">
        <ele>49.729458450047</ele>
        <time>2020-10-25T11:46:30.000Z</time>
      </trkpt>
      <trkpt lat="43.61199" lon="3.86344">
        <ele>49.829658786592</ele>
        <time>2020-10-25T11:46:31.000Z</time>
      </trkpt>
      <trkpt lat="43.612" lon="3.86337">
        <ele>49.929859123136</ele>
        <time>2020-10-25T11:46:32.000Z</time>
      </trkpt>
      <trkpt lat="43.61201" lon="3.86331">
        <ele>50.02999936</ele>
        <time>2020-10-25T11:46:33.000Z</time>
      </trkpt>
      <trkpt lat="43.61202" lon="3.86324">
        <ele>50.12999936</ele>
        <time>2020-10-25T11:46:34.000Z</time>
      </trkpt>
      <trkpt lat="43.61202" lon="3.86317">
        <ele>50.22999936</ele>
        <time>2020-10-25T11:46:35.000Z</time>
      </trkpt>
      <trkpt lat="43.61203" lon="3.86311">
        <ele>50.32999936</ele>
        <time>2020-10-25T11:46:36.000Z</time>
      </trkpt>
      <trkpt lat="43.61203" lon="3.86304">
        <ele>50.42999936</ele>
        <time>2020-10-25T11:46:37.000Z</time>
      </trkpt>
      <trkpt lat="43.61204" lon="3.86297">
        <ele>50.52999936</ele>
        <time>2020-10-25T11:46:38.000Z</time>
      </trkpt>
      <trkpt lat="43.61204" lon="3.8629">
        <ele>50.62999936</ele>
        <time>2020-10-25T11:46:39.000Z</time>
      </trkpt>
      <trkpt lat="43.61204" lon="3.86283">
        <ele>50.72999936</ele>
        <time>2020-10-25T11:46:40.000Z</time>
      </trkpt>
      <trkpt lat="43.61204" lon="3.86276">
        <ele>50.82999936</ele>
        <time>2020-10-25T11:46:41.000Z</time>
      </trkpt>
      <trkpt lat="43.61205" lon="3.8627">
        <ele>50.92999936</ele>
        <time>2020-10-25T11:46:42.000Z</time>
      </trkpt>
      <trkpt lat="43.61205" lon="3.86263">
        <ele>51.029850118957</ele>
        <time>2020-10-25T11:46:43.000Z</time>
      </trkpt>
      <trkpt lat="43.61206" lon="3.86257">
        <ele>51.129352638202</ele>
        <time>2020-10-25T11:46:44.000Z</time>
      </trkpt>
      <trkpt lat="43.61206" lon="3.8625">
        <ele>51.228855157446</ele>
        <time>2020-10-25T11:46:45.000Z</time>
      </trkpt>
      <trkpt lat="43.61206" lon="3.86243">
        <ele>51.328357676691</ele>
        <time>2020-10-25T11:46:46.000Z</time>
      </trkpt>
      <trkpt lat="43.61207" lon="3.86237">
        <ele>51.427860195936</ele>
        <time>2020-10-25T11:46:47.000Z</time>
      </trkpt>
      <trkpt lat="43.61207" lon="3.8623">
        <ele>51.52736271518</ele>
        <time>2020-10-25T11:46:48.000Z</time>
      </trkpt>
      <trkpt lat="43.61208" lon="3.86224">
        <ele>51.626865234425</ele>
        <time>2020-10-25T11:46:49.000Z</time>
      </trkpt>
      <trkpt lat="43.61209" lon="3.86218">
        <ele>51.726367753669</ele>
        <time>2020-10-25T11:46:50.000Z</time>
      </trkpt>
      <trkpt lat="43.61209" lon="3.86211">
        <ele>51.825870272914</ele>
        <time>2020-10-25T11:46:51.000Z</time>
      </trkpt>
      <trkpt lat="43.6121" lon="3.86205">
        <ele>51.925372792158</ele>
        <time>2020-10-25T11:46:52.000Z</time>
      </trkpt>
      <trkpt lat="43.6121" lon="3.86199">
        <ele>52.025125298452</ele>
        <time>2020-10-25T11:46:53.000Z</time>
      </trkpt>
      <trkpt lat="43.6121" lon="3.86192">
        <ele>52.125627778693</ele>
        <time>2020-10-25T11:46:54.000Z</time>
      </trkpt>
      <trkpt lat="43.61211" lon="3.86187">
        <ele>52.226130258933</ele>
        <time>2020-10-25T11:46:55.000Z</time>
      </trkpt>
      <trkpt lat="43.61211" lon="3.86181">
        <ele>52.326632739173</ele>
        <time>2020-10-25T11:46:56.000Z</time>
      </trkpt>
      <trkpt lat="43.61212" lon="3.86174">
        <ele>52.427135219414</ele>
        <time>2020-10-25T11:46:57.000Z</time>
      </trkpt>
      <trkpt lat="43.61212" lon="3.86167">
        <ele>52.527637699654</ele>
        <time>2020-10-25T11:46:58.000Z</time>
      </trkpt>
      <trkpt lat="43.61212" lon="3.86161">
        <ele>52.628140179895</ele>
        <time>2020-10-25T11:46:59.000Z</time>
      </trkpt>
      <trkpt lat="43.61212" lon="3.86155">
        <ele>52.728642660135</ele>
        <time>2020-10-25T11:47:00.000Z</time>
      </trkpt>
      <trkpt lat="43.61213" lon="3.86149">
        <ele>52.829145140375</ele>
        <time>2020-10-25T11:47:01.000Z</time>
      </trkpt>
      <trkpt lat="43.61213" lon="3.86143">
        <ele>52.929647620616</ele>
        <time>2020-10-25T11:47:02.000Z</time>
      </trkpt>
      <trkpt lat="43.61214" lon="3.86136">
        <ele>53</ele>
        <time>2020-10-25T11:47:03.000Z</time>
      </trkpt>
      <trkpt lat="43.61215" lon="3.8613">
        <ele>53</ele>
        <time>2020-10-25T11:47:04.000Z</time>
      </trkpt>
      <trkpt lat="43.61216" lon="3.86124">
        <ele>53</ele>
        <time>2020-10-25T11:47:05.000Z</time>
      </trkpt>
      <trkpt lat="43.61217" lon="3.86118">
        <ele>53</ele>
        <time>2020-10-25T11:47:06.000Z</time>
      </trkpt>
      <trkpt lat="43.61218" lon="3.86112">
        <ele>53</ele>
        <time>2020-10-25T11:47:07.000Z</time>
      </trkpt>
      <trkpt lat="43.61219" lon="3.86106">
        <ele>53</ele>
        <time>2020-10-25T11:47:08.000Z</time>
      </trkpt>
      <trkpt lat="43.6122" lon="3.86101">
        <ele>53</ele>
        <time>2020-10-25T11:47:09.000Z</time>
      </trkpt>
      <trkpt lat="43.61221" lon="3.86095">
        <ele>53</ele>
        <time>2020-10-25T11:47:10.000Z</time>
      </trkpt>
      <trkpt lat="43.61222" lon="3.8609">
        <ele>53</ele>
        <time>2020-10-25T11:47:11.000Z</time>
      </trkpt>
      <trkpt lat="43.61223" lon="3.86084">
        <ele>53</ele>
        <time>2020-10-25T11:47:12.000Z</time>
      </trkpt>
      <trkpt lat="43.61225" lon="3.86078">
        <ele>53.02845398374</ele>
        <time>2020-10-25T11:47:13.000Z</time>
      </trkpt>
      <trkpt lat="43.61227" lon="3.86072">
        <ele>53.23170601626</ele>
        <time>2020-10-25T11:47:14.000Z</time>
      </trkpt>
      <trkpt lat="43.61229" lon="3.86066">
        <ele>53.434958048781</ele>
        <time>2020-10-25T11:47:15.000Z</time>
      </trkpt>
      <trkpt lat="43.6123" lon="3.8606">
        <ele>53.638210081301</ele>
        <time>2020-10-25T11:47:16.000Z</time>
      </trkpt>
      <trkpt lat="43.61232" lon="3.86054">
        <ele>53.841462113821</ele>
        <time>2020-10-25T11:47:17.000Z</time>
      </trkpt>
      <trkpt lat="43.61234" lon="3.86047">
        <ele>54.044714146341</ele>
        <time>2020-10-25T11:47:18.000Z</time>
      </trkpt>
      <trkpt lat="43.61236" lon="3.86042">
        <ele>54.247966178862</ele>
        <time>2020-10-25T11:47:19.000Z</time>
      </trkpt>
      <trkpt lat="43.61238" lon="3.86036">
        <ele>54.451218211382</ele>
        <time>2020-10-25T11:47:20.000Z</time>
      </trkpt>
      <trkpt lat="43.6124" lon="3.86031">
        <ele>54.654470243902</ele>
        <time>2020-10-25T11:47:21.000Z</time>
      </trkpt>
      <trkpt lat="43.61242" lon="3.86024">
        <ele>54.857722276423</ele>
        <time>2020-10-25T11:47:22.000Z</time>
      </trkpt>
      <trkpt lat="43.61244" lon="3.86018">
        <ele>54.97000064</ele>
        <time>2020-10-25T11:47:23.000Z</time>
      </trkpt>
      <trkpt lat="43.61247" lon="3.86011">
        <ele>54.87000064</ele>
        <time>2020-10-25T11:47:24.000Z</time>
      </trkpt>
      <trkpt lat="43.6125" lon="3.86005">
        <ele>54.77000064</ele>
        <time>2020-10-25T11:47:25.000Z</time>
      </trkpt>
      <trkpt lat="43.61253" lon="3.86">
        <ele>54.67000064</ele>
        <time>2020-10-25T11:47:26.000Z</time>
      </trkpt>
      <trkpt lat="43.61256" lon="3.85995">
        <ele>54.57000064</ele>
        <time>2020-10-25T11:47:27.000Z</time>
      </trkpt>
      <trkpt lat="43.61259" lon="3.8599">
        <ele>54.47000064</ele>
        <time>2020-10-25T11:47:28.000Z</time>
      </trkpt>
      <trkpt lat="43.61262" lon="3.85985">
        <ele>54.37000064</ele>
        <time>2020-10-25T11:47:29.000Z</time>
      </trkpt>
      <trkpt lat="43.61265" lon="3.85981">
        <ele>54.27000064</ele>
        <time>2020-10-25T11:47:30.000Z</time>
      </trkpt>
      <trkpt lat="43.61269" lon="3.85977">
        <ele>54.17000064</ele>
        <time>2020-10-25T11:47:31.000Z</time>
      </trkpt>
      <trkpt lat="43.61272" lon="3.85973">
        <ele>54.07000064</ele>
        <time>2020-10-25T11:47:32.000Z</time>
      </trkpt>
      <trkpt lat="43.61275" lon="3.85969">
        <ele>54</ele>
        <time>2020-10-25T11:47:33.000Z</time>
      </trkpt>
      <trkpt lat="43.61278" lon="3.85964">
        <ele>54</ele>
        <time>2020-10-25T11:47:34.000Z</time>
      </trkpt>
      <trkpt lat="43.61282" lon="3.85959">
        <ele>54</ele>
        <time>2020-10-25T11:47:35.000Z</time>
      </trkpt>
      <trkpt lat="43.61286" lon="3.85955">
        <ele>54</ele>
        <time>2020-10-25T11:47:36.000Z</time>
      </trkpt>
      <trkpt lat="43.61289" lon="3.85951">
        <ele>54</ele>
        <time>2020-10-25T11:47:37.000Z</time>
      </trkpt>
      <trkpt lat="43.61292" lon="3.85946">
        <ele>54</ele>
        <time>2020-10-25T11:47:38.000Z</time>
      </trkpt>
      <trkpt lat="43.61295" lon="3.85942">
        <ele>54</ele>
        <time>2020-10-25T11:47:39.000Z</time>
      </trkpt>
      <trkpt lat="43.61299" lon="3.85938">
        <ele>54</ele>
        <time>2020-10-25T11:47:40.000Z</time>
      </trkpt>
      <trkpt lat="43.61302" lon="3.85935">
        <ele>54</ele>
        <time>2020-10-25T11:47:41.000Z</time>
      </trkpt>
      <trkpt lat="43.61306" lon="3.85931">
        <ele>54</ele>
        <time>2020-10-25T11:47:42.000Z</time>
      </trkpt>
      <trkpt lat="43.6131" lon="3.85928">
        <ele>54</ele>
        <time>2020-10-25T11:47:43.000Z</time>
      </trkpt>
      <trkpt lat="43.61313" lon="3.85924">
        <ele>54</ele>
        <time>2020-10-25T11:47:44.000Z</time>
      </trkpt>
      <trkpt lat="43.61316" lon="3.8592">
        <ele>54</ele>
        <time>2020-10-25T11:47:45.000Z</time>
      </trkpt>
      <trkpt lat="43.61319" lon="3.85916">
        <ele>54</ele>
        <time>2020-10-25T11:47:46.000Z</time>
      </trkpt>
      <trkpt lat="43.61323" lon="3.85912">
        <ele>54</ele>
        <time>2020-10-25T11:47:47.000Z</time>
      </trkpt>
      <trkpt lat="43.61326" lon="3.85907">
        <ele>54</ele>
        <time>2020-10-25T11:47:48.000Z</time>
      </trkpt>
      <trkpt lat="43.61329" lon="3.85903">
        <ele>54</ele>
        <time>2020-10-25T11:47:49.000Z</time>
      </trkpt>
      <trkpt lat="43.61332" lon="3.85899">
        <ele>54</ele>
        <time>2020-10-25T11:47:50.000Z</time>
      </trkpt>
      <trkpt lat="43.61335" lon="3.85896">
        <ele>54</ele>
        <time>2020-10-25T11:47:51.000Z</time>
      </trkpt>
      <trkpt lat="43.61339" lon="3.85891">
        <ele>54</ele>
        <time>2020-10-25T11:47:52.000Z</time>
      </trkpt>
      <trkpt lat="43.61342" lon="3.85888">
        <ele>53.972055870375</ele>
        <time>2020-10-25T11:47:53.000Z</time>
      </trkpt>
      <trkpt lat="43.61346" lon="3.85884">
        <ele>53.872255407429</ele>
        <time>2020-10-25T11:47:54.000Z</time>
      </trkpt>
      <trkpt lat="43.61349" lon="3.8588">
        <ele>53.772454944482</ele>
        <time>2020-10-25T11:47:55.000Z</time>
      </trkpt>
      <trkpt lat="43.61353" lon="3.85876">
        <ele>53.672654481536</ele>
        <time>2020-10-25T11:47:56.000Z</time>
      </trkpt>
      <trkpt lat="43.61356" lon="3.85873">
        <ele>53.572854018589</ele>
        <time>2020-10-25T11:47:57.000Z</time>
      </trkpt>
      <trkpt lat="43.61359" lon="3.85869">
        <ele>53.473053555643</ele>
        <time>2020-10-25T11:47:58.000Z</time>
      </trkpt>
      <trkpt lat="43.61363" lon="3.85865">
        <ele>53.373253092697</ele>
        <time>2020-10-25T11:47:59.000Z</time>
      </trkpt>
      <trkpt lat="43.61366" lon="3.85861">
        <ele>53.27345262975</ele>
        <time>2020-10-25T11:48:00.000Z</time>
      </trkpt>
      <trkpt lat="43.61369" lon="3.85857">
        <ele>53.173652166804</ele>
        <time>2020-10-25T11:48:01.000Z</time>
      </trkpt>
      <trkpt lat="43.61373" lon="3.85853">
        <ele>53.073851703857</ele>
        <time>2020-10-25T11:48:02.000Z</time>
      </trkpt>
      <trkpt lat="43.61376" lon="3.85849">
        <ele>53</ele>
        <time>2020-10-25T11:48:03.000Z</time>
      </trkpt>
      <trkpt lat="43.6138" lon="3.85844">
        <ele>53</ele>
        <time>2020-10-25T11:48:04.000Z</time>
      </trkpt>
      <trkpt lat="43.61383" lon="3.8584">
        <ele>53</ele>
        <time>2020-10-25T11:48:05.000Z</time>
      </trkpt>
      <trkpt lat="43.61387" lon="3.85835">
        <ele>53</ele>
        <time>2020-10-25T11:48:06.000Z</time>
      </trkpt>
      <trkpt lat="43.6139" lon="3.85831">
        <ele>53</ele>
        <time>2020-10-25T11:48:07.000Z</time>
      </trkpt>
      <trkpt lat="43.61394" lon="3.85827">
        <ele>53</ele>
        <time>2020-10-25T11:48:08.000Z</time>
      </trkpt>
      <trkpt lat="43.61397" lon="3.85823">
        <ele>53</ele>
        <time>2020-10-25T11:48:09.000Z</time>
      </trkpt>
      <trkpt lat="43.614" lon="3.85819">
        <ele>53</ele>
        <time>2020-10-25T11:48:10.000Z</time>
      </trkpt>
      <trkpt lat="43.61404" lon="3.85815">
        <ele>53</ele>
        <time>2020-10-25T11:48:11.000Z</time>
      </trkpt>
      <trkpt lat="43.61407" lon="3.85811">
        <ele>53</ele>
        <time>2020-10-25T11:48:12.000Z</time>
      </trkpt>
      <trkpt lat="43.6141" lon="3.85807">
        <ele>53</ele>
        <time>2020-10-25T11:48:13.000Z</time>
      </trkpt>
      <trkpt lat="43.61413" lon="3.85802">
        <ele>53.103092715485</ele>
        <time>2020-10-25T11:48:14.000Z</time>
      </trkpt>
      <trkpt lat="43.61417" lon="3.85798">
        <ele>53.20618543097</ele>
        <time>2020-10-25T11:48:15.000Z</time>
      </trkpt>
      <trkpt lat="43.6142" lon="3.85793">
        <ele>53.309278146456</ele>
        <time>2020-10-25T11:48:16.000Z</time>
      </trkpt>
      <trkpt lat="43.61424" lon="3.85788">
        <ele>53.412370861941</ele>
        <time>2020-10-25T11:48:17.000Z</time>
      </trkpt>
      <trkpt lat="43.61427" lon="3.85783">
        <ele>53.515463577426</ele>
        <time>2020-10-25T11:48:18.000Z</time>
      </trkpt>
      <trkpt lat="43.6143" lon="3.85778">
        <ele>53.618556292911</ele>
        <time>2020-10-25T11:48:19.000Z</time>
      </trkpt>
      <trkpt lat="43.61433" lon="3.85772">
        <ele>53.721649008396</ele>
        <time>2020-10-25T11:48:20.000Z</time>
      </trkpt>
      <trkpt lat="43.61437" lon="3.85768">
        <ele>53.824741723882</ele>
        <time>2020-10-25T11:48:21.000Z</time>
      </trkpt>
      <trkpt lat="43.6144" lon="3.85763">
        <ele>53.927834439367</ele>
        <time>2020-10-25T11:48:22.000Z</time>
      </trkpt>
      <trkpt lat="43.61444" lon="3.85759">
        <ele>54</ele>
        <time>2020-10-25T11:48:23.000Z</time>
      </trkpt>
      <trkpt lat="43.61447" lon="3.85755">
        <ele>54</ele>
        <time>2020-10-25T11:48:24.000Z</time>
      </trkpt>
      <trkpt lat="43.6145" lon="3.85752">
        <ele>54</ele>
        <time>2020-10-25T11:48:25.000Z</time>
      </trkpt>
      <trkpt lat="43.61454" lon="3.85748">
        <ele>54</ele>
        <time>2020-10-25T11:48:26.000Z</time>
      </trkpt>
      <trkpt lat="43.61458" lon="3.85744">
        <ele>54</ele>
        <time>2020-10-25T11:48:27.000Z</time>
      </trkpt>
      <trkpt lat="43.61462" lon="3.8574">
        <ele>54</ele>
        <time>2020-10-25T11:48:28.000Z</time>
      </trkpt>
      <trkpt lat="43.61466" lon="3.85737">
        <ele>54</ele>
        <time>2020-10-25T11:48:29.000Z</time>
      </trkpt>
      <trkpt lat="43.6147" lon="3.85733">
        <ele>54</ele>
        <time>2020-10-25T11:48:30.000Z</time>
      </trkpt>
      <trkpt lat="43.61474" lon="3.85729">
        <ele>54</ele>
        <time>2020-10-25T11:48:31.000Z</time>
      </trkpt>
      <trkpt lat="43.61478" lon="3.85725">
        <ele>54</ele>
        <time>2020-10-25T11:48:32.000Z</time>
      </trkpt>
      <trkpt lat="43.61481" lon="3.85719">
        <ele>54.058307812107</ele>
        <time>2020-10-25T11:48:33.000Z</time>
      </trkpt>
      <trkpt lat="43.61485" lon="3.85715">
        <ele>54.25267133222</ele>
        <time>2020-10-25T11:48:34.000Z</time>
      </trkpt>
      <trkpt lat="43.61489" lon="3.8571">
        <ele>54.447034852334</ele>
        <time>2020-10-25T11:48:35.000Z</time>
      </trkpt>
      <trkpt lat="43.61492" lon="3.85705">
        <ele>54.641398372447</ele>
        <time>2020-10-25T11:48:36.000Z</time>
      </trkpt>
      <trkpt lat="43.61496" lon="3.857">
        <ele>54.83576189256</ele>
        <time>2020-10-25T11:48:37.000Z</time>
      </trkpt>
      <trkpt lat="43.615" lon="3.85696">
        <ele>55.030125412673</ele>
        <time>2020-10-25T11:48:38.000Z</time>
      </trkpt>
      <trkpt lat="43.61504" lon="3.85692">
        <ele>55.224488932786</ele>
        <time>2020-10-25T11:48:39.000Z</time>
      </trkpt>
      <trkpt lat="43.61508" lon="3.85688">
        <ele>55.418852452899</ele>
        <time>2020-10-25T11:48:40.000Z</time>
      </trkpt>
      <trkpt lat="43.61511" lon="3.85685">
        <ele>55.613215973012</ele>
        <time>2020-10-25T11:48:41.000Z</time>
      </trkpt>
      <trkpt lat="43.61514" lon="3.85681">
        <ele>55.807579493125</ele>
        <time>2020-10-25T11:48:42.000Z</time>
      </trkpt>
      <trkpt lat="43.61517" lon="3.85677">
        <ele>56</ele>
        <time>2020-10-25T11:48:43.000Z</time>
      </trkpt>
      <trkpt lat="43.61521" lon="3.85673">
        <ele>56</ele>
        <time>2020-10-25T11:48:44.000Z</time>
      </trkpt>
      <trkpt lat="43.61525" lon="3.85669">
        <ele>56</ele>
        <time>2020-10-25T11:48:45.000Z</time>
      </trkpt>
      <trkpt lat="43.61529" lon="3.85665">
        <ele>56</ele>
        <time>2020-10-25T11:48:46.000Z</time>
      </trkpt>
      <trkpt lat="43.61532" lon="3.85662">
        <ele>56</ele>
        <time>2020-10-25T11:48:47.000Z</time>
      </trkpt>
      <trkpt lat="43.61535" lon="3.85658">
        <ele>56</ele>
        <time>2020-10-25T11:48:48.000Z</time>
      </trkpt>
      <trkpt lat="43.61538" lon="3.85654">
        <ele>56</ele>
        <time>2020-10-25T11:48:49.000Z</time>
      </trkpt>
      <trkpt lat="43.61541" lon="3.85651">
        <ele>56</ele>
        <time>2020-10-25T11:48:50.000Z</time>
      </trkpt>
      <trkpt lat="43.61543" lon="3.85647">
        <ele>56</ele>
        <time>2020-10-25T11:48:51.000Z</time>
      </trkpt>
      <trkpt lat="43.61545" lon="3.85645">
        <ele>56</ele>
        <time>2020-10-25T11:48:52.000Z</time>
      </trkpt>
      <trkpt lat="43.61548" lon="3.85642">
        <ele>56.022395630802</ele>
        <time>2020-10-25T11:48:53.000Z</time>
      </trkpt>
      <trkpt lat="43.61551" lon="3.8564">
        <ele>56.119766583909</ele>
        <time>2020-10-25T11:48:54.000Z</time>
      </trkpt>
      <trkpt lat="43.61554" lon="3.85638">
        <ele>56.217137537016</ele>
        <time>2020-10-25T11:48:55.000Z</time>
      </trkpt>
      <trkpt lat="43.61556" lon="3.85635">
        <ele>56.314508490124</ele>
        <time>2020-10-25T11:48:56.000Z</time>
      </trkpt>
      <trkpt lat="43.61559" lon="3.85633">
        <ele>56.411879443231</ele>
        <time>2020-10-25T11:48:57.000Z</time>
      </trkpt>
      <trkpt lat="43.61562" lon="3.8563">
        <ele>56.509250396339</ele>
        <time>2020-10-25T11:48:58.000Z</time>
      </trkpt>
      <trkpt lat="43.61564" lon="3.85628">
        <ele>56.606621349446</ele>
        <time>2020-10-25T11:48:59.000Z</time>
      </trkpt>
      <trkpt lat="43.61567" lon="3.85625">
        <ele>56.703992302554</ele>
        <time>2020-10-25T11:49:00.000Z</time>
      </trkpt>
      <trkpt lat="43.6157" lon="3.85622">
        <ele>56.801363255661</ele>
        <time>2020-10-25T11:49:01.000Z</time>
      </trkpt>
      <trkpt lat="43.61573" lon="3.85618">
        <ele>56.898734208768</ele>
        <time>2020-10-25T11:49:02.000Z</time>
      </trkpt>
      <trkpt lat="43.61575" lon="3.85614">
        <ele>56.996105161876</ele>
        <time>2020-10-25T11:49:03.000Z</time>
      </trkpt>
      <trkpt lat="43.61578" lon="3.8561">
        <ele>57.099378816146</ele>
        <time>2020-10-25T11:49:04.000Z</time>
      </trkpt>
      <trkpt lat="43.61581" lon="3.85607">
        <ele>57.202898416299</ele>
        <time>2020-10-25T11:49:05.000Z</time>
      </trkpt>
      <trkpt lat="43.61585" lon="3.85603">
        <ele>57.306418016452</ele>
        <time>2020-10-25T11:49:06.000Z</time>
      </trkpt>
      <trkpt lat="43.61588" lon="3.85599">
        <ele>57.409937616605</ele>
        <time>2020-10-25T11:49:07.000Z</time>
      </trkpt>
      <trkpt lat="43.61591" lon="3.85596">
        <ele>57.513457216757</ele>
        <time>2020-10-25T11:49:08.000Z</time>
      </trkpt>
      <trkpt lat="43.61594" lon="3.85592">
        <ele>57.61697681691</ele>
        <time>2020-10-25T11:49:09.000Z</time>
      </trkpt>
      <trkpt lat="43.61597" lon="3.85589">
        <ele>57.720496417062</ele>
        <time>2020-10-25T11:49:10.000Z</time>
      </trkpt>
      <trkpt lat="43.616" lon="3.85584">
        <ele>57.824016017215</ele>
        <time>2020-10-25T11:49:11.000Z</time>
      </trkpt>
      <trkpt lat="43.61604" lon="3.85581">
        <ele>57.927535617368</ele>
        <time>2020-10-25T11:49:12.000Z</time>
      </trkpt>
      <trkpt lat="43.61607" lon="3.85577">
        <ele>57.97000064</ele>
        <time>2020-10-25T11:49:13.000Z</time>
      </trkpt>
      <trkpt lat="43.6161" lon="3.85573">
        <ele>57.87000064</ele>
        <time>2020-10-25T11:49:14.000Z</time>
      </trkpt>
      <trkpt lat="43.61613" lon="3.85569">
        <ele>57.77000064</ele>
        <time>2020-10-25T11:49:15.000Z</time>
      </trkpt>
      <trkpt lat="43.61616" lon="3.85566">
        <ele>57.67000064</ele>
        <time>2020-10-25T11:49:16.000Z</time>
      </trkpt>
      <trkpt lat="43.61619" lon="3.85561">
        <ele>57.57000064</ele>
        <time>2020-10-25T11:49:17.000Z</time>
      </trkpt>
      <trkpt lat="43.61623" lon="3.85557">
        <ele>57.47000064</ele>
        <time>2020-10-25T11:49:18.000Z</time>
      </trkpt>
      <trkpt lat="43.61626" lon="3.85553">
        <ele>57.37000064</ele>
        <time>2020-10-25T11:49:19.000Z</time>
      </trkpt>
      <trkpt lat="43.61629" lon="3.85549">
        <ele>57.27000064</ele>
        <time>2020-10-25T11:49:20.000Z</time>
      </trkpt>
      <trkpt lat="43.61632" lon="3.85545">
        <ele>57.17000064</ele>
        <time>2020-10-25T11:49:21.000Z</time>
      </trkpt>
      <trkpt lat="43.61636" lon="3.85542">
        <ele>57.07000064</ele>
        <time>2020-10-25T11:49:22.000Z</time>
      </trkpt>
      <trkpt lat="43.6164" lon="3.85539">
        <ele>57</ele>
        <time>2020-10-25T11:49:23.000Z</time>
      </trkpt>
      <trkpt lat="43.61643" lon="3.85535">
        <ele>57</ele>
        <time>2020-10-25T11:49:24.000Z</time>
      </trkpt>
      <trkpt lat="43.61646" lon="3.85531">
        <ele>57</ele>
        <time>2020-10-25T11:49:25.000Z</time>
      </trkpt>
      <trkpt lat="43.61649" lon="3.85526">
        <ele>57</ele>
        <time>2020-10-25T11:49:26.000Z</time>
      </trkpt>
      <trkpt lat="43.61653" lon="3.85522">
        <ele>57</ele>
        <time>2020-10-25T11:49:27.000Z</time>
      </trkpt>
      <trkpt lat="43.61656" lon="3.85518">
        <ele>57</ele>
        <time>2020-10-25T11:49:28.000Z</time>
      </trkpt>
      <trkpt lat="43.61659" lon="3.85514">
        <ele>57</ele>
        <time>2020-10-25T11:49:29.000Z</time>
      </trkpt>
      <trkpt lat="43.61662" lon="3.8551">
        <ele>57</ele>
        <time>2020-10-25T11:49:30.000Z</time>
      </trkpt>
      <trkpt lat="43.61666" lon="3.85506">
        <ele>57</ele>
        <time>2020-10-25T11:49:31.000Z</time>
      </trkpt>
      <trkpt lat="43.61669" lon="3.85502">
        <ele>57</ele>
        <time>2020-10-25T11:49:32.000Z</time>
      </trkpt>
      <trkpt lat="43.61672" lon="3.85498">
        <ele>57</ele>
        <time>2020-10-25T11:49:33.000Z</time>
      </trkpt>
      <trkpt lat="43.61675" lon="3.85495">
        <ele>57</ele>
        <time>2020-10-25T11:49:34.000Z</time>
      </trkpt>
      <trkpt lat="43.61679" lon="3.85491">
        <ele>57</ele>
        <time>2020-10-25T11:49:35.000Z</time>
      </trkpt>
      <trkpt lat="43.61682" lon="3.85487">
        <ele>57</ele>
        <time>2020-10-25T11:49:36.000Z</time>
      </trkpt>
      <trkpt lat="43.61685" lon="3.85483">
        <ele>57</ele>
        <time>2020-10-25T11:49:37.000Z</time>
      </trkpt>
      <trkpt lat="43.61689" lon="3.85479">
        <ele>57</ele>
        <time>2020-10-25T11:49:38.000Z</time>
      </trkpt>
      <trkpt lat="43.61692" lon="3.85476">
        <ele>57</ele>
        <time>2020-10-25T11:49:39.000Z</time>
      </trkpt>
      <trkpt lat="43.61695" lon="3.85472">
        <ele>57</ele>
        <time>2020-10-25T11:49:40.000Z</time>
      </trkpt>
      <trkpt lat="43.61699" lon="3.85468">
        <ele>57</ele>
        <time>2020-10-25T11:49:41.000Z</time>
      </trkpt>
      <trkpt lat="43.61702" lon="3.85464">
        <ele>57</ele>
        <time>2020-10-25T11:49:42.000Z</time>
      </trkpt>
      <trkpt lat="43.61706" lon="3.8546">
        <ele>57</ele>
        <time>2020-10-25T11:49:43.000Z</time>
      </trkpt>
      <trkpt lat="43.61709" lon="3.85456">
        <ele>57</ele>
        <time>2020-10-25T11:49:44.000Z</time>
      </trkpt>
      <trkpt lat="43.61713" lon="3.85451">
        <ele>57</ele>
        <time>2020-10-25T11:49:45.000Z</time>
      </trkpt>
      <trkpt lat="43.61716" lon="3.85447">
        <ele>57</ele>
        <time>2020-10-25T11:49:46.000Z</time>
      </trkpt>
      <trkpt lat="43.61719" lon="3.85443">
        <ele>57</ele>
        <time>2020-10-25T11:49:47.000Z</time>
      </trkpt>
      <trkpt lat="43.61723" lon="3.85438">
        <ele>57</ele>
        <time>2020-10-25T11:49:48.000Z</time>
      </trkpt>
      <trkpt lat="43.61727" lon="3.85434">
        <ele>57</ele>
        <time>2020-10-25T11:49:49.000Z</time>
      </trkpt>
      <trkpt lat="43.6173" lon="3.8543">
        <ele>57</ele>
        <time>2020-10-25T11:49:50.000Z</time>
      </trkpt>
      <trkpt lat="43.61734" lon="3.85426">
        <ele>57</ele>
        <time>2020-10-25T11:49:51.000Z</time>
      </trkpt>
      <trkpt lat="43.61738" lon="3.85421">
        <ele>57</ele>
        <time>2020-10-25T11:49:52.000Z</time>
      </trkpt>
      <trkpt lat="43.61741" lon="3.85417">
        <ele>57.02999936</ele>
        <time>2020-10-25T11:49:53.000Z</time>
      </trkpt>
      <trkpt lat="43.61744" lon="3.85413">
        <ele>57.12999936</ele>
        <time>2020-10-25T11:49:54.000Z</time>
      </trkpt>
      <trkpt lat="43.61747" lon="3.85409">
        <ele>57.22999936</ele>
        <time>2020-10-25T11:49:55.000Z</time>
      </trkpt>
      <trkpt lat="43.6175" lon="3.85404">
        <ele>57.32999936</ele>
        <time>2020-10-25T11:49:56.000Z</time>
      </trkpt>
      <trkpt lat="43.61753" lon="3.854">
        <ele>57.42999936</ele>
        <time>2020-10-25T11:49:57.000Z</time>
      </trkpt>
      <trkpt lat="43.61756" lon="3.85394">
        <ele>57.52999936</ele>
        <time>2020-10-25T11:49:58.000Z</time>
      </trkpt>
      <trkpt lat="43.61759" lon="3.85389">
        <ele>57.62999936</ele>
        <time>2020-10-25T11:49:59.000Z</time>
      </trkpt>
      <trkpt lat="43.61762" lon="3.85384">
        <ele>57.72999936</ele>
        <time>2020-10-25T11:50:00.000Z</time>
      </trkpt>
      <trkpt lat="43.61765" lon="3.85378">
        <ele>57.82999936</ele>
        <time>2020-10-25T11:50:01.000Z</time>
      </trkpt>
      <trkpt lat="43.61768" lon="3.85372">
        <ele>57.92999936</ele>
        <time>2020-10-25T11:50:02.000Z</time>
      </trkpt>
      <trkpt lat="43.61771" lon="3.85367">
        <ele>57.97000064</ele>
        <time>2020-10-25T11:50:03.000Z</time>
      </trkpt>
      <trkpt lat="43.61775" lon="3.85362">
        <ele>57.87000064</ele>
        <time>2020-10-25T11:50:04.000Z</time>
      </trkpt>
      <trkpt lat="43.6178" lon="3.85359">
        <ele>57.77000064</ele>
        <time>2020-10-25T11:50:05.000Z</time>
      </trkpt>
      <trkpt lat="43.61785" lon="3.85355">
        <ele>57.67000064</ele>
        <time>2020-10-25T11:50:06.000Z</time>
      </trkpt>
      <trkpt lat="43.6179" lon="3.85352">
        <ele>57.57000064</ele>
        <time>2020-10-25T11:50:07.000Z</time>
      </trkpt>
      <trkpt lat="43.61795" lon="3.85349">
        <ele>57.47000064</ele>
        <time>2020-10-25T11:50:08.000Z</time>
      </trkpt>
      <trkpt lat="43.618" lon="3.85346">
        <ele>57.37000064</ele>
        <time>2020-10-25T11:50:09.000Z</time>
      </trkpt>
      <trkpt lat="43.61805" lon="3.85343">
        <ele>57.27000064</ele>
        <time>2020-10-25T11:50:10.000Z</time>
      </trkpt>
      <trkpt lat="43.61811" lon="3.85339">
        <ele>57.17000064</ele>
        <time>2020-10-25T11:50:11.000Z</time>
      </trkpt>
      <trkpt lat="43.61816" lon="3.85336">
        <ele>57.07000064</ele>
        <time>2020-10-25T11:50:12.000Z</time>
      </trkpt>
      <trkpt lat="43.61821" lon="3.85332">
        <ele>57</ele>
        <time>2020-10-25T11:50:13.000Z</time>
      </trkpt>
      <trkpt lat="43.61827" lon="3.85329">
        <ele>57</ele>
        <time>2020-10-25T11:50:14.000Z</time>
      </trkpt>
      <trkpt lat="43.61832" lon="3.85324">
        <ele>57</ele>
        <time>2020-10-25T11:50:15.000Z</time>
      </trkpt>
      <trkpt lat="43.61837" lon="3.8532">
        <ele>57</ele>
        <time>2020-10-25T11:50:16.000Z</time>
      </trkpt>
      <trkpt lat="43.61842" lon="3.85316">
        <ele>57</ele>
        <time>2020-10-25T11:50:17.000Z</time>
      </trkpt>
      <trkpt lat="43.61848" lon="3.85312">
        <ele>57</ele>
        <time>2020-10-25T11:50:18.000Z</time>
      </trkpt>
      <trkpt lat="43.61853" lon="3.85308">
        <ele>57</ele>
        <time>2020-10-25T11:50:19.000Z</time>
      </trkpt>
      <trkpt lat="43.61858" lon="3.85303">
        <ele>57</ele>
        <time>2020-10-25T11:50:20.000Z</time>
      </trkpt>
      <trkpt lat="43.61862" lon="3.85298">
        <ele>57</ele>
        <time>2020-10-25T11:50:21.000Z</time>
      </trkpt>
      <trkpt lat="43.61867" lon="3.85293">
        <ele>57</ele>
        <time>2020-10-25T11:50:22.000Z</time>
      </trkpt>
      <trkpt lat="43.61871" lon="3.85287">
        <ele>57</ele>
        <time>2020-10-25T11:50:23.000Z</time>
      </trkpt>
      <trkpt lat="43.61876" lon="3.85281">
        <ele>57</ele>
        <time>2020-10-25T11:50:24.000Z</time>
      </trkpt>
      <trkpt lat="43.6188" lon="3.85275">
        <ele>57</ele>
        <time>2020-10-25T11:50:25.000Z</time>
      </trkpt>
      <trkpt lat="43.61884" lon="3.85268">
        <ele>57</ele>
        <time>2020-10-25T11:50:26.000Z</time>
      </trkpt>
      <trkpt lat="43.61888" lon="3.85262">
        <ele>57</ele>
        <time>2020-10-25T11:50:27.000Z</time>
      </trkpt>
      <trkpt lat="43.61892" lon="3.85256">
        <ele>57</ele>
        <time>2020-10-25T11:50:28.000Z</time>
      </trkpt>
      <trkpt lat="43.61896" lon="3.8525">
        <ele>57</ele>
        <time>2020-10-25T11:50:29.000Z</time>
      </trkpt>
      <trkpt lat="43.619" lon="3.85243">
        <ele>57</ele>
        <time>2020-10-25T11:50:30.000Z</time>
      </trkpt>
      <trkpt lat="43.61904" lon="3.85237">
        <ele>57</ele>
        <time>2020-10-25T11:50:31.000Z</time>
      </trkpt>
      <trkpt lat="43.61908" lon="3.85231">
        <ele>57</ele>
        <time>2020-10-25T11:50:32.000Z</time>
      </trkpt>
      <trkpt lat="43.61912" lon="3.85225">
        <ele>57</ele>
        <time>2020-10-25T11:50:33.000Z</time>
      </trkpt>
      <trkpt lat="43.61916" lon="3.85219">
        <ele>57</ele>
        <time>2020-10-25T11:50:34.000Z</time>
      </trkpt>
      <trkpt lat="43.6192" lon="3.85213">
        <ele>57</ele>
        <time>2020-10-25T11:50:35.000Z</time>
      </trkpt>
      <trkpt lat="43.61924" lon="3.85207">
        <ele>57</ele>
        <time>2020-10-25T11:50:36.000Z</time>
      </trkpt>
      <trkpt lat="43.61928" lon="3.85201">
        <ele>57</ele>
        <time>2020-10-25T11:50:37.000Z</time>
      </trkpt>
      <trkpt lat="43.61932" lon="3.85195">
        <ele>57</ele>
        <time>2020-10-25T11:50:38.000Z</time>
      </trkpt>
      <trkpt lat="43.61936" lon="3.85189">
        <ele>57</ele>
        <time>2020-10-25T11:50:39.000Z</time>
      </trkpt>
      <trkpt lat="43.6194" lon="3.85182">
        <ele>57</ele>
        <time>2020-10-25T11:50:40.000Z</time>
      </trkpt>
      <trkpt lat="43.61944" lon="3.85177">
        <ele>57</ele>
        <time>2020-10-25T11:50:41.000Z</time>
      </trkpt>
      <trkpt lat="43.61948" lon="3.85171">
        <ele>57</ele>
        <time>2020-10-25T11:50:42.000Z</time>
      </trkpt>
      <trkpt lat="43.61952" lon="3.85165">
        <ele>56.998984065041</ele>
        <time>2020-10-25T11:50:43.000Z</time>
      </trkpt>
      <trkpt lat="43.61957" lon="3.85159">
        <ele>56.89735804878</ele>
        <time>2020-10-25T11:50:44.000Z</time>
      </trkpt>
      <trkpt lat="43.61961" lon="3.85153">
        <ele>56.79573203252</ele>
        <time>2020-10-25T11:50:45.000Z</time>
      </trkpt>
      <trkpt lat="43.61966" lon="3.85148">
        <ele>56.69410601626</ele>
        <time>2020-10-25T11:50:46.000Z</time>
      </trkpt>
      <trkpt lat="43.61971" lon="3.85142">
        <ele>56.59248</ele>
        <time>2020-10-25T11:50:47.000Z</time>
      </trkpt>
      <trkpt lat="43.61975" lon="3.85137">
        <ele>56.49085398374</ele>
        <time>2020-10-25T11:50:48.000Z</time>
      </trkpt>
      <trkpt lat="43.6198" lon="3.85132">
        <ele>56.38922796748</ele>
        <time>2020-10-25T11:50:49.000Z</time>
      </trkpt>
      <trkpt lat="43.61984" lon="3.85129">
        <ele>56.28760195122</ele>
        <time>2020-10-25T11:50:50.000Z</time>
      </trkpt>
      <trkpt lat="43.61987" lon="3.85125">
        <ele>56.185975934959</ele>
        <time>2020-10-25T11:50:51.000Z</time>
      </trkpt>
      <trkpt lat="43.6199" lon="3.85122">
        <ele>56.084349918699</ele>
        <time>2020-10-25T11:50:52.000Z</time>
      </trkpt>
      <trkpt lat="43.61993" lon="3.8512">
        <ele>55.983268031496</ele>
        <time>2020-10-25T11:50:53.000Z</time>
      </trkpt>
      <trkpt lat="43.61997" lon="3.85118">
        <ele>55.884842834646</ele>
        <time>2020-10-25T11:50:54.000Z</time>
      </trkpt>
      <trkpt lat="43.62001" lon="3.85115">
        <ele>55.786417637795</ele>
        <time>2020-10-25T11:50:55.000Z</time>
      </trkpt>
      <trkpt lat="43.62005" lon="3.85112">
        <ele>55.687992440945</ele>
        <time>2020-10-25T11:50:56.000Z</time>
      </trkpt>
      <trkpt lat="43.62009" lon="3.85108">
        <ele>55.589567244095</ele>
        <time>2020-10-25T11:50:57.000Z</time>
      </trkpt>
      <trkpt lat="43.62012" lon="3.85103">
        <ele>55.491142047244</ele>
        <time>2020-10-25T11:50:58.000Z</time>
      </trkpt>
      <trkpt lat="43.62013" lon="3.85097">
        <ele>55.392716850394</ele>
        <time>2020-10-25T11:50:59.000Z</time>
      </trkpt>
      <trkpt lat="43.62013" lon="3.85091">
        <ele>55.294291653543</ele>
        <time>2020-10-25T11:51:00.000Z</time>
      </trkpt>
      <trkpt lat="43.62013" lon="3.85085">
        <ele>55.195866456693</ele>
        <time>2020-10-25T11:51:01.000Z</time>
      </trkpt>
      <trkpt lat="43.62013" lon="3.85078">
        <ele>55.097441259842</ele>
        <time>2020-10-25T11:51:02.000Z</time>
      </trkpt>
      <trkpt lat="43.62013" lon="3.85072">
        <ele>54.998972579313</ele>
        <time>2020-10-25T11:51:03.000Z</time>
      </trkpt>
      <trkpt lat="43.62012" lon="3.85067">
        <ele>54.896197622593</ele>
        <time>2020-10-25T11:51:04.000Z</time>
      </trkpt>
      <trkpt lat="43.62012" lon="3.85061">
        <ele>54.793422665874</ele>
        <time>2020-10-25T11:51:05.000Z</time>
      </trkpt>
      <trkpt lat="43.62013" lon="3.85056">
        <ele>54.690647709154</ele>
        <time>2020-10-25T11:51:06.000Z</time>
      </trkpt>
      <trkpt lat="43.62015" lon="3.85051">
        <ele>54.587872752435</ele>
        <time>2020-10-25T11:51:07.000Z</time>
      </trkpt>
      <trkpt lat="43.62017" lon="3.85046">
        <ele>54.485097795716</ele>
        <time>2020-10-25T11:51:08.000Z</time>
      </trkpt>
      <trkpt lat="43.6202" lon="3.85041">
        <ele>54.382322838996</ele>
        <time>2020-10-25T11:51:09.000Z</time>
      </trkpt>
      <trkpt lat="43.62022" lon="3.85036">
        <ele>54.279547882277</ele>
        <time>2020-10-25T11:51:10.000Z</time>
      </trkpt>
      <trkpt lat="43.62025" lon="3.85032">
        <ele>54.176772925557</ele>
        <time>2020-10-25T11:51:11.000Z</time>
      </trkpt>
      <trkpt lat="43.62027" lon="3.85027">
        <ele>54.073997968838</ele>
        <time>2020-10-25T11:51:12.000Z</time>
      </trkpt>
      <trkpt lat="43.62029" lon="3.85022">
        <ele>53.9725220891</ele>
        <time>2020-10-25T11:51:13.000Z</time>
      </trkpt>
      <trkpt lat="43.62031" lon="3.85017">
        <ele>53.874386693029</ele>
        <time>2020-10-25T11:51:14.000Z</time>
      </trkpt>
      <trkpt lat="43.62034" lon="3.85013">
        <ele>53.776251296957</ele>
        <time>2020-10-25T11:51:15.000Z</time>
      </trkpt>
      <trkpt lat="43.62038" lon="3.85009">
        <ele>53.678115900886</ele>
        <time>2020-10-25T11:51:16.000Z</time>
      </trkpt>
      <trkpt lat="43.62042" lon="3.85005">
        <ele>53.579980504815</ele>
        <time>2020-10-25T11:51:17.000Z</time>
      </trkpt>
      <trkpt lat="43.62047" lon="3.85004">
        <ele>53.481845108743</ele>
        <time>2020-10-25T11:51:18.000Z</time>
      </trkpt>
      <trkpt lat="43.62053" lon="3.85006">
        <ele>53.383709712672</ele>
        <time>2020-10-25T11:51:19.000Z</time>
      </trkpt>
      <trkpt lat="43.62058" lon="3.85007">
        <ele>53.285574316601</ele>
        <time>2020-10-25T11:51:20.000Z</time>
      </trkpt>
      <trkpt lat="43.62064" lon="3.85009">
        <ele>53.18743892053</ele>
        <time>2020-10-25T11:51:21.000Z</time>
      </trkpt>
      <trkpt lat="43.6207" lon="3.8501">
        <ele>53.089303524458</ele>
        <time>2020-10-25T11:51:22.000Z</time>
      </trkpt>
      <trkpt lat="43.62076" lon="3.8501">
        <ele>53</ele>
        <time>2020-10-25T11:51:23.000Z</time>
      </trkpt>
      <trkpt lat="43.62082" lon="3.8501">
        <ele>53</ele>
        <time>2020-10-25T11:51:24.000Z</time>
      </trkpt>
      <trkpt lat="43.62088" lon="3.8501">
        <ele>53</ele>
        <time>2020-10-25T11:51:25.000Z</time>
      </trkpt>
      <trkpt lat="43.62095" lon="3.8501">
        <ele>53</ele>
        <time>2020-10-25T11:51:26.000Z</time>
      </trkpt>
      <trkpt lat="43.62101" lon="3.8501">
        <ele>53</ele>
        <time>2020-10-25T11:51:27.000Z</time>
      </trkpt>
      <trkpt lat="43.62107" lon="3.8501">
        <ele>53</ele>
        <time>2020-10-25T11:51:28.000Z</time>
      </trkpt>
      <trkpt lat="43.62114" lon="3.85009">
        <ele>53</ele>
        <time>2020-10-25T11:51:29.000Z</time>
      </trkpt>
      <trkpt lat="43.6212" lon="3.85009">
        <ele>53</ele>
        <time>2020-10-25T11:51:30.000Z</time>
      </trkpt>
      <trkpt lat="43.62126" lon="3.85008">
        <ele>53</ele>
        <time>2020-10-25T11:51:31.000Z</time>
      </trkpt>
      <trkpt lat="43.62132" lon="3.85007">
        <ele>53</ele>
        <time>2020-10-25T11:51:32.000Z</time>
      </trkpt>
      <trkpt lat="43.62137" lon="3.85007">
        <ele>53</ele>
        <time>2020-10-25T11:51:33.000Z</time>
      </trkpt>
      <trkpt lat="43.62143" lon="3.85006">
        <ele>53</ele>
        <time>2020-10-25T11:51:34.000Z</time>
      </trkpt>
      <trkpt lat="43.62148" lon="3.85006">
        <ele>53</ele>
        <time>2020-10-25T11:51:35.000Z</time>
      </trkpt>
      <trkpt lat="43.62153" lon="3.85006">
        <ele>53</ele>
        <time>2020-10-25T11:51:36.000Z</time>
      </trkpt>
      <trkpt lat="43.62158" lon="3.85005">
        <ele>53</ele>
        <time>2020-10-25T11:51:37.000Z</time>
      </trkpt>
      <trkpt lat="43.62162" lon="3.85004">
        <ele>53</ele>
        <time>2020-10-25T11:51:38.000Z</time>
      </trkpt>
      <trkpt lat="43.62167" lon="3.85004">
        <ele>53</ele>
        <time>2020-10-25T11:51:39.000Z</time>
      </trkpt>
      <trkpt lat="43.62171" lon="3.85003">
        <ele>53</ele>
        <time>2020-10-25T11:51:40.000Z</time>
      </trkpt>
      <trkpt lat="43.62175" lon="3.85003">
        <ele>53</ele>
        <time>2020-10-25T11:51:41.000Z</time>
      </trkpt>
      <trkpt lat="43.62179" lon="3.85002">
        <ele>53</ele>
        <time>2020-10-25T11:51:42.000Z</time>
      </trkpt>
      <trkpt lat="43.62183" lon="3.85002">
        <ele>53</ele>
        <time>2020-10-25T11:51:43.000Z</time>
      </trkpt>
      <trkpt lat="43.62187" lon="3.85001">
        <ele>53</ele>
        <time>2020-10-25T11:51:44.000Z</time>
      </trkpt>
      <trkpt lat="43.62191" lon="3.85001">
        <ele>53</ele>
        <time>2020-10-25T11:51:45.000Z</time>
      </trkpt>
      <trkpt lat="43.62194" lon="3.85001">
        <ele>53</ele>
        <time>2020-10-25T11:51:46.000Z</time>
      </trkpt>
      <trkpt lat="43.62198" lon="3.85">
        <ele>53</ele>
        <time>2020-10-25T11:51:47.000Z</time>
      </trkpt>
      <trkpt lat="43.62202" lon="3.85">
        <ele>53</ele>
        <time>2020-10-25T11:51:48.000Z</time>
      </trkpt>
      <trkpt lat="43.62205" lon="3.85">
        <ele>53</ele>
        <time>2020-10-25T11:51:49.000Z</time>
      </trkpt>
      <trkpt lat="43.62209" lon="3.85">
        <ele>53</ele>
        <time>2020-10-25T11:51:50.000Z</time>
      </trkpt>
      <trkpt lat="43.62212" lon="3.85">
        <ele>53</ele>
        <time>2020-10-25T11:51:51.000Z</time>
      </trkpt>
      <trkpt lat="43.62215" lon="3.84999">
        <ele>53</ele>
        <time>2020-10-25T11:51:52.000Z</time>
      </trkpt>
      <trkpt lat="43.62219" lon="3.84998">
        <ele>53</ele>
        <time>2020-10-25T11:51:53.000Z</time>
      </trkpt>
      <trkpt lat="43.62223" lon="3.84998">
        <ele>53.103092715485</ele>
        <time>2020-10-25T11:51:54.000Z</time>
      </trkpt>
      <trkpt lat="43.62226" lon="3.84997">
        <ele>53.20618543097</ele>
        <time>2020-10-25T11:51:55.000Z</time>
      </trkpt>
      <trkpt lat="43.6223" lon="3.84997">
        <ele>53.309278146456</ele>
        <time>2020-10-25T11:51:56.000Z</time>
      </trkpt>
      <trkpt lat="43.62233" lon="3.84997">
        <ele>53.412370861941</ele>
        <time>2020-10-25T11:51:57.000Z</time>
      </trkpt>
      <trkpt lat="43.62237" lon="3.84997">
        <ele>53.515463577426</ele>
        <time>2020-10-25T11:51:58.000Z</time>
      </trkpt>
      <trkpt lat="43.62241" lon="3.84997">
        <ele>53.618556292911</ele>
        <time>2020-10-25T11:51:59.000Z</time>
      </trkpt>
      <trkpt lat="43.62244" lon="3.84998">
        <ele>53.721649008396</ele>
        <time>2020-10-25T11:52:00.000Z</time>
      </trkpt>
      <trkpt lat="43.62248" lon="3.84999">
        <ele>53.824741723882</ele>
        <time>2020-10-25T11:52:01.000Z</time>
      </trkpt>
      <trkpt lat="43.62252" lon="3.85">
        <ele>53.927834439367</ele>
        <time>2020-10-25T11:52:02.000Z</time>
      </trkpt>
      <trkpt lat="43.62255" lon="3.85001">
        <ele>54.02999936</ele>
        <time>2020-10-25T11:52:03.000Z</time>
      </trkpt>
      <trkpt lat="43.62259" lon="3.85002">
        <ele>54.12999936</ele>
        <time>2020-10-25T11:52:04.000Z</time>
      </trkpt>
      <trkpt lat="43.62263" lon="3.85003">
        <ele>54.22999936</ele>
        <time>2020-10-25T11:52:05.000Z</time>
      </trkpt>
      <trkpt lat="43.62266" lon="3.85004">
        <ele>54.32999936</ele>
        <time>2020-10-25T11:52:06.000Z</time>
      </trkpt>
      <trkpt lat="43.6227" lon="3.85006">
        <ele>54.42999936</ele>
        <time>2020-10-25T11:52:07.000Z</time>
      </trkpt>
      <trkpt lat="43.62273" lon="3.85009">
        <ele>54.52999936</ele>
        <time>2020-10-25T11:52:08.000Z</time>
      </trkpt>
      <trkpt lat="43.62276" lon="3.8501">
        <ele>54.62999936</ele>
        <time>2020-10-25T11:52:09.000Z</time>
      </trkpt>
      <trkpt lat="43.6228" lon="3.85011">
        <ele>54.72999936</ele>
        <time>2020-10-25T11:52:10.000Z</time>
      </trkpt>
      <trkpt lat="43.62283" lon="3.85011">
        <ele>54.82999936</ele>
        <time>2020-10-25T11:52:11.000Z</time>
      </trkpt>
      <trkpt lat="43.62286" lon="3.85009">
        <ele>54.92999936</ele>
        <time>2020-10-25T11:52:12.000Z</time>
      </trkpt>
      <trkpt lat="43.62288" lon="3.85006">
        <ele>55.059170372652</ele>
        <time>2020-10-25T11:52:13.000Z</time>
      </trkpt>
      <trkpt lat="43.62289" lon="3.85003">
        <ele>55.256409155919</ele>
        <time>2020-10-25T11:52:14.000Z</time>
      </trkpt>
      <trkpt lat="43.6229" lon="3.85">
        <ele>55.453647939186</ele>
        <time>2020-10-25T11:52:15.000Z</time>
      </trkpt>
      <trkpt lat="43.62291" lon="3.84997">
        <ele>55.650886722453</ele>
        <time>2020-10-25T11:52:16.000Z</time>
      </trkpt>
      <trkpt lat="43.62291" lon="3.84993">
        <ele>55.84812550572</ele>
        <time>2020-10-25T11:52:17.000Z</time>
      </trkpt>
      <trkpt lat="43.62291" lon="3.8499">
        <ele>56.045364288987</ele>
        <time>2020-10-25T11:52:18.000Z</time>
      </trkpt>
      <trkpt lat="43.62291" lon="3.84987">
        <ele>56.242603072254</ele>
        <time>2020-10-25T11:52:19.000Z</time>
      </trkpt>
      <trkpt lat="43.6229" lon="3.84984">
        <ele>56.439841855522</ele>
        <time>2020-10-25T11:52:20.000Z</time>
      </trkpt>
      <trkpt lat="43.62289" lon="3.84982">
        <ele>56.637080638789</ele>
        <time>2020-10-25T11:52:21.000Z</time>
      </trkpt>
      <trkpt lat="43.62288" lon="3.84979">
        <ele>56.834319422056</ele>
        <time>2020-10-25T11:52:22.000Z</time>
      </trkpt>
      <trkpt lat="43.62287" lon="3.84976">
        <ele>57.032454339989</ele>
        <time>2020-10-25T11:52:23.000Z</time>
      </trkpt>
      <trkpt lat="43.62286" lon="3.84973">
        <ele>57.235293964921</ele>
        <time>2020-10-25T11:52:24.000Z</time>
      </trkpt>
      <trkpt lat="43.62285" lon="3.8497">
        <ele>57.438133589852</ele>
        <time>2020-10-25T11:52:25.000Z</time>
      </trkpt>
      <trkpt lat="43.62284" lon="3.84968">
        <ele>57.640973214784</ele>
        <time>2020-10-25T11:52:26.000Z</time>
      </trkpt>
      <trkpt lat="43.62283" lon="3.84965">
        <ele>57.843812839716</ele>
        <time>2020-10-25T11:52:27.000Z</time>
      </trkpt>
      <trkpt lat="43.62282" lon="3.84963">
        <ele>58.046652464648</ele>
        <time>2020-10-25T11:52:28.000Z</time>
      </trkpt>
      <trkpt lat="43.62282" lon="3.8496">
        <ele>58.249492089579</ele>
        <time>2020-10-25T11:52:29.000Z</time>
      </trkpt>
      <trkpt lat="43.62281" lon="3.84958">
        <ele>58.452331714511</ele>
        <time>2020-10-25T11:52:30.000Z</time>
      </trkpt>
      <trkpt lat="43.6228" lon="3.84956">
        <ele>58.655171339442</ele>
        <time>2020-10-25T11:52:31.000Z</time>
      </trkpt>
      <trkpt lat="43.62279" lon="3.84954">
        <ele>58.858010964374</ele>
        <time>2020-10-25T11:52:32.000Z</time>
      </trkpt>
      <trkpt lat="43.62277" lon="3.84949">
        <ele>59.12999936</ele>
        <time>2020-10-25T11:52:34.000Z</time>
      </trkpt>
      <trkpt lat="43.62276" lon="3.84945">
        <ele>59.32999936</ele>
        <time>2020-10-25T11:52:36.000Z</time>
      </trkpt>
      <trkpt lat="43.62275" lon="3.84943">
        <ele>59.42999936</ele>
        <time>2020-10-25T11:52:37.000Z</time>
      </trkpt>
      <trkpt lat="43.62274" lon="3.8494">
        <ele>59.52999936</ele>
        <time>2020-10-25T11:52:38.000Z</time>
      </trkpt>
      <trkpt lat="43.62273" lon="3.84938">
        <ele>59.62999936</ele>
        <time>2020-10-25T11:52:39.000Z</time>
      </trkpt>
      <trkpt lat="43.62272" lon="3.84935">
        <ele>59.72999936</ele>
        <time>2020-10-25T11:52:40.000Z</time>
      </trkpt>
      <trkpt lat="43.62272" lon="3.84932">
        <ele>59.82999936</ele>
        <time>2020-10-25T11:52:41.000Z</time>
      </trkpt>
      <trkpt lat="43.62271" lon="3.84929">
        <ele>59.92999936</ele>
        <time>2020-10-25T11:52:42.000Z</time>
      </trkpt>
      <trkpt lat="43.62271" lon="3.84926">
        <ele>60.02999936</ele>
        <time>2020-10-25T11:52:43.000Z</time>
      </trkpt>
      <trkpt lat="43.62271" lon="3.84924">
        <ele>60.12999936</ele>
        <time>2020-10-25T11:52:44.000Z</time>
      </trkpt>
      <trkpt lat="43.62271" lon="3.84921">
        <ele>60.22999936</ele>
        <time>2020-10-25T11:52:45.000Z</time>
      </trkpt>
      <trkpt lat="43.62271" lon="3.84918">
        <ele>60.32999936</ele>
        <time>2020-10-25T11:52:46.000Z</time>
      </trkpt>
      <trkpt lat="43.62272" lon="3.84916">
        <ele>60.42999936</ele>
        <time>2020-10-25T11:52:47.000Z</time>
      </trkpt>
      <trkpt lat="43.62272" lon="3.84914">
        <ele>60.52999936</ele>
        <time>2020-10-25T11:52:48.000Z</time>
      </trkpt>
      <trkpt lat="43.62273" lon="3.84911">
        <ele>60.62999936</ele>
        <time>2020-10-25T11:52:49.000Z</time>
      </trkpt>
      <trkpt lat="43.62273" lon="3.84908">
        <ele>60.72999936</ele>
        <time>2020-10-25T11:52:50.000Z</time>
      </trkpt>
      <trkpt lat="43.62274" lon="3.84904">
        <ele>60.92999936</ele>
        <time>2020-10-25T11:52:52.000Z</time>
      </trkpt>
      <trkpt lat="43.62274" lon="3.84901">
        <ele>61.02999936</ele>
        <time>2020-10-25T11:52:53.000Z</time>
      </trkpt>
      <trkpt lat="43.62274" lon="3.84896">
        <ele>61.22999936</ele>
        <time>2020-10-25T11:52:55.000Z</time>
      </trkpt>
      <trkpt lat="43.62273" lon="3.84893">
        <ele>61.42999936</ele>
        <time>2020-10-25T11:52:57.000Z</time>
      </trkpt>
      <trkpt lat="43.62272" lon="3.84891">
        <ele>61.82999936</ele>
        <time>2020-10-25T11:53:01.000Z</time>
      </trkpt>
      <trkpt lat="43.6227" lon="3.84891">
        <ele>62.057913893948</ele>
        <time>2020-10-25T11:53:03.000Z</time>
      </trkpt>
      <trkpt lat="43.6227" lon="3.84891">
        <ele>63.004117835294</ele>
        <time>2020-10-25T11:53:08.000Z</time>
      </trkpt>
      <trkpt lat="43.62265" lon="3.84893">
        <ele>64</ele>
        <time>2020-10-25T11:53:25.000Z</time>
      </trkpt>
      <trkpt lat="43.62265" lon="3.84894">
        <ele>64</ele>
        <time>2020-10-25T11:53:30.000Z</time>
      </trkpt>
      <trkpt lat="43.62259" lon="3.84903">
        <ele>71.00868399019</ele>
        <time>2020-10-25T11:55:03.000Z</time>
      </trkpt>
      <trkpt lat="43.62259" lon="3.84904">
        <ele>71.298119456732</ele>
        <time>2020-10-25T11:55:04.000Z</time>
      </trkpt>
      <trkpt lat="43.62259" lon="3.84904">
        <ele>73.001222122905</ele>
        <time>2020-10-25T11:55:10.000Z</time>
      </trkpt>
      <trkpt lat="43.62259" lon="3.8491">
        <ele>73.996333854749</ele>
        <time>2020-10-25T11:56:07.000Z</time>
      </trkpt>
      <trkpt lat="43.6226" lon="3.84914">
        <ele>74</ele>
        <time>2020-10-25T11:56:14.000Z</time>
      </trkpt>
      <trkpt lat="43.62259" lon="3.84911">
        <ele>74</ele>
        <time>2020-10-25T11:56:19.000Z</time>
      </trkpt>
      <trkpt lat="43.62258" lon="3.84911">
        <ele>74</ele>
        <time>2020-10-25T11:56:24.000Z</time>
      </trkpt>
      <trkpt lat="43.62262" lon="3.84898">
        <ele>71.011449188273</ele>
        <time>2020-10-25T11:57:01.000Z</time>
      </trkpt>
      <trkpt lat="43.62264" lon="3.84897">
        <ele>71.965649992428</ele>
        <time>2020-10-25T11:57:06.000Z</time>
      </trkpt>
      <trkpt lat="43.62261" lon="3.84904">
        <ele>70.003652753726</ele>
        <time>2020-10-25T11:59:01.000Z</time>
      </trkpt>
      <trkpt lat="43.62262" lon="3.84904">
        <ele>69.835441909952</ele>
        <time>2020-10-25T11:59:02.000Z</time>
      </trkpt>
      <trkpt lat="43.62264" lon="3.84902">
        <ele>68.569620834267</ele>
        <time>2020-10-25T11:59:08.000Z</time>
      </trkpt>
      <trkpt lat="43.62267" lon="3.849">
        <ele>68.147680475706</ele>
        <time>2020-10-25T11:59:10.000Z</time>
      </trkpt>
      <trkpt lat="43.62268" lon="3.84897">
        <ele>68</ele>
        <time>2020-10-25T11:59:12.000Z</time>
      </trkpt>
      <trkpt lat="43.6227" lon="3.84896">
        <ele>68</ele>
        <time>2020-10-25T11:59:14.000Z</time>
      </trkpt>
      <trkpt lat="43.62272" lon="3.84895">
        <ele>68</ele>
        <time>2020-10-25T11:59:19.000Z</time>
      </trkpt>
      <trkpt lat="43.62273" lon="3.84893">
        <ele>67.818942234155</ele>
        <time>2020-10-25T11:59:22.000Z</time>
      </trkpt>
      <trkpt lat="43.62274" lon="3.84893">
        <ele>66.992552851064</ele>
        <time>2020-10-25T11:59:28.000Z</time>
      </trkpt>
      <trkpt lat="43.62276" lon="3.84906">
        <ele>62</ele>
        <time>2020-10-25T12:00:15.000Z</time>
      </trkpt>
      <trkpt lat="43.62275" lon="3.8491">
        <ele>62</ele>
        <time>2020-10-25T12:00:16.000Z</time>
      </trkpt>
      <trkpt lat="43.62274" lon="3.84913">
        <ele>62</ele>
        <time>2020-10-25T12:00:17.000Z</time>
      </trkpt>
      <trkpt lat="43.62273" lon="3.84915">
        <ele>62</ele>
        <time>2020-10-25T12:00:18.000Z</time>
      </trkpt>
      <trkpt lat="43.6227" lon="3.84915">
        <ele>62</ele>
        <time>2020-10-25T12:00:20.000Z</time>
      </trkpt>
      <trkpt lat="43.6227" lon="3.84915">
        <ele>62</ele>
        <time>2020-10-25T12:00:24.000Z</time>
      </trkpt>
      <trkpt lat="43.62272" lon="3.84909">
        <ele>63.985606796021</ele>
        <time>2020-10-25T12:00:53.000Z</time>
      </trkpt>
      <trkpt lat="43.62274" lon="3.84906">
        <ele>64</ele>
        <time>2020-10-25T12:00:55.000Z</time>
      </trkpt>
      <trkpt lat="43.62276" lon="3.84902">
        <ele>64</ele>
        <time>2020-10-25T12:00:57.000Z</time>
      </trkpt>
      <trkpt lat="43.62276" lon="3.84898">
        <ele>64</ele>
        <time>2020-10-25T12:00:59.000Z</time>
      </trkpt>
      <trkpt lat="43.62276" lon="3.84894">
        <ele>64</ele>
        <time>2020-10-25T12:01:01.000Z</time>
      </trkpt>
      <trkpt lat="43.62278" lon="3.8489">
        <ele>64.029153906054</ele>
        <time>2020-10-25T12:01:03.000Z</time>
      </trkpt>
      <trkpt lat="43.62279" lon="3.84885">
        <ele>64.223517426167</ele>
        <time>2020-10-25T12:01:05.000Z</time>
      </trkpt>
      <trkpt lat="43.62279" lon="3.84882">
        <ele>64.320699186223</ele>
        <time>2020-10-25T12:01:06.000Z</time>
      </trkpt>
      <trkpt lat="43.62279" lon="3.8488">
        <ele>64.41788094628</ele>
        <time>2020-10-25T12:01:07.000Z</time>
      </trkpt>
      <trkpt lat="43.62279" lon="3.84877">
        <ele>64.515062706336</ele>
        <time>2020-10-25T12:01:08.000Z</time>
      </trkpt>
      <trkpt lat="43.62279" lon="3.84875">
        <ele>64.612244466393</ele>
        <time>2020-10-25T12:01:09.000Z</time>
      </trkpt>
      <trkpt lat="43.6228" lon="3.84871">
        <ele>64.709426226449</ele>
        <time>2020-10-25T12:01:10.000Z</time>
      </trkpt>
      <trkpt lat="43.6228" lon="3.84868">
        <ele>64.806607986506</ele>
        <time>2020-10-25T12:01:11.000Z</time>
      </trkpt>
      <trkpt lat="43.62281" lon="3.84864">
        <ele>64.903789746562</ele>
        <time>2020-10-25T12:01:12.000Z</time>
      </trkpt>
      <trkpt lat="43.62282" lon="3.84861">
        <ele>65.000998681638</ele>
        <time>2020-10-25T12:01:13.000Z</time>
      </trkpt>
      <trkpt lat="43.62282" lon="3.84858">
        <ele>65.100898813474</ele>
        <time>2020-10-25T12:01:14.000Z</time>
      </trkpt>
      <trkpt lat="43.62281" lon="3.84854">
        <ele>65.20079894531</ele>
        <time>2020-10-25T12:01:15.000Z</time>
      </trkpt>
      <trkpt lat="43.62281" lon="3.84851">
        <ele>65.300699077147</ele>
        <time>2020-10-25T12:01:16.000Z</time>
      </trkpt>
      <trkpt lat="43.62281" lon="3.84848">
        <ele>65.400599208983</ele>
        <time>2020-10-25T12:01:17.000Z</time>
      </trkpt>
      <trkpt lat="43.6228" lon="3.84846">
        <ele>65.500499340819</ele>
        <time>2020-10-25T12:01:18.000Z</time>
      </trkpt>
      <trkpt lat="43.6228" lon="3.84842">
        <ele>65.600399472655</ele>
        <time>2020-10-25T12:01:19.000Z</time>
      </trkpt>
      <trkpt lat="43.6228" lon="3.84838">
        <ele>65.700299604491</ele>
        <time>2020-10-25T12:01:20.000Z</time>
      </trkpt>
      <trkpt lat="43.62279" lon="3.84834">
        <ele>65.800199736328</ele>
        <time>2020-10-25T12:01:21.000Z</time>
      </trkpt>
      <trkpt lat="43.62279" lon="3.8483">
        <ele>65.900099868164</ele>
        <time>2020-10-25T12:01:22.000Z</time>
      </trkpt>
      <trkpt lat="43.62278" lon="3.84826">
        <ele>66</ele>
        <time>2020-10-25T12:01:23.000Z</time>
      </trkpt>
      <trkpt lat="43.62279" lon="3.84822">
        <ele>66</ele>
        <time>2020-10-25T12:01:24.000Z</time>
      </trkpt>
      <trkpt lat="43.62279" lon="3.84818">
        <ele>66</ele>
        <time>2020-10-25T12:01:25.000Z</time>
      </trkpt>
      <trkpt lat="43.62279" lon="3.84814">
        <ele>66</ele>
        <time>2020-10-25T12:01:26.000Z</time>
      </trkpt>
      <trkpt lat="43.62279" lon="3.8481">
        <ele>66</ele>
        <time>2020-10-25T12:01:27.000Z</time>
      </trkpt>
      <trkpt lat="43.62279" lon="3.84806">
        <ele>66</ele>
        <time>2020-10-25T12:01:28.000Z</time>
      </trkpt>
      <trkpt lat="43.6228" lon="3.84803">
        <ele>66</ele>
        <time>2020-10-25T12:01:29.000Z</time>
      </trkpt>
      <trkpt lat="43.6228" lon="3.84799">
        <ele>66</ele>
        <time>2020-10-25T12:01:30.000Z</time>
      </trkpt>
      <trkpt lat="43.6228" lon="3.84795">
        <ele>66</ele>
        <time>2020-10-25T12:01:31.000Z</time>
      </trkpt>
      <trkpt lat="43.62281" lon="3.8479">
        <ele>66</ele>
        <time>2020-10-25T12:01:32.000Z</time>
      </trkpt>
      <trkpt lat="43.62281" lon="3.84785">
        <ele>65.97000064</ele>
        <time>2020-10-25T12:01:33.000Z</time>
      </trkpt>
      <trkpt lat="43.62282" lon="3.8478">
        <ele>65.87000064</ele>
        <time>2020-10-25T12:01:34.000Z</time>
      </trkpt>
      <trkpt lat="43.62283" lon="3.84774">
        <ele>65.77000064</ele>
        <time>2020-10-25T12:01:35.000Z</time>
      </trkpt>
      <trkpt lat="43.62284" lon="3.84768">
        <ele>65.67000064</ele>
        <time>2020-10-25T12:01:36.000Z</time>
      </trkpt>
      <trkpt lat="43.62284" lon="3.84763">
        <ele>65.57000064</ele>
        <time>2020-10-25T12:01:37.000Z</time>
      </trkpt>
      <trkpt lat="43.62283" lon="3.84758">
        <ele>65.47000064</ele>
        <time>2020-10-25T12:01:38.000Z</time>
      </trkpt>
      <trkpt lat="43.62281" lon="3.84754">
        <ele>65.37000064</ele>
        <time>2020-10-25T12:01:39.000Z</time>
      </trkpt>
      <trkpt lat="43.6228" lon="3.8475">
        <ele>65.27000064</ele>
        <time>2020-10-25T12:01:40.000Z</time>
      </trkpt>
      <trkpt lat="43.62279" lon="3.84746">
        <ele>65.17000064</ele>
        <time>2020-10-25T12:01:41.000Z</time>
      </trkpt>
      <trkpt lat="43.62277" lon="3.84741">
        <ele>65.07000064</ele>
        <time>2020-10-25T12:01:42.000Z</time>
      </trkpt>
      <trkpt lat="43.62276" lon="3.84736">
        <ele>64.97000064</ele>
        <time>2020-10-25T12:01:43.000Z</time>
      </trkpt>
      <trkpt lat="43.62275" lon="3.84732">
        <ele>64.87000064</ele>
        <time>2020-10-25T12:01:44.000Z</time>
      </trkpt>
      <trkpt lat="43.62274" lon="3.84728">
        <ele>64.77000064</ele>
        <time>2020-10-25T12:01:45.000Z</time>
      </trkpt>
      <trkpt lat="43.62272" lon="3.84723">
        <ele>64.67000064</ele>
        <time>2020-10-25T12:01:46.000Z</time>
      </trkpt>
      <trkpt lat="43.62271" lon="3.84718">
        <ele>64.57000064</ele>
        <time>2020-10-25T12:01:47.000Z</time>
      </trkpt>
      <trkpt lat="43.62269" lon="3.84713">
        <ele>64.47000064</ele>
        <time>2020-10-25T12:01:48.000Z</time>
      </trkpt>
      <trkpt lat="43.62267" lon="3.84707">
        <ele>64.37000064</ele>
        <time>2020-10-25T12:01:49.000Z</time>
      </trkpt>
      <trkpt lat="43.62266" lon="3.84702">
        <ele>64.27000064</ele>
        <time>2020-10-25T12:01:50.000Z</time>
      </trkpt>
      <trkpt lat="43.62264" lon="3.84696">
        <ele>64.17000064</ele>
        <time>2020-10-25T12:01:51.000Z</time>
      </trkpt>
      <trkpt lat="43.62261" lon="3.84689">
        <ele>64.07000064</ele>
        <time>2020-10-25T12:01:52.000Z</time>
      </trkpt>
      <trkpt lat="43.62257" lon="3.84682">
        <ele>63.94000128</ele>
        <time>2020-10-25T12:01:53.000Z</time>
      </trkpt>
      <trkpt lat="43.62252" lon="3.84675">
        <ele>63.74000128</ele>
        <time>2020-10-25T12:01:54.000Z</time>
      </trkpt>
      <trkpt lat="43.62247" lon="3.84669">
        <ele>63.54000128</ele>
        <time>2020-10-25T12:01:55.000Z</time>
      </trkpt>
      <trkpt lat="43.62241" lon="3.84663">
        <ele>63.34000128</ele>
        <time>2020-10-25T12:01:56.000Z</time>
      </trkpt>
      <trkpt lat="43.62236" lon="3.84656">
        <ele>63.14000128</ele>
        <time>2020-10-25T12:01:57.000Z</time>
      </trkpt>
      <trkpt lat="43.6223" lon="3.84651">
        <ele>62.94000128</ele>
        <time>2020-10-25T12:01:58.000Z</time>
      </trkpt>
      <trkpt lat="43.62225" lon="3.84646">
        <ele>62.74000128</ele>
        <time>2020-10-25T12:01:59.000Z</time>
      </trkpt>
      <trkpt lat="43.62221" lon="3.84641">
        <ele>62.54000128</ele>
        <time>2020-10-25T12:02:00.000Z</time>
      </trkpt>
      <trkpt lat="43.62219" lon="3.84635">
        <ele>62.34000128</ele>
        <time>2020-10-25T12:02:01.000Z</time>
      </trkpt>
      <trkpt lat="43.62219" lon="3.84628">
        <ele>62.14000128</ele>
        <time>2020-10-25T12:02:02.000Z</time>
      </trkpt>
      <trkpt lat="43.6222" lon="3.8462">
        <ele>61.94006119962</ele>
        <time>2020-10-25T12:02:03.000Z</time>
      </trkpt>
      <trkpt lat="43.62221" lon="3.84614">
        <ele>61.740260935948</ele>
        <time>2020-10-25T12:02:04.000Z</time>
      </trkpt>
      <trkpt lat="43.62223" lon="3.84608">
        <ele>61.540460672275</ele>
        <time>2020-10-25T12:02:05.000Z</time>
      </trkpt>
      <trkpt lat="43.62224" lon="3.84603">
        <ele>61.340660408603</ele>
        <time>2020-10-25T12:02:06.000Z</time>
      </trkpt>
      <trkpt lat="43.62225" lon="3.84598">
        <ele>61.14086014493</ele>
        <time>2020-10-25T12:02:07.000Z</time>
      </trkpt>
      <trkpt lat="43.62226" lon="3.84593">
        <ele>60.941059881258</ele>
        <time>2020-10-25T12:02:08.000Z</time>
      </trkpt>
      <trkpt lat="43.62227" lon="3.84587">
        <ele>60.741259617585</ele>
        <time>2020-10-25T12:02:09.000Z</time>
      </trkpt>
      <trkpt lat="43.62229" lon="3.84581">
        <ele>60.541459353913</ele>
        <time>2020-10-25T12:02:10.000Z</time>
      </trkpt>
      <trkpt lat="43.62229" lon="3.84574">
        <ele>60.341659090241</ele>
        <time>2020-10-25T12:02:11.000Z</time>
      </trkpt>
      <trkpt lat="43.62231" lon="3.84568">
        <ele>60.141858826568</ele>
        <time>2020-10-25T12:02:12.000Z</time>
      </trkpt>
      <trkpt lat="43.62233" lon="3.84563">
        <ele>59.97097130059</ele>
        <time>2020-10-25T12:02:13.000Z</time>
      </trkpt>
      <trkpt lat="43.62236" lon="3.84559">
        <ele>59.870871232554</ele>
        <time>2020-10-25T12:02:14.000Z</time>
      </trkpt>
      <trkpt lat="43.62238" lon="3.84554">
        <ele>59.770771164518</ele>
        <time>2020-10-25T12:02:15.000Z</time>
      </trkpt>
      <trkpt lat="43.62241" lon="3.8455">
        <ele>59.670671096482</ele>
        <time>2020-10-25T12:02:16.000Z</time>
      </trkpt>
      <trkpt lat="43.62244" lon="3.84545">
        <ele>59.570571028446</ele>
        <time>2020-10-25T12:02:17.000Z</time>
      </trkpt>
      <trkpt lat="43.62247" lon="3.8454">
        <ele>59.47047096041</ele>
        <time>2020-10-25T12:02:18.000Z</time>
      </trkpt>
      <trkpt lat="43.6225" lon="3.84535">
        <ele>59.370370892374</ele>
        <time>2020-10-25T12:02:19.000Z</time>
      </trkpt>
      <trkpt lat="43.62253" lon="3.8453">
        <ele>59.270270824338</ele>
        <time>2020-10-25T12:02:20.000Z</time>
      </trkpt>
      <trkpt lat="43.62257" lon="3.84525">
        <ele>59.170170756302</ele>
        <time>2020-10-25T12:02:21.000Z</time>
      </trkpt>
      <trkpt lat="43.6226" lon="3.8452">
        <ele>59.070070688266</ele>
        <time>2020-10-25T12:02:22.000Z</time>
      </trkpt>
      <trkpt lat="43.62264" lon="3.84515">
        <ele>59</ele>
        <time>2020-10-25T12:02:23.000Z</time>
      </trkpt>
      <trkpt lat="43.62267" lon="3.84509">
        <ele>59</ele>
        <time>2020-10-25T12:02:24.000Z</time>
      </trkpt>
      <trkpt lat="43.62271" lon="3.84504">
        <ele>59</ele>
        <time>2020-10-25T12:02:25.000Z</time>
      </trkpt>
      <trkpt lat="43.62274" lon="3.84498">
        <ele>59</ele>
        <time>2020-10-25T12:02:26.000Z</time>
      </trkpt>
      <trkpt lat="43.62278" lon="3.84492">
        <ele>59</ele>
        <time>2020-10-25T12:02:27.000Z</time>
      </trkpt>
      <trkpt lat="43.62281" lon="3.84487">
        <ele>59</ele>
        <time>2020-10-25T12:02:28.000Z</time>
      </trkpt>
      <trkpt lat="43.62285" lon="3.84481">
        <ele>59</ele>
        <time>2020-10-25T12:02:29.000Z</time>
      </trkpt>
      <trkpt lat="43.62289" lon="3.84475">
        <ele>59</ele>
        <time>2020-10-25T12:02:30.000Z</time>
      </trkpt>
      <trkpt lat="43.62292" lon="3.8447">
        <ele>59</ele>
        <time>2020-10-25T12:02:31.000Z</time>
      </trkpt>
      <trkpt lat="43.62295" lon="3.84463">
        <ele>59</ele>
        <time>2020-10-25T12:02:32.000Z</time>
      </trkpt>
      <trkpt lat="43.62297" lon="3.84457">
        <ele>58.97000064</ele>
        <time>2020-10-25T12:02:33.000Z</time>
      </trkpt>
      <trkpt lat="43.62299" lon="3.8445">
        <ele>58.87000064</ele>
        <time>2020-10-25T12:02:34.000Z</time>
      </trkpt>
      <trkpt lat="43.62301" lon="3.84444">
        <ele>58.77000064</ele>
        <time>2020-10-25T12:02:35.000Z</time>
      </trkpt>
      <trkpt lat="43.62305" lon="3.84439">
        <ele>58.67000064</ele>
        <time>2020-10-25T12:02:36.000Z</time>
      </trkpt>
      <trkpt lat="43.62308" lon="3.84434">
        <ele>58.57000064</ele>
        <time>2020-10-25T12:02:37.000Z</time>
      </trkpt>
      <trkpt lat="43.62311" lon="3.84429">
        <ele>58.47000064</ele>
        <time>2020-10-25T12:02:38.000Z</time>
      </trkpt>
      <trkpt lat="43.62315" lon="3.84424">
        <ele>58.37000064</ele>
        <time>2020-10-25T12:02:39.000Z</time>
      </trkpt>
      <trkpt lat="43.62318" lon="3.84419">
        <ele>58.27000064</ele>
        <time>2020-10-25T12:02:40.000Z</time>
      </trkpt>
      <trkpt lat="43.62321" lon="3.84414">
        <ele>58.17000064</ele>
        <time>2020-10-25T12:02:41.000Z</time>
      </trkpt>
      <trkpt lat="43.62325" lon="3.8441">
        <ele>58.07000064</ele>
        <time>2020-10-25T12:02:42.000Z</time>
      </trkpt>
      <trkpt lat="43.62328" lon="3.84405">
        <ele>58.02999936</ele>
        <time>2020-10-25T12:02:43.000Z</time>
      </trkpt>
      <trkpt lat="43.62331" lon="3.844">
        <ele>58.12999936</ele>
        <time>2020-10-25T12:02:44.000Z</time>
      </trkpt>
      <trkpt lat="43.62335" lon="3.84396">
        <ele>58.22999936</ele>
        <time>2020-10-25T12:02:45.000Z</time>
      </trkpt>
      <trkpt lat="43.62338" lon="3.84391">
        <ele>58.32999936</ele>
        <time>2020-10-25T12:02:46.000Z</time>
      </trkpt>
      <trkpt lat="43.62341" lon="3.84387">
        <ele>58.42999936</ele>
        <time>2020-10-25T12:02:47.000Z</time>
      </trkpt>
      <trkpt lat="43.62344" lon="3.84382">
        <ele>58.52999936</ele>
        <time>2020-10-25T12:02:48.000Z</time>
      </trkpt>
      <trkpt lat="43.62347" lon="3.84378">
        <ele>58.62999936</ele>
        <time>2020-10-25T12:02:49.000Z</time>
      </trkpt>
      <trkpt lat="43.6235" lon="3.84374">
        <ele>58.72999936</ele>
        <time>2020-10-25T12:02:50.000Z</time>
      </trkpt>
      <trkpt lat="43.62353" lon="3.84369">
        <ele>58.82999936</ele>
        <time>2020-10-25T12:02:51.000Z</time>
      </trkpt>
      <trkpt lat="43.62356" lon="3.84366">
        <ele>58.92999936</ele>
        <time>2020-10-25T12:02:52.000Z</time>
      </trkpt>
      <trkpt lat="43.62358" lon="3.84361">
        <ele>59</ele>
        <time>2020-10-25T12:02:53.000Z</time>
      </trkpt>
      <trkpt lat="43.6236" lon="3.84357">
        <ele>59</ele>
        <time>2020-10-25T12:02:54.000Z</time>
      </trkpt>
      <trkpt lat="43.62362" lon="3.84353">
        <ele>59</ele>
        <time>2020-10-25T12:02:55.000Z</time>
      </trkpt>
      <trkpt lat="43.62362" lon="3.84349">
        <ele>59</ele>
        <time>2020-10-25T12:02:56.000Z</time>
      </trkpt>
      <trkpt lat="43.62361" lon="3.84344">
        <ele>59</ele>
        <time>2020-10-25T12:02:57.000Z</time>
      </trkpt>
      <trkpt lat="43.62361" lon="3.84339">
        <ele>59</ele>
        <time>2020-10-25T12:02:58.000Z</time>
      </trkpt>
      <trkpt lat="43.6236" lon="3.84333">
        <ele>59</ele>
        <time>2020-10-25T12:02:59.000Z</time>
      </trkpt>
      <trkpt lat="43.6236" lon="3.84328">
        <ele>59</ele>
        <time>2020-10-25T12:03:00.000Z</time>
      </trkpt>
      <trkpt lat="43.62362" lon="3.84323">
        <ele>59</ele>
        <time>2020-10-25T12:03:01.000Z</time>
      </trkpt>
      <trkpt lat="43.62365" lon="3.84319">
        <ele>59</ele>
        <time>2020-10-25T12:03:02.000Z</time>
      </trkpt>
      <trkpt lat="43.62368" lon="3.84315">
        <ele>59</ele>
        <time>2020-10-25T12:03:03.000Z</time>
      </trkpt>
      <trkpt lat="43.62371" lon="3.8431">
        <ele>59</ele>
        <time>2020-10-25T12:03:04.000Z</time>
      </trkpt>
      <trkpt lat="43.62374" lon="3.84306">
        <ele>59</ele>
        <time>2020-10-25T12:03:05.000Z</time>
      </trkpt>
      <trkpt lat="43.62377" lon="3.84301">
        <ele>59</ele>
        <time>2020-10-25T12:03:06.000Z</time>
      </trkpt>
      <trkpt lat="43.6238" lon="3.84296">
        <ele>59</ele>
        <time>2020-10-25T12:03:07.000Z</time>
      </trkpt>
      <trkpt lat="43.62383" lon="3.84291">
        <ele>59</ele>
        <time>2020-10-25T12:03:08.000Z</time>
      </trkpt>
      <trkpt lat="43.62387" lon="3.84286">
        <ele>59</ele>
        <time>2020-10-25T12:03:09.000Z</time>
      </trkpt>
      <trkpt lat="43.62391" lon="3.84283">
        <ele>59</ele>
        <time>2020-10-25T12:03:10.000Z</time>
      </trkpt>
      <trkpt lat="43.62395" lon="3.84279">
        <ele>59</ele>
        <time>2020-10-25T12:03:11.000Z</time>
      </trkpt>
      <trkpt lat="43.62398" lon="3.84275">
        <ele>59</ele>
        <time>2020-10-25T12:03:12.000Z</time>
      </trkpt>
      <trkpt lat="43.624" lon="3.84272">
        <ele>59.02999936</ele>
        <time>2020-10-25T12:03:13.000Z</time>
      </trkpt>
      <trkpt lat="43.62401" lon="3.84269">
        <ele>59.12999936</ele>
        <time>2020-10-25T12:03:14.000Z</time>
      </trkpt>
      <trkpt lat="43.624" lon="3.84266">
        <ele>59.22999936</ele>
        <time>2020-10-25T12:03:15.000Z</time>
      </trkpt>
      <trkpt lat="43.624" lon="3.84263">
        <ele>59.32999936</ele>
        <time>2020-10-25T12:03:16.000Z</time>
      </trkpt>
      <trkpt lat="43.62398" lon="3.84259">
        <ele>59.42999936</ele>
        <time>2020-10-25T12:03:17.000Z</time>
      </trkpt>
      <trkpt lat="43.62396" lon="3.84253">
        <ele>59.52999936</ele>
        <time>2020-10-25T12:03:18.000Z</time>
      </trkpt>
      <trkpt lat="43.62391" lon="3.84246">
        <ele>59.62999936</ele>
        <time>2020-10-25T12:03:19.000Z</time>
      </trkpt>
      <trkpt lat="43.62388" lon="3.84239">
        <ele>59.72999936</ele>
        <time>2020-10-25T12:03:20.000Z</time>
      </trkpt>
      <trkpt lat="43.62386" lon="3.84235">
        <ele>59.82999936</ele>
        <time>2020-10-25T12:03:21.000Z</time>
      </trkpt>
      <trkpt lat="43.62385" lon="3.84232">
        <ele>60.029939500161</ele>
        <time>2020-10-25T12:03:23.000Z</time>
      </trkpt>
      <trkpt lat="43.62387" lon="3.84229">
        <ele>60.229540426054</ele>
        <time>2020-10-25T12:03:25.000Z</time>
      </trkpt>
      <trkpt lat="43.62389" lon="3.84228">
        <ele>60.329340889</ele>
        <time>2020-10-25T12:03:26.000Z</time>
      </trkpt>
      <trkpt lat="43.62391" lon="3.84228">
        <ele>60.429141351947</ele>
        <time>2020-10-25T12:03:27.000Z</time>
      </trkpt>
      <trkpt lat="43.62393" lon="3.84226">
        <ele>60.628742277839</ele>
        <time>2020-10-25T12:03:29.000Z</time>
      </trkpt>
      <trkpt lat="43.62393" lon="3.84222">
        <ele>60.828343203732</ele>
        <time>2020-10-25T12:03:31.000Z</time>
      </trkpt>
      <trkpt lat="43.62391" lon="3.84218">
        <ele>61.028056094233</ele>
        <time>2020-10-25T12:03:33.000Z</time>
      </trkpt>
      <trkpt lat="43.6239" lon="3.84213">
        <ele>61.228456767322</ele>
        <time>2020-10-25T12:03:35.000Z</time>
      </trkpt>
      <trkpt lat="43.62389" lon="3.8421">
        <ele>61.328657103867</ele>
        <time>2020-10-25T12:03:36.000Z</time>
      </trkpt>
      <trkpt lat="43.62388" lon="3.84207">
        <ele>61.428857440412</ele>
        <time>2020-10-25T12:03:37.000Z</time>
      </trkpt>
      <trkpt lat="43.62387" lon="3.84202">
        <ele>61.529057776957</ele>
        <time>2020-10-25T12:03:38.000Z</time>
      </trkpt>
      <trkpt lat="43.62386" lon="3.84197">
        <ele>61.629258113502</ele>
        <time>2020-10-25T12:03:39.000Z</time>
      </trkpt>
      <trkpt lat="43.62385" lon="3.84193">
        <ele>61.729458450047</ele>
        <time>2020-10-25T12:03:40.000Z</time>
      </trkpt>
      <trkpt lat="43.62384" lon="3.84188">
        <ele>61.829658786592</ele>
        <time>2020-10-25T12:03:41.000Z</time>
      </trkpt>
      <trkpt lat="43.62384" lon="3.84183">
        <ele>61.929859123136</ele>
        <time>2020-10-25T12:03:42.000Z</time>
      </trkpt>
      <trkpt lat="43.62383" lon="3.84179">
        <ele>62</ele>
        <time>2020-10-25T12:03:43.000Z</time>
      </trkpt>
      <trkpt lat="43.62382" lon="3.84176">
        <ele>62</ele>
        <time>2020-10-25T12:03:44.000Z</time>
      </trkpt>
      <trkpt lat="43.62381" lon="3.84174">
        <ele>62</ele>
        <time>2020-10-25T12:03:46.000Z</time>
      </trkpt>
      <trkpt lat="43.62382" lon="3.84174">
        <ele>62</ele>
        <time>2020-10-25T12:03:51.000Z</time>
      </trkpt>
      <trkpt lat="43.62383" lon="3.84167">
        <ele>62</ele>
        <time>2020-10-25T12:07:38.000Z</time>
      </trkpt>
      <trkpt lat="43.62384" lon="3.84166">
        <ele>62</ele>
        <time>2020-10-25T12:07:39.000Z</time>
      </trkpt>
      <trkpt lat="43.62386" lon="3.84162">
        <ele>62</ele>
        <time>2020-10-25T12:07:41.000Z</time>
      </trkpt>
      <trkpt lat="43.62387" lon="3.8416">
        <ele>62</ele>
        <time>2020-10-25T12:07:42.000Z</time>
      </trkpt>
      <trkpt lat="43.62388" lon="3.84158">
        <ele>62</ele>
        <time>2020-10-25T12:07:43.000Z</time>
      </trkpt>
      <trkpt lat="43.6239" lon="3.84156">
        <ele>62</ele>
        <time>2020-10-25T12:07:44.000Z</time>
      </trkpt>
      <trkpt lat="43.62392" lon="3.84154">
        <ele>62</ele>
        <time>2020-10-25T12:07:45.000Z</time>
      </trkpt>
      <trkpt lat="43.62394" lon="3.84152">
        <ele>62</ele>
        <time>2020-10-25T12:07:46.000Z</time>
      </trkpt>
      <trkpt lat="43.62397" lon="3.84151">
        <ele>62</ele>
        <time>2020-10-25T12:07:47.000Z</time>
      </trkpt>
      <trkpt lat="43.62399" lon="3.8415">
        <ele>62.001995370536</ele>
        <time>2020-10-25T12:07:48.000Z</time>
      </trkpt>
      <trkpt lat="43.62402" lon="3.84148">
        <ele>62.101795833482</ele>
        <time>2020-10-25T12:07:49.000Z</time>
      </trkpt>
      <trkpt lat="43.62404" lon="3.84147">
        <ele>62.201596296429</ele>
        <time>2020-10-25T12:07:50.000Z</time>
      </trkpt>
      <trkpt lat="43.62407" lon="3.84146">
        <ele>62.301396759375</ele>
        <time>2020-10-25T12:07:51.000Z</time>
      </trkpt>
      <trkpt lat="43.6241" lon="3.84145">
        <ele>62.401197222322</ele>
        <time>2020-10-25T12:07:52.000Z</time>
      </trkpt>
      <trkpt lat="43.62412" lon="3.84143">
        <ele>62.500997685268</ele>
        <time>2020-10-25T12:07:53.000Z</time>
      </trkpt>
      <trkpt lat="43.62415" lon="3.84142">
        <ele>62.600798148214</ele>
        <time>2020-10-25T12:07:54.000Z</time>
      </trkpt>
      <trkpt lat="43.62417" lon="3.84141">
        <ele>62.700598611161</ele>
        <time>2020-10-25T12:07:55.000Z</time>
      </trkpt>
      <trkpt lat="43.6242" lon="3.84141">
        <ele>62.800399074107</ele>
        <time>2020-10-25T12:07:56.000Z</time>
      </trkpt>
      <trkpt lat="43.62423" lon="3.8414">
        <ele>62.900199537054</ele>
        <time>2020-10-25T12:07:57.000Z</time>
      </trkpt>
      <trkpt lat="43.62426" lon="3.84139">
        <ele>63</ele>
        <time>2020-10-25T12:07:58.000Z</time>
      </trkpt>
      <trkpt lat="43.62428" lon="3.84138">
        <ele>63.103092851525</ele>
        <time>2020-10-25T12:07:59.000Z</time>
      </trkpt>
      <trkpt lat="43.62431" lon="3.84137">
        <ele>63.20618570305</ele>
        <time>2020-10-25T12:08:00.000Z</time>
      </trkpt>
      <trkpt lat="43.62434" lon="3.84136">
        <ele>63.309278554575</ele>
        <time>2020-10-25T12:08:01.000Z</time>
      </trkpt>
      <trkpt lat="43.62436" lon="3.84135">
        <ele>63.412371406101</ele>
        <time>2020-10-25T12:08:02.000Z</time>
      </trkpt>
      <trkpt lat="43.62439" lon="3.84134">
        <ele>63.515464257626</ele>
        <time>2020-10-25T12:08:03.000Z</time>
      </trkpt>
      <trkpt lat="43.62441" lon="3.84133">
        <ele>63.618557109151</ele>
        <time>2020-10-25T12:08:04.000Z</time>
      </trkpt>
      <trkpt lat="43.62444" lon="3.84133">
        <ele>63.721649960676</ele>
        <time>2020-10-25T12:08:05.000Z</time>
      </trkpt>
      <trkpt lat="43.62446" lon="3.84132">
        <ele>63.824742812201</ele>
        <time>2020-10-25T12:08:06.000Z</time>
      </trkpt>
      <trkpt lat="43.62449" lon="3.84131">
        <ele>63.927835663727</ele>
        <time>2020-10-25T12:08:07.000Z</time>
      </trkpt>
      <trkpt lat="43.62451" lon="3.84131">
        <ele>64</ele>
        <time>2020-10-25T12:08:08.000Z</time>
      </trkpt>
      <trkpt lat="43.62453" lon="3.84131">
        <ele>64</ele>
        <time>2020-10-25T12:08:09.000Z</time>
      </trkpt>
      <trkpt lat="43.62456" lon="3.8413">
        <ele>64</ele>
        <time>2020-10-25T12:08:10.000Z</time>
      </trkpt>
      <trkpt lat="43.62459" lon="3.84129">
        <ele>64</ele>
        <time>2020-10-25T12:08:11.000Z</time>
      </trkpt>
      <trkpt lat="43.62461" lon="3.84128">
        <ele>64</ele>
        <time>2020-10-25T12:08:12.000Z</time>
      </trkpt>
      <trkpt lat="43.62464" lon="3.84126">
        <ele>64</ele>
        <time>2020-10-25T12:08:13.000Z</time>
      </trkpt>
      <trkpt lat="43.62466" lon="3.84123">
        <ele>64</ele>
        <time>2020-10-25T12:08:14.000Z</time>
      </trkpt>
      <trkpt lat="43.62468" lon="3.8412">
        <ele>64</ele>
        <time>2020-10-25T12:08:15.000Z</time>
      </trkpt>
      <trkpt lat="43.6247" lon="3.84117">
        <ele>64</ele>
        <time>2020-10-25T12:08:16.000Z</time>
      </trkpt>
      <trkpt lat="43.62472" lon="3.84113">
        <ele>64</ele>
        <time>2020-10-25T12:08:17.000Z</time>
      </trkpt>
      <trkpt lat="43.62474" lon="3.84109">
        <ele>64.026103808648</ele>
        <time>2020-10-25T12:08:18.000Z</time>
      </trkpt>
      <trkpt lat="43.62475" lon="3.84106">
        <ele>64.126505544103</ele>
        <time>2020-10-25T12:08:19.000Z</time>
      </trkpt>
      <trkpt lat="43.62477" lon="3.84102">
        <ele>64.22690727956</ele>
        <time>2020-10-25T12:08:20.000Z</time>
      </trkpt>
      <trkpt lat="43.62478" lon="3.84098">
        <ele>64.327309015016</ele>
        <time>2020-10-25T12:08:21.000Z</time>
      </trkpt>
      <trkpt lat="43.62479" lon="3.84095">
        <ele>64.427710750472</ele>
        <time>2020-10-25T12:08:22.000Z</time>
      </trkpt>
      <trkpt lat="43.62481" lon="3.84091">
        <ele>64.528112485928</ele>
        <time>2020-10-25T12:08:23.000Z</time>
      </trkpt>
      <trkpt lat="43.62482" lon="3.84087">
        <ele>64.628514221384</ele>
        <time>2020-10-25T12:08:24.000Z</time>
      </trkpt>
      <trkpt lat="43.62484" lon="3.84084">
        <ele>64.72891595684</ele>
        <time>2020-10-25T12:08:25.000Z</time>
      </trkpt>
      <trkpt lat="43.62485" lon="3.8408">
        <ele>64.829317692296</ele>
        <time>2020-10-25T12:08:26.000Z</time>
      </trkpt>
      <trkpt lat="43.62487" lon="3.84076">
        <ele>64.929719427752</ele>
        <time>2020-10-25T12:08:27.000Z</time>
      </trkpt>
      <trkpt lat="43.62488" lon="3.84073">
        <ele>65.03000064</ele>
        <time>2020-10-25T12:08:28.000Z</time>
      </trkpt>
      <trkpt lat="43.6249" lon="3.84069">
        <ele>65.13000064</ele>
        <time>2020-10-25T12:08:29.000Z</time>
      </trkpt>
      <trkpt lat="43.62491" lon="3.84066">
        <ele>65.23000064</ele>
        <time>2020-10-25T12:08:30.000Z</time>
      </trkpt>
      <trkpt lat="43.62493" lon="3.84062">
        <ele>65.33000064</ele>
        <time>2020-10-25T12:08:31.000Z</time>
      </trkpt>
      <trkpt lat="43.62494" lon="3.84058">
        <ele>65.43000064</ele>
        <time>2020-10-25T12:08:32.000Z</time>
      </trkpt>
      <trkpt lat="43.62496" lon="3.84054">
        <ele>65.53000064</ele>
        <time>2020-10-25T12:08:33.000Z</time>
      </trkpt>
      <trkpt lat="43.62497" lon="3.8405">
        <ele>65.63000064</ele>
        <time>2020-10-25T12:08:34.000Z</time>
      </trkpt>
      <trkpt lat="43.62498" lon="3.84046">
        <ele>65.73000064</ele>
        <time>2020-10-25T12:08:35.000Z</time>
      </trkpt>
      <trkpt lat="43.625" lon="3.84042">
        <ele>65.83000064</ele>
        <time>2020-10-25T12:08:36.000Z</time>
      </trkpt>
      <trkpt lat="43.62502" lon="3.84038">
        <ele>65.93000064</ele>
        <time>2020-10-25T12:08:37.000Z</time>
      </trkpt>
      <trkpt lat="43.62503" lon="3.84035">
        <ele>66.029211909106</ele>
        <time>2020-10-25T12:08:38.000Z</time>
      </trkpt>
      <trkpt lat="43.62505" lon="3.84031">
        <ele>66.126582862214</ele>
        <time>2020-10-25T12:08:39.000Z</time>
      </trkpt>
      <trkpt lat="43.62506" lon="3.84027">
        <ele>66.223953815321</ele>
        <time>2020-10-25T12:08:40.000Z</time>
      </trkpt>
      <trkpt lat="43.62508" lon="3.84023">
        <ele>66.321324768428</ele>
        <time>2020-10-25T12:08:41.000Z</time>
      </trkpt>
      <trkpt lat="43.6251" lon="3.8402">
        <ele>66.418695721536</ele>
        <time>2020-10-25T12:08:42.000Z</time>
      </trkpt>
      <trkpt lat="43.62512" lon="3.84016">
        <ele>66.516066674643</ele>
        <time>2020-10-25T12:08:43.000Z</time>
      </trkpt>
      <trkpt lat="43.62514" lon="3.84013">
        <ele>66.613437627751</ele>
        <time>2020-10-25T12:08:44.000Z</time>
      </trkpt>
      <trkpt lat="43.62515" lon="3.84009">
        <ele>66.710808580858</ele>
        <time>2020-10-25T12:08:45.000Z</time>
      </trkpt>
      <trkpt lat="43.62517" lon="3.84006">
        <ele>66.808179533966</ele>
        <time>2020-10-25T12:08:46.000Z</time>
      </trkpt>
      <trkpt lat="43.62518" lon="3.84003">
        <ele>66.905550487073</ele>
        <time>2020-10-25T12:08:47.000Z</time>
      </trkpt>
      <trkpt lat="43.62519" lon="3.84">
        <ele>67.006167155163</ele>
        <time>2020-10-25T12:08:48.000Z</time>
      </trkpt>
      <trkpt lat="43.62521" lon="3.83996">
        <ele>67.211717068602</ele>
        <time>2020-10-25T12:08:49.000Z</time>
      </trkpt>
      <trkpt lat="43.62522" lon="3.83993">
        <ele>67.417266982041</ele>
        <time>2020-10-25T12:08:50.000Z</time>
      </trkpt>
      <trkpt lat="43.62523" lon="3.8399">
        <ele>67.622816895479</ele>
        <time>2020-10-25T12:08:51.000Z</time>
      </trkpt>
      <trkpt lat="43.62524" lon="3.83987">
        <ele>67.828366808918</ele>
        <time>2020-10-25T12:08:52.000Z</time>
      </trkpt>
      <trkpt lat="43.62526" lon="3.83984">
        <ele>68.033916722357</ele>
        <time>2020-10-25T12:08:53.000Z</time>
      </trkpt>
      <trkpt lat="43.62527" lon="3.83981">
        <ele>68.239466635796</ele>
        <time>2020-10-25T12:08:54.000Z</time>
      </trkpt>
      <trkpt lat="43.62528" lon="3.83978">
        <ele>68.445016549235</ele>
        <time>2020-10-25T12:08:55.000Z</time>
      </trkpt>
      <trkpt lat="43.6253" lon="3.83974">
        <ele>68.650566462673</ele>
        <time>2020-10-25T12:08:56.000Z</time>
      </trkpt>
      <trkpt lat="43.62531" lon="3.83971">
        <ele>68.856116376112</ele>
        <time>2020-10-25T12:08:57.000Z</time>
      </trkpt>
      <trkpt lat="43.62532" lon="3.83968">
        <ele>69.06000128</ele>
        <time>2020-10-25T12:08:58.000Z</time>
      </trkpt>
      <trkpt lat="43.62534" lon="3.83964">
        <ele>69.26000128</ele>
        <time>2020-10-25T12:08:59.000Z</time>
      </trkpt>
      <trkpt lat="43.62535" lon="3.8396">
        <ele>69.46000128</ele>
        <time>2020-10-25T12:09:00.000Z</time>
      </trkpt>
      <trkpt lat="43.62536" lon="3.83957">
        <ele>69.66000128</ele>
        <time>2020-10-25T12:09:01.000Z</time>
      </trkpt>
      <trkpt lat="43.62537" lon="3.83953">
        <ele>69.86000128</ele>
        <time>2020-10-25T12:09:02.000Z</time>
      </trkpt>
      <trkpt lat="43.62538" lon="3.83948">
        <ele>70.06000128</ele>
        <time>2020-10-25T12:09:03.000Z</time>
      </trkpt>
      <trkpt lat="43.62538" lon="3.83945">
        <ele>70.26000128</ele>
        <time>2020-10-25T12:09:04.000Z</time>
      </trkpt>
      <trkpt lat="43.62538" lon="3.83941">
        <ele>70.46000128</ele>
        <time>2020-10-25T12:09:05.000Z</time>
      </trkpt>
      <trkpt lat="43.62537" lon="3.83936">
        <ele>70.66000128</ele>
        <time>2020-10-25T12:09:06.000Z</time>
      </trkpt>
      <trkpt lat="43.62537" lon="3.83932">
        <ele>70.86000128</ele>
        <time>2020-10-25T12:09:07.000Z</time>
      </trkpt>
      <trkpt lat="43.62536" lon="3.83928">
        <ele>71.029155113713</ele>
        <time>2020-10-25T12:09:08.000Z</time>
      </trkpt>
      <trkpt lat="43.62536" lon="3.83925">
        <ele>71.126336752883</ele>
        <time>2020-10-25T12:09:09.000Z</time>
      </trkpt>
      <trkpt lat="43.62535" lon="3.83921">
        <ele>71.223518392053</ele>
        <time>2020-10-25T12:09:10.000Z</time>
      </trkpt>
      <trkpt lat="43.62535" lon="3.83917">
        <ele>71.320700031223</ele>
        <time>2020-10-25T12:09:11.000Z</time>
      </trkpt>
      <trkpt lat="43.62534" lon="3.83913">
        <ele>71.417881670392</ele>
        <time>2020-10-25T12:09:12.000Z</time>
      </trkpt>
      <trkpt lat="43.62534" lon="3.83909">
        <ele>71.515063309562</ele>
        <time>2020-10-25T12:09:13.000Z</time>
      </trkpt>
      <trkpt lat="43.62534" lon="3.83905">
        <ele>71.612244948732</ele>
        <time>2020-10-25T12:09:14.000Z</time>
      </trkpt>
      <trkpt lat="43.62534" lon="3.83901">
        <ele>71.709426587901</ele>
        <time>2020-10-25T12:09:15.000Z</time>
      </trkpt>
      <trkpt lat="43.62534" lon="3.83897">
        <ele>71.806608227071</ele>
        <time>2020-10-25T12:09:16.000Z</time>
      </trkpt>
      <trkpt lat="43.62533" lon="3.83893">
        <ele>71.903789866241</ele>
        <time>2020-10-25T12:09:17.000Z</time>
      </trkpt>
      <trkpt lat="43.62532" lon="3.83889">
        <ele>72</ele>
        <time>2020-10-25T12:09:18.000Z</time>
      </trkpt>
      <trkpt lat="43.6253" lon="3.83886">
        <ele>72</ele>
        <time>2020-10-25T12:09:19.000Z</time>
      </trkpt>
      <trkpt lat="43.62528" lon="3.83882">
        <ele>72</ele>
        <time>2020-10-25T12:09:20.000Z</time>
      </trkpt>
      <trkpt lat="43.62527" lon="3.83879">
        <ele>72</ele>
        <time>2020-10-25T12:09:21.000Z</time>
      </trkpt>
      <trkpt lat="43.62526" lon="3.83875">
        <ele>72</ele>
        <time>2020-10-25T12:09:22.000Z</time>
      </trkpt>
      <trkpt lat="43.62525" lon="3.83871">
        <ele>72</ele>
        <time>2020-10-25T12:09:23.000Z</time>
      </trkpt>
      <trkpt lat="43.62524" lon="3.83867">
        <ele>72</ele>
        <time>2020-10-25T12:09:24.000Z</time>
      </trkpt>
      <trkpt lat="43.62523" lon="3.83864">
        <ele>72</ele>
        <time>2020-10-25T12:09:25.000Z</time>
      </trkpt>
      <trkpt lat="43.62523" lon="3.8386">
        <ele>72</ele>
        <time>2020-10-25T12:09:26.000Z</time>
      </trkpt>
      <trkpt lat="43.62522" lon="3.83856">
        <ele>72</ele>
        <time>2020-10-25T12:09:27.000Z</time>
      </trkpt>
      <trkpt lat="43.62521" lon="3.83852">
        <ele>72</ele>
        <time>2020-10-25T12:09:28.000Z</time>
      </trkpt>
      <trkpt lat="43.6252" lon="3.83848">
        <ele>72</ele>
        <time>2020-10-25T12:09:29.000Z</time>
      </trkpt>
      <trkpt lat="43.62519" lon="3.83845">
        <ele>72</ele>
        <time>2020-10-25T12:09:30.000Z</time>
      </trkpt>
      <trkpt lat="43.62518" lon="3.83841">
        <ele>72</ele>
        <time>2020-10-25T12:09:31.000Z</time>
      </trkpt>
      <trkpt lat="43.62516" lon="3.83839">
        <ele>72</ele>
        <time>2020-10-25T12:09:32.000Z</time>
      </trkpt>
      <trkpt lat="43.62513" lon="3.83836">
        <ele>72</ele>
        <time>2020-10-25T12:09:33.000Z</time>
      </trkpt>
      <trkpt lat="43.62511" lon="3.83833">
        <ele>72</ele>
        <time>2020-10-25T12:09:34.000Z</time>
      </trkpt>
      <trkpt lat="43.62508" lon="3.83831">
        <ele>72</ele>
        <time>2020-10-25T12:09:35.000Z</time>
      </trkpt>
      <trkpt lat="43.62505" lon="3.83828">
        <ele>72</ele>
        <time>2020-10-25T12:09:36.000Z</time>
      </trkpt>
      <trkpt lat="43.62502" lon="3.83826">
        <ele>72</ele>
        <time>2020-10-25T12:09:37.000Z</time>
      </trkpt>
      <trkpt lat="43.625" lon="3.83824">
        <ele>72.03010048</ele>
        <time>2020-10-25T12:09:38.000Z</time>
      </trkpt>
      <trkpt lat="43.62497" lon="3.83821">
        <ele>72.13010048</ele>
        <time>2020-10-25T12:09:39.000Z</time>
      </trkpt>
      <trkpt lat="43.62494" lon="3.83819">
        <ele>72.23010048</ele>
        <time>2020-10-25T12:09:40.000Z</time>
      </trkpt>
      <trkpt lat="43.62491" lon="3.83817">
        <ele>72.33010048</ele>
        <time>2020-10-25T12:09:41.000Z</time>
      </trkpt>
      <trkpt lat="43.62489" lon="3.83815">
        <ele>72.43010048</ele>
        <time>2020-10-25T12:09:42.000Z</time>
      </trkpt>
      <trkpt lat="43.62486" lon="3.83813">
        <ele>72.53010048</ele>
        <time>2020-10-25T12:09:43.000Z</time>
      </trkpt>
      <trkpt lat="43.62483" lon="3.83811">
        <ele>72.63010048</ele>
        <time>2020-10-25T12:09:44.000Z</time>
      </trkpt>
      <trkpt lat="43.62481" lon="3.83809">
        <ele>72.73010048</ele>
        <time>2020-10-25T12:09:45.000Z</time>
      </trkpt>
      <trkpt lat="43.62478" lon="3.83806">
        <ele>72.83010048</ele>
        <time>2020-10-25T12:09:46.000Z</time>
      </trkpt>
      <trkpt lat="43.62476" lon="3.83804">
        <ele>72.93010048</ele>
        <time>2020-10-25T12:09:47.000Z</time>
      </trkpt>
      <trkpt lat="43.62473" lon="3.83802">
        <ele>73</ele>
        <time>2020-10-25T12:09:48.000Z</time>
      </trkpt>
      <trkpt lat="43.62471" lon="3.838">
        <ele>73</ele>
        <time>2020-10-25T12:09:49.000Z</time>
      </trkpt>
      <trkpt lat="43.62468" lon="3.83799">
        <ele>73</ele>
        <time>2020-10-25T12:09:50.000Z</time>
      </trkpt>
      <trkpt lat="43.62466" lon="3.83797">
        <ele>73</ele>
        <time>2020-10-25T12:09:51.000Z</time>
      </trkpt>
      <trkpt lat="43.62463" lon="3.83795">
        <ele>73</ele>
        <time>2020-10-25T12:09:52.000Z</time>
      </trkpt>
      <trkpt lat="43.62461" lon="3.83793">
        <ele>73</ele>
        <time>2020-10-25T12:09:53.000Z</time>
      </trkpt>
      <trkpt lat="43.62459" lon="3.83791">
        <ele>73</ele>
        <time>2020-10-25T12:09:54.000Z</time>
      </trkpt>
      <trkpt lat="43.62456" lon="3.83789">
        <ele>73</ele>
        <time>2020-10-25T12:09:55.000Z</time>
      </trkpt>
      <trkpt lat="43.62454" lon="3.83787">
        <ele>73</ele>
        <time>2020-10-25T12:09:56.000Z</time>
      </trkpt>
      <trkpt lat="43.62451" lon="3.83784">
        <ele>73</ele>
        <time>2020-10-25T12:09:57.000Z</time>
      </trkpt>
      <trkpt lat="43.62449" lon="3.83781">
        <ele>73.03010048</ele>
        <time>2020-10-25T12:09:58.000Z</time>
      </trkpt>
      <trkpt lat="43.62448" lon="3.83778">
        <ele>73.13010048</ele>
        <time>2020-10-25T12:09:59.000Z</time>
      </trkpt>
      <trkpt lat="43.62446" lon="3.83775">
        <ele>73.23010048</ele>
        <time>2020-10-25T12:10:00.000Z</time>
      </trkpt>
      <trkpt lat="43.62444" lon="3.83771">
        <ele>73.33010048</ele>
        <time>2020-10-25T12:10:01.000Z</time>
      </trkpt>
      <trkpt lat="43.62443" lon="3.83768">
        <ele>73.43010048</ele>
        <time>2020-10-25T12:10:02.000Z</time>
      </trkpt>
      <trkpt lat="43.62441" lon="3.83764">
        <ele>73.53010048</ele>
        <time>2020-10-25T12:10:03.000Z</time>
      </trkpt>
      <trkpt lat="43.6244" lon="3.8376">
        <ele>73.63010048</ele>
        <time>2020-10-25T12:10:04.000Z</time>
      </trkpt>
      <trkpt lat="43.62439" lon="3.83756">
        <ele>73.73010048</ele>
        <time>2020-10-25T12:10:05.000Z</time>
      </trkpt>
      <trkpt lat="43.62438" lon="3.8375">
        <ele>73.83010048</ele>
        <time>2020-10-25T12:10:06.000Z</time>
      </trkpt>
      <trkpt lat="43.62437" lon="3.83745">
        <ele>73.93010048</ele>
        <time>2020-10-25T12:10:07.000Z</time>
      </trkpt>
      <trkpt lat="43.62435" lon="3.83739">
        <ele>74.058504279724</ele>
        <time>2020-10-25T12:10:08.000Z</time>
      </trkpt>
      <trkpt lat="43.62434" lon="3.83733">
        <ele>74.252867558063</ele>
        <time>2020-10-25T12:10:09.000Z</time>
      </trkpt>
      <trkpt lat="43.62432" lon="3.83728">
        <ele>74.447230836403</ele>
        <time>2020-10-25T12:10:10.000Z</time>
      </trkpt>
      <trkpt lat="43.62429" lon="3.83722">
        <ele>74.641594114742</ele>
        <time>2020-10-25T12:10:11.000Z</time>
      </trkpt>
      <trkpt lat="43.62427" lon="3.83716">
        <ele>74.835957393082</ele>
        <time>2020-10-25T12:10:12.000Z</time>
      </trkpt>
      <trkpt lat="43.62425" lon="3.83711">
        <ele>75.030320671421</ele>
        <time>2020-10-25T12:10:13.000Z</time>
      </trkpt>
      <trkpt lat="43.62422" lon="3.83704">
        <ele>75.22468394976</ele>
        <time>2020-10-25T12:10:14.000Z</time>
      </trkpt>
      <trkpt lat="43.62419" lon="3.83698">
        <ele>75.4190472281</ele>
        <time>2020-10-25T12:10:15.000Z</time>
      </trkpt>
      <trkpt lat="43.62418" lon="3.83693">
        <ele>75.613410506439</ele>
        <time>2020-10-25T12:10:16.000Z</time>
      </trkpt>
      <trkpt lat="43.62417" lon="3.83687">
        <ele>75.807773784779</ele>
        <time>2020-10-25T12:10:17.000Z</time>
      </trkpt>
      <trkpt lat="43.62415" lon="3.83682">
        <ele>76</ele>
        <time>2020-10-25T12:10:18.000Z</time>
      </trkpt>
      <trkpt lat="43.62414" lon="3.83677">
        <ele>76</ele>
        <time>2020-10-25T12:10:19.000Z</time>
      </trkpt>
      <trkpt lat="43.62415" lon="3.83672">
        <ele>76</ele>
        <time>2020-10-25T12:10:20.000Z</time>
      </trkpt>
      <trkpt lat="43.62418" lon="3.83669">
        <ele>76</ele>
        <time>2020-10-25T12:10:21.000Z</time>
      </trkpt>
      <trkpt lat="43.62422" lon="3.83668">
        <ele>76</ele>
        <time>2020-10-25T12:10:22.000Z</time>
      </trkpt>
      <trkpt lat="43.62426" lon="3.83668">
        <ele>76</ele>
        <time>2020-10-25T12:10:23.000Z</time>
      </trkpt>
      <trkpt lat="43.62431" lon="3.83666">
        <ele>76</ele>
        <time>2020-10-25T12:10:24.000Z</time>
      </trkpt>
      <trkpt lat="43.62435" lon="3.83664">
        <ele>76</ele>
        <time>2020-10-25T12:10:25.000Z</time>
      </trkpt>
      <trkpt lat="43.6244" lon="3.83663">
        <ele>76</ele>
        <time>2020-10-25T12:10:26.000Z</time>
      </trkpt>
      <trkpt lat="43.62444" lon="3.83661">
        <ele>76</ele>
        <time>2020-10-25T12:10:27.000Z</time>
      </trkpt>
      <trkpt lat="43.62448" lon="3.8366">
        <ele>76.06000128</ele>
        <time>2020-10-25T12:10:28.000Z</time>
      </trkpt>
      <trkpt lat="43.62451" lon="3.83658">
        <ele>76.26000128</ele>
        <time>2020-10-25T12:10:29.000Z</time>
      </trkpt>
      <trkpt lat="43.62455" lon="3.83657">
        <ele>76.46000128</ele>
        <time>2020-10-25T12:10:30.000Z</time>
      </trkpt>
      <trkpt lat="43.62457" lon="3.83656">
        <ele>76.66000128</ele>
        <time>2020-10-25T12:10:31.000Z</time>
      </trkpt>
      <trkpt lat="43.6246" lon="3.83655">
        <ele>76.86000128</ele>
        <time>2020-10-25T12:10:32.000Z</time>
      </trkpt>
      <trkpt lat="43.62463" lon="3.83654">
        <ele>77.06000128</ele>
        <time>2020-10-25T12:10:33.000Z</time>
      </trkpt>
      <trkpt lat="43.62465" lon="3.83653">
        <ele>77.26000128</ele>
        <time>2020-10-25T12:10:34.000Z</time>
      </trkpt>
      <trkpt lat="43.62467" lon="3.83652">
        <ele>77.46000128</ele>
        <time>2020-10-25T12:10:35.000Z</time>
      </trkpt>
      <trkpt lat="43.6247" lon="3.83651">
        <ele>77.86000128</ele>
        <time>2020-10-25T12:10:37.000Z</time>
      </trkpt>
      <trkpt lat="43.62472" lon="3.83651">
        <ele>78</ele>
        <time>2020-10-25T12:10:38.000Z</time>
      </trkpt>
      <trkpt lat="43.62474" lon="3.8365">
        <ele>78</ele>
        <time>2020-10-25T12:10:39.000Z</time>
      </trkpt>
      <trkpt lat="43.62476" lon="3.83649">
        <ele>78</ele>
        <time>2020-10-25T12:10:40.000Z</time>
      </trkpt>
      <trkpt lat="43.62479" lon="3.83648">
        <ele>78</ele>
        <time>2020-10-25T12:10:41.000Z</time>
      </trkpt>
      <trkpt lat="43.62481" lon="3.83647">
        <ele>78</ele>
        <time>2020-10-25T12:10:42.000Z</time>
      </trkpt>
      <trkpt lat="43.62484" lon="3.83647">
        <ele>78</ele>
        <time>2020-10-25T12:10:43.000Z</time>
      </trkpt>
      <trkpt lat="43.62487" lon="3.83645">
        <ele>78</ele>
        <time>2020-10-25T12:10:44.000Z</time>
      </trkpt>
      <trkpt lat="43.62489" lon="3.83644">
        <ele>78</ele>
        <time>2020-10-25T12:10:45.000Z</time>
      </trkpt>
      <trkpt lat="43.62491" lon="3.83641">
        <ele>78</ele>
        <time>2020-10-25T12:10:46.000Z</time>
      </trkpt>
      <trkpt lat="43.62493" lon="3.83637">
        <ele>78</ele>
        <time>2020-10-25T12:10:47.000Z</time>
      </trkpt>
      <trkpt lat="43.62495" lon="3.83633">
        <ele>78</ele>
        <time>2020-10-25T12:10:48.000Z</time>
      </trkpt>
      <trkpt lat="43.62496" lon="3.83629">
        <ele>78</ele>
        <time>2020-10-25T12:10:49.000Z</time>
      </trkpt>
      <trkpt lat="43.62498" lon="3.83625">
        <ele>78</ele>
        <time>2020-10-25T12:10:50.000Z</time>
      </trkpt>
      <trkpt lat="43.62499" lon="3.83621">
        <ele>78</ele>
        <time>2020-10-25T12:10:51.000Z</time>
      </trkpt>
      <trkpt lat="43.62501" lon="3.83618">
        <ele>78</ele>
        <time>2020-10-25T12:10:52.000Z</time>
      </trkpt>
      <trkpt lat="43.62503" lon="3.83614">
        <ele>78</ele>
        <time>2020-10-25T12:10:53.000Z</time>
      </trkpt>
      <trkpt lat="43.62505" lon="3.83612">
        <ele>78</ele>
        <time>2020-10-25T12:10:54.000Z</time>
      </trkpt>
      <trkpt lat="43.62508" lon="3.83609">
        <ele>78</ele>
        <time>2020-10-25T12:10:55.000Z</time>
      </trkpt>
      <trkpt lat="43.62511" lon="3.83607">
        <ele>78</ele>
        <time>2020-10-25T12:10:56.000Z</time>
      </trkpt>
      <trkpt lat="43.62513" lon="3.83606">
        <ele>78</ele>
        <time>2020-10-25T12:10:57.000Z</time>
      </trkpt>
      <trkpt lat="43.62516" lon="3.83605">
        <ele>78</ele>
        <time>2020-10-25T12:10:58.000Z</time>
      </trkpt>
      <trkpt lat="43.62519" lon="3.83604">
        <ele>78</ele>
        <time>2020-10-25T12:10:59.000Z</time>
      </trkpt>
      <trkpt lat="43.62521" lon="3.83605">
        <ele>78</ele>
        <time>2020-10-25T12:11:00.000Z</time>
      </trkpt>
      <trkpt lat="43.62524" lon="3.83605">
        <ele>78</ele>
        <time>2020-10-25T12:11:01.000Z</time>
      </trkpt>
      <trkpt lat="43.62526" lon="3.83607">
        <ele>78</ele>
        <time>2020-10-25T12:11:02.000Z</time>
      </trkpt>
      <trkpt lat="43.62528" lon="3.83609">
        <ele>78</ele>
        <time>2020-10-25T12:11:03.000Z</time>
      </trkpt>
      <trkpt lat="43.6253" lon="3.83611">
        <ele>78</ele>
        <time>2020-10-25T12:11:04.000Z</time>
      </trkpt>
      <trkpt lat="43.62533" lon="3.83613">
        <ele>78</ele>
        <time>2020-10-25T12:11:05.000Z</time>
      </trkpt>
      <trkpt lat="43.62535" lon="3.83616">
        <ele>78</ele>
        <time>2020-10-25T12:11:06.000Z</time>
      </trkpt>
      <trkpt lat="43.62539" lon="3.83618">
        <ele>78</ele>
        <time>2020-10-25T12:11:07.000Z</time>
      </trkpt>
      <trkpt lat="43.62542" lon="3.83621">
        <ele>77.988809444131</ele>
        <time>2020-10-25T12:11:08.000Z</time>
      </trkpt>
      <trkpt lat="43.62546" lon="3.83623">
        <ele>77.887080077451</ele>
        <time>2020-10-25T12:11:09.000Z</time>
      </trkpt>
      <trkpt lat="43.62549" lon="3.83623">
        <ele>77.785350710771</ele>
        <time>2020-10-25T12:11:10.000Z</time>
      </trkpt>
      <trkpt lat="43.62553" lon="3.83622">
        <ele>77.683621344091</ele>
        <time>2020-10-25T12:11:11.000Z</time>
      </trkpt>
      <trkpt lat="43.62556" lon="3.83621">
        <ele>77.581891977411</ele>
        <time>2020-10-25T12:11:12.000Z</time>
      </trkpt>
      <trkpt lat="43.6256" lon="3.8362">
        <ele>77.48016261073</ele>
        <time>2020-10-25T12:11:13.000Z</time>
      </trkpt>
      <trkpt lat="43.62563" lon="3.83618">
        <ele>77.37843324405</ele>
        <time>2020-10-25T12:11:14.000Z</time>
      </trkpt>
      <trkpt lat="43.62566" lon="3.83617">
        <ele>77.27670387737</ele>
        <time>2020-10-25T12:11:15.000Z</time>
      </trkpt>
      <trkpt lat="43.62569" lon="3.83616">
        <ele>77.17497451069</ele>
        <time>2020-10-25T12:11:16.000Z</time>
      </trkpt>
      <trkpt lat="43.62572" lon="3.83614">
        <ele>77.07324514401</ele>
        <time>2020-10-25T12:11:17.000Z</time>
      </trkpt>
      <trkpt lat="43.62575" lon="3.83612">
        <ele>77</ele>
        <time>2020-10-25T12:11:18.000Z</time>
      </trkpt>
      <trkpt lat="43.62576" lon="3.8361">
        <ele>77</ele>
        <time>2020-10-25T12:11:19.000Z</time>
      </trkpt>
      <trkpt lat="43.62577" lon="3.83607">
        <ele>77</ele>
        <time>2020-10-25T12:11:20.000Z</time>
      </trkpt>
      <trkpt lat="43.62577" lon="3.83603">
        <ele>77</ele>
        <time>2020-10-25T12:11:21.000Z</time>
      </trkpt>
      <trkpt lat="43.62576" lon="3.836">
        <ele>77</ele>
        <time>2020-10-25T12:11:22.000Z</time>
      </trkpt>
      <trkpt lat="43.62575" lon="3.83596">
        <ele>77</ele>
        <time>2020-10-25T12:11:23.000Z</time>
      </trkpt>
      <trkpt lat="43.62574" lon="3.83593">
        <ele>77</ele>
        <time>2020-10-25T12:11:24.000Z</time>
      </trkpt>
      <trkpt lat="43.62571" lon="3.83589">
        <ele>77</ele>
        <time>2020-10-25T12:11:25.000Z</time>
      </trkpt>
      <trkpt lat="43.62568" lon="3.83585">
        <ele>77</ele>
        <time>2020-10-25T12:11:26.000Z</time>
      </trkpt>
      <trkpt lat="43.62565" lon="3.83581">
        <ele>77</ele>
        <time>2020-10-25T12:11:27.000Z</time>
      </trkpt>
      <trkpt lat="43.62562" lon="3.83578">
        <ele>77</ele>
        <time>2020-10-25T12:11:28.000Z</time>
      </trkpt>
      <trkpt lat="43.62559" lon="3.83574">
        <ele>77</ele>
        <time>2020-10-25T12:11:29.000Z</time>
      </trkpt>
      <trkpt lat="43.62555" lon="3.8357">
        <ele>77</ele>
        <time>2020-10-25T12:11:30.000Z</time>
      </trkpt>
      <trkpt lat="43.62552" lon="3.83567">
        <ele>77</ele>
        <time>2020-10-25T12:11:31.000Z</time>
      </trkpt>
      <trkpt lat="43.62548" lon="3.83564">
        <ele>77</ele>
        <time>2020-10-25T12:11:32.000Z</time>
      </trkpt>
      <trkpt lat="43.62544" lon="3.83562">
        <ele>77</ele>
        <time>2020-10-25T12:11:33.000Z</time>
      </trkpt>
      <trkpt lat="43.62541" lon="3.83558">
        <ele>77</ele>
        <time>2020-10-25T12:11:34.000Z</time>
      </trkpt>
      <trkpt lat="43.62538" lon="3.83555">
        <ele>77</ele>
        <time>2020-10-25T12:11:35.000Z</time>
      </trkpt>
      <trkpt lat="43.62536" lon="3.83553">
        <ele>77</ele>
        <time>2020-10-25T12:11:36.000Z</time>
      </trkpt>
      <trkpt lat="43.62533" lon="3.83549">
        <ele>77</ele>
        <time>2020-10-25T12:11:37.000Z</time>
      </trkpt>
      <trkpt lat="43.62532" lon="3.83546">
        <ele>77</ele>
        <time>2020-10-25T12:11:38.000Z</time>
      </trkpt>
      <trkpt lat="43.62532" lon="3.83542">
        <ele>77</ele>
        <time>2020-10-25T12:11:39.000Z</time>
      </trkpt>
      <trkpt lat="43.62531" lon="3.83537">
        <ele>77</ele>
        <time>2020-10-25T12:11:40.000Z</time>
      </trkpt>
      <trkpt lat="43.62529" lon="3.83532">
        <ele>77</ele>
        <time>2020-10-25T12:11:41.000Z</time>
      </trkpt>
      <trkpt lat="43.62528" lon="3.83528">
        <ele>77</ele>
        <time>2020-10-25T12:11:42.000Z</time>
      </trkpt>
      <trkpt lat="43.62526" lon="3.83523">
        <ele>77</ele>
        <time>2020-10-25T12:11:43.000Z</time>
      </trkpt>
      <trkpt lat="43.62524" lon="3.83519">
        <ele>77</ele>
        <time>2020-10-25T12:11:44.000Z</time>
      </trkpt>
      <trkpt lat="43.62523" lon="3.83514">
        <ele>77</ele>
        <time>2020-10-25T12:11:45.000Z</time>
      </trkpt>
      <trkpt lat="43.62521" lon="3.83511">
        <ele>77</ele>
        <time>2020-10-25T12:11:46.000Z</time>
      </trkpt>
      <trkpt lat="43.62519" lon="3.83507">
        <ele>77</ele>
        <time>2020-10-25T12:11:47.000Z</time>
      </trkpt>
      <trkpt lat="43.62518" lon="3.83503">
        <ele>77</ele>
        <time>2020-10-25T12:11:48.000Z</time>
      </trkpt>
      <trkpt lat="43.62516" lon="3.83498">
        <ele>77</ele>
        <time>2020-10-25T12:11:49.000Z</time>
      </trkpt>
      <trkpt lat="43.62514" lon="3.83493">
        <ele>77</ele>
        <time>2020-10-25T12:11:50.000Z</time>
      </trkpt>
      <trkpt lat="43.62513" lon="3.83489">
        <ele>77</ele>
        <time>2020-10-25T12:11:51.000Z</time>
      </trkpt>
      <trkpt lat="43.62511" lon="3.83487">
        <ele>77</ele>
        <time>2020-10-25T12:11:52.000Z</time>
      </trkpt>
      <trkpt lat="43.62509" lon="3.83484">
        <ele>77</ele>
        <time>2020-10-25T12:11:53.000Z</time>
      </trkpt>
      <trkpt lat="43.62508" lon="3.8348">
        <ele>77</ele>
        <time>2020-10-25T12:11:54.000Z</time>
      </trkpt>
      <trkpt lat="43.62506" lon="3.83475">
        <ele>77</ele>
        <time>2020-10-25T12:11:55.000Z</time>
      </trkpt>
      <trkpt lat="43.62504" lon="3.8347">
        <ele>77</ele>
        <time>2020-10-25T12:11:56.000Z</time>
      </trkpt>
      <trkpt lat="43.62503" lon="3.83465">
        <ele>77</ele>
        <time>2020-10-25T12:11:57.000Z</time>
      </trkpt>
      <trkpt lat="43.62503" lon="3.83458">
        <ele>76.979797966738</ele>
        <time>2020-10-25T12:11:58.000Z</time>
      </trkpt>
      <trkpt lat="43.62504" lon="3.83452">
        <ele>76.878787800428</ele>
        <time>2020-10-25T12:11:59.000Z</time>
      </trkpt>
      <trkpt lat="43.62506" lon="3.83445">
        <ele>76.777777634119</ele>
        <time>2020-10-25T12:12:00.000Z</time>
      </trkpt>
      <trkpt lat="43.62508" lon="3.83439">
        <ele>76.676767467809</ele>
        <time>2020-10-25T12:12:01.000Z</time>
      </trkpt>
      <trkpt lat="43.62511" lon="3.83432">
        <ele>76.5757573015</ele>
        <time>2020-10-25T12:12:02.000Z</time>
      </trkpt>
      <trkpt lat="43.62512" lon="3.83426">
        <ele>76.47474713519</ele>
        <time>2020-10-25T12:12:03.000Z</time>
      </trkpt>
      <trkpt lat="43.62514" lon="3.83419">
        <ele>76.37373696888</ele>
        <time>2020-10-25T12:12:04.000Z</time>
      </trkpt>
      <trkpt lat="43.62515" lon="3.83412">
        <ele>76.272726802571</ele>
        <time>2020-10-25T12:12:05.000Z</time>
      </trkpt>
      <trkpt lat="43.62515" lon="3.83405">
        <ele>76.171716636261</ele>
        <time>2020-10-25T12:12:06.000Z</time>
      </trkpt>
      <trkpt lat="43.62516" lon="3.83399">
        <ele>76.070706469952</ele>
        <time>2020-10-25T12:12:07.000Z</time>
      </trkpt>
      <trkpt lat="43.62517" lon="3.83392">
        <ele>76.03000064</ele>
        <time>2020-10-25T12:12:08.000Z</time>
      </trkpt>
      <trkpt lat="43.62519" lon="3.83385">
        <ele>76.13000064</ele>
        <time>2020-10-25T12:12:09.000Z</time>
      </trkpt>
      <trkpt lat="43.62521" lon="3.83379">
        <ele>76.23000064</ele>
        <time>2020-10-25T12:12:10.000Z</time>
      </trkpt>
      <trkpt lat="43.62523" lon="3.83375">
        <ele>76.33000064</ele>
        <time>2020-10-25T12:12:11.000Z</time>
      </trkpt>
      <trkpt lat="43.62524" lon="3.8337">
        <ele>76.43000064</ele>
        <time>2020-10-25T12:12:12.000Z</time>
      </trkpt>
      <trkpt lat="43.62526" lon="3.83366">
        <ele>76.53000064</ele>
        <time>2020-10-25T12:12:13.000Z</time>
      </trkpt>
      <trkpt lat="43.62527" lon="3.83361">
        <ele>76.63000064</ele>
        <time>2020-10-25T12:12:14.000Z</time>
      </trkpt>
      <trkpt lat="43.62528" lon="3.83357">
        <ele>76.73000064</ele>
        <time>2020-10-25T12:12:15.000Z</time>
      </trkpt>
      <trkpt lat="43.6253" lon="3.83353">
        <ele>76.83000064</ele>
        <time>2020-10-25T12:12:16.000Z</time>
      </trkpt>
      <trkpt lat="43.62531" lon="3.83348">
        <ele>76.93000064</ele>
        <time>2020-10-25T12:12:17.000Z</time>
      </trkpt>
      <trkpt lat="43.62532" lon="3.83344">
        <ele>77.03000064</ele>
        <time>2020-10-25T12:12:18.000Z</time>
      </trkpt>
      <trkpt lat="43.62533" lon="3.83339">
        <ele>77.13000064</ele>
        <time>2020-10-25T12:12:19.000Z</time>
      </trkpt>
      <trkpt lat="43.62535" lon="3.83335">
        <ele>77.23000064</ele>
        <time>2020-10-25T12:12:20.000Z</time>
      </trkpt>
      <trkpt lat="43.62536" lon="3.8333">
        <ele>77.33000064</ele>
        <time>2020-10-25T12:12:21.000Z</time>
      </trkpt>
      <trkpt lat="43.62538" lon="3.83326">
        <ele>77.43000064</ele>
        <time>2020-10-25T12:12:22.000Z</time>
      </trkpt>
      <trkpt lat="43.62539" lon="3.83321">
        <ele>77.53000064</ele>
        <time>2020-10-25T12:12:23.000Z</time>
      </trkpt>
      <trkpt lat="43.62541" lon="3.83316">
        <ele>77.63000064</ele>
        <time>2020-10-25T12:12:24.000Z</time>
      </trkpt>
      <trkpt lat="43.62542" lon="3.83312">
        <ele>77.73000064</ele>
        <time>2020-10-25T12:12:25.000Z</time>
      </trkpt>
      <trkpt lat="43.62543" lon="3.83307">
        <ele>77.83000064</ele>
        <time>2020-10-25T12:12:26.000Z</time>
      </trkpt>
      <trkpt lat="43.62545" lon="3.83303">
        <ele>77.93000064</ele>
        <time>2020-10-25T12:12:27.000Z</time>
      </trkpt>
      <trkpt lat="43.62546" lon="3.83298">
        <ele>78.03000064</ele>
        <time>2020-10-25T12:12:28.000Z</time>
      </trkpt>
      <trkpt lat="43.62547" lon="3.83294">
        <ele>78.13000064</ele>
        <time>2020-10-25T12:12:29.000Z</time>
      </trkpt>
      <trkpt lat="43.62549" lon="3.83289">
        <ele>78.23000064</ele>
        <time>2020-10-25T12:12:30.000Z</time>
      </trkpt>
      <trkpt lat="43.6255" lon="3.83285">
        <ele>78.33000064</ele>
        <time>2020-10-25T12:12:31.000Z</time>
      </trkpt>
      <trkpt lat="43.62551" lon="3.83282">
        <ele>78.43000064</ele>
        <time>2020-10-25T12:12:32.000Z</time>
      </trkpt>
      <trkpt lat="43.62553" lon="3.83278">
        <ele>78.53000064</ele>
        <time>2020-10-25T12:12:33.000Z</time>
      </trkpt>
      <trkpt lat="43.62555" lon="3.83275">
        <ele>78.63000064</ele>
        <time>2020-10-25T12:12:34.000Z</time>
      </trkpt>
      <trkpt lat="43.62557" lon="3.83273">
        <ele>78.73000064</ele>
        <time>2020-10-25T12:12:35.000Z</time>
      </trkpt>
      <trkpt lat="43.6256" lon="3.83271">
        <ele>78.83000064</ele>
        <time>2020-10-25T12:12:36.000Z</time>
      </trkpt>
      <trkpt lat="43.62563" lon="3.83269">
        <ele>78.93000064</ele>
        <time>2020-10-25T12:12:37.000Z</time>
      </trkpt>
      <trkpt lat="43.62566" lon="3.83267">
        <ele>79.029940739359</ele>
        <time>2020-10-25T12:12:38.000Z</time>
      </trkpt>
      <trkpt lat="43.62569" lon="3.83264">
        <ele>79.129741074816</ele>
        <time>2020-10-25T12:12:39.000Z</time>
      </trkpt>
      <trkpt lat="43.62572" lon="3.83262">
        <ele>79.229541410273</ele>
        <time>2020-10-25T12:12:40.000Z</time>
      </trkpt>
      <trkpt lat="43.62575" lon="3.83259">
        <ele>79.32934174573</ele>
        <time>2020-10-25T12:12:41.000Z</time>
      </trkpt>
      <trkpt lat="43.62577" lon="3.83257">
        <ele>79.429142081187</ele>
        <time>2020-10-25T12:12:42.000Z</time>
      </trkpt>
      <trkpt lat="43.62579" lon="3.83254">
        <ele>79.528942416644</ele>
        <time>2020-10-25T12:12:43.000Z</time>
      </trkpt>
      <trkpt lat="43.6258" lon="3.83251">
        <ele>79.6287427521</ele>
        <time>2020-10-25T12:12:44.000Z</time>
      </trkpt>
      <trkpt lat="43.62581" lon="3.83247">
        <ele>79.728543087557</ele>
        <time>2020-10-25T12:12:45.000Z</time>
      </trkpt>
      <trkpt lat="43.62582" lon="3.83243">
        <ele>79.828343423014</ele>
        <time>2020-10-25T12:12:46.000Z</time>
      </trkpt>
      <trkpt lat="43.62584" lon="3.83239">
        <ele>79.928143758471</ele>
        <time>2020-10-25T12:12:47.000Z</time>
      </trkpt>
      <trkpt lat="43.62586" lon="3.83236">
        <ele>80.027210892816</ele>
        <time>2020-10-25T12:12:48.000Z</time>
      </trkpt>
      <trkpt lat="43.62589" lon="3.83233">
        <ele>80.124392652872</ele>
        <time>2020-10-25T12:12:49.000Z</time>
      </trkpt>
      <trkpt lat="43.62592" lon="3.8323">
        <ele>80.221574412929</ele>
        <time>2020-10-25T12:12:50.000Z</time>
      </trkpt>
      <trkpt lat="43.62596" lon="3.83229">
        <ele>80.318756172985</ele>
        <time>2020-10-25T12:12:51.000Z</time>
      </trkpt>
      <trkpt lat="43.62599" lon="3.83227">
        <ele>80.415937933042</ele>
        <time>2020-10-25T12:12:52.000Z</time>
      </trkpt>
      <trkpt lat="43.62601" lon="3.83225">
        <ele>80.513119693098</ele>
        <time>2020-10-25T12:12:53.000Z</time>
      </trkpt>
      <trkpt lat="43.62604" lon="3.83223">
        <ele>80.610301453155</ele>
        <time>2020-10-25T12:12:54.000Z</time>
      </trkpt>
      <trkpt lat="43.62607" lon="3.83221">
        <ele>80.707483213212</ele>
        <time>2020-10-25T12:12:55.000Z</time>
      </trkpt>
      <trkpt lat="43.62609" lon="3.83219">
        <ele>80.804664973268</ele>
        <time>2020-10-25T12:12:56.000Z</time>
      </trkpt>
      <trkpt lat="43.62612" lon="3.83217">
        <ele>80.901846733325</ele>
        <time>2020-10-25T12:12:57.000Z</time>
      </trkpt>
      <trkpt lat="43.62615" lon="3.83215">
        <ele>80.999028493381</ele>
        <time>2020-10-25T12:12:58.000Z</time>
      </trkpt>
      <trkpt lat="43.62617" lon="3.83213">
        <ele>81.203077512836</ele>
        <time>2020-10-25T12:12:59.000Z</time>
      </trkpt>
      <trkpt lat="43.6262" lon="3.83211">
        <ele>81.40820565064</ele>
        <time>2020-10-25T12:13:00.000Z</time>
      </trkpt>
      <trkpt lat="43.62622" lon="3.83208">
        <ele>81.613333788444</ele>
        <time>2020-10-25T12:13:01.000Z</time>
      </trkpt>
      <trkpt lat="43.62625" lon="3.83206">
        <ele>81.818461926248</ele>
        <time>2020-10-25T12:13:02.000Z</time>
      </trkpt>
      <trkpt lat="43.62628" lon="3.83204">
        <ele>82.023590064052</ele>
        <time>2020-10-25T12:13:03.000Z</time>
      </trkpt>
      <trkpt lat="43.6263" lon="3.83202">
        <ele>82.228718201857</ele>
        <time>2020-10-25T12:13:04.000Z</time>
      </trkpt>
      <trkpt lat="43.62633" lon="3.832">
        <ele>82.433846339661</ele>
        <time>2020-10-25T12:13:05.000Z</time>
      </trkpt>
      <trkpt lat="43.62636" lon="3.83198">
        <ele>82.638974477465</ele>
        <time>2020-10-25T12:13:06.000Z</time>
      </trkpt>
      <trkpt lat="43.62639" lon="3.83196">
        <ele>82.844102615269</ele>
        <time>2020-10-25T12:13:07.000Z</time>
      </trkpt>
      <trkpt lat="43.62642" lon="3.83194">
        <ele>83.024144884761</ele>
        <time>2020-10-25T12:13:08.000Z</time>
      </trkpt>
      <trkpt lat="43.62644" lon="3.83192">
        <ele>83.124748571267</ele>
        <time>2020-10-25T12:13:09.000Z</time>
      </trkpt>
      <trkpt lat="43.62647" lon="3.8319">
        <ele>83.225352257772</ele>
        <time>2020-10-25T12:13:10.000Z</time>
      </trkpt>
      <trkpt lat="43.6265" lon="3.83188">
        <ele>83.325955944277</ele>
        <time>2020-10-25T12:13:11.000Z</time>
      </trkpt>
      <trkpt lat="43.62652" lon="3.83186">
        <ele>83.426559630783</ele>
        <time>2020-10-25T12:13:12.000Z</time>
      </trkpt>
      <trkpt lat="43.62655" lon="3.83184">
        <ele>83.527163317288</ele>
        <time>2020-10-25T12:13:13.000Z</time>
      </trkpt>
      <trkpt lat="43.62658" lon="3.83182">
        <ele>83.627767003794</ele>
        <time>2020-10-25T12:13:14.000Z</time>
      </trkpt>
      <trkpt lat="43.6266" lon="3.8318">
        <ele>83.728370690299</ele>
        <time>2020-10-25T12:13:15.000Z</time>
      </trkpt>
      <trkpt lat="43.62663" lon="3.83179">
        <ele>83.828974376804</ele>
        <time>2020-10-25T12:13:16.000Z</time>
      </trkpt>
      <trkpt lat="43.62665" lon="3.83177">
        <ele>83.92957806331</ele>
        <time>2020-10-25T12:13:17.000Z</time>
      </trkpt>
      <trkpt lat="43.62668" lon="3.83175">
        <ele>84.029940739359</ele>
        <time>2020-10-25T12:13:18.000Z</time>
      </trkpt>
      <trkpt lat="43.6267" lon="3.83174">
        <ele>84.129741074816</ele>
        <time>2020-10-25T12:13:19.000Z</time>
      </trkpt>
      <trkpt lat="43.62673" lon="3.83172">
        <ele>84.229541410273</ele>
        <time>2020-10-25T12:13:20.000Z</time>
      </trkpt>
      <trkpt lat="43.62675" lon="3.83171">
        <ele>84.32934174573</ele>
        <time>2020-10-25T12:13:21.000Z</time>
      </trkpt>
      <trkpt lat="43.62677" lon="3.83169">
        <ele>84.429142081187</ele>
        <time>2020-10-25T12:13:22.000Z</time>
      </trkpt>
      <trkpt lat="43.62678" lon="3.83166">
        <ele>84.528942416644</ele>
        <time>2020-10-25T12:13:23.000Z</time>
      </trkpt>
      <trkpt lat="43.62678" lon="3.83163">
        <ele>84.6287427521</ele>
        <time>2020-10-25T12:13:24.000Z</time>
      </trkpt>
      <trkpt lat="43.62678" lon="3.83159">
        <ele>84.728543087557</ele>
        <time>2020-10-25T12:13:25.000Z</time>
      </trkpt>
      <trkpt lat="43.62679" lon="3.83156">
        <ele>84.828343423014</ele>
        <time>2020-10-25T12:13:26.000Z</time>
      </trkpt>
      <trkpt lat="43.62681" lon="3.83154">
        <ele>84.928143758471</ele>
        <time>2020-10-25T12:13:27.000Z</time>
      </trkpt>
      <trkpt lat="43.62682" lon="3.83152">
        <ele>85</ele>
        <time>2020-10-25T12:13:28.000Z</time>
      </trkpt>
      <trkpt lat="43.62684" lon="3.83151">
        <ele>85</ele>
        <time>2020-10-25T12:13:29.000Z</time>
      </trkpt>
      <trkpt lat="43.62686" lon="3.83151">
        <ele>85</ele>
        <time>2020-10-25T12:13:30.000Z</time>
      </trkpt>
      <trkpt lat="43.62688" lon="3.8315">
        <ele>85</ele>
        <time>2020-10-25T12:13:31.000Z</time>
      </trkpt>
      <trkpt lat="43.6269" lon="3.8315">
        <ele>85</ele>
        <time>2020-10-25T12:13:32.000Z</time>
      </trkpt>
      <trkpt lat="43.62693" lon="3.83148">
        <ele>85</ele>
        <time>2020-10-25T12:13:33.000Z</time>
      </trkpt>
      <trkpt lat="43.62695" lon="3.83147">
        <ele>85</ele>
        <time>2020-10-25T12:13:34.000Z</time>
      </trkpt>
      <trkpt lat="43.62697" lon="3.83146">
        <ele>85</ele>
        <time>2020-10-25T12:13:35.000Z</time>
      </trkpt>
      <trkpt lat="43.62699" lon="3.83144">
        <ele>85</ele>
        <time>2020-10-25T12:13:36.000Z</time>
      </trkpt>
      <trkpt lat="43.62702" lon="3.83143">
        <ele>85</ele>
        <time>2020-10-25T12:13:37.000Z</time>
      </trkpt>
      <trkpt lat="43.62704" lon="3.83141">
        <ele>85</ele>
        <time>2020-10-25T12:13:38.000Z</time>
      </trkpt>
      <trkpt lat="43.62706" lon="3.8314">
        <ele>85.098445960106</ele>
        <time>2020-10-25T12:13:39.000Z</time>
      </trkpt>
      <trkpt lat="43.62709" lon="3.83138">
        <ele>85.202072937475</ele>
        <time>2020-10-25T12:13:40.000Z</time>
      </trkpt>
      <trkpt lat="43.62711" lon="3.83137">
        <ele>85.305699914844</ele>
        <time>2020-10-25T12:13:41.000Z</time>
      </trkpt>
      <trkpt lat="43.62714" lon="3.83135">
        <ele>85.409326892212</ele>
        <time>2020-10-25T12:13:42.000Z</time>
      </trkpt>
      <trkpt lat="43.62716" lon="3.83133">
        <ele>85.512953869581</ele>
        <time>2020-10-25T12:13:43.000Z</time>
      </trkpt>
      <trkpt lat="43.62718" lon="3.83132">
        <ele>85.616580846949</ele>
        <time>2020-10-25T12:13:44.000Z</time>
      </trkpt>
      <trkpt lat="43.62721" lon="3.8313">
        <ele>85.720207824318</ele>
        <time>2020-10-25T12:13:45.000Z</time>
      </trkpt>
      <trkpt lat="43.62723" lon="3.83129">
        <ele>85.823834801686</ele>
        <time>2020-10-25T12:13:46.000Z</time>
      </trkpt>
      <trkpt lat="43.62726" lon="3.83129">
        <ele>85.927461779055</ele>
        <time>2020-10-25T12:13:47.000Z</time>
      </trkpt>
      <trkpt lat="43.62728" lon="3.8313">
        <ele>86.029940739359</ele>
        <time>2020-10-25T12:13:48.000Z</time>
      </trkpt>
      <trkpt lat="43.6273" lon="3.83131">
        <ele>86.129741074816</ele>
        <time>2020-10-25T12:13:49.000Z</time>
      </trkpt>
      <trkpt lat="43.62733" lon="3.8313">
        <ele>86.229541410273</ele>
        <time>2020-10-25T12:13:50.000Z</time>
      </trkpt>
      <trkpt lat="43.62735" lon="3.83129">
        <ele>86.32934174573</ele>
        <time>2020-10-25T12:13:51.000Z</time>
      </trkpt>
      <trkpt lat="43.62738" lon="3.83128">
        <ele>86.429142081187</ele>
        <time>2020-10-25T12:13:52.000Z</time>
      </trkpt>
      <trkpt lat="43.62741" lon="3.83126">
        <ele>86.528942416644</ele>
        <time>2020-10-25T12:13:53.000Z</time>
      </trkpt>
      <trkpt lat="43.62744" lon="3.83125">
        <ele>86.6287427521</ele>
        <time>2020-10-25T12:13:54.000Z</time>
      </trkpt>
      <trkpt lat="43.62747" lon="3.83124">
        <ele>86.728543087557</ele>
        <time>2020-10-25T12:13:55.000Z</time>
      </trkpt>
      <trkpt lat="43.6275" lon="3.83122">
        <ele>86.828343423014</ele>
        <time>2020-10-25T12:13:56.000Z</time>
      </trkpt>
      <trkpt lat="43.62754" lon="3.83121">
        <ele>86.928143758471</ele>
        <time>2020-10-25T12:13:57.000Z</time>
      </trkpt>
      <trkpt lat="43.62757" lon="3.8312">
        <ele>86.972</ele>
        <time>2020-10-25T12:13:58.000Z</time>
      </trkpt>
      <trkpt lat="43.62761" lon="3.83118">
        <ele>86.872</ele>
        <time>2020-10-25T12:13:59.000Z</time>
      </trkpt>
      <trkpt lat="43.62764" lon="3.83117">
        <ele>86.772</ele>
        <time>2020-10-25T12:14:00.000Z</time>
      </trkpt>
      <trkpt lat="43.62767" lon="3.83116">
        <ele>86.672</ele>
        <time>2020-10-25T12:14:01.000Z</time>
      </trkpt>
      <trkpt lat="43.62771" lon="3.83116">
        <ele>86.572</ele>
        <time>2020-10-25T12:14:02.000Z</time>
      </trkpt>
      <trkpt lat="43.62774" lon="3.83115">
        <ele>86.472</ele>
        <time>2020-10-25T12:14:03.000Z</time>
      </trkpt>
      <trkpt lat="43.62777" lon="3.83115">
        <ele>86.372</ele>
        <time>2020-10-25T12:14:04.000Z</time>
      </trkpt>
      <trkpt lat="43.6278" lon="3.83115">
        <ele>86.272</ele>
        <time>2020-10-25T12:14:05.000Z</time>
      </trkpt>
      <trkpt lat="43.62783" lon="3.83114">
        <ele>86.172</ele>
        <time>2020-10-25T12:14:06.000Z</time>
      </trkpt>
      <trkpt lat="43.62786" lon="3.83114">
        <ele>86.072</ele>
        <time>2020-10-25T12:14:07.000Z</time>
      </trkpt>
      <trkpt lat="43.62789" lon="3.83114">
        <ele>86</ele>
        <time>2020-10-25T12:14:08.000Z</time>
      </trkpt>
      <trkpt lat="43.62792" lon="3.83113">
        <ele>86</ele>
        <time>2020-10-25T12:14:09.000Z</time>
      </trkpt>
      <trkpt lat="43.62795" lon="3.83113">
        <ele>86</ele>
        <time>2020-10-25T12:14:10.000Z</time>
      </trkpt>
      <trkpt lat="43.62798" lon="3.83112">
        <ele>86</ele>
        <time>2020-10-25T12:14:11.000Z</time>
      </trkpt>
      <trkpt lat="43.62801" lon="3.83112">
        <ele>86</ele>
        <time>2020-10-25T12:14:12.000Z</time>
      </trkpt>
      <trkpt lat="43.62804" lon="3.83112">
        <ele>86</ele>
        <time>2020-10-25T12:14:13.000Z</time>
      </trkpt>
      <trkpt lat="43.62806" lon="3.83111">
        <ele>86</ele>
        <time>2020-10-25T12:14:14.000Z</time>
      </trkpt>
      <trkpt lat="43.62809" lon="3.83111">
        <ele>86</ele>
        <time>2020-10-25T12:14:15.000Z</time>
      </trkpt>
      <trkpt lat="43.62811" lon="3.8311">
        <ele>86</ele>
        <time>2020-10-25T12:14:16.000Z</time>
      </trkpt>
      <trkpt lat="43.62814" lon="3.8311">
        <ele>86</ele>
        <time>2020-10-25T12:14:17.000Z</time>
      </trkpt>
      <trkpt lat="43.62817" lon="3.8311">
        <ele>85.997943042559</ele>
        <time>2020-10-25T12:14:18.000Z</time>
      </trkpt>
      <trkpt lat="43.62821" lon="3.83109">
        <ele>85.895062248642</ele>
        <time>2020-10-25T12:14:19.000Z</time>
      </trkpt>
      <trkpt lat="43.62824" lon="3.83109">
        <ele>85.792181454725</ele>
        <time>2020-10-25T12:14:20.000Z</time>
      </trkpt>
      <trkpt lat="43.62828" lon="3.83108">
        <ele>85.689300660808</ele>
        <time>2020-10-25T12:14:21.000Z</time>
      </trkpt>
      <trkpt lat="43.62832" lon="3.83107">
        <ele>85.58641986689</ele>
        <time>2020-10-25T12:14:22.000Z</time>
      </trkpt>
      <trkpt lat="43.62836" lon="3.83103">
        <ele>85.483539072973</ele>
        <time>2020-10-25T12:14:23.000Z</time>
      </trkpt>
      <trkpt lat="43.62839" lon="3.83099">
        <ele>85.380658279056</ele>
        <time>2020-10-25T12:14:24.000Z</time>
      </trkpt>
      <trkpt lat="43.62842" lon="3.83093">
        <ele>85.277777485139</ele>
        <time>2020-10-25T12:14:25.000Z</time>
      </trkpt>
      <trkpt lat="43.62843" lon="3.83087">
        <ele>85.174896691222</ele>
        <time>2020-10-25T12:14:26.000Z</time>
      </trkpt>
      <trkpt lat="43.62844" lon="3.83081">
        <ele>85.072015897305</ele>
        <time>2020-10-25T12:14:27.000Z</time>
      </trkpt>
      <trkpt lat="43.62845" lon="3.83075">
        <ele>84.910356767673</ele>
        <time>2020-10-25T12:14:28.000Z</time>
      </trkpt>
      <trkpt lat="43.62847" lon="3.83069">
        <ele>84.611552367742</ele>
        <time>2020-10-25T12:14:29.000Z</time>
      </trkpt>
      <trkpt lat="43.62848" lon="3.83063">
        <ele>84.312747967811</ele>
        <time>2020-10-25T12:14:30.000Z</time>
      </trkpt>
      <trkpt lat="43.62846" lon="3.83055">
        <ele>84.013943567881</ele>
        <time>2020-10-25T12:14:31.000Z</time>
      </trkpt>
      <trkpt lat="43.62843" lon="3.83045">
        <ele>83.71513916795</ele>
        <time>2020-10-25T12:14:32.000Z</time>
      </trkpt>
      <trkpt lat="43.6284" lon="3.83035">
        <ele>83.416334768019</ele>
        <time>2020-10-25T12:14:33.000Z</time>
      </trkpt>
      <trkpt lat="43.62838" lon="3.83024">
        <ele>83.117530368089</ele>
        <time>2020-10-25T12:14:34.000Z</time>
      </trkpt>
      <trkpt lat="43.62837" lon="3.83011">
        <ele>82.818725968158</ele>
        <time>2020-10-25T12:14:35.000Z</time>
      </trkpt>
      <trkpt lat="43.62837" lon="3.82999">
        <ele>82.519921568228</ele>
        <time>2020-10-25T12:14:36.000Z</time>
      </trkpt>
      <trkpt lat="43.62837" lon="3.82988">
        <ele>82.221117168297</ele>
        <time>2020-10-25T12:14:37.000Z</time>
      </trkpt>
      <trkpt lat="43.62836" lon="3.82979">
        <ele>81.947792382705</ele>
        <time>2020-10-25T12:14:38.000Z</time>
      </trkpt>
      <trkpt lat="43.62835" lon="3.8297">
        <ele>81.746988911793</ele>
        <time>2020-10-25T12:14:39.000Z</time>
      </trkpt>
      <trkpt lat="43.62834" lon="3.82961">
        <ele>81.546185440881</ele>
        <time>2020-10-25T12:14:40.000Z</time>
      </trkpt>
      <trkpt lat="43.62833" lon="3.82953">
        <ele>81.345381969969</ele>
        <time>2020-10-25T12:14:41.000Z</time>
      </trkpt>
      <trkpt lat="43.62834" lon="3.82945">
        <ele>81.144578499057</ele>
        <time>2020-10-25T12:14:42.000Z</time>
      </trkpt>
      <trkpt lat="43.62834" lon="3.82939">
        <ele>80.943775028145</ele>
        <time>2020-10-25T12:14:43.000Z</time>
      </trkpt>
      <trkpt lat="43.62834" lon="3.82934">
        <ele>80.742971557232</ele>
        <time>2020-10-25T12:14:44.000Z</time>
      </trkpt>
      <trkpt lat="43.62834" lon="3.8293">
        <ele>80.54216808632</ele>
        <time>2020-10-25T12:14:45.000Z</time>
      </trkpt>
      <trkpt lat="43.62835" lon="3.82924">
        <ele>80.341364615408</ele>
        <time>2020-10-25T12:14:46.000Z</time>
      </trkpt>
      <trkpt lat="43.62836" lon="3.82919">
        <ele>80.140561144496</ele>
        <time>2020-10-25T12:14:47.000Z</time>
      </trkpt>
      <trkpt lat="43.62837" lon="3.82913">
        <ele>79.90999808</ele>
        <time>2020-10-25T12:14:48.000Z</time>
      </trkpt>
      <trkpt lat="43.62838" lon="3.82907">
        <ele>79.60999808</ele>
        <time>2020-10-25T12:14:49.000Z</time>
      </trkpt>
      <trkpt lat="43.62838" lon="3.82903">
        <ele>79.30999808</ele>
        <time>2020-10-25T12:14:50.000Z</time>
      </trkpt>
      <trkpt lat="43.62839" lon="3.82899">
        <ele>79.00999808</ele>
        <time>2020-10-25T12:14:51.000Z</time>
      </trkpt>
      <trkpt lat="43.62839" lon="3.82896">
        <ele>78.70999808</ele>
        <time>2020-10-25T12:14:52.000Z</time>
      </trkpt>
      <trkpt lat="43.6284" lon="3.82892">
        <ele>78.40999808</ele>
        <time>2020-10-25T12:14:53.000Z</time>
      </trkpt>
      <trkpt lat="43.62841" lon="3.82888">
        <ele>78.10999808</ele>
        <time>2020-10-25T12:14:54.000Z</time>
      </trkpt>
      <trkpt lat="43.62841" lon="3.82884">
        <ele>77.80999808</ele>
        <time>2020-10-25T12:14:55.000Z</time>
      </trkpt>
      <trkpt lat="43.62842" lon="3.82879">
        <ele>77.50999808</ele>
        <time>2020-10-25T12:14:56.000Z</time>
      </trkpt>
      <trkpt lat="43.62843" lon="3.82875">
        <ele>77.20999808</ele>
        <time>2020-10-25T12:14:57.000Z</time>
      </trkpt>
      <trkpt lat="43.62844" lon="3.82871">
        <ele>76.93999872</ele>
        <time>2020-10-25T12:14:58.000Z</time>
      </trkpt>
      <trkpt lat="43.62845" lon="3.82867">
        <ele>76.73999872</ele>
        <time>2020-10-25T12:14:59.000Z</time>
      </trkpt>
      <trkpt lat="43.62845" lon="3.82864">
        <ele>76.33999872</ele>
        <time>2020-10-25T12:15:01.000Z</time>
      </trkpt>
      <trkpt lat="43.62846" lon="3.82861">
        <ele>75.93999872</ele>
        <time>2020-10-25T12:15:03.000Z</time>
      </trkpt>
      <trkpt lat="43.62848" lon="3.82861">
        <ele>75.73999872</ele>
        <time>2020-10-25T12:15:04.000Z</time>
      </trkpt>
      <trkpt lat="43.62851" lon="3.82861">
        <ele>75.53999872</ele>
        <time>2020-10-25T12:15:05.000Z</time>
      </trkpt>
      <trkpt lat="43.62855" lon="3.82862">
        <ele>75.33999872</ele>
        <time>2020-10-25T12:15:06.000Z</time>
      </trkpt>
      <trkpt lat="43.62859" lon="3.82862">
        <ele>75.13999872</ele>
        <time>2020-10-25T12:15:07.000Z</time>
      </trkpt>
      <trkpt lat="43.62863" lon="3.82863">
        <ele>74.93999872</ele>
        <time>2020-10-25T12:15:08.000Z</time>
      </trkpt>
      <trkpt lat="43.62867" lon="3.82863">
        <ele>74.73999872</ele>
        <time>2020-10-25T12:15:09.000Z</time>
      </trkpt>
      <trkpt lat="43.62872" lon="3.82863">
        <ele>74.53999872</ele>
        <time>2020-10-25T12:15:10.000Z</time>
      </trkpt>
      <trkpt lat="43.62876" lon="3.82863">
        <ele>74.33999872</ele>
        <time>2020-10-25T12:15:11.000Z</time>
      </trkpt>
      <trkpt lat="43.62879" lon="3.82863">
        <ele>74.13999872</ele>
        <time>2020-10-25T12:15:12.000Z</time>
      </trkpt>
      <trkpt lat="43.62883" lon="3.82863">
        <ele>73.93999872</ele>
        <time>2020-10-25T12:15:13.000Z</time>
      </trkpt>
      <trkpt lat="43.62887" lon="3.82863">
        <ele>73.73999872</ele>
        <time>2020-10-25T12:15:14.000Z</time>
      </trkpt>
      <trkpt lat="43.62891" lon="3.82863">
        <ele>73.53999872</ele>
        <time>2020-10-25T12:15:15.000Z</time>
      </trkpt>
      <trkpt lat="43.62895" lon="3.82864">
        <ele>73.33999872</ele>
        <time>2020-10-25T12:15:16.000Z</time>
      </trkpt>
      <trkpt lat="43.62899" lon="3.82864">
        <ele>73.13999872</ele>
        <time>2020-10-25T12:15:17.000Z</time>
      </trkpt>
      <trkpt lat="43.62904" lon="3.82864">
        <ele>73</ele>
        <time>2020-10-25T12:15:18.000Z</time>
      </trkpt>
      <trkpt lat="43.62909" lon="3.82864">
        <ele>73</ele>
        <time>2020-10-25T12:15:19.000Z</time>
      </trkpt>
      <trkpt lat="43.62914" lon="3.82864">
        <ele>73</ele>
        <time>2020-10-25T12:15:20.000Z</time>
      </trkpt>
      <trkpt lat="43.62919" lon="3.82864">
        <ele>73</ele>
        <time>2020-10-25T12:15:21.000Z</time>
      </trkpt>
      <trkpt lat="43.62924" lon="3.82865">
        <ele>73</ele>
        <time>2020-10-25T12:15:22.000Z</time>
      </trkpt>
      <trkpt lat="43.62929" lon="3.82865">
        <ele>73</ele>
        <time>2020-10-25T12:15:23.000Z</time>
      </trkpt>
      <trkpt lat="43.62934" lon="3.82865">
        <ele>73</ele>
        <time>2020-10-25T12:15:24.000Z</time>
      </trkpt>
      <trkpt lat="43.62938" lon="3.82865">
        <ele>73</ele>
        <time>2020-10-25T12:15:25.000Z</time>
      </trkpt>
      <trkpt lat="43.62943" lon="3.82865">
        <ele>73</ele>
        <time>2020-10-25T12:15:26.000Z</time>
      </trkpt>
      <trkpt lat="43.62947" lon="3.82866">
        <ele>73</ele>
        <time>2020-10-25T12:15:27.000Z</time>
      </trkpt>
      <trkpt lat="43.62952" lon="3.82866">
        <ele>73</ele>
        <time>2020-10-25T12:15:28.000Z</time>
      </trkpt>
      <trkpt lat="43.62957" lon="3.82866">
        <ele>73</ele>
        <time>2020-10-25T12:15:29.000Z</time>
      </trkpt>
      <trkpt lat="43.62961" lon="3.82866">
        <ele>73</ele>
        <time>2020-10-25T12:15:30.000Z</time>
      </trkpt>
      <trkpt lat="43.62966" lon="3.82866">
        <ele>73</ele>
        <time>2020-10-25T12:15:31.000Z</time>
      </trkpt>
      <trkpt lat="43.6297" lon="3.82867">
        <ele>73</ele>
        <time>2020-10-25T12:15:32.000Z</time>
      </trkpt>
      <trkpt lat="43.62974" lon="3.82867">
        <ele>73</ele>
        <time>2020-10-25T12:15:33.000Z</time>
      </trkpt>
      <trkpt lat="43.62979" lon="3.82867">
        <ele>73</ele>
        <time>2020-10-25T12:15:34.000Z</time>
      </trkpt>
      <trkpt lat="43.62983" lon="3.82867">
        <ele>73</ele>
        <time>2020-10-25T12:15:35.000Z</time>
      </trkpt>
      <trkpt lat="43.62988" lon="3.82867">
        <ele>73</ele>
        <time>2020-10-25T12:15:36.000Z</time>
      </trkpt>
      <trkpt lat="43.62992" lon="3.82868">
        <ele>73</ele>
        <time>2020-10-25T12:15:37.000Z</time>
      </trkpt>
      <trkpt lat="43.62997" lon="3.82869">
        <ele>73</ele>
        <time>2020-10-25T12:15:38.000Z</time>
      </trkpt>
      <trkpt lat="43.63001" lon="3.8287">
        <ele>73</ele>
        <time>2020-10-25T12:15:39.000Z</time>
      </trkpt>
      <trkpt lat="43.63005" lon="3.82871">
        <ele>73</ele>
        <time>2020-10-25T12:15:40.000Z</time>
      </trkpt>
      <trkpt lat="43.63009" lon="3.82872">
        <ele>73</ele>
        <time>2020-10-25T12:15:41.000Z</time>
      </trkpt>
      <trkpt lat="43.63013" lon="3.82872">
        <ele>73</ele>
        <time>2020-10-25T12:15:42.000Z</time>
      </trkpt>
      <trkpt lat="43.63017" lon="3.82873">
        <ele>73</ele>
        <time>2020-10-25T12:15:43.000Z</time>
      </trkpt>
      <trkpt lat="43.63022" lon="3.82874">
        <ele>73</ele>
        <time>2020-10-25T12:15:44.000Z</time>
      </trkpt>
      <trkpt lat="43.63026" lon="3.82875">
        <ele>73</ele>
        <time>2020-10-25T12:15:45.000Z</time>
      </trkpt>
      <trkpt lat="43.6303" lon="3.82875">
        <ele>73</ele>
        <time>2020-10-25T12:15:46.000Z</time>
      </trkpt>
      <trkpt lat="43.63034" lon="3.82875">
        <ele>73</ele>
        <time>2020-10-25T12:15:47.000Z</time>
      </trkpt>
      <trkpt lat="43.63038" lon="3.82875">
        <ele>73</ele>
        <time>2020-10-25T12:15:48.000Z</time>
      </trkpt>
      <trkpt lat="43.63042" lon="3.82875">
        <ele>73</ele>
        <time>2020-10-25T12:15:49.000Z</time>
      </trkpt>
      <trkpt lat="43.63046" lon="3.82875">
        <ele>73</ele>
        <time>2020-10-25T12:15:50.000Z</time>
      </trkpt>
      <trkpt lat="43.6305" lon="3.82874">
        <ele>73</ele>
        <time>2020-10-25T12:15:51.000Z</time>
      </trkpt>
      <trkpt lat="43.63054" lon="3.82875">
        <ele>73</ele>
        <time>2020-10-25T12:15:52.000Z</time>
      </trkpt>
      <trkpt lat="43.63058" lon="3.82876">
        <ele>73</ele>
        <time>2020-10-25T12:15:53.000Z</time>
      </trkpt>
      <trkpt lat="43.6306" lon="3.82878">
        <ele>73</ele>
        <time>2020-10-25T12:15:54.000Z</time>
      </trkpt>
      <trkpt lat="43.63063" lon="3.82881">
        <ele>73</ele>
        <time>2020-10-25T12:15:55.000Z</time>
      </trkpt>
      <trkpt lat="43.63065" lon="3.82884">
        <ele>73</ele>
        <time>2020-10-25T12:15:56.000Z</time>
      </trkpt>
      <trkpt lat="43.63067" lon="3.82886">
        <ele>73</ele>
        <time>2020-10-25T12:15:57.000Z</time>
      </trkpt>
      <trkpt lat="43.63069" lon="3.82887">
        <ele>73.027586198199</ele>
        <time>2020-10-25T12:15:58.000Z</time>
      </trkpt>
      <trkpt lat="43.63071" lon="3.82886">
        <ele>73.126108334626</ele>
        <time>2020-10-25T12:15:59.000Z</time>
      </trkpt>
      <trkpt lat="43.63074" lon="3.82884">
        <ele>73.224630471053</ele>
        <time>2020-10-25T12:16:00.000Z</time>
      </trkpt>
      <trkpt lat="43.63076" lon="3.82882">
        <ele>73.323152607479</ele>
        <time>2020-10-25T12:16:01.000Z</time>
      </trkpt>
      <trkpt lat="43.63079" lon="3.82879">
        <ele>73.421674743905</ele>
        <time>2020-10-25T12:16:02.000Z</time>
      </trkpt>
      <trkpt lat="43.63081" lon="3.82877">
        <ele>73.520196880332</ele>
        <time>2020-10-25T12:16:03.000Z</time>
      </trkpt>
      <trkpt lat="43.63084" lon="3.82875">
        <ele>73.618719016759</ele>
        <time>2020-10-25T12:16:04.000Z</time>
      </trkpt>
      <trkpt lat="43.63087" lon="3.82872">
        <ele>73.717241153185</ele>
        <time>2020-10-25T12:16:05.000Z</time>
      </trkpt>
      <trkpt lat="43.6309" lon="3.82869">
        <ele>73.815763289612</ele>
        <time>2020-10-25T12:16:06.000Z</time>
      </trkpt>
      <trkpt lat="43.63093" lon="3.82867">
        <ele>73.914285426038</ele>
        <time>2020-10-25T12:16:07.000Z</time>
      </trkpt>
      <trkpt lat="43.63096" lon="3.82864">
        <ele>74</ele>
        <time>2020-10-25T12:16:08.000Z</time>
      </trkpt>
      <trkpt lat="43.63098" lon="3.82862">
        <ele>74</ele>
        <time>2020-10-25T12:16:09.000Z</time>
      </trkpt>
      <trkpt lat="43.63101" lon="3.82859">
        <ele>74</ele>
        <time>2020-10-25T12:16:10.000Z</time>
      </trkpt>
      <trkpt lat="43.63104" lon="3.82857">
        <ele>74</ele>
        <time>2020-10-25T12:16:11.000Z</time>
      </trkpt>
      <trkpt lat="43.63106" lon="3.82854">
        <ele>74</ele>
        <time>2020-10-25T12:16:12.000Z</time>
      </trkpt>
      <trkpt lat="43.63109" lon="3.82852">
        <ele>74</ele>
        <time>2020-10-25T12:16:13.000Z</time>
      </trkpt>
      <trkpt lat="43.63111" lon="3.8285">
        <ele>74</ele>
        <time>2020-10-25T12:16:14.000Z</time>
      </trkpt>
      <trkpt lat="43.63113" lon="3.82848">
        <ele>74</ele>
        <time>2020-10-25T12:16:15.000Z</time>
      </trkpt>
      <trkpt lat="43.63116" lon="3.82847">
        <ele>74</ele>
        <time>2020-10-25T12:16:16.000Z</time>
      </trkpt>
      <trkpt lat="43.63118" lon="3.82848">
        <ele>74</ele>
        <time>2020-10-25T12:16:17.000Z</time>
      </trkpt>
      <trkpt lat="43.6312" lon="3.82851">
        <ele>74</ele>
        <time>2020-10-25T12:16:18.000Z</time>
      </trkpt>
      <trkpt lat="43.63121" lon="3.82853">
        <ele>74</ele>
        <time>2020-10-25T12:16:19.000Z</time>
      </trkpt>
      <trkpt lat="43.63122" lon="3.82856">
        <ele>74</ele>
        <time>2020-10-25T12:16:20.000Z</time>
      </trkpt>
      <trkpt lat="43.63123" lon="3.82859">
        <ele>74</ele>
        <time>2020-10-25T12:16:21.000Z</time>
      </trkpt>
      <trkpt lat="43.63124" lon="3.82862">
        <ele>74</ele>
        <time>2020-10-25T12:16:22.000Z</time>
      </trkpt>
      <trkpt lat="43.63125" lon="3.82865">
        <ele>74</ele>
        <time>2020-10-25T12:16:23.000Z</time>
      </trkpt>
      <trkpt lat="43.63126" lon="3.82868">
        <ele>74</ele>
        <time>2020-10-25T12:16:24.000Z</time>
      </trkpt>
      <trkpt lat="43.63127" lon="3.8287">
        <ele>74</ele>
        <time>2020-10-25T12:16:25.000Z</time>
      </trkpt>
      <trkpt lat="43.63128" lon="3.82873">
        <ele>74</ele>
        <time>2020-10-25T12:16:26.000Z</time>
      </trkpt>
      <trkpt lat="43.6313" lon="3.82875">
        <ele>74</ele>
        <time>2020-10-25T12:16:27.000Z</time>
      </trkpt>
      <trkpt lat="43.63131" lon="3.82878">
        <ele>74.03000064</ele>
        <time>2020-10-25T12:16:28.000Z</time>
      </trkpt>
      <trkpt lat="43.63133" lon="3.82881">
        <ele>74.13000064</ele>
        <time>2020-10-25T12:16:29.000Z</time>
      </trkpt>
      <trkpt lat="43.63134" lon="3.82884">
        <ele>74.23000064</ele>
        <time>2020-10-25T12:16:30.000Z</time>
      </trkpt>
      <trkpt lat="43.63136" lon="3.82886">
        <ele>74.33000064</ele>
        <time>2020-10-25T12:16:31.000Z</time>
      </trkpt>
      <trkpt lat="43.63138" lon="3.82889">
        <ele>74.43000064</ele>
        <time>2020-10-25T12:16:32.000Z</time>
      </trkpt>
      <trkpt lat="43.6314" lon="3.82892">
        <ele>74.53000064</ele>
        <time>2020-10-25T12:16:33.000Z</time>
      </trkpt>
      <trkpt lat="43.63142" lon="3.82895">
        <ele>74.63000064</ele>
        <time>2020-10-25T12:16:34.000Z</time>
      </trkpt>
      <trkpt lat="43.63143" lon="3.82898">
        <ele>74.73000064</ele>
        <time>2020-10-25T12:16:35.000Z</time>
      </trkpt>
      <trkpt lat="43.63145" lon="3.82901">
        <ele>74.83000064</ele>
        <time>2020-10-25T12:16:36.000Z</time>
      </trkpt>
      <trkpt lat="43.63146" lon="3.82904">
        <ele>74.93000064</ele>
        <time>2020-10-25T12:16:37.000Z</time>
      </trkpt>
      <trkpt lat="43.63148" lon="3.82906">
        <ele>75</ele>
        <time>2020-10-25T12:16:38.000Z</time>
      </trkpt>
      <trkpt lat="43.63149" lon="3.82909">
        <ele>75</ele>
        <time>2020-10-25T12:16:39.000Z</time>
      </trkpt>
      <trkpt lat="43.63151" lon="3.82912">
        <ele>75</ele>
        <time>2020-10-25T12:16:40.000Z</time>
      </trkpt>
      <trkpt lat="43.63152" lon="3.82915">
        <ele>75</ele>
        <time>2020-10-25T12:16:41.000Z</time>
      </trkpt>
      <trkpt lat="43.63154" lon="3.82918">
        <ele>75</ele>
        <time>2020-10-25T12:16:42.000Z</time>
      </trkpt>
      <trkpt lat="43.63155" lon="3.82921">
        <ele>75</ele>
        <time>2020-10-25T12:16:43.000Z</time>
      </trkpt>
      <trkpt lat="43.63156" lon="3.82925">
        <ele>75</ele>
        <time>2020-10-25T12:16:44.000Z</time>
      </trkpt>
      <trkpt lat="43.63157" lon="3.82928">
        <ele>75</ele>
        <time>2020-10-25T12:16:45.000Z</time>
      </trkpt>
      <trkpt lat="43.63158" lon="3.82931">
        <ele>75</ele>
        <time>2020-10-25T12:16:46.000Z</time>
      </trkpt>
      <trkpt lat="43.63159" lon="3.82934">
        <ele>75</ele>
        <time>2020-10-25T12:16:47.000Z</time>
      </trkpt>
      <trkpt lat="43.6316" lon="3.82937">
        <ele>75.03000064</ele>
        <time>2020-10-25T12:16:48.000Z</time>
      </trkpt>
      <trkpt lat="43.63161" lon="3.8294">
        <ele>75.13000064</ele>
        <time>2020-10-25T12:16:49.000Z</time>
      </trkpt>
      <trkpt lat="43.63162" lon="3.82944">
        <ele>75.23000064</ele>
        <time>2020-10-25T12:16:50.000Z</time>
      </trkpt>
      <trkpt lat="43.63163" lon="3.82947">
        <ele>75.33000064</ele>
        <time>2020-10-25T12:16:51.000Z</time>
      </trkpt>
      <trkpt lat="43.63165" lon="3.82951">
        <ele>75.43000064</ele>
        <time>2020-10-25T12:16:52.000Z</time>
      </trkpt>
      <trkpt lat="43.63166" lon="3.82954">
        <ele>75.53000064</ele>
        <time>2020-10-25T12:16:53.000Z</time>
      </trkpt>
      <trkpt lat="43.63168" lon="3.82957">
        <ele>75.63000064</ele>
        <time>2020-10-25T12:16:54.000Z</time>
      </trkpt>
      <trkpt lat="43.63169" lon="3.8296">
        <ele>75.73000064</ele>
        <time>2020-10-25T12:16:55.000Z</time>
      </trkpt>
      <trkpt lat="43.6317" lon="3.82963">
        <ele>75.83000064</ele>
        <time>2020-10-25T12:16:56.000Z</time>
      </trkpt>
      <trkpt lat="43.63172" lon="3.82966">
        <ele>75.93000064</ele>
        <time>2020-10-25T12:16:57.000Z</time>
      </trkpt>
      <trkpt lat="43.63173" lon="3.82969">
        <ele>76</ele>
        <time>2020-10-25T12:16:58.000Z</time>
      </trkpt>
      <trkpt lat="43.63174" lon="3.82971">
        <ele>76</ele>
        <time>2020-10-25T12:16:59.000Z</time>
      </trkpt>
      <trkpt lat="43.63175" lon="3.82973">
        <ele>76</ele>
        <time>2020-10-25T12:17:00.000Z</time>
      </trkpt>
      <trkpt lat="43.63177" lon="3.82974">
        <ele>76</ele>
        <time>2020-10-25T12:17:01.000Z</time>
      </trkpt>
      <trkpt lat="43.63178" lon="3.82974">
        <ele>76</ele>
        <time>2020-10-25T12:17:02.000Z</time>
      </trkpt>
      <trkpt lat="43.6318" lon="3.82973">
        <ele>76</ele>
        <time>2020-10-25T12:17:03.000Z</time>
      </trkpt>
      <trkpt lat="43.63183" lon="3.82971">
        <ele>76</ele>
        <time>2020-10-25T12:17:04.000Z</time>
      </trkpt>
      <trkpt lat="43.63185" lon="3.82969">
        <ele>76</ele>
        <time>2020-10-25T12:17:05.000Z</time>
      </trkpt>
      <trkpt lat="43.63187" lon="3.82967">
        <ele>76</ele>
        <time>2020-10-25T12:17:06.000Z</time>
      </trkpt>
      <trkpt lat="43.63189" lon="3.82966">
        <ele>76</ele>
        <time>2020-10-25T12:17:07.000Z</time>
      </trkpt>
      <trkpt lat="43.63192" lon="3.82964">
        <ele>76</ele>
        <time>2020-10-25T12:17:08.000Z</time>
      </trkpt>
      <trkpt lat="43.63194" lon="3.82962">
        <ele>76</ele>
        <time>2020-10-25T12:17:09.000Z</time>
      </trkpt>
      <trkpt lat="43.63196" lon="3.8296">
        <ele>76</ele>
        <time>2020-10-25T12:17:10.000Z</time>
      </trkpt>
      <trkpt lat="43.63199" lon="3.82959">
        <ele>76</ele>
        <time>2020-10-25T12:17:11.000Z</time>
      </trkpt>
      <trkpt lat="43.63201" lon="3.82957">
        <ele>76</ele>
        <time>2020-10-25T12:17:12.000Z</time>
      </trkpt>
      <trkpt lat="43.63203" lon="3.82955">
        <ele>76</ele>
        <time>2020-10-25T12:17:13.000Z</time>
      </trkpt>
      <trkpt lat="43.63206" lon="3.82954">
        <ele>76</ele>
        <time>2020-10-25T12:17:14.000Z</time>
      </trkpt>
      <trkpt lat="43.63208" lon="3.82952">
        <ele>76</ele>
        <time>2020-10-25T12:17:15.000Z</time>
      </trkpt>
      <trkpt lat="43.6321" lon="3.8295">
        <ele>76</ele>
        <time>2020-10-25T12:17:16.000Z</time>
      </trkpt>
      <trkpt lat="43.6321" lon="3.82947">
        <ele>76</ele>
        <time>2020-10-25T12:17:17.000Z</time>
      </trkpt>
      <trkpt lat="43.6321" lon="3.82944">
        <ele>76.029126816853</ele>
        <time>2020-10-25T12:17:18.000Z</time>
      </trkpt>
      <trkpt lat="43.63209" lon="3.8294">
        <ele>76.126214135168</ele>
        <time>2020-10-25T12:17:19.000Z</time>
      </trkpt>
      <trkpt lat="43.63208" lon="3.82936">
        <ele>76.223301453483</ele>
        <time>2020-10-25T12:17:20.000Z</time>
      </trkpt>
      <trkpt lat="43.63207" lon="3.82933">
        <ele>76.320388771797</ele>
        <time>2020-10-25T12:17:21.000Z</time>
      </trkpt>
      <trkpt lat="43.63206" lon="3.82929">
        <ele>76.417476090112</ele>
        <time>2020-10-25T12:17:22.000Z</time>
      </trkpt>
      <trkpt lat="43.63205" lon="3.82926">
        <ele>76.514563408427</ele>
        <time>2020-10-25T12:17:23.000Z</time>
      </trkpt>
      <trkpt lat="43.63204" lon="3.82923">
        <ele>76.611650726741</ele>
        <time>2020-10-25T12:17:24.000Z</time>
      </trkpt>
      <trkpt lat="43.63203" lon="3.82921">
        <ele>76.708738045056</ele>
        <time>2020-10-25T12:17:25.000Z</time>
      </trkpt>
      <trkpt lat="43.63202" lon="3.82918">
        <ele>76.805825363371</ele>
        <time>2020-10-25T12:17:26.000Z</time>
      </trkpt>
      <trkpt lat="43.632" lon="3.82914">
        <ele>76.902912681685</ele>
        <time>2020-10-25T12:17:27.000Z</time>
      </trkpt>
      <trkpt lat="43.63199" lon="3.82911">
        <ele>77</ele>
        <time>2020-10-25T12:17:28.000Z</time>
      </trkpt>
      <trkpt lat="43.63198" lon="3.82908">
        <ele>77.100401606426</ele>
        <time>2020-10-25T12:17:29.000Z</time>
      </trkpt>
      <trkpt lat="43.63197" lon="3.82905">
        <ele>77.200803212851</ele>
        <time>2020-10-25T12:17:30.000Z</time>
      </trkpt>
      <trkpt lat="43.63196" lon="3.82902">
        <ele>77.301204819277</ele>
        <time>2020-10-25T12:17:31.000Z</time>
      </trkpt>
      <trkpt lat="43.63195" lon="3.82899">
        <ele>77.401606425703</ele>
        <time>2020-10-25T12:17:32.000Z</time>
      </trkpt>
      <trkpt lat="43.63195" lon="3.82896">
        <ele>77.502008032129</ele>
        <time>2020-10-25T12:17:33.000Z</time>
      </trkpt>
      <trkpt lat="43.63194" lon="3.82893">
        <ele>77.602409638554</ele>
        <time>2020-10-25T12:17:34.000Z</time>
      </trkpt>
      <trkpt lat="43.63193" lon="3.82889">
        <ele>77.70281124498</ele>
        <time>2020-10-25T12:17:35.000Z</time>
      </trkpt>
      <trkpt lat="43.63192" lon="3.82886">
        <ele>77.803212851406</ele>
        <time>2020-10-25T12:17:36.000Z</time>
      </trkpt>
      <trkpt lat="43.63192" lon="3.82882">
        <ele>77.903614457831</ele>
        <time>2020-10-25T12:17:37.000Z</time>
      </trkpt>
      <trkpt lat="43.63191" lon="3.82879">
        <ele>78.004048582996</ele>
        <time>2020-10-25T12:17:38.000Z</time>
      </trkpt>
      <trkpt lat="43.63191" lon="3.82875">
        <ele>78.105263157895</ele>
        <time>2020-10-25T12:17:39.000Z</time>
      </trkpt>
      <trkpt lat="43.6319" lon="3.82872">
        <ele>78.206477732794</ele>
        <time>2020-10-25T12:17:40.000Z</time>
      </trkpt>
      <trkpt lat="43.63189" lon="3.82869">
        <ele>78.307692307692</ele>
        <time>2020-10-25T12:17:41.000Z</time>
      </trkpt>
      <trkpt lat="43.63189" lon="3.82865">
        <ele>78.408906882591</ele>
        <time>2020-10-25T12:17:42.000Z</time>
      </trkpt>
      <trkpt lat="43.63188" lon="3.82861">
        <ele>78.51012145749</ele>
        <time>2020-10-25T12:17:43.000Z</time>
      </trkpt>
      <trkpt lat="43.63187" lon="3.82858">
        <ele>78.611336032389</ele>
        <time>2020-10-25T12:17:44.000Z</time>
      </trkpt>
      <trkpt lat="43.63186" lon="3.82854">
        <ele>78.712550607287</ele>
        <time>2020-10-25T12:17:45.000Z</time>
      </trkpt>
      <trkpt lat="43.63186" lon="3.82851">
        <ele>78.813765182186</ele>
        <time>2020-10-25T12:17:46.000Z</time>
      </trkpt>
      <trkpt lat="43.63185" lon="3.82847">
        <ele>78.914979757085</ele>
        <time>2020-10-25T12:17:47.000Z</time>
      </trkpt>
      <trkpt lat="43.63184" lon="3.82844">
        <ele>79.01622719106</ele>
        <time>2020-10-25T12:17:48.000Z</time>
      </trkpt>
      <trkpt lat="43.63183" lon="3.8284">
        <ele>79.117647135187</ele>
        <time>2020-10-25T12:17:49.000Z</time>
      </trkpt>
      <trkpt lat="43.63182" lon="3.82837">
        <ele>79.219067079313</ele>
        <time>2020-10-25T12:17:50.000Z</time>
      </trkpt>
      <trkpt lat="43.63181" lon="3.82833">
        <ele>79.32048702344</ele>
        <time>2020-10-25T12:17:51.000Z</time>
      </trkpt>
      <trkpt lat="43.6318" lon="3.82829">
        <ele>79.421906967566</ele>
        <time>2020-10-25T12:17:52.000Z</time>
      </trkpt>
      <trkpt lat="43.63179" lon="3.82825">
        <ele>79.523326911693</ele>
        <time>2020-10-25T12:17:53.000Z</time>
      </trkpt>
      <trkpt lat="43.63179" lon="3.82822">
        <ele>79.624746855819</ele>
        <time>2020-10-25T12:17:54.000Z</time>
      </trkpt>
      <trkpt lat="43.63178" lon="3.82818">
        <ele>79.726166799946</ele>
        <time>2020-10-25T12:17:55.000Z</time>
      </trkpt>
      <trkpt lat="43.63177" lon="3.82815">
        <ele>79.827586744073</ele>
        <time>2020-10-25T12:17:56.000Z</time>
      </trkpt>
      <trkpt lat="43.63176" lon="3.82811">
        <ele>79.929006688199</ele>
        <time>2020-10-25T12:17:57.000Z</time>
      </trkpt>
      <trkpt lat="43.63176" lon="3.82808">
        <ele>80</ele>
        <time>2020-10-25T12:17:58.000Z</time>
      </trkpt>
      <trkpt lat="43.63175" lon="3.82805">
        <ele>80</ele>
        <time>2020-10-25T12:17:59.000Z</time>
      </trkpt>
      <trkpt lat="43.63174" lon="3.82801">
        <ele>80</ele>
        <time>2020-10-25T12:18:00.000Z</time>
      </trkpt>
      <trkpt lat="43.63174" lon="3.82798">
        <ele>80</ele>
        <time>2020-10-25T12:18:01.000Z</time>
      </trkpt>
      <trkpt lat="43.63174" lon="3.82794">
        <ele>80</ele>
        <time>2020-10-25T12:18:02.000Z</time>
      </trkpt>
      <trkpt lat="43.63174" lon="3.8279">
        <ele>80</ele>
        <time>2020-10-25T12:18:03.000Z</time>
      </trkpt>
      <trkpt lat="43.63176" lon="3.82787">
        <ele>80</ele>
        <time>2020-10-25T12:18:04.000Z</time>
      </trkpt>
      <trkpt lat="43.63177" lon="3.82784">
        <ele>80</ele>
        <time>2020-10-25T12:18:05.000Z</time>
      </trkpt>
      <trkpt lat="43.63179" lon="3.82782">
        <ele>80</ele>
        <time>2020-10-25T12:18:06.000Z</time>
      </trkpt>
      <trkpt lat="43.6318" lon="3.8278">
        <ele>80</ele>
        <time>2020-10-25T12:18:07.000Z</time>
      </trkpt>
      <trkpt lat="43.63182" lon="3.82777">
        <ele>80.03000064</ele>
        <time>2020-10-25T12:18:08.000Z</time>
      </trkpt>
      <trkpt lat="43.63184" lon="3.82775">
        <ele>80.13000064</ele>
        <time>2020-10-25T12:18:09.000Z</time>
      </trkpt>
      <trkpt lat="43.63185" lon="3.82773">
        <ele>80.23000064</ele>
        <time>2020-10-25T12:18:10.000Z</time>
      </trkpt>
      <trkpt lat="43.63186" lon="3.82771">
        <ele>80.33000064</ele>
        <time>2020-10-25T12:18:11.000Z</time>
      </trkpt>
      <trkpt lat="43.63188" lon="3.82769">
        <ele>80.43000064</ele>
        <time>2020-10-25T12:18:12.000Z</time>
      </trkpt>
      <trkpt lat="43.6319" lon="3.82765">
        <ele>80.63000064</ele>
        <time>2020-10-25T12:18:14.000Z</time>
      </trkpt>
      <trkpt lat="43.63191" lon="3.82763">
        <ele>80.73000064</ele>
        <time>2020-10-25T12:18:15.000Z</time>
      </trkpt>
      <trkpt lat="43.63192" lon="3.8276">
        <ele>80.83000064</ele>
        <time>2020-10-25T12:18:16.000Z</time>
      </trkpt>
      <trkpt lat="43.63193" lon="3.82757">
        <ele>80.93000064</ele>
        <time>2020-10-25T12:18:17.000Z</time>
      </trkpt>
      <trkpt lat="43.63195" lon="3.82753">
        <ele>81.06000128</ele>
        <time>2020-10-25T12:18:18.000Z</time>
      </trkpt>
      <trkpt lat="43.63196" lon="3.82749">
        <ele>81.26000128</ele>
        <time>2020-10-25T12:18:19.000Z</time>
      </trkpt>
      <trkpt lat="43.63198" lon="3.82746">
        <ele>81.46000128</ele>
        <time>2020-10-25T12:18:20.000Z</time>
      </trkpt>
      <trkpt lat="43.632" lon="3.82742">
        <ele>81.66000128</ele>
        <time>2020-10-25T12:18:21.000Z</time>
      </trkpt>
      <trkpt lat="43.63202" lon="3.82739">
        <ele>81.86000128</ele>
        <time>2020-10-25T12:18:22.000Z</time>
      </trkpt>
      <trkpt lat="43.63203" lon="3.82736">
        <ele>82.06000128</ele>
        <time>2020-10-25T12:18:23.000Z</time>
      </trkpt>
      <trkpt lat="43.63205" lon="3.82734">
        <ele>82.26000128</ele>
        <time>2020-10-25T12:18:24.000Z</time>
      </trkpt>
      <trkpt lat="43.63206" lon="3.82731">
        <ele>82.46000128</ele>
        <time>2020-10-25T12:18:25.000Z</time>
      </trkpt>
      <trkpt lat="43.63207" lon="3.82729">
        <ele>82.66000128</ele>
        <time>2020-10-25T12:18:26.000Z</time>
      </trkpt>
      <trkpt lat="43.63208" lon="3.82727">
        <ele>82.86000128</ele>
        <time>2020-10-25T12:18:27.000Z</time>
      </trkpt>
      <trkpt lat="43.63209" lon="3.82725">
        <ele>83.03000064</ele>
        <time>2020-10-25T12:18:28.000Z</time>
      </trkpt>
      <trkpt lat="43.63211" lon="3.82723">
        <ele>83.13000064</ele>
        <time>2020-10-25T12:18:29.000Z</time>
      </trkpt>
      <trkpt lat="43.63212" lon="3.82721">
        <ele>83.23000064</ele>
        <time>2020-10-25T12:18:30.000Z</time>
      </trkpt>
      <trkpt lat="43.63214" lon="3.82719">
        <ele>83.33000064</ele>
        <time>2020-10-25T12:18:31.000Z</time>
      </trkpt>
      <trkpt lat="43.63216" lon="3.82716">
        <ele>83.43000064</ele>
        <time>2020-10-25T12:18:32.000Z</time>
      </trkpt>
      <trkpt lat="43.63218" lon="3.82714">
        <ele>83.53000064</ele>
        <time>2020-10-25T12:18:33.000Z</time>
      </trkpt>
      <trkpt lat="43.6322" lon="3.82711">
        <ele>83.63000064</ele>
        <time>2020-10-25T12:18:34.000Z</time>
      </trkpt>
      <trkpt lat="43.63221" lon="3.82708">
        <ele>83.73000064</ele>
        <time>2020-10-25T12:18:35.000Z</time>
      </trkpt>
      <trkpt lat="43.63223" lon="3.82705">
        <ele>83.83000064</ele>
        <time>2020-10-25T12:18:36.000Z</time>
      </trkpt>
      <trkpt lat="43.63225" lon="3.82701">
        <ele>83.93000064</ele>
        <time>2020-10-25T12:18:37.000Z</time>
      </trkpt>
      <trkpt lat="43.63227" lon="3.82698">
        <ele>84</ele>
        <time>2020-10-25T12:18:38.000Z</time>
      </trkpt>
      <trkpt lat="43.63228" lon="3.82695">
        <ele>84</ele>
        <time>2020-10-25T12:18:39.000Z</time>
      </trkpt>
      <trkpt lat="43.6323" lon="3.82691">
        <ele>84</ele>
        <time>2020-10-25T12:18:40.000Z</time>
      </trkpt>
      <trkpt lat="43.63232" lon="3.82688">
        <ele>84</ele>
        <time>2020-10-25T12:18:41.000Z</time>
      </trkpt>
      <trkpt lat="43.63234" lon="3.82685">
        <ele>84</ele>
        <time>2020-10-25T12:18:42.000Z</time>
      </trkpt>
      <trkpt lat="43.63237" lon="3.82682">
        <ele>84</ele>
        <time>2020-10-25T12:18:43.000Z</time>
      </trkpt>
      <trkpt lat="43.63239" lon="3.82678">
        <ele>84</ele>
        <time>2020-10-25T12:18:44.000Z</time>
      </trkpt>
      <trkpt lat="43.63241" lon="3.82675">
        <ele>84</ele>
        <time>2020-10-25T12:18:45.000Z</time>
      </trkpt>
      <trkpt lat="43.63243" lon="3.82672">
        <ele>84</ele>
        <time>2020-10-25T12:18:46.000Z</time>
      </trkpt>
      <trkpt lat="43.63245" lon="3.82669">
        <ele>84</ele>
        <time>2020-10-25T12:18:47.000Z</time>
      </trkpt>
      <trkpt lat="43.63247" lon="3.82666">
        <ele>84</ele>
        <time>2020-10-25T12:18:48.000Z</time>
      </trkpt>
      <trkpt lat="43.6325" lon="3.82662">
        <ele>84</ele>
        <time>2020-10-25T12:18:49.000Z</time>
      </trkpt>
      <trkpt lat="43.63253" lon="3.82659">
        <ele>84</ele>
        <time>2020-10-25T12:18:50.000Z</time>
      </trkpt>
      <trkpt lat="43.63256" lon="3.82655">
        <ele>84</ele>
        <time>2020-10-25T12:18:51.000Z</time>
      </trkpt>
      <trkpt lat="43.63259" lon="3.82651">
        <ele>84</ele>
        <time>2020-10-25T12:18:52.000Z</time>
      </trkpt>
      <trkpt lat="43.63262" lon="3.82648">
        <ele>84</ele>
        <time>2020-10-25T12:18:53.000Z</time>
      </trkpt>
      <trkpt lat="43.63265" lon="3.82644">
        <ele>84</ele>
        <time>2020-10-25T12:18:54.000Z</time>
      </trkpt>
      <trkpt lat="43.63269" lon="3.8264">
        <ele>84</ele>
        <time>2020-10-25T12:18:55.000Z</time>
      </trkpt>
      <trkpt lat="43.63272" lon="3.82637">
        <ele>84</ele>
        <time>2020-10-25T12:18:56.000Z</time>
      </trkpt>
      <trkpt lat="43.63275" lon="3.82633">
        <ele>84</ele>
        <time>2020-10-25T12:18:57.000Z</time>
      </trkpt>
      <trkpt lat="43.63279" lon="3.82629">
        <ele>84</ele>
        <time>2020-10-25T12:18:58.000Z</time>
      </trkpt>
      <trkpt lat="43.63282" lon="3.82625">
        <ele>84</ele>
        <time>2020-10-25T12:18:59.000Z</time>
      </trkpt>
      <trkpt lat="43.63285" lon="3.82622">
        <ele>84</ele>
        <time>2020-10-25T12:19:00.000Z</time>
      </trkpt>
      <trkpt lat="43.63289" lon="3.82618">
        <ele>84</ele>
        <time>2020-10-25T12:19:01.000Z</time>
      </trkpt>
      <trkpt lat="43.63293" lon="3.82615">
        <ele>84</ele>
        <time>2020-10-25T12:19:02.000Z</time>
      </trkpt>
      <trkpt lat="43.63296" lon="3.82613">
        <ele>84</ele>
        <time>2020-10-25T12:19:03.000Z</time>
      </trkpt>
      <trkpt lat="43.633" lon="3.8261">
        <ele>84</ele>
        <time>2020-10-25T12:19:04.000Z</time>
      </trkpt>
      <trkpt lat="43.63304" lon="3.82607">
        <ele>84</ele>
        <time>2020-10-25T12:19:05.000Z</time>
      </trkpt>
      <trkpt lat="43.63307" lon="3.82604">
        <ele>84</ele>
        <time>2020-10-25T12:19:06.000Z</time>
      </trkpt>
      <trkpt lat="43.6331" lon="3.82601">
        <ele>84</ele>
        <time>2020-10-25T12:19:07.000Z</time>
      </trkpt>
      <trkpt lat="43.63314" lon="3.82598">
        <ele>83.982776396621</ele>
        <time>2020-10-25T12:19:08.000Z</time>
      </trkpt>
      <trkpt lat="43.63317" lon="3.82595">
        <ele>83.881459175482</ele>
        <time>2020-10-25T12:19:09.000Z</time>
      </trkpt>
      <trkpt lat="43.63321" lon="3.82592">
        <ele>83.780141954343</ele>
        <time>2020-10-25T12:19:10.000Z</time>
      </trkpt>
      <trkpt lat="43.63325" lon="3.82589">
        <ele>83.678824733203</ele>
        <time>2020-10-25T12:19:11.000Z</time>
      </trkpt>
      <trkpt lat="43.63329" lon="3.82586">
        <ele>83.577507512064</ele>
        <time>2020-10-25T12:19:12.000Z</time>
      </trkpt>
      <trkpt lat="43.63332" lon="3.82584">
        <ele>83.476190290925</ele>
        <time>2020-10-25T12:19:13.000Z</time>
      </trkpt>
      <trkpt lat="43.63336" lon="3.82582">
        <ele>83.374873069785</ele>
        <time>2020-10-25T12:19:14.000Z</time>
      </trkpt>
      <trkpt lat="43.63339" lon="3.82579">
        <ele>83.273555848646</ele>
        <time>2020-10-25T12:19:15.000Z</time>
      </trkpt>
      <trkpt lat="43.63344" lon="3.82577">
        <ele>83.172238627507</ele>
        <time>2020-10-25T12:19:16.000Z</time>
      </trkpt>
      <trkpt lat="43.63348" lon="3.82574">
        <ele>83.070921406367</ele>
        <time>2020-10-25T12:19:17.000Z</time>
      </trkpt>
      <trkpt lat="43.63352" lon="3.82572">
        <ele>83.03000064</ele>
        <time>2020-10-25T12:19:18.000Z</time>
      </trkpt>
      <trkpt lat="43.63355" lon="3.8257">
        <ele>83.13000064</ele>
        <time>2020-10-25T12:19:19.000Z</time>
      </trkpt>
      <trkpt lat="43.63359" lon="3.82568">
        <ele>83.23000064</ele>
        <time>2020-10-25T12:19:20.000Z</time>
      </trkpt>
      <trkpt lat="43.63363" lon="3.82565">
        <ele>83.33000064</ele>
        <time>2020-10-25T12:19:21.000Z</time>
      </trkpt>
      <trkpt lat="43.63367" lon="3.82563">
        <ele>83.43000064</ele>
        <time>2020-10-25T12:19:22.000Z</time>
      </trkpt>
      <trkpt lat="43.63371" lon="3.82561">
        <ele>83.53000064</ele>
        <time>2020-10-25T12:19:23.000Z</time>
      </trkpt>
      <trkpt lat="43.63374" lon="3.8256">
        <ele>83.63000064</ele>
        <time>2020-10-25T12:19:24.000Z</time>
      </trkpt>
      <trkpt lat="43.63378" lon="3.82558">
        <ele>83.73000064</ele>
        <time>2020-10-25T12:19:25.000Z</time>
      </trkpt>
      <trkpt lat="43.63382" lon="3.82557">
        <ele>83.83000064</ele>
        <time>2020-10-25T12:19:26.000Z</time>
      </trkpt>
      <trkpt lat="43.63385" lon="3.82557">
        <ele>83.93000064</ele>
        <time>2020-10-25T12:19:27.000Z</time>
      </trkpt>
      <trkpt lat="43.63389" lon="3.82556">
        <ele>84.029615608656</ele>
        <time>2020-10-25T12:19:28.000Z</time>
      </trkpt>
      <trkpt lat="43.63392" lon="3.82556">
        <ele>84.128332198224</ele>
        <time>2020-10-25T12:19:29.000Z</time>
      </trkpt>
      <trkpt lat="43.63395" lon="3.82555">
        <ele>84.227048787792</ele>
        <time>2020-10-25T12:19:30.000Z</time>
      </trkpt>
      <trkpt lat="43.63398" lon="3.82554">
        <ele>84.32576537736</ele>
        <time>2020-10-25T12:19:31.000Z</time>
      </trkpt>
      <trkpt lat="43.63401" lon="3.82554">
        <ele>84.424481966927</ele>
        <time>2020-10-25T12:19:32.000Z</time>
      </trkpt>
      <trkpt lat="43.63404" lon="3.82553">
        <ele>84.523198556495</ele>
        <time>2020-10-25T12:19:33.000Z</time>
      </trkpt>
      <trkpt lat="43.63406" lon="3.82553">
        <ele>84.621915146063</ele>
        <time>2020-10-25T12:19:34.000Z</time>
      </trkpt>
      <trkpt lat="43.63409" lon="3.82552">
        <ele>84.72063173563</ele>
        <time>2020-10-25T12:19:35.000Z</time>
      </trkpt>
      <trkpt lat="43.63412" lon="3.82552">
        <ele>84.819348325198</ele>
        <time>2020-10-25T12:19:36.000Z</time>
      </trkpt>
      <trkpt lat="43.63415" lon="3.82551">
        <ele>84.918064914766</ele>
        <time>2020-10-25T12:19:37.000Z</time>
      </trkpt>
      <trkpt lat="43.63418" lon="3.82551">
        <ele>85.01717140504</ele>
        <time>2020-10-25T12:19:38.000Z</time>
      </trkpt>
      <trkpt lat="43.63421" lon="3.82551">
        <ele>85.11818157135</ele>
        <time>2020-10-25T12:19:39.000Z</time>
      </trkpt>
      <trkpt lat="43.63423" lon="3.82551">
        <ele>85.219191737659</ele>
        <time>2020-10-25T12:19:40.000Z</time>
      </trkpt>
      <trkpt lat="43.63426" lon="3.8255">
        <ele>85.320201903969</ele>
        <time>2020-10-25T12:19:41.000Z</time>
      </trkpt>
      <trkpt lat="43.63429" lon="3.8255">
        <ele>85.421212070279</ele>
        <time>2020-10-25T12:19:42.000Z</time>
      </trkpt>
      <trkpt lat="43.63431" lon="3.82549">
        <ele>85.522222236588</ele>
        <time>2020-10-25T12:19:43.000Z</time>
      </trkpt>
      <trkpt lat="43.63433" lon="3.82549">
        <ele>85.623232402898</ele>
        <time>2020-10-25T12:19:44.000Z</time>
      </trkpt>
      <trkpt lat="43.63436" lon="3.82549">
        <ele>85.724242569207</ele>
        <time>2020-10-25T12:19:45.000Z</time>
      </trkpt>
      <trkpt lat="43.63438" lon="3.82549">
        <ele>85.825252735517</ele>
        <time>2020-10-25T12:19:46.000Z</time>
      </trkpt>
      <trkpt lat="43.6344" lon="3.82549">
        <ele>85.926262901827</ele>
        <time>2020-10-25T12:19:47.000Z</time>
      </trkpt>
      <trkpt lat="43.63442" lon="3.82548">
        <ele>86.054163146772</ele>
        <time>2020-10-25T12:19:48.000Z</time>
      </trkpt>
      <trkpt lat="43.63444" lon="3.82548">
        <ele>86.254765016574</ele>
        <time>2020-10-25T12:19:49.000Z</time>
      </trkpt>
      <trkpt lat="43.63447" lon="3.82548">
        <ele>86.455366886376</ele>
        <time>2020-10-25T12:19:50.000Z</time>
      </trkpt>
      <trkpt lat="43.63449" lon="3.82547">
        <ele>86.655968756178</ele>
        <time>2020-10-25T12:19:51.000Z</time>
      </trkpt>
      <trkpt lat="43.63452" lon="3.82547">
        <ele>86.85657062598</ele>
        <time>2020-10-25T12:19:52.000Z</time>
      </trkpt>
      <trkpt lat="43.63454" lon="3.82546">
        <ele>87.057172495783</ele>
        <time>2020-10-25T12:19:53.000Z</time>
      </trkpt>
      <trkpt lat="43.63457" lon="3.82546">
        <ele>87.257774365585</ele>
        <time>2020-10-25T12:19:54.000Z</time>
      </trkpt>
      <trkpt lat="43.63459" lon="3.82546">
        <ele>87.458376235387</ele>
        <time>2020-10-25T12:19:55.000Z</time>
      </trkpt>
      <trkpt lat="43.63462" lon="3.82546">
        <ele>87.658978105189</ele>
        <time>2020-10-25T12:19:56.000Z</time>
      </trkpt>
      <trkpt lat="43.63464" lon="3.82546">
        <ele>87.859579974991</ele>
        <time>2020-10-25T12:19:57.000Z</time>
      </trkpt>
      <trkpt lat="43.63467" lon="3.82546">
        <ele>88.03000064</ele>
        <time>2020-10-25T12:19:58.000Z</time>
      </trkpt>
      <trkpt lat="43.63469" lon="3.82545">
        <ele>88.13000064</ele>
        <time>2020-10-25T12:19:59.000Z</time>
      </trkpt>
      <trkpt lat="43.63472" lon="3.82545">
        <ele>88.23000064</ele>
        <time>2020-10-25T12:20:00.000Z</time>
      </trkpt>
      <trkpt lat="43.63474" lon="3.82545">
        <ele>88.33000064</ele>
        <time>2020-10-25T12:20:01.000Z</time>
      </trkpt>
      <trkpt lat="43.63477" lon="3.82545">
        <ele>88.43000064</ele>
        <time>2020-10-25T12:20:02.000Z</time>
      </trkpt>
      <trkpt lat="43.63479" lon="3.82544">
        <ele>88.53000064</ele>
        <time>2020-10-25T12:20:03.000Z</time>
      </trkpt>
      <trkpt lat="43.63482" lon="3.82544">
        <ele>88.63000064</ele>
        <time>2020-10-25T12:20:04.000Z</time>
      </trkpt>
      <trkpt lat="43.63484" lon="3.82544">
        <ele>88.73000064</ele>
        <time>2020-10-25T12:20:05.000Z</time>
      </trkpt>
      <trkpt lat="43.63486" lon="3.82543">
        <ele>88.83000064</ele>
        <time>2020-10-25T12:20:06.000Z</time>
      </trkpt>
      <trkpt lat="43.63489" lon="3.82543">
        <ele>88.93000064</ele>
        <time>2020-10-25T12:20:07.000Z</time>
      </trkpt>
      <trkpt lat="43.63491" lon="3.82543">
        <ele>89.029586411306</ele>
        <time>2020-10-25T12:20:08.000Z</time>
      </trkpt>
      <trkpt lat="43.63494" lon="3.82543">
        <ele>89.12820567845</ele>
        <time>2020-10-25T12:20:09.000Z</time>
      </trkpt>
      <trkpt lat="43.63496" lon="3.82542">
        <ele>89.226824945594</ele>
        <time>2020-10-25T12:20:10.000Z</time>
      </trkpt>
      <trkpt lat="43.63498" lon="3.82542">
        <ele>89.325444212737</ele>
        <time>2020-10-25T12:20:11.000Z</time>
      </trkpt>
      <trkpt lat="43.635" lon="3.82542">
        <ele>89.424063479881</ele>
        <time>2020-10-25T12:20:12.000Z</time>
      </trkpt>
      <trkpt lat="43.63503" lon="3.82542">
        <ele>89.522682747025</ele>
        <time>2020-10-25T12:20:13.000Z</time>
      </trkpt>
      <trkpt lat="43.63505" lon="3.82542">
        <ele>89.621302014168</ele>
        <time>2020-10-25T12:20:14.000Z</time>
      </trkpt>
      <trkpt lat="43.63507" lon="3.82541">
        <ele>89.719921281312</ele>
        <time>2020-10-25T12:20:15.000Z</time>
      </trkpt>
      <trkpt lat="43.63509" lon="3.82541">
        <ele>89.818540548456</ele>
        <time>2020-10-25T12:20:16.000Z</time>
      </trkpt>
      <trkpt lat="43.63512" lon="3.8254">
        <ele>89.917159815599</ele>
        <time>2020-10-25T12:20:17.000Z</time>
      </trkpt>
      <trkpt lat="43.63514" lon="3.8254">
        <ele>90.016177962767</ele>
        <time>2020-10-25T12:20:18.000Z</time>
      </trkpt>
      <trkpt lat="43.63516" lon="3.82539">
        <ele>90.117290230064</ele>
        <time>2020-10-25T12:20:19.000Z</time>
      </trkpt>
      <trkpt lat="43.63518" lon="3.82539">
        <ele>90.21840249736</ele>
        <time>2020-10-25T12:20:20.000Z</time>
      </trkpt>
      <trkpt lat="43.6352" lon="3.82538">
        <ele>90.319514764656</ele>
        <time>2020-10-25T12:20:21.000Z</time>
      </trkpt>
      <trkpt lat="43.63522" lon="3.82538">
        <ele>90.420627031952</ele>
        <time>2020-10-25T12:20:22.000Z</time>
      </trkpt>
      <trkpt lat="43.63525" lon="3.82537">
        <ele>90.521739299248</ele>
        <time>2020-10-25T12:20:23.000Z</time>
      </trkpt>
      <trkpt lat="43.63527" lon="3.82537">
        <ele>90.622851566544</ele>
        <time>2020-10-25T12:20:24.000Z</time>
      </trkpt>
      <trkpt lat="43.63529" lon="3.82536">
        <ele>90.723963833841</ele>
        <time>2020-10-25T12:20:25.000Z</time>
      </trkpt>
      <trkpt lat="43.63531" lon="3.82536">
        <ele>90.825076101137</ele>
        <time>2020-10-25T12:20:26.000Z</time>
      </trkpt>
      <trkpt lat="43.63534" lon="3.82535">
        <ele>90.926188368433</ele>
        <time>2020-10-25T12:20:27.000Z</time>
      </trkpt>
      <trkpt lat="43.63536" lon="3.82534">
        <ele>91</ele>
        <time>2020-10-25T12:20:28.000Z</time>
      </trkpt>
      <trkpt lat="43.63539" lon="3.82533">
        <ele>91</ele>
        <time>2020-10-25T12:20:29.000Z</time>
      </trkpt>
      <trkpt lat="43.63541" lon="3.82533">
        <ele>91</ele>
        <time>2020-10-25T12:20:30.000Z</time>
      </trkpt>
      <trkpt lat="43.63544" lon="3.82533">
        <ele>91</ele>
        <time>2020-10-25T12:20:31.000Z</time>
      </trkpt>
      <trkpt lat="43.63546" lon="3.82532">
        <ele>91</ele>
        <time>2020-10-25T12:20:32.000Z</time>
      </trkpt>
      <trkpt lat="43.63549" lon="3.82532">
        <ele>91</ele>
        <time>2020-10-25T12:20:33.000Z</time>
      </trkpt>
      <trkpt lat="43.63551" lon="3.82531">
        <ele>91</ele>
        <time>2020-10-25T12:20:34.000Z</time>
      </trkpt>
      <trkpt lat="43.63554" lon="3.82529">
        <ele>91</ele>
        <time>2020-10-25T12:20:35.000Z</time>
      </trkpt>
      <trkpt lat="43.63556" lon="3.82527">
        <ele>91</ele>
        <time>2020-10-25T12:20:36.000Z</time>
      </trkpt>
      <trkpt lat="43.63558" lon="3.82525">
        <ele>91</ele>
        <time>2020-10-25T12:20:37.000Z</time>
      </trkpt>
      <trkpt lat="43.63559" lon="3.82523">
        <ele>91</ele>
        <time>2020-10-25T12:20:38.000Z</time>
      </trkpt>
      <trkpt lat="43.63561" lon="3.82522">
        <ele>91.100000258586</ele>
        <time>2020-10-25T12:20:39.000Z</time>
      </trkpt>
      <trkpt lat="43.63564" lon="3.82519">
        <ele>91.302020330007</ele>
        <time>2020-10-25T12:20:41.000Z</time>
      </trkpt>
      <trkpt lat="43.63565" lon="3.82518">
        <ele>91.403030365718</ele>
        <time>2020-10-25T12:20:42.000Z</time>
      </trkpt>
      <trkpt lat="43.63567" lon="3.82515">
        <ele>91.504040401428</ele>
        <time>2020-10-25T12:20:43.000Z</time>
      </trkpt>
      <trkpt lat="43.63569" lon="3.82515">
        <ele>91.605050437139</ele>
        <time>2020-10-25T12:20:44.000Z</time>
      </trkpt>
      <trkpt lat="43.63572" lon="3.82516">
        <ele>91.70606047285</ele>
        <time>2020-10-25T12:20:45.000Z</time>
      </trkpt>
      <trkpt lat="43.63573" lon="3.82518">
        <ele>91.80707050856</ele>
        <time>2020-10-25T12:20:46.000Z</time>
      </trkpt>
      <trkpt lat="43.63574" lon="3.82522">
        <ele>91.908080544271</ele>
        <time>2020-10-25T12:20:47.000Z</time>
      </trkpt>
      <trkpt lat="43.63575" lon="3.82525">
        <ele>91.99085398374</ele>
        <time>2020-10-25T12:20:48.000Z</time>
      </trkpt>
      <trkpt lat="43.63576" lon="3.82528">
        <ele>91.88922796748</ele>
        <time>2020-10-25T12:20:49.000Z</time>
      </trkpt>
      <trkpt lat="43.63576" lon="3.82532">
        <ele>91.78760195122</ele>
        <time>2020-10-25T12:20:50.000Z</time>
      </trkpt>
      <trkpt lat="43.63577" lon="3.82536">
        <ele>91.685975934959</ele>
        <time>2020-10-25T12:20:51.000Z</time>
      </trkpt>
      <trkpt lat="43.63578" lon="3.82539">
        <ele>91.584349918699</ele>
        <time>2020-10-25T12:20:52.000Z</time>
      </trkpt>
      <trkpt lat="43.63578" lon="3.82543">
        <ele>91.482723902439</ele>
        <time>2020-10-25T12:20:53.000Z</time>
      </trkpt>
      <trkpt lat="43.63579" lon="3.82547">
        <ele>91.381097886179</ele>
        <time>2020-10-25T12:20:54.000Z</time>
      </trkpt>
      <trkpt lat="43.63579" lon="3.82551">
        <ele>91.279471869919</ele>
        <time>2020-10-25T12:20:55.000Z</time>
      </trkpt>
      <trkpt lat="43.6358" lon="3.82555">
        <ele>91.177845853658</ele>
        <time>2020-10-25T12:20:56.000Z</time>
      </trkpt>
      <trkpt lat="43.6358" lon="3.82559">
        <ele>91.076219837398</ele>
        <time>2020-10-25T12:20:57.000Z</time>
      </trkpt>
      <trkpt lat="43.63581" lon="3.82563">
        <ele>91</ele>
        <time>2020-10-25T12:20:58.000Z</time>
      </trkpt>
      <trkpt lat="43.63582" lon="3.82567">
        <ele>91</ele>
        <time>2020-10-25T12:20:59.000Z</time>
      </trkpt>
      <trkpt lat="43.63582" lon="3.82571">
        <ele>91</ele>
        <time>2020-10-25T12:21:00.000Z</time>
      </trkpt>
      <trkpt lat="43.63583" lon="3.82575">
        <ele>91</ele>
        <time>2020-10-25T12:21:01.000Z</time>
      </trkpt>
      <trkpt lat="43.63584" lon="3.82578">
        <ele>91</ele>
        <time>2020-10-25T12:21:02.000Z</time>
      </trkpt>
      <trkpt lat="43.63585" lon="3.82582">
        <ele>91</ele>
        <time>2020-10-25T12:21:03.000Z</time>
      </trkpt>
      <trkpt lat="43.63585" lon="3.82586">
        <ele>91</ele>
        <time>2020-10-25T12:21:04.000Z</time>
      </trkpt>
      <trkpt lat="43.63586" lon="3.82589">
        <ele>91</ele>
        <time>2020-10-25T12:21:05.000Z</time>
      </trkpt>
      <trkpt lat="43.63587" lon="3.82592">
        <ele>91</ele>
        <time>2020-10-25T12:21:06.000Z</time>
      </trkpt>
      <trkpt lat="43.63589" lon="3.82595">
        <ele>91</ele>
        <time>2020-10-25T12:21:07.000Z</time>
      </trkpt>
      <trkpt lat="43.63591" lon="3.82597">
        <ele>91.03000064</ele>
        <time>2020-10-25T12:21:08.000Z</time>
      </trkpt>
      <trkpt lat="43.63592" lon="3.82599">
        <ele>91.13000064</ele>
        <time>2020-10-25T12:21:09.000Z</time>
      </trkpt>
      <trkpt lat="43.63593" lon="3.82602">
        <ele>91.23000064</ele>
        <time>2020-10-25T12:21:10.000Z</time>
      </trkpt>
      <trkpt lat="43.63593" lon="3.82605">
        <ele>91.33000064</ele>
        <time>2020-10-25T12:21:11.000Z</time>
      </trkpt>
      <trkpt lat="43.63593" lon="3.82607">
        <ele>91.43000064</ele>
        <time>2020-10-25T12:21:12.000Z</time>
      </trkpt>
      <trkpt lat="43.63593" lon="3.8261">
        <ele>91.53000064</ele>
        <time>2020-10-25T12:21:13.000Z</time>
      </trkpt>
      <trkpt lat="43.63593" lon="3.82614">
        <ele>91.63000064</ele>
        <time>2020-10-25T12:21:14.000Z</time>
      </trkpt>
      <trkpt lat="43.63594" lon="3.82618">
        <ele>91.73000064</ele>
        <time>2020-10-25T12:21:15.000Z</time>
      </trkpt>
      <trkpt lat="43.63595" lon="3.82622">
        <ele>91.83000064</ele>
        <time>2020-10-25T12:21:16.000Z</time>
      </trkpt>
      <trkpt lat="43.63596" lon="3.82628">
        <ele>91.93000064</ele>
        <time>2020-10-25T12:21:17.000Z</time>
      </trkpt>
      <trkpt lat="43.63597" lon="3.82635">
        <ele>91.96999936</ele>
        <time>2020-10-25T12:21:18.000Z</time>
      </trkpt>
      <trkpt lat="43.63599" lon="3.8264">
        <ele>91.86999936</ele>
        <time>2020-10-25T12:21:19.000Z</time>
      </trkpt>
      <trkpt lat="43.63602" lon="3.82645">
        <ele>91.76999936</ele>
        <time>2020-10-25T12:21:20.000Z</time>
      </trkpt>
      <trkpt lat="43.63607" lon="3.82648">
        <ele>91.66999936</ele>
        <time>2020-10-25T12:21:21.000Z</time>
      </trkpt>
      <trkpt lat="43.63612" lon="3.82651">
        <ele>91.56999936</ele>
        <time>2020-10-25T12:21:22.000Z</time>
      </trkpt>
      <trkpt lat="43.63617" lon="3.82654">
        <ele>91.46999936</ele>
        <time>2020-10-25T12:21:23.000Z</time>
      </trkpt>
      <trkpt lat="43.63621" lon="3.82659">
        <ele>91.36999936</ele>
        <time>2020-10-25T12:21:24.000Z</time>
      </trkpt>
      <trkpt lat="43.63624" lon="3.82666">
        <ele>91.26999936</ele>
        <time>2020-10-25T12:21:25.000Z</time>
      </trkpt>
      <trkpt lat="43.63627" lon="3.82673">
        <ele>91.16999936</ele>
        <time>2020-10-25T12:21:26.000Z</time>
      </trkpt>
      <trkpt lat="43.6363" lon="3.82678">
        <ele>91.06999936</ele>
        <time>2020-10-25T12:21:27.000Z</time>
      </trkpt>
      <trkpt lat="43.63634" lon="3.82683">
        <ele>90.87999744</ele>
        <time>2020-10-25T12:21:28.000Z</time>
      </trkpt>
      <trkpt lat="43.63636" lon="3.8269">
        <ele>90.47999744</ele>
        <time>2020-10-25T12:21:29.000Z</time>
      </trkpt>
      <trkpt lat="43.63635" lon="3.82699">
        <ele>90.07999744</ele>
        <time>2020-10-25T12:21:30.000Z</time>
      </trkpt>
      <trkpt lat="43.63634" lon="3.82708">
        <ele>89.67999744</ele>
        <time>2020-10-25T12:21:31.000Z</time>
      </trkpt>
      <trkpt lat="43.63633" lon="3.82718">
        <ele>89.27999744</ele>
        <time>2020-10-25T12:21:32.000Z</time>
      </trkpt>
      <trkpt lat="43.63633" lon="3.82729">
        <ele>88.87999744</ele>
        <time>2020-10-25T12:21:33.000Z</time>
      </trkpt>
      <trkpt lat="43.63633" lon="3.8274">
        <ele>88.47999744</ele>
        <time>2020-10-25T12:21:34.000Z</time>
      </trkpt>
      <trkpt lat="43.63633" lon="3.8275">
        <ele>88.07999744</ele>
        <time>2020-10-25T12:21:35.000Z</time>
      </trkpt>
      <trkpt lat="43.63633" lon="3.82757">
        <ele>87.67999744</ele>
        <time>2020-10-25T12:21:36.000Z</time>
      </trkpt>
      <trkpt lat="43.63634" lon="3.82763">
        <ele>87.27999744</ele>
        <time>2020-10-25T12:21:37.000Z</time>
      </trkpt>
      <trkpt lat="43.63635" lon="3.82766">
        <ele>86.970059260641</ele>
        <time>2020-10-25T12:21:38.000Z</time>
      </trkpt>
      <trkpt lat="43.63638" lon="3.82768">
        <ele>86.870258925184</ele>
        <time>2020-10-25T12:21:39.000Z</time>
      </trkpt>
      <trkpt lat="43.63641" lon="3.82769">
        <ele>86.770458589727</ele>
        <time>2020-10-25T12:21:40.000Z</time>
      </trkpt>
      <trkpt lat="43.63646" lon="3.82769">
        <ele>86.67065825427</ele>
        <time>2020-10-25T12:21:41.000Z</time>
      </trkpt>
      <trkpt lat="43.6365" lon="3.82772">
        <ele>86.570857918813</ele>
        <time>2020-10-25T12:21:42.000Z</time>
      </trkpt>
      <trkpt lat="43.63655" lon="3.82773">
        <ele>86.471057583356</ele>
        <time>2020-10-25T12:21:43.000Z</time>
      </trkpt>
      <trkpt lat="43.6366" lon="3.82773">
        <ele>86.3712572479</ele>
        <time>2020-10-25T12:21:44.000Z</time>
      </trkpt>
      <trkpt lat="43.63664" lon="3.82773">
        <ele>86.271456912443</ele>
        <time>2020-10-25T12:21:45.000Z</time>
      </trkpt>
      <trkpt lat="43.63668" lon="3.82772">
        <ele>86.171656576986</ele>
        <time>2020-10-25T12:21:46.000Z</time>
      </trkpt>
      <trkpt lat="43.63671" lon="3.82771">
        <ele>86.071856241529</ele>
        <time>2020-10-25T12:21:47.000Z</time>
      </trkpt>
      <trkpt lat="43.63675" lon="3.8277">
        <ele>86</ele>
        <time>2020-10-25T12:21:48.000Z</time>
      </trkpt>
      <trkpt lat="43.63679" lon="3.82768">
        <ele>86</ele>
        <time>2020-10-25T12:21:49.000Z</time>
      </trkpt>
      <trkpt lat="43.63682" lon="3.82767">
        <ele>86</ele>
        <time>2020-10-25T12:21:50.000Z</time>
      </trkpt>
      <trkpt lat="43.63686" lon="3.82766">
        <ele>86</ele>
        <time>2020-10-25T12:21:51.000Z</time>
      </trkpt>
      <trkpt lat="43.6369" lon="3.82765">
        <ele>86</ele>
        <time>2020-10-25T12:21:52.000Z</time>
      </trkpt>
      <trkpt lat="43.63694" lon="3.82764">
        <ele>86</ele>
        <time>2020-10-25T12:21:53.000Z</time>
      </trkpt>
      <trkpt lat="43.63698" lon="3.82762">
        <ele>86</ele>
        <time>2020-10-25T12:21:54.000Z</time>
      </trkpt>
      <trkpt lat="43.63702" lon="3.82761">
        <ele>86</ele>
        <time>2020-10-25T12:21:55.000Z</time>
      </trkpt>
      <trkpt lat="43.63706" lon="3.8276">
        <ele>86</ele>
        <time>2020-10-25T12:21:56.000Z</time>
      </trkpt>
      <trkpt lat="43.6371" lon="3.82759">
        <ele>86</ele>
        <time>2020-10-25T12:21:57.000Z</time>
      </trkpt>
      <trkpt lat="43.63714" lon="3.82758">
        <ele>85.940058718825</ele>
        <time>2020-10-25T12:21:58.000Z</time>
      </trkpt>
      <trkpt lat="43.63717" lon="3.82758">
        <ele>85.740258710641</ele>
        <time>2020-10-25T12:21:59.000Z</time>
      </trkpt>
      <trkpt lat="43.63721" lon="3.82757">
        <ele>85.540458702457</ele>
        <time>2020-10-25T12:22:00.000Z</time>
      </trkpt>
      <trkpt lat="43.63725" lon="3.82756">
        <ele>85.340658694273</ele>
        <time>2020-10-25T12:22:01.000Z</time>
      </trkpt>
      <trkpt lat="43.6373" lon="3.82755">
        <ele>85.14085868609</ele>
        <time>2020-10-25T12:22:02.000Z</time>
      </trkpt>
      <trkpt lat="43.63734" lon="3.82755">
        <ele>84.941058677906</ele>
        <time>2020-10-25T12:22:03.000Z</time>
      </trkpt>
      <trkpt lat="43.63739" lon="3.82755">
        <ele>84.741258669722</ele>
        <time>2020-10-25T12:22:04.000Z</time>
      </trkpt>
      <trkpt lat="43.63743" lon="3.82756">
        <ele>84.541458661538</ele>
        <time>2020-10-25T12:22:05.000Z</time>
      </trkpt>
      <trkpt lat="43.63748" lon="3.82755">
        <ele>84.341658653354</ele>
        <time>2020-10-25T12:22:06.000Z</time>
      </trkpt>
      <trkpt lat="43.63752" lon="3.82755">
        <ele>84.141858645171</ele>
        <time>2020-10-25T12:22:07.000Z</time>
      </trkpt>
      <trkpt lat="43.63756" lon="3.82754">
        <ele>84</ele>
        <time>2020-10-25T12:22:08.000Z</time>
      </trkpt>
      <trkpt lat="43.6376" lon="3.82753">
        <ele>84</ele>
        <time>2020-10-25T12:22:09.000Z</time>
      </trkpt>
      <trkpt lat="43.63764" lon="3.82752">
        <ele>84</ele>
        <time>2020-10-25T12:22:10.000Z</time>
      </trkpt>
      <trkpt lat="43.63768" lon="3.82751">
        <ele>84</ele>
        <time>2020-10-25T12:22:11.000Z</time>
      </trkpt>
      <trkpt lat="43.63772" lon="3.8275">
        <ele>84</ele>
        <time>2020-10-25T12:22:12.000Z</time>
      </trkpt>
      <trkpt lat="43.63776" lon="3.82748">
        <ele>84</ele>
        <time>2020-10-25T12:22:13.000Z</time>
      </trkpt>
      <trkpt lat="43.6378" lon="3.82747">
        <ele>84</ele>
        <time>2020-10-25T12:22:14.000Z</time>
      </trkpt>
      <trkpt lat="43.63783" lon="3.82746">
        <ele>84</ele>
        <time>2020-10-25T12:22:15.000Z</time>
      </trkpt>
      <trkpt lat="43.63787" lon="3.82744">
        <ele>84</ele>
        <time>2020-10-25T12:22:16.000Z</time>
      </trkpt>
      <trkpt lat="43.63791" lon="3.82743">
        <ele>84</ele>
        <time>2020-10-25T12:22:17.000Z</time>
      </trkpt>
      <trkpt lat="43.63794" lon="3.82742">
        <ele>84.027081573386</ele>
        <time>2020-10-25T12:22:18.000Z</time>
      </trkpt>
      <trkpt lat="43.63798" lon="3.8274">
        <ele>84.127382508287</ele>
        <time>2020-10-25T12:22:19.000Z</time>
      </trkpt>
      <trkpt lat="43.63801" lon="3.82738">
        <ele>84.227683443188</ele>
        <time>2020-10-25T12:22:20.000Z</time>
      </trkpt>
      <trkpt lat="43.63805" lon="3.82736">
        <ele>84.327984378089</ele>
        <time>2020-10-25T12:22:21.000Z</time>
      </trkpt>
      <trkpt lat="43.63809" lon="3.82734">
        <ele>84.42828531299</ele>
        <time>2020-10-25T12:22:22.000Z</time>
      </trkpt>
      <trkpt lat="43.63812" lon="3.82731">
        <ele>84.528586247891</ele>
        <time>2020-10-25T12:22:23.000Z</time>
      </trkpt>
      <trkpt lat="43.63816" lon="3.82729">
        <ele>84.628887182792</ele>
        <time>2020-10-25T12:22:24.000Z</time>
      </trkpt>
      <trkpt lat="43.6382" lon="3.82727">
        <ele>84.729188117693</ele>
        <time>2020-10-25T12:22:25.000Z</time>
      </trkpt>
      <trkpt lat="43.63824" lon="3.82726">
        <ele>84.829489052594</ele>
        <time>2020-10-25T12:22:26.000Z</time>
      </trkpt>
      <trkpt lat="43.63828" lon="3.82724">
        <ele>84.929789987495</ele>
        <time>2020-10-25T12:22:27.000Z</time>
      </trkpt>
      <trkpt lat="43.63832" lon="3.82723">
        <ele>85.029528188976</ele>
        <time>2020-10-25T12:22:28.000Z</time>
      </trkpt>
      <trkpt lat="43.63835" lon="3.82722">
        <ele>85.127953385827</ele>
        <time>2020-10-25T12:22:29.000Z</time>
      </trkpt>
      <trkpt lat="43.63839" lon="3.82721">
        <ele>85.226378582677</ele>
        <time>2020-10-25T12:22:30.000Z</time>
      </trkpt>
      <trkpt lat="43.63842" lon="3.8272">
        <ele>85.324803779528</ele>
        <time>2020-10-25T12:22:31.000Z</time>
      </trkpt>
      <trkpt lat="43.63845" lon="3.82718">
        <ele>85.423228976378</ele>
        <time>2020-10-25T12:22:32.000Z</time>
      </trkpt>
      <trkpt lat="43.63848" lon="3.82717">
        <ele>85.521654173228</ele>
        <time>2020-10-25T12:22:33.000Z</time>
      </trkpt>
      <trkpt lat="43.63851" lon="3.82717">
        <ele>85.620079370079</ele>
        <time>2020-10-25T12:22:34.000Z</time>
      </trkpt>
      <trkpt lat="43.63854" lon="3.82716">
        <ele>85.718504566929</ele>
        <time>2020-10-25T12:22:35.000Z</time>
      </trkpt>
      <trkpt lat="43.63856" lon="3.82716">
        <ele>85.816929763779</ele>
        <time>2020-10-25T12:22:36.000Z</time>
      </trkpt>
      <trkpt lat="43.63859" lon="3.82715">
        <ele>85.91535496063</ele>
        <time>2020-10-25T12:22:37.000Z</time>
      </trkpt>
      <trkpt lat="43.63862" lon="3.82714">
        <ele>86.014228292683</ele>
        <time>2020-10-25T12:22:38.000Z</time>
      </trkpt>
      <trkpt lat="43.63864" lon="3.82713">
        <ele>86.115854308943</ele>
        <time>2020-10-25T12:22:39.000Z</time>
      </trkpt>
      <trkpt lat="43.63867" lon="3.82713">
        <ele>86.217480325203</ele>
        <time>2020-10-25T12:22:40.000Z</time>
      </trkpt>
      <trkpt lat="43.63869" lon="3.82714">
        <ele>86.319106341463</ele>
        <time>2020-10-25T12:22:41.000Z</time>
      </trkpt>
      <trkpt lat="43.63871" lon="3.82715">
        <ele>86.420732357724</ele>
        <time>2020-10-25T12:22:42.000Z</time>
      </trkpt>
      <trkpt lat="43.63873" lon="3.82717">
        <ele>86.522358373984</ele>
        <time>2020-10-25T12:22:43.000Z</time>
      </trkpt>
      <trkpt lat="43.63875" lon="3.82721">
        <ele>86.725610406504</ele>
        <time>2020-10-25T12:22:45.000Z</time>
      </trkpt>
      <trkpt lat="43.63876" lon="3.82724">
        <ele>86.827236422764</ele>
        <time>2020-10-25T12:22:46.000Z</time>
      </trkpt>
      <trkpt lat="43.63877" lon="3.82727">
        <ele>86.928862439024</ele>
        <time>2020-10-25T12:22:47.000Z</time>
      </trkpt>
      <trkpt lat="43.63879" lon="3.8273">
        <ele>87</ele>
        <time>2020-10-25T12:22:48.000Z</time>
      </trkpt>
      <trkpt lat="43.6388" lon="3.82733">
        <ele>87</ele>
        <time>2020-10-25T12:22:49.000Z</time>
      </trkpt>
      <trkpt lat="43.63881" lon="3.82735">
        <ele>87</ele>
        <time>2020-10-25T12:22:50.000Z</time>
      </trkpt>
      <trkpt lat="43.63882" lon="3.82738">
        <ele>87</ele>
        <time>2020-10-25T12:22:51.000Z</time>
      </trkpt>
      <trkpt lat="43.63883" lon="3.82742">
        <ele>87</ele>
        <time>2020-10-25T12:22:53.000Z</time>
      </trkpt>
      <trkpt lat="43.63885" lon="3.82744">
        <ele>87</ele>
        <time>2020-10-25T12:22:55.000Z</time>
      </trkpt>
      <trkpt lat="43.63889" lon="3.82744">
        <ele>87</ele>
        <time>2020-10-25T12:22:57.000Z</time>
      </trkpt>
      <trkpt lat="43.63891" lon="3.82745">
        <ele>86.93999872</ele>
        <time>2020-10-25T12:22:58.000Z</time>
      </trkpt>
      <trkpt lat="43.63893" lon="3.82747">
        <ele>86.73999872</ele>
        <time>2020-10-25T12:22:59.000Z</time>
      </trkpt>
      <trkpt lat="43.63895" lon="3.8275">
        <ele>86.53999872</ele>
        <time>2020-10-25T12:23:00.000Z</time>
      </trkpt>
      <trkpt lat="43.63897" lon="3.82753">
        <ele>86.33999872</ele>
        <time>2020-10-25T12:23:01.000Z</time>
      </trkpt>
      <trkpt lat="43.63898" lon="3.82757">
        <ele>86.13999872</ele>
        <time>2020-10-25T12:23:02.000Z</time>
      </trkpt>
      <trkpt lat="43.63899" lon="3.82761">
        <ele>85.93999872</ele>
        <time>2020-10-25T12:23:03.000Z</time>
      </trkpt>
      <trkpt lat="43.639" lon="3.82764">
        <ele>85.73999872</ele>
        <time>2020-10-25T12:23:04.000Z</time>
      </trkpt>
      <trkpt lat="43.63901" lon="3.82766">
        <ele>85.53999872</ele>
        <time>2020-10-25T12:23:05.000Z</time>
      </trkpt>
      <trkpt lat="43.63902" lon="3.82769">
        <ele>85.33999872</ele>
        <time>2020-10-25T12:23:06.000Z</time>
      </trkpt>
      <trkpt lat="43.63903" lon="3.82771">
        <ele>85.13999872</ele>
        <time>2020-10-25T12:23:07.000Z</time>
      </trkpt>
      <trkpt lat="43.63905" lon="3.82775">
        <ele>84.96999936</ele>
        <time>2020-10-25T12:23:08.000Z</time>
      </trkpt>
      <trkpt lat="43.63906" lon="3.82779">
        <ele>84.86999936</ele>
        <time>2020-10-25T12:23:09.000Z</time>
      </trkpt>
      <trkpt lat="43.63908" lon="3.82783">
        <ele>84.76999936</ele>
        <time>2020-10-25T12:23:10.000Z</time>
      </trkpt>
      <trkpt lat="43.63909" lon="3.82788">
        <ele>84.66999936</ele>
        <time>2020-10-25T12:23:11.000Z</time>
      </trkpt>
      <trkpt lat="43.63911" lon="3.82792">
        <ele>84.56999936</ele>
        <time>2020-10-25T12:23:12.000Z</time>
      </trkpt>
      <trkpt lat="43.63914" lon="3.82796">
        <ele>84.46999936</ele>
        <time>2020-10-25T12:23:13.000Z</time>
      </trkpt>
      <trkpt lat="43.63917" lon="3.82801">
        <ele>84.36999936</ele>
        <time>2020-10-25T12:23:14.000Z</time>
      </trkpt>
      <trkpt lat="43.63919" lon="3.82806">
        <ele>84.26999936</ele>
        <time>2020-10-25T12:23:15.000Z</time>
      </trkpt>
      <trkpt lat="43.63921" lon="3.8281">
        <ele>84.16999936</ele>
        <time>2020-10-25T12:23:16.000Z</time>
      </trkpt>
      <trkpt lat="43.63922" lon="3.82814">
        <ele>84.06999936</ele>
        <time>2020-10-25T12:23:17.000Z</time>
      </trkpt>
      <trkpt lat="43.63924" lon="3.82818">
        <ele>84</ele>
        <time>2020-10-25T12:23:18.000Z</time>
      </trkpt>
      <trkpt lat="43.63925" lon="3.8282">
        <ele>84</ele>
        <time>2020-10-25T12:23:19.000Z</time>
      </trkpt>
      <trkpt lat="43.63925" lon="3.82824">
        <ele>84</ele>
        <time>2020-10-25T12:23:21.000Z</time>
      </trkpt>
      <trkpt lat="43.63926" lon="3.82826">
        <ele>84</ele>
        <time>2020-10-25T12:23:23.000Z</time>
      </trkpt>
      <trkpt lat="43.63926" lon="3.82827">
        <ele>84</ele>
        <time>2020-10-25T12:23:28.000Z</time>
      </trkpt>
      <trkpt lat="43.6393" lon="3.82828">
        <ele>85</ele>
        <time>2020-10-25T12:23:47.000Z</time>
      </trkpt>
      <trkpt lat="43.6393" lon="3.82828">
        <ele>84.991310548248</ele>
        <time>2020-10-25T12:23:51.000Z</time>
      </trkpt>
      <trkpt lat="43.63936" lon="3.82824">
        <ele>84.004931818496</ele>
        <time>2020-10-25T12:24:33.000Z</time>
      </trkpt>
      <trkpt lat="43.63939" lon="3.82822">
        <ele>84</ele>
        <time>2020-10-25T12:24:34.000Z</time>
      </trkpt>
      <trkpt lat="43.63942" lon="3.82821">
        <ele>84</ele>
        <time>2020-10-25T12:24:35.000Z</time>
      </trkpt>
      <trkpt lat="43.63945" lon="3.82821">
        <ele>84</ele>
        <time>2020-10-25T12:24:36.000Z</time>
      </trkpt>
      <trkpt lat="43.63948" lon="3.8282">
        <ele>84</ele>
        <time>2020-10-25T12:24:37.000Z</time>
      </trkpt>
      <trkpt lat="43.6395" lon="3.82819">
        <ele>84</ele>
        <time>2020-10-25T12:24:38.000Z</time>
      </trkpt>
      <trkpt lat="43.63953" lon="3.82818">
        <ele>84</ele>
        <time>2020-10-25T12:24:39.000Z</time>
      </trkpt>
      <trkpt lat="43.63955" lon="3.82816">
        <ele>84</ele>
        <time>2020-10-25T12:24:40.000Z</time>
      </trkpt>
      <trkpt lat="43.63957" lon="3.82815">
        <ele>84</ele>
        <time>2020-10-25T12:24:41.000Z</time>
      </trkpt>
      <trkpt lat="43.63959" lon="3.82813">
        <ele>84</ele>
        <time>2020-10-25T12:24:42.000Z</time>
      </trkpt>
      <trkpt lat="43.63961" lon="3.8281">
        <ele>84</ele>
        <time>2020-10-25T12:24:43.000Z</time>
      </trkpt>
      <trkpt lat="43.63963" lon="3.82808">
        <ele>84</ele>
        <time>2020-10-25T12:24:44.000Z</time>
      </trkpt>
      <trkpt lat="43.63965" lon="3.82806">
        <ele>84</ele>
        <time>2020-10-25T12:24:45.000Z</time>
      </trkpt>
      <trkpt lat="43.63967" lon="3.82805">
        <ele>84</ele>
        <time>2020-10-25T12:24:46.000Z</time>
      </trkpt>
      <trkpt lat="43.63968" lon="3.82804">
        <ele>84</ele>
        <time>2020-10-25T12:24:47.000Z</time>
      </trkpt>
      <trkpt lat="43.6397" lon="3.82803">
        <ele>84</ele>
        <time>2020-10-25T12:24:48.000Z</time>
      </trkpt>
      <trkpt lat="43.63972" lon="3.82801">
        <ele>84</ele>
        <time>2020-10-25T12:24:49.000Z</time>
      </trkpt>
      <trkpt lat="43.63974" lon="3.828">
        <ele>84</ele>
        <time>2020-10-25T12:24:50.000Z</time>
      </trkpt>
      <trkpt lat="43.63977" lon="3.82798">
        <ele>84</ele>
        <time>2020-10-25T12:24:51.000Z</time>
      </trkpt>
      <trkpt lat="43.6398" lon="3.82798">
        <ele>84</ele>
        <time>2020-10-25T12:24:52.000Z</time>
      </trkpt>
      <trkpt lat="43.63983" lon="3.82797">
        <ele>84.001029536221</ele>
        <time>2020-10-25T12:24:53.000Z</time>
      </trkpt>
      <trkpt lat="43.63986" lon="3.82797">
        <ele>84.104016114022</ele>
        <time>2020-10-25T12:24:54.000Z</time>
      </trkpt>
      <trkpt lat="43.63989" lon="3.82797">
        <ele>84.207002691822</ele>
        <time>2020-10-25T12:24:55.000Z</time>
      </trkpt>
      <trkpt lat="43.63993" lon="3.82797">
        <ele>84.309989269623</ele>
        <time>2020-10-25T12:24:56.000Z</time>
      </trkpt>
      <trkpt lat="43.63996" lon="3.82797">
        <ele>84.412975847423</ele>
        <time>2020-10-25T12:24:57.000Z</time>
      </trkpt>
      <trkpt lat="43.63999" lon="3.82796">
        <ele>84.515962425224</ele>
        <time>2020-10-25T12:24:58.000Z</time>
      </trkpt>
      <trkpt lat="43.64002" lon="3.82796">
        <ele>84.618949003024</ele>
        <time>2020-10-25T12:24:59.000Z</time>
      </trkpt>
      <trkpt lat="43.64004" lon="3.82795">
        <ele>84.721935580825</ele>
        <time>2020-10-25T12:25:00.000Z</time>
      </trkpt>
      <trkpt lat="43.64007" lon="3.82794">
        <ele>84.824922158625</ele>
        <time>2020-10-25T12:25:01.000Z</time>
      </trkpt>
      <trkpt lat="43.64009" lon="3.82793">
        <ele>84.927908736426</ele>
        <time>2020-10-25T12:25:02.000Z</time>
      </trkpt>
      <trkpt lat="43.64012" lon="3.82792">
        <ele>85</ele>
        <time>2020-10-25T12:25:03.000Z</time>
      </trkpt>
      <trkpt lat="43.64015" lon="3.82791">
        <ele>85</ele>
        <time>2020-10-25T12:25:04.000Z</time>
      </trkpt>
      <trkpt lat="43.64017" lon="3.82788">
        <ele>85</ele>
        <time>2020-10-25T12:25:05.000Z</time>
      </trkpt>
      <trkpt lat="43.64018" lon="3.82785">
        <ele>85</ele>
        <time>2020-10-25T12:25:06.000Z</time>
      </trkpt>
      <trkpt lat="43.64019" lon="3.82781">
        <ele>85</ele>
        <time>2020-10-25T12:25:07.000Z</time>
      </trkpt>
      <trkpt lat="43.64019" lon="3.82777">
        <ele>85</ele>
        <time>2020-10-25T12:25:08.000Z</time>
      </trkpt>
      <trkpt lat="43.64021" lon="3.82774">
        <ele>85</ele>
        <time>2020-10-25T12:25:09.000Z</time>
      </trkpt>
      <trkpt lat="43.64022" lon="3.82771">
        <ele>85</ele>
        <time>2020-10-25T12:25:10.000Z</time>
      </trkpt>
      <trkpt lat="43.64023" lon="3.82768">
        <ele>85</ele>
        <time>2020-10-25T12:25:11.000Z</time>
      </trkpt>
      <trkpt lat="43.64025" lon="3.82766">
        <ele>85</ele>
        <time>2020-10-25T12:25:12.000Z</time>
      </trkpt>
      <trkpt lat="43.64026" lon="3.82763">
        <ele>85</ele>
        <time>2020-10-25T12:25:13.000Z</time>
      </trkpt>
      <trkpt lat="43.64028" lon="3.8276">
        <ele>85</ele>
        <time>2020-10-25T12:25:14.000Z</time>
      </trkpt>
      <trkpt lat="43.64029" lon="3.82757">
        <ele>85</ele>
        <time>2020-10-25T12:25:15.000Z</time>
      </trkpt>
      <trkpt lat="43.64031" lon="3.82754">
        <ele>85</ele>
        <time>2020-10-25T12:25:16.000Z</time>
      </trkpt>
      <trkpt lat="43.64032" lon="3.82751">
        <ele>85</ele>
        <time>2020-10-25T12:25:17.000Z</time>
      </trkpt>
      <trkpt lat="43.64033" lon="3.82747">
        <ele>85</ele>
        <time>2020-10-25T12:25:18.000Z</time>
      </trkpt>
      <trkpt lat="43.64034" lon="3.82744">
        <ele>85</ele>
        <time>2020-10-25T12:25:19.000Z</time>
      </trkpt>
      <trkpt lat="43.64035" lon="3.82741">
        <ele>85</ele>
        <time>2020-10-25T12:25:20.000Z</time>
      </trkpt>
      <trkpt lat="43.64037" lon="3.82737">
        <ele>85</ele>
        <time>2020-10-25T12:25:21.000Z</time>
      </trkpt>
      <trkpt lat="43.64038" lon="3.82734">
        <ele>85</ele>
        <time>2020-10-25T12:25:22.000Z</time>
      </trkpt>
      <trkpt lat="43.6404" lon="3.82731">
        <ele>85.05999872</ele>
        <time>2020-10-25T12:25:23.000Z</time>
      </trkpt>
      <trkpt lat="43.64042" lon="3.82728">
        <ele>85.25999872</ele>
        <time>2020-10-25T12:25:24.000Z</time>
      </trkpt>
      <trkpt lat="43.64043" lon="3.82725">
        <ele>85.45999872</ele>
        <time>2020-10-25T12:25:25.000Z</time>
      </trkpt>
      <trkpt lat="43.64045" lon="3.82722">
        <ele>85.65999872</ele>
        <time>2020-10-25T12:25:26.000Z</time>
      </trkpt>
      <trkpt lat="43.64046" lon="3.82719">
        <ele>85.85999872</ele>
        <time>2020-10-25T12:25:27.000Z</time>
      </trkpt>
      <trkpt lat="43.64048" lon="3.82716">
        <ele>86.05999872</ele>
        <time>2020-10-25T12:25:28.000Z</time>
      </trkpt>
      <trkpt lat="43.64049" lon="3.82713">
        <ele>86.25999872</ele>
        <time>2020-10-25T12:25:29.000Z</time>
      </trkpt>
      <trkpt lat="43.64051" lon="3.8271">
        <ele>86.45999872</ele>
        <time>2020-10-25T12:25:30.000Z</time>
      </trkpt>
      <trkpt lat="43.64052" lon="3.82707">
        <ele>86.65999872</ele>
        <time>2020-10-25T12:25:31.000Z</time>
      </trkpt>
      <trkpt lat="43.64054" lon="3.82704">
        <ele>86.85999872</ele>
        <time>2020-10-25T12:25:32.000Z</time>
      </trkpt>
      <trkpt lat="43.64056" lon="3.82701">
        <ele>87.02999936</ele>
        <time>2020-10-25T12:25:33.000Z</time>
      </trkpt>
      <trkpt lat="43.64057" lon="3.82698">
        <ele>87.12999936</ele>
        <time>2020-10-25T12:25:34.000Z</time>
      </trkpt>
      <trkpt lat="43.64057" lon="3.82694">
        <ele>87.22999936</ele>
        <time>2020-10-25T12:25:35.000Z</time>
      </trkpt>
      <trkpt lat="43.64058" lon="3.8269">
        <ele>87.32999936</ele>
        <time>2020-10-25T12:25:36.000Z</time>
      </trkpt>
      <trkpt lat="43.64059" lon="3.82687">
        <ele>87.42999936</ele>
        <time>2020-10-25T12:25:37.000Z</time>
      </trkpt>
      <trkpt lat="43.64059" lon="3.82683">
        <ele>87.52999936</ele>
        <time>2020-10-25T12:25:38.000Z</time>
      </trkpt>
      <trkpt lat="43.64061" lon="3.8268">
        <ele>87.62999936</ele>
        <time>2020-10-25T12:25:39.000Z</time>
      </trkpt>
      <trkpt lat="43.64062" lon="3.82676">
        <ele>87.72999936</ele>
        <time>2020-10-25T12:25:40.000Z</time>
      </trkpt>
      <trkpt lat="43.64064" lon="3.82673">
        <ele>87.82999936</ele>
        <time>2020-10-25T12:25:41.000Z</time>
      </trkpt>
      <trkpt lat="43.64065" lon="3.82669">
        <ele>87.92999936</ele>
        <time>2020-10-25T12:25:42.000Z</time>
      </trkpt>
      <trkpt lat="43.64067" lon="3.82666">
        <ele>88.058251220661</ele>
        <time>2020-10-25T12:25:43.000Z</time>
      </trkpt>
      <trkpt lat="43.64069" lon="3.82662">
        <ele>88.252426098595</ele>
        <time>2020-10-25T12:25:44.000Z</time>
      </trkpt>
      <trkpt lat="43.64071" lon="3.82659">
        <ele>88.446600976529</ele>
        <time>2020-10-25T12:25:45.000Z</time>
      </trkpt>
      <trkpt lat="43.64073" lon="3.82656">
        <ele>88.640775854463</ele>
        <time>2020-10-25T12:25:46.000Z</time>
      </trkpt>
      <trkpt lat="43.64074" lon="3.82652">
        <ele>88.834950732397</ele>
        <time>2020-10-25T12:25:47.000Z</time>
      </trkpt>
      <trkpt lat="43.64076" lon="3.82649">
        <ele>89.02912561033</ele>
        <time>2020-10-25T12:25:48.000Z</time>
      </trkpt>
      <trkpt lat="43.64077" lon="3.82645">
        <ele>89.223300488264</ele>
        <time>2020-10-25T12:25:49.000Z</time>
      </trkpt>
      <trkpt lat="43.64079" lon="3.82642">
        <ele>89.417475366198</ele>
        <time>2020-10-25T12:25:50.000Z</time>
      </trkpt>
      <trkpt lat="43.64079" lon="3.82638">
        <ele>89.611650244132</ele>
        <time>2020-10-25T12:25:51.000Z</time>
      </trkpt>
      <trkpt lat="43.6408" lon="3.82634">
        <ele>89.805825122066</ele>
        <time>2020-10-25T12:25:52.000Z</time>
      </trkpt>
      <trkpt lat="43.6408" lon="3.8263">
        <ele>90</ele>
        <time>2020-10-25T12:25:53.000Z</time>
      </trkpt>
      <trkpt lat="43.6408" lon="3.82626">
        <ele>90.103092715485</ele>
        <time>2020-10-25T12:25:54.000Z</time>
      </trkpt>
      <trkpt lat="43.64081" lon="3.82622">
        <ele>90.20618543097</ele>
        <time>2020-10-25T12:25:55.000Z</time>
      </trkpt>
      <trkpt lat="43.64082" lon="3.82618">
        <ele>90.309278146456</ele>
        <time>2020-10-25T12:25:56.000Z</time>
      </trkpt>
      <trkpt lat="43.64083" lon="3.82614">
        <ele>90.412370861941</ele>
        <time>2020-10-25T12:25:57.000Z</time>
      </trkpt>
      <trkpt lat="43.64083" lon="3.82609">
        <ele>90.515463577426</ele>
        <time>2020-10-25T12:25:58.000Z</time>
      </trkpt>
      <trkpt lat="43.64085" lon="3.82605">
        <ele>90.618556292911</ele>
        <time>2020-10-25T12:25:59.000Z</time>
      </trkpt>
      <trkpt lat="43.64086" lon="3.82601">
        <ele>90.721649008396</ele>
        <time>2020-10-25T12:26:00.000Z</time>
      </trkpt>
      <trkpt lat="43.64088" lon="3.82597">
        <ele>90.824741723882</ele>
        <time>2020-10-25T12:26:01.000Z</time>
      </trkpt>
      <trkpt lat="43.64089" lon="3.82593">
        <ele>90.927834439367</ele>
        <time>2020-10-25T12:26:02.000Z</time>
      </trkpt>
      <trkpt lat="43.6409" lon="3.82588">
        <ele>91.05993880038</ele>
        <time>2020-10-25T12:26:03.000Z</time>
      </trkpt>
      <trkpt lat="43.64091" lon="3.82584">
        <ele>91.259739064052</ele>
        <time>2020-10-25T12:26:04.000Z</time>
      </trkpt>
      <trkpt lat="43.64094" lon="3.82581">
        <ele>91.459539327725</ele>
        <time>2020-10-25T12:26:05.000Z</time>
      </trkpt>
      <trkpt lat="43.64096" lon="3.82577">
        <ele>91.659339591397</ele>
        <time>2020-10-25T12:26:06.000Z</time>
      </trkpt>
      <trkpt lat="43.64097" lon="3.82573">
        <ele>91.85913985507</ele>
        <time>2020-10-25T12:26:07.000Z</time>
      </trkpt>
      <trkpt lat="43.64098" lon="3.82568">
        <ele>92.058940118742</ele>
        <time>2020-10-25T12:26:08.000Z</time>
      </trkpt>
      <trkpt lat="43.641" lon="3.82564">
        <ele>92.258740382415</ele>
        <time>2020-10-25T12:26:09.000Z</time>
      </trkpt>
      <trkpt lat="43.64102" lon="3.82561">
        <ele>92.458540646087</ele>
        <time>2020-10-25T12:26:10.000Z</time>
      </trkpt>
      <trkpt lat="43.64103" lon="3.82557">
        <ele>92.658340909759</ele>
        <time>2020-10-25T12:26:11.000Z</time>
      </trkpt>
      <trkpt lat="43.64105" lon="3.82553">
        <ele>92.858141173432</ele>
        <time>2020-10-25T12:26:12.000Z</time>
      </trkpt>
      <trkpt lat="43.64105" lon="3.82549">
        <ele>93.028855412173</ele>
        <time>2020-10-25T12:26:13.000Z</time>
      </trkpt>
      <trkpt lat="43.64106" lon="3.82545">
        <ele>93.128357931417</ele>
        <time>2020-10-25T12:26:14.000Z</time>
      </trkpt>
      <trkpt lat="43.64107" lon="3.82541">
        <ele>93.227860450662</ele>
        <time>2020-10-25T12:26:15.000Z</time>
      </trkpt>
      <trkpt lat="43.64108" lon="3.82538">
        <ele>93.327362969907</ele>
        <time>2020-10-25T12:26:16.000Z</time>
      </trkpt>
      <trkpt lat="43.6411" lon="3.82534">
        <ele>93.426865489151</ele>
        <time>2020-10-25T12:26:17.000Z</time>
      </trkpt>
      <trkpt lat="43.64111" lon="3.82531">
        <ele>93.526368008396</ele>
        <time>2020-10-25T12:26:18.000Z</time>
      </trkpt>
      <trkpt lat="43.64113" lon="3.82528">
        <ele>93.62587052764</ele>
        <time>2020-10-25T12:26:19.000Z</time>
      </trkpt>
      <trkpt lat="43.64114" lon="3.82524">
        <ele>93.725373046885</ele>
        <time>2020-10-25T12:26:20.000Z</time>
      </trkpt>
      <trkpt lat="43.64116" lon="3.8252">
        <ele>93.82487556613</ele>
        <time>2020-10-25T12:26:21.000Z</time>
      </trkpt>
      <trkpt lat="43.64118" lon="3.82516">
        <ele>93.924378085374</ele>
        <time>2020-10-25T12:26:22.000Z</time>
      </trkpt>
      <trkpt lat="43.64119" lon="3.82513">
        <ele>94.024144853669</ele>
        <time>2020-10-25T12:26:23.000Z</time>
      </trkpt>
      <trkpt lat="43.64121" lon="3.8251">
        <ele>94.124748410625</ele>
        <time>2020-10-25T12:26:24.000Z</time>
      </trkpt>
      <trkpt lat="43.64124" lon="3.82507">
        <ele>94.22535196758</ele>
        <time>2020-10-25T12:26:25.000Z</time>
      </trkpt>
      <trkpt lat="43.64126" lon="3.82504">
        <ele>94.325955524536</ele>
        <time>2020-10-25T12:26:26.000Z</time>
      </trkpt>
      <trkpt lat="43.64128" lon="3.825">
        <ele>94.426559081491</ele>
        <time>2020-10-25T12:26:27.000Z</time>
      </trkpt>
      <trkpt lat="43.64131" lon="3.82496">
        <ele>94.527162638447</ele>
        <time>2020-10-25T12:26:28.000Z</time>
      </trkpt>
      <trkpt lat="43.64132" lon="3.82493">
        <ele>94.627766195402</ele>
        <time>2020-10-25T12:26:29.000Z</time>
      </trkpt>
      <trkpt lat="43.64134" lon="3.82489">
        <ele>94.728369752357</ele>
        <time>2020-10-25T12:26:30.000Z</time>
      </trkpt>
      <trkpt lat="43.64134" lon="3.82485">
        <ele>94.828973309313</ele>
        <time>2020-10-25T12:26:31.000Z</time>
      </trkpt>
      <trkpt lat="43.64135" lon="3.82482">
        <ele>94.929576866268</ele>
        <time>2020-10-25T12:26:32.000Z</time>
      </trkpt>
      <trkpt lat="43.64136" lon="3.82478">
        <ele>95.05999872</ele>
        <time>2020-10-25T12:26:33.000Z</time>
      </trkpt>
      <trkpt lat="43.64137" lon="3.82474">
        <ele>95.25999872</ele>
        <time>2020-10-25T12:26:34.000Z</time>
      </trkpt>
      <trkpt lat="43.64139" lon="3.82471">
        <ele>95.45999872</ele>
        <time>2020-10-25T12:26:35.000Z</time>
      </trkpt>
      <trkpt lat="43.64141" lon="3.82467">
        <ele>95.65999872</ele>
        <time>2020-10-25T12:26:36.000Z</time>
      </trkpt>
      <trkpt lat="43.64142" lon="3.82463">
        <ele>95.85999872</ele>
        <time>2020-10-25T12:26:37.000Z</time>
      </trkpt>
      <trkpt lat="43.64143" lon="3.82459">
        <ele>96.05999872</ele>
        <time>2020-10-25T12:26:38.000Z</time>
      </trkpt>
      <trkpt lat="43.64144" lon="3.82454">
        <ele>96.25999872</ele>
        <time>2020-10-25T12:26:39.000Z</time>
      </trkpt>
      <trkpt lat="43.64144" lon="3.8245">
        <ele>96.45999872</ele>
        <time>2020-10-25T12:26:40.000Z</time>
      </trkpt>
      <trkpt lat="43.64144" lon="3.82446">
        <ele>96.65999872</ele>
        <time>2020-10-25T12:26:41.000Z</time>
      </trkpt>
      <trkpt lat="43.64144" lon="3.82442">
        <ele>96.85999872</ele>
        <time>2020-10-25T12:26:42.000Z</time>
      </trkpt>
      <trkpt lat="43.64145" lon="3.82438">
        <ele>97.028956946974</ele>
        <time>2020-10-25T12:26:43.000Z</time>
      </trkpt>
      <trkpt lat="43.64147" lon="3.82435">
        <ele>97.125482162758</ele>
        <time>2020-10-25T12:26:44.000Z</time>
      </trkpt>
      <trkpt lat="43.64148" lon="3.82432">
        <ele>97.222007378542</ele>
        <time>2020-10-25T12:26:45.000Z</time>
      </trkpt>
      <trkpt lat="43.64149" lon="3.8243">
        <ele>97.318532594326</ele>
        <time>2020-10-25T12:26:46.000Z</time>
      </trkpt>
      <trkpt lat="43.64148" lon="3.82427">
        <ele>97.41505781011</ele>
        <time>2020-10-25T12:26:47.000Z</time>
      </trkpt>
      <trkpt lat="43.64148" lon="3.82423">
        <ele>97.511583025894</ele>
        <time>2020-10-25T12:26:48.000Z</time>
      </trkpt>
      <trkpt lat="43.64147" lon="3.8242">
        <ele>97.608108241678</ele>
        <time>2020-10-25T12:26:49.000Z</time>
      </trkpt>
      <trkpt lat="43.64149" lon="3.82416">
        <ele>97.704633457462</ele>
        <time>2020-10-25T12:26:50.000Z</time>
      </trkpt>
      <trkpt lat="43.6415" lon="3.82412">
        <ele>97.801158673246</ele>
        <time>2020-10-25T12:26:51.000Z</time>
      </trkpt>
      <trkpt lat="43.64151" lon="3.82408">
        <ele>97.89768388903</ele>
        <time>2020-10-25T12:26:52.000Z</time>
      </trkpt>
      <trkpt lat="43.64153" lon="3.82405">
        <ele>97.994209104814</ele>
        <time>2020-10-25T12:26:53.000Z</time>
      </trkpt>
      <trkpt lat="43.64155" lon="3.82402">
        <ele>98.097510907869</ele>
        <time>2020-10-25T12:26:54.000Z</time>
      </trkpt>
      <trkpt lat="43.64157" lon="3.82398">
        <ele>98.201245209965</ele>
        <time>2020-10-25T12:26:55.000Z</time>
      </trkpt>
      <trkpt lat="43.64158" lon="3.82395">
        <ele>98.30497951206</ele>
        <time>2020-10-25T12:26:56.000Z</time>
      </trkpt>
      <trkpt lat="43.64159" lon="3.82391">
        <ele>98.408713814156</ele>
        <time>2020-10-25T12:26:57.000Z</time>
      </trkpt>
      <trkpt lat="43.64159" lon="3.82388">
        <ele>98.512448116252</ele>
        <time>2020-10-25T12:26:58.000Z</time>
      </trkpt>
      <trkpt lat="43.6416" lon="3.82384">
        <ele>98.616182418347</ele>
        <time>2020-10-25T12:26:59.000Z</time>
      </trkpt>
      <trkpt lat="43.64162" lon="3.82381">
        <ele>98.719916720442</ele>
        <time>2020-10-25T12:27:00.000Z</time>
      </trkpt>
      <trkpt lat="43.64164" lon="3.82378">
        <ele>98.823651022538</ele>
        <time>2020-10-25T12:27:01.000Z</time>
      </trkpt>
      <trkpt lat="43.64166" lon="3.82375">
        <ele>98.927385324634</ele>
        <time>2020-10-25T12:27:02.000Z</time>
      </trkpt>
      <trkpt lat="43.64168" lon="3.82374">
        <ele>99.02912561033</ele>
        <time>2020-10-25T12:27:03.000Z</time>
      </trkpt>
      <trkpt lat="43.6417" lon="3.82374">
        <ele>99.126213049297</ele>
        <time>2020-10-25T12:27:04.000Z</time>
      </trkpt>
      <trkpt lat="43.64173" lon="3.82371">
        <ele>99.320387927231</ele>
        <time>2020-10-25T12:27:06.000Z</time>
      </trkpt>
      <trkpt lat="43.64174" lon="3.82369">
        <ele>99.417475366198</ele>
        <time>2020-10-25T12:27:07.000Z</time>
      </trkpt>
      <trkpt lat="43.64175" lon="3.82366">
        <ele>99.514562805165</ele>
        <time>2020-10-25T12:27:08.000Z</time>
      </trkpt>
      <trkpt lat="43.64176" lon="3.82362">
        <ele>99.611650244132</ele>
        <time>2020-10-25T12:27:09.000Z</time>
      </trkpt>
      <trkpt lat="43.64177" lon="3.82359">
        <ele>99.708737683099</ele>
        <time>2020-10-25T12:27:10.000Z</time>
      </trkpt>
      <trkpt lat="43.64179" lon="3.82354">
        <ele>99.805825122066</ele>
        <time>2020-10-25T12:27:11.000Z</time>
      </trkpt>
      <trkpt lat="43.64179" lon="3.8235">
        <ele>99.902912561033</ele>
        <time>2020-10-25T12:27:12.000Z</time>
      </trkpt>
      <trkpt lat="43.6418" lon="3.82346">
        <ele>100</ele>
        <time>2020-10-25T12:27:13.000Z</time>
      </trkpt>
      <trkpt lat="43.64181" lon="3.82342">
        <ele>100</ele>
        <time>2020-10-25T12:27:14.000Z</time>
      </trkpt>
      <trkpt lat="43.64181" lon="3.82338">
        <ele>100</ele>
        <time>2020-10-25T12:27:15.000Z</time>
      </trkpt>
      <trkpt lat="43.64182" lon="3.82335">
        <ele>100</ele>
        <time>2020-10-25T12:27:16.000Z</time>
      </trkpt>
      <trkpt lat="43.64183" lon="3.82331">
        <ele>100</ele>
        <time>2020-10-25T12:27:17.000Z</time>
      </trkpt>
      <trkpt lat="43.64185" lon="3.82327">
        <ele>100</ele>
        <time>2020-10-25T12:27:18.000Z</time>
      </trkpt>
      <trkpt lat="43.64188" lon="3.82324">
        <ele>100</ele>
        <time>2020-10-25T12:27:19.000Z</time>
      </trkpt>
      <trkpt lat="43.6419" lon="3.82321">
        <ele>100</ele>
        <time>2020-10-25T12:27:20.000Z</time>
      </trkpt>
      <trkpt lat="43.64193" lon="3.82318">
        <ele>100</ele>
        <time>2020-10-25T12:27:21.000Z</time>
      </trkpt>
      <trkpt lat="43.64196" lon="3.82315">
        <ele>100</ele>
        <time>2020-10-25T12:27:22.000Z</time>
      </trkpt>
      <trkpt lat="43.64199" lon="3.82313">
        <ele>100.02958518633</ele>
        <time>2020-10-25T12:27:23.000Z</time>
      </trkpt>
      <trkpt lat="43.64202" lon="3.82311">
        <ele>100.12820457796</ele>
        <time>2020-10-25T12:27:24.000Z</time>
      </trkpt>
      <trkpt lat="43.64206" lon="3.82309">
        <ele>100.22682396959</ele>
        <time>2020-10-25T12:27:25.000Z</time>
      </trkpt>
      <trkpt lat="43.64209" lon="3.82307">
        <ele>100.32544336123</ele>
        <time>2020-10-25T12:27:26.000Z</time>
      </trkpt>
      <trkpt lat="43.64212" lon="3.82305">
        <ele>100.42406275286</ele>
        <time>2020-10-25T12:27:27.000Z</time>
      </trkpt>
      <trkpt lat="43.64216" lon="3.82304">
        <ele>100.52268214449</ele>
        <time>2020-10-25T12:27:28.000Z</time>
      </trkpt>
      <trkpt lat="43.64219" lon="3.82303">
        <ele>100.62130153613</ele>
        <time>2020-10-25T12:27:29.000Z</time>
      </trkpt>
      <trkpt lat="43.64223" lon="3.82303">
        <ele>100.71992092776</ele>
        <time>2020-10-25T12:27:30.000Z</time>
      </trkpt>
      <trkpt lat="43.64227" lon="3.82303">
        <ele>100.81854031939</ele>
        <time>2020-10-25T12:27:31.000Z</time>
      </trkpt>
      <trkpt lat="43.64232" lon="3.82303">
        <ele>100.91715971103</ele>
        <time>2020-10-25T12:27:32.000Z</time>
      </trkpt>
      <trkpt lat="43.64236" lon="3.82303">
        <ele>101</ele>
        <time>2020-10-25T12:27:33.000Z</time>
      </trkpt>
      <trkpt lat="43.6424" lon="3.82303">
        <ele>101</ele>
        <time>2020-10-25T12:27:34.000Z</time>
      </trkpt>
      <trkpt lat="43.64244" lon="3.82303">
        <ele>101</ele>
        <time>2020-10-25T12:27:35.000Z</time>
      </trkpt>
      <trkpt lat="43.64248" lon="3.82302">
        <ele>101</ele>
        <time>2020-10-25T12:27:36.000Z</time>
      </trkpt>
      <trkpt lat="43.64252" lon="3.82301">
        <ele>101</ele>
        <time>2020-10-25T12:27:37.000Z</time>
      </trkpt>
      <trkpt lat="43.64256" lon="3.82302">
        <ele>101</ele>
        <time>2020-10-25T12:27:38.000Z</time>
      </trkpt>
      <trkpt lat="43.64261" lon="3.82302">
        <ele>101</ele>
        <time>2020-10-25T12:27:39.000Z</time>
      </trkpt>
      <trkpt lat="43.64265" lon="3.82304">
        <ele>101</ele>
        <time>2020-10-25T12:27:40.000Z</time>
      </trkpt>
      <trkpt lat="43.64268" lon="3.82308">
        <ele>101</ele>
        <time>2020-10-25T12:27:41.000Z</time>
      </trkpt>
      <trkpt lat="43.64272" lon="3.8231">
        <ele>101</ele>
        <time>2020-10-25T12:27:42.000Z</time>
      </trkpt>
      <trkpt lat="43.64276" lon="3.82312">
        <ele>101.02918229314</ele>
        <time>2020-10-25T12:27:43.000Z</time>
      </trkpt>
      <trkpt lat="43.6428" lon="3.82311">
        <ele>101.12645867886</ele>
        <time>2020-10-25T12:27:44.000Z</time>
      </trkpt>
      <trkpt lat="43.64284" lon="3.8231">
        <ele>101.22373506457</ele>
        <time>2020-10-25T12:27:45.000Z</time>
      </trkpt>
      <trkpt lat="43.64288" lon="3.82308">
        <ele>101.32101145029</ele>
        <time>2020-10-25T12:27:46.000Z</time>
      </trkpt>
      <trkpt lat="43.64291" lon="3.82305">
        <ele>101.418287836</ele>
        <time>2020-10-25T12:27:47.000Z</time>
      </trkpt>
      <trkpt lat="43.64293" lon="3.82301">
        <ele>101.51556422171</ele>
        <time>2020-10-25T12:27:48.000Z</time>
      </trkpt>
      <trkpt lat="43.64295" lon="3.82298">
        <ele>101.61284060743</ele>
        <time>2020-10-25T12:27:49.000Z</time>
      </trkpt>
      <trkpt lat="43.64298" lon="3.82295">
        <ele>101.71011699314</ele>
        <time>2020-10-25T12:27:50.000Z</time>
      </trkpt>
      <trkpt lat="43.64301" lon="3.82296">
        <ele>101.80739337886</ele>
        <time>2020-10-25T12:27:51.000Z</time>
      </trkpt>
      <trkpt lat="43.64305" lon="3.82297">
        <ele>101.90466976457</ele>
        <time>2020-10-25T12:27:52.000Z</time>
      </trkpt>
      <trkpt lat="43.64309" lon="3.82297">
        <ele>102</ele>
        <time>2020-10-25T12:27:53.000Z</time>
      </trkpt>
      <trkpt lat="43.64313" lon="3.82297">
        <ele>102</ele>
        <time>2020-10-25T12:27:54.000Z</time>
      </trkpt>
      <trkpt lat="43.64316" lon="3.82296">
        <ele>102</ele>
        <time>2020-10-25T12:27:55.000Z</time>
      </trkpt>
      <trkpt lat="43.6432" lon="3.82295">
        <ele>102</ele>
        <time>2020-10-25T12:27:56.000Z</time>
      </trkpt>
      <trkpt lat="43.64323" lon="3.82294">
        <ele>102</ele>
        <time>2020-10-25T12:27:57.000Z</time>
      </trkpt>
      <trkpt lat="43.64326" lon="3.82292">
        <ele>102</ele>
        <time>2020-10-25T12:27:58.000Z</time>
      </trkpt>
      <trkpt lat="43.64329" lon="3.82292">
        <ele>102</ele>
        <time>2020-10-25T12:27:59.000Z</time>
      </trkpt>
      <trkpt lat="43.64332" lon="3.8229">
        <ele>102</ele>
        <time>2020-10-25T12:28:00.000Z</time>
      </trkpt>
      <trkpt lat="43.64336" lon="3.82289">
        <ele>102</ele>
        <time>2020-10-25T12:28:01.000Z</time>
      </trkpt>
      <trkpt lat="43.64339" lon="3.82287">
        <ele>102</ele>
        <time>2020-10-25T12:28:02.000Z</time>
      </trkpt>
      <trkpt lat="43.64342" lon="3.82286">
        <ele>102</ele>
        <time>2020-10-25T12:28:03.000Z</time>
      </trkpt>
      <trkpt lat="43.64345" lon="3.82284">
        <ele>102</ele>
        <time>2020-10-25T12:28:04.000Z</time>
      </trkpt>
      <trkpt lat="43.64347" lon="3.82281">
        <ele>102</ele>
        <time>2020-10-25T12:28:05.000Z</time>
      </trkpt>
      <trkpt lat="43.64349" lon="3.82278">
        <ele>102</ele>
        <time>2020-10-25T12:28:06.000Z</time>
      </trkpt>
      <trkpt lat="43.64351" lon="3.82276">
        <ele>102</ele>
        <time>2020-10-25T12:28:07.000Z</time>
      </trkpt>
      <trkpt lat="43.64352" lon="3.82274">
        <ele>102</ele>
        <time>2020-10-25T12:28:08.000Z</time>
      </trkpt>
      <trkpt lat="43.64354" lon="3.82271">
        <ele>102</ele>
        <time>2020-10-25T12:28:10.000Z</time>
      </trkpt>
      <trkpt lat="43.64352" lon="3.82269">
        <ele>102</ele>
        <time>2020-10-25T12:28:16.000Z</time>
      </trkpt>
      <trkpt lat="43.6435" lon="3.82269">
        <ele>102</ele>
        <time>2020-10-25T12:28:22.000Z</time>
      </trkpt>
      <trkpt lat="43.64355" lon="3.82264">
        <ele>101</ele>
        <time>2020-10-25T12:28:31.000Z</time>
      </trkpt>
      <trkpt lat="43.64359" lon="3.82263">
        <ele>101</ele>
        <time>2020-10-25T12:28:32.000Z</time>
      </trkpt>
      <trkpt lat="43.64362" lon="3.82264">
        <ele>101</ele>
        <time>2020-10-25T12:28:33.000Z</time>
      </trkpt>
      <trkpt lat="43.64366" lon="3.82264">
        <ele>101</ele>
        <time>2020-10-25T12:28:34.000Z</time>
      </trkpt>
      <trkpt lat="43.64369" lon="3.82262">
        <ele>101</ele>
        <time>2020-10-25T12:28:35.000Z</time>
      </trkpt>
      <trkpt lat="43.64372" lon="3.82259">
        <ele>101</ele>
        <time>2020-10-25T12:28:36.000Z</time>
      </trkpt>
      <trkpt lat="43.64375" lon="3.82257">
        <ele>101</ele>
        <time>2020-10-25T12:28:37.000Z</time>
      </trkpt>
      <trkpt lat="43.64379" lon="3.82257">
        <ele>101</ele>
        <time>2020-10-25T12:28:38.000Z</time>
      </trkpt>
      <trkpt lat="43.64383" lon="3.82257">
        <ele>101</ele>
        <time>2020-10-25T12:28:39.000Z</time>
      </trkpt>
      <trkpt lat="43.64386" lon="3.82256">
        <ele>101</ele>
        <time>2020-10-25T12:28:40.000Z</time>
      </trkpt>
      <trkpt lat="43.64389" lon="3.82255">
        <ele>101</ele>
        <time>2020-10-25T12:28:41.000Z</time>
      </trkpt>
      <trkpt lat="43.64392" lon="3.82254">
        <ele>101</ele>
        <time>2020-10-25T12:28:42.000Z</time>
      </trkpt>
      <trkpt lat="43.64395" lon="3.82252">
        <ele>101</ele>
        <time>2020-10-25T12:28:43.000Z</time>
      </trkpt>
      <trkpt lat="43.64398" lon="3.82251">
        <ele>101</ele>
        <time>2020-10-25T12:28:44.000Z</time>
      </trkpt>
      <trkpt lat="43.64401" lon="3.8225">
        <ele>101</ele>
        <time>2020-10-25T12:28:45.000Z</time>
      </trkpt>
      <trkpt lat="43.64403" lon="3.82248">
        <ele>101</ele>
        <time>2020-10-25T12:28:46.000Z</time>
      </trkpt>
      <trkpt lat="43.64406" lon="3.82246">
        <ele>101</ele>
        <time>2020-10-25T12:28:47.000Z</time>
      </trkpt>
      <trkpt lat="43.64409" lon="3.82243">
        <ele>101</ele>
        <time>2020-10-25T12:28:48.000Z</time>
      </trkpt>
      <trkpt lat="43.64411" lon="3.82239">
        <ele>101</ele>
        <time>2020-10-25T12:28:49.000Z</time>
      </trkpt>
      <trkpt lat="43.64413" lon="3.82235">
        <ele>101</ele>
        <time>2020-10-25T12:28:50.000Z</time>
      </trkpt>
      <trkpt lat="43.64416" lon="3.82233">
        <ele>100.99897152263</ele>
        <time>2020-10-25T12:28:51.000Z</time>
      </trkpt>
      <trkpt lat="43.6442" lon="3.82232">
        <ele>100.8960908642</ele>
        <time>2020-10-25T12:28:52.000Z</time>
      </trkpt>
      <trkpt lat="43.64423" lon="3.82234">
        <ele>100.79321020576</ele>
        <time>2020-10-25T12:28:53.000Z</time>
      </trkpt>
      <trkpt lat="43.64426" lon="3.82239">
        <ele>100.69032954733</ele>
        <time>2020-10-25T12:28:54.000Z</time>
      </trkpt>
      <trkpt lat="43.64428" lon="3.82243">
        <ele>100.58744888889</ele>
        <time>2020-10-25T12:28:55.000Z</time>
      </trkpt>
      <trkpt lat="43.6443" lon="3.82248">
        <ele>100.48456823045</ele>
        <time>2020-10-25T12:28:56.000Z</time>
      </trkpt>
      <trkpt lat="43.64432" lon="3.82251">
        <ele>100.38168757202</ele>
        <time>2020-10-25T12:28:57.000Z</time>
      </trkpt>
      <trkpt lat="43.64435" lon="3.82254">
        <ele>100.27880691358</ele>
        <time>2020-10-25T12:28:58.000Z</time>
      </trkpt>
      <trkpt lat="43.64438" lon="3.82257">
        <ele>100.17592625514</ele>
        <time>2020-10-25T12:28:59.000Z</time>
      </trkpt>
      <trkpt lat="43.64441" lon="3.82259">
        <ele>100.07304559671</ele>
        <time>2020-10-25T12:29:00.000Z</time>
      </trkpt>
      <trkpt lat="43.64444" lon="3.82262">
        <ele>100</ele>
        <time>2020-10-25T12:29:01.000Z</time>
      </trkpt>
      <trkpt lat="43.64447" lon="3.82265">
        <ele>100</ele>
        <time>2020-10-25T12:29:02.000Z</time>
      </trkpt>
      <trkpt lat="43.6445" lon="3.82268">
        <ele>100</ele>
        <time>2020-10-25T12:29:03.000Z</time>
      </trkpt>
      <trkpt lat="43.64452" lon="3.8227">
        <ele>100</ele>
        <time>2020-10-25T12:29:04.000Z</time>
      </trkpt>
      <trkpt lat="43.64455" lon="3.82272">
        <ele>100</ele>
        <time>2020-10-25T12:29:05.000Z</time>
      </trkpt>
      <trkpt lat="43.64458" lon="3.82273">
        <ele>100</ele>
        <time>2020-10-25T12:29:06.000Z</time>
      </trkpt>
      <trkpt lat="43.64462" lon="3.82274">
        <ele>100</ele>
        <time>2020-10-25T12:29:07.000Z</time>
      </trkpt>
      <trkpt lat="43.64465" lon="3.82277">
        <ele>100</ele>
        <time>2020-10-25T12:29:08.000Z</time>
      </trkpt>
      <trkpt lat="43.64467" lon="3.82281">
        <ele>100</ele>
        <time>2020-10-25T12:29:09.000Z</time>
      </trkpt>
      <trkpt lat="43.64468" lon="3.82286">
        <ele>100</ele>
        <time>2020-10-25T12:29:10.000Z</time>
      </trkpt>
      <trkpt lat="43.64471" lon="3.82289">
        <ele>100.0254409234</ele>
        <time>2020-10-25T12:29:11.000Z</time>
      </trkpt>
      <trkpt lat="43.64474" lon="3.8229">
        <ele>100.12328822025</ele>
        <time>2020-10-25T12:29:12.000Z</time>
      </trkpt>
      <trkpt lat="43.64477" lon="3.82289">
        <ele>100.2211355171</ele>
        <time>2020-10-25T12:29:13.000Z</time>
      </trkpt>
      <trkpt lat="43.64481" lon="3.82287">
        <ele>100.31898281394</ele>
        <time>2020-10-25T12:29:14.000Z</time>
      </trkpt>
      <trkpt lat="43.64485" lon="3.82285">
        <ele>100.41683011079</ele>
        <time>2020-10-25T12:29:15.000Z</time>
      </trkpt>
      <trkpt lat="43.6449" lon="3.82286">
        <ele>100.51467740764</ele>
        <time>2020-10-25T12:29:16.000Z</time>
      </trkpt>
      <trkpt lat="43.64495" lon="3.82288">
        <ele>100.61252470449</ele>
        <time>2020-10-25T12:29:17.000Z</time>
      </trkpt>
      <trkpt lat="43.64499" lon="3.82292">
        <ele>100.71037200133</ele>
        <time>2020-10-25T12:29:18.000Z</time>
      </trkpt>
      <trkpt lat="43.64502" lon="3.82295">
        <ele>100.80821929818</ele>
        <time>2020-10-25T12:29:19.000Z</time>
      </trkpt>
      <trkpt lat="43.64504" lon="3.82298">
        <ele>100.90606659503</ele>
        <time>2020-10-25T12:29:20.000Z</time>
      </trkpt>
      <trkpt lat="43.64507" lon="3.823">
        <ele>101.00410677348</ele>
        <time>2020-10-25T12:29:21.000Z</time>
      </trkpt>
      <trkpt lat="43.64509" lon="3.82302">
        <ele>101.10677611054</ele>
        <time>2020-10-25T12:29:22.000Z</time>
      </trkpt>
      <trkpt lat="43.64512" lon="3.82303">
        <ele>101.20944544759</ele>
        <time>2020-10-25T12:29:23.000Z</time>
      </trkpt>
      <trkpt lat="43.64516" lon="3.82304">
        <ele>101.31211478465</ele>
        <time>2020-10-25T12:29:24.000Z</time>
      </trkpt>
      <trkpt lat="43.64519" lon="3.82305">
        <ele>101.4147841217</ele>
        <time>2020-10-25T12:29:25.000Z</time>
      </trkpt>
      <trkpt lat="43.64523" lon="3.82305">
        <ele>101.51745345876</ele>
        <time>2020-10-25T12:29:26.000Z</time>
      </trkpt>
      <trkpt lat="43.64526" lon="3.82306">
        <ele>101.62012279581</ele>
        <time>2020-10-25T12:29:27.000Z</time>
      </trkpt>
      <trkpt lat="43.64529" lon="3.82307">
        <ele>101.72279213287</ele>
        <time>2020-10-25T12:29:28.000Z</time>
      </trkpt>
      <trkpt lat="43.64533" lon="3.82308">
        <ele>101.82546146992</ele>
        <time>2020-10-25T12:29:29.000Z</time>
      </trkpt>
      <trkpt lat="43.64537" lon="3.82309">
        <ele>101.92813080698</ele>
        <time>2020-10-25T12:29:30.000Z</time>
      </trkpt>
      <trkpt lat="43.64541" lon="3.8231">
        <ele>102</ele>
        <time>2020-10-25T12:29:31.000Z</time>
      </trkpt>
      <trkpt lat="43.64545" lon="3.82311">
        <ele>102</ele>
        <time>2020-10-25T12:29:32.000Z</time>
      </trkpt>
      <trkpt lat="43.64549" lon="3.82311">
        <ele>102</ele>
        <time>2020-10-25T12:29:33.000Z</time>
      </trkpt>
      <trkpt lat="43.64552" lon="3.82312">
        <ele>102</ele>
        <time>2020-10-25T12:29:34.000Z</time>
      </trkpt>
      <trkpt lat="43.64556" lon="3.82313">
        <ele>102</ele>
        <time>2020-10-25T12:29:35.000Z</time>
      </trkpt>
      <trkpt lat="43.6456" lon="3.82314">
        <ele>102</ele>
        <time>2020-10-25T12:29:36.000Z</time>
      </trkpt>
      <trkpt lat="43.64563" lon="3.82315">
        <ele>102</ele>
        <time>2020-10-25T12:29:37.000Z</time>
      </trkpt>
      <trkpt lat="43.64567" lon="3.82317">
        <ele>102</ele>
        <time>2020-10-25T12:29:38.000Z</time>
      </trkpt>
      <trkpt lat="43.64571" lon="3.82318">
        <ele>102</ele>
        <time>2020-10-25T12:29:39.000Z</time>
      </trkpt>
      <trkpt lat="43.64575" lon="3.8232">
        <ele>102</ele>
        <time>2020-10-25T12:29:40.000Z</time>
      </trkpt>
      <trkpt lat="43.64578" lon="3.82323">
        <ele>102</ele>
        <time>2020-10-25T12:29:41.000Z</time>
      </trkpt>
      <trkpt lat="43.64581" lon="3.82326">
        <ele>102</ele>
        <time>2020-10-25T12:29:42.000Z</time>
      </trkpt>
      <trkpt lat="43.64585" lon="3.8233">
        <ele>102</ele>
        <time>2020-10-25T12:29:43.000Z</time>
      </trkpt>
      <trkpt lat="43.64588" lon="3.82332">
        <ele>102</ele>
        <time>2020-10-25T12:29:44.000Z</time>
      </trkpt>
      <trkpt lat="43.64591" lon="3.82335">
        <ele>102</ele>
        <time>2020-10-25T12:29:45.000Z</time>
      </trkpt>
      <trkpt lat="43.64595" lon="3.82338">
        <ele>102</ele>
        <time>2020-10-25T12:29:46.000Z</time>
      </trkpt>
      <trkpt lat="43.64598" lon="3.82341">
        <ele>102</ele>
        <time>2020-10-25T12:29:47.000Z</time>
      </trkpt>
      <trkpt lat="43.64601" lon="3.82344">
        <ele>102</ele>
        <time>2020-10-25T12:29:48.000Z</time>
      </trkpt>
      <trkpt lat="43.64605" lon="3.82347">
        <ele>102</ele>
        <time>2020-10-25T12:29:49.000Z</time>
      </trkpt>
      <trkpt lat="43.64608" lon="3.82349">
        <ele>102</ele>
        <time>2020-10-25T12:29:50.000Z</time>
      </trkpt>
      <trkpt lat="43.64611" lon="3.82352">
        <ele>102</ele>
        <time>2020-10-25T12:29:51.000Z</time>
      </trkpt>
      <trkpt lat="43.64615" lon="3.82354">
        <ele>102</ele>
        <time>2020-10-25T12:29:52.000Z</time>
      </trkpt>
      <trkpt lat="43.64618" lon="3.82357">
        <ele>102</ele>
        <time>2020-10-25T12:29:53.000Z</time>
      </trkpt>
      <trkpt lat="43.64622" lon="3.8236">
        <ele>102</ele>
        <time>2020-10-25T12:29:54.000Z</time>
      </trkpt>
      <trkpt lat="43.64625" lon="3.82363">
        <ele>102</ele>
        <time>2020-10-25T12:29:55.000Z</time>
      </trkpt>
      <trkpt lat="43.64628" lon="3.82366">
        <ele>102</ele>
        <time>2020-10-25T12:29:56.000Z</time>
      </trkpt>
      <trkpt lat="43.64631" lon="3.82368">
        <ele>102</ele>
        <time>2020-10-25T12:29:57.000Z</time>
      </trkpt>
      <trkpt lat="43.64635" lon="3.82371">
        <ele>102</ele>
        <time>2020-10-25T12:29:58.000Z</time>
      </trkpt>
      <trkpt lat="43.64638" lon="3.82373">
        <ele>102</ele>
        <time>2020-10-25T12:29:59.000Z</time>
      </trkpt>
      <trkpt lat="43.64641" lon="3.82375">
        <ele>102</ele>
        <time>2020-10-25T12:30:00.000Z</time>
      </trkpt>
      <trkpt lat="43.64644" lon="3.82376">
        <ele>102</ele>
        <time>2020-10-25T12:30:01.000Z</time>
      </trkpt>
      <trkpt lat="43.64648" lon="3.82378">
        <ele>102</ele>
        <time>2020-10-25T12:30:02.000Z</time>
      </trkpt>
      <trkpt lat="43.64651" lon="3.8238">
        <ele>102</ele>
        <time>2020-10-25T12:30:03.000Z</time>
      </trkpt>
      <trkpt lat="43.64654" lon="3.82382">
        <ele>102</ele>
        <time>2020-10-25T12:30:04.000Z</time>
      </trkpt>
      <trkpt lat="43.64658" lon="3.82385">
        <ele>102</ele>
        <time>2020-10-25T12:30:05.000Z</time>
      </trkpt>
      <trkpt lat="43.64661" lon="3.82387">
        <ele>102</ele>
        <time>2020-10-25T12:30:06.000Z</time>
      </trkpt>
      <trkpt lat="43.64664" lon="3.82389">
        <ele>102</ele>
        <time>2020-10-25T12:30:07.000Z</time>
      </trkpt>
      <trkpt lat="43.64667" lon="3.82392">
        <ele>102</ele>
        <time>2020-10-25T12:30:08.000Z</time>
      </trkpt>
      <trkpt lat="43.6467" lon="3.82395">
        <ele>102</ele>
        <time>2020-10-25T12:30:09.000Z</time>
      </trkpt>
      <trkpt lat="43.64673" lon="3.82397">
        <ele>102</ele>
        <time>2020-10-25T12:30:10.000Z</time>
      </trkpt>
      <trkpt lat="43.64677" lon="3.824">
        <ele>102</ele>
        <time>2020-10-25T12:30:11.000Z</time>
      </trkpt>
      <trkpt lat="43.6468" lon="3.82402">
        <ele>102</ele>
        <time>2020-10-25T12:30:12.000Z</time>
      </trkpt>
      <trkpt lat="43.64683" lon="3.82404">
        <ele>102</ele>
        <time>2020-10-25T12:30:13.000Z</time>
      </trkpt>
      <trkpt lat="43.64686" lon="3.82406">
        <ele>102</ele>
        <time>2020-10-25T12:30:14.000Z</time>
      </trkpt>
      <trkpt lat="43.6469" lon="3.82408">
        <ele>102</ele>
        <time>2020-10-25T12:30:15.000Z</time>
      </trkpt>
      <trkpt lat="43.64693" lon="3.8241">
        <ele>102</ele>
        <time>2020-10-25T12:30:16.000Z</time>
      </trkpt>
      <trkpt lat="43.64696" lon="3.82412">
        <ele>102</ele>
        <time>2020-10-25T12:30:17.000Z</time>
      </trkpt>
      <trkpt lat="43.647" lon="3.82414">
        <ele>102</ele>
        <time>2020-10-25T12:30:18.000Z</time>
      </trkpt>
      <trkpt lat="43.64703" lon="3.82416">
        <ele>102</ele>
        <time>2020-10-25T12:30:19.000Z</time>
      </trkpt>
      <trkpt lat="43.64706" lon="3.82418">
        <ele>102</ele>
        <time>2020-10-25T12:30:20.000Z</time>
      </trkpt>
      <trkpt lat="43.64709" lon="3.8242">
        <ele>102.00102953622</ele>
        <time>2020-10-25T12:30:21.000Z</time>
      </trkpt>
      <trkpt lat="43.64713" lon="3.82422">
        <ele>102.10401611402</ele>
        <time>2020-10-25T12:30:22.000Z</time>
      </trkpt>
      <trkpt lat="43.64716" lon="3.82424">
        <ele>102.20700269182</ele>
        <time>2020-10-25T12:30:23.000Z</time>
      </trkpt>
      <trkpt lat="43.6472" lon="3.82426">
        <ele>102.30998926962</ele>
        <time>2020-10-25T12:30:24.000Z</time>
      </trkpt>
      <trkpt lat="43.64723" lon="3.82428">
        <ele>102.41297584742</ele>
        <time>2020-10-25T12:30:25.000Z</time>
      </trkpt>
      <trkpt lat="43.64727" lon="3.82429">
        <ele>102.51596242522</ele>
        <time>2020-10-25T12:30:26.000Z</time>
      </trkpt>
      <trkpt lat="43.6473" lon="3.8243">
        <ele>102.61894900302</ele>
        <time>2020-10-25T12:30:27.000Z</time>
      </trkpt>
      <trkpt lat="43.64734" lon="3.8243">
        <ele>102.72193558083</ele>
        <time>2020-10-25T12:30:28.000Z</time>
      </trkpt>
      <trkpt lat="43.64737" lon="3.82431">
        <ele>102.82492215863</ele>
        <time>2020-10-25T12:30:29.000Z</time>
      </trkpt>
      <trkpt lat="43.64741" lon="3.82431">
        <ele>102.92790873643</ele>
        <time>2020-10-25T12:30:30.000Z</time>
      </trkpt>
      <trkpt lat="43.64745" lon="3.82431">
        <ele>103.02999936</ele>
        <time>2020-10-25T12:30:31.000Z</time>
      </trkpt>
      <trkpt lat="43.64748" lon="3.82431">
        <ele>103.12999936</ele>
        <time>2020-10-25T12:30:32.000Z</time>
      </trkpt>
      <trkpt lat="43.64752" lon="3.82431">
        <ele>103.22999936</ele>
        <time>2020-10-25T12:30:33.000Z</time>
      </trkpt>
      <trkpt lat="43.64755" lon="3.82431">
        <ele>103.32999936</ele>
        <time>2020-10-25T12:30:34.000Z</time>
      </trkpt>
      <trkpt lat="43.64759" lon="3.82431">
        <ele>103.42999936</ele>
        <time>2020-10-25T12:30:35.000Z</time>
      </trkpt>
      <trkpt lat="43.64762" lon="3.8243">
        <ele>103.52999936</ele>
        <time>2020-10-25T12:30:36.000Z</time>
      </trkpt>
      <trkpt lat="43.64765" lon="3.82429">
        <ele>103.62999936</ele>
        <time>2020-10-25T12:30:37.000Z</time>
      </trkpt>
      <trkpt lat="43.64769" lon="3.82429">
        <ele>103.72999936</ele>
        <time>2020-10-25T12:30:38.000Z</time>
      </trkpt>
      <trkpt lat="43.64772" lon="3.82428">
        <ele>103.82999936</ele>
        <time>2020-10-25T12:30:39.000Z</time>
      </trkpt>
      <trkpt lat="43.64775" lon="3.82428">
        <ele>103.92999936</ele>
        <time>2020-10-25T12:30:40.000Z</time>
      </trkpt>
      <trkpt lat="43.64778" lon="3.82427">
        <ele>104.02955604766</ele>
        <time>2020-10-25T12:30:41.000Z</time>
      </trkpt>
      <trkpt lat="43.64781" lon="3.82427">
        <ele>104.12807830833</ele>
        <time>2020-10-25T12:30:42.000Z</time>
      </trkpt>
      <trkpt lat="43.64784" lon="3.82427">
        <ele>104.226600569</ele>
        <time>2020-10-25T12:30:43.000Z</time>
      </trkpt>
      <trkpt lat="43.64787" lon="3.82428">
        <ele>104.32512282967</ele>
        <time>2020-10-25T12:30:44.000Z</time>
      </trkpt>
      <trkpt lat="43.6479" lon="3.8243">
        <ele>104.42364509034</ele>
        <time>2020-10-25T12:30:45.000Z</time>
      </trkpt>
      <trkpt lat="43.64792" lon="3.82432">
        <ele>104.52216735101</ele>
        <time>2020-10-25T12:30:46.000Z</time>
      </trkpt>
      <trkpt lat="43.64795" lon="3.82434">
        <ele>104.62068961169</ele>
        <time>2020-10-25T12:30:47.000Z</time>
      </trkpt>
      <trkpt lat="43.64797" lon="3.82435">
        <ele>104.71921187236</ele>
        <time>2020-10-25T12:30:48.000Z</time>
      </trkpt>
      <trkpt lat="43.64799" lon="3.82436">
        <ele>104.81773413303</ele>
        <time>2020-10-25T12:30:49.000Z</time>
      </trkpt>
      <trkpt lat="43.64802" lon="3.82437">
        <ele>104.9162563937</ele>
        <time>2020-10-25T12:30:50.000Z</time>
      </trkpt>
      <trkpt lat="43.64804" lon="3.82438">
        <ele>105.01519788768</ele>
        <time>2020-10-25T12:30:51.000Z</time>
      </trkpt>
      <trkpt lat="43.64806" lon="3.8244">
        <ele>105.11651497742</ele>
        <time>2020-10-25T12:30:52.000Z</time>
      </trkpt>
      <trkpt lat="43.64808" lon="3.82441">
        <ele>105.21783206717</ele>
        <time>2020-10-25T12:30:53.000Z</time>
      </trkpt>
      <trkpt lat="43.64811" lon="3.82442">
        <ele>105.31914915691</ele>
        <time>2020-10-25T12:30:54.000Z</time>
      </trkpt>
      <trkpt lat="43.64813" lon="3.82443">
        <ele>105.42046624666</ele>
        <time>2020-10-25T12:30:55.000Z</time>
      </trkpt>
      <trkpt lat="43.64816" lon="3.82444">
        <ele>105.5217833364</ele>
        <time>2020-10-25T12:30:56.000Z</time>
      </trkpt>
      <trkpt lat="43.64818" lon="3.82445">
        <ele>105.62310042615</ele>
        <time>2020-10-25T12:30:57.000Z</time>
      </trkpt>
      <trkpt lat="43.6482" lon="3.82447">
        <ele>105.72441751589</ele>
        <time>2020-10-25T12:30:58.000Z</time>
      </trkpt>
      <trkpt lat="43.64823" lon="3.82448">
        <ele>105.82573460564</ele>
        <time>2020-10-25T12:30:59.000Z</time>
      </trkpt>
      <trkpt lat="43.64825" lon="3.82449">
        <ele>105.92705169538</ele>
        <time>2020-10-25T12:31:00.000Z</time>
      </trkpt>
      <trkpt lat="43.64827" lon="3.8245">
        <ele>106.02726386687</ele>
        <time>2020-10-25T12:31:01.000Z</time>
      </trkpt>
      <trkpt lat="43.6483" lon="3.82452">
        <ele>106.12463481998</ele>
        <time>2020-10-25T12:31:02.000Z</time>
      </trkpt>
      <trkpt lat="43.64832" lon="3.82453">
        <ele>106.22200577309</ele>
        <time>2020-10-25T12:31:03.000Z</time>
      </trkpt>
      <trkpt lat="43.64834" lon="3.82454">
        <ele>106.31937672619</ele>
        <time>2020-10-25T12:31:04.000Z</time>
      </trkpt>
      <trkpt lat="43.64837" lon="3.82455">
        <ele>106.4167476793</ele>
        <time>2020-10-25T12:31:05.000Z</time>
      </trkpt>
      <trkpt lat="43.64839" lon="3.82456">
        <ele>106.51411863241</ele>
        <time>2020-10-25T12:31:06.000Z</time>
      </trkpt>
      <trkpt lat="43.64841" lon="3.82457">
        <ele>106.61148958551</ele>
        <time>2020-10-25T12:31:07.000Z</time>
      </trkpt>
      <trkpt lat="43.64844" lon="3.82458">
        <ele>106.70886053862</ele>
        <time>2020-10-25T12:31:08.000Z</time>
      </trkpt>
      <trkpt lat="43.64846" lon="3.82459">
        <ele>106.80623149173</ele>
        <time>2020-10-25T12:31:09.000Z</time>
      </trkpt>
      <trkpt lat="43.64849" lon="3.8246">
        <ele>106.90360244484</ele>
        <time>2020-10-25T12:31:10.000Z</time>
      </trkpt>
      <trkpt lat="43.64852" lon="3.8246">
        <ele>107.00102742069</ele>
        <time>2020-10-25T12:31:11.000Z</time>
      </trkpt>
      <trkpt lat="43.64854" lon="3.82461">
        <ele>107.10380237741</ele>
        <time>2020-10-25T12:31:12.000Z</time>
      </trkpt>
      <trkpt lat="43.64856" lon="3.82461">
        <ele>107.20657733413</ele>
        <time>2020-10-25T12:31:13.000Z</time>
      </trkpt>
      <trkpt lat="43.64858" lon="3.82461">
        <ele>107.30935229085</ele>
        <time>2020-10-25T12:31:14.000Z</time>
      </trkpt>
      <trkpt lat="43.64861" lon="3.82462">
        <ele>107.41212724756</ele>
        <time>2020-10-25T12:31:15.000Z</time>
      </trkpt>
      <trkpt lat="43.64863" lon="3.82463">
        <ele>107.51490220428</ele>
        <time>2020-10-25T12:31:16.000Z</time>
      </trkpt>
      <trkpt lat="43.64866" lon="3.82463">
        <ele>107.617677161</ele>
        <time>2020-10-25T12:31:17.000Z</time>
      </trkpt>
      <trkpt lat="43.64868" lon="3.82463">
        <ele>107.72045211772</ele>
        <time>2020-10-25T12:31:18.000Z</time>
      </trkpt>
      <trkpt lat="43.64871" lon="3.82462">
        <ele>107.82322707444</ele>
        <time>2020-10-25T12:31:19.000Z</time>
      </trkpt>
      <trkpt lat="43.64874" lon="3.82462">
        <ele>107.92600203116</ele>
        <time>2020-10-25T12:31:20.000Z</time>
      </trkpt>
      <trkpt lat="43.64876" lon="3.82462">
        <ele>108.02726386687</ele>
        <time>2020-10-25T12:31:21.000Z</time>
      </trkpt>
      <trkpt lat="43.64879" lon="3.82461">
        <ele>108.12463481998</ele>
        <time>2020-10-25T12:31:22.000Z</time>
      </trkpt>
      <trkpt lat="43.64882" lon="3.82461">
        <ele>108.22200577309</ele>
        <time>2020-10-25T12:31:23.000Z</time>
      </trkpt>
      <trkpt lat="43.64884" lon="3.8246">
        <ele>108.31937672619</ele>
        <time>2020-10-25T12:31:24.000Z</time>
      </trkpt>
      <trkpt lat="43.64887" lon="3.8246">
        <ele>108.4167476793</ele>
        <time>2020-10-25T12:31:25.000Z</time>
      </trkpt>
      <trkpt lat="43.6489" lon="3.8246">
        <ele>108.51411863241</ele>
        <time>2020-10-25T12:31:26.000Z</time>
      </trkpt>
      <trkpt lat="43.64892" lon="3.8246">
        <ele>108.61148958551</ele>
        <time>2020-10-25T12:31:27.000Z</time>
      </trkpt>
      <trkpt lat="43.64895" lon="3.8246">
        <ele>108.70886053862</ele>
        <time>2020-10-25T12:31:28.000Z</time>
      </trkpt>
      <trkpt lat="43.64897" lon="3.82459">
        <ele>108.80623149173</ele>
        <time>2020-10-25T12:31:29.000Z</time>
      </trkpt>
      <trkpt lat="43.649" lon="3.82459">
        <ele>108.90360244484</ele>
        <time>2020-10-25T12:31:30.000Z</time>
      </trkpt>
      <trkpt lat="43.64903" lon="3.82459">
        <ele>109.00205907244</ele>
        <time>2020-10-25T12:31:31.000Z</time>
      </trkpt>
      <trkpt lat="43.64905" lon="3.8246">
        <ele>109.20803222804</ele>
        <time>2020-10-25T12:31:32.000Z</time>
      </trkpt>
      <trkpt lat="43.64908" lon="3.82462">
        <ele>109.41400538364</ele>
        <time>2020-10-25T12:31:33.000Z</time>
      </trkpt>
      <trkpt lat="43.64909" lon="3.82466">
        <ele>109.61997853924</ele>
        <time>2020-10-25T12:31:34.000Z</time>
      </trkpt>
      <trkpt lat="43.64911" lon="3.82469">
        <ele>109.82595169485</ele>
        <time>2020-10-25T12:31:35.000Z</time>
      </trkpt>
      <trkpt lat="43.64912" lon="3.82472">
        <ele>110.03192485045</ele>
        <time>2020-10-25T12:31:36.000Z</time>
      </trkpt>
      <trkpt lat="43.64914" lon="3.82475">
        <ele>110.23789800605</ele>
        <time>2020-10-25T12:31:37.000Z</time>
      </trkpt>
      <trkpt lat="43.64915" lon="3.82479">
        <ele>110.44387116165</ele>
        <time>2020-10-25T12:31:38.000Z</time>
      </trkpt>
      <trkpt lat="43.64916" lon="3.82482">
        <ele>110.64984431725</ele>
        <time>2020-10-25T12:31:39.000Z</time>
      </trkpt>
      <trkpt lat="43.64917" lon="3.82485">
        <ele>110.85581747285</ele>
        <time>2020-10-25T12:31:40.000Z</time>
      </trkpt>
      <trkpt lat="43.64918" lon="3.82489">
        <ele>111.02996940019</ele>
        <time>2020-10-25T12:31:41.000Z</time>
      </trkpt>
      <trkpt lat="43.64919" lon="3.82492">
        <ele>111.12986953203</ele>
        <time>2020-10-25T12:31:42.000Z</time>
      </trkpt>
      <trkpt lat="43.64921" lon="3.82495">
        <ele>111.22976966386</ele>
        <time>2020-10-25T12:31:43.000Z</time>
      </trkpt>
      <trkpt lat="43.64922" lon="3.82498">
        <ele>111.3296697957</ele>
        <time>2020-10-25T12:31:44.000Z</time>
      </trkpt>
      <trkpt lat="43.64923" lon="3.82502">
        <ele>111.42956992753</ele>
        <time>2020-10-25T12:31:45.000Z</time>
      </trkpt>
      <trkpt lat="43.64924" lon="3.82505">
        <ele>111.52947005937</ele>
        <time>2020-10-25T12:31:46.000Z</time>
      </trkpt>
      <trkpt lat="43.64926" lon="3.82508">
        <ele>111.62937019121</ele>
        <time>2020-10-25T12:31:47.000Z</time>
      </trkpt>
      <trkpt lat="43.64927" lon="3.82511">
        <ele>111.72927032304</ele>
        <time>2020-10-25T12:31:48.000Z</time>
      </trkpt>
      <trkpt lat="43.64927" lon="3.82515">
        <ele>111.82917045488</ele>
        <time>2020-10-25T12:31:49.000Z</time>
      </trkpt>
      <trkpt lat="43.64928" lon="3.82519">
        <ele>111.92907058672</ele>
        <time>2020-10-25T12:31:50.000Z</time>
      </trkpt>
      <trkpt lat="43.64928" lon="3.82523">
        <ele>112.02823730001</ele>
        <time>2020-10-25T12:31:51.000Z</time>
      </trkpt>
      <trkpt lat="43.64929" lon="3.82527">
        <ele>112.12560837447</ele>
        <time>2020-10-25T12:31:52.000Z</time>
      </trkpt>
      <trkpt lat="43.64929" lon="3.82531">
        <ele>112.22297944894</ele>
        <time>2020-10-25T12:31:53.000Z</time>
      </trkpt>
      <trkpt lat="43.6493" lon="3.82535">
        <ele>112.3203505234</ele>
        <time>2020-10-25T12:31:54.000Z</time>
      </trkpt>
      <trkpt lat="43.64931" lon="3.82539">
        <ele>112.41772159787</ele>
        <time>2020-10-25T12:31:55.000Z</time>
      </trkpt>
      <trkpt lat="43.64931" lon="3.82543">
        <ele>112.51509267234</ele>
        <time>2020-10-25T12:31:56.000Z</time>
      </trkpt>
      <trkpt lat="43.64932" lon="3.82547">
        <ele>112.6124637468</ele>
        <time>2020-10-25T12:31:57.000Z</time>
      </trkpt>
      <trkpt lat="43.64933" lon="3.82551">
        <ele>112.70983482127</ele>
        <time>2020-10-25T12:31:58.000Z</time>
      </trkpt>
      <trkpt lat="43.64934" lon="3.82555">
        <ele>112.80720589573</ele>
        <time>2020-10-25T12:31:59.000Z</time>
      </trkpt>
      <trkpt lat="43.64935" lon="3.82559">
        <ele>112.9045769702</ele>
        <time>2020-10-25T12:32:00.000Z</time>
      </trkpt>
      <trkpt lat="43.64936" lon="3.82563">
        <ele>113.00205826889</ele>
        <time>2020-10-25T12:32:01.000Z</time>
      </trkpt>
      <trkpt lat="43.64937" lon="3.82566">
        <ele>113.10493879185</ele>
        <time>2020-10-25T12:32:02.000Z</time>
      </trkpt>
      <trkpt lat="43.64937" lon="3.8257">
        <ele>113.20781931481</ele>
        <time>2020-10-25T12:32:03.000Z</time>
      </trkpt>
      <trkpt lat="43.64938" lon="3.82574">
        <ele>113.31069983776</ele>
        <time>2020-10-25T12:32:04.000Z</time>
      </trkpt>
      <trkpt lat="43.6494" lon="3.82578">
        <ele>113.41358036072</ele>
        <time>2020-10-25T12:32:05.000Z</time>
      </trkpt>
      <trkpt lat="43.64941" lon="3.82581">
        <ele>113.51646088367</ele>
        <time>2020-10-25T12:32:06.000Z</time>
      </trkpt>
      <trkpt lat="43.64943" lon="3.82585">
        <ele>113.61934140663</ele>
        <time>2020-10-25T12:32:07.000Z</time>
      </trkpt>
      <trkpt lat="43.64944" lon="3.82589">
        <ele>113.72222192958</ele>
        <time>2020-10-25T12:32:08.000Z</time>
      </trkpt>
      <trkpt lat="43.64946" lon="3.82592">
        <ele>113.82510245254</ele>
        <time>2020-10-25T12:32:09.000Z</time>
      </trkpt>
      <trkpt lat="43.64949" lon="3.82595">
        <ele>113.9279829755</ele>
        <time>2020-10-25T12:32:10.000Z</time>
      </trkpt>
      <trkpt lat="43.64951" lon="3.82597">
        <ele>114.02979085263</ele>
        <time>2020-10-25T12:32:11.000Z</time>
      </trkpt>
      <trkpt lat="43.64954" lon="3.82599">
        <ele>114.12909581324</ele>
        <time>2020-10-25T12:32:12.000Z</time>
      </trkpt>
      <trkpt lat="43.64957" lon="3.826">
        <ele>114.22840077385</ele>
        <time>2020-10-25T12:32:13.000Z</time>
      </trkpt>
      <trkpt lat="43.6496" lon="3.826">
        <ele>114.32770573446</ele>
        <time>2020-10-25T12:32:14.000Z</time>
      </trkpt>
      <trkpt lat="43.64962" lon="3.82601">
        <ele>114.42701069506</ele>
        <time>2020-10-25T12:32:15.000Z</time>
      </trkpt>
      <trkpt lat="43.64965" lon="3.826">
        <ele>114.52631565567</ele>
        <time>2020-10-25T12:32:16.000Z</time>
      </trkpt>
      <trkpt lat="43.64968" lon="3.82599">
        <ele>114.62562061628</ele>
        <time>2020-10-25T12:32:17.000Z</time>
      </trkpt>
      <trkpt lat="43.64971" lon="3.82598">
        <ele>114.72492557689</ele>
        <time>2020-10-25T12:32:18.000Z</time>
      </trkpt>
      <trkpt lat="43.64974" lon="3.82597">
        <ele>114.8242305375</ele>
        <time>2020-10-25T12:32:19.000Z</time>
      </trkpt>
      <trkpt lat="43.64977" lon="3.82596">
        <ele>114.92353549811</ele>
        <time>2020-10-25T12:32:20.000Z</time>
      </trkpt>
      <trkpt lat="43.6498" lon="3.82595">
        <ele>115.02311589206</ele>
        <time>2020-10-25T12:32:21.000Z</time>
      </trkpt>
      <trkpt lat="43.64983" lon="3.82594">
        <ele>115.1236183723</ele>
        <time>2020-10-25T12:32:22.000Z</time>
      </trkpt>
      <trkpt lat="43.64986" lon="3.82593">
        <ele>115.22412085254</ele>
        <time>2020-10-25T12:32:23.000Z</time>
      </trkpt>
      <trkpt lat="43.64989" lon="3.82592">
        <ele>115.32462333278</ele>
        <time>2020-10-25T12:32:24.000Z</time>
      </trkpt>
      <trkpt lat="43.64992" lon="3.82592">
        <ele>115.42512581303</ele>
        <time>2020-10-25T12:32:25.000Z</time>
      </trkpt>
      <trkpt lat="43.64995" lon="3.82591">
        <ele>115.52562829327</ele>
        <time>2020-10-25T12:32:26.000Z</time>
      </trkpt>
      <trkpt lat="43.64998" lon="3.82591">
        <ele>115.62613077351</ele>
        <time>2020-10-25T12:32:27.000Z</time>
      </trkpt>
      <trkpt lat="43.65001" lon="3.82591">
        <ele>115.72663325375</ele>
        <time>2020-10-25T12:32:28.000Z</time>
      </trkpt>
      <trkpt lat="43.65005" lon="3.8259">
        <ele>115.82713573399</ele>
        <time>2020-10-25T12:32:29.000Z</time>
      </trkpt>
      <trkpt lat="43.65008" lon="3.8259">
        <ele>115.92763821423</ele>
        <time>2020-10-25T12:32:30.000Z</time>
      </trkpt>
      <trkpt lat="43.65011" lon="3.82589">
        <ele>116.05611218846</ele>
        <time>2020-10-25T12:32:31.000Z</time>
      </trkpt>
      <trkpt lat="43.65014" lon="3.82588">
        <ele>116.25651286155</ele>
        <time>2020-10-25T12:32:32.000Z</time>
      </trkpt>
      <trkpt lat="43.65017" lon="3.82588">
        <ele>116.45691353464</ele>
        <time>2020-10-25T12:32:33.000Z</time>
      </trkpt>
      <trkpt lat="43.6502" lon="3.82587">
        <ele>116.65731420773</ele>
        <time>2020-10-25T12:32:34.000Z</time>
      </trkpt>
      <trkpt lat="43.65023" lon="3.82587">
        <ele>116.85771488082</ele>
        <time>2020-10-25T12:32:35.000Z</time>
      </trkpt>
      <trkpt lat="43.65026" lon="3.82587">
        <ele>117.05811555391</ele>
        <time>2020-10-25T12:32:36.000Z</time>
      </trkpt>
      <trkpt lat="43.65029" lon="3.82586">
        <ele>117.258516227</ele>
        <time>2020-10-25T12:32:37.000Z</time>
      </trkpt>
      <trkpt lat="43.65032" lon="3.82585">
        <ele>117.45891690009</ele>
        <time>2020-10-25T12:32:38.000Z</time>
      </trkpt>
      <trkpt lat="43.65035" lon="3.82585">
        <ele>117.65931757318</ele>
        <time>2020-10-25T12:32:39.000Z</time>
      </trkpt>
      <trkpt lat="43.65037" lon="3.82584">
        <ele>117.85971824627</ele>
        <time>2020-10-25T12:32:40.000Z</time>
      </trkpt>
      <trkpt lat="43.6504" lon="3.82583">
        <ele>118.02993950016</ele>
        <time>2020-10-25T12:32:41.000Z</time>
      </trkpt>
      <trkpt lat="43.65043" lon="3.82583">
        <ele>118.12973996311</ele>
        <time>2020-10-25T12:32:42.000Z</time>
      </trkpt>
      <trkpt lat="43.65046" lon="3.82582">
        <ele>118.22954042605</ele>
        <time>2020-10-25T12:32:43.000Z</time>
      </trkpt>
      <trkpt lat="43.65049" lon="3.82581">
        <ele>118.329340889</ele>
        <time>2020-10-25T12:32:44.000Z</time>
      </trkpt>
      <trkpt lat="43.65052" lon="3.8258">
        <ele>118.42914135195</ele>
        <time>2020-10-25T12:32:45.000Z</time>
      </trkpt>
      <trkpt lat="43.65055" lon="3.8258">
        <ele>118.52894181489</ele>
        <time>2020-10-25T12:32:46.000Z</time>
      </trkpt>
      <trkpt lat="43.65057" lon="3.8258">
        <ele>118.62874227784</ele>
        <time>2020-10-25T12:32:47.000Z</time>
      </trkpt>
      <trkpt lat="43.6506" lon="3.82579">
        <ele>118.72854274079</ele>
        <time>2020-10-25T12:32:48.000Z</time>
      </trkpt>
      <trkpt lat="43.65063" lon="3.82579">
        <ele>118.82834320373</ele>
        <time>2020-10-25T12:32:49.000Z</time>
      </trkpt>
      <trkpt lat="43.65066" lon="3.82579">
        <ele>118.92814366668</ele>
        <time>2020-10-25T12:32:50.000Z</time>
      </trkpt>
      <trkpt lat="43.65069" lon="3.82578">
        <ele>119.02805609423</ele>
        <time>2020-10-25T12:32:51.000Z</time>
      </trkpt>
      <trkpt lat="43.65072" lon="3.82578">
        <ele>119.12825643078</ele>
        <time>2020-10-25T12:32:52.000Z</time>
      </trkpt>
      <trkpt lat="43.65074" lon="3.82578">
        <ele>119.22845676732</ele>
        <time>2020-10-25T12:32:53.000Z</time>
      </trkpt>
      <trkpt lat="43.65077" lon="3.82577">
        <ele>119.32865710387</ele>
        <time>2020-10-25T12:32:54.000Z</time>
      </trkpt>
      <trkpt lat="43.6508" lon="3.82577">
        <ele>119.42885744041</ele>
        <time>2020-10-25T12:32:55.000Z</time>
      </trkpt>
      <trkpt lat="43.65083" lon="3.82577">
        <ele>119.52905777696</ele>
        <time>2020-10-25T12:32:56.000Z</time>
      </trkpt>
      <trkpt lat="43.65085" lon="3.82577">
        <ele>119.6292581135</ele>
        <time>2020-10-25T12:32:57.000Z</time>
      </trkpt>
      <trkpt lat="43.65088" lon="3.82576">
        <ele>119.72945845005</ele>
        <time>2020-10-25T12:32:58.000Z</time>
      </trkpt>
      <trkpt lat="43.6509" lon="3.82576">
        <ele>119.82965878659</ele>
        <time>2020-10-25T12:32:59.000Z</time>
      </trkpt>
      <trkpt lat="43.65093" lon="3.82575">
        <ele>119.92985912314</ele>
        <time>2020-10-25T12:33:00.000Z</time>
      </trkpt>
      <trkpt lat="43.65095" lon="3.82573">
        <ele>120</ele>
        <time>2020-10-25T12:33:01.000Z</time>
      </trkpt>
      <trkpt lat="43.65098" lon="3.82572">
        <ele>120</ele>
        <time>2020-10-25T12:33:02.000Z</time>
      </trkpt>
      <trkpt lat="43.651" lon="3.82571">
        <ele>120</ele>
        <time>2020-10-25T12:33:03.000Z</time>
      </trkpt>
      <trkpt lat="43.65103" lon="3.8257">
        <ele>120</ele>
        <time>2020-10-25T12:33:04.000Z</time>
      </trkpt>
      <trkpt lat="43.65106" lon="3.8257">
        <ele>120</ele>
        <time>2020-10-25T12:33:05.000Z</time>
      </trkpt>
      <trkpt lat="43.65109" lon="3.82571">
        <ele>120</ele>
        <time>2020-10-25T12:33:06.000Z</time>
      </trkpt>
      <trkpt lat="43.65112" lon="3.82572">
        <ele>120</ele>
        <time>2020-10-25T12:33:07.000Z</time>
      </trkpt>
      <trkpt lat="43.65114" lon="3.82574">
        <ele>120</ele>
        <time>2020-10-25T12:33:08.000Z</time>
      </trkpt>
      <trkpt lat="43.65117" lon="3.82575">
        <ele>120</ele>
        <time>2020-10-25T12:33:09.000Z</time>
      </trkpt>
      <trkpt lat="43.65119" lon="3.82577">
        <ele>120</ele>
        <time>2020-10-25T12:33:10.000Z</time>
      </trkpt>
      <trkpt lat="43.65121" lon="3.82579">
        <ele>120.02912561033</ele>
        <time>2020-10-25T12:33:11.000Z</time>
      </trkpt>
      <trkpt lat="43.65123" lon="3.82581">
        <ele>120.1262130493</ele>
        <time>2020-10-25T12:33:12.000Z</time>
      </trkpt>
      <trkpt lat="43.65125" lon="3.82583">
        <ele>120.22330048826</ele>
        <time>2020-10-25T12:33:13.000Z</time>
      </trkpt>
      <trkpt lat="43.65127" lon="3.82586">
        <ele>120.32038792723</ele>
        <time>2020-10-25T12:33:14.000Z</time>
      </trkpt>
      <trkpt lat="43.65129" lon="3.82588">
        <ele>120.4174753662</ele>
        <time>2020-10-25T12:33:15.000Z</time>
      </trkpt>
      <trkpt lat="43.65132" lon="3.8259">
        <ele>120.51456280516</ele>
        <time>2020-10-25T12:33:16.000Z</time>
      </trkpt>
      <trkpt lat="43.65134" lon="3.82593">
        <ele>120.61165024413</ele>
        <time>2020-10-25T12:33:17.000Z</time>
      </trkpt>
      <trkpt lat="43.65136" lon="3.82595">
        <ele>120.7087376831</ele>
        <time>2020-10-25T12:33:18.000Z</time>
      </trkpt>
      <trkpt lat="43.65138" lon="3.82596">
        <ele>120.80582512207</ele>
        <time>2020-10-25T12:33:19.000Z</time>
      </trkpt>
      <trkpt lat="43.65141" lon="3.82598">
        <ele>120.90291256103</ele>
        <time>2020-10-25T12:33:20.000Z</time>
      </trkpt>
      <trkpt lat="43.65143" lon="3.826">
        <ele>121</ele>
        <time>2020-10-25T12:33:21.000Z</time>
      </trkpt>
      <trkpt lat="43.65145" lon="3.82602">
        <ele>121.10309271549</ele>
        <time>2020-10-25T12:33:22.000Z</time>
      </trkpt>
      <trkpt lat="43.65147" lon="3.82603">
        <ele>121.20618543097</ele>
        <time>2020-10-25T12:33:23.000Z</time>
      </trkpt>
      <trkpt lat="43.65149" lon="3.82605">
        <ele>121.30927814646</ele>
        <time>2020-10-25T12:33:24.000Z</time>
      </trkpt>
      <trkpt lat="43.65151" lon="3.82606">
        <ele>121.41237086194</ele>
        <time>2020-10-25T12:33:25.000Z</time>
      </trkpt>
      <trkpt lat="43.65153" lon="3.82609">
        <ele>121.51546357743</ele>
        <time>2020-10-25T12:33:26.000Z</time>
      </trkpt>
      <trkpt lat="43.65156" lon="3.8261">
        <ele>121.61855629291</ele>
        <time>2020-10-25T12:33:27.000Z</time>
      </trkpt>
      <trkpt lat="43.65159" lon="3.82611">
        <ele>121.7216490084</ele>
        <time>2020-10-25T12:33:28.000Z</time>
      </trkpt>
      <trkpt lat="43.65162" lon="3.82612">
        <ele>121.82474172388</ele>
        <time>2020-10-25T12:33:29.000Z</time>
      </trkpt>
      <trkpt lat="43.65165" lon="3.82614">
        <ele>121.92783443937</ele>
        <time>2020-10-25T12:33:30.000Z</time>
      </trkpt>
      <trkpt lat="43.65167" lon="3.82616">
        <ele>122.05999872</ele>
        <time>2020-10-25T12:33:31.000Z</time>
      </trkpt>
      <trkpt lat="43.65173" lon="3.82619">
        <ele>122.45999872</ele>
        <time>2020-10-25T12:33:33.000Z</time>
      </trkpt>
      <trkpt lat="43.65175" lon="3.8262">
        <ele>122.65999872</ele>
        <time>2020-10-25T12:33:34.000Z</time>
      </trkpt>
      <trkpt lat="43.65177" lon="3.82622">
        <ele>122.85999872</ele>
        <time>2020-10-25T12:33:35.000Z</time>
      </trkpt>
      <trkpt lat="43.65179" lon="3.82624">
        <ele>123.05999872</ele>
        <time>2020-10-25T12:33:36.000Z</time>
      </trkpt>
      <trkpt lat="43.65181" lon="3.82626">
        <ele>123.25999872</ele>
        <time>2020-10-25T12:33:37.000Z</time>
      </trkpt>
      <trkpt lat="43.65184" lon="3.82628">
        <ele>123.45999872</ele>
        <time>2020-10-25T12:33:38.000Z</time>
      </trkpt>
      <trkpt lat="43.65186" lon="3.8263">
        <ele>123.65999872</ele>
        <time>2020-10-25T12:33:39.000Z</time>
      </trkpt>
      <trkpt lat="43.65188" lon="3.82632">
        <ele>123.85999872</ele>
        <time>2020-10-25T12:33:40.000Z</time>
      </trkpt>
      <trkpt lat="43.6519" lon="3.82634">
        <ele>124</ele>
        <time>2020-10-25T12:33:41.000Z</time>
      </trkpt>
      <trkpt lat="43.65192" lon="3.82637">
        <ele>124</ele>
        <time>2020-10-25T12:33:42.000Z</time>
      </trkpt>
      <trkpt lat="43.65194" lon="3.82639">
        <ele>124</ele>
        <time>2020-10-25T12:33:43.000Z</time>
      </trkpt>
      <trkpt lat="43.65197" lon="3.82641">
        <ele>124</ele>
        <time>2020-10-25T12:33:44.000Z</time>
      </trkpt>
      <trkpt lat="43.65199" lon="3.82643">
        <ele>124</ele>
        <time>2020-10-25T12:33:45.000Z</time>
      </trkpt>
      <trkpt lat="43.65201" lon="3.82645">
        <ele>124</ele>
        <time>2020-10-25T12:33:46.000Z</time>
      </trkpt>
      <trkpt lat="43.65203" lon="3.82647">
        <ele>124</ele>
        <time>2020-10-25T12:33:47.000Z</time>
      </trkpt>
      <trkpt lat="43.65205" lon="3.82648">
        <ele>124</ele>
        <time>2020-10-25T12:33:48.000Z</time>
      </trkpt>
      <trkpt lat="43.65207" lon="3.8265">
        <ele>124</ele>
        <time>2020-10-25T12:33:49.000Z</time>
      </trkpt>
      <trkpt lat="43.65209" lon="3.82651">
        <ele>124</ele>
        <time>2020-10-25T12:33:50.000Z</time>
      </trkpt>
      <trkpt lat="43.65211" lon="3.82653">
        <ele>124.02999936</ele>
        <time>2020-10-25T12:33:51.000Z</time>
      </trkpt>
      <trkpt lat="43.65212" lon="3.82654">
        <ele>124.12999936</ele>
        <time>2020-10-25T12:33:52.000Z</time>
      </trkpt>
      <trkpt lat="43.65214" lon="3.82656">
        <ele>124.22999936</ele>
        <time>2020-10-25T12:33:53.000Z</time>
      </trkpt>
      <trkpt lat="43.65217" lon="3.82657">
        <ele>124.32999936</ele>
        <time>2020-10-25T12:33:54.000Z</time>
      </trkpt>
      <trkpt lat="43.65219" lon="3.82659">
        <ele>124.42999936</ele>
        <time>2020-10-25T12:33:55.000Z</time>
      </trkpt>
      <trkpt lat="43.65221" lon="3.82661">
        <ele>124.52999936</ele>
        <time>2020-10-25T12:33:56.000Z</time>
      </trkpt>
      <trkpt lat="43.65223" lon="3.82661">
        <ele>124.62999936</ele>
        <time>2020-10-25T12:33:57.000Z</time>
      </trkpt>
      <trkpt lat="43.65225" lon="3.82662">
        <ele>124.72999936</ele>
        <time>2020-10-25T12:33:58.000Z</time>
      </trkpt>
      <trkpt lat="43.65227" lon="3.82661">
        <ele>124.82999936</ele>
        <time>2020-10-25T12:33:59.000Z</time>
      </trkpt>
      <trkpt lat="43.65229" lon="3.8266">
        <ele>124.92999936</ele>
        <time>2020-10-25T12:34:00.000Z</time>
      </trkpt>
      <trkpt lat="43.6523" lon="3.82658">
        <ele>124.97000064</ele>
        <time>2020-10-25T12:34:01.000Z</time>
      </trkpt>
      <trkpt lat="43.65232" lon="3.82656">
        <ele>124.87000064</ele>
        <time>2020-10-25T12:34:02.000Z</time>
      </trkpt>
      <trkpt lat="43.65233" lon="3.82653">
        <ele>124.77000064</ele>
        <time>2020-10-25T12:34:03.000Z</time>
      </trkpt>
      <trkpt lat="43.65233" lon="3.8265">
        <ele>124.67000064</ele>
        <time>2020-10-25T12:34:04.000Z</time>
      </trkpt>
      <trkpt lat="43.65235" lon="3.82646">
        <ele>124.57000064</ele>
        <time>2020-10-25T12:34:05.000Z</time>
      </trkpt>
      <trkpt lat="43.65237" lon="3.82643">
        <ele>124.47000064</ele>
        <time>2020-10-25T12:34:06.000Z</time>
      </trkpt>
      <trkpt lat="43.65239" lon="3.82641">
        <ele>124.37000064</ele>
        <time>2020-10-25T12:34:07.000Z</time>
      </trkpt>
      <trkpt lat="43.65242" lon="3.82639">
        <ele>124.27000064</ele>
        <time>2020-10-25T12:34:08.000Z</time>
      </trkpt>
      <trkpt lat="43.65245" lon="3.82639">
        <ele>124.17000064</ele>
        <time>2020-10-25T12:34:09.000Z</time>
      </trkpt>
      <trkpt lat="43.65248" lon="3.8264">
        <ele>124.07000064</ele>
        <time>2020-10-25T12:34:10.000Z</time>
      </trkpt>
      <trkpt lat="43.65251" lon="3.8264">
        <ele>124.02970235546</ele>
        <time>2020-10-25T12:34:11.000Z</time>
      </trkpt>
      <trkpt lat="43.65253" lon="3.82641">
        <ele>124.12871231918</ele>
        <time>2020-10-25T12:34:12.000Z</time>
      </trkpt>
      <trkpt lat="43.65256" lon="3.82642">
        <ele>124.22772228291</ele>
        <time>2020-10-25T12:34:13.000Z</time>
      </trkpt>
      <trkpt lat="43.65258" lon="3.82644">
        <ele>124.32673224664</ele>
        <time>2020-10-25T12:34:14.000Z</time>
      </trkpt>
      <trkpt lat="43.65261" lon="3.82645">
        <ele>124.42574221037</ele>
        <time>2020-10-25T12:34:15.000Z</time>
      </trkpt>
      <trkpt lat="43.65263" lon="3.82646">
        <ele>124.5247521741</ele>
        <time>2020-10-25T12:34:16.000Z</time>
      </trkpt>
      <trkpt lat="43.65266" lon="3.82648">
        <ele>124.62376213783</ele>
        <time>2020-10-25T12:34:17.000Z</time>
      </trkpt>
      <trkpt lat="43.65268" lon="3.8265">
        <ele>124.72277210156</ele>
        <time>2020-10-25T12:34:18.000Z</time>
      </trkpt>
      <trkpt lat="43.6527" lon="3.82652">
        <ele>124.82178206529</ele>
        <time>2020-10-25T12:34:19.000Z</time>
      </trkpt>
      <trkpt lat="43.65273" lon="3.82654">
        <ele>124.92079202902</ele>
        <time>2020-10-25T12:34:20.000Z</time>
      </trkpt>
      <trkpt lat="43.65276" lon="3.82656">
        <ele>124.98039215686</ele>
        <time>2020-10-25T12:34:21.000Z</time>
      </trkpt>
      <trkpt lat="43.65278" lon="3.82658">
        <ele>124.88235294118</ele>
        <time>2020-10-25T12:34:22.000Z</time>
      </trkpt>
      <trkpt lat="43.65281" lon="3.8266">
        <ele>124.78431372549</ele>
        <time>2020-10-25T12:34:23.000Z</time>
      </trkpt>
      <trkpt lat="43.65283" lon="3.82662">
        <ele>124.6862745098</ele>
        <time>2020-10-25T12:34:24.000Z</time>
      </trkpt>
      <trkpt lat="43.65286" lon="3.82664">
        <ele>124.58823529412</ele>
        <time>2020-10-25T12:34:25.000Z</time>
      </trkpt>
      <trkpt lat="43.65288" lon="3.82666">
        <ele>124.49019607843</ele>
        <time>2020-10-25T12:34:26.000Z</time>
      </trkpt>
      <trkpt lat="43.65291" lon="3.82667">
        <ele>124.39215686274</ele>
        <time>2020-10-25T12:34:27.000Z</time>
      </trkpt>
      <trkpt lat="43.65293" lon="3.82669">
        <ele>124.29411764706</ele>
        <time>2020-10-25T12:34:28.000Z</time>
      </trkpt>
      <trkpt lat="43.65296" lon="3.82671">
        <ele>124.19607843137</ele>
        <time>2020-10-25T12:34:29.000Z</time>
      </trkpt>
      <trkpt lat="43.65299" lon="3.82673">
        <ele>124.09803921569</ele>
        <time>2020-10-25T12:34:30.000Z</time>
      </trkpt>
      <trkpt lat="43.65301" lon="3.82674">
        <ele>124</ele>
        <time>2020-10-25T12:34:31.000Z</time>
      </trkpt>
      <trkpt lat="43.65304" lon="3.82676">
        <ele>124</ele>
        <time>2020-10-25T12:34:32.000Z</time>
      </trkpt>
      <trkpt lat="43.65306" lon="3.82678">
        <ele>124</ele>
        <time>2020-10-25T12:34:33.000Z</time>
      </trkpt>
      <trkpt lat="43.65308" lon="3.8268">
        <ele>124</ele>
        <time>2020-10-25T12:34:34.000Z</time>
      </trkpt>
      <trkpt lat="43.6531" lon="3.82682">
        <ele>124</ele>
        <time>2020-10-25T12:34:35.000Z</time>
      </trkpt>
      <trkpt lat="43.65312" lon="3.82684">
        <ele>124</ele>
        <time>2020-10-25T12:34:36.000Z</time>
      </trkpt>
      <trkpt lat="43.65314" lon="3.82686">
        <ele>124</ele>
        <time>2020-10-25T12:34:37.000Z</time>
      </trkpt>
      <trkpt lat="43.65316" lon="3.82688">
        <ele>124</ele>
        <time>2020-10-25T12:34:38.000Z</time>
      </trkpt>
      <trkpt lat="43.65318" lon="3.8269">
        <ele>124</ele>
        <time>2020-10-25T12:34:39.000Z</time>
      </trkpt>
      <trkpt lat="43.6532" lon="3.82692">
        <ele>124</ele>
        <time>2020-10-25T12:34:40.000Z</time>
      </trkpt>
      <trkpt lat="43.65322" lon="3.82694">
        <ele>124</ele>
        <time>2020-10-25T12:34:41.000Z</time>
      </trkpt>
      <trkpt lat="43.65325" lon="3.82695">
        <ele>124</ele>
        <time>2020-10-25T12:34:42.000Z</time>
      </trkpt>
      <trkpt lat="43.65327" lon="3.82697">
        <ele>124</ele>
        <time>2020-10-25T12:34:43.000Z</time>
      </trkpt>
      <trkpt lat="43.65329" lon="3.82698">
        <ele>124</ele>
        <time>2020-10-25T12:34:44.000Z</time>
      </trkpt>
      <trkpt lat="43.65332" lon="3.827">
        <ele>124</ele>
        <time>2020-10-25T12:34:45.000Z</time>
      </trkpt>
      <trkpt lat="43.65334" lon="3.82702">
        <ele>124</ele>
        <time>2020-10-25T12:34:46.000Z</time>
      </trkpt>
      <trkpt lat="43.65336" lon="3.82703">
        <ele>124</ele>
        <time>2020-10-25T12:34:47.000Z</time>
      </trkpt>
      <trkpt lat="43.65339" lon="3.82704">
        <ele>124</ele>
        <time>2020-10-25T12:34:48.000Z</time>
      </trkpt>
      <trkpt lat="43.65341" lon="3.82705">
        <ele>124</ele>
        <time>2020-10-25T12:34:49.000Z</time>
      </trkpt>
      <trkpt lat="43.65344" lon="3.82706">
        <ele>124</ele>
        <time>2020-10-25T12:34:50.000Z</time>
      </trkpt>
      <trkpt lat="43.65346" lon="3.82707">
        <ele>124</ele>
        <time>2020-10-25T12:34:51.000Z</time>
      </trkpt>
      <trkpt lat="43.65349" lon="3.82708">
        <ele>124</ele>
        <time>2020-10-25T12:34:52.000Z</time>
      </trkpt>
      <trkpt lat="43.65351" lon="3.82708">
        <ele>124</ele>
        <time>2020-10-25T12:34:53.000Z</time>
      </trkpt>
      <trkpt lat="43.65353" lon="3.8271">
        <ele>124</ele>
        <time>2020-10-25T12:34:54.000Z</time>
      </trkpt>
      <trkpt lat="43.65355" lon="3.82713">
        <ele>124</ele>
        <time>2020-10-25T12:34:55.000Z</time>
      </trkpt>
      <trkpt lat="43.65358" lon="3.82715">
        <ele>124</ele>
        <time>2020-10-25T12:34:56.000Z</time>
      </trkpt>
      <trkpt lat="43.6536" lon="3.82717">
        <ele>124</ele>
        <time>2020-10-25T12:34:57.000Z</time>
      </trkpt>
      <trkpt lat="43.65362" lon="3.82718">
        <ele>124</ele>
        <time>2020-10-25T12:34:58.000Z</time>
      </trkpt>
      <trkpt lat="43.65365" lon="3.82719">
        <ele>124</ele>
        <time>2020-10-25T12:34:59.000Z</time>
      </trkpt>
      <trkpt lat="43.65368" lon="3.82719">
        <ele>124</ele>
        <time>2020-10-25T12:35:00.000Z</time>
      </trkpt>
      <trkpt lat="43.65371" lon="3.8272">
        <ele>124.02915390605</ele>
        <time>2020-10-25T12:35:01.000Z</time>
      </trkpt>
      <trkpt lat="43.65374" lon="3.82721">
        <ele>124.12633566611</ele>
        <time>2020-10-25T12:35:02.000Z</time>
      </trkpt>
      <trkpt lat="43.65377" lon="3.82722">
        <ele>124.22351742617</ele>
        <time>2020-10-25T12:35:03.000Z</time>
      </trkpt>
      <trkpt lat="43.6538" lon="3.82723">
        <ele>124.32069918622</ele>
        <time>2020-10-25T12:35:04.000Z</time>
      </trkpt>
      <trkpt lat="43.65383" lon="3.82724">
        <ele>124.41788094628</ele>
        <time>2020-10-25T12:35:05.000Z</time>
      </trkpt>
      <trkpt lat="43.65386" lon="3.82726">
        <ele>124.51506270634</ele>
        <time>2020-10-25T12:35:06.000Z</time>
      </trkpt>
      <trkpt lat="43.65389" lon="3.82728">
        <ele>124.61224446639</ele>
        <time>2020-10-25T12:35:07.000Z</time>
      </trkpt>
      <trkpt lat="43.65392" lon="3.82729">
        <ele>124.70942622645</ele>
        <time>2020-10-25T12:35:08.000Z</time>
      </trkpt>
      <trkpt lat="43.65395" lon="3.82731">
        <ele>124.80660798651</ele>
        <time>2020-10-25T12:35:09.000Z</time>
      </trkpt>
      <trkpt lat="43.65398" lon="3.82733">
        <ele>124.90378974656</ele>
        <time>2020-10-25T12:35:10.000Z</time>
      </trkpt>
      <trkpt lat="43.654" lon="3.82735">
        <ele>125.00102953622</ele>
        <time>2020-10-25T12:35:11.000Z</time>
      </trkpt>
      <trkpt lat="43.65402" lon="3.82737">
        <ele>125.10401611402</ele>
        <time>2020-10-25T12:35:12.000Z</time>
      </trkpt>
      <trkpt lat="43.65405" lon="3.82739">
        <ele>125.20700269182</ele>
        <time>2020-10-25T12:35:13.000Z</time>
      </trkpt>
      <trkpt lat="43.65408" lon="3.82741">
        <ele>125.30998926962</ele>
        <time>2020-10-25T12:35:14.000Z</time>
      </trkpt>
      <trkpt lat="43.6541" lon="3.82743">
        <ele>125.41297584742</ele>
        <time>2020-10-25T12:35:15.000Z</time>
      </trkpt>
      <trkpt lat="43.65413" lon="3.82744">
        <ele>125.51596242522</ele>
        <time>2020-10-25T12:35:16.000Z</time>
      </trkpt>
      <trkpt lat="43.65415" lon="3.82747">
        <ele>125.61894900302</ele>
        <time>2020-10-25T12:35:17.000Z</time>
      </trkpt>
      <trkpt lat="43.65417" lon="3.82749">
        <ele>125.72193558083</ele>
        <time>2020-10-25T12:35:18.000Z</time>
      </trkpt>
      <trkpt lat="43.6542" lon="3.82751">
        <ele>125.82492215863</ele>
        <time>2020-10-25T12:35:19.000Z</time>
      </trkpt>
      <trkpt lat="43.65422" lon="3.82753">
        <ele>125.92790873643</ele>
        <time>2020-10-25T12:35:20.000Z</time>
      </trkpt>
      <trkpt lat="43.65424" lon="3.82756">
        <ele>126.02999936</ele>
        <time>2020-10-25T12:35:21.000Z</time>
      </trkpt>
      <trkpt lat="43.65426" lon="3.82758">
        <ele>126.12999936</ele>
        <time>2020-10-25T12:35:22.000Z</time>
      </trkpt>
      <trkpt lat="43.65428" lon="3.82761">
        <ele>126.22999936</ele>
        <time>2020-10-25T12:35:23.000Z</time>
      </trkpt>
      <trkpt lat="43.6543" lon="3.82763">
        <ele>126.32999936</ele>
        <time>2020-10-25T12:35:24.000Z</time>
      </trkpt>
      <trkpt lat="43.65432" lon="3.82766">
        <ele>126.42999936</ele>
        <time>2020-10-25T12:35:25.000Z</time>
      </trkpt>
      <trkpt lat="43.65434" lon="3.82768">
        <ele>126.52999936</ele>
        <time>2020-10-25T12:35:26.000Z</time>
      </trkpt>
      <trkpt lat="43.65435" lon="3.82771">
        <ele>126.62999936</ele>
        <time>2020-10-25T12:35:27.000Z</time>
      </trkpt>
      <trkpt lat="43.65436" lon="3.82774">
        <ele>126.72999936</ele>
        <time>2020-10-25T12:35:28.000Z</time>
      </trkpt>
      <trkpt lat="43.65437" lon="3.82777">
        <ele>126.82999936</ele>
        <time>2020-10-25T12:35:29.000Z</time>
      </trkpt>
      <trkpt lat="43.65438" lon="3.82781">
        <ele>126.92999936</ele>
        <time>2020-10-25T12:35:30.000Z</time>
      </trkpt>
      <trkpt lat="43.65437" lon="3.82784">
        <ele>127</ele>
        <time>2020-10-25T12:35:31.000Z</time>
      </trkpt>
      <trkpt lat="43.65436" lon="3.82787">
        <ele>127</ele>
        <time>2020-10-25T12:35:32.000Z</time>
      </trkpt>
      <trkpt lat="43.65435" lon="3.82788">
        <ele>127</ele>
        <time>2020-10-25T12:35:33.000Z</time>
      </trkpt>
      <trkpt lat="43.65432" lon="3.82791">
        <ele>127</ele>
        <time>2020-10-25T12:35:35.000Z</time>
      </trkpt>
      <trkpt lat="43.6543" lon="3.82794">
        <ele>127</ele>
        <time>2020-10-25T12:35:36.000Z</time>
      </trkpt>
      <trkpt lat="43.65429" lon="3.82797">
        <ele>127</ele>
        <time>2020-10-25T12:35:37.000Z</time>
      </trkpt>
      <trkpt lat="43.65427" lon="3.828">
        <ele>127</ele>
        <time>2020-10-25T12:35:38.000Z</time>
      </trkpt>
      <trkpt lat="43.65424" lon="3.82804">
        <ele>127</ele>
        <time>2020-10-25T12:35:39.000Z</time>
      </trkpt>
      <trkpt lat="43.65422" lon="3.82808">
        <ele>127</ele>
        <time>2020-10-25T12:35:40.000Z</time>
      </trkpt>
      <trkpt lat="43.65421" lon="3.82811">
        <ele>127</ele>
        <time>2020-10-25T12:35:41.000Z</time>
      </trkpt>
      <trkpt lat="43.6542" lon="3.82814">
        <ele>127</ele>
        <time>2020-10-25T12:35:42.000Z</time>
      </trkpt>
      <trkpt lat="43.65419" lon="3.82817">
        <ele>127</ele>
        <time>2020-10-25T12:35:43.000Z</time>
      </trkpt>
      <trkpt lat="43.65417" lon="3.8282">
        <ele>127</ele>
        <time>2020-10-25T12:35:44.000Z</time>
      </trkpt>
      <trkpt lat="43.65416" lon="3.82825">
        <ele>127</ele>
        <time>2020-10-25T12:35:45.000Z</time>
      </trkpt>
      <trkpt lat="43.65414" lon="3.82831">
        <ele>127</ele>
        <time>2020-10-25T12:35:46.000Z</time>
      </trkpt>
      <trkpt lat="43.65412" lon="3.82836">
        <ele>127</ele>
        <time>2020-10-25T12:35:47.000Z</time>
      </trkpt>
      <trkpt lat="43.65411" lon="3.82841">
        <ele>127</ele>
        <time>2020-10-25T12:35:48.000Z</time>
      </trkpt>
      <trkpt lat="43.6541" lon="3.82845">
        <ele>127</ele>
        <time>2020-10-25T12:35:49.000Z</time>
      </trkpt>
      <trkpt lat="43.65408" lon="3.82848">
        <ele>127</ele>
        <time>2020-10-25T12:35:50.000Z</time>
      </trkpt>
      <trkpt lat="43.65407" lon="3.82851">
        <ele>127</ele>
        <time>2020-10-25T12:35:51.000Z</time>
      </trkpt>
      <trkpt lat="43.65406" lon="3.82854">
        <ele>127</ele>
        <time>2020-10-25T12:35:52.000Z</time>
      </trkpt>
      <trkpt lat="43.65405" lon="3.82857">
        <ele>127</ele>
        <time>2020-10-25T12:35:53.000Z</time>
      </trkpt>
      <trkpt lat="43.65405" lon="3.82861">
        <ele>127</ele>
        <time>2020-10-25T12:35:54.000Z</time>
      </trkpt>
      <trkpt lat="43.65405" lon="3.82865">
        <ele>127</ele>
        <time>2020-10-25T12:35:55.000Z</time>
      </trkpt>
      <trkpt lat="43.65405" lon="3.82868">
        <ele>127</ele>
        <time>2020-10-25T12:35:56.000Z</time>
      </trkpt>
      <trkpt lat="43.65405" lon="3.82873">
        <ele>127</ele>
        <time>2020-10-25T12:35:57.000Z</time>
      </trkpt>
      <trkpt lat="43.65406" lon="3.82878">
        <ele>127</ele>
        <time>2020-10-25T12:35:58.000Z</time>
      </trkpt>
      <trkpt lat="43.65407" lon="3.82895">
        <ele>127.00205826889</ele>
        <time>2020-10-25T12:36:01.000Z</time>
      </trkpt>
      <trkpt lat="43.65408" lon="3.82902">
        <ele>127.10493879185</ele>
        <time>2020-10-25T12:36:02.000Z</time>
      </trkpt>
      <trkpt lat="43.65408" lon="3.82908">
        <ele>127.20781931481</ele>
        <time>2020-10-25T12:36:03.000Z</time>
      </trkpt>
      <trkpt lat="43.65409" lon="3.82913">
        <ele>127.31069983776</ele>
        <time>2020-10-25T12:36:04.000Z</time>
      </trkpt>
      <trkpt lat="43.6541" lon="3.82917">
        <ele>127.41358036072</ele>
        <time>2020-10-25T12:36:05.000Z</time>
      </trkpt>
      <trkpt lat="43.65411" lon="3.8292">
        <ele>127.51646088367</ele>
        <time>2020-10-25T12:36:06.000Z</time>
      </trkpt>
      <trkpt lat="43.65411" lon="3.82924">
        <ele>127.61934140663</ele>
        <time>2020-10-25T12:36:07.000Z</time>
      </trkpt>
      <trkpt lat="43.65412" lon="3.82927">
        <ele>127.72222192958</ele>
        <time>2020-10-25T12:36:08.000Z</time>
      </trkpt>
      <trkpt lat="43.65413" lon="3.8293">
        <ele>127.82510245254</ele>
        <time>2020-10-25T12:36:09.000Z</time>
      </trkpt>
      <trkpt lat="43.65414" lon="3.82933">
        <ele>127.9279829755</ele>
        <time>2020-10-25T12:36:10.000Z</time>
      </trkpt>
      <trkpt lat="43.65415" lon="3.82937">
        <ele>128</ele>
        <time>2020-10-25T12:36:11.000Z</time>
      </trkpt>
      <trkpt lat="43.65416" lon="3.8294">
        <ele>128</ele>
        <time>2020-10-25T12:36:12.000Z</time>
      </trkpt>
      <trkpt lat="43.65416" lon="3.82944">
        <ele>128</ele>
        <time>2020-10-25T12:36:13.000Z</time>
      </trkpt>
      <trkpt lat="43.65415" lon="3.82947">
        <ele>128</ele>
        <time>2020-10-25T12:36:14.000Z</time>
      </trkpt>
      <trkpt lat="43.65414" lon="3.8295">
        <ele>128</ele>
        <time>2020-10-25T12:36:15.000Z</time>
      </trkpt>
      <trkpt lat="43.65412" lon="3.82952">
        <ele>128</ele>
        <time>2020-10-25T12:36:16.000Z</time>
      </trkpt>
      <trkpt lat="43.6541" lon="3.82953">
        <ele>128</ele>
        <time>2020-10-25T12:36:17.000Z</time>
      </trkpt>
      <trkpt lat="43.65408" lon="3.82955">
        <ele>128</ele>
        <time>2020-10-25T12:36:18.000Z</time>
      </trkpt>
      <trkpt lat="43.65405" lon="3.82957">
        <ele>128</ele>
        <time>2020-10-25T12:36:19.000Z</time>
      </trkpt>
      <trkpt lat="43.65403" lon="3.82959">
        <ele>128</ele>
        <time>2020-10-25T12:36:20.000Z</time>
      </trkpt>
      <trkpt lat="43.65402" lon="3.82962">
        <ele>128.05999872</ele>
        <time>2020-10-25T12:36:21.000Z</time>
      </trkpt>
      <trkpt lat="43.654" lon="3.82965">
        <ele>128.25999872</ele>
        <time>2020-10-25T12:36:22.000Z</time>
      </trkpt>
      <trkpt lat="43.654" lon="3.82968">
        <ele>128.45999872</ele>
        <time>2020-10-25T12:36:23.000Z</time>
      </trkpt>
      <trkpt lat="43.654" lon="3.82971">
        <ele>128.65999872</ele>
        <time>2020-10-25T12:36:24.000Z</time>
      </trkpt>
      <trkpt lat="43.65402" lon="3.82975">
        <ele>128.85999872</ele>
        <time>2020-10-25T12:36:25.000Z</time>
      </trkpt>
      <trkpt lat="43.65404" lon="3.82978">
        <ele>129.05999872</ele>
        <time>2020-10-25T12:36:26.000Z</time>
      </trkpt>
      <trkpt lat="43.65406" lon="3.82981">
        <ele>129.25999872</ele>
        <time>2020-10-25T12:36:27.000Z</time>
      </trkpt>
      <trkpt lat="43.65408" lon="3.82984">
        <ele>129.45999872</ele>
        <time>2020-10-25T12:36:28.000Z</time>
      </trkpt>
      <trkpt lat="43.65409" lon="3.82987">
        <ele>129.65999872</ele>
        <time>2020-10-25T12:36:29.000Z</time>
      </trkpt>
      <trkpt lat="43.65411" lon="3.8299">
        <ele>129.85999872</ele>
        <time>2020-10-25T12:36:30.000Z</time>
      </trkpt>
      <trkpt lat="43.65413" lon="3.82993">
        <ele>130.02999936</ele>
        <time>2020-10-25T12:36:31.000Z</time>
      </trkpt>
      <trkpt lat="43.65415" lon="3.82996">
        <ele>130.12999936</ele>
        <time>2020-10-25T12:36:32.000Z</time>
      </trkpt>
      <trkpt lat="43.65416" lon="3.82997">
        <ele>130.22999936</ele>
        <time>2020-10-25T12:36:33.000Z</time>
      </trkpt>
      <trkpt lat="43.65419" lon="3.83">
        <ele>130.42999936</ele>
        <time>2020-10-25T12:36:35.000Z</time>
      </trkpt>
      <trkpt lat="43.65421" lon="3.83002">
        <ele>130.52999936</ele>
        <time>2020-10-25T12:36:36.000Z</time>
      </trkpt>
      <trkpt lat="43.65424" lon="3.83003">
        <ele>130.72999936</ele>
        <time>2020-10-25T12:36:38.000Z</time>
      </trkpt>
      <trkpt lat="43.65426" lon="3.83006">
        <ele>131</ele>
        <time>2020-10-25T12:36:41.000Z</time>
      </trkpt>
      <trkpt lat="43.65429" lon="3.83007">
        <ele>131</ele>
        <time>2020-10-25T12:36:43.000Z</time>
      </trkpt>
      <trkpt lat="43.65432" lon="3.83008">
        <ele>131</ele>
        <time>2020-10-25T12:36:45.000Z</time>
      </trkpt>
      <trkpt lat="43.65434" lon="3.83007">
        <ele>131</ele>
        <time>2020-10-25T12:36:46.000Z</time>
      </trkpt>
      <trkpt lat="43.65436" lon="3.83007">
        <ele>131</ele>
        <time>2020-10-25T12:36:47.000Z</time>
      </trkpt>
      <trkpt lat="43.65438" lon="3.83007">
        <ele>131</ele>
        <time>2020-10-25T12:36:48.000Z</time>
      </trkpt>
      <trkpt lat="43.65441" lon="3.83006">
        <ele>131</ele>
        <time>2020-10-25T12:36:49.000Z</time>
      </trkpt>
      <trkpt lat="43.65444" lon="3.83005">
        <ele>131</ele>
        <time>2020-10-25T12:36:50.000Z</time>
      </trkpt>
      <trkpt lat="43.65448" lon="3.83005">
        <ele>130.97000064</ele>
        <time>2020-10-25T12:36:51.000Z</time>
      </trkpt>
      <trkpt lat="43.65451" lon="3.83004">
        <ele>130.87000064</ele>
        <time>2020-10-25T12:36:52.000Z</time>
      </trkpt>
      <trkpt lat="43.65455" lon="3.83004">
        <ele>130.77000064</ele>
        <time>2020-10-25T12:36:53.000Z</time>
      </trkpt>
      <trkpt lat="43.65459" lon="3.83004">
        <ele>130.67000064</ele>
        <time>2020-10-25T12:36:54.000Z</time>
      </trkpt>
      <trkpt lat="43.65463" lon="3.83004">
        <ele>130.57000064</ele>
        <time>2020-10-25T12:36:55.000Z</time>
      </trkpt>
      <trkpt lat="43.65466" lon="3.83004">
        <ele>130.47000064</ele>
        <time>2020-10-25T12:36:56.000Z</time>
      </trkpt>
      <trkpt lat="43.6547" lon="3.83003">
        <ele>130.37000064</ele>
        <time>2020-10-25T12:36:57.000Z</time>
      </trkpt>
      <trkpt lat="43.65474" lon="3.83003">
        <ele>130.27000064</ele>
        <time>2020-10-25T12:36:58.000Z</time>
      </trkpt>
      <trkpt lat="43.65476" lon="3.83003">
        <ele>130.17000064</ele>
        <time>2020-10-25T12:36:59.000Z</time>
      </trkpt>
      <trkpt lat="43.65479" lon="3.83004">
        <ele>130.07000064</ele>
        <time>2020-10-25T12:37:00.000Z</time>
      </trkpt>
      <trkpt lat="43.6548" lon="3.83006">
        <ele>129.94000128</ele>
        <time>2020-10-25T12:37:01.000Z</time>
      </trkpt>
      <trkpt lat="43.65483" lon="3.83008">
        <ele>129.74000128</ele>
        <time>2020-10-25T12:37:02.000Z</time>
      </trkpt>
      <trkpt lat="43.65486" lon="3.83011">
        <ele>129.54000128</ele>
        <time>2020-10-25T12:37:03.000Z</time>
      </trkpt>
      <trkpt lat="43.6549" lon="3.83015">
        <ele>129.34000128</ele>
        <time>2020-10-25T12:37:04.000Z</time>
      </trkpt>
      <trkpt lat="43.65494" lon="3.83019">
        <ele>129.14000128</ele>
        <time>2020-10-25T12:37:05.000Z</time>
      </trkpt>
      <trkpt lat="43.65497" lon="3.83023">
        <ele>128.94000128</ele>
        <time>2020-10-25T12:37:06.000Z</time>
      </trkpt>
      <trkpt lat="43.65501" lon="3.83027">
        <ele>128.74000128</ele>
        <time>2020-10-25T12:37:07.000Z</time>
      </trkpt>
      <trkpt lat="43.65504" lon="3.8303">
        <ele>128.54000128</ele>
        <time>2020-10-25T12:37:08.000Z</time>
      </trkpt>
      <trkpt lat="43.65507" lon="3.83032">
        <ele>128.34000128</ele>
        <time>2020-10-25T12:37:09.000Z</time>
      </trkpt>
      <trkpt lat="43.65509" lon="3.83035">
        <ele>128.14000128</ele>
        <time>2020-10-25T12:37:10.000Z</time>
      </trkpt>
      <trkpt lat="43.65511" lon="3.83038">
        <ele>128</ele>
        <time>2020-10-25T12:37:12.000Z</time>
      </trkpt>
      <trkpt lat="43.65514" lon="3.83042">
        <ele>128</ele>
        <time>2020-10-25T12:37:14.000Z</time>
      </trkpt>
      <trkpt lat="43.65516" lon="3.83045">
        <ele>128</ele>
        <time>2020-10-25T12:37:15.000Z</time>
      </trkpt>
      <trkpt lat="43.65519" lon="3.83047">
        <ele>128</ele>
        <time>2020-10-25T12:37:16.000Z</time>
      </trkpt>
      <trkpt lat="43.65522" lon="3.8305">
        <ele>128</ele>
        <time>2020-10-25T12:37:17.000Z</time>
      </trkpt>
      <trkpt lat="43.65526" lon="3.83054">
        <ele>128</ele>
        <time>2020-10-25T12:37:18.000Z</time>
      </trkpt>
      <trkpt lat="43.65536" lon="3.83063">
        <ele>128</ele>
        <time>2020-10-25T12:37:21.000Z</time>
      </trkpt>
      <trkpt lat="43.65548" lon="3.83065">
        <ele>127.3858749268</ele>
        <time>2020-10-25T12:37:24.000Z</time>
      </trkpt>
      <trkpt lat="43.65558" lon="3.83056">
        <ele>126.97645821133</ele>
        <time>2020-10-25T12:37:26.000Z</time>
      </trkpt>
      <trkpt lat="43.65568" lon="3.83045">
        <ele>126.56704149586</ele>
        <time>2020-10-25T12:37:28.000Z</time>
      </trkpt>
      <trkpt lat="43.65577" lon="3.83034">
        <ele>126.15762478039</ele>
        <time>2020-10-25T12:37:30.000Z</time>
      </trkpt>
      <trkpt lat="43.65581" lon="3.83029">
        <ele>125.95367513038</ele>
        <time>2020-10-25T12:37:31.000Z</time>
      </trkpt>
      <trkpt lat="43.65584" lon="3.83024">
        <ele>125.75226545602</ele>
        <time>2020-10-25T12:37:32.000Z</time>
      </trkpt>
      <trkpt lat="43.6559" lon="3.83014">
        <ele>125.34944610728</ele>
        <time>2020-10-25T12:37:34.000Z</time>
      </trkpt>
      <trkpt lat="43.65593" lon="3.83003">
        <ele>124.94662675855</ele>
        <time>2020-10-25T12:37:36.000Z</time>
      </trkpt>
      <trkpt lat="43.65593" lon="3.82998">
        <ele>124.74521708418</ele>
        <time>2020-10-25T12:37:37.000Z</time>
      </trkpt>
      <trkpt lat="43.65594" lon="3.82994">
        <ele>124.54380740981</ele>
        <time>2020-10-25T12:37:38.000Z</time>
      </trkpt>
      <trkpt lat="43.65596" lon="3.82991">
        <ele>124.34239773545</ele>
        <time>2020-10-25T12:37:39.000Z</time>
      </trkpt>
      <trkpt lat="43.65599" lon="3.82991">
        <ele>124.14098806108</ele>
        <time>2020-10-25T12:37:40.000Z</time>
      </trkpt>
      <trkpt lat="43.65602" lon="3.82994">
        <ele>123.95260762217</ele>
        <time>2020-10-25T12:37:41.000Z</time>
      </trkpt>
      <trkpt lat="43.65606" lon="3.82998">
        <ele>123.79462965921</ele>
        <time>2020-10-25T12:37:42.000Z</time>
      </trkpt>
      <trkpt lat="43.65609" lon="3.83003">
        <ele>123.63665169625</ele>
        <time>2020-10-25T12:37:43.000Z</time>
      </trkpt>
      <trkpt lat="43.65618" lon="3.83011">
        <ele>123.32069577034</ele>
        <time>2020-10-25T12:37:45.000Z</time>
      </trkpt>
      <trkpt lat="43.65628" lon="3.83016">
        <ele>123.00473984442</ele>
        <time>2020-10-25T12:37:47.000Z</time>
      </trkpt>
      <trkpt lat="43.6564" lon="3.83021">
        <ele>122.46321659883</ele>
        <time>2020-10-25T12:37:49.000Z</time>
      </trkpt>
      <trkpt lat="43.65652" lon="3.83027">
        <ele>121.91000192</ele>
        <time>2020-10-25T12:37:51.000Z</time>
      </trkpt>
      <trkpt lat="43.65662" lon="3.83033">
        <ele>121.31000192</ele>
        <time>2020-10-25T12:37:53.000Z</time>
      </trkpt>
      <trkpt lat="43.65665" lon="3.83043">
        <ele>120.41000192</ele>
        <time>2020-10-25T12:37:56.000Z</time>
      </trkpt>
      <trkpt lat="43.65664" lon="3.83047">
        <ele>119.81000192</ele>
        <time>2020-10-25T12:37:58.000Z</time>
      </trkpt>
      <trkpt lat="43.65665" lon="3.83052">
        <ele>119.21000192</ele>
        <time>2020-10-25T12:38:00.000Z</time>
      </trkpt>
      <trkpt lat="43.65665" lon="3.83055">
        <ele>118.61876984753</ele>
        <time>2020-10-25T12:38:02.000Z</time>
      </trkpt>
      <trkpt lat="43.65667" lon="3.83054">
        <ele>117.73900362604</ele>
        <time>2020-10-25T12:38:05.000Z</time>
      </trkpt>
      <trkpt lat="43.6567" lon="3.83053">
        <ele>117.44574821888</ele>
        <time>2020-10-25T12:38:06.000Z</time>
      </trkpt>
      <trkpt lat="43.65672" lon="3.83051">
        <ele>117.15249281172</ele>
        <time>2020-10-25T12:38:07.000Z</time>
      </trkpt>
      <trkpt lat="43.65674" lon="3.83049">
        <ele>116.85923740456</ele>
        <time>2020-10-25T12:38:08.000Z</time>
      </trkpt>
      <trkpt lat="43.65676" lon="3.83048">
        <ele>116.5659819974</ele>
        <time>2020-10-25T12:38:09.000Z</time>
      </trkpt>
      <trkpt lat="43.65678" lon="3.83048">
        <ele>116.27272659024</ele>
        <time>2020-10-25T12:38:10.000Z</time>
      </trkpt>
      <trkpt lat="43.65682" lon="3.83049">
        <ele>115.96517252622</ele>
        <time>2020-10-25T12:38:11.000Z</time>
      </trkpt>
      <trkpt lat="43.65685" lon="3.8305">
        <ele>115.46765993</ele>
        <time>2020-10-25T12:38:12.000Z</time>
      </trkpt>
      <trkpt lat="43.65689" lon="3.83051">
        <ele>114.97014733378</ele>
        <time>2020-10-25T12:38:13.000Z</time>
      </trkpt>
      <trkpt lat="43.65694" lon="3.83052">
        <ele>114.47263473755</ele>
        <time>2020-10-25T12:38:14.000Z</time>
      </trkpt>
      <trkpt lat="43.65698" lon="3.83054">
        <ele>113.97512214133</ele>
        <time>2020-10-25T12:38:15.000Z</time>
      </trkpt>
      <trkpt lat="43.657" lon="3.83056">
        <ele>113.47760954511</ele>
        <time>2020-10-25T12:38:16.000Z</time>
      </trkpt>
      <trkpt lat="43.65706" lon="3.83056">
        <ele>112.48258435266</ele>
        <time>2020-10-25T12:38:18.000Z</time>
      </trkpt>
      <trkpt lat="43.65707" lon="3.83054">
        <ele>111.98507175644</ele>
        <time>2020-10-25T12:38:19.000Z</time>
      </trkpt>
      <trkpt lat="43.65707" lon="3.8305">
        <ele>111.48755916022</ele>
        <time>2020-10-25T12:38:20.000Z</time>
      </trkpt>
      <trkpt lat="43.65707" lon="3.83045">
        <ele>110.99400408167</ele>
        <time>2020-10-25T12:38:21.000Z</time>
      </trkpt>
      <trkpt lat="43.65707" lon="3.83039">
        <ele>110.6943040694</ele>
        <time>2020-10-25T12:38:22.000Z</time>
      </trkpt>
      <trkpt lat="43.65708" lon="3.83033">
        <ele>110.39460405712</ele>
        <time>2020-10-25T12:38:23.000Z</time>
      </trkpt>
      <trkpt lat="43.65708" lon="3.83026">
        <ele>110.09490404485</ele>
        <time>2020-10-25T12:38:24.000Z</time>
      </trkpt>
      <trkpt lat="43.65708" lon="3.8302">
        <ele>109.79520403257</ele>
        <time>2020-10-25T12:38:25.000Z</time>
      </trkpt>
      <trkpt lat="43.65708" lon="3.83014">
        <ele>109.4955040203</ele>
        <time>2020-10-25T12:38:26.000Z</time>
      </trkpt>
      <trkpt lat="43.65709" lon="3.83008">
        <ele>109.19580400802</ele>
        <time>2020-10-25T12:38:27.000Z</time>
      </trkpt>
      <trkpt lat="43.65709" lon="3.83002">
        <ele>108.89610399574</ele>
        <time>2020-10-25T12:38:28.000Z</time>
      </trkpt>
      <trkpt lat="43.6571" lon="3.82997">
        <ele>108.59640398347</ele>
        <time>2020-10-25T12:38:29.000Z</time>
      </trkpt>
      <trkpt lat="43.6571" lon="3.82991">
        <ele>108.29670397119</ele>
        <time>2020-10-25T12:38:30.000Z</time>
      </trkpt>
      <trkpt lat="43.65711" lon="3.82986">
        <ele>107.99897991837</ele>
        <time>2020-10-25T12:38:31.000Z</time>
      </trkpt>
      <trkpt lat="43.65711" lon="3.82981">
        <ele>107.89693910204</ele>
        <time>2020-10-25T12:38:32.000Z</time>
      </trkpt>
      <trkpt lat="43.65711" lon="3.82976">
        <ele>107.79489828571</ele>
        <time>2020-10-25T12:38:33.000Z</time>
      </trkpt>
      <trkpt lat="43.65712" lon="3.8297">
        <ele>107.69285746939</ele>
        <time>2020-10-25T12:38:34.000Z</time>
      </trkpt>
      <trkpt lat="43.65713" lon="3.82965">
        <ele>107.59081665306</ele>
        <time>2020-10-25T12:38:35.000Z</time>
      </trkpt>
      <trkpt lat="43.65714" lon="3.82961">
        <ele>107.48877583674</ele>
        <time>2020-10-25T12:38:36.000Z</time>
      </trkpt>
      <trkpt lat="43.65716" lon="3.82958">
        <ele>107.38673502041</ele>
        <time>2020-10-25T12:38:37.000Z</time>
      </trkpt>
      <trkpt lat="43.65718" lon="3.82954">
        <ele>107.28469420408</ele>
        <time>2020-10-25T12:38:38.000Z</time>
      </trkpt>
      <trkpt lat="43.6572" lon="3.82951">
        <ele>107.18265338775</ele>
        <time>2020-10-25T12:38:39.000Z</time>
      </trkpt>
      <trkpt lat="43.65721" lon="3.82947">
        <ele>107.08061257143</ele>
        <time>2020-10-25T12:38:40.000Z</time>
      </trkpt>
      <trkpt lat="43.65722" lon="3.82944">
        <ele>106.9364288399</ele>
        <time>2020-10-25T12:38:41.000Z</time>
      </trkpt>
      <trkpt lat="43.65722" lon="3.8294">
        <ele>106.63370441697</ele>
        <time>2020-10-25T12:38:42.000Z</time>
      </trkpt>
      <trkpt lat="43.65722" lon="3.82935">
        <ele>106.0282555711</ele>
        <time>2020-10-25T12:38:44.000Z</time>
      </trkpt>
      <trkpt lat="43.65723" lon="3.82933">
        <ele>105.72553114816</ele>
        <time>2020-10-25T12:38:45.000Z</time>
      </trkpt>
      <trkpt lat="43.65724" lon="3.82929">
        <ele>105.42280672523</ele>
        <time>2020-10-25T12:38:46.000Z</time>
      </trkpt>
      <trkpt lat="43.65725" lon="3.82926">
        <ele>105.12008230229</ele>
        <time>2020-10-25T12:38:47.000Z</time>
      </trkpt>
      <trkpt lat="43.65727" lon="3.82922">
        <ele>104.81735787936</ele>
        <time>2020-10-25T12:38:48.000Z</time>
      </trkpt>
      <trkpt lat="43.65732" lon="3.8292">
        <ele>104.51463345643</ele>
        <time>2020-10-25T12:38:49.000Z</time>
      </trkpt>
      <trkpt lat="43.65736" lon="3.8292">
        <ele>104.21190903349</ele>
        <time>2020-10-25T12:38:50.000Z</time>
      </trkpt>
      <trkpt lat="43.65741" lon="3.82924">
        <ele>103.8500032</ele>
        <time>2020-10-25T12:38:51.000Z</time>
      </trkpt>
      <trkpt lat="43.65745" lon="3.82929">
        <ele>103.3500032</ele>
        <time>2020-10-25T12:38:52.000Z</time>
      </trkpt>
      <trkpt lat="43.65749" lon="3.82935">
        <ele>102.8500032</ele>
        <time>2020-10-25T12:38:53.000Z</time>
      </trkpt>
      <trkpt lat="43.65753" lon="3.82941">
        <ele>102.3500032</ele>
        <time>2020-10-25T12:38:54.000Z</time>
      </trkpt>
      <trkpt lat="43.65756" lon="3.82947">
        <ele>101.8500032</ele>
        <time>2020-10-25T12:38:55.000Z</time>
      </trkpt>
      <trkpt lat="43.65758" lon="3.82954">
        <ele>101.3500032</ele>
        <time>2020-10-25T12:38:56.000Z</time>
      </trkpt>
      <trkpt lat="43.6576" lon="3.8296">
        <ele>100.8500032</ele>
        <time>2020-10-25T12:38:57.000Z</time>
      </trkpt>
      <trkpt lat="43.65762" lon="3.82966">
        <ele>100.3500032</ele>
        <time>2020-10-25T12:38:58.000Z</time>
      </trkpt>
      <trkpt lat="43.65764" lon="3.82972">
        <ele>99.8500032</ele>
        <time>2020-10-25T12:38:59.000Z</time>
      </trkpt>
      <trkpt lat="43.65765" lon="3.82978">
        <ele>99.3500032</ele>
        <time>2020-10-25T12:39:00.000Z</time>
      </trkpt>
      <trkpt lat="43.65767" lon="3.82984">
        <ele>98.911679916794</ele>
        <time>2020-10-25T12:39:01.000Z</time>
      </trkpt>
      <trkpt lat="43.65768" lon="3.82989">
        <ele>98.617273358766</ele>
        <time>2020-10-25T12:39:02.000Z</time>
      </trkpt>
      <trkpt lat="43.6577" lon="3.82994">
        <ele>98.322866800738</ele>
        <time>2020-10-25T12:39:03.000Z</time>
      </trkpt>
      <trkpt lat="43.65772" lon="3.82998">
        <ele>98.02846024271</ele>
        <time>2020-10-25T12:39:04.000Z</time>
      </trkpt>
      <trkpt lat="43.65773" lon="3.83003">
        <ele>97.734053684683</ele>
        <time>2020-10-25T12:39:05.000Z</time>
      </trkpt>
      <trkpt lat="43.65775" lon="3.83008">
        <ele>97.439647126655</ele>
        <time>2020-10-25T12:39:06.000Z</time>
      </trkpt>
      <trkpt lat="43.65777" lon="3.83014">
        <ele>97.145240568627</ele>
        <time>2020-10-25T12:39:07.000Z</time>
      </trkpt>
      <trkpt lat="43.65778" lon="3.83019">
        <ele>96.850834010599</ele>
        <time>2020-10-25T12:39:08.000Z</time>
      </trkpt>
      <trkpt lat="43.6578" lon="3.83024">
        <ele>96.556427452571</ele>
        <time>2020-10-25T12:39:09.000Z</time>
      </trkpt>
      <trkpt lat="43.65782" lon="3.83029">
        <ele>96.262020894544</ele>
        <time>2020-10-25T12:39:10.000Z</time>
      </trkpt>
      <trkpt lat="43.65784" lon="3.83034">
        <ele>95.988786636865</ele>
        <time>2020-10-25T12:39:11.000Z</time>
      </trkpt>
      <trkpt lat="43.65786" lon="3.83037">
        <ele>95.886849937435</ele>
        <time>2020-10-25T12:39:12.000Z</time>
      </trkpt>
      <trkpt lat="43.65789" lon="3.8304">
        <ele>95.784913238005</ele>
        <time>2020-10-25T12:39:13.000Z</time>
      </trkpt>
      <trkpt lat="43.65791" lon="3.8304">
        <ele>95.682976538576</ele>
        <time>2020-10-25T12:39:14.000Z</time>
      </trkpt>
      <trkpt lat="43.65793" lon="3.83039">
        <ele>95.581039839146</ele>
        <time>2020-10-25T12:39:15.000Z</time>
      </trkpt>
      <trkpt lat="43.65794" lon="3.83036">
        <ele>95.479103139716</ele>
        <time>2020-10-25T12:39:16.000Z</time>
      </trkpt>
      <trkpt lat="43.65797" lon="3.83034">
        <ele>95.377166440286</ele>
        <time>2020-10-25T12:39:17.000Z</time>
      </trkpt>
      <trkpt lat="43.65799" lon="3.83031">
        <ele>95.275229740856</ele>
        <time>2020-10-25T12:39:18.000Z</time>
      </trkpt>
      <trkpt lat="43.65802" lon="3.8303">
        <ele>95.173293041426</ele>
        <time>2020-10-25T12:39:19.000Z</time>
      </trkpt>
      <trkpt lat="43.65805" lon="3.83029">
        <ele>95.071356341996</ele>
        <time>2020-10-25T12:39:20.000Z</time>
      </trkpt>
      <trkpt lat="43.65808" lon="3.83028">
        <ele>95</ele>
        <time>2020-10-25T12:39:21.000Z</time>
      </trkpt>
      <trkpt lat="43.65811" lon="3.83027">
        <ele>95</ele>
        <time>2020-10-25T12:39:22.000Z</time>
      </trkpt>
      <trkpt lat="43.65814" lon="3.83026">
        <ele>95</ele>
        <time>2020-10-25T12:39:23.000Z</time>
      </trkpt>
      <trkpt lat="43.65817" lon="3.83025">
        <ele>95</ele>
        <time>2020-10-25T12:39:24.000Z</time>
      </trkpt>
      <trkpt lat="43.6582" lon="3.83024">
        <ele>95</ele>
        <time>2020-10-25T12:39:25.000Z</time>
      </trkpt>
      <trkpt lat="43.65824" lon="3.83023">
        <ele>95</ele>
        <time>2020-10-25T12:39:26.000Z</time>
      </trkpt>
      <trkpt lat="43.65827" lon="3.83022">
        <ele>95</ele>
        <time>2020-10-25T12:39:27.000Z</time>
      </trkpt>
      <trkpt lat="43.6583" lon="3.8302">
        <ele>95</ele>
        <time>2020-10-25T12:39:28.000Z</time>
      </trkpt>
      <trkpt lat="43.65833" lon="3.83018">
        <ele>95</ele>
        <time>2020-10-25T12:39:29.000Z</time>
      </trkpt>
      <trkpt lat="43.65836" lon="3.83016">
        <ele>95</ele>
        <time>2020-10-25T12:39:30.000Z</time>
      </trkpt>
      <trkpt lat="43.6584" lon="3.83015">
        <ele>95.029614382504</ele>
        <time>2020-10-25T12:39:31.000Z</time>
      </trkpt>
      <trkpt lat="43.65843" lon="3.83013">
        <ele>95.128331096807</ele>
        <time>2020-10-25T12:39:32.000Z</time>
      </trkpt>
      <trkpt lat="43.65847" lon="3.83011">
        <ele>95.227047811111</ele>
        <time>2020-10-25T12:39:33.000Z</time>
      </trkpt>
      <trkpt lat="43.6585" lon="3.83009">
        <ele>95.325764525414</ele>
        <time>2020-10-25T12:39:34.000Z</time>
      </trkpt>
      <trkpt lat="43.65854" lon="3.83008">
        <ele>95.424481239718</ele>
        <time>2020-10-25T12:39:35.000Z</time>
      </trkpt>
      <trkpt lat="43.65857" lon="3.83007">
        <ele>95.523197954021</ele>
        <time>2020-10-25T12:39:36.000Z</time>
      </trkpt>
      <trkpt lat="43.65861" lon="3.83006">
        <ele>95.621914668324</ele>
        <time>2020-10-25T12:39:37.000Z</time>
      </trkpt>
      <trkpt lat="43.65864" lon="3.83006">
        <ele>95.720631382628</ele>
        <time>2020-10-25T12:39:38.000Z</time>
      </trkpt>
      <trkpt lat="43.65867" lon="3.83005">
        <ele>95.819348096931</ele>
        <time>2020-10-25T12:39:39.000Z</time>
      </trkpt>
      <trkpt lat="43.6587" lon="3.83005">
        <ele>95.918064811235</ele>
        <time>2020-10-25T12:39:40.000Z</time>
      </trkpt>
      <trkpt lat="43.65874" lon="3.83004">
        <ele>96.017223581042</ele>
        <time>2020-10-25T12:39:41.000Z</time>
      </trkpt>
      <trkpt lat="43.65877" lon="3.83003">
        <ele>96.118540670787</ele>
        <time>2020-10-25T12:39:42.000Z</time>
      </trkpt>
      <trkpt lat="43.6588" lon="3.83002">
        <ele>96.219857760532</ele>
        <time>2020-10-25T12:39:43.000Z</time>
      </trkpt>
      <trkpt lat="43.65883" lon="3.83002">
        <ele>96.321174850278</ele>
        <time>2020-10-25T12:39:44.000Z</time>
      </trkpt>
      <trkpt lat="43.65886" lon="3.83001">
        <ele>96.422491940023</ele>
        <time>2020-10-25T12:39:45.000Z</time>
      </trkpt>
      <trkpt lat="43.65889" lon="3.83001">
        <ele>96.523809029768</ele>
        <time>2020-10-25T12:39:46.000Z</time>
      </trkpt>
      <trkpt lat="43.65893" lon="3.83001">
        <ele>96.625126119513</ele>
        <time>2020-10-25T12:39:47.000Z</time>
      </trkpt>
      <trkpt lat="43.65896" lon="3.83001">
        <ele>96.726443209259</ele>
        <time>2020-10-25T12:39:48.000Z</time>
      </trkpt>
      <trkpt lat="43.65899" lon="3.83">
        <ele>96.827760299004</ele>
        <time>2020-10-25T12:39:49.000Z</time>
      </trkpt>
      <trkpt lat="43.65903" lon="3.83">
        <ele>96.929077388749</ele>
        <time>2020-10-25T12:39:50.000Z</time>
      </trkpt>
      <trkpt lat="43.65906" lon="3.83">
        <ele>97</ele>
        <time>2020-10-25T12:39:51.000Z</time>
      </trkpt>
      <trkpt lat="43.65909" lon="3.82999">
        <ele>97</ele>
        <time>2020-10-25T12:39:52.000Z</time>
      </trkpt>
      <trkpt lat="43.65913" lon="3.82999">
        <ele>97</ele>
        <time>2020-10-25T12:39:53.000Z</time>
      </trkpt>
      <trkpt lat="43.65916" lon="3.82998">
        <ele>97</ele>
        <time>2020-10-25T12:39:54.000Z</time>
      </trkpt>
      <trkpt lat="43.65919" lon="3.82998">
        <ele>97</ele>
        <time>2020-10-25T12:39:55.000Z</time>
      </trkpt>
      <trkpt lat="43.65923" lon="3.82997">
        <ele>97</ele>
        <time>2020-10-25T12:39:56.000Z</time>
      </trkpt>
      <trkpt lat="43.65926" lon="3.82997">
        <ele>97</ele>
        <time>2020-10-25T12:39:57.000Z</time>
      </trkpt>
      <trkpt lat="43.6593" lon="3.82997">
        <ele>97</ele>
        <time>2020-10-25T12:39:58.000Z</time>
      </trkpt>
      <trkpt lat="43.65933" lon="3.82996">
        <ele>97</ele>
        <time>2020-10-25T12:39:59.000Z</time>
      </trkpt>
      <trkpt lat="43.65936" lon="3.82996">
        <ele>97</ele>
        <time>2020-10-25T12:40:00.000Z</time>
      </trkpt>
      <trkpt lat="43.65939" lon="3.82996">
        <ele>97</ele>
        <time>2020-10-25T12:40:01.000Z</time>
      </trkpt>
      <trkpt lat="43.65943" lon="3.82996">
        <ele>97</ele>
        <time>2020-10-25T12:40:02.000Z</time>
      </trkpt>
      <trkpt lat="43.65946" lon="3.82995">
        <ele>97</ele>
        <time>2020-10-25T12:40:03.000Z</time>
      </trkpt>
      <trkpt lat="43.65949" lon="3.82995">
        <ele>97</ele>
        <time>2020-10-25T12:40:04.000Z</time>
      </trkpt>
      <trkpt lat="43.65952" lon="3.82994">
        <ele>97</ele>
        <time>2020-10-25T12:40:05.000Z</time>
      </trkpt>
      <trkpt lat="43.65955" lon="3.82994">
        <ele>97</ele>
        <time>2020-10-25T12:40:06.000Z</time>
      </trkpt>
      <trkpt lat="43.65959" lon="3.82993">
        <ele>97</ele>
        <time>2020-10-25T12:40:07.000Z</time>
      </trkpt>
      <trkpt lat="43.65962" lon="3.82992">
        <ele>97</ele>
        <time>2020-10-25T12:40:08.000Z</time>
      </trkpt>
      <trkpt lat="43.65965" lon="3.82992">
        <ele>97</ele>
        <time>2020-10-25T12:40:09.000Z</time>
      </trkpt>
      <trkpt lat="43.65967" lon="3.82991">
        <ele>97</ele>
        <time>2020-10-25T12:40:10.000Z</time>
      </trkpt>
      <trkpt lat="43.6597" lon="3.8299">
        <ele>97</ele>
        <time>2020-10-25T12:40:11.000Z</time>
      </trkpt>
      <trkpt lat="43.65972" lon="3.82989">
        <ele>97.101239008264</ele>
        <time>2020-10-25T12:40:12.000Z</time>
      </trkpt>
      <trkpt lat="43.65975" lon="3.82987">
        <ele>97.204544793388</ele>
        <time>2020-10-25T12:40:13.000Z</time>
      </trkpt>
      <trkpt lat="43.65976" lon="3.82984">
        <ele>97.307850578512</ele>
        <time>2020-10-25T12:40:14.000Z</time>
      </trkpt>
      <trkpt lat="43.65978" lon="3.82981">
        <ele>97.411156363636</ele>
        <time>2020-10-25T12:40:15.000Z</time>
      </trkpt>
      <trkpt lat="43.6598" lon="3.82979">
        <ele>97.51446214876</ele>
        <time>2020-10-25T12:40:16.000Z</time>
      </trkpt>
      <trkpt lat="43.65982" lon="3.82977">
        <ele>97.617767933884</ele>
        <time>2020-10-25T12:40:17.000Z</time>
      </trkpt>
      <trkpt lat="43.65985" lon="3.82978">
        <ele>97.721073719008</ele>
        <time>2020-10-25T12:40:18.000Z</time>
      </trkpt>
      <trkpt lat="43.65987" lon="3.8298">
        <ele>97.824379504132</ele>
        <time>2020-10-25T12:40:19.000Z</time>
      </trkpt>
      <trkpt lat="43.65988" lon="3.82983">
        <ele>97.927685289256</ele>
        <time>2020-10-25T12:40:20.000Z</time>
      </trkpt>
      <trkpt lat="43.65989" lon="3.82987">
        <ele>98.08990820057</ele>
        <time>2020-10-25T12:40:21.000Z</time>
      </trkpt>
      <trkpt lat="43.65991" lon="3.8299">
        <ele>98.389608596079</ele>
        <time>2020-10-25T12:40:22.000Z</time>
      </trkpt>
      <trkpt lat="43.65993" lon="3.82992">
        <ele>98.689308991587</ele>
        <time>2020-10-25T12:40:23.000Z</time>
      </trkpt>
      <trkpt lat="43.65996" lon="3.82992">
        <ele>98.989009387096</ele>
        <time>2020-10-25T12:40:24.000Z</time>
      </trkpt>
      <trkpt lat="43.65999" lon="3.82991">
        <ele>99.288709782604</ele>
        <time>2020-10-25T12:40:25.000Z</time>
      </trkpt>
      <trkpt lat="43.66002" lon="3.8299">
        <ele>99.588410178113</ele>
        <time>2020-10-25T12:40:26.000Z</time>
      </trkpt>
      <trkpt lat="43.66005" lon="3.82989">
        <ele>99.888110573622</ele>
        <time>2020-10-25T12:40:27.000Z</time>
      </trkpt>
      <trkpt lat="43.66007" lon="3.82987">
        <ele>100.18781096913</ele>
        <time>2020-10-25T12:40:28.000Z</time>
      </trkpt>
      <trkpt lat="43.6601" lon="3.82986">
        <ele>100.48751136464</ele>
        <time>2020-10-25T12:40:29.000Z</time>
      </trkpt>
      <trkpt lat="43.66012" lon="3.82984">
        <ele>100.78721176015</ele>
        <time>2020-10-25T12:40:30.000Z</time>
      </trkpt>
      <trkpt lat="43.66014" lon="3.82983">
        <ele>101.0579414371</ele>
        <time>2020-10-25T12:40:31.000Z</time>
      </trkpt>
      <trkpt lat="43.66016" lon="3.82982">
        <ele>101.25774170078</ele>
        <time>2020-10-25T12:40:32.000Z</time>
      </trkpt>
      <trkpt lat="43.66019" lon="3.82981">
        <ele>101.45754196445</ele>
        <time>2020-10-25T12:40:33.000Z</time>
      </trkpt>
      <trkpt lat="43.66022" lon="3.82982">
        <ele>101.65734222812</ele>
        <time>2020-10-25T12:40:34.000Z</time>
      </trkpt>
      <trkpt lat="43.66024" lon="3.82983">
        <ele>101.85714249179</ele>
        <time>2020-10-25T12:40:35.000Z</time>
      </trkpt>
      <trkpt lat="43.66027" lon="3.82984">
        <ele>102.05694275547</ele>
        <time>2020-10-25T12:40:36.000Z</time>
      </trkpt>
      <trkpt lat="43.6603" lon="3.82985">
        <ele>102.25674301914</ele>
        <time>2020-10-25T12:40:37.000Z</time>
      </trkpt>
      <trkpt lat="43.66033" lon="3.82985">
        <ele>102.45654328281</ele>
        <time>2020-10-25T12:40:38.000Z</time>
      </trkpt>
      <trkpt lat="43.66036" lon="3.82985">
        <ele>102.65634354648</ele>
        <time>2020-10-25T12:40:39.000Z</time>
      </trkpt>
      <trkpt lat="43.66039" lon="3.82985">
        <ele>102.85614381016</ele>
        <time>2020-10-25T12:40:40.000Z</time>
      </trkpt>
      <trkpt lat="43.66041" lon="3.82985">
        <ele>103.02805609423</ele>
        <time>2020-10-25T12:40:41.000Z</time>
      </trkpt>
      <trkpt lat="43.66044" lon="3.82984">
        <ele>103.12825643078</ele>
        <time>2020-10-25T12:40:42.000Z</time>
      </trkpt>
      <trkpt lat="43.66047" lon="3.82984">
        <ele>103.22845676732</ele>
        <time>2020-10-25T12:40:43.000Z</time>
      </trkpt>
      <trkpt lat="43.6605" lon="3.82984">
        <ele>103.32865710387</ele>
        <time>2020-10-25T12:40:44.000Z</time>
      </trkpt>
      <trkpt lat="43.66053" lon="3.82984">
        <ele>103.42885744041</ele>
        <time>2020-10-25T12:40:45.000Z</time>
      </trkpt>
      <trkpt lat="43.66055" lon="3.82983">
        <ele>103.52905777696</ele>
        <time>2020-10-25T12:40:46.000Z</time>
      </trkpt>
      <trkpt lat="43.66058" lon="3.82983">
        <ele>103.6292581135</ele>
        <time>2020-10-25T12:40:47.000Z</time>
      </trkpt>
      <trkpt lat="43.66061" lon="3.82983">
        <ele>103.72945845005</ele>
        <time>2020-10-25T12:40:48.000Z</time>
      </trkpt>
      <trkpt lat="43.66064" lon="3.82983">
        <ele>103.82965878659</ele>
        <time>2020-10-25T12:40:49.000Z</time>
      </trkpt>
      <trkpt lat="43.66067" lon="3.82983">
        <ele>103.92985912314</ele>
        <time>2020-10-25T12:40:50.000Z</time>
      </trkpt>
      <trkpt lat="43.6607" lon="3.82983">
        <ele>104</ele>
        <time>2020-10-25T12:40:51.000Z</time>
      </trkpt>
      <trkpt lat="43.66073" lon="3.82983">
        <ele>104</ele>
        <time>2020-10-25T12:40:52.000Z</time>
      </trkpt>
      <trkpt lat="43.66076" lon="3.82983">
        <ele>104</ele>
        <time>2020-10-25T12:40:53.000Z</time>
      </trkpt>
      <trkpt lat="43.66078" lon="3.82983">
        <ele>104</ele>
        <time>2020-10-25T12:40:54.000Z</time>
      </trkpt>
      <trkpt lat="43.66081" lon="3.82983">
        <ele>104</ele>
        <time>2020-10-25T12:40:55.000Z</time>
      </trkpt>
      <trkpt lat="43.66084" lon="3.82983">
        <ele>104</ele>
        <time>2020-10-25T12:40:56.000Z</time>
      </trkpt>
      <trkpt lat="43.66086" lon="3.82983">
        <ele>104</ele>
        <time>2020-10-25T12:40:57.000Z</time>
      </trkpt>
      <trkpt lat="43.66089" lon="3.82982">
        <ele>104</ele>
        <time>2020-10-25T12:40:58.000Z</time>
      </trkpt>
      <trkpt lat="43.66092" lon="3.82982">
        <ele>104</ele>
        <time>2020-10-25T12:40:59.000Z</time>
      </trkpt>
      <trkpt lat="43.66094" lon="3.82982">
        <ele>104</ele>
        <time>2020-10-25T12:41:00.000Z</time>
      </trkpt>
      <trkpt lat="43.66097" lon="3.82982">
        <ele>104.02999936</ele>
        <time>2020-10-25T12:41:01.000Z</time>
      </trkpt>
      <trkpt lat="43.661" lon="3.82982">
        <ele>104.12999936</ele>
        <time>2020-10-25T12:41:02.000Z</time>
      </trkpt>
      <trkpt lat="43.66103" lon="3.82983">
        <ele>104.22999936</ele>
        <time>2020-10-25T12:41:03.000Z</time>
      </trkpt>
      <trkpt lat="43.66106" lon="3.82983">
        <ele>104.32999936</ele>
        <time>2020-10-25T12:41:04.000Z</time>
      </trkpt>
      <trkpt lat="43.66108" lon="3.82983">
        <ele>104.42999936</ele>
        <time>2020-10-25T12:41:05.000Z</time>
      </trkpt>
      <trkpt lat="43.66111" lon="3.82984">
        <ele>104.52999936</ele>
        <time>2020-10-25T12:41:06.000Z</time>
      </trkpt>
      <trkpt lat="43.66114" lon="3.82985">
        <ele>104.62999936</ele>
        <time>2020-10-25T12:41:07.000Z</time>
      </trkpt>
      <trkpt lat="43.66116" lon="3.82985">
        <ele>104.72999936</ele>
        <time>2020-10-25T12:41:08.000Z</time>
      </trkpt>
      <trkpt lat="43.66119" lon="3.82986">
        <ele>104.82999936</ele>
        <time>2020-10-25T12:41:09.000Z</time>
      </trkpt>
      <trkpt lat="43.66122" lon="3.82988">
        <ele>104.92999936</ele>
        <time>2020-10-25T12:41:10.000Z</time>
      </trkpt>
      <trkpt lat="43.66124" lon="3.82989">
        <ele>105</ele>
        <time>2020-10-25T12:41:11.000Z</time>
      </trkpt>
      <trkpt lat="43.66127" lon="3.82991">
        <ele>105</ele>
        <time>2020-10-25T12:41:12.000Z</time>
      </trkpt>
      <trkpt lat="43.66129" lon="3.82993">
        <ele>105</ele>
        <time>2020-10-25T12:41:13.000Z</time>
      </trkpt>
      <trkpt lat="43.66131" lon="3.82994">
        <ele>105</ele>
        <time>2020-10-25T12:41:14.000Z</time>
      </trkpt>
      <trkpt lat="43.66134" lon="3.82996">
        <ele>105</ele>
        <time>2020-10-25T12:41:15.000Z</time>
      </trkpt>
      <trkpt lat="43.66136" lon="3.82998">
        <ele>105</ele>
        <time>2020-10-25T12:41:16.000Z</time>
      </trkpt>
      <trkpt lat="43.66139" lon="3.83">
        <ele>105</ele>
        <time>2020-10-25T12:41:17.000Z</time>
      </trkpt>
      <trkpt lat="43.66141" lon="3.83002">
        <ele>105</ele>
        <time>2020-10-25T12:41:18.000Z</time>
      </trkpt>
      <trkpt lat="43.66144" lon="3.83003">
        <ele>105</ele>
        <time>2020-10-25T12:41:19.000Z</time>
      </trkpt>
      <trkpt lat="43.66147" lon="3.83005">
        <ele>105</ele>
        <time>2020-10-25T12:41:20.000Z</time>
      </trkpt>
      <trkpt lat="43.66149" lon="3.83007">
        <ele>105.02904101577</ele>
        <time>2020-10-25T12:41:21.000Z</time>
      </trkpt>
      <trkpt lat="43.66151" lon="3.83009">
        <ele>105.12584646686</ele>
        <time>2020-10-25T12:41:22.000Z</time>
      </trkpt>
      <trkpt lat="43.66154" lon="3.8301">
        <ele>105.22265191796</ele>
        <time>2020-10-25T12:41:23.000Z</time>
      </trkpt>
      <trkpt lat="43.66156" lon="3.83012">
        <ele>105.31945736905</ele>
        <time>2020-10-25T12:41:24.000Z</time>
      </trkpt>
      <trkpt lat="43.66159" lon="3.83014">
        <ele>105.41626282014</ele>
        <time>2020-10-25T12:41:25.000Z</time>
      </trkpt>
      <trkpt lat="43.66162" lon="3.83016">
        <ele>105.51306827123</ele>
        <time>2020-10-25T12:41:26.000Z</time>
      </trkpt>
      <trkpt lat="43.66165" lon="3.83018">
        <ele>105.60987372232</ele>
        <time>2020-10-25T12:41:27.000Z</time>
      </trkpt>
      <trkpt lat="43.66168" lon="3.83019">
        <ele>105.70667917341</ele>
        <time>2020-10-25T12:41:28.000Z</time>
      </trkpt>
      <trkpt lat="43.6617" lon="3.83021">
        <ele>105.80348462451</ele>
        <time>2020-10-25T12:41:29.000Z</time>
      </trkpt>
      <trkpt lat="43.66173" lon="3.83023">
        <ele>105.9002900756</ele>
        <time>2020-10-25T12:41:30.000Z</time>
      </trkpt>
      <trkpt lat="43.66176" lon="3.83025">
        <ele>105.99709552669</ele>
        <time>2020-10-25T12:41:31.000Z</time>
      </trkpt>
      <trkpt lat="43.66179" lon="3.83026">
        <ele>106.10030987373</ele>
        <time>2020-10-25T12:41:32.000Z</time>
      </trkpt>
      <trkpt lat="43.66182" lon="3.83028">
        <ele>106.20372245585</ele>
        <time>2020-10-25T12:41:33.000Z</time>
      </trkpt>
      <trkpt lat="43.66184" lon="3.83029">
        <ele>106.30713503797</ele>
        <time>2020-10-25T12:41:34.000Z</time>
      </trkpt>
      <trkpt lat="43.66187" lon="3.8303">
        <ele>106.51396020221</ele>
        <time>2020-10-25T12:41:36.000Z</time>
      </trkpt>
      <trkpt lat="43.66189" lon="3.83031">
        <ele>106.61737278432</ele>
        <time>2020-10-25T12:41:37.000Z</time>
      </trkpt>
      <trkpt lat="43.66191" lon="3.83033">
        <ele>106.72078536644</ele>
        <time>2020-10-25T12:41:38.000Z</time>
      </trkpt>
      <trkpt lat="43.66193" lon="3.83034">
        <ele>106.82419794856</ele>
        <time>2020-10-25T12:41:39.000Z</time>
      </trkpt>
      <trkpt lat="43.66194" lon="3.83036">
        <ele>106.92761053068</ele>
        <time>2020-10-25T12:41:40.000Z</time>
      </trkpt>
      <trkpt lat="43.66196" lon="3.83037">
        <ele>107.02923916054</ele>
        <time>2020-10-25T12:41:41.000Z</time>
      </trkpt>
      <trkpt lat="43.66198" lon="3.83038">
        <ele>107.12670510828</ele>
        <time>2020-10-25T12:41:42.000Z</time>
      </trkpt>
      <trkpt lat="43.662" lon="3.83039">
        <ele>107.22417105601</ele>
        <time>2020-10-25T12:41:43.000Z</time>
      </trkpt>
      <trkpt lat="43.66202" lon="3.83039">
        <ele>107.32163700375</ele>
        <time>2020-10-25T12:41:44.000Z</time>
      </trkpt>
      <trkpt lat="43.66204" lon="3.83039">
        <ele>107.41910295149</ele>
        <time>2020-10-25T12:41:45.000Z</time>
      </trkpt>
      <trkpt lat="43.66206" lon="3.8304">
        <ele>107.51656889922</ele>
        <time>2020-10-25T12:41:46.000Z</time>
      </trkpt>
      <trkpt lat="43.66208" lon="3.8304">
        <ele>107.61403484696</ele>
        <time>2020-10-25T12:41:47.000Z</time>
      </trkpt>
      <trkpt lat="43.66211" lon="3.8304">
        <ele>107.7115007947</ele>
        <time>2020-10-25T12:41:48.000Z</time>
      </trkpt>
      <trkpt lat="43.66213" lon="3.8304">
        <ele>107.80896674244</ele>
        <time>2020-10-25T12:41:49.000Z</time>
      </trkpt>
      <trkpt lat="43.66216" lon="3.8304">
        <ele>107.90643269017</ele>
        <time>2020-10-25T12:41:50.000Z</time>
      </trkpt>
      <trkpt lat="43.66218" lon="3.8304">
        <ele>108</ele>
        <time>2020-10-25T12:41:51.000Z</time>
      </trkpt>
      <trkpt lat="43.66221" lon="3.8304">
        <ele>108</ele>
        <time>2020-10-25T12:41:52.000Z</time>
      </trkpt>
      <trkpt lat="43.66223" lon="3.83039">
        <ele>108</ele>
        <time>2020-10-25T12:41:53.000Z</time>
      </trkpt>
      <trkpt lat="43.66225" lon="3.83039">
        <ele>108</ele>
        <time>2020-10-25T12:41:54.000Z</time>
      </trkpt>
      <trkpt lat="43.66228" lon="3.83038">
        <ele>108</ele>
        <time>2020-10-25T12:41:55.000Z</time>
      </trkpt>
      <trkpt lat="43.66229" lon="3.83038">
        <ele>108</ele>
        <time>2020-10-25T12:41:56.000Z</time>
      </trkpt>
      <trkpt lat="43.66232" lon="3.83036">
        <ele>108</ele>
        <time>2020-10-25T12:41:58.000Z</time>
      </trkpt>
      <trkpt lat="43.66234" lon="3.83036">
        <ele>108</ele>
        <time>2020-10-25T12:41:59.000Z</time>
      </trkpt>
      <trkpt lat="43.66236" lon="3.83036">
        <ele>108</ele>
        <time>2020-10-25T12:42:00.000Z</time>
      </trkpt>
      <trkpt lat="43.66238" lon="3.83036">
        <ele>108.02999936</ele>
        <time>2020-10-25T12:42:01.000Z</time>
      </trkpt>
      <trkpt lat="43.66241" lon="3.83037">
        <ele>108.12999936</ele>
        <time>2020-10-25T12:42:02.000Z</time>
      </trkpt>
      <trkpt lat="43.66243" lon="3.83037">
        <ele>108.22999936</ele>
        <time>2020-10-25T12:42:03.000Z</time>
      </trkpt>
      <trkpt lat="43.66244" lon="3.83038">
        <ele>108.32999936</ele>
        <time>2020-10-25T12:42:04.000Z</time>
      </trkpt>
      <trkpt lat="43.66248" lon="3.83037">
        <ele>108.52999936</ele>
        <time>2020-10-25T12:42:06.000Z</time>
      </trkpt>
      <trkpt lat="43.66249" lon="3.83037">
        <ele>108.62999936</ele>
        <time>2020-10-25T12:42:07.000Z</time>
      </trkpt>
      <trkpt lat="43.66253" lon="3.83035">
        <ele>108.82999936</ele>
        <time>2020-10-25T12:42:09.000Z</time>
      </trkpt>
      <trkpt lat="43.66255" lon="3.83034">
        <ele>108.92999936</ele>
        <time>2020-10-25T12:42:10.000Z</time>
      </trkpt>
      <trkpt lat="43.66258" lon="3.83033">
        <ele>109</ele>
        <time>2020-10-25T12:42:11.000Z</time>
      </trkpt>
      <trkpt lat="43.6626" lon="3.83032">
        <ele>109</ele>
        <time>2020-10-25T12:42:12.000Z</time>
      </trkpt>
      <trkpt lat="43.66263" lon="3.8303">
        <ele>109</ele>
        <time>2020-10-25T12:42:13.000Z</time>
      </trkpt>
      <trkpt lat="43.66265" lon="3.83029">
        <ele>109</ele>
        <time>2020-10-25T12:42:14.000Z</time>
      </trkpt>
      <trkpt lat="43.66268" lon="3.83028">
        <ele>109</ele>
        <time>2020-10-25T12:42:15.000Z</time>
      </trkpt>
      <trkpt lat="43.6627" lon="3.83026">
        <ele>109</ele>
        <time>2020-10-25T12:42:16.000Z</time>
      </trkpt>
      <trkpt lat="43.66273" lon="3.83025">
        <ele>109</ele>
        <time>2020-10-25T12:42:17.000Z</time>
      </trkpt>
      <trkpt lat="43.66276" lon="3.83024">
        <ele>109</ele>
        <time>2020-10-25T12:42:18.000Z</time>
      </trkpt>
      <trkpt lat="43.66279" lon="3.83022">
        <ele>109</ele>
        <time>2020-10-25T12:42:19.000Z</time>
      </trkpt>
      <trkpt lat="43.66282" lon="3.83021">
        <ele>109</ele>
        <time>2020-10-25T12:42:20.000Z</time>
      </trkpt>
      <trkpt lat="43.66285" lon="3.83019">
        <ele>109.01722358104</ele>
        <time>2020-10-25T12:42:21.000Z</time>
      </trkpt>
      <trkpt lat="43.66288" lon="3.83018">
        <ele>109.11854067079</ele>
        <time>2020-10-25T12:42:22.000Z</time>
      </trkpt>
      <trkpt lat="43.66291" lon="3.83017">
        <ele>109.21985776053</ele>
        <time>2020-10-25T12:42:23.000Z</time>
      </trkpt>
      <trkpt lat="43.66294" lon="3.83015">
        <ele>109.32117485028</ele>
        <time>2020-10-25T12:42:24.000Z</time>
      </trkpt>
      <trkpt lat="43.66297" lon="3.83013">
        <ele>109.42249194002</ele>
        <time>2020-10-25T12:42:25.000Z</time>
      </trkpt>
      <trkpt lat="43.663" lon="3.83012">
        <ele>109.52380902977</ele>
        <time>2020-10-25T12:42:26.000Z</time>
      </trkpt>
      <trkpt lat="43.66303" lon="3.8301">
        <ele>109.62512611951</ele>
        <time>2020-10-25T12:42:27.000Z</time>
      </trkpt>
      <trkpt lat="43.66305" lon="3.83009">
        <ele>109.72644320926</ele>
        <time>2020-10-25T12:42:28.000Z</time>
      </trkpt>
      <trkpt lat="43.66308" lon="3.83007">
        <ele>109.827760299</ele>
        <time>2020-10-25T12:42:29.000Z</time>
      </trkpt>
      <trkpt lat="43.6631" lon="3.83006">
        <ele>109.92907738875</ele>
        <time>2020-10-25T12:42:30.000Z</time>
      </trkpt>
      <trkpt lat="43.66313" lon="3.83004">
        <ele>110.02912561033</ele>
        <time>2020-10-25T12:42:31.000Z</time>
      </trkpt>
      <trkpt lat="43.66316" lon="3.83002">
        <ele>110.1262130493</ele>
        <time>2020-10-25T12:42:32.000Z</time>
      </trkpt>
      <trkpt lat="43.66318" lon="3.83001">
        <ele>110.22330048826</ele>
        <time>2020-10-25T12:42:33.000Z</time>
      </trkpt>
      <trkpt lat="43.66321" lon="3.82999">
        <ele>110.32038792723</ele>
        <time>2020-10-25T12:42:34.000Z</time>
      </trkpt>
      <trkpt lat="43.66324" lon="3.82997">
        <ele>110.4174753662</ele>
        <time>2020-10-25T12:42:35.000Z</time>
      </trkpt>
      <trkpt lat="43.66327" lon="3.82996">
        <ele>110.51456280516</ele>
        <time>2020-10-25T12:42:36.000Z</time>
      </trkpt>
      <trkpt lat="43.66329" lon="3.82994">
        <ele>110.61165024413</ele>
        <time>2020-10-25T12:42:37.000Z</time>
      </trkpt>
      <trkpt lat="43.66332" lon="3.82993">
        <ele>110.7087376831</ele>
        <time>2020-10-25T12:42:38.000Z</time>
      </trkpt>
      <trkpt lat="43.66334" lon="3.82991">
        <ele>110.80582512207</ele>
        <time>2020-10-25T12:42:39.000Z</time>
      </trkpt>
      <trkpt lat="43.66337" lon="3.82989">
        <ele>110.90291256103</ele>
        <time>2020-10-25T12:42:40.000Z</time>
      </trkpt>
      <trkpt lat="43.6634" lon="3.82987">
        <ele>111</ele>
        <time>2020-10-25T12:42:41.000Z</time>
      </trkpt>
      <trkpt lat="43.66343" lon="3.82984">
        <ele>111.10309271549</ele>
        <time>2020-10-25T12:42:42.000Z</time>
      </trkpt>
      <trkpt lat="43.66346" lon="3.82981">
        <ele>111.20618543097</ele>
        <time>2020-10-25T12:42:43.000Z</time>
      </trkpt>
      <trkpt lat="43.66348" lon="3.82979">
        <ele>111.30927814646</ele>
        <time>2020-10-25T12:42:44.000Z</time>
      </trkpt>
      <trkpt lat="43.66351" lon="3.82977">
        <ele>111.41237086194</ele>
        <time>2020-10-25T12:42:45.000Z</time>
      </trkpt>
      <trkpt lat="43.66353" lon="3.82975">
        <ele>111.51546357743</ele>
        <time>2020-10-25T12:42:46.000Z</time>
      </trkpt>
      <trkpt lat="43.66355" lon="3.82973">
        <ele>111.61855629291</ele>
        <time>2020-10-25T12:42:47.000Z</time>
      </trkpt>
      <trkpt lat="43.66357" lon="3.82971">
        <ele>111.82474172388</ele>
        <time>2020-10-25T12:42:49.000Z</time>
      </trkpt>
      <trkpt lat="43.66358" lon="3.82969">
        <ele>112.02964367386</ele>
        <time>2020-10-25T12:42:51.000Z</time>
      </trkpt>
      <trkpt lat="43.66359" lon="3.82966">
        <ele>112.62252979925</ele>
        <time>2020-10-25T12:42:57.000Z</time>
      </trkpt>
      <trkpt lat="43.66361" lon="3.82964">
        <ele>112.82015850771</ele>
        <time>2020-10-25T12:42:59.000Z</time>
      </trkpt>
      <trkpt lat="43.66363" lon="3.82962">
        <ele>113.07072938579</ele>
        <time>2020-10-25T12:43:01.000Z</time>
      </trkpt>
      <trkpt lat="43.66365" lon="3.82959">
        <ele>113.85658350863</ele>
        <time>2020-10-25T12:43:03.000Z</time>
      </trkpt>
      <trkpt lat="43.66367" lon="3.82957">
        <ele>114.24951057005</ele>
        <time>2020-10-25T12:43:04.000Z</time>
      </trkpt>
      <trkpt lat="43.66369" lon="3.82956">
        <ele>114.64243763147</ele>
        <time>2020-10-25T12:43:05.000Z</time>
      </trkpt>
      <trkpt lat="43.66371" lon="3.82954">
        <ele>115.03536469289</ele>
        <time>2020-10-25T12:43:06.000Z</time>
      </trkpt>
      <trkpt lat="43.66373" lon="3.82952">
        <ele>115.42829175432</ele>
        <time>2020-10-25T12:43:07.000Z</time>
      </trkpt>
      <trkpt lat="43.66375" lon="3.82951">
        <ele>115.82121881574</ele>
        <time>2020-10-25T12:43:08.000Z</time>
      </trkpt>
      <trkpt lat="43.66378" lon="3.82949">
        <ele>116.60707293858</ele>
        <time>2020-10-25T12:43:10.000Z</time>
      </trkpt>
      <trkpt lat="43.66381" lon="3.82946">
        <ele>117</ele>
        <time>2020-10-25T12:43:11.000Z</time>
      </trkpt>
      <trkpt lat="43.66383" lon="3.82945">
        <ele>117.10204081633</ele>
        <time>2020-10-25T12:43:12.000Z</time>
      </trkpt>
      <trkpt lat="43.66385" lon="3.82943">
        <ele>117.20408163265</ele>
        <time>2020-10-25T12:43:13.000Z</time>
      </trkpt>
      <trkpt lat="43.66388" lon="3.82942">
        <ele>117.30612244898</ele>
        <time>2020-10-25T12:43:14.000Z</time>
      </trkpt>
      <trkpt lat="43.6639" lon="3.82941">
        <ele>117.40816326531</ele>
        <time>2020-10-25T12:43:15.000Z</time>
      </trkpt>
      <trkpt lat="43.66392" lon="3.8294">
        <ele>117.51020408163</ele>
        <time>2020-10-25T12:43:16.000Z</time>
      </trkpt>
      <trkpt lat="43.66394" lon="3.82937">
        <ele>117.61224489796</ele>
        <time>2020-10-25T12:43:17.000Z</time>
      </trkpt>
      <trkpt lat="43.66403" lon="3.82929">
        <ele>118.02020200714</ele>
        <time>2020-10-25T12:43:21.000Z</time>
      </trkpt>
      <trkpt lat="43.66412" lon="3.82922">
        <ele>118.32323211427</ele>
        <time>2020-10-25T12:43:24.000Z</time>
      </trkpt>
      <trkpt lat="43.66415" lon="3.8292">
        <ele>118.42424214999</ele>
        <time>2020-10-25T12:43:25.000Z</time>
      </trkpt>
      <trkpt lat="43.66418" lon="3.82917">
        <ele>118.5252521857</ele>
        <time>2020-10-25T12:43:26.000Z</time>
      </trkpt>
      <trkpt lat="43.6643" lon="3.82909">
        <ele>118.82828229283</ele>
        <time>2020-10-25T12:43:29.000Z</time>
      </trkpt>
      <trkpt lat="43.6644" lon="3.829">
        <ele>119.12999936</ele>
        <time>2020-10-25T12:43:32.000Z</time>
      </trkpt>
      <trkpt lat="43.6645" lon="3.82893">
        <ele>119.42999936</ele>
        <time>2020-10-25T12:43:35.000Z</time>
      </trkpt>
      <trkpt lat="43.66453" lon="3.82891">
        <ele>119.52999936</ele>
        <time>2020-10-25T12:43:36.000Z</time>
      </trkpt>
      <trkpt lat="43.66463" lon="3.82885">
        <ele>119.92999936</ele>
        <time>2020-10-25T12:43:40.000Z</time>
      </trkpt>
      <trkpt lat="43.66472" lon="3.82878">
        <ele>120</ele>
        <time>2020-10-25T12:43:44.000Z</time>
      </trkpt>
      <trkpt lat="43.66481" lon="3.82871">
        <ele>120</ele>
        <time>2020-10-25T12:43:47.000Z</time>
      </trkpt>
      <trkpt lat="43.66489" lon="3.82865">
        <ele>120</ele>
        <time>2020-10-25T12:43:50.000Z</time>
      </trkpt>
      <trkpt lat="43.66499" lon="3.82858">
        <ele>120</ele>
        <time>2020-10-25T12:43:53.000Z</time>
      </trkpt>
      <trkpt lat="43.66508" lon="3.82851">
        <ele>120</ele>
        <time>2020-10-25T12:43:56.000Z</time>
      </trkpt>
      <trkpt lat="43.66518" lon="3.82844">
        <ele>120</ele>
        <time>2020-10-25T12:43:59.000Z</time>
      </trkpt>
      <trkpt lat="43.66529" lon="3.82836">
        <ele>120</ele>
        <time>2020-10-25T12:44:02.000Z</time>
      </trkpt>
      <trkpt lat="43.6654" lon="3.82827">
        <ele>120</ele>
        <time>2020-10-25T12:44:05.000Z</time>
      </trkpt>
      <trkpt lat="43.66548" lon="3.82819">
        <ele>120</ele>
        <time>2020-10-25T12:44:07.000Z</time>
      </trkpt>
      <trkpt lat="43.66557" lon="3.82813">
        <ele>120</ele>
        <time>2020-10-25T12:44:09.000Z</time>
      </trkpt>
      <trkpt lat="43.66567" lon="3.82806">
        <ele>119.97000064</ele>
        <time>2020-10-25T12:44:11.000Z</time>
      </trkpt>
      <trkpt lat="43.66577" lon="3.82799">
        <ele>119.67000064</ele>
        <time>2020-10-25T12:44:14.000Z</time>
      </trkpt>
      <trkpt lat="43.6659" lon="3.8279">
        <ele>119.37000064</ele>
        <time>2020-10-25T12:44:17.000Z</time>
      </trkpt>
      <trkpt lat="43.66599" lon="3.82784">
        <ele>119.17000064</ele>
        <time>2020-10-25T12:44:19.000Z</time>
      </trkpt>
      <trkpt lat="43.6661" lon="3.82774">
        <ele>119</ele>
        <time>2020-10-25T12:44:22.000Z</time>
      </trkpt>
      <trkpt lat="43.6662" lon="3.82768">
        <ele>119</ele>
        <time>2020-10-25T12:44:25.000Z</time>
      </trkpt>
      <trkpt lat="43.66629" lon="3.82761">
        <ele>119</ele>
        <time>2020-10-25T12:44:28.000Z</time>
      </trkpt>
      <trkpt lat="43.66639" lon="3.82752">
        <ele>118.94162974475</ele>
        <time>2020-10-25T12:44:31.000Z</time>
      </trkpt>
      <trkpt lat="43.66649" lon="3.82744">
        <ele>118.552486408</ele>
        <time>2020-10-25T12:44:33.000Z</time>
      </trkpt>
      <trkpt lat="43.66654" lon="3.82739">
        <ele>118.35791473963</ele>
        <time>2020-10-25T12:44:34.000Z</time>
      </trkpt>
      <trkpt lat="43.6666" lon="3.82734">
        <ele>118.16334307126</ele>
        <time>2020-10-25T12:44:35.000Z</time>
      </trkpt>
      <trkpt lat="43.66664" lon="3.8273">
        <ele>117.96877140288</ele>
        <time>2020-10-25T12:44:36.000Z</time>
      </trkpt>
      <trkpt lat="43.66666" lon="3.82727">
        <ele>117.77419973451</ele>
        <time>2020-10-25T12:44:37.000Z</time>
      </trkpt>
      <trkpt lat="43.66669" lon="3.82724">
        <ele>117.57962806614</ele>
        <time>2020-10-25T12:44:38.000Z</time>
      </trkpt>
      <trkpt lat="43.66671" lon="3.82721">
        <ele>117.38505639777</ele>
        <time>2020-10-25T12:44:39.000Z</time>
      </trkpt>
      <trkpt lat="43.66674" lon="3.82719">
        <ele>117.19048472939</ele>
        <time>2020-10-25T12:44:40.000Z</time>
      </trkpt>
      <trkpt lat="43.66676" lon="3.82717">
        <ele>116.99784367214</ele>
        <time>2020-10-25T12:44:41.000Z</time>
      </trkpt>
      <trkpt lat="43.66679" lon="3.82715">
        <ele>116.89518485814</ele>
        <time>2020-10-25T12:44:42.000Z</time>
      </trkpt>
      <trkpt lat="43.66683" lon="3.82715">
        <ele>116.79252604413</ele>
        <time>2020-10-25T12:44:43.000Z</time>
      </trkpt>
      <trkpt lat="43.66685" lon="3.82713">
        <ele>116.68986723012</ele>
        <time>2020-10-25T12:44:44.000Z</time>
      </trkpt>
      <trkpt lat="43.66686" lon="3.8271">
        <ele>116.58720841612</ele>
        <time>2020-10-25T12:44:45.000Z</time>
      </trkpt>
      <trkpt lat="43.66688" lon="3.82706">
        <ele>116.48454960211</ele>
        <time>2020-10-25T12:44:46.000Z</time>
      </trkpt>
      <trkpt lat="43.66691" lon="3.82702">
        <ele>116.3818907881</ele>
        <time>2020-10-25T12:44:47.000Z</time>
      </trkpt>
      <trkpt lat="43.66693" lon="3.82698">
        <ele>116.2792319741</ele>
        <time>2020-10-25T12:44:48.000Z</time>
      </trkpt>
      <trkpt lat="43.66694" lon="3.82693">
        <ele>116.17657316009</ele>
        <time>2020-10-25T12:44:49.000Z</time>
      </trkpt>
      <trkpt lat="43.66696" lon="3.82689">
        <ele>116.07391434609</ele>
        <time>2020-10-25T12:44:50.000Z</time>
      </trkpt>
      <trkpt lat="43.66698" lon="3.82684">
        <ele>116</ele>
        <time>2020-10-25T12:44:51.000Z</time>
      </trkpt>
      <trkpt lat="43.66699" lon="3.8268">
        <ele>116</ele>
        <time>2020-10-25T12:44:52.000Z</time>
      </trkpt>
      <trkpt lat="43.66701" lon="3.82677">
        <ele>116</ele>
        <time>2020-10-25T12:44:53.000Z</time>
      </trkpt>
      <trkpt lat="43.66702" lon="3.82673">
        <ele>116</ele>
        <time>2020-10-25T12:44:54.000Z</time>
      </trkpt>
      <trkpt lat="43.66704" lon="3.82669">
        <ele>116</ele>
        <time>2020-10-25T12:44:55.000Z</time>
      </trkpt>
      <trkpt lat="43.66707" lon="3.82668">
        <ele>116</ele>
        <time>2020-10-25T12:44:56.000Z</time>
      </trkpt>
      <trkpt lat="43.6671" lon="3.82667">
        <ele>116</ele>
        <time>2020-10-25T12:44:57.000Z</time>
      </trkpt>
      <trkpt lat="43.66714" lon="3.82667">
        <ele>116</ele>
        <time>2020-10-25T12:44:58.000Z</time>
      </trkpt>
      <trkpt lat="43.66718" lon="3.82665">
        <ele>116</ele>
        <time>2020-10-25T12:44:59.000Z</time>
      </trkpt>
      <trkpt lat="43.66721" lon="3.82664">
        <ele>116</ele>
        <time>2020-10-25T12:45:00.000Z</time>
      </trkpt>
      <trkpt lat="43.66725" lon="3.82661">
        <ele>116.02020200714</ele>
        <time>2020-10-25T12:45:01.000Z</time>
      </trkpt>
      <trkpt lat="43.66729" lon="3.82659">
        <ele>116.12121204285</ele>
        <time>2020-10-25T12:45:02.000Z</time>
      </trkpt>
      <trkpt lat="43.66733" lon="3.82657">
        <ele>116.22222207856</ele>
        <time>2020-10-25T12:45:03.000Z</time>
      </trkpt>
      <trkpt lat="43.66737" lon="3.82654">
        <ele>116.32323211427</ele>
        <time>2020-10-25T12:45:04.000Z</time>
      </trkpt>
      <trkpt lat="43.6674" lon="3.82651">
        <ele>116.42424214999</ele>
        <time>2020-10-25T12:45:05.000Z</time>
      </trkpt>
      <trkpt lat="43.66745" lon="3.82648">
        <ele>116.5252521857</ele>
        <time>2020-10-25T12:45:06.000Z</time>
      </trkpt>
      <trkpt lat="43.66749" lon="3.82644">
        <ele>116.62626222141</ele>
        <time>2020-10-25T12:45:07.000Z</time>
      </trkpt>
      <trkpt lat="43.66753" lon="3.82641">
        <ele>116.72727225712</ele>
        <time>2020-10-25T12:45:08.000Z</time>
      </trkpt>
      <trkpt lat="43.66757" lon="3.82638">
        <ele>116.82828229283</ele>
        <time>2020-10-25T12:45:09.000Z</time>
      </trkpt>
      <trkpt lat="43.66761" lon="3.82635">
        <ele>116.92929232854</ele>
        <time>2020-10-25T12:45:10.000Z</time>
      </trkpt>
      <trkpt lat="43.66765" lon="3.82631">
        <ele>117</ele>
        <time>2020-10-25T12:45:11.000Z</time>
      </trkpt>
      <trkpt lat="43.66768" lon="3.82629">
        <ele>117</ele>
        <time>2020-10-25T12:45:12.000Z</time>
      </trkpt>
      <trkpt lat="43.66771" lon="3.82627">
        <ele>117</ele>
        <time>2020-10-25T12:45:13.000Z</time>
      </trkpt>
      <trkpt lat="43.66774" lon="3.82624">
        <ele>117</ele>
        <time>2020-10-25T12:45:14.000Z</time>
      </trkpt>
      <trkpt lat="43.66778" lon="3.82622">
        <ele>117</ele>
        <time>2020-10-25T12:45:15.000Z</time>
      </trkpt>
      <trkpt lat="43.66781" lon="3.8262">
        <ele>117</ele>
        <time>2020-10-25T12:45:16.000Z</time>
      </trkpt>
      <trkpt lat="43.66786" lon="3.82618">
        <ele>117</ele>
        <time>2020-10-25T12:45:17.000Z</time>
      </trkpt>
      <trkpt lat="43.6679" lon="3.82615">
        <ele>117</ele>
        <time>2020-10-25T12:45:18.000Z</time>
      </trkpt>
      <trkpt lat="43.66793" lon="3.82612">
        <ele>117</ele>
        <time>2020-10-25T12:45:19.000Z</time>
      </trkpt>
      <trkpt lat="43.66797" lon="3.8261">
        <ele>117</ele>
        <time>2020-10-25T12:45:20.000Z</time>
      </trkpt>
      <trkpt lat="43.66801" lon="3.82607">
        <ele>117</ele>
        <time>2020-10-25T12:45:21.000Z</time>
      </trkpt>
      <trkpt lat="43.66804" lon="3.82604">
        <ele>117</ele>
        <time>2020-10-25T12:45:22.000Z</time>
      </trkpt>
      <trkpt lat="43.66807" lon="3.82601">
        <ele>117</ele>
        <time>2020-10-25T12:45:23.000Z</time>
      </trkpt>
      <trkpt lat="43.6681" lon="3.82597">
        <ele>117</ele>
        <time>2020-10-25T12:45:24.000Z</time>
      </trkpt>
      <trkpt lat="43.66812" lon="3.82593">
        <ele>117</ele>
        <time>2020-10-25T12:45:25.000Z</time>
      </trkpt>
      <trkpt lat="43.66815" lon="3.8259">
        <ele>117</ele>
        <time>2020-10-25T12:45:26.000Z</time>
      </trkpt>
      <trkpt lat="43.66817" lon="3.82586">
        <ele>117</ele>
        <time>2020-10-25T12:45:27.000Z</time>
      </trkpt>
      <trkpt lat="43.66819" lon="3.82583">
        <ele>117</ele>
        <time>2020-10-25T12:45:28.000Z</time>
      </trkpt>
      <trkpt lat="43.66822" lon="3.82579">
        <ele>117</ele>
        <time>2020-10-25T12:45:29.000Z</time>
      </trkpt>
      <trkpt lat="43.66826" lon="3.82576">
        <ele>117</ele>
        <time>2020-10-25T12:45:30.000Z</time>
      </trkpt>
      <trkpt lat="43.66829" lon="3.82574">
        <ele>117</ele>
        <time>2020-10-25T12:45:31.000Z</time>
      </trkpt>
      <trkpt lat="43.66834" lon="3.8257">
        <ele>117</ele>
        <time>2020-10-25T12:45:32.000Z</time>
      </trkpt>
      <trkpt lat="43.66839" lon="3.82567">
        <ele>117</ele>
        <time>2020-10-25T12:45:33.000Z</time>
      </trkpt>
      <trkpt lat="43.66844" lon="3.82564">
        <ele>117</ele>
        <time>2020-10-25T12:45:34.000Z</time>
      </trkpt>
      <trkpt lat="43.66849" lon="3.82561">
        <ele>117</ele>
        <time>2020-10-25T12:45:35.000Z</time>
      </trkpt>
      <trkpt lat="43.66853" lon="3.82557">
        <ele>117</ele>
        <time>2020-10-25T12:45:36.000Z</time>
      </trkpt>
      <trkpt lat="43.66857" lon="3.82553">
        <ele>117</ele>
        <time>2020-10-25T12:45:37.000Z</time>
      </trkpt>
      <trkpt lat="43.66864" lon="3.82544">
        <ele>117</ele>
        <time>2020-10-25T12:45:39.000Z</time>
      </trkpt>
      <trkpt lat="43.66867" lon="3.8254">
        <ele>117</ele>
        <time>2020-10-25T12:45:40.000Z</time>
      </trkpt>
      <trkpt lat="43.66871" lon="3.82536">
        <ele>116.97000064</ele>
        <time>2020-10-25T12:45:41.000Z</time>
      </trkpt>
      <trkpt lat="43.66874" lon="3.82533">
        <ele>116.87000064</ele>
        <time>2020-10-25T12:45:42.000Z</time>
      </trkpt>
      <trkpt lat="43.66878" lon="3.82529">
        <ele>116.77000064</ele>
        <time>2020-10-25T12:45:43.000Z</time>
      </trkpt>
      <trkpt lat="43.66883" lon="3.82526">
        <ele>116.67000064</ele>
        <time>2020-10-25T12:45:44.000Z</time>
      </trkpt>
      <trkpt lat="43.66887" lon="3.82523">
        <ele>116.57000064</ele>
        <time>2020-10-25T12:45:45.000Z</time>
      </trkpt>
      <trkpt lat="43.66891" lon="3.82519">
        <ele>116.47000064</ele>
        <time>2020-10-25T12:45:46.000Z</time>
      </trkpt>
      <trkpt lat="43.66895" lon="3.82515">
        <ele>116.37000064</ele>
        <time>2020-10-25T12:45:47.000Z</time>
      </trkpt>
      <trkpt lat="43.66899" lon="3.82511">
        <ele>116.27000064</ele>
        <time>2020-10-25T12:45:48.000Z</time>
      </trkpt>
      <trkpt lat="43.66902" lon="3.82508">
        <ele>116.17000064</ele>
        <time>2020-10-25T12:45:49.000Z</time>
      </trkpt>
      <trkpt lat="43.66906" lon="3.82504">
        <ele>116.07000064</ele>
        <time>2020-10-25T12:45:50.000Z</time>
      </trkpt>
      <trkpt lat="43.66909" lon="3.82501">
        <ele>116</ele>
        <time>2020-10-25T12:45:51.000Z</time>
      </trkpt>
      <trkpt lat="43.66912" lon="3.82499">
        <ele>116</ele>
        <time>2020-10-25T12:45:52.000Z</time>
      </trkpt>
      <trkpt lat="43.66914" lon="3.82497">
        <ele>116</ele>
        <time>2020-10-25T12:45:53.000Z</time>
      </trkpt>
      <trkpt lat="43.66917" lon="3.82494">
        <ele>116</ele>
        <time>2020-10-25T12:45:54.000Z</time>
      </trkpt>
      <trkpt lat="43.6692" lon="3.82492">
        <ele>116</ele>
        <time>2020-10-25T12:45:55.000Z</time>
      </trkpt>
      <trkpt lat="43.66922" lon="3.82489">
        <ele>116</ele>
        <time>2020-10-25T12:45:56.000Z</time>
      </trkpt>
      <trkpt lat="43.66924" lon="3.82486">
        <ele>116</ele>
        <time>2020-10-25T12:45:57.000Z</time>
      </trkpt>
      <trkpt lat="43.66927" lon="3.82483">
        <ele>116</ele>
        <time>2020-10-25T12:45:58.000Z</time>
      </trkpt>
      <trkpt lat="43.6693" lon="3.8248">
        <ele>116</ele>
        <time>2020-10-25T12:45:59.000Z</time>
      </trkpt>
      <trkpt lat="43.66933" lon="3.82477">
        <ele>116</ele>
        <time>2020-10-25T12:46:00.000Z</time>
      </trkpt>
      <trkpt lat="43.66935" lon="3.82474">
        <ele>116</ele>
        <time>2020-10-25T12:46:01.000Z</time>
      </trkpt>
      <trkpt lat="43.66939" lon="3.82471">
        <ele>116</ele>
        <time>2020-10-25T12:46:02.000Z</time>
      </trkpt>
      <trkpt lat="43.66942" lon="3.82467">
        <ele>116</ele>
        <time>2020-10-25T12:46:03.000Z</time>
      </trkpt>
      <trkpt lat="43.66945" lon="3.82464">
        <ele>116</ele>
        <time>2020-10-25T12:46:04.000Z</time>
      </trkpt>
      <trkpt lat="43.66948" lon="3.82461">
        <ele>116</ele>
        <time>2020-10-25T12:46:05.000Z</time>
      </trkpt>
      <trkpt lat="43.66952" lon="3.82458">
        <ele>116</ele>
        <time>2020-10-25T12:46:06.000Z</time>
      </trkpt>
      <trkpt lat="43.66955" lon="3.82455">
        <ele>116</ele>
        <time>2020-10-25T12:46:07.000Z</time>
      </trkpt>
      <trkpt lat="43.66958" lon="3.82451">
        <ele>116</ele>
        <time>2020-10-25T12:46:08.000Z</time>
      </trkpt>
      <trkpt lat="43.66961" lon="3.82447">
        <ele>116</ele>
        <time>2020-10-25T12:46:09.000Z</time>
      </trkpt>
      <trkpt lat="43.66965" lon="3.82443">
        <ele>116</ele>
        <time>2020-10-25T12:46:10.000Z</time>
      </trkpt>
      <trkpt lat="43.6697" lon="3.82439">
        <ele>115.99897046378</ele>
        <time>2020-10-25T12:46:11.000Z</time>
      </trkpt>
      <trkpt lat="43.66974" lon="3.82436">
        <ele>115.89598388598</ele>
        <time>2020-10-25T12:46:12.000Z</time>
      </trkpt>
      <trkpt lat="43.66978" lon="3.82432">
        <ele>115.79299730818</ele>
        <time>2020-10-25T12:46:13.000Z</time>
      </trkpt>
      <trkpt lat="43.66981" lon="3.82427">
        <ele>115.69001073038</ele>
        <time>2020-10-25T12:46:14.000Z</time>
      </trkpt>
      <trkpt lat="43.66982" lon="3.82421">
        <ele>115.58702415258</ele>
        <time>2020-10-25T12:46:15.000Z</time>
      </trkpt>
      <trkpt lat="43.66984" lon="3.82415">
        <ele>115.48403757478</ele>
        <time>2020-10-25T12:46:16.000Z</time>
      </trkpt>
      <trkpt lat="43.66986" lon="3.82411">
        <ele>115.38105099698</ele>
        <time>2020-10-25T12:46:17.000Z</time>
      </trkpt>
      <trkpt lat="43.66989" lon="3.82408">
        <ele>115.27806441917</ele>
        <time>2020-10-25T12:46:18.000Z</time>
      </trkpt>
      <trkpt lat="43.66992" lon="3.82407">
        <ele>115.17507784137</ele>
        <time>2020-10-25T12:46:19.000Z</time>
      </trkpt>
      <trkpt lat="43.66994" lon="3.82405">
        <ele>115.07209126357</ele>
        <time>2020-10-25T12:46:20.000Z</time>
      </trkpt>
      <trkpt lat="43.66997" lon="3.82404">
        <ele>115.05999872</ele>
        <time>2020-10-25T12:46:21.000Z</time>
      </trkpt>
      <trkpt lat="43.66999" lon="3.82402">
        <ele>115.25999872</ele>
        <time>2020-10-25T12:46:22.000Z</time>
      </trkpt>
      <trkpt lat="43.67001" lon="3.824">
        <ele>115.45999872</ele>
        <time>2020-10-25T12:46:23.000Z</time>
      </trkpt>
      <trkpt lat="43.67003" lon="3.82398">
        <ele>115.65999872</ele>
        <time>2020-10-25T12:46:24.000Z</time>
      </trkpt>
      <trkpt lat="43.67005" lon="3.82397">
        <ele>115.85999872</ele>
        <time>2020-10-25T12:46:25.000Z</time>
      </trkpt>
      <trkpt lat="43.67007" lon="3.82395">
        <ele>116.05999872</ele>
        <time>2020-10-25T12:46:26.000Z</time>
      </trkpt>
      <trkpt lat="43.67009" lon="3.82393">
        <ele>116.25999872</ele>
        <time>2020-10-25T12:46:27.000Z</time>
      </trkpt>
      <trkpt lat="43.6701" lon="3.82391">
        <ele>116.45999872</ele>
        <time>2020-10-25T12:46:28.000Z</time>
      </trkpt>
      <trkpt lat="43.67012" lon="3.8239">
        <ele>116.65999872</ele>
        <time>2020-10-25T12:46:29.000Z</time>
      </trkpt>
      <trkpt lat="43.67014" lon="3.82386">
        <ele>117</ele>
        <time>2020-10-25T12:46:31.000Z</time>
      </trkpt>
      <trkpt lat="43.67015" lon="3.82384">
        <ele>117</ele>
        <time>2020-10-25T12:46:32.000Z</time>
      </trkpt>
      <trkpt lat="43.67016" lon="3.82381">
        <ele>117</ele>
        <time>2020-10-25T12:46:33.000Z</time>
      </trkpt>
      <trkpt lat="43.67017" lon="3.82378">
        <ele>117</ele>
        <time>2020-10-25T12:46:34.000Z</time>
      </trkpt>
      <trkpt lat="43.67019" lon="3.82375">
        <ele>117</ele>
        <time>2020-10-25T12:46:35.000Z</time>
      </trkpt>
      <trkpt lat="43.6702" lon="3.82372">
        <ele>117</ele>
        <time>2020-10-25T12:46:36.000Z</time>
      </trkpt>
      <trkpt lat="43.67022" lon="3.82368">
        <ele>117</ele>
        <time>2020-10-25T12:46:37.000Z</time>
      </trkpt>
      <trkpt lat="43.67024" lon="3.82364">
        <ele>117</ele>
        <time>2020-10-25T12:46:38.000Z</time>
      </trkpt>
      <trkpt lat="43.67025" lon="3.8236">
        <ele>117</ele>
        <time>2020-10-25T12:46:39.000Z</time>
      </trkpt>
      <trkpt lat="43.67026" lon="3.82356">
        <ele>117</ele>
        <time>2020-10-25T12:46:40.000Z</time>
      </trkpt>
      <trkpt lat="43.67026" lon="3.82352">
        <ele>117.05611218846</ele>
        <time>2020-10-25T12:46:41.000Z</time>
      </trkpt>
      <trkpt lat="43.67027" lon="3.82349">
        <ele>117.25651286155</ele>
        <time>2020-10-25T12:46:42.000Z</time>
      </trkpt>
      <trkpt lat="43.67028" lon="3.82345">
        <ele>117.45691353464</ele>
        <time>2020-10-25T12:46:43.000Z</time>
      </trkpt>
      <trkpt lat="43.67028" lon="3.82342">
        <ele>117.65731420773</ele>
        <time>2020-10-25T12:46:44.000Z</time>
      </trkpt>
      <trkpt lat="43.67029" lon="3.82338">
        <ele>117.85771488082</ele>
        <time>2020-10-25T12:46:45.000Z</time>
      </trkpt>
      <trkpt lat="43.6703" lon="3.82335">
        <ele>118.05811555391</ele>
        <time>2020-10-25T12:46:46.000Z</time>
      </trkpt>
      <trkpt lat="43.67031" lon="3.82332">
        <ele>118.258516227</ele>
        <time>2020-10-25T12:46:47.000Z</time>
      </trkpt>
      <trkpt lat="43.67032" lon="3.82328">
        <ele>118.45891690009</ele>
        <time>2020-10-25T12:46:48.000Z</time>
      </trkpt>
      <trkpt lat="43.67033" lon="3.82325">
        <ele>118.65931757318</ele>
        <time>2020-10-25T12:46:49.000Z</time>
      </trkpt>
      <trkpt lat="43.67033" lon="3.82323">
        <ele>118.85971824627</ele>
        <time>2020-10-25T12:46:50.000Z</time>
      </trkpt>
      <trkpt lat="43.67033" lon="3.82318">
        <ele>119.25999872</ele>
        <time>2020-10-25T12:46:52.000Z</time>
      </trkpt>
      <trkpt lat="43.67034" lon="3.82315">
        <ele>119.65999872</ele>
        <time>2020-10-25T12:46:54.000Z</time>
      </trkpt>
      <trkpt lat="43.67035" lon="3.82312">
        <ele>120.05999872</ele>
        <time>2020-10-25T12:46:56.000Z</time>
      </trkpt>
      <trkpt lat="43.67037" lon="3.8231">
        <ele>120.45999872</ele>
        <time>2020-10-25T12:46:58.000Z</time>
      </trkpt>
      <trkpt lat="43.67038" lon="3.82307">
        <ele>120.85999872</ele>
        <time>2020-10-25T12:47:00.000Z</time>
      </trkpt>
      <trkpt lat="43.6704" lon="3.82304">
        <ele>121.25999872</ele>
        <time>2020-10-25T12:47:02.000Z</time>
      </trkpt>
      <trkpt lat="43.67041" lon="3.82301">
        <ele>121.65999872</ele>
        <time>2020-10-25T12:47:04.000Z</time>
      </trkpt>
      <trkpt lat="43.67042" lon="3.82298">
        <ele>122.05999872</ele>
        <time>2020-10-25T12:47:06.000Z</time>
      </trkpt>
      <trkpt lat="43.67043" lon="3.82295">
        <ele>122.45999872</ele>
        <time>2020-10-25T12:47:08.000Z</time>
      </trkpt>
      <trkpt lat="43.67044" lon="3.82292">
        <ele>122.85999872</ele>
        <time>2020-10-25T12:47:10.000Z</time>
      </trkpt>
      <trkpt lat="43.67045" lon="3.8229">
        <ele>123</ele>
        <time>2020-10-25T12:47:11.000Z</time>
      </trkpt>
      <trkpt lat="43.67046" lon="3.82288">
        <ele>123</ele>
        <time>2020-10-25T12:47:12.000Z</time>
      </trkpt>
      <trkpt lat="43.67047" lon="3.82285">
        <ele>123</ele>
        <time>2020-10-25T12:47:13.000Z</time>
      </trkpt>
      <trkpt lat="43.67049" lon="3.82281">
        <ele>123</ele>
        <time>2020-10-25T12:47:15.000Z</time>
      </trkpt>
      <trkpt lat="43.6705" lon="3.82277">
        <ele>123</ele>
        <time>2020-10-25T12:47:17.000Z</time>
      </trkpt>
      <trkpt lat="43.6705" lon="3.82274">
        <ele>123</ele>
        <time>2020-10-25T12:47:18.000Z</time>
      </trkpt>
      <trkpt lat="43.6705" lon="3.82271">
        <ele>123</ele>
        <time>2020-10-25T12:47:19.000Z</time>
      </trkpt>
      <trkpt lat="43.6705" lon="3.82268">
        <ele>123</ele>
        <time>2020-10-25T12:47:20.000Z</time>
      </trkpt>
      <trkpt lat="43.67051" lon="3.82266">
        <ele>123</ele>
        <time>2020-10-25T12:47:21.000Z</time>
      </trkpt>
      <trkpt lat="43.67052" lon="3.82263">
        <ele>123</ele>
        <time>2020-10-25T12:47:22.000Z</time>
      </trkpt>
      <trkpt lat="43.67054" lon="3.82261">
        <ele>123</ele>
        <time>2020-10-25T12:47:23.000Z</time>
      </trkpt>
      <trkpt lat="43.67056" lon="3.8226">
        <ele>123</ele>
        <time>2020-10-25T12:47:24.000Z</time>
      </trkpt>
      <trkpt lat="43.67059" lon="3.82259">
        <ele>123</ele>
        <time>2020-10-25T12:47:25.000Z</time>
      </trkpt>
      <trkpt lat="43.67061" lon="3.82257">
        <ele>123</ele>
        <time>2020-10-25T12:47:26.000Z</time>
      </trkpt>
      <trkpt lat="43.67063" lon="3.82256">
        <ele>123</ele>
        <time>2020-10-25T12:47:27.000Z</time>
      </trkpt>
      <trkpt lat="43.67066" lon="3.82255">
        <ele>123</ele>
        <time>2020-10-25T12:47:28.000Z</time>
      </trkpt>
      <trkpt lat="43.67068" lon="3.82254">
        <ele>123</ele>
        <time>2020-10-25T12:47:29.000Z</time>
      </trkpt>
      <trkpt lat="43.6707" lon="3.82254">
        <ele>123</ele>
        <time>2020-10-25T12:47:30.000Z</time>
      </trkpt>
      <trkpt lat="43.67072" lon="3.82254">
        <ele>122.97000064</ele>
        <time>2020-10-25T12:47:31.000Z</time>
      </trkpt>
      <trkpt lat="43.67074" lon="3.82256">
        <ele>122.87000064</ele>
        <time>2020-10-25T12:47:32.000Z</time>
      </trkpt>
      <trkpt lat="43.67077" lon="3.82258">
        <ele>122.77000064</ele>
        <time>2020-10-25T12:47:33.000Z</time>
      </trkpt>
      <trkpt lat="43.67079" lon="3.8226">
        <ele>122.67000064</ele>
        <time>2020-10-25T12:47:34.000Z</time>
      </trkpt>
      <trkpt lat="43.67083" lon="3.82263">
        <ele>122.57000064</ele>
        <time>2020-10-25T12:47:35.000Z</time>
      </trkpt>
      <trkpt lat="43.67088" lon="3.82266">
        <ele>122.47000064</ele>
        <time>2020-10-25T12:47:36.000Z</time>
      </trkpt>
      <trkpt lat="43.67093" lon="3.8227">
        <ele>122.37000064</ele>
        <time>2020-10-25T12:47:37.000Z</time>
      </trkpt>
      <trkpt lat="43.67097" lon="3.82274">
        <ele>122.27000064</ele>
        <time>2020-10-25T12:47:38.000Z</time>
      </trkpt>
      <trkpt lat="43.67101" lon="3.82276">
        <ele>122.17000064</ele>
        <time>2020-10-25T12:47:39.000Z</time>
      </trkpt>
      <trkpt lat="43.67105" lon="3.82279">
        <ele>122.07000064</ele>
        <time>2020-10-25T12:47:40.000Z</time>
      </trkpt>
      <trkpt lat="43.6711" lon="3.82283">
        <ele>122.02918229314</ele>
        <time>2020-10-25T12:47:41.000Z</time>
      </trkpt>
      <trkpt lat="43.67118" lon="3.82293">
        <ele>122.22373506457</ele>
        <time>2020-10-25T12:47:43.000Z</time>
      </trkpt>
      <trkpt lat="43.67127" lon="3.82298">
        <ele>122.418287836</ele>
        <time>2020-10-25T12:47:45.000Z</time>
      </trkpt>
      <trkpt lat="43.6713" lon="3.82301">
        <ele>122.51556422171</ele>
        <time>2020-10-25T12:47:46.000Z</time>
      </trkpt>
      <trkpt lat="43.67132" lon="3.82305">
        <ele>122.61284060743</ele>
        <time>2020-10-25T12:47:47.000Z</time>
      </trkpt>
      <trkpt lat="43.67132" lon="3.82308">
        <ele>122.71011699314</ele>
        <time>2020-10-25T12:47:48.000Z</time>
      </trkpt>
      <trkpt lat="43.67132" lon="3.82313">
        <ele>122.80739337886</ele>
        <time>2020-10-25T12:47:49.000Z</time>
      </trkpt>
      <trkpt lat="43.67131" lon="3.82317">
        <ele>122.90466976457</ele>
        <time>2020-10-25T12:47:50.000Z</time>
      </trkpt>
      <trkpt lat="43.67129" lon="3.82321">
        <ele>123</ele>
        <time>2020-10-25T12:47:51.000Z</time>
      </trkpt>
      <trkpt lat="43.67127" lon="3.82326">
        <ele>123</ele>
        <time>2020-10-25T12:47:52.000Z</time>
      </trkpt>
      <trkpt lat="43.67124" lon="3.82331">
        <ele>123</ele>
        <time>2020-10-25T12:47:53.000Z</time>
      </trkpt>
      <trkpt lat="43.67122" lon="3.82335">
        <ele>123</ele>
        <time>2020-10-25T12:47:54.000Z</time>
      </trkpt>
      <trkpt lat="43.6712" lon="3.82339">
        <ele>123</ele>
        <time>2020-10-25T12:47:55.000Z</time>
      </trkpt>
      <trkpt lat="43.67117" lon="3.82343">
        <ele>123</ele>
        <time>2020-10-25T12:47:56.000Z</time>
      </trkpt>
      <trkpt lat="43.67115" lon="3.82347">
        <ele>123</ele>
        <time>2020-10-25T12:47:57.000Z</time>
      </trkpt>
      <trkpt lat="43.67112" lon="3.82351">
        <ele>123</ele>
        <time>2020-10-25T12:47:58.000Z</time>
      </trkpt>
      <trkpt lat="43.67109" lon="3.82355">
        <ele>123</ele>
        <time>2020-10-25T12:47:59.000Z</time>
      </trkpt>
      <trkpt lat="43.67105" lon="3.8236">
        <ele>123</ele>
        <time>2020-10-25T12:48:00.000Z</time>
      </trkpt>
      <trkpt lat="43.67102" lon="3.82366">
        <ele>122.91018149952</ele>
        <time>2020-10-25T12:48:01.000Z</time>
      </trkpt>
      <trkpt lat="43.67098" lon="3.82372">
        <ele>122.61078011068</ele>
        <time>2020-10-25T12:48:02.000Z</time>
      </trkpt>
      <trkpt lat="43.67093" lon="3.82378">
        <ele>122.31137872184</ele>
        <time>2020-10-25T12:48:03.000Z</time>
      </trkpt>
      <trkpt lat="43.67089" lon="3.82384">
        <ele>122.011977333</ele>
        <time>2020-10-25T12:48:04.000Z</time>
      </trkpt>
      <trkpt lat="43.67086" lon="3.82388">
        <ele>121.71257594416</ele>
        <time>2020-10-25T12:48:05.000Z</time>
      </trkpt>
      <trkpt lat="43.67084" lon="3.82392">
        <ele>121.41317455532</ele>
        <time>2020-10-25T12:48:06.000Z</time>
      </trkpt>
      <trkpt lat="43.67083" lon="3.82397">
        <ele>121.11377316648</ele>
        <time>2020-10-25T12:48:07.000Z</time>
      </trkpt>
      <trkpt lat="43.67082" lon="3.82403">
        <ele>120.81437177764</ele>
        <time>2020-10-25T12:48:08.000Z</time>
      </trkpt>
      <trkpt lat="43.6708" lon="3.82408">
        <ele>120.5149703888</ele>
        <time>2020-10-25T12:48:09.000Z</time>
      </trkpt>
      <trkpt lat="43.67076" lon="3.82414">
        <ele>120.21556899996</ele>
        <time>2020-10-25T12:48:10.000Z</time>
      </trkpt>
      <trkpt lat="43.67073" lon="3.82418">
        <ele>119.9181286039</ele>
        <time>2020-10-25T12:48:11.000Z</time>
      </trkpt>
      <trkpt lat="43.67069" lon="3.82422">
        <ele>119.62573076069</ele>
        <time>2020-10-25T12:48:12.000Z</time>
      </trkpt>
      <trkpt lat="43.67067" lon="3.82426">
        <ele>119.33333291748</ele>
        <time>2020-10-25T12:48:13.000Z</time>
      </trkpt>
      <trkpt lat="43.67065" lon="3.82431">
        <ele>119.04093507427</ele>
        <time>2020-10-25T12:48:14.000Z</time>
      </trkpt>
      <trkpt lat="43.67062" lon="3.82435">
        <ele>118.74853723106</ele>
        <time>2020-10-25T12:48:15.000Z</time>
      </trkpt>
      <trkpt lat="43.67059" lon="3.82439">
        <ele>118.45613938784</ele>
        <time>2020-10-25T12:48:16.000Z</time>
      </trkpt>
      <trkpt lat="43.67056" lon="3.82443">
        <ele>118.16374154463</ele>
        <time>2020-10-25T12:48:17.000Z</time>
      </trkpt>
      <trkpt lat="43.67054" lon="3.82447">
        <ele>117.87134370142</ele>
        <time>2020-10-25T12:48:18.000Z</time>
      </trkpt>
      <trkpt lat="43.67051" lon="3.82452">
        <ele>117.57894585821</ele>
        <time>2020-10-25T12:48:19.000Z</time>
      </trkpt>
      <trkpt lat="43.67048" lon="3.82458">
        <ele>117.286548015</ele>
        <time>2020-10-25T12:48:20.000Z</time>
      </trkpt>
      <trkpt lat="43.67045" lon="3.82463">
        <ele>116.99588346221</ele>
        <time>2020-10-25T12:48:21.000Z</time>
      </trkpt>
      <trkpt lat="43.67042" lon="3.82468">
        <ele>116.7901224163</ele>
        <time>2020-10-25T12:48:22.000Z</time>
      </trkpt>
      <trkpt lat="43.67039" lon="3.82473">
        <ele>116.58436137039</ele>
        <time>2020-10-25T12:48:23.000Z</time>
      </trkpt>
      <trkpt lat="43.67035" lon="3.82478">
        <ele>116.37860032448</ele>
        <time>2020-10-25T12:48:24.000Z</time>
      </trkpt>
      <trkpt lat="43.67032" lon="3.82483">
        <ele>116.17283927857</ele>
        <time>2020-10-25T12:48:25.000Z</time>
      </trkpt>
      <trkpt lat="43.67028" lon="3.82486">
        <ele>115.96707823265</ele>
        <time>2020-10-25T12:48:26.000Z</time>
      </trkpt>
      <trkpt lat="43.67024" lon="3.82487">
        <ele>115.76131718674</ele>
        <time>2020-10-25T12:48:27.000Z</time>
      </trkpt>
      <trkpt lat="43.67022" lon="3.82488">
        <ele>115.55555614083</ele>
        <time>2020-10-25T12:48:28.000Z</time>
      </trkpt>
      <trkpt lat="43.67021" lon="3.8249">
        <ele>115.34979509492</ele>
        <time>2020-10-25T12:48:29.000Z</time>
      </trkpt>
      <trkpt lat="43.67019" lon="3.82494">
        <ele>115.14403404901</ele>
        <time>2020-10-25T12:48:30.000Z</time>
      </trkpt>
      <trkpt lat="43.67016" lon="3.82498">
        <ele>114.91000192</ele>
        <time>2020-10-25T12:48:31.000Z</time>
      </trkpt>
      <trkpt lat="43.67012" lon="3.82501">
        <ele>114.61000192</ele>
        <time>2020-10-25T12:48:32.000Z</time>
      </trkpt>
      <trkpt lat="43.67008" lon="3.82505">
        <ele>114.31000192</ele>
        <time>2020-10-25T12:48:33.000Z</time>
      </trkpt>
      <trkpt lat="43.67004" lon="3.82509">
        <ele>114.01000192</ele>
        <time>2020-10-25T12:48:34.000Z</time>
      </trkpt>
      <trkpt lat="43.67" lon="3.82513">
        <ele>113.71000192</ele>
        <time>2020-10-25T12:48:35.000Z</time>
      </trkpt>
      <trkpt lat="43.66996" lon="3.82517">
        <ele>113.41000192</ele>
        <time>2020-10-25T12:48:36.000Z</time>
      </trkpt>
      <trkpt lat="43.66992" lon="3.82521">
        <ele>113.11000192</ele>
        <time>2020-10-25T12:48:37.000Z</time>
      </trkpt>
      <trkpt lat="43.66988" lon="3.82525">
        <ele>112.81000192</ele>
        <time>2020-10-25T12:48:38.000Z</time>
      </trkpt>
      <trkpt lat="43.66984" lon="3.82529">
        <ele>112.51000192</ele>
        <time>2020-10-25T12:48:39.000Z</time>
      </trkpt>
      <trkpt lat="43.6698" lon="3.82533">
        <ele>112.21000192</ele>
        <time>2020-10-25T12:48:40.000Z</time>
      </trkpt>
      <trkpt lat="43.66976" lon="3.82537">
        <ele>112</ele>
        <time>2020-10-25T12:48:41.000Z</time>
      </trkpt>
      <trkpt lat="43.66972" lon="3.82541">
        <ele>112</ele>
        <time>2020-10-25T12:48:42.000Z</time>
      </trkpt>
      <trkpt lat="43.66968" lon="3.82544">
        <ele>112</ele>
        <time>2020-10-25T12:48:43.000Z</time>
      </trkpt>
      <trkpt lat="43.66964" lon="3.82548">
        <ele>112</ele>
        <time>2020-10-25T12:48:44.000Z</time>
      </trkpt>
      <trkpt lat="43.6696" lon="3.82551">
        <ele>112</ele>
        <time>2020-10-25T12:48:45.000Z</time>
      </trkpt>
      <trkpt lat="43.66956" lon="3.82555">
        <ele>112</ele>
        <time>2020-10-25T12:48:46.000Z</time>
      </trkpt>
      <trkpt lat="43.66952" lon="3.82558">
        <ele>112</ele>
        <time>2020-10-25T12:48:47.000Z</time>
      </trkpt>
      <trkpt lat="43.66947" lon="3.82562">
        <ele>112</ele>
        <time>2020-10-25T12:48:48.000Z</time>
      </trkpt>
      <trkpt lat="43.66943" lon="3.82566">
        <ele>112</ele>
        <time>2020-10-25T12:48:49.000Z</time>
      </trkpt>
      <trkpt lat="43.66939" lon="3.82569">
        <ele>112</ele>
        <time>2020-10-25T12:48:50.000Z</time>
      </trkpt>
      <trkpt lat="43.66935" lon="3.82573">
        <ele>112</ele>
        <time>2020-10-25T12:48:51.000Z</time>
      </trkpt>
      <trkpt lat="43.66931" lon="3.82576">
        <ele>112</ele>
        <time>2020-10-25T12:48:52.000Z</time>
      </trkpt>
      <trkpt lat="43.66929" lon="3.82578">
        <ele>112</ele>
        <time>2020-10-25T12:48:53.000Z</time>
      </trkpt>
      <trkpt lat="43.66927" lon="3.8258">
        <ele>112</ele>
        <time>2020-10-25T12:48:54.000Z</time>
      </trkpt>
      <trkpt lat="43.66925" lon="3.82582">
        <ele>112</ele>
        <time>2020-10-25T12:48:56.000Z</time>
      </trkpt>
      <trkpt lat="43.66924" lon="3.82581">
        <ele>112</ele>
        <time>2020-10-25T12:49:04.000Z</time>
      </trkpt>
      <trkpt lat="43.6692" lon="3.82588">
        <ele>111.99385311475</ele>
        <time>2020-10-25T12:49:23.000Z</time>
      </trkpt>
      <trkpt lat="43.66917" lon="3.8259">
        <ele>111.78893508197</ele>
        <time>2020-10-25T12:49:25.000Z</time>
      </trkpt>
      <trkpt lat="43.66915" lon="3.82591">
        <ele>111.68647606557</ele>
        <time>2020-10-25T12:49:26.000Z</time>
      </trkpt>
      <trkpt lat="43.66912" lon="3.82592">
        <ele>111.58401704918</ele>
        <time>2020-10-25T12:49:27.000Z</time>
      </trkpt>
      <trkpt lat="43.6691" lon="3.82594">
        <ele>111.48155803279</ele>
        <time>2020-10-25T12:49:28.000Z</time>
      </trkpt>
      <trkpt lat="43.66907" lon="3.82596">
        <ele>111.37909901639</ele>
        <time>2020-10-25T12:49:29.000Z</time>
      </trkpt>
      <trkpt lat="43.66904" lon="3.82599">
        <ele>111.27664</ele>
        <time>2020-10-25T12:49:30.000Z</time>
      </trkpt>
      <trkpt lat="43.66901" lon="3.82601">
        <ele>111.17418098361</ele>
        <time>2020-10-25T12:49:31.000Z</time>
      </trkpt>
      <trkpt lat="43.66898" lon="3.82603">
        <ele>111.07172196721</ele>
        <time>2020-10-25T12:49:32.000Z</time>
      </trkpt>
      <trkpt lat="43.66895" lon="3.82606">
        <ele>111</ele>
        <time>2020-10-25T12:49:33.000Z</time>
      </trkpt>
      <trkpt lat="43.66892" lon="3.82608">
        <ele>111</ele>
        <time>2020-10-25T12:49:34.000Z</time>
      </trkpt>
      <trkpt lat="43.66889" lon="3.82611">
        <ele>111</ele>
        <time>2020-10-25T12:49:35.000Z</time>
      </trkpt>
      <trkpt lat="43.66886" lon="3.82614">
        <ele>111</ele>
        <time>2020-10-25T12:49:36.000Z</time>
      </trkpt>
      <trkpt lat="43.66883" lon="3.82617">
        <ele>111</ele>
        <time>2020-10-25T12:49:37.000Z</time>
      </trkpt>
      <trkpt lat="43.6688" lon="3.8262">
        <ele>111</ele>
        <time>2020-10-25T12:49:38.000Z</time>
      </trkpt>
      <trkpt lat="43.66877" lon="3.82623">
        <ele>111</ele>
        <time>2020-10-25T12:49:39.000Z</time>
      </trkpt>
      <trkpt lat="43.66874" lon="3.82626">
        <ele>111</ele>
        <time>2020-10-25T12:49:40.000Z</time>
      </trkpt>
      <trkpt lat="43.66872" lon="3.8263">
        <ele>111</ele>
        <time>2020-10-25T12:49:41.000Z</time>
      </trkpt>
      <trkpt lat="43.6687" lon="3.82635">
        <ele>111</ele>
        <time>2020-10-25T12:49:42.000Z</time>
      </trkpt>
      <trkpt lat="43.66867" lon="3.82638">
        <ele>111</ele>
        <time>2020-10-25T12:49:43.000Z</time>
      </trkpt>
      <trkpt lat="43.66865" lon="3.8264">
        <ele>111</ele>
        <time>2020-10-25T12:49:44.000Z</time>
      </trkpt>
      <trkpt lat="43.66862" lon="3.82643">
        <ele>111</ele>
        <time>2020-10-25T12:49:45.000Z</time>
      </trkpt>
      <trkpt lat="43.66859" lon="3.82646">
        <ele>111</ele>
        <time>2020-10-25T12:49:46.000Z</time>
      </trkpt>
      <trkpt lat="43.66856" lon="3.82649">
        <ele>111</ele>
        <time>2020-10-25T12:49:47.000Z</time>
      </trkpt>
      <trkpt lat="43.66853" lon="3.82651">
        <ele>111</ele>
        <time>2020-10-25T12:49:48.000Z</time>
      </trkpt>
      <trkpt lat="43.6685" lon="3.82654">
        <ele>111</ele>
        <time>2020-10-25T12:49:49.000Z</time>
      </trkpt>
      <trkpt lat="43.66846" lon="3.82656">
        <ele>111</ele>
        <time>2020-10-25T12:49:50.000Z</time>
      </trkpt>
      <trkpt lat="43.66843" lon="3.82658">
        <ele>111</ele>
        <time>2020-10-25T12:49:51.000Z</time>
      </trkpt>
      <trkpt lat="43.66839" lon="3.8266">
        <ele>111</ele>
        <time>2020-10-25T12:49:52.000Z</time>
      </trkpt>
      <trkpt lat="43.66836" lon="3.82662">
        <ele>111</ele>
        <time>2020-10-25T12:49:53.000Z</time>
      </trkpt>
      <trkpt lat="43.66833" lon="3.82664">
        <ele>111</ele>
        <time>2020-10-25T12:49:54.000Z</time>
      </trkpt>
      <trkpt lat="43.6683" lon="3.82666">
        <ele>111</ele>
        <time>2020-10-25T12:49:55.000Z</time>
      </trkpt>
      <trkpt lat="43.66827" lon="3.82668">
        <ele>111</ele>
        <time>2020-10-25T12:49:56.000Z</time>
      </trkpt>
      <trkpt lat="43.66824" lon="3.8267">
        <ele>111</ele>
        <time>2020-10-25T12:49:57.000Z</time>
      </trkpt>
      <trkpt lat="43.66821" lon="3.82673">
        <ele>111</ele>
        <time>2020-10-25T12:49:58.000Z</time>
      </trkpt>
      <trkpt lat="43.66818" lon="3.82676">
        <ele>111</ele>
        <time>2020-10-25T12:49:59.000Z</time>
      </trkpt>
      <trkpt lat="43.66815" lon="3.82678">
        <ele>111</ele>
        <time>2020-10-25T12:50:00.000Z</time>
      </trkpt>
      <trkpt lat="43.66812" lon="3.82681">
        <ele>111</ele>
        <time>2020-10-25T12:50:01.000Z</time>
      </trkpt>
      <trkpt lat="43.66809" lon="3.82683">
        <ele>111</ele>
        <time>2020-10-25T12:50:02.000Z</time>
      </trkpt>
      <trkpt lat="43.66806" lon="3.82686">
        <ele>111</ele>
        <time>2020-10-25T12:50:03.000Z</time>
      </trkpt>
      <trkpt lat="43.66802" lon="3.82688">
        <ele>111</ele>
        <time>2020-10-25T12:50:04.000Z</time>
      </trkpt>
      <trkpt lat="43.66799" lon="3.8269">
        <ele>111</ele>
        <time>2020-10-25T12:50:05.000Z</time>
      </trkpt>
      <trkpt lat="43.66796" lon="3.82692">
        <ele>111</ele>
        <time>2020-10-25T12:50:06.000Z</time>
      </trkpt>
      <trkpt lat="43.66792" lon="3.82695">
        <ele>111</ele>
        <time>2020-10-25T12:50:07.000Z</time>
      </trkpt>
      <trkpt lat="43.66788" lon="3.82699">
        <ele>111</ele>
        <time>2020-10-25T12:50:08.000Z</time>
      </trkpt>
      <trkpt lat="43.66785" lon="3.82703">
        <ele>111</ele>
        <time>2020-10-25T12:50:09.000Z</time>
      </trkpt>
      <trkpt lat="43.66781" lon="3.82707">
        <ele>111</ele>
        <time>2020-10-25T12:50:10.000Z</time>
      </trkpt>
      <trkpt lat="43.66777" lon="3.82711">
        <ele>111</ele>
        <time>2020-10-25T12:50:11.000Z</time>
      </trkpt>
      <trkpt lat="43.66774" lon="3.82714">
        <ele>111</ele>
        <time>2020-10-25T12:50:12.000Z</time>
      </trkpt>
      <trkpt lat="43.6677" lon="3.82717">
        <ele>110.97000064</ele>
        <time>2020-10-25T12:50:13.000Z</time>
      </trkpt>
      <trkpt lat="43.66766" lon="3.8272">
        <ele>110.87000064</ele>
        <time>2020-10-25T12:50:14.000Z</time>
      </trkpt>
      <trkpt lat="43.66762" lon="3.82723">
        <ele>110.77000064</ele>
        <time>2020-10-25T12:50:15.000Z</time>
      </trkpt>
      <trkpt lat="43.66759" lon="3.82725">
        <ele>110.67000064</ele>
        <time>2020-10-25T12:50:16.000Z</time>
      </trkpt>
      <trkpt lat="43.66755" lon="3.82728">
        <ele>110.57000064</ele>
        <time>2020-10-25T12:50:17.000Z</time>
      </trkpt>
      <trkpt lat="43.66752" lon="3.82731">
        <ele>110.47000064</ele>
        <time>2020-10-25T12:50:18.000Z</time>
      </trkpt>
      <trkpt lat="43.66748" lon="3.82733">
        <ele>110.37000064</ele>
        <time>2020-10-25T12:50:19.000Z</time>
      </trkpt>
      <trkpt lat="43.66745" lon="3.82735">
        <ele>110.27000064</ele>
        <time>2020-10-25T12:50:20.000Z</time>
      </trkpt>
      <trkpt lat="43.66742" lon="3.82738">
        <ele>110.17000064</ele>
        <time>2020-10-25T12:50:21.000Z</time>
      </trkpt>
      <trkpt lat="43.66739" lon="3.82741">
        <ele>110.07000064</ele>
        <time>2020-10-25T12:50:22.000Z</time>
      </trkpt>
      <trkpt lat="43.66736" lon="3.82744">
        <ele>110</ele>
        <time>2020-10-25T12:50:23.000Z</time>
      </trkpt>
      <trkpt lat="43.66734" lon="3.82747">
        <ele>110</ele>
        <time>2020-10-25T12:50:24.000Z</time>
      </trkpt>
      <trkpt lat="43.66731" lon="3.8275">
        <ele>110</ele>
        <time>2020-10-25T12:50:25.000Z</time>
      </trkpt>
      <trkpt lat="43.66728" lon="3.82753">
        <ele>110</ele>
        <time>2020-10-25T12:50:26.000Z</time>
      </trkpt>
      <trkpt lat="43.66724" lon="3.82756">
        <ele>110</ele>
        <time>2020-10-25T12:50:27.000Z</time>
      </trkpt>
      <trkpt lat="43.6672" lon="3.82758">
        <ele>110</ele>
        <time>2020-10-25T12:50:28.000Z</time>
      </trkpt>
      <trkpt lat="43.66717" lon="3.82761">
        <ele>110</ele>
        <time>2020-10-25T12:50:29.000Z</time>
      </trkpt>
      <trkpt lat="43.66713" lon="3.82764">
        <ele>110</ele>
        <time>2020-10-25T12:50:30.000Z</time>
      </trkpt>
      <trkpt lat="43.6671" lon="3.82767">
        <ele>110</ele>
        <time>2020-10-25T12:50:31.000Z</time>
      </trkpt>
      <trkpt lat="43.66708" lon="3.8277">
        <ele>110</ele>
        <time>2020-10-25T12:50:32.000Z</time>
      </trkpt>
      <trkpt lat="43.66705" lon="3.82773">
        <ele>110.01020472136</ele>
        <time>2020-10-25T12:50:33.000Z</time>
      </trkpt>
      <trkpt lat="43.66702" lon="3.82776">
        <ele>110.11224540441</ele>
        <time>2020-10-25T12:50:34.000Z</time>
      </trkpt>
      <trkpt lat="43.66699" lon="3.82778">
        <ele>110.21428608746</ele>
        <time>2020-10-25T12:50:35.000Z</time>
      </trkpt>
      <trkpt lat="43.66697" lon="3.82781">
        <ele>110.31632677051</ele>
        <time>2020-10-25T12:50:36.000Z</time>
      </trkpt>
      <trkpt lat="43.66694" lon="3.82783">
        <ele>110.41836745356</ele>
        <time>2020-10-25T12:50:37.000Z</time>
      </trkpt>
      <trkpt lat="43.66691" lon="3.82786">
        <ele>110.52040813661</ele>
        <time>2020-10-25T12:50:38.000Z</time>
      </trkpt>
      <trkpt lat="43.66689" lon="3.82789">
        <ele>110.62244881966</ele>
        <time>2020-10-25T12:50:39.000Z</time>
      </trkpt>
      <trkpt lat="43.66686" lon="3.82792">
        <ele>110.72448950271</ele>
        <time>2020-10-25T12:50:40.000Z</time>
      </trkpt>
      <trkpt lat="43.66683" lon="3.82795">
        <ele>110.82653018576</ele>
        <time>2020-10-25T12:50:41.000Z</time>
      </trkpt>
      <trkpt lat="43.6668" lon="3.82797">
        <ele>110.9285708688</ele>
        <time>2020-10-25T12:50:42.000Z</time>
      </trkpt>
      <trkpt lat="43.66677" lon="3.82799">
        <ele>111</ele>
        <time>2020-10-25T12:50:43.000Z</time>
      </trkpt>
      <trkpt lat="43.66673" lon="3.82802">
        <ele>111</ele>
        <time>2020-10-25T12:50:44.000Z</time>
      </trkpt>
      <trkpt lat="43.6667" lon="3.82804">
        <ele>111</ele>
        <time>2020-10-25T12:50:45.000Z</time>
      </trkpt>
      <trkpt lat="43.66667" lon="3.82807">
        <ele>111</ele>
        <time>2020-10-25T12:50:46.000Z</time>
      </trkpt>
      <trkpt lat="43.66664" lon="3.82809">
        <ele>111</ele>
        <time>2020-10-25T12:50:47.000Z</time>
      </trkpt>
      <trkpt lat="43.66661" lon="3.82812">
        <ele>111</ele>
        <time>2020-10-25T12:50:48.000Z</time>
      </trkpt>
      <trkpt lat="43.66658" lon="3.82815">
        <ele>111</ele>
        <time>2020-10-25T12:50:49.000Z</time>
      </trkpt>
      <trkpt lat="43.66655" lon="3.82817">
        <ele>111</ele>
        <time>2020-10-25T12:50:50.000Z</time>
      </trkpt>
      <trkpt lat="43.66652" lon="3.8282">
        <ele>111</ele>
        <time>2020-10-25T12:50:51.000Z</time>
      </trkpt>
      <trkpt lat="43.6665" lon="3.82823">
        <ele>111</ele>
        <time>2020-10-25T12:50:52.000Z</time>
      </trkpt>
      <trkpt lat="43.66647" lon="3.82826">
        <ele>111.02973178346</ele>
        <time>2020-10-25T12:50:53.000Z</time>
      </trkpt>
      <trkpt lat="43.66644" lon="3.82828">
        <ele>111.12883984264</ele>
        <time>2020-10-25T12:50:54.000Z</time>
      </trkpt>
      <trkpt lat="43.66641" lon="3.82831">
        <ele>111.22794790183</ele>
        <time>2020-10-25T12:50:55.000Z</time>
      </trkpt>
      <trkpt lat="43.66639" lon="3.82834">
        <ele>111.32705596101</ele>
        <time>2020-10-25T12:50:56.000Z</time>
      </trkpt>
      <trkpt lat="43.66637" lon="3.82837">
        <ele>111.42616402019</ele>
        <time>2020-10-25T12:50:57.000Z</time>
      </trkpt>
      <trkpt lat="43.66634" lon="3.8284">
        <ele>111.52527207937</ele>
        <time>2020-10-25T12:50:58.000Z</time>
      </trkpt>
      <trkpt lat="43.66631" lon="3.82844">
        <ele>111.62438013855</ele>
        <time>2020-10-25T12:50:59.000Z</time>
      </trkpt>
      <trkpt lat="43.66628" lon="3.82848">
        <ele>111.72348819774</ele>
        <time>2020-10-25T12:51:00.000Z</time>
      </trkpt>
      <trkpt lat="43.66625" lon="3.82851">
        <ele>111.82259625692</ele>
        <time>2020-10-25T12:51:01.000Z</time>
      </trkpt>
      <trkpt lat="43.66622" lon="3.82854">
        <ele>111.9217043161</ele>
        <time>2020-10-25T12:51:02.000Z</time>
      </trkpt>
      <trkpt lat="43.66619" lon="3.82857">
        <ele>112.0211903867</ele>
        <time>2020-10-25T12:51:03.000Z</time>
      </trkpt>
      <trkpt lat="43.66616" lon="3.8286">
        <ele>112.12209852768</ele>
        <time>2020-10-25T12:51:04.000Z</time>
      </trkpt>
      <trkpt lat="43.66614" lon="3.82864">
        <ele>112.22300666866</ele>
        <time>2020-10-25T12:51:05.000Z</time>
      </trkpt>
      <trkpt lat="43.66612" lon="3.82868">
        <ele>112.32391480963</ele>
        <time>2020-10-25T12:51:06.000Z</time>
      </trkpt>
      <trkpt lat="43.66612" lon="3.82873">
        <ele>112.42482295061</ele>
        <time>2020-10-25T12:51:07.000Z</time>
      </trkpt>
      <trkpt lat="43.66611" lon="3.82877">
        <ele>112.52573109159</ele>
        <time>2020-10-25T12:51:08.000Z</time>
      </trkpt>
      <trkpt lat="43.66611" lon="3.8288">
        <ele>112.62663923257</ele>
        <time>2020-10-25T12:51:09.000Z</time>
      </trkpt>
      <trkpt lat="43.66611" lon="3.82883">
        <ele>112.72754737355</ele>
        <time>2020-10-25T12:51:10.000Z</time>
      </trkpt>
      <trkpt lat="43.66611" lon="3.82887">
        <ele>112.82845551453</ele>
        <time>2020-10-25T12:51:11.000Z</time>
      </trkpt>
      <trkpt lat="43.66611" lon="3.8289">
        <ele>112.9293636555</ele>
        <time>2020-10-25T12:51:12.000Z</time>
      </trkpt>
      <trkpt lat="43.66611" lon="3.82893">
        <ele>113.02999936</ele>
        <time>2020-10-25T12:51:13.000Z</time>
      </trkpt>
      <trkpt lat="43.66611" lon="3.82897">
        <ele>113.12999936</ele>
        <time>2020-10-25T12:51:14.000Z</time>
      </trkpt>
      <trkpt lat="43.66611" lon="3.829">
        <ele>113.22999936</ele>
        <time>2020-10-25T12:51:15.000Z</time>
      </trkpt>
      <trkpt lat="43.66612" lon="3.82904">
        <ele>113.32999936</ele>
        <time>2020-10-25T12:51:16.000Z</time>
      </trkpt>
      <trkpt lat="43.66612" lon="3.82907">
        <ele>113.42999936</ele>
        <time>2020-10-25T12:51:17.000Z</time>
      </trkpt>
      <trkpt lat="43.66613" lon="3.82911">
        <ele>113.52999936</ele>
        <time>2020-10-25T12:51:18.000Z</time>
      </trkpt>
      <trkpt lat="43.66614" lon="3.82914">
        <ele>113.62999936</ele>
        <time>2020-10-25T12:51:19.000Z</time>
      </trkpt>
      <trkpt lat="43.66614" lon="3.82918">
        <ele>113.72999936</ele>
        <time>2020-10-25T12:51:20.000Z</time>
      </trkpt>
      <trkpt lat="43.66615" lon="3.82921">
        <ele>113.82999936</ele>
        <time>2020-10-25T12:51:21.000Z</time>
      </trkpt>
      <trkpt lat="43.66616" lon="3.82924">
        <ele>113.92999936</ele>
        <time>2020-10-25T12:51:22.000Z</time>
      </trkpt>
      <trkpt lat="43.66617" lon="3.82927">
        <ele>114.05999872</ele>
        <time>2020-10-25T12:51:23.000Z</time>
      </trkpt>
      <trkpt lat="43.66618" lon="3.82931">
        <ele>114.25999872</ele>
        <time>2020-10-25T12:51:24.000Z</time>
      </trkpt>
      <trkpt lat="43.6662" lon="3.82934">
        <ele>114.45999872</ele>
        <time>2020-10-25T12:51:25.000Z</time>
      </trkpt>
      <trkpt lat="43.66621" lon="3.82938">
        <ele>114.65999872</ele>
        <time>2020-10-25T12:51:26.000Z</time>
      </trkpt>
      <trkpt lat="43.66623" lon="3.82941">
        <ele>114.85999872</ele>
        <time>2020-10-25T12:51:27.000Z</time>
      </trkpt>
      <trkpt lat="43.66624" lon="3.82944">
        <ele>115.05999872</ele>
        <time>2020-10-25T12:51:28.000Z</time>
      </trkpt>
      <trkpt lat="43.66626" lon="3.82948">
        <ele>115.25999872</ele>
        <time>2020-10-25T12:51:29.000Z</time>
      </trkpt>
      <trkpt lat="43.66627" lon="3.82951">
        <ele>115.45999872</ele>
        <time>2020-10-25T12:51:30.000Z</time>
      </trkpt>
      <trkpt lat="43.66629" lon="3.82955">
        <ele>115.65999872</ele>
        <time>2020-10-25T12:51:31.000Z</time>
      </trkpt>
      <trkpt lat="43.6663" lon="3.82958">
        <ele>115.85999872</ele>
        <time>2020-10-25T12:51:32.000Z</time>
      </trkpt>
      <trkpt lat="43.66632" lon="3.82962">
        <ele>116.02999936</ele>
        <time>2020-10-25T12:51:33.000Z</time>
      </trkpt>
      <trkpt lat="43.66633" lon="3.82966">
        <ele>116.12999936</ele>
        <time>2020-10-25T12:51:34.000Z</time>
      </trkpt>
      <trkpt lat="43.66634" lon="3.82969">
        <ele>116.22999936</ele>
        <time>2020-10-25T12:51:35.000Z</time>
      </trkpt>
      <trkpt lat="43.66635" lon="3.82973">
        <ele>116.32999936</ele>
        <time>2020-10-25T12:51:36.000Z</time>
      </trkpt>
      <trkpt lat="43.66636" lon="3.82977">
        <ele>116.42999936</ele>
        <time>2020-10-25T12:51:37.000Z</time>
      </trkpt>
      <trkpt lat="43.66636" lon="3.82981">
        <ele>116.52999936</ele>
        <time>2020-10-25T12:51:38.000Z</time>
      </trkpt>
      <trkpt lat="43.66637" lon="3.82984">
        <ele>116.62999936</ele>
        <time>2020-10-25T12:51:39.000Z</time>
      </trkpt>
      <trkpt lat="43.66637" lon="3.82988">
        <ele>116.72999936</ele>
        <time>2020-10-25T12:51:40.000Z</time>
      </trkpt>
      <trkpt lat="43.66638" lon="3.82992">
        <ele>116.82999936</ele>
        <time>2020-10-25T12:51:41.000Z</time>
      </trkpt>
      <trkpt lat="43.66639" lon="3.82996">
        <ele>116.92999936</ele>
        <time>2020-10-25T12:51:42.000Z</time>
      </trkpt>
      <trkpt lat="43.66639" lon="3.83">
        <ele>117</ele>
        <time>2020-10-25T12:51:43.000Z</time>
      </trkpt>
      <trkpt lat="43.6664" lon="3.83003">
        <ele>117</ele>
        <time>2020-10-25T12:51:44.000Z</time>
      </trkpt>
      <trkpt lat="43.6664" lon="3.83007">
        <ele>117</ele>
        <time>2020-10-25T12:51:45.000Z</time>
      </trkpt>
      <trkpt lat="43.66641" lon="3.83011">
        <ele>117</ele>
        <time>2020-10-25T12:51:46.000Z</time>
      </trkpt>
      <trkpt lat="43.66641" lon="3.83015">
        <ele>117</ele>
        <time>2020-10-25T12:51:47.000Z</time>
      </trkpt>
      <trkpt lat="43.66642" lon="3.83019">
        <ele>117</ele>
        <time>2020-10-25T12:51:48.000Z</time>
      </trkpt>
      <trkpt lat="43.66643" lon="3.83023">
        <ele>117</ele>
        <time>2020-10-25T12:51:49.000Z</time>
      </trkpt>
      <trkpt lat="43.66643" lon="3.83028">
        <ele>117</ele>
        <time>2020-10-25T12:51:50.000Z</time>
      </trkpt>
      <trkpt lat="43.66644" lon="3.83032">
        <ele>117</ele>
        <time>2020-10-25T12:51:51.000Z</time>
      </trkpt>
      <trkpt lat="43.66645" lon="3.83036">
        <ele>117</ele>
        <time>2020-10-25T12:51:52.000Z</time>
      </trkpt>
      <trkpt lat="43.66646" lon="3.83039">
        <ele>117</ele>
        <time>2020-10-25T12:51:53.000Z</time>
      </trkpt>
      <trkpt lat="43.66646" lon="3.83042">
        <ele>117</ele>
        <time>2020-10-25T12:51:54.000Z</time>
      </trkpt>
      <trkpt lat="43.66647" lon="3.83046">
        <ele>117</ele>
        <time>2020-10-25T12:51:55.000Z</time>
      </trkpt>
      <trkpt lat="43.66647" lon="3.8305">
        <ele>117</ele>
        <time>2020-10-25T12:51:56.000Z</time>
      </trkpt>
      <trkpt lat="43.66647" lon="3.83054">
        <ele>117</ele>
        <time>2020-10-25T12:51:57.000Z</time>
      </trkpt>
      <trkpt lat="43.66646" lon="3.83058">
        <ele>117</ele>
        <time>2020-10-25T12:51:58.000Z</time>
      </trkpt>
      <trkpt lat="43.66646" lon="3.83061">
        <ele>117</ele>
        <time>2020-10-25T12:51:59.000Z</time>
      </trkpt>
      <trkpt lat="43.66645" lon="3.83065">
        <ele>117</ele>
        <time>2020-10-25T12:52:00.000Z</time>
      </trkpt>
      <trkpt lat="43.66644" lon="3.83069">
        <ele>117</ele>
        <time>2020-10-25T12:52:01.000Z</time>
      </trkpt>
      <trkpt lat="43.66644" lon="3.83073">
        <ele>117</ele>
        <time>2020-10-25T12:52:02.000Z</time>
      </trkpt>
      <trkpt lat="43.66643" lon="3.83077">
        <ele>117</ele>
        <time>2020-10-25T12:52:03.000Z</time>
      </trkpt>
      <trkpt lat="43.66642" lon="3.83081">
        <ele>117</ele>
        <time>2020-10-25T12:52:04.000Z</time>
      </trkpt>
      <trkpt lat="43.66641" lon="3.83085">
        <ele>117</ele>
        <time>2020-10-25T12:52:05.000Z</time>
      </trkpt>
      <trkpt lat="43.6664" lon="3.83089">
        <ele>117</ele>
        <time>2020-10-25T12:52:06.000Z</time>
      </trkpt>
      <trkpt lat="43.66639" lon="3.83094">
        <ele>117</ele>
        <time>2020-10-25T12:52:07.000Z</time>
      </trkpt>
      <trkpt lat="43.66638" lon="3.83098">
        <ele>117</ele>
        <time>2020-10-25T12:52:08.000Z</time>
      </trkpt>
      <trkpt lat="43.66637" lon="3.83102">
        <ele>117</ele>
        <time>2020-10-25T12:52:09.000Z</time>
      </trkpt>
      <trkpt lat="43.66636" lon="3.83107">
        <ele>117</ele>
        <time>2020-10-25T12:52:10.000Z</time>
      </trkpt>
      <trkpt lat="43.66635" lon="3.83111">
        <ele>117</ele>
        <time>2020-10-25T12:52:11.000Z</time>
      </trkpt>
      <trkpt lat="43.66635" lon="3.83115">
        <ele>117</ele>
        <time>2020-10-25T12:52:12.000Z</time>
      </trkpt>
      <trkpt lat="43.66634" lon="3.83119">
        <ele>117.02999936</ele>
        <time>2020-10-25T12:52:13.000Z</time>
      </trkpt>
      <trkpt lat="43.66633" lon="3.83123">
        <ele>117.12999936</ele>
        <time>2020-10-25T12:52:14.000Z</time>
      </trkpt>
      <trkpt lat="43.66633" lon="3.83127">
        <ele>117.22999936</ele>
        <time>2020-10-25T12:52:15.000Z</time>
      </trkpt>
      <trkpt lat="43.66632" lon="3.83132">
        <ele>117.32999936</ele>
        <time>2020-10-25T12:52:16.000Z</time>
      </trkpt>
      <trkpt lat="43.66632" lon="3.83136">
        <ele>117.42999936</ele>
        <time>2020-10-25T12:52:17.000Z</time>
      </trkpt>
      <trkpt lat="43.66631" lon="3.8314">
        <ele>117.52999936</ele>
        <time>2020-10-25T12:52:18.000Z</time>
      </trkpt>
      <trkpt lat="43.66631" lon="3.83143">
        <ele>117.62999936</ele>
        <time>2020-10-25T12:52:19.000Z</time>
      </trkpt>
      <trkpt lat="43.66633" lon="3.83146">
        <ele>117.72999936</ele>
        <time>2020-10-25T12:52:20.000Z</time>
      </trkpt>
      <trkpt lat="43.66635" lon="3.83147">
        <ele>117.82999936</ele>
        <time>2020-10-25T12:52:21.000Z</time>
      </trkpt>
      <trkpt lat="43.66638" lon="3.83149">
        <ele>117.92999936</ele>
        <time>2020-10-25T12:52:22.000Z</time>
      </trkpt>
      <trkpt lat="43.66641" lon="3.83149">
        <ele>118</ele>
        <time>2020-10-25T12:52:23.000Z</time>
      </trkpt>
      <trkpt lat="43.66645" lon="3.83149">
        <ele>118</ele>
        <time>2020-10-25T12:52:24.000Z</time>
      </trkpt>
      <trkpt lat="43.6665" lon="3.83148">
        <ele>118</ele>
        <time>2020-10-25T12:52:25.000Z</time>
      </trkpt>
      <trkpt lat="43.66654" lon="3.83147">
        <ele>118</ele>
        <time>2020-10-25T12:52:26.000Z</time>
      </trkpt>
      <trkpt lat="43.66658" lon="3.83146">
        <ele>118</ele>
        <time>2020-10-25T12:52:27.000Z</time>
      </trkpt>
      <trkpt lat="43.66662" lon="3.83145">
        <ele>118</ele>
        <time>2020-10-25T12:52:28.000Z</time>
      </trkpt>
      <trkpt lat="43.66666" lon="3.83144">
        <ele>118</ele>
        <time>2020-10-25T12:52:29.000Z</time>
      </trkpt>
      <trkpt lat="43.6667" lon="3.83143">
        <ele>118</ele>
        <time>2020-10-25T12:52:30.000Z</time>
      </trkpt>
      <trkpt lat="43.66674" lon="3.83141">
        <ele>118</ele>
        <time>2020-10-25T12:52:31.000Z</time>
      </trkpt>
      <trkpt lat="43.66679" lon="3.8314">
        <ele>118</ele>
        <time>2020-10-25T12:52:32.000Z</time>
      </trkpt>
      <trkpt lat="43.66684" lon="3.83139">
        <ele>118</ele>
        <time>2020-10-25T12:52:33.000Z</time>
      </trkpt>
      <trkpt lat="43.66689" lon="3.83139">
        <ele>118</ele>
        <time>2020-10-25T12:52:34.000Z</time>
      </trkpt>
      <trkpt lat="43.66694" lon="3.83139">
        <ele>118</ele>
        <time>2020-10-25T12:52:35.000Z</time>
      </trkpt>
      <trkpt lat="43.66699" lon="3.83138">
        <ele>118</ele>
        <time>2020-10-25T12:52:36.000Z</time>
      </trkpt>
      <trkpt lat="43.66704" lon="3.83137">
        <ele>118</ele>
        <time>2020-10-25T12:52:37.000Z</time>
      </trkpt>
      <trkpt lat="43.66709" lon="3.83137">
        <ele>118</ele>
        <time>2020-10-25T12:52:38.000Z</time>
      </trkpt>
      <trkpt lat="43.66715" lon="3.83137">
        <ele>118</ele>
        <time>2020-10-25T12:52:39.000Z</time>
      </trkpt>
      <trkpt lat="43.66721" lon="3.83138">
        <ele>118</ele>
        <time>2020-10-25T12:52:40.000Z</time>
      </trkpt>
      <trkpt lat="43.66727" lon="3.83138">
        <ele>118</ele>
        <time>2020-10-25T12:52:41.000Z</time>
      </trkpt>
      <trkpt lat="43.66732" lon="3.8314">
        <ele>118</ele>
        <time>2020-10-25T12:52:42.000Z</time>
      </trkpt>
      <trkpt lat="43.66735" lon="3.83143">
        <ele>117.94174877934</ele>
        <time>2020-10-25T12:52:43.000Z</time>
      </trkpt>
      <trkpt lat="43.66737" lon="3.83147">
        <ele>117.74757390141</ele>
        <time>2020-10-25T12:52:44.000Z</time>
      </trkpt>
      <trkpt lat="43.66738" lon="3.83153">
        <ele>117.55339902347</ele>
        <time>2020-10-25T12:52:45.000Z</time>
      </trkpt>
      <trkpt lat="43.66739" lon="3.8316">
        <ele>117.35922414554</ele>
        <time>2020-10-25T12:52:46.000Z</time>
      </trkpt>
      <trkpt lat="43.66741" lon="3.83166">
        <ele>117.1650492676</ele>
        <time>2020-10-25T12:52:47.000Z</time>
      </trkpt>
      <trkpt lat="43.66742" lon="3.83174">
        <ele>116.97087438967</ele>
        <time>2020-10-25T12:52:48.000Z</time>
      </trkpt>
      <trkpt lat="43.66743" lon="3.83181">
        <ele>116.77669951174</ele>
        <time>2020-10-25T12:52:49.000Z</time>
      </trkpt>
      <trkpt lat="43.66742" lon="3.8319">
        <ele>116.5825246338</ele>
        <time>2020-10-25T12:52:50.000Z</time>
      </trkpt>
      <trkpt lat="43.66742" lon="3.83201">
        <ele>116.38834975587</ele>
        <time>2020-10-25T12:52:51.000Z</time>
      </trkpt>
      <trkpt lat="43.66744" lon="3.83213">
        <ele>116.19417487793</ele>
        <time>2020-10-25T12:52:52.000Z</time>
      </trkpt>
      <trkpt lat="43.66746" lon="3.83223">
        <ele>116</ele>
        <time>2020-10-25T12:52:53.000Z</time>
      </trkpt>
      <trkpt lat="43.66749" lon="3.83231">
        <ele>115.7017890747</ele>
        <time>2020-10-25T12:52:54.000Z</time>
      </trkpt>
      <trkpt lat="43.66752" lon="3.83236">
        <ele>115.40357814939</ele>
        <time>2020-10-25T12:52:55.000Z</time>
      </trkpt>
      <trkpt lat="43.66755" lon="3.83241">
        <ele>115.10536722409</ele>
        <time>2020-10-25T12:52:56.000Z</time>
      </trkpt>
      <trkpt lat="43.66757" lon="3.83243">
        <ele>114.80715629879</ele>
        <time>2020-10-25T12:52:57.000Z</time>
      </trkpt>
      <trkpt lat="43.66759" lon="3.83243">
        <ele>114.50894537348</ele>
        <time>2020-10-25T12:52:58.000Z</time>
      </trkpt>
      <trkpt lat="43.66761" lon="3.83242">
        <ele>114.21073444818</ele>
        <time>2020-10-25T12:52:59.000Z</time>
      </trkpt>
      <trkpt lat="43.66763" lon="3.83238">
        <ele>113.61431259757</ele>
        <time>2020-10-25T12:53:01.000Z</time>
      </trkpt>
      <trkpt lat="43.66765" lon="3.83237">
        <ele>113.31610167227</ele>
        <time>2020-10-25T12:53:02.000Z</time>
      </trkpt>
      <trkpt lat="43.66769" lon="3.83237">
        <ele>113.01789074697</ele>
        <time>2020-10-25T12:53:03.000Z</time>
      </trkpt>
      <trkpt lat="43.66772" lon="3.83239">
        <ele>112.9042763964</ele>
        <time>2020-10-25T12:53:04.000Z</time>
      </trkpt>
      <trkpt lat="43.66774" lon="3.83242">
        <ele>112.80244346888</ele>
        <time>2020-10-25T12:53:05.000Z</time>
      </trkpt>
      <trkpt lat="43.66776" lon="3.83244">
        <ele>112.70061054135</ele>
        <time>2020-10-25T12:53:06.000Z</time>
      </trkpt>
      <trkpt lat="43.66778" lon="3.83247">
        <ele>112.59877761383</ele>
        <time>2020-10-25T12:53:07.000Z</time>
      </trkpt>
      <trkpt lat="43.6678" lon="3.8325">
        <ele>112.49694468631</ele>
        <time>2020-10-25T12:53:08.000Z</time>
      </trkpt>
      <trkpt lat="43.66782" lon="3.83253">
        <ele>112.39511175879</ele>
        <time>2020-10-25T12:53:09.000Z</time>
      </trkpt>
      <trkpt lat="43.66785" lon="3.83257">
        <ele>112.29327883126</ele>
        <time>2020-10-25T12:53:10.000Z</time>
      </trkpt>
      <trkpt lat="43.66789" lon="3.83258">
        <ele>112.19144590374</ele>
        <time>2020-10-25T12:53:11.000Z</time>
      </trkpt>
      <trkpt lat="43.66794" lon="3.83257">
        <ele>112.08961297622</ele>
        <time>2020-10-25T12:53:12.000Z</time>
      </trkpt>
      <trkpt lat="43.66799" lon="3.83257">
        <ele>111.96334014609</ele>
        <time>2020-10-25T12:53:13.000Z</time>
      </trkpt>
      <trkpt lat="43.66804" lon="3.83258">
        <ele>111.65784136352</ele>
        <time>2020-10-25T12:53:14.000Z</time>
      </trkpt>
      <trkpt lat="43.66807" lon="3.83259">
        <ele>111.35234258096</ele>
        <time>2020-10-25T12:53:15.000Z</time>
      </trkpt>
      <trkpt lat="43.6681" lon="3.8326">
        <ele>111.04684379839</ele>
        <time>2020-10-25T12:53:16.000Z</time>
      </trkpt>
      <trkpt lat="43.66813" lon="3.83263">
        <ele>110.43584623326</ele>
        <time>2020-10-25T12:53:18.000Z</time>
      </trkpt>
      <trkpt lat="43.66813" lon="3.83267">
        <ele>110.13034745069</ele>
        <time>2020-10-25T12:53:19.000Z</time>
      </trkpt>
      <trkpt lat="43.66813" lon="3.83271">
        <ele>109.82484866812</ele>
        <time>2020-10-25T12:53:20.000Z</time>
      </trkpt>
      <trkpt lat="43.66813" lon="3.83276">
        <ele>109.51934988556</ele>
        <time>2020-10-25T12:53:21.000Z</time>
      </trkpt>
      <trkpt lat="43.66812" lon="3.8328">
        <ele>109.21385110299</ele>
        <time>2020-10-25T12:53:22.000Z</time>
      </trkpt>
      <trkpt lat="43.66811" lon="3.83284">
        <ele>108.88000256</ele>
        <time>2020-10-25T12:53:23.000Z</time>
      </trkpt>
      <trkpt lat="43.66813" lon="3.83287">
        <ele>108.48000256</ele>
        <time>2020-10-25T12:53:24.000Z</time>
      </trkpt>
      <trkpt lat="43.66814" lon="3.8329">
        <ele>108.08000256</ele>
        <time>2020-10-25T12:53:25.000Z</time>
      </trkpt>
      <trkpt lat="43.66816" lon="3.83294">
        <ele>107.68000256</ele>
        <time>2020-10-25T12:53:26.000Z</time>
      </trkpt>
      <trkpt lat="43.66817" lon="3.83299">
        <ele>107.28000256</ele>
        <time>2020-10-25T12:53:27.000Z</time>
      </trkpt>
      <trkpt lat="43.66819" lon="3.83303">
        <ele>106.88000256</ele>
        <time>2020-10-25T12:53:28.000Z</time>
      </trkpt>
      <trkpt lat="43.6682" lon="3.83307">
        <ele>106.48000256</ele>
        <time>2020-10-25T12:53:29.000Z</time>
      </trkpt>
      <trkpt lat="43.66821" lon="3.83311">
        <ele>106.08000256</ele>
        <time>2020-10-25T12:53:30.000Z</time>
      </trkpt>
      <trkpt lat="43.66822" lon="3.83315">
        <ele>105.68000256</ele>
        <time>2020-10-25T12:53:31.000Z</time>
      </trkpt>
      <trkpt lat="43.66822" lon="3.83321">
        <ele>105.28000256</ele>
        <time>2020-10-25T12:53:32.000Z</time>
      </trkpt>
      <trkpt lat="43.66822" lon="3.83327">
        <ele>104.91000192</ele>
        <time>2020-10-25T12:53:33.000Z</time>
      </trkpt>
      <trkpt lat="43.6682" lon="3.83333">
        <ele>104.61000192</ele>
        <time>2020-10-25T12:53:34.000Z</time>
      </trkpt>
      <trkpt lat="43.66819" lon="3.83338">
        <ele>104.31000192</ele>
        <time>2020-10-25T12:53:35.000Z</time>
      </trkpt>
      <trkpt lat="43.66816" lon="3.83344">
        <ele>104.01000192</ele>
        <time>2020-10-25T12:53:36.000Z</time>
      </trkpt>
      <trkpt lat="43.66813" lon="3.83349">
        <ele>103.71000192</ele>
        <time>2020-10-25T12:53:37.000Z</time>
      </trkpt>
      <trkpt lat="43.66809" lon="3.83352">
        <ele>103.41000192</ele>
        <time>2020-10-25T12:53:38.000Z</time>
      </trkpt>
      <trkpt lat="43.66804" lon="3.83354">
        <ele>103.11000192</ele>
        <time>2020-10-25T12:53:39.000Z</time>
      </trkpt>
      <trkpt lat="43.66799" lon="3.83357">
        <ele>102.81000192</ele>
        <time>2020-10-25T12:53:40.000Z</time>
      </trkpt>
      <trkpt lat="43.66794" lon="3.83361">
        <ele>102.51000192</ele>
        <time>2020-10-25T12:53:41.000Z</time>
      </trkpt>
      <trkpt lat="43.6679" lon="3.83365">
        <ele>102.21000192</ele>
        <time>2020-10-25T12:53:42.000Z</time>
      </trkpt>
      <trkpt lat="43.66786" lon="3.8337">
        <ele>101.88000256</ele>
        <time>2020-10-25T12:53:43.000Z</time>
      </trkpt>
      <trkpt lat="43.66783" lon="3.83374">
        <ele>101.48000256</ele>
        <time>2020-10-25T12:53:44.000Z</time>
      </trkpt>
      <trkpt lat="43.66779" lon="3.83379">
        <ele>101.08000256</ele>
        <time>2020-10-25T12:53:45.000Z</time>
      </trkpt>
      <trkpt lat="43.66771" lon="3.83389">
        <ele>100.28000256</ele>
        <time>2020-10-25T12:53:47.000Z</time>
      </trkpt>
      <trkpt lat="43.66764" lon="3.83398">
        <ele>99.48000256</ele>
        <time>2020-10-25T12:53:49.000Z</time>
      </trkpt>
      <trkpt lat="43.66756" lon="3.83413">
        <ele>98.68000256</ele>
        <time>2020-10-25T12:53:51.000Z</time>
      </trkpt>
      <trkpt lat="43.66754" lon="3.83418">
        <ele>98.28000256</ele>
        <time>2020-10-25T12:53:52.000Z</time>
      </trkpt>
      <trkpt lat="43.66752" lon="3.83424">
        <ele>97.94000128</ele>
        <time>2020-10-25T12:53:53.000Z</time>
      </trkpt>
      <trkpt lat="43.66751" lon="3.83431">
        <ele>97.74000128</ele>
        <time>2020-10-25T12:53:54.000Z</time>
      </trkpt>
      <trkpt lat="43.66748" lon="3.83439">
        <ele>97.54000128</ele>
        <time>2020-10-25T12:53:55.000Z</time>
      </trkpt>
      <trkpt lat="43.66746" lon="3.83444">
        <ele>97.34000128</ele>
        <time>2020-10-25T12:53:56.000Z</time>
      </trkpt>
      <trkpt lat="43.66745" lon="3.8345">
        <ele>97.14000128</ele>
        <time>2020-10-25T12:53:57.000Z</time>
      </trkpt>
      <trkpt lat="43.66745" lon="3.83456">
        <ele>96.94000128</ele>
        <time>2020-10-25T12:53:58.000Z</time>
      </trkpt>
      <trkpt lat="43.66746" lon="3.83463">
        <ele>96.74000128</ele>
        <time>2020-10-25T12:53:59.000Z</time>
      </trkpt>
      <trkpt lat="43.66747" lon="3.8347">
        <ele>96.54000128</ele>
        <time>2020-10-25T12:54:00.000Z</time>
      </trkpt>
      <trkpt lat="43.66749" lon="3.83477">
        <ele>96.34000128</ele>
        <time>2020-10-25T12:54:01.000Z</time>
      </trkpt>
      <trkpt lat="43.66751" lon="3.83484">
        <ele>96.14000128</ele>
        <time>2020-10-25T12:54:02.000Z</time>
      </trkpt>
      <trkpt lat="43.66753" lon="3.83491">
        <ele>96</ele>
        <time>2020-10-25T12:54:03.000Z</time>
      </trkpt>
      <trkpt lat="43.66755" lon="3.83497">
        <ele>96</ele>
        <time>2020-10-25T12:54:04.000Z</time>
      </trkpt>
      <trkpt lat="43.66757" lon="3.83503">
        <ele>96</ele>
        <time>2020-10-25T12:54:05.000Z</time>
      </trkpt>
      <trkpt lat="43.6676" lon="3.83509">
        <ele>96</ele>
        <time>2020-10-25T12:54:06.000Z</time>
      </trkpt>
      <trkpt lat="43.66762" lon="3.83516">
        <ele>96</ele>
        <time>2020-10-25T12:54:07.000Z</time>
      </trkpt>
      <trkpt lat="43.66763" lon="3.83523">
        <ele>96</ele>
        <time>2020-10-25T12:54:08.000Z</time>
      </trkpt>
      <trkpt lat="43.66764" lon="3.83531">
        <ele>96</ele>
        <time>2020-10-25T12:54:09.000Z</time>
      </trkpt>
      <trkpt lat="43.66765" lon="3.8354">
        <ele>96</ele>
        <time>2020-10-25T12:54:10.000Z</time>
      </trkpt>
      <trkpt lat="43.66766" lon="3.83547">
        <ele>96</ele>
        <time>2020-10-25T12:54:11.000Z</time>
      </trkpt>
      <trkpt lat="43.66767" lon="3.83555">
        <ele>96</ele>
        <time>2020-10-25T12:54:12.000Z</time>
      </trkpt>
      <trkpt lat="43.66768" lon="3.83561">
        <ele>95.976837565192</ele>
        <time>2020-10-25T12:54:13.000Z</time>
      </trkpt>
      <trkpt lat="43.66769" lon="3.83567">
        <ele>95.876132728009</ele>
        <time>2020-10-25T12:54:14.000Z</time>
      </trkpt>
      <trkpt lat="43.66771" lon="3.8357">
        <ele>95.775427890825</ele>
        <time>2020-10-25T12:54:15.000Z</time>
      </trkpt>
      <trkpt lat="43.66775" lon="3.8357">
        <ele>95.674723053641</ele>
        <time>2020-10-25T12:54:16.000Z</time>
      </trkpt>
      <trkpt lat="43.66778" lon="3.83568">
        <ele>95.574018216458</ele>
        <time>2020-10-25T12:54:17.000Z</time>
      </trkpt>
      <trkpt lat="43.66781" lon="3.83565">
        <ele>95.473313379274</ele>
        <time>2020-10-25T12:54:18.000Z</time>
      </trkpt>
      <trkpt lat="43.66785" lon="3.83562">
        <ele>95.37260854209</ele>
        <time>2020-10-25T12:54:19.000Z</time>
      </trkpt>
      <trkpt lat="43.66789" lon="3.8356">
        <ele>95.271903704907</ele>
        <time>2020-10-25T12:54:20.000Z</time>
      </trkpt>
      <trkpt lat="43.66793" lon="3.83559">
        <ele>95.171198867723</ele>
        <time>2020-10-25T12:54:21.000Z</time>
      </trkpt>
      <trkpt lat="43.66797" lon="3.8356">
        <ele>95.07049403054</ele>
        <time>2020-10-25T12:54:22.000Z</time>
      </trkpt>
      <trkpt lat="43.66801" lon="3.83562">
        <ele>94.94000128</ele>
        <time>2020-10-25T12:54:23.000Z</time>
      </trkpt>
      <trkpt lat="43.66804" lon="3.83563">
        <ele>94.74000128</ele>
        <time>2020-10-25T12:54:24.000Z</time>
      </trkpt>
      <trkpt lat="43.66808" lon="3.83562">
        <ele>94.54000128</ele>
        <time>2020-10-25T12:54:25.000Z</time>
      </trkpt>
      <trkpt lat="43.66812" lon="3.83562">
        <ele>94.34000128</ele>
        <time>2020-10-25T12:54:26.000Z</time>
      </trkpt>
      <trkpt lat="43.66816" lon="3.83561">
        <ele>94.14000128</ele>
        <time>2020-10-25T12:54:27.000Z</time>
      </trkpt>
      <trkpt lat="43.66819" lon="3.8356">
        <ele>93.94000128</ele>
        <time>2020-10-25T12:54:28.000Z</time>
      </trkpt>
      <trkpt lat="43.66821" lon="3.83559">
        <ele>93.74000128</ele>
        <time>2020-10-25T12:54:29.000Z</time>
      </trkpt>
      <trkpt lat="43.66823" lon="3.83559">
        <ele>93.54000128</ele>
        <time>2020-10-25T12:54:30.000Z</time>
      </trkpt>
      <trkpt lat="43.66824" lon="3.83562">
        <ele>93.34000128</ele>
        <time>2020-10-25T12:54:31.000Z</time>
      </trkpt>
      <trkpt lat="43.66825" lon="3.83566">
        <ele>93.14000128</ele>
        <time>2020-10-25T12:54:32.000Z</time>
      </trkpt>
      <trkpt lat="43.66824" lon="3.8357">
        <ele>92.97000064</ele>
        <time>2020-10-25T12:54:33.000Z</time>
      </trkpt>
      <trkpt lat="43.66824" lon="3.83574">
        <ele>92.87000064</ele>
        <time>2020-10-25T12:54:34.000Z</time>
      </trkpt>
      <trkpt lat="43.66825" lon="3.83577">
        <ele>92.77000064</ele>
        <time>2020-10-25T12:54:35.000Z</time>
      </trkpt>
      <trkpt lat="43.66826" lon="3.83579">
        <ele>92.67000064</ele>
        <time>2020-10-25T12:54:36.000Z</time>
      </trkpt>
      <trkpt lat="43.66827" lon="3.83582">
        <ele>92.57000064</ele>
        <time>2020-10-25T12:54:37.000Z</time>
      </trkpt>
      <trkpt lat="43.66828" lon="3.83585">
        <ele>92.37000064</ele>
        <time>2020-10-25T12:54:39.000Z</time>
      </trkpt>
      <trkpt lat="43.66828" lon="3.83589">
        <ele>92</ele>
        <time>2020-10-25T12:54:48.000Z</time>
      </trkpt>
      <trkpt lat="43.66825" lon="3.83588">
        <ele>90.991355381077</ele>
        <time>2020-10-25T12:54:55.000Z</time>
      </trkpt>
      <trkpt lat="43.66824" lon="3.83588">
        <ele>90.847263029176</ele>
        <time>2020-10-25T12:54:56.000Z</time>
      </trkpt>
      <trkpt lat="43.66823" lon="3.8359">
        <ele>90</ele>
        <time>2020-10-25T12:55:02.000Z</time>
      </trkpt>
      <trkpt lat="43.66826" lon="3.83588">
        <ele>89</ele>
        <time>2020-10-25T12:55:41.000Z</time>
      </trkpt>
      <trkpt lat="43.66826" lon="3.83588">
        <ele>89</ele>
        <time>2020-10-25T12:55:46.000Z</time>
      </trkpt>
      <trkpt lat="43.66827" lon="3.83588">
        <ele>87.009329046195</ele>
        <time>2020-10-25T12:56:31.000Z</time>
      </trkpt>
      <trkpt lat="43.66828" lon="3.83587">
        <ele>86.982371282051</ele>
        <time>2020-10-25T12:56:35.000Z</time>
      </trkpt>
      <trkpt lat="43.6683" lon="3.83593">
        <ele>86.020832820513</ele>
        <time>2020-10-25T12:56:41.000Z</time>
      </trkpt>
      <trkpt lat="43.66831" lon="3.83595">
        <ele>86.089770962992</ele>
        <time>2020-10-25T12:56:42.000Z</time>
      </trkpt>
      <trkpt lat="43.66832" lon="3.83597">
        <ele>86.194155026869</ele>
        <time>2020-10-25T12:56:43.000Z</time>
      </trkpt>
      <trkpt lat="43.66833" lon="3.836">
        <ele>86.298539090746</ele>
        <time>2020-10-25T12:56:44.000Z</time>
      </trkpt>
      <trkpt lat="43.66833" lon="3.83603">
        <ele>86.5073072185</ele>
        <time>2020-10-25T12:56:46.000Z</time>
      </trkpt>
      <trkpt lat="43.66831" lon="3.83606">
        <ele>86.716075346254</ele>
        <time>2020-10-25T12:56:48.000Z</time>
      </trkpt>
      <trkpt lat="43.6683" lon="3.83609">
        <ele>86.924843474008</ele>
        <time>2020-10-25T12:56:50.000Z</time>
      </trkpt>
      <trkpt lat="43.6683" lon="3.83612">
        <ele>87.124634819978</ele>
        <time>2020-10-25T12:56:52.000Z</time>
      </trkpt>
      <trkpt lat="43.66832" lon="3.83615">
        <ele>87.319376726192</ele>
        <time>2020-10-25T12:56:54.000Z</time>
      </trkpt>
      <trkpt lat="43.66834" lon="3.83618">
        <ele>87.4167476793</ele>
        <time>2020-10-25T12:56:55.000Z</time>
      </trkpt>
      <trkpt lat="43.66834" lon="3.83622">
        <ele>87.514118632407</ele>
        <time>2020-10-25T12:56:56.000Z</time>
      </trkpt>
      <trkpt lat="43.66835" lon="3.83625">
        <ele>87.611489585514</ele>
        <time>2020-10-25T12:56:57.000Z</time>
      </trkpt>
      <trkpt lat="43.66836" lon="3.83627">
        <ele>87.708860538622</ele>
        <time>2020-10-25T12:56:58.000Z</time>
      </trkpt>
      <trkpt lat="43.66836" lon="3.8363">
        <ele>87.806231491729</ele>
        <time>2020-10-25T12:56:59.000Z</time>
      </trkpt>
      <trkpt lat="43.66837" lon="3.83633">
        <ele>87.903602444837</ele>
        <time>2020-10-25T12:57:00.000Z</time>
      </trkpt>
      <trkpt lat="43.66837" lon="3.83637">
        <ele>87.997940927558</ele>
        <time>2020-10-25T12:57:01.000Z</time>
      </trkpt>
      <trkpt lat="43.66837" lon="3.83641">
        <ele>87.791967771957</ele>
        <time>2020-10-25T12:57:02.000Z</time>
      </trkpt>
      <trkpt lat="43.66839" lon="3.83646">
        <ele>87.585994616356</ele>
        <time>2020-10-25T12:57:03.000Z</time>
      </trkpt>
      <trkpt lat="43.66841" lon="3.83649">
        <ele>87.380021460755</ele>
        <time>2020-10-25T12:57:04.000Z</time>
      </trkpt>
      <trkpt lat="43.66842" lon="3.83653">
        <ele>87.174048305154</ele>
        <time>2020-10-25T12:57:05.000Z</time>
      </trkpt>
      <trkpt lat="43.66843" lon="3.83658">
        <ele>86.968075149553</ele>
        <time>2020-10-25T12:57:06.000Z</time>
      </trkpt>
      <trkpt lat="43.66843" lon="3.83665">
        <ele>86.762101993952</ele>
        <time>2020-10-25T12:57:07.000Z</time>
      </trkpt>
      <trkpt lat="43.66844" lon="3.83671">
        <ele>86.556128838351</ele>
        <time>2020-10-25T12:57:08.000Z</time>
      </trkpt>
      <trkpt lat="43.66844" lon="3.83677">
        <ele>86.35015568275</ele>
        <time>2020-10-25T12:57:09.000Z</time>
      </trkpt>
      <trkpt lat="43.66844" lon="3.83684">
        <ele>86.144182527149</ele>
        <time>2020-10-25T12:57:10.000Z</time>
      </trkpt>
      <trkpt lat="43.66843" lon="3.8369">
        <ele>85.97000064</ele>
        <time>2020-10-25T12:57:11.000Z</time>
      </trkpt>
      <trkpt lat="43.66842" lon="3.83695">
        <ele>85.87000064</ele>
        <time>2020-10-25T12:57:12.000Z</time>
      </trkpt>
      <trkpt lat="43.66841" lon="3.83701">
        <ele>85.77000064</ele>
        <time>2020-10-25T12:57:13.000Z</time>
      </trkpt>
      <trkpt lat="43.66838" lon="3.83706">
        <ele>85.67000064</ele>
        <time>2020-10-25T12:57:14.000Z</time>
      </trkpt>
      <trkpt lat="43.66836" lon="3.8371">
        <ele>85.57000064</ele>
        <time>2020-10-25T12:57:15.000Z</time>
      </trkpt>
      <trkpt lat="43.66834" lon="3.83715">
        <ele>85.47000064</ele>
        <time>2020-10-25T12:57:16.000Z</time>
      </trkpt>
      <trkpt lat="43.66832" lon="3.83719">
        <ele>85.37000064</ele>
        <time>2020-10-25T12:57:17.000Z</time>
      </trkpt>
      <trkpt lat="43.6683" lon="3.83723">
        <ele>85.27000064</ele>
        <time>2020-10-25T12:57:18.000Z</time>
      </trkpt>
      <trkpt lat="43.66828" lon="3.83727">
        <ele>85.17000064</ele>
        <time>2020-10-25T12:57:19.000Z</time>
      </trkpt>
      <trkpt lat="43.66826" lon="3.83732">
        <ele>85.07000064</ele>
        <time>2020-10-25T12:57:20.000Z</time>
      </trkpt>
      <trkpt lat="43.66825" lon="3.83736">
        <ele>85</ele>
        <time>2020-10-25T12:57:21.000Z</time>
      </trkpt>
      <trkpt lat="43.66823" lon="3.83741">
        <ele>85</ele>
        <time>2020-10-25T12:57:22.000Z</time>
      </trkpt>
      <trkpt lat="43.66822" lon="3.83746">
        <ele>85</ele>
        <time>2020-10-25T12:57:23.000Z</time>
      </trkpt>
      <trkpt lat="43.6682" lon="3.83752">
        <ele>85</ele>
        <time>2020-10-25T12:57:24.000Z</time>
      </trkpt>
      <trkpt lat="43.66819" lon="3.83756">
        <ele>85</ele>
        <time>2020-10-25T12:57:25.000Z</time>
      </trkpt>
      <trkpt lat="43.66817" lon="3.83759">
        <ele>85</ele>
        <time>2020-10-25T12:57:26.000Z</time>
      </trkpt>
      <trkpt lat="43.66814" lon="3.83762">
        <ele>85</ele>
        <time>2020-10-25T12:57:27.000Z</time>
      </trkpt>
      <trkpt lat="43.66812" lon="3.83764">
        <ele>85</ele>
        <time>2020-10-25T12:57:28.000Z</time>
      </trkpt>
      <trkpt lat="43.66809" lon="3.83765">
        <ele>85</ele>
        <time>2020-10-25T12:57:29.000Z</time>
      </trkpt>
      <trkpt lat="43.66805" lon="3.83766">
        <ele>85</ele>
        <time>2020-10-25T12:57:30.000Z</time>
      </trkpt>
      <trkpt lat="43.66802" lon="3.83766">
        <ele>85</ele>
        <time>2020-10-25T12:57:31.000Z</time>
      </trkpt>
      <trkpt lat="43.668" lon="3.83766">
        <ele>85.103092715485</ele>
        <time>2020-10-25T12:57:32.000Z</time>
      </trkpt>
      <trkpt lat="43.66797" lon="3.83767">
        <ele>85.20618543097</ele>
        <time>2020-10-25T12:57:33.000Z</time>
      </trkpt>
      <trkpt lat="43.66794" lon="3.83768">
        <ele>85.309278146456</ele>
        <time>2020-10-25T12:57:34.000Z</time>
      </trkpt>
      <trkpt lat="43.66791" lon="3.83769">
        <ele>85.412370861941</ele>
        <time>2020-10-25T12:57:35.000Z</time>
      </trkpt>
      <trkpt lat="43.66788" lon="3.83771">
        <ele>85.515463577426</ele>
        <time>2020-10-25T12:57:36.000Z</time>
      </trkpt>
      <trkpt lat="43.66785" lon="3.83773">
        <ele>85.618556292911</ele>
        <time>2020-10-25T12:57:37.000Z</time>
      </trkpt>
      <trkpt lat="43.66782" lon="3.83774">
        <ele>85.721649008396</ele>
        <time>2020-10-25T12:57:38.000Z</time>
      </trkpt>
      <trkpt lat="43.6678" lon="3.83775">
        <ele>85.824741723882</ele>
        <time>2020-10-25T12:57:39.000Z</time>
      </trkpt>
      <trkpt lat="43.66777" lon="3.83775">
        <ele>85.927834439367</ele>
        <time>2020-10-25T12:57:40.000Z</time>
      </trkpt>
      <trkpt lat="43.66774" lon="3.83775">
        <ele>86.02999936</ele>
        <time>2020-10-25T12:57:41.000Z</time>
      </trkpt>
      <trkpt lat="43.66771" lon="3.83775">
        <ele>86.12999936</ele>
        <time>2020-10-25T12:57:42.000Z</time>
      </trkpt>
      <trkpt lat="43.66768" lon="3.83775">
        <ele>86.22999936</ele>
        <time>2020-10-25T12:57:43.000Z</time>
      </trkpt>
      <trkpt lat="43.66766" lon="3.83776">
        <ele>86.32999936</ele>
        <time>2020-10-25T12:57:44.000Z</time>
      </trkpt>
      <trkpt lat="43.66763" lon="3.83776">
        <ele>86.42999936</ele>
        <time>2020-10-25T12:57:45.000Z</time>
      </trkpt>
      <trkpt lat="43.6676" lon="3.83777">
        <ele>86.52999936</ele>
        <time>2020-10-25T12:57:46.000Z</time>
      </trkpt>
      <trkpt lat="43.66757" lon="3.83778">
        <ele>86.62999936</ele>
        <time>2020-10-25T12:57:47.000Z</time>
      </trkpt>
      <trkpt lat="43.66754" lon="3.83779">
        <ele>86.72999936</ele>
        <time>2020-10-25T12:57:48.000Z</time>
      </trkpt>
      <trkpt lat="43.66751" lon="3.8378">
        <ele>86.82999936</ele>
        <time>2020-10-25T12:57:49.000Z</time>
      </trkpt>
      <trkpt lat="43.66748" lon="3.83781">
        <ele>86.92999936</ele>
        <time>2020-10-25T12:57:50.000Z</time>
      </trkpt>
      <trkpt lat="43.66745" lon="3.83781">
        <ele>87.029939500161</ele>
        <time>2020-10-25T12:57:51.000Z</time>
      </trkpt>
      <trkpt lat="43.6674" lon="3.83782">
        <ele>87.129739963107</ele>
        <time>2020-10-25T12:57:52.000Z</time>
      </trkpt>
      <trkpt lat="43.66737" lon="3.83783">
        <ele>87.229540426054</ele>
        <time>2020-10-25T12:57:53.000Z</time>
      </trkpt>
      <trkpt lat="43.66733" lon="3.83783">
        <ele>87.329340889</ele>
        <time>2020-10-25T12:57:54.000Z</time>
      </trkpt>
      <trkpt lat="43.6673" lon="3.83784">
        <ele>87.429141351947</ele>
        <time>2020-10-25T12:57:55.000Z</time>
      </trkpt>
      <trkpt lat="43.66726" lon="3.83785">
        <ele>87.528941814893</ele>
        <time>2020-10-25T12:57:56.000Z</time>
      </trkpt>
      <trkpt lat="43.66723" lon="3.83787">
        <ele>87.628742277839</ele>
        <time>2020-10-25T12:57:57.000Z</time>
      </trkpt>
      <trkpt lat="43.6672" lon="3.8379">
        <ele>87.728542740786</ele>
        <time>2020-10-25T12:57:58.000Z</time>
      </trkpt>
      <trkpt lat="43.66716" lon="3.83793">
        <ele>87.828343203732</ele>
        <time>2020-10-25T12:57:59.000Z</time>
      </trkpt>
      <trkpt lat="43.66713" lon="3.83795">
        <ele>87.928143666679</ele>
        <time>2020-10-25T12:58:00.000Z</time>
      </trkpt>
      <trkpt lat="43.6671" lon="3.83797">
        <ele>88</ele>
        <time>2020-10-25T12:58:01.000Z</time>
      </trkpt>
      <trkpt lat="43.66708" lon="3.83799">
        <ele>88</ele>
        <time>2020-10-25T12:58:02.000Z</time>
      </trkpt>
      <trkpt lat="43.66705" lon="3.83801">
        <ele>88</ele>
        <time>2020-10-25T12:58:03.000Z</time>
      </trkpt>
      <trkpt lat="43.66702" lon="3.83803">
        <ele>88</ele>
        <time>2020-10-25T12:58:04.000Z</time>
      </trkpt>
      <trkpt lat="43.667" lon="3.83805">
        <ele>88</ele>
        <time>2020-10-25T12:58:05.000Z</time>
      </trkpt>
      <trkpt lat="43.66697" lon="3.83807">
        <ele>88</ele>
        <time>2020-10-25T12:58:06.000Z</time>
      </trkpt>
      <trkpt lat="43.66694" lon="3.83808">
        <ele>88</ele>
        <time>2020-10-25T12:58:07.000Z</time>
      </trkpt>
      <trkpt lat="43.66691" lon="3.8381">
        <ele>88</ele>
        <time>2020-10-25T12:58:08.000Z</time>
      </trkpt>
      <trkpt lat="43.66689" lon="3.83811">
        <ele>88</ele>
        <time>2020-10-25T12:58:09.000Z</time>
      </trkpt>
      <trkpt lat="43.66686" lon="3.83812">
        <ele>88</ele>
        <time>2020-10-25T12:58:10.000Z</time>
      </trkpt>
      <trkpt lat="43.66683" lon="3.83813">
        <ele>88</ele>
        <time>2020-10-25T12:58:11.000Z</time>
      </trkpt>
      <trkpt lat="43.6668" lon="3.83814">
        <ele>88</ele>
        <time>2020-10-25T12:58:12.000Z</time>
      </trkpt>
      <trkpt lat="43.66677" lon="3.83815">
        <ele>88</ele>
        <time>2020-10-25T12:58:13.000Z</time>
      </trkpt>
      <trkpt lat="43.66674" lon="3.83815">
        <ele>88</ele>
        <time>2020-10-25T12:58:14.000Z</time>
      </trkpt>
      <trkpt lat="43.66671" lon="3.83816">
        <ele>88</ele>
        <time>2020-10-25T12:58:15.000Z</time>
      </trkpt>
      <trkpt lat="43.66668" lon="3.83817">
        <ele>88</ele>
        <time>2020-10-25T12:58:16.000Z</time>
      </trkpt>
      <trkpt lat="43.66665" lon="3.83819">
        <ele>88</ele>
        <time>2020-10-25T12:58:17.000Z</time>
      </trkpt>
      <trkpt lat="43.66663" lon="3.8382">
        <ele>88</ele>
        <time>2020-10-25T12:58:18.000Z</time>
      </trkpt>
      <trkpt lat="43.6666" lon="3.83822">
        <ele>88</ele>
        <time>2020-10-25T12:58:19.000Z</time>
      </trkpt>
      <trkpt lat="43.66658" lon="3.83824">
        <ele>88</ele>
        <time>2020-10-25T12:58:20.000Z</time>
      </trkpt>
      <trkpt lat="43.66656" lon="3.83828">
        <ele>88.25999872</ele>
        <time>2020-10-25T12:58:22.000Z</time>
      </trkpt>
      <trkpt lat="43.66655" lon="3.83831">
        <ele>88.45999872</ele>
        <time>2020-10-25T12:58:23.000Z</time>
      </trkpt>
      <trkpt lat="43.66654" lon="3.83833">
        <ele>88.65999872</ele>
        <time>2020-10-25T12:58:24.000Z</time>
      </trkpt>
      <trkpt lat="43.66654" lon="3.83836">
        <ele>89.05999872</ele>
        <time>2020-10-25T12:58:26.000Z</time>
      </trkpt>
      <trkpt lat="43.66656" lon="3.83837">
        <ele>89.65999872</ele>
        <time>2020-10-25T12:58:29.000Z</time>
      </trkpt>
      <trkpt lat="43.66658" lon="3.83836">
        <ele>90.02999936</ele>
        <time>2020-10-25T12:58:31.000Z</time>
      </trkpt>
      <trkpt lat="43.66661" lon="3.83836">
        <ele>90.22999936</ele>
        <time>2020-10-25T12:58:33.000Z</time>
      </trkpt>
      <trkpt lat="43.66662" lon="3.83839">
        <ele>90.42999936</ele>
        <time>2020-10-25T12:58:35.000Z</time>
      </trkpt>
      <trkpt lat="43.6666" lon="3.83842">
        <ele>90.62999936</ele>
        <time>2020-10-25T12:58:37.000Z</time>
      </trkpt>
      <trkpt lat="43.66658" lon="3.83841">
        <ele>90.82999936</ele>
        <time>2020-10-25T12:58:39.000Z</time>
      </trkpt>
      <trkpt lat="43.66658" lon="3.83836">
        <ele>91.02999936</ele>
        <time>2020-10-25T12:58:41.000Z</time>
      </trkpt>
      <trkpt lat="43.66659" lon="3.83834">
        <ele>91.12999936</ele>
        <time>2020-10-25T12:58:42.000Z</time>
      </trkpt>
      <trkpt lat="43.66662" lon="3.83832">
        <ele>91.22999936</ele>
        <time>2020-10-25T12:58:43.000Z</time>
      </trkpt>
      <trkpt lat="43.66664" lon="3.83831">
        <ele>91.32999936</ele>
        <time>2020-10-25T12:58:44.000Z</time>
      </trkpt>
      <trkpt lat="43.66667" lon="3.83831">
        <ele>91.42999936</ele>
        <time>2020-10-25T12:58:45.000Z</time>
      </trkpt>
      <trkpt lat="43.6667" lon="3.83831">
        <ele>91.52999936</ele>
        <time>2020-10-25T12:58:46.000Z</time>
      </trkpt>
      <trkpt lat="43.66673" lon="3.83832">
        <ele>91.62999936</ele>
        <time>2020-10-25T12:58:47.000Z</time>
      </trkpt>
      <trkpt lat="43.66676" lon="3.83833">
        <ele>91.72999936</ele>
        <time>2020-10-25T12:58:48.000Z</time>
      </trkpt>
      <trkpt lat="43.66679" lon="3.83835">
        <ele>91.82999936</ele>
        <time>2020-10-25T12:58:49.000Z</time>
      </trkpt>
      <trkpt lat="43.66681" lon="3.83836">
        <ele>91.92999936</ele>
        <time>2020-10-25T12:58:50.000Z</time>
      </trkpt>
      <trkpt lat="43.66683" lon="3.83838">
        <ele>92.02999936</ele>
        <time>2020-10-25T12:58:51.000Z</time>
      </trkpt>
      <trkpt lat="43.66685" lon="3.83839">
        <ele>92.12999936</ele>
        <time>2020-10-25T12:58:52.000Z</time>
      </trkpt>
      <trkpt lat="43.66687" lon="3.83841">
        <ele>92.22999936</ele>
        <time>2020-10-25T12:58:53.000Z</time>
      </trkpt>
      <trkpt lat="43.66689" lon="3.83844">
        <ele>92.32999936</ele>
        <time>2020-10-25T12:58:54.000Z</time>
      </trkpt>
      <trkpt lat="43.66691" lon="3.83846">
        <ele>92.42999936</ele>
        <time>2020-10-25T12:58:55.000Z</time>
      </trkpt>
      <trkpt lat="43.66693" lon="3.83849">
        <ele>92.52999936</ele>
        <time>2020-10-25T12:58:56.000Z</time>
      </trkpt>
      <trkpt lat="43.66695" lon="3.83852">
        <ele>92.62999936</ele>
        <time>2020-10-25T12:58:57.000Z</time>
      </trkpt>
      <trkpt lat="43.66698" lon="3.83855">
        <ele>92.72999936</ele>
        <time>2020-10-25T12:58:58.000Z</time>
      </trkpt>
      <trkpt lat="43.667" lon="3.83857">
        <ele>92.82999936</ele>
        <time>2020-10-25T12:58:59.000Z</time>
      </trkpt>
      <trkpt lat="43.66702" lon="3.8386">
        <ele>92.92999936</ele>
        <time>2020-10-25T12:59:00.000Z</time>
      </trkpt>
      <trkpt lat="43.66704" lon="3.83863">
        <ele>93.02999936</ele>
        <time>2020-10-25T12:59:01.000Z</time>
      </trkpt>
      <trkpt lat="43.66706" lon="3.83865">
        <ele>93.12999936</ele>
        <time>2020-10-25T12:59:02.000Z</time>
      </trkpt>
      <trkpt lat="43.66707" lon="3.83868">
        <ele>93.22999936</ele>
        <time>2020-10-25T12:59:03.000Z</time>
      </trkpt>
      <trkpt lat="43.66709" lon="3.8387">
        <ele>93.32999936</ele>
        <time>2020-10-25T12:59:04.000Z</time>
      </trkpt>
      <trkpt lat="43.66709" lon="3.83873">
        <ele>93.42999936</ele>
        <time>2020-10-25T12:59:05.000Z</time>
      </trkpt>
      <trkpt lat="43.6671" lon="3.83876">
        <ele>93.52999936</ele>
        <time>2020-10-25T12:59:06.000Z</time>
      </trkpt>
      <trkpt lat="43.66711" lon="3.83879">
        <ele>93.62999936</ele>
        <time>2020-10-25T12:59:07.000Z</time>
      </trkpt>
      <trkpt lat="43.66711" lon="3.83883">
        <ele>93.72999936</ele>
        <time>2020-10-25T12:59:08.000Z</time>
      </trkpt>
      <trkpt lat="43.66711" lon="3.83888">
        <ele>93.82999936</ele>
        <time>2020-10-25T12:59:09.000Z</time>
      </trkpt>
      <trkpt lat="43.66711" lon="3.83893">
        <ele>93.92999936</ele>
        <time>2020-10-25T12:59:10.000Z</time>
      </trkpt>
      <trkpt lat="43.6671" lon="3.83898">
        <ele>94</ele>
        <time>2020-10-25T12:59:11.000Z</time>
      </trkpt>
      <trkpt lat="43.66709" lon="3.83903">
        <ele>94</ele>
        <time>2020-10-25T12:59:12.000Z</time>
      </trkpt>
      <trkpt lat="43.66708" lon="3.83909">
        <ele>94</ele>
        <time>2020-10-25T12:59:13.000Z</time>
      </trkpt>
      <trkpt lat="43.66708" lon="3.83916">
        <ele>94</ele>
        <time>2020-10-25T12:59:14.000Z</time>
      </trkpt>
      <trkpt lat="43.66709" lon="3.83922">
        <ele>94</ele>
        <time>2020-10-25T12:59:15.000Z</time>
      </trkpt>
      <trkpt lat="43.66709" lon="3.8393">
        <ele>94</ele>
        <time>2020-10-25T12:59:16.000Z</time>
      </trkpt>
      <trkpt lat="43.6671" lon="3.83937">
        <ele>94</ele>
        <time>2020-10-25T12:59:17.000Z</time>
      </trkpt>
      <trkpt lat="43.66709" lon="3.83945">
        <ele>94</ele>
        <time>2020-10-25T12:59:18.000Z</time>
      </trkpt>
      <trkpt lat="43.66708" lon="3.83954">
        <ele>94</ele>
        <time>2020-10-25T12:59:19.000Z</time>
      </trkpt>
      <trkpt lat="43.66707" lon="3.83963">
        <ele>94</ele>
        <time>2020-10-25T12:59:20.000Z</time>
      </trkpt>
      <trkpt lat="43.66706" lon="3.83971">
        <ele>93.94000128</ele>
        <time>2020-10-25T12:59:21.000Z</time>
      </trkpt>
      <trkpt lat="43.66706" lon="3.83979">
        <ele>93.74000128</ele>
        <time>2020-10-25T12:59:22.000Z</time>
      </trkpt>
      <trkpt lat="43.66709" lon="3.83984">
        <ele>93.54000128</ele>
        <time>2020-10-25T12:59:23.000Z</time>
      </trkpt>
      <trkpt lat="43.66712" lon="3.83987">
        <ele>93.34000128</ele>
        <time>2020-10-25T12:59:24.000Z</time>
      </trkpt>
      <trkpt lat="43.66717" lon="3.83988">
        <ele>93.14000128</ele>
        <time>2020-10-25T12:59:25.000Z</time>
      </trkpt>
      <trkpt lat="43.66721" lon="3.83988">
        <ele>92.94000128</ele>
        <time>2020-10-25T12:59:26.000Z</time>
      </trkpt>
      <trkpt lat="43.66725" lon="3.83988">
        <ele>92.74000128</ele>
        <time>2020-10-25T12:59:27.000Z</time>
      </trkpt>
      <trkpt lat="43.6673" lon="3.83987">
        <ele>92.54000128</ele>
        <time>2020-10-25T12:59:28.000Z</time>
      </trkpt>
      <trkpt lat="43.66734" lon="3.83986">
        <ele>92.34000128</ele>
        <time>2020-10-25T12:59:29.000Z</time>
      </trkpt>
      <trkpt lat="43.66738" lon="3.83984">
        <ele>92.14000128</ele>
        <time>2020-10-25T12:59:30.000Z</time>
      </trkpt>
      <trkpt lat="43.66741" lon="3.83982">
        <ele>92</ele>
        <time>2020-10-25T12:59:31.000Z</time>
      </trkpt>
      <trkpt lat="43.66744" lon="3.83981">
        <ele>92</ele>
        <time>2020-10-25T12:59:32.000Z</time>
      </trkpt>
      <trkpt lat="43.66746" lon="3.83981">
        <ele>92</ele>
        <time>2020-10-25T12:59:33.000Z</time>
      </trkpt>
      <trkpt lat="43.66748" lon="3.83981">
        <ele>92</ele>
        <time>2020-10-25T12:59:34.000Z</time>
      </trkpt>
      <trkpt lat="43.66751" lon="3.83982">
        <ele>92</ele>
        <time>2020-10-25T12:59:35.000Z</time>
      </trkpt>
      <trkpt lat="43.66754" lon="3.83983">
        <ele>92</ele>
        <time>2020-10-25T12:59:36.000Z</time>
      </trkpt>
      <trkpt lat="43.66757" lon="3.83984">
        <ele>92</ele>
        <time>2020-10-25T12:59:37.000Z</time>
      </trkpt>
      <trkpt lat="43.66759" lon="3.83988">
        <ele>92</ele>
        <time>2020-10-25T12:59:38.000Z</time>
      </trkpt>
      <trkpt lat="43.6676" lon="3.83992">
        <ele>92</ele>
        <time>2020-10-25T12:59:39.000Z</time>
      </trkpt>
      <trkpt lat="43.66762" lon="3.83996">
        <ele>92</ele>
        <time>2020-10-25T12:59:40.000Z</time>
      </trkpt>
      <trkpt lat="43.66764" lon="3.83999">
        <ele>91.97000064</ele>
        <time>2020-10-25T12:59:41.000Z</time>
      </trkpt>
      <trkpt lat="43.66766" lon="3.84002">
        <ele>91.87000064</ele>
        <time>2020-10-25T12:59:42.000Z</time>
      </trkpt>
      <trkpt lat="43.6677" lon="3.84006">
        <ele>91.77000064</ele>
        <time>2020-10-25T12:59:43.000Z</time>
      </trkpt>
      <trkpt lat="43.66772" lon="3.8401">
        <ele>91.67000064</ele>
        <time>2020-10-25T12:59:44.000Z</time>
      </trkpt>
      <trkpt lat="43.66776" lon="3.84012">
        <ele>91.57000064</ele>
        <time>2020-10-25T12:59:45.000Z</time>
      </trkpt>
      <trkpt lat="43.66779" lon="3.84013">
        <ele>91.47000064</ele>
        <time>2020-10-25T12:59:46.000Z</time>
      </trkpt>
      <trkpt lat="43.66783" lon="3.84014">
        <ele>91.37000064</ele>
        <time>2020-10-25T12:59:47.000Z</time>
      </trkpt>
      <trkpt lat="43.66788" lon="3.84014">
        <ele>91.27000064</ele>
        <time>2020-10-25T12:59:48.000Z</time>
      </trkpt>
      <trkpt lat="43.66793" lon="3.84015">
        <ele>91.17000064</ele>
        <time>2020-10-25T12:59:49.000Z</time>
      </trkpt>
      <trkpt lat="43.66797" lon="3.84018">
        <ele>91.07000064</ele>
        <time>2020-10-25T12:59:50.000Z</time>
      </trkpt>
      <trkpt lat="43.66801" lon="3.84021">
        <ele>90.970327014356</ele>
        <time>2020-10-25T12:59:51.000Z</time>
      </trkpt>
      <trkpt lat="43.66804" lon="3.84023">
        <ele>90.871414952085</ele>
        <time>2020-10-25T12:59:52.000Z</time>
      </trkpt>
      <trkpt lat="43.66807" lon="3.84027">
        <ele>90.772502889815</ele>
        <time>2020-10-25T12:59:53.000Z</time>
      </trkpt>
      <trkpt lat="43.6681" lon="3.8403">
        <ele>90.673590827544</ele>
        <time>2020-10-25T12:59:54.000Z</time>
      </trkpt>
      <trkpt lat="43.66813" lon="3.84033">
        <ele>90.574678765274</ele>
        <time>2020-10-25T12:59:55.000Z</time>
      </trkpt>
      <trkpt lat="43.66816" lon="3.84036">
        <ele>90.475766703003</ele>
        <time>2020-10-25T12:59:56.000Z</time>
      </trkpt>
      <trkpt lat="43.66819" lon="3.84038">
        <ele>90.376854640732</ele>
        <time>2020-10-25T12:59:57.000Z</time>
      </trkpt>
      <trkpt lat="43.66823" lon="3.84039">
        <ele>90.277942578462</ele>
        <time>2020-10-25T12:59:58.000Z</time>
      </trkpt>
      <trkpt lat="43.66826" lon="3.84039">
        <ele>90.179030516191</ele>
        <time>2020-10-25T12:59:59.000Z</time>
      </trkpt>
      <trkpt lat="43.6683" lon="3.84039">
        <ele>90.080118453921</ele>
        <time>2020-10-25T13:00:00.000Z</time>
      </trkpt>
      <trkpt lat="43.66833" lon="3.8404">
        <ele>89.944006950722</ele>
        <time>2020-10-25T13:00:01.000Z</time>
      </trkpt>
      <trkpt lat="43.66836" lon="3.84041">
        <ele>89.649311654657</ele>
        <time>2020-10-25T13:00:02.000Z</time>
      </trkpt>
      <trkpt lat="43.66839" lon="3.84041">
        <ele>89.354616358591</ele>
        <time>2020-10-25T13:00:03.000Z</time>
      </trkpt>
      <trkpt lat="43.66842" lon="3.84042">
        <ele>89.059921062525</ele>
        <time>2020-10-25T13:00:04.000Z</time>
      </trkpt>
      <trkpt lat="43.66846" lon="3.84042">
        <ele>88.765225766459</ele>
        <time>2020-10-25T13:00:05.000Z</time>
      </trkpt>
      <trkpt lat="43.6685" lon="3.84044">
        <ele>88.470530470393</ele>
        <time>2020-10-25T13:00:06.000Z</time>
      </trkpt>
      <trkpt lat="43.66854" lon="3.84046">
        <ele>88.175835174328</ele>
        <time>2020-10-25T13:00:07.000Z</time>
      </trkpt>
      <trkpt lat="43.66858" lon="3.84047">
        <ele>87.881139878262</ele>
        <time>2020-10-25T13:00:08.000Z</time>
      </trkpt>
      <trkpt lat="43.66861" lon="3.84048">
        <ele>87.586444582196</ele>
        <time>2020-10-25T13:00:09.000Z</time>
      </trkpt>
      <trkpt lat="43.66864" lon="3.84049">
        <ele>87.29174928613</ele>
        <time>2020-10-25T13:00:10.000Z</time>
      </trkpt>
      <trkpt lat="43.66867" lon="3.8405">
        <ele>87</ele>
        <time>2020-10-25T13:00:11.000Z</time>
      </trkpt>
      <trkpt lat="43.6687" lon="3.8405">
        <ele>87</ele>
        <time>2020-10-25T13:00:12.000Z</time>
      </trkpt>
      <trkpt lat="43.66873" lon="3.84052">
        <ele>87</ele>
        <time>2020-10-25T13:00:13.000Z</time>
      </trkpt>
      <trkpt lat="43.66875" lon="3.84054">
        <ele>87</ele>
        <time>2020-10-25T13:00:14.000Z</time>
      </trkpt>
      <trkpt lat="43.66877" lon="3.84056">
        <ele>87</ele>
        <time>2020-10-25T13:00:15.000Z</time>
      </trkpt>
      <trkpt lat="43.66879" lon="3.84057">
        <ele>87</ele>
        <time>2020-10-25T13:00:16.000Z</time>
      </trkpt>
      <trkpt lat="43.66882" lon="3.84058">
        <ele>87</ele>
        <time>2020-10-25T13:00:17.000Z</time>
      </trkpt>
      <trkpt lat="43.66882" lon="3.8406">
        <ele>87</ele>
        <time>2020-10-25T13:00:18.000Z</time>
      </trkpt>
      <trkpt lat="43.66883" lon="3.84063">
        <ele>87</ele>
        <time>2020-10-25T13:00:19.000Z</time>
      </trkpt>
      <trkpt lat="43.66883" lon="3.84066">
        <ele>87</ele>
        <time>2020-10-25T13:00:20.000Z</time>
      </trkpt>
      <trkpt lat="43.66883" lon="3.84069">
        <ele>87</ele>
        <time>2020-10-25T13:00:21.000Z</time>
      </trkpt>
      <trkpt lat="43.66882" lon="3.84072">
        <ele>87</ele>
        <time>2020-10-25T13:00:22.000Z</time>
      </trkpt>
      <trkpt lat="43.66883" lon="3.84074">
        <ele>87</ele>
        <time>2020-10-25T13:00:25.000Z</time>
      </trkpt>
      <trkpt lat="43.66884" lon="3.84077">
        <ele>87</ele>
        <time>2020-10-25T13:00:27.000Z</time>
      </trkpt>
      <trkpt lat="43.66884" lon="3.84077">
        <ele>87</ele>
        <time>2020-10-25T13:00:31.000Z</time>
      </trkpt>
      <trkpt lat="43.66886" lon="3.84085">
        <ele>87</ele>
        <time>2020-10-25T13:00:42.000Z</time>
      </trkpt>
      <trkpt lat="43.66887" lon="3.84085">
        <ele>86.753166249001</ele>
        <time>2020-10-25T13:00:43.000Z</time>
      </trkpt>
      <trkpt lat="43.6689" lon="3.84082">
        <ele>86.120254002031</ele>
        <time>2020-10-25T13:00:45.000Z</time>
      </trkpt>
      <trkpt lat="43.66892" lon="3.84078">
        <ele>85.803797878546</ele>
        <time>2020-10-25T13:00:46.000Z</time>
      </trkpt>
      <trkpt lat="43.66894" lon="3.84075">
        <ele>85.487341755061</ele>
        <time>2020-10-25T13:00:47.000Z</time>
      </trkpt>
      <trkpt lat="43.66896" lon="3.84071">
        <ele>85.170885631576</ele>
        <time>2020-10-25T13:00:48.000Z</time>
      </trkpt>
      <trkpt lat="43.66898" lon="3.84067">
        <ele>84.854429508091</ele>
        <time>2020-10-25T13:00:49.000Z</time>
      </trkpt>
      <trkpt lat="43.669" lon="3.84063">
        <ele>84.537973384605</ele>
        <time>2020-10-25T13:00:50.000Z</time>
      </trkpt>
      <trkpt lat="43.66902" lon="3.84058">
        <ele>84.22151726112</ele>
        <time>2020-10-25T13:00:51.000Z</time>
      </trkpt>
      <trkpt lat="43.66905" lon="3.84054">
        <ele>83.941117506224</ele>
        <time>2020-10-25T13:00:52.000Z</time>
      </trkpt>
      <trkpt lat="43.66907" lon="3.84051">
        <ele>83.744846714082</ele>
        <time>2020-10-25T13:00:53.000Z</time>
      </trkpt>
      <trkpt lat="43.66909" lon="3.84047">
        <ele>83.548575921939</ele>
        <time>2020-10-25T13:00:54.000Z</time>
      </trkpt>
      <trkpt lat="43.66911" lon="3.84044">
        <ele>83.352305129796</ele>
        <time>2020-10-25T13:00:55.000Z</time>
      </trkpt>
      <trkpt lat="43.66914" lon="3.8404">
        <ele>83.156034337654</ele>
        <time>2020-10-25T13:00:56.000Z</time>
      </trkpt>
      <trkpt lat="43.66916" lon="3.84036">
        <ele>82.959763545511</ele>
        <time>2020-10-25T13:00:57.000Z</time>
      </trkpt>
      <trkpt lat="43.66918" lon="3.84032">
        <ele>82.763492753368</ele>
        <time>2020-10-25T13:00:58.000Z</time>
      </trkpt>
      <trkpt lat="43.6692" lon="3.84028">
        <ele>82.567221961226</ele>
        <time>2020-10-25T13:00:59.000Z</time>
      </trkpt>
      <trkpt lat="43.66921" lon="3.84024">
        <ele>82.370951169083</ele>
        <time>2020-10-25T13:01:00.000Z</time>
      </trkpt>
      <trkpt lat="43.66922" lon="3.84021">
        <ele>82.17468037694</ele>
        <time>2020-10-25T13:01:01.000Z</time>
      </trkpt>
      <trkpt lat="43.66924" lon="3.84018">
        <ele>81.955146488937</ele>
        <time>2020-10-25T13:01:02.000Z</time>
      </trkpt>
      <trkpt lat="43.66925" lon="3.84016">
        <ele>81.547399159192</ele>
        <time>2020-10-25T13:01:03.000Z</time>
      </trkpt>
      <trkpt lat="43.66927" lon="3.84015">
        <ele>81.139651829448</ele>
        <time>2020-10-25T13:01:04.000Z</time>
      </trkpt>
      <trkpt lat="43.66929" lon="3.84012">
        <ele>80.731904499704</ele>
        <time>2020-10-25T13:01:05.000Z</time>
      </trkpt>
      <trkpt lat="43.66931" lon="3.84009">
        <ele>80.32415716996</ele>
        <time>2020-10-25T13:01:06.000Z</time>
      </trkpt>
      <trkpt lat="43.66934" lon="3.84006">
        <ele>79.916409840215</ele>
        <time>2020-10-25T13:01:07.000Z</time>
      </trkpt>
      <trkpt lat="43.66936" lon="3.84003">
        <ele>79.508662510471</ele>
        <time>2020-10-25T13:01:08.000Z</time>
      </trkpt>
      <trkpt lat="43.66938" lon="3.84">
        <ele>79.100915180727</ele>
        <time>2020-10-25T13:01:09.000Z</time>
      </trkpt>
      <trkpt lat="43.6694" lon="3.83997">
        <ele>78.693167850982</ele>
        <time>2020-10-25T13:01:10.000Z</time>
      </trkpt>
      <trkpt lat="43.66942" lon="3.83994">
        <ele>78.285420521238</ele>
        <time>2020-10-25T13:01:11.000Z</time>
      </trkpt>
      <trkpt lat="43.66945" lon="3.83992">
        <ele>77.90999808</ele>
        <time>2020-10-25T13:01:12.000Z</time>
      </trkpt>
      <trkpt lat="43.66949" lon="3.8399">
        <ele>77.60999808</ele>
        <time>2020-10-25T13:01:13.000Z</time>
      </trkpt>
      <trkpt lat="43.66952" lon="3.83987">
        <ele>77.30999808</ele>
        <time>2020-10-25T13:01:14.000Z</time>
      </trkpt>
      <trkpt lat="43.66955" lon="3.83986">
        <ele>77.00999808</ele>
        <time>2020-10-25T13:01:15.000Z</time>
      </trkpt>
      <trkpt lat="43.66959" lon="3.83984">
        <ele>76.70999808</ele>
        <time>2020-10-25T13:01:16.000Z</time>
      </trkpt>
      <trkpt lat="43.66962" lon="3.83983">
        <ele>76.40999808</ele>
        <time>2020-10-25T13:01:17.000Z</time>
      </trkpt>
      <trkpt lat="43.66965" lon="3.83982">
        <ele>76.10999808</ele>
        <time>2020-10-25T13:01:18.000Z</time>
      </trkpt>
      <trkpt lat="43.66968" lon="3.83981">
        <ele>75.80999808</ele>
        <time>2020-10-25T13:01:19.000Z</time>
      </trkpt>
      <trkpt lat="43.66971" lon="3.8398">
        <ele>75.50999808</ele>
        <time>2020-10-25T13:01:20.000Z</time>
      </trkpt>
      <trkpt lat="43.66973" lon="3.83979">
        <ele>75.20999808</ele>
        <time>2020-10-25T13:01:21.000Z</time>
      </trkpt>
      <trkpt lat="43.66976" lon="3.83978">
        <ele>74.96999936</ele>
        <time>2020-10-25T13:01:22.000Z</time>
      </trkpt>
      <trkpt lat="43.66979" lon="3.83977">
        <ele>74.86999936</ele>
        <time>2020-10-25T13:01:23.000Z</time>
      </trkpt>
      <trkpt lat="43.66982" lon="3.83976">
        <ele>74.76999936</ele>
        <time>2020-10-25T13:01:24.000Z</time>
      </trkpt>
      <trkpt lat="43.66986" lon="3.83974">
        <ele>74.66999936</ele>
        <time>2020-10-25T13:01:25.000Z</time>
      </trkpt>
      <trkpt lat="43.66989" lon="3.83973">
        <ele>74.56999936</ele>
        <time>2020-10-25T13:01:26.000Z</time>
      </trkpt>
      <trkpt lat="43.66992" lon="3.83972">
        <ele>74.46999936</ele>
        <time>2020-10-25T13:01:27.000Z</time>
      </trkpt>
      <trkpt lat="43.66995" lon="3.83971">
        <ele>74.36999936</ele>
        <time>2020-10-25T13:01:28.000Z</time>
      </trkpt>
      <trkpt lat="43.66998" lon="3.83969">
        <ele>74.26999936</ele>
        <time>2020-10-25T13:01:29.000Z</time>
      </trkpt>
      <trkpt lat="43.67001" lon="3.83967">
        <ele>74.16999936</ele>
        <time>2020-10-25T13:01:30.000Z</time>
      </trkpt>
      <trkpt lat="43.67004" lon="3.83965">
        <ele>74.06999936</ele>
        <time>2020-10-25T13:01:31.000Z</time>
      </trkpt>
      <trkpt lat="43.67007" lon="3.83963">
        <ele>73.93999872</ele>
        <time>2020-10-25T13:01:32.000Z</time>
      </trkpt>
      <trkpt lat="43.67011" lon="3.83961">
        <ele>73.73999872</ele>
        <time>2020-10-25T13:01:33.000Z</time>
      </trkpt>
      <trkpt lat="43.67014" lon="3.8396">
        <ele>73.53999872</ele>
        <time>2020-10-25T13:01:34.000Z</time>
      </trkpt>
      <trkpt lat="43.67017" lon="3.83958">
        <ele>73.33999872</ele>
        <time>2020-10-25T13:01:35.000Z</time>
      </trkpt>
      <trkpt lat="43.6702" lon="3.83957">
        <ele>73.13999872</ele>
        <time>2020-10-25T13:01:36.000Z</time>
      </trkpt>
      <trkpt lat="43.67024" lon="3.83955">
        <ele>72.93999872</ele>
        <time>2020-10-25T13:01:37.000Z</time>
      </trkpt>
      <trkpt lat="43.67027" lon="3.83954">
        <ele>72.73999872</ele>
        <time>2020-10-25T13:01:38.000Z</time>
      </trkpt>
      <trkpt lat="43.67031" lon="3.83953">
        <ele>72.53999872</ele>
        <time>2020-10-25T13:01:39.000Z</time>
      </trkpt>
      <trkpt lat="43.67034" lon="3.83952">
        <ele>72.33999872</ele>
        <time>2020-10-25T13:01:40.000Z</time>
      </trkpt>
      <trkpt lat="43.67037" lon="3.83951">
        <ele>72.13999872</ele>
        <time>2020-10-25T13:01:41.000Z</time>
      </trkpt>
      <trkpt lat="43.67041" lon="3.83949">
        <ele>71.96999936</ele>
        <time>2020-10-25T13:01:42.000Z</time>
      </trkpt>
      <trkpt lat="43.67044" lon="3.83948">
        <ele>71.86999936</ele>
        <time>2020-10-25T13:01:43.000Z</time>
      </trkpt>
      <trkpt lat="43.67048" lon="3.83947">
        <ele>71.76999936</ele>
        <time>2020-10-25T13:01:44.000Z</time>
      </trkpt>
      <trkpt lat="43.67051" lon="3.83946">
        <ele>71.66999936</ele>
        <time>2020-10-25T13:01:45.000Z</time>
      </trkpt>
      <trkpt lat="43.67055" lon="3.83945">
        <ele>71.56999936</ele>
        <time>2020-10-25T13:01:46.000Z</time>
      </trkpt>
      <trkpt lat="43.67058" lon="3.83944">
        <ele>71.46999936</ele>
        <time>2020-10-25T13:01:47.000Z</time>
      </trkpt>
      <trkpt lat="43.67062" lon="3.83943">
        <ele>71.36999936</ele>
        <time>2020-10-25T13:01:48.000Z</time>
      </trkpt>
      <trkpt lat="43.67065" lon="3.83942">
        <ele>71.26999936</ele>
        <time>2020-10-25T13:01:49.000Z</time>
      </trkpt>
      <trkpt lat="43.67068" lon="3.83941">
        <ele>71.16999936</ele>
        <time>2020-10-25T13:01:50.000Z</time>
      </trkpt>
      <trkpt lat="43.67072" lon="3.8394">
        <ele>71.06999936</ele>
        <time>2020-10-25T13:01:51.000Z</time>
      </trkpt>
      <trkpt lat="43.67075" lon="3.83939">
        <ele>70.96999936</ele>
        <time>2020-10-25T13:01:52.000Z</time>
      </trkpt>
      <trkpt lat="43.67078" lon="3.83939">
        <ele>70.86999936</ele>
        <time>2020-10-25T13:01:53.000Z</time>
      </trkpt>
      <trkpt lat="43.67082" lon="3.83938">
        <ele>70.76999936</ele>
        <time>2020-10-25T13:01:54.000Z</time>
      </trkpt>
      <trkpt lat="43.67085" lon="3.83937">
        <ele>70.66999936</ele>
        <time>2020-10-25T13:01:55.000Z</time>
      </trkpt>
      <trkpt lat="43.67088" lon="3.83937">
        <ele>70.56999936</ele>
        <time>2020-10-25T13:01:56.000Z</time>
      </trkpt>
      <trkpt lat="43.67092" lon="3.83936">
        <ele>70.46999936</ele>
        <time>2020-10-25T13:01:57.000Z</time>
      </trkpt>
      <trkpt lat="43.67095" lon="3.83934">
        <ele>70.36999936</ele>
        <time>2020-10-25T13:01:58.000Z</time>
      </trkpt>
      <trkpt lat="43.67098" lon="3.83933">
        <ele>70.26999936</ele>
        <time>2020-10-25T13:01:59.000Z</time>
      </trkpt>
      <trkpt lat="43.67102" lon="3.83932">
        <ele>70.16999936</ele>
        <time>2020-10-25T13:02:00.000Z</time>
      </trkpt>
      <trkpt lat="43.67105" lon="3.8393">
        <ele>70.06999936</ele>
        <time>2020-10-25T13:02:01.000Z</time>
      </trkpt>
      <trkpt lat="43.67108" lon="3.83929">
        <ele>70</ele>
        <time>2020-10-25T13:02:02.000Z</time>
      </trkpt>
      <trkpt lat="43.67112" lon="3.83928">
        <ele>70</ele>
        <time>2020-10-25T13:02:03.000Z</time>
      </trkpt>
      <trkpt lat="43.67115" lon="3.83927">
        <ele>70</ele>
        <time>2020-10-25T13:02:04.000Z</time>
      </trkpt>
      <trkpt lat="43.67119" lon="3.83925">
        <ele>70</ele>
        <time>2020-10-25T13:02:05.000Z</time>
      </trkpt>
      <trkpt lat="43.67122" lon="3.83924">
        <ele>70</ele>
        <time>2020-10-25T13:02:06.000Z</time>
      </trkpt>
      <trkpt lat="43.67125" lon="3.83923">
        <ele>70</ele>
        <time>2020-10-25T13:02:07.000Z</time>
      </trkpt>
      <trkpt lat="43.67128" lon="3.83921">
        <ele>70</ele>
        <time>2020-10-25T13:02:08.000Z</time>
      </trkpt>
      <trkpt lat="43.67132" lon="3.8392">
        <ele>70</ele>
        <time>2020-10-25T13:02:09.000Z</time>
      </trkpt>
      <trkpt lat="43.67135" lon="3.83919">
        <ele>70</ele>
        <time>2020-10-25T13:02:10.000Z</time>
      </trkpt>
      <trkpt lat="43.67138" lon="3.83918">
        <ele>70</ele>
        <time>2020-10-25T13:02:11.000Z</time>
      </trkpt>
      <trkpt lat="43.67142" lon="3.83917">
        <ele>70</ele>
        <time>2020-10-25T13:02:12.000Z</time>
      </trkpt>
      <trkpt lat="43.67145" lon="3.83916">
        <ele>70</ele>
        <time>2020-10-25T13:02:13.000Z</time>
      </trkpt>
      <trkpt lat="43.67149" lon="3.83916">
        <ele>70</ele>
        <time>2020-10-25T13:02:14.000Z</time>
      </trkpt>
      <trkpt lat="43.67152" lon="3.83915">
        <ele>70</ele>
        <time>2020-10-25T13:02:15.000Z</time>
      </trkpt>
      <trkpt lat="43.67156" lon="3.83915">
        <ele>70</ele>
        <time>2020-10-25T13:02:16.000Z</time>
      </trkpt>
      <trkpt lat="43.67159" lon="3.83914">
        <ele>70</ele>
        <time>2020-10-25T13:02:17.000Z</time>
      </trkpt>
      <trkpt lat="43.67163" lon="3.83914">
        <ele>70</ele>
        <time>2020-10-25T13:02:18.000Z</time>
      </trkpt>
      <trkpt lat="43.67167" lon="3.83914">
        <ele>70</ele>
        <time>2020-10-25T13:02:19.000Z</time>
      </trkpt>
      <trkpt lat="43.67171" lon="3.83914">
        <ele>70</ele>
        <time>2020-10-25T13:02:20.000Z</time>
      </trkpt>
      <trkpt lat="43.67175" lon="3.83914">
        <ele>70</ele>
        <time>2020-10-25T13:02:21.000Z</time>
      </trkpt>
      <trkpt lat="43.67178" lon="3.83914">
        <ele>70.03000064</ele>
        <time>2020-10-25T13:02:22.000Z</time>
      </trkpt>
      <trkpt lat="43.67182" lon="3.83914">
        <ele>70.13000064</ele>
        <time>2020-10-25T13:02:23.000Z</time>
      </trkpt>
      <trkpt lat="43.67186" lon="3.83914">
        <ele>70.23000064</ele>
        <time>2020-10-25T13:02:24.000Z</time>
      </trkpt>
      <trkpt lat="43.67189" lon="3.83914">
        <ele>70.33000064</ele>
        <time>2020-10-25T13:02:25.000Z</time>
      </trkpt>
      <trkpt lat="43.67193" lon="3.83915">
        <ele>70.43000064</ele>
        <time>2020-10-25T13:02:26.000Z</time>
      </trkpt>
      <trkpt lat="43.67197" lon="3.83916">
        <ele>70.53000064</ele>
        <time>2020-10-25T13:02:27.000Z</time>
      </trkpt>
      <trkpt lat="43.672" lon="3.83916">
        <ele>70.63000064</ele>
        <time>2020-10-25T13:02:28.000Z</time>
      </trkpt>
      <trkpt lat="43.67204" lon="3.83916">
        <ele>70.73000064</ele>
        <time>2020-10-25T13:02:29.000Z</time>
      </trkpt>
      <trkpt lat="43.67208" lon="3.83916">
        <ele>70.83000064</ele>
        <time>2020-10-25T13:02:30.000Z</time>
      </trkpt>
      <trkpt lat="43.67212" lon="3.83917">
        <ele>70.93000064</ele>
        <time>2020-10-25T13:02:31.000Z</time>
      </trkpt>
      <trkpt lat="43.67215" lon="3.83917">
        <ele>71.029383557093</ele>
        <time>2020-10-25T13:02:32.000Z</time>
      </trkpt>
      <trkpt lat="43.67218" lon="3.83917">
        <ele>71.127326657949</ele>
        <time>2020-10-25T13:02:33.000Z</time>
      </trkpt>
      <trkpt lat="43.67222" lon="3.83918">
        <ele>71.225269758806</ele>
        <time>2020-10-25T13:02:34.000Z</time>
      </trkpt>
      <trkpt lat="43.67224" lon="3.83918">
        <ele>71.323212859663</ele>
        <time>2020-10-25T13:02:35.000Z</time>
      </trkpt>
      <trkpt lat="43.67227" lon="3.83919">
        <ele>71.421155960519</ele>
        <time>2020-10-25T13:02:36.000Z</time>
      </trkpt>
      <trkpt lat="43.67229" lon="3.83918">
        <ele>71.519099061376</ele>
        <time>2020-10-25T13:02:37.000Z</time>
      </trkpt>
      <trkpt lat="43.67232" lon="3.83918">
        <ele>71.617042162233</ele>
        <time>2020-10-25T13:02:38.000Z</time>
      </trkpt>
      <trkpt lat="43.67235" lon="3.83918">
        <ele>71.714985263089</ele>
        <time>2020-10-25T13:02:39.000Z</time>
      </trkpt>
      <trkpt lat="43.67237" lon="3.83918">
        <ele>71.812928363946</ele>
        <time>2020-10-25T13:02:40.000Z</time>
      </trkpt>
      <trkpt lat="43.6724" lon="3.83918">
        <ele>71.910871464802</ele>
        <time>2020-10-25T13:02:41.000Z</time>
      </trkpt>
      <trkpt lat="43.67243" lon="3.83919">
        <ele>72</ele>
        <time>2020-10-25T13:02:42.000Z</time>
      </trkpt>
      <trkpt lat="43.67245" lon="3.83919">
        <ele>72</ele>
        <time>2020-10-25T13:02:43.000Z</time>
      </trkpt>
      <trkpt lat="43.67248" lon="3.83918">
        <ele>72</ele>
        <time>2020-10-25T13:02:44.000Z</time>
      </trkpt>
      <trkpt lat="43.67251" lon="3.83918">
        <ele>72</ele>
        <time>2020-10-25T13:02:45.000Z</time>
      </trkpt>
      <trkpt lat="43.67254" lon="3.83918">
        <ele>72</ele>
        <time>2020-10-25T13:02:46.000Z</time>
      </trkpt>
      <trkpt lat="43.67258" lon="3.83918">
        <ele>72</ele>
        <time>2020-10-25T13:02:47.000Z</time>
      </trkpt>
      <trkpt lat="43.67261" lon="3.83918">
        <ele>72</ele>
        <time>2020-10-25T13:02:48.000Z</time>
      </trkpt>
      <trkpt lat="43.67264" lon="3.83918">
        <ele>72</ele>
        <time>2020-10-25T13:02:49.000Z</time>
      </trkpt>
      <trkpt lat="43.67268" lon="3.83918">
        <ele>72</ele>
        <time>2020-10-25T13:02:50.000Z</time>
      </trkpt>
      <trkpt lat="43.67271" lon="3.83919">
        <ele>72</ele>
        <time>2020-10-25T13:02:51.000Z</time>
      </trkpt>
      <trkpt lat="43.67275" lon="3.83919">
        <ele>72.027081573386</ele>
        <time>2020-10-25T13:02:52.000Z</time>
      </trkpt>
      <trkpt lat="43.67278" lon="3.8392">
        <ele>72.127382508287</ele>
        <time>2020-10-25T13:02:53.000Z</time>
      </trkpt>
      <trkpt lat="43.67282" lon="3.8392">
        <ele>72.227683443188</ele>
        <time>2020-10-25T13:02:54.000Z</time>
      </trkpt>
      <trkpt lat="43.67285" lon="3.8392">
        <ele>72.327984378089</ele>
        <time>2020-10-25T13:02:55.000Z</time>
      </trkpt>
      <trkpt lat="43.67288" lon="3.8392">
        <ele>72.42828531299</ele>
        <time>2020-10-25T13:02:56.000Z</time>
      </trkpt>
      <trkpt lat="43.67291" lon="3.8392">
        <ele>72.528586247891</ele>
        <time>2020-10-25T13:02:57.000Z</time>
      </trkpt>
      <trkpt lat="43.67295" lon="3.83921">
        <ele>72.628887182792</ele>
        <time>2020-10-25T13:02:58.000Z</time>
      </trkpt>
      <trkpt lat="43.67298" lon="3.83922">
        <ele>72.729188117693</ele>
        <time>2020-10-25T13:02:59.000Z</time>
      </trkpt>
      <trkpt lat="43.67302" lon="3.83922">
        <ele>72.829489052594</ele>
        <time>2020-10-25T13:03:00.000Z</time>
      </trkpt>
      <trkpt lat="43.67305" lon="3.83922">
        <ele>72.929789987495</ele>
        <time>2020-10-25T13:03:01.000Z</time>
      </trkpt>
      <trkpt lat="43.67309" lon="3.83922">
        <ele>73</ele>
        <time>2020-10-25T13:03:02.000Z</time>
      </trkpt>
      <trkpt lat="43.67313" lon="3.83922">
        <ele>73</ele>
        <time>2020-10-25T13:03:03.000Z</time>
      </trkpt>
      <trkpt lat="43.67316" lon="3.83922">
        <ele>73</ele>
        <time>2020-10-25T13:03:04.000Z</time>
      </trkpt>
      <trkpt lat="43.6732" lon="3.83922">
        <ele>73</ele>
        <time>2020-10-25T13:03:05.000Z</time>
      </trkpt>
      <trkpt lat="43.67324" lon="3.83921">
        <ele>73</ele>
        <time>2020-10-25T13:03:06.000Z</time>
      </trkpt>
      <trkpt lat="43.67328" lon="3.8392">
        <ele>73</ele>
        <time>2020-10-25T13:03:07.000Z</time>
      </trkpt>
      <trkpt lat="43.67332" lon="3.83919">
        <ele>73</ele>
        <time>2020-10-25T13:03:08.000Z</time>
      </trkpt>
      <trkpt lat="43.67335" lon="3.8392">
        <ele>73</ele>
        <time>2020-10-25T13:03:09.000Z</time>
      </trkpt>
      <trkpt lat="43.67338" lon="3.8392">
        <ele>73</ele>
        <time>2020-10-25T13:03:10.000Z</time>
      </trkpt>
      <trkpt lat="43.67342" lon="3.8392">
        <ele>73</ele>
        <time>2020-10-25T13:03:11.000Z</time>
      </trkpt>
      <trkpt lat="43.67346" lon="3.8392">
        <ele>73.027504894299</ele>
        <time>2020-10-25T13:03:12.000Z</time>
      </trkpt>
      <trkpt lat="43.67349" lon="3.8392">
        <ele>73.125736659655</ele>
        <time>2020-10-25T13:03:13.000Z</time>
      </trkpt>
      <trkpt lat="43.67352" lon="3.8392">
        <ele>73.22396842501</ele>
        <time>2020-10-25T13:03:14.000Z</time>
      </trkpt>
      <trkpt lat="43.67356" lon="3.83919">
        <ele>73.322200190365</ele>
        <time>2020-10-25T13:03:15.000Z</time>
      </trkpt>
      <trkpt lat="43.6736" lon="3.83919">
        <ele>73.420431955721</ele>
        <time>2020-10-25T13:03:16.000Z</time>
      </trkpt>
      <trkpt lat="43.67364" lon="3.83918">
        <ele>73.518663721076</ele>
        <time>2020-10-25T13:03:17.000Z</time>
      </trkpt>
      <trkpt lat="43.67368" lon="3.83917">
        <ele>73.616895486431</ele>
        <time>2020-10-25T13:03:18.000Z</time>
      </trkpt>
      <trkpt lat="43.67371" lon="3.83917">
        <ele>73.715127251786</ele>
        <time>2020-10-25T13:03:19.000Z</time>
      </trkpt>
      <trkpt lat="43.67375" lon="3.83917">
        <ele>73.813359017142</ele>
        <time>2020-10-25T13:03:20.000Z</time>
      </trkpt>
      <trkpt lat="43.67379" lon="3.83917">
        <ele>73.911590782497</ele>
        <time>2020-10-25T13:03:21.000Z</time>
      </trkpt>
      <trkpt lat="43.67381" lon="3.83917">
        <ele>74.020406883797</ele>
        <time>2020-10-25T13:03:22.000Z</time>
      </trkpt>
      <trkpt lat="43.67385" lon="3.83918">
        <ele>74.224488783006</ele>
        <time>2020-10-25T13:03:23.000Z</time>
      </trkpt>
      <trkpt lat="43.67388" lon="3.83918">
        <ele>74.428570682215</ele>
        <time>2020-10-25T13:03:24.000Z</time>
      </trkpt>
      <trkpt lat="43.67391" lon="3.83919">
        <ele>74.632652581424</ele>
        <time>2020-10-25T13:03:25.000Z</time>
      </trkpt>
      <trkpt lat="43.67395" lon="3.83919">
        <ele>74.836734480633</ele>
        <time>2020-10-25T13:03:26.000Z</time>
      </trkpt>
      <trkpt lat="43.67398" lon="3.8392">
        <ele>75.040816379842</ele>
        <time>2020-10-25T13:03:27.000Z</time>
      </trkpt>
      <trkpt lat="43.67402" lon="3.8392">
        <ele>75.244898279051</ele>
        <time>2020-10-25T13:03:28.000Z</time>
      </trkpt>
      <trkpt lat="43.67406" lon="3.8392">
        <ele>75.44898017826</ele>
        <time>2020-10-25T13:03:29.000Z</time>
      </trkpt>
      <trkpt lat="43.67411" lon="3.83921">
        <ele>75.653062077469</ele>
        <time>2020-10-25T13:03:30.000Z</time>
      </trkpt>
      <trkpt lat="43.67415" lon="3.83921">
        <ele>75.857143976678</ele>
        <time>2020-10-25T13:03:31.000Z</time>
      </trkpt>
      <trkpt lat="43.67419" lon="3.8392">
        <ele>76.03000064</ele>
        <time>2020-10-25T13:03:32.000Z</time>
      </trkpt>
      <trkpt lat="43.67423" lon="3.8392">
        <ele>76.13000064</ele>
        <time>2020-10-25T13:03:33.000Z</time>
      </trkpt>
      <trkpt lat="43.67427" lon="3.8392">
        <ele>76.23000064</ele>
        <time>2020-10-25T13:03:34.000Z</time>
      </trkpt>
      <trkpt lat="43.67431" lon="3.83919">
        <ele>76.33000064</ele>
        <time>2020-10-25T13:03:35.000Z</time>
      </trkpt>
      <trkpt lat="43.67434" lon="3.83919">
        <ele>76.43000064</ele>
        <time>2020-10-25T13:03:36.000Z</time>
      </trkpt>
      <trkpt lat="43.67437" lon="3.83919">
        <ele>76.53000064</ele>
        <time>2020-10-25T13:03:37.000Z</time>
      </trkpt>
      <trkpt lat="43.67439" lon="3.83918">
        <ele>76.63000064</ele>
        <time>2020-10-25T13:03:38.000Z</time>
      </trkpt>
      <trkpt lat="43.67442" lon="3.83919">
        <ele>76.73000064</ele>
        <time>2020-10-25T13:03:39.000Z</time>
      </trkpt>
      <trkpt lat="43.67444" lon="3.83919">
        <ele>76.83000064</ele>
        <time>2020-10-25T13:03:40.000Z</time>
      </trkpt>
      <trkpt lat="43.67447" lon="3.83919">
        <ele>76.93000064</ele>
        <time>2020-10-25T13:03:41.000Z</time>
      </trkpt>
      <trkpt lat="43.6745" lon="3.83917">
        <ele>77.03000064</ele>
        <time>2020-10-25T13:03:42.000Z</time>
      </trkpt>
      <trkpt lat="43.67453" lon="3.83915">
        <ele>77.13000064</ele>
        <time>2020-10-25T13:03:43.000Z</time>
      </trkpt>
      <trkpt lat="43.67456" lon="3.83913">
        <ele>77.23000064</ele>
        <time>2020-10-25T13:03:44.000Z</time>
      </trkpt>
      <trkpt lat="43.6746" lon="3.83912">
        <ele>77.33000064</ele>
        <time>2020-10-25T13:03:45.000Z</time>
      </trkpt>
      <trkpt lat="43.67464" lon="3.8391">
        <ele>77.43000064</ele>
        <time>2020-10-25T13:03:46.000Z</time>
      </trkpt>
      <trkpt lat="43.67467" lon="3.83908">
        <ele>77.53000064</ele>
        <time>2020-10-25T13:03:47.000Z</time>
      </trkpt>
      <trkpt lat="43.67471" lon="3.83906">
        <ele>77.63000064</ele>
        <time>2020-10-25T13:03:48.000Z</time>
      </trkpt>
      <trkpt lat="43.67475" lon="3.83905">
        <ele>77.73000064</ele>
        <time>2020-10-25T13:03:49.000Z</time>
      </trkpt>
      <trkpt lat="43.67478" lon="3.83903">
        <ele>77.83000064</ele>
        <time>2020-10-25T13:03:50.000Z</time>
      </trkpt>
      <trkpt lat="43.67482" lon="3.83901">
        <ele>77.93000064</ele>
        <time>2020-10-25T13:03:51.000Z</time>
      </trkpt>
      <trkpt lat="43.67485" lon="3.839">
        <ele>78.03000064</ele>
        <time>2020-10-25T13:03:52.000Z</time>
      </trkpt>
      <trkpt lat="43.67489" lon="3.83898">
        <ele>78.13000064</ele>
        <time>2020-10-25T13:03:53.000Z</time>
      </trkpt>
      <trkpt lat="43.67492" lon="3.83897">
        <ele>78.23000064</ele>
        <time>2020-10-25T13:03:54.000Z</time>
      </trkpt>
      <trkpt lat="43.67496" lon="3.83896">
        <ele>78.33000064</ele>
        <time>2020-10-25T13:03:55.000Z</time>
      </trkpt>
      <trkpt lat="43.67499" lon="3.83894">
        <ele>78.43000064</ele>
        <time>2020-10-25T13:03:56.000Z</time>
      </trkpt>
      <trkpt lat="43.67503" lon="3.83893">
        <ele>78.53000064</ele>
        <time>2020-10-25T13:03:57.000Z</time>
      </trkpt>
      <trkpt lat="43.67506" lon="3.83892">
        <ele>78.63000064</ele>
        <time>2020-10-25T13:03:58.000Z</time>
      </trkpt>
      <trkpt lat="43.6751" lon="3.8389">
        <ele>78.73000064</ele>
        <time>2020-10-25T13:03:59.000Z</time>
      </trkpt>
      <trkpt lat="43.67514" lon="3.83889">
        <ele>78.83000064</ele>
        <time>2020-10-25T13:04:00.000Z</time>
      </trkpt>
      <trkpt lat="43.67518" lon="3.83888">
        <ele>78.93000064</ele>
        <time>2020-10-25T13:04:01.000Z</time>
      </trkpt>
      <trkpt lat="43.67521" lon="3.83887">
        <ele>79</ele>
        <time>2020-10-25T13:04:02.000Z</time>
      </trkpt>
      <trkpt lat="43.67525" lon="3.83886">
        <ele>79</ele>
        <time>2020-10-25T13:04:03.000Z</time>
      </trkpt>
      <trkpt lat="43.67529" lon="3.83884">
        <ele>79</ele>
        <time>2020-10-25T13:04:04.000Z</time>
      </trkpt>
      <trkpt lat="43.67533" lon="3.83883">
        <ele>79</ele>
        <time>2020-10-25T13:04:05.000Z</time>
      </trkpt>
      <trkpt lat="43.67536" lon="3.83881">
        <ele>79</ele>
        <time>2020-10-25T13:04:06.000Z</time>
      </trkpt>
      <trkpt lat="43.6754" lon="3.8388">
        <ele>79</ele>
        <time>2020-10-25T13:04:07.000Z</time>
      </trkpt>
      <trkpt lat="43.67544" lon="3.83879">
        <ele>79</ele>
        <time>2020-10-25T13:04:08.000Z</time>
      </trkpt>
      <trkpt lat="43.67547" lon="3.83879">
        <ele>79</ele>
        <time>2020-10-25T13:04:09.000Z</time>
      </trkpt>
      <trkpt lat="43.67551" lon="3.83878">
        <ele>79</ele>
        <time>2020-10-25T13:04:10.000Z</time>
      </trkpt>
      <trkpt lat="43.67555" lon="3.83877">
        <ele>79</ele>
        <time>2020-10-25T13:04:11.000Z</time>
      </trkpt>
      <trkpt lat="43.67559" lon="3.83877">
        <ele>78.99900032</ele>
        <time>2020-10-25T13:04:12.000Z</time>
      </trkpt>
      <trkpt lat="43.67562" lon="3.83876">
        <ele>78.89900032</ele>
        <time>2020-10-25T13:04:13.000Z</time>
      </trkpt>
      <trkpt lat="43.67566" lon="3.83875">
        <ele>78.79900032</ele>
        <time>2020-10-25T13:04:14.000Z</time>
      </trkpt>
      <trkpt lat="43.6757" lon="3.83875">
        <ele>78.69900032</ele>
        <time>2020-10-25T13:04:15.000Z</time>
      </trkpt>
      <trkpt lat="43.67573" lon="3.83874">
        <ele>78.59900032</ele>
        <time>2020-10-25T13:04:16.000Z</time>
      </trkpt>
      <trkpt lat="43.67577" lon="3.83874">
        <ele>78.49900032</ele>
        <time>2020-10-25T13:04:17.000Z</time>
      </trkpt>
      <trkpt lat="43.6758" lon="3.83874">
        <ele>78.39900032</ele>
        <time>2020-10-25T13:04:18.000Z</time>
      </trkpt>
      <trkpt lat="43.67584" lon="3.83874">
        <ele>78.29900032</ele>
        <time>2020-10-25T13:04:19.000Z</time>
      </trkpt>
      <trkpt lat="43.67587" lon="3.83875">
        <ele>78.19900032</ele>
        <time>2020-10-25T13:04:20.000Z</time>
      </trkpt>
      <trkpt lat="43.67591" lon="3.83875">
        <ele>78.09900032</ele>
        <time>2020-10-25T13:04:21.000Z</time>
      </trkpt>
      <trkpt lat="43.67595" lon="3.83875">
        <ele>78</ele>
        <time>2020-10-25T13:04:22.000Z</time>
      </trkpt>
      <trkpt lat="43.67598" lon="3.83875">
        <ele>78</ele>
        <time>2020-10-25T13:04:23.000Z</time>
      </trkpt>
      <trkpt lat="43.67602" lon="3.83875">
        <ele>78</ele>
        <time>2020-10-25T13:04:24.000Z</time>
      </trkpt>
      <trkpt lat="43.67605" lon="3.83875">
        <ele>78</ele>
        <time>2020-10-25T13:04:25.000Z</time>
      </trkpt>
      <trkpt lat="43.67609" lon="3.83876">
        <ele>78</ele>
        <time>2020-10-25T13:04:26.000Z</time>
      </trkpt>
      <trkpt lat="43.67612" lon="3.83876">
        <ele>78</ele>
        <time>2020-10-25T13:04:27.000Z</time>
      </trkpt>
      <trkpt lat="43.67616" lon="3.83876">
        <ele>78</ele>
        <time>2020-10-25T13:04:28.000Z</time>
      </trkpt>
      <trkpt lat="43.67619" lon="3.83877">
        <ele>78</ele>
        <time>2020-10-25T13:04:29.000Z</time>
      </trkpt>
      <trkpt lat="43.67622" lon="3.83877">
        <ele>78</ele>
        <time>2020-10-25T13:04:30.000Z</time>
      </trkpt>
      <trkpt lat="43.67626" lon="3.83877">
        <ele>78</ele>
        <time>2020-10-25T13:04:31.000Z</time>
      </trkpt>
      <trkpt lat="43.67629" lon="3.83877">
        <ele>78.023162464665</ele>
        <time>2020-10-25T13:04:32.000Z</time>
      </trkpt>
      <trkpt lat="43.67633" lon="3.83877">
        <ele>78.123867431659</ele>
        <time>2020-10-25T13:04:33.000Z</time>
      </trkpt>
      <trkpt lat="43.67637" lon="3.83877">
        <ele>78.224572398654</ele>
        <time>2020-10-25T13:04:34.000Z</time>
      </trkpt>
      <trkpt lat="43.6764" lon="3.83877">
        <ele>78.325277365648</ele>
        <time>2020-10-25T13:04:35.000Z</time>
      </trkpt>
      <trkpt lat="43.67644" lon="3.83876">
        <ele>78.425982332643</ele>
        <time>2020-10-25T13:04:36.000Z</time>
      </trkpt>
      <trkpt lat="43.67648" lon="3.83876">
        <ele>78.526687299637</ele>
        <time>2020-10-25T13:04:37.000Z</time>
      </trkpt>
      <trkpt lat="43.67652" lon="3.83876">
        <ele>78.627392266632</ele>
        <time>2020-10-25T13:04:38.000Z</time>
      </trkpt>
      <trkpt lat="43.67655" lon="3.83875">
        <ele>78.728097233626</ele>
        <time>2020-10-25T13:04:39.000Z</time>
      </trkpt>
      <trkpt lat="43.67659" lon="3.83875">
        <ele>78.828802200621</ele>
        <time>2020-10-25T13:04:40.000Z</time>
      </trkpt>
      <trkpt lat="43.67663" lon="3.83875">
        <ele>78.929507167616</ele>
        <time>2020-10-25T13:04:41.000Z</time>
      </trkpt>
      <trkpt lat="43.67666" lon="3.83875">
        <ele>79</ele>
        <time>2020-10-25T13:04:42.000Z</time>
      </trkpt>
      <trkpt lat="43.6767" lon="3.83875">
        <ele>79</ele>
        <time>2020-10-25T13:04:43.000Z</time>
      </trkpt>
      <trkpt lat="43.67673" lon="3.83874">
        <ele>79</ele>
        <time>2020-10-25T13:04:44.000Z</time>
      </trkpt>
      <trkpt lat="43.67677" lon="3.83873">
        <ele>79</ele>
        <time>2020-10-25T13:04:45.000Z</time>
      </trkpt>
      <trkpt lat="43.6768" lon="3.83873">
        <ele>79</ele>
        <time>2020-10-25T13:04:46.000Z</time>
      </trkpt>
      <trkpt lat="43.67684" lon="3.83873">
        <ele>79</ele>
        <time>2020-10-25T13:04:47.000Z</time>
      </trkpt>
      <trkpt lat="43.67688" lon="3.83872">
        <ele>79</ele>
        <time>2020-10-25T13:04:48.000Z</time>
      </trkpt>
      <trkpt lat="43.67691" lon="3.83872">
        <ele>79</ele>
        <time>2020-10-25T13:04:49.000Z</time>
      </trkpt>
      <trkpt lat="43.67695" lon="3.83872">
        <ele>79</ele>
        <time>2020-10-25T13:04:50.000Z</time>
      </trkpt>
      <trkpt lat="43.67698" lon="3.83871">
        <ele>79</ele>
        <time>2020-10-25T13:04:51.000Z</time>
      </trkpt>
      <trkpt lat="43.67702" lon="3.83871">
        <ele>79.025640410661</ele>
        <time>2020-10-25T13:04:52.000Z</time>
      </trkpt>
      <trkpt lat="43.67705" lon="3.8387">
        <ele>79.222879193928</ele>
        <time>2020-10-25T13:04:53.000Z</time>
      </trkpt>
      <trkpt lat="43.67708" lon="3.8387">
        <ele>79.420117977195</ele>
        <time>2020-10-25T13:04:54.000Z</time>
      </trkpt>
      <trkpt lat="43.67712" lon="3.83869">
        <ele>79.617356760462</ele>
        <time>2020-10-25T13:04:55.000Z</time>
      </trkpt>
      <trkpt lat="43.67715" lon="3.83869">
        <ele>79.814595543729</ele>
        <time>2020-10-25T13:04:56.000Z</time>
      </trkpt>
      <trkpt lat="43.67718" lon="3.83869">
        <ele>80.011834326996</ele>
        <time>2020-10-25T13:04:57.000Z</time>
      </trkpt>
      <trkpt lat="43.67722" lon="3.83868">
        <ele>80.209073110263</ele>
        <time>2020-10-25T13:04:58.000Z</time>
      </trkpt>
      <trkpt lat="43.67725" lon="3.83867">
        <ele>80.40631189353</ele>
        <time>2020-10-25T13:04:59.000Z</time>
      </trkpt>
      <trkpt lat="43.67728" lon="3.83866">
        <ele>80.603550676797</ele>
        <time>2020-10-25T13:05:00.000Z</time>
      </trkpt>
      <trkpt lat="43.67732" lon="3.83866">
        <ele>80.800789460064</ele>
        <time>2020-10-25T13:05:01.000Z</time>
      </trkpt>
      <trkpt lat="43.67735" lon="3.83866">
        <ele>80.998028243331</ele>
        <time>2020-10-25T13:05:02.000Z</time>
      </trkpt>
      <trkpt lat="43.67739" lon="3.83866">
        <ele>81</ele>
        <time>2020-10-25T13:05:03.000Z</time>
      </trkpt>
      <trkpt lat="43.67742" lon="3.83866">
        <ele>81</ele>
        <time>2020-10-25T13:05:04.000Z</time>
      </trkpt>
      <trkpt lat="43.67745" lon="3.83865">
        <ele>81</ele>
        <time>2020-10-25T13:05:05.000Z</time>
      </trkpt>
      <trkpt lat="43.67749" lon="3.83865">
        <ele>81</ele>
        <time>2020-10-25T13:05:06.000Z</time>
      </trkpt>
      <trkpt lat="43.67752" lon="3.83864">
        <ele>81</ele>
        <time>2020-10-25T13:05:07.000Z</time>
      </trkpt>
      <trkpt lat="43.67756" lon="3.83864">
        <ele>81</ele>
        <time>2020-10-25T13:05:08.000Z</time>
      </trkpt>
      <trkpt lat="43.67759" lon="3.83864">
        <ele>81</ele>
        <time>2020-10-25T13:05:09.000Z</time>
      </trkpt>
      <trkpt lat="43.67763" lon="3.83864">
        <ele>81</ele>
        <time>2020-10-25T13:05:10.000Z</time>
      </trkpt>
      <trkpt lat="43.67766" lon="3.83863">
        <ele>81</ele>
        <time>2020-10-25T13:05:11.000Z</time>
      </trkpt>
      <trkpt lat="43.6777" lon="3.83863">
        <ele>81</ele>
        <time>2020-10-25T13:05:12.000Z</time>
      </trkpt>
      <trkpt lat="43.67773" lon="3.83862">
        <ele>81</ele>
        <time>2020-10-25T13:05:13.000Z</time>
      </trkpt>
      <trkpt lat="43.67777" lon="3.83861">
        <ele>81</ele>
        <time>2020-10-25T13:05:14.000Z</time>
      </trkpt>
      <trkpt lat="43.6778" lon="3.83859">
        <ele>81</ele>
        <time>2020-10-25T13:05:15.000Z</time>
      </trkpt>
      <trkpt lat="43.67782" lon="3.83856">
        <ele>81</ele>
        <time>2020-10-25T13:05:16.000Z</time>
      </trkpt>
      <trkpt lat="43.67785" lon="3.83853">
        <ele>81</ele>
        <time>2020-10-25T13:05:17.000Z</time>
      </trkpt>
      <trkpt lat="43.67787" lon="3.8385">
        <ele>81</ele>
        <time>2020-10-25T13:05:18.000Z</time>
      </trkpt>
      <trkpt lat="43.6779" lon="3.83847">
        <ele>81</ele>
        <time>2020-10-25T13:05:19.000Z</time>
      </trkpt>
      <trkpt lat="43.67792" lon="3.83844">
        <ele>81</ele>
        <time>2020-10-25T13:05:20.000Z</time>
      </trkpt>
      <trkpt lat="43.67795" lon="3.83841">
        <ele>81</ele>
        <time>2020-10-25T13:05:21.000Z</time>
      </trkpt>
      <trkpt lat="43.67797" lon="3.83838">
        <ele>81</ele>
        <time>2020-10-25T13:05:22.000Z</time>
      </trkpt>
      <trkpt lat="43.678" lon="3.83835">
        <ele>81</ele>
        <time>2020-10-25T13:05:23.000Z</time>
      </trkpt>
      <trkpt lat="43.67803" lon="3.83833">
        <ele>81</ele>
        <time>2020-10-25T13:05:24.000Z</time>
      </trkpt>
      <trkpt lat="43.67805" lon="3.83829">
        <ele>81</ele>
        <time>2020-10-25T13:05:25.000Z</time>
      </trkpt>
      <trkpt lat="43.67808" lon="3.83826">
        <ele>81</ele>
        <time>2020-10-25T13:05:26.000Z</time>
      </trkpt>
      <trkpt lat="43.67811" lon="3.83822">
        <ele>81</ele>
        <time>2020-10-25T13:05:27.000Z</time>
      </trkpt>
      <trkpt lat="43.67814" lon="3.83819">
        <ele>81</ele>
        <time>2020-10-25T13:05:28.000Z</time>
      </trkpt>
      <trkpt lat="43.67817" lon="3.83816">
        <ele>81</ele>
        <time>2020-10-25T13:05:29.000Z</time>
      </trkpt>
      <trkpt lat="43.67819" lon="3.83813">
        <ele>81</ele>
        <time>2020-10-25T13:05:30.000Z</time>
      </trkpt>
      <trkpt lat="43.67822" lon="3.83811">
        <ele>81</ele>
        <time>2020-10-25T13:05:31.000Z</time>
      </trkpt>
      <trkpt lat="43.67824" lon="3.83808">
        <ele>80.971943869784</ele>
        <time>2020-10-25T13:05:32.000Z</time>
      </trkpt>
      <trkpt lat="43.67826" lon="3.83806">
        <ele>80.871743404725</ele>
        <time>2020-10-25T13:05:33.000Z</time>
      </trkpt>
      <trkpt lat="43.67829" lon="3.83803">
        <ele>80.771542939667</ele>
        <time>2020-10-25T13:05:34.000Z</time>
      </trkpt>
      <trkpt lat="43.67831" lon="3.83801">
        <ele>80.671342474608</ele>
        <time>2020-10-25T13:05:35.000Z</time>
      </trkpt>
      <trkpt lat="43.67834" lon="3.83799">
        <ele>80.57114200955</ele>
        <time>2020-10-25T13:05:36.000Z</time>
      </trkpt>
      <trkpt lat="43.67837" lon="3.83796">
        <ele>80.470941544492</ele>
        <time>2020-10-25T13:05:37.000Z</time>
      </trkpt>
      <trkpt lat="43.6784" lon="3.83794">
        <ele>80.370741079433</ele>
        <time>2020-10-25T13:05:38.000Z</time>
      </trkpt>
      <trkpt lat="43.67843" lon="3.83791">
        <ele>80.270540614375</ele>
        <time>2020-10-25T13:05:39.000Z</time>
      </trkpt>
      <trkpt lat="43.67847" lon="3.83788">
        <ele>80.170340149316</ele>
        <time>2020-10-25T13:05:40.000Z</time>
      </trkpt>
      <trkpt lat="43.6785" lon="3.83786">
        <ele>80.070139684258</ele>
        <time>2020-10-25T13:05:41.000Z</time>
      </trkpt>
      <trkpt lat="43.67853" lon="3.83784">
        <ele>80.06000128</ele>
        <time>2020-10-25T13:05:42.000Z</time>
      </trkpt>
      <trkpt lat="43.67857" lon="3.83783">
        <ele>80.26000128</ele>
        <time>2020-10-25T13:05:43.000Z</time>
      </trkpt>
      <trkpt lat="43.6786" lon="3.83781">
        <ele>80.46000128</ele>
        <time>2020-10-25T13:05:44.000Z</time>
      </trkpt>
      <trkpt lat="43.67864" lon="3.83779">
        <ele>80.66000128</ele>
        <time>2020-10-25T13:05:45.000Z</time>
      </trkpt>
      <trkpt lat="43.67867" lon="3.83777">
        <ele>80.86000128</ele>
        <time>2020-10-25T13:05:46.000Z</time>
      </trkpt>
      <trkpt lat="43.67871" lon="3.83775">
        <ele>81.06000128</ele>
        <time>2020-10-25T13:05:47.000Z</time>
      </trkpt>
      <trkpt lat="43.67874" lon="3.83772">
        <ele>81.26000128</ele>
        <time>2020-10-25T13:05:48.000Z</time>
      </trkpt>
      <trkpt lat="43.67877" lon="3.83769">
        <ele>81.46000128</ele>
        <time>2020-10-25T13:05:49.000Z</time>
      </trkpt>
      <trkpt lat="43.67881" lon="3.83767">
        <ele>81.66000128</ele>
        <time>2020-10-25T13:05:50.000Z</time>
      </trkpt>
      <trkpt lat="43.67884" lon="3.83764">
        <ele>81.86000128</ele>
        <time>2020-10-25T13:05:51.000Z</time>
      </trkpt>
      <trkpt lat="43.67887" lon="3.83762">
        <ele>82.03000064</ele>
        <time>2020-10-25T13:05:52.000Z</time>
      </trkpt>
      <trkpt lat="43.67891" lon="3.8376">
        <ele>82.13000064</ele>
        <time>2020-10-25T13:05:53.000Z</time>
      </trkpt>
      <trkpt lat="43.67894" lon="3.83758">
        <ele>82.23000064</ele>
        <time>2020-10-25T13:05:54.000Z</time>
      </trkpt>
      <trkpt lat="43.67898" lon="3.83756">
        <ele>82.33000064</ele>
        <time>2020-10-25T13:05:55.000Z</time>
      </trkpt>
      <trkpt lat="43.67901" lon="3.83753">
        <ele>82.43000064</ele>
        <time>2020-10-25T13:05:56.000Z</time>
      </trkpt>
      <trkpt lat="43.67904" lon="3.83751">
        <ele>82.53000064</ele>
        <time>2020-10-25T13:05:57.000Z</time>
      </trkpt>
      <trkpt lat="43.67907" lon="3.83748">
        <ele>82.63000064</ele>
        <time>2020-10-25T13:05:58.000Z</time>
      </trkpt>
      <trkpt lat="43.67911" lon="3.83746">
        <ele>82.73000064</ele>
        <time>2020-10-25T13:05:59.000Z</time>
      </trkpt>
      <trkpt lat="43.67914" lon="3.83744">
        <ele>82.83000064</ele>
        <time>2020-10-25T13:06:00.000Z</time>
      </trkpt>
      <trkpt lat="43.67917" lon="3.83742">
        <ele>82.93000064</ele>
        <time>2020-10-25T13:06:01.000Z</time>
      </trkpt>
      <trkpt lat="43.67921" lon="3.83739">
        <ele>83.03000064</ele>
        <time>2020-10-25T13:06:02.000Z</time>
      </trkpt>
      <trkpt lat="43.67924" lon="3.83736">
        <ele>83.13000064</ele>
        <time>2020-10-25T13:06:03.000Z</time>
      </trkpt>
      <trkpt lat="43.67927" lon="3.83733">
        <ele>83.23000064</ele>
        <time>2020-10-25T13:06:04.000Z</time>
      </trkpt>
      <trkpt lat="43.6793" lon="3.8373">
        <ele>83.33000064</ele>
        <time>2020-10-25T13:06:05.000Z</time>
      </trkpt>
      <trkpt lat="43.67933" lon="3.83726">
        <ele>83.43000064</ele>
        <time>2020-10-25T13:06:06.000Z</time>
      </trkpt>
      <trkpt lat="43.67936" lon="3.83723">
        <ele>83.53000064</ele>
        <time>2020-10-25T13:06:07.000Z</time>
      </trkpt>
      <trkpt lat="43.67939" lon="3.83719">
        <ele>83.63000064</ele>
        <time>2020-10-25T13:06:08.000Z</time>
      </trkpt>
      <trkpt lat="43.67941" lon="3.83715">
        <ele>83.73000064</ele>
        <time>2020-10-25T13:06:09.000Z</time>
      </trkpt>
      <trkpt lat="43.67944" lon="3.83711">
        <ele>83.83000064</ele>
        <time>2020-10-25T13:06:10.000Z</time>
      </trkpt>
      <trkpt lat="43.67947" lon="3.83708">
        <ele>83.93000064</ele>
        <time>2020-10-25T13:06:11.000Z</time>
      </trkpt>
      <trkpt lat="43.6795" lon="3.83705">
        <ele>83.96999936</ele>
        <time>2020-10-25T13:06:12.000Z</time>
      </trkpt>
      <trkpt lat="43.67954" lon="3.83702">
        <ele>83.86999936</ele>
        <time>2020-10-25T13:06:13.000Z</time>
      </trkpt>
      <trkpt lat="43.67957" lon="3.837">
        <ele>83.76999936</ele>
        <time>2020-10-25T13:06:14.000Z</time>
      </trkpt>
      <trkpt lat="43.67961" lon="3.83699">
        <ele>83.66999936</ele>
        <time>2020-10-25T13:06:15.000Z</time>
      </trkpt>
      <trkpt lat="43.67964" lon="3.83697">
        <ele>83.56999936</ele>
        <time>2020-10-25T13:06:16.000Z</time>
      </trkpt>
      <trkpt lat="43.67967" lon="3.83694">
        <ele>83.46999936</ele>
        <time>2020-10-25T13:06:17.000Z</time>
      </trkpt>
      <trkpt lat="43.6797" lon="3.83691">
        <ele>83.36999936</ele>
        <time>2020-10-25T13:06:18.000Z</time>
      </trkpt>
      <trkpt lat="43.67972" lon="3.83687">
        <ele>83.26999936</ele>
        <time>2020-10-25T13:06:19.000Z</time>
      </trkpt>
      <trkpt lat="43.67974" lon="3.83682">
        <ele>83.16999936</ele>
        <time>2020-10-25T13:06:20.000Z</time>
      </trkpt>
      <trkpt lat="43.67976" lon="3.83678">
        <ele>83.06999936</ele>
        <time>2020-10-25T13:06:21.000Z</time>
      </trkpt>
      <trkpt lat="43.67978" lon="3.83674">
        <ele>83</ele>
        <time>2020-10-25T13:06:22.000Z</time>
      </trkpt>
      <trkpt lat="43.67981" lon="3.8367">
        <ele>83</ele>
        <time>2020-10-25T13:06:23.000Z</time>
      </trkpt>
      <trkpt lat="43.67983" lon="3.83666">
        <ele>83</ele>
        <time>2020-10-25T13:06:24.000Z</time>
      </trkpt>
      <trkpt lat="43.67986" lon="3.83662">
        <ele>83</ele>
        <time>2020-10-25T13:06:25.000Z</time>
      </trkpt>
      <trkpt lat="43.67989" lon="3.83658">
        <ele>83</ele>
        <time>2020-10-25T13:06:26.000Z</time>
      </trkpt>
      <trkpt lat="43.67992" lon="3.83655">
        <ele>83</ele>
        <time>2020-10-25T13:06:27.000Z</time>
      </trkpt>
      <trkpt lat="43.67995" lon="3.83652">
        <ele>83</ele>
        <time>2020-10-25T13:06:28.000Z</time>
      </trkpt>
      <trkpt lat="43.67998" lon="3.83648">
        <ele>83</ele>
        <time>2020-10-25T13:06:29.000Z</time>
      </trkpt>
      <trkpt lat="43.68002" lon="3.83644">
        <ele>83</ele>
        <time>2020-10-25T13:06:30.000Z</time>
      </trkpt>
      <trkpt lat="43.68006" lon="3.83641">
        <ele>83</ele>
        <time>2020-10-25T13:06:31.000Z</time>
      </trkpt>
      <trkpt lat="43.68009" lon="3.83637">
        <ele>83</ele>
        <time>2020-10-25T13:06:32.000Z</time>
      </trkpt>
      <trkpt lat="43.68012" lon="3.83633">
        <ele>83</ele>
        <time>2020-10-25T13:06:33.000Z</time>
      </trkpt>
      <trkpt lat="43.68015" lon="3.8363">
        <ele>83</ele>
        <time>2020-10-25T13:06:34.000Z</time>
      </trkpt>
      <trkpt lat="43.68018" lon="3.83626">
        <ele>83</ele>
        <time>2020-10-25T13:06:35.000Z</time>
      </trkpt>
      <trkpt lat="43.68021" lon="3.83623">
        <ele>83</ele>
        <time>2020-10-25T13:06:36.000Z</time>
      </trkpt>
      <trkpt lat="43.68024" lon="3.83619">
        <ele>83</ele>
        <time>2020-10-25T13:06:37.000Z</time>
      </trkpt>
      <trkpt lat="43.68027" lon="3.83615">
        <ele>83</ele>
        <time>2020-10-25T13:06:38.000Z</time>
      </trkpt>
      <trkpt lat="43.68031" lon="3.83612">
        <ele>83</ele>
        <time>2020-10-25T13:06:39.000Z</time>
      </trkpt>
      <trkpt lat="43.68034" lon="3.83608">
        <ele>83</ele>
        <time>2020-10-25T13:06:40.000Z</time>
      </trkpt>
      <trkpt lat="43.68037" lon="3.83604">
        <ele>83</ele>
        <time>2020-10-25T13:06:41.000Z</time>
      </trkpt>
      <trkpt lat="43.6804" lon="3.836">
        <ele>82.96999936</ele>
        <time>2020-10-25T13:06:42.000Z</time>
      </trkpt>
      <trkpt lat="43.68043" lon="3.83596">
        <ele>82.86999936</ele>
        <time>2020-10-25T13:06:43.000Z</time>
      </trkpt>
      <trkpt lat="43.68047" lon="3.83593">
        <ele>82.76999936</ele>
        <time>2020-10-25T13:06:44.000Z</time>
      </trkpt>
      <trkpt lat="43.6805" lon="3.83589">
        <ele>82.66999936</ele>
        <time>2020-10-25T13:06:45.000Z</time>
      </trkpt>
      <trkpt lat="43.68053" lon="3.83586">
        <ele>82.56999936</ele>
        <time>2020-10-25T13:06:46.000Z</time>
      </trkpt>
      <trkpt lat="43.68057" lon="3.83582">
        <ele>82.46999936</ele>
        <time>2020-10-25T13:06:47.000Z</time>
      </trkpt>
      <trkpt lat="43.68061" lon="3.83579">
        <ele>82.36999936</ele>
        <time>2020-10-25T13:06:48.000Z</time>
      </trkpt>
      <trkpt lat="43.68065" lon="3.83575">
        <ele>82.26999936</ele>
        <time>2020-10-25T13:06:49.000Z</time>
      </trkpt>
      <trkpt lat="43.68068" lon="3.83571">
        <ele>82.16999936</ele>
        <time>2020-10-25T13:06:50.000Z</time>
      </trkpt>
      <trkpt lat="43.68072" lon="3.83568">
        <ele>82.06999936</ele>
        <time>2020-10-25T13:06:51.000Z</time>
      </trkpt>
      <trkpt lat="43.68075" lon="3.83565">
        <ele>82</ele>
        <time>2020-10-25T13:06:52.000Z</time>
      </trkpt>
      <trkpt lat="43.68079" lon="3.83561">
        <ele>82</ele>
        <time>2020-10-25T13:06:53.000Z</time>
      </trkpt>
      <trkpt lat="43.68082" lon="3.83558">
        <ele>82</ele>
        <time>2020-10-25T13:06:54.000Z</time>
      </trkpt>
      <trkpt lat="43.68086" lon="3.83555">
        <ele>82</ele>
        <time>2020-10-25T13:06:55.000Z</time>
      </trkpt>
      <trkpt lat="43.68088" lon="3.83552">
        <ele>82</ele>
        <time>2020-10-25T13:06:56.000Z</time>
      </trkpt>
      <trkpt lat="43.68091" lon="3.83548">
        <ele>82</ele>
        <time>2020-10-25T13:06:57.000Z</time>
      </trkpt>
      <trkpt lat="43.68094" lon="3.83546">
        <ele>82</ele>
        <time>2020-10-25T13:06:58.000Z</time>
      </trkpt>
      <trkpt lat="43.68096" lon="3.83543">
        <ele>82</ele>
        <time>2020-10-25T13:06:59.000Z</time>
      </trkpt>
      <trkpt lat="43.68099" lon="3.83539">
        <ele>82</ele>
        <time>2020-10-25T13:07:00.000Z</time>
      </trkpt>
      <trkpt lat="43.68102" lon="3.83536">
        <ele>82</ele>
        <time>2020-10-25T13:07:01.000Z</time>
      </trkpt>
      <trkpt lat="43.68105" lon="3.83532">
        <ele>82.001029537578</ele>
        <time>2020-10-25T13:07:02.000Z</time>
      </trkpt>
      <trkpt lat="43.68107" lon="3.83528">
        <ele>82.104016251139</ele>
        <time>2020-10-25T13:07:03.000Z</time>
      </trkpt>
      <trkpt lat="43.68109" lon="3.83524">
        <ele>82.207002964699</ele>
        <time>2020-10-25T13:07:04.000Z</time>
      </trkpt>
      <trkpt lat="43.68111" lon="3.8352">
        <ele>82.30998967826</ele>
        <time>2020-10-25T13:07:05.000Z</time>
      </trkpt>
      <trkpt lat="43.68113" lon="3.83516">
        <ele>82.41297639182</ele>
        <time>2020-10-25T13:07:06.000Z</time>
      </trkpt>
      <trkpt lat="43.68115" lon="3.83512">
        <ele>82.515963105381</ele>
        <time>2020-10-25T13:07:07.000Z</time>
      </trkpt>
      <trkpt lat="43.68117" lon="3.83508">
        <ele>82.618949818941</ele>
        <time>2020-10-25T13:07:08.000Z</time>
      </trkpt>
      <trkpt lat="43.68119" lon="3.83504">
        <ele>82.721936532502</ele>
        <time>2020-10-25T13:07:09.000Z</time>
      </trkpt>
      <trkpt lat="43.68121" lon="3.835">
        <ele>82.824923246062</ele>
        <time>2020-10-25T13:07:10.000Z</time>
      </trkpt>
      <trkpt lat="43.68123" lon="3.83497">
        <ele>82.927909959623</ele>
        <time>2020-10-25T13:07:11.000Z</time>
      </trkpt>
      <trkpt lat="43.68125" lon="3.83493">
        <ele>83.029183465608</ele>
        <time>2020-10-25T13:07:12.000Z</time>
      </trkpt>
      <trkpt lat="43.68127" lon="3.83489">
        <ele>83.126459609078</ele>
        <time>2020-10-25T13:07:13.000Z</time>
      </trkpt>
      <trkpt lat="43.68129" lon="3.83485">
        <ele>83.223735752547</ele>
        <time>2020-10-25T13:07:14.000Z</time>
      </trkpt>
      <trkpt lat="43.68132" lon="3.83482">
        <ele>83.321011896016</ele>
        <time>2020-10-25T13:07:15.000Z</time>
      </trkpt>
      <trkpt lat="43.68134" lon="3.83479">
        <ele>83.418288039486</ele>
        <time>2020-10-25T13:07:16.000Z</time>
      </trkpt>
      <trkpt lat="43.68137" lon="3.83475">
        <ele>83.515564182955</ele>
        <time>2020-10-25T13:07:17.000Z</time>
      </trkpt>
      <trkpt lat="43.68139" lon="3.83472">
        <ele>83.612840326425</ele>
        <time>2020-10-25T13:07:18.000Z</time>
      </trkpt>
      <trkpt lat="43.68142" lon="3.83469">
        <ele>83.710116469894</ele>
        <time>2020-10-25T13:07:19.000Z</time>
      </trkpt>
      <trkpt lat="43.68145" lon="3.83466">
        <ele>83.807392613363</ele>
        <time>2020-10-25T13:07:20.000Z</time>
      </trkpt>
      <trkpt lat="43.68148" lon="3.83463">
        <ele>83.904668756833</ele>
        <time>2020-10-25T13:07:21.000Z</time>
      </trkpt>
      <trkpt lat="43.6815" lon="3.8346">
        <ele>84</ele>
        <time>2020-10-25T13:07:22.000Z</time>
      </trkpt>
      <trkpt lat="43.68153" lon="3.83456">
        <ele>84</ele>
        <time>2020-10-25T13:07:23.000Z</time>
      </trkpt>
      <trkpt lat="43.68156" lon="3.83452">
        <ele>84</ele>
        <time>2020-10-25T13:07:24.000Z</time>
      </trkpt>
      <trkpt lat="43.68158" lon="3.83449">
        <ele>84</ele>
        <time>2020-10-25T13:07:25.000Z</time>
      </trkpt>
      <trkpt lat="43.68161" lon="3.83445">
        <ele>84</ele>
        <time>2020-10-25T13:07:26.000Z</time>
      </trkpt>
      <trkpt lat="43.68163" lon="3.83441">
        <ele>84</ele>
        <time>2020-10-25T13:07:27.000Z</time>
      </trkpt>
      <trkpt lat="43.68166" lon="3.83437">
        <ele>84</ele>
        <time>2020-10-25T13:07:28.000Z</time>
      </trkpt>
      <trkpt lat="43.68168" lon="3.83433">
        <ele>84</ele>
        <time>2020-10-25T13:07:29.000Z</time>
      </trkpt>
      <trkpt lat="43.6817" lon="3.8343">
        <ele>84</ele>
        <time>2020-10-25T13:07:30.000Z</time>
      </trkpt>
      <trkpt lat="43.68172" lon="3.83427">
        <ele>84</ele>
        <time>2020-10-25T13:07:31.000Z</time>
      </trkpt>
      <trkpt lat="43.68174" lon="3.83423">
        <ele>84.016032053847</ele>
        <time>2020-10-25T13:07:32.000Z</time>
      </trkpt>
      <trkpt lat="43.68176" lon="3.8342">
        <ele>84.116232390392</ele>
        <time>2020-10-25T13:07:33.000Z</time>
      </trkpt>
      <trkpt lat="43.68178" lon="3.83416">
        <ele>84.216432726937</ele>
        <time>2020-10-25T13:07:34.000Z</time>
      </trkpt>
      <trkpt lat="43.68181" lon="3.83413">
        <ele>84.316633063482</ele>
        <time>2020-10-25T13:07:35.000Z</time>
      </trkpt>
      <trkpt lat="43.68183" lon="3.8341">
        <ele>84.416833400027</ele>
        <time>2020-10-25T13:07:36.000Z</time>
      </trkpt>
      <trkpt lat="43.68186" lon="3.83406">
        <ele>84.517033736572</ele>
        <time>2020-10-25T13:07:37.000Z</time>
      </trkpt>
      <trkpt lat="43.68188" lon="3.83402">
        <ele>84.617234073116</ele>
        <time>2020-10-25T13:07:38.000Z</time>
      </trkpt>
      <trkpt lat="43.6819" lon="3.83398">
        <ele>84.717434409661</ele>
        <time>2020-10-25T13:07:39.000Z</time>
      </trkpt>
      <trkpt lat="43.68192" lon="3.83394">
        <ele>84.817634746206</ele>
        <time>2020-10-25T13:07:40.000Z</time>
      </trkpt>
      <trkpt lat="43.68194" lon="3.83389">
        <ele>84.917835082751</ele>
        <time>2020-10-25T13:07:41.000Z</time>
      </trkpt>
      <trkpt lat="43.68197" lon="3.83385">
        <ele>85.036435998621</ele>
        <time>2020-10-25T13:07:42.000Z</time>
      </trkpt>
      <trkpt lat="43.68199" lon="3.83382">
        <ele>85.238865410676</ele>
        <time>2020-10-25T13:07:43.000Z</time>
      </trkpt>
      <trkpt lat="43.68202" lon="3.83378">
        <ele>85.44129482273</ele>
        <time>2020-10-25T13:07:44.000Z</time>
      </trkpt>
      <trkpt lat="43.68204" lon="3.83374">
        <ele>85.643724234784</ele>
        <time>2020-10-25T13:07:45.000Z</time>
      </trkpt>
      <trkpt lat="43.68207" lon="3.8337">
        <ele>85.846153646839</ele>
        <time>2020-10-25T13:07:46.000Z</time>
      </trkpt>
      <trkpt lat="43.6821" lon="3.83368">
        <ele>86.048583058893</ele>
        <time>2020-10-25T13:07:47.000Z</time>
      </trkpt>
      <trkpt lat="43.68212" lon="3.83365">
        <ele>86.251012470947</ele>
        <time>2020-10-25T13:07:48.000Z</time>
      </trkpt>
      <trkpt lat="43.68215" lon="3.83362">
        <ele>86.453441883002</ele>
        <time>2020-10-25T13:07:49.000Z</time>
      </trkpt>
      <trkpt lat="43.68219" lon="3.83358">
        <ele>86.655871295056</ele>
        <time>2020-10-25T13:07:50.000Z</time>
      </trkpt>
      <trkpt lat="43.68222" lon="3.83354">
        <ele>86.85830070711</ele>
        <time>2020-10-25T13:07:51.000Z</time>
      </trkpt>
      <trkpt lat="43.68226" lon="3.83351">
        <ele>87.06000128</ele>
        <time>2020-10-25T13:07:52.000Z</time>
      </trkpt>
      <trkpt lat="43.68229" lon="3.83348">
        <ele>87.26000128</ele>
        <time>2020-10-25T13:07:53.000Z</time>
      </trkpt>
      <trkpt lat="43.68232" lon="3.83345">
        <ele>87.46000128</ele>
        <time>2020-10-25T13:07:54.000Z</time>
      </trkpt>
      <trkpt lat="43.68236" lon="3.83342">
        <ele>87.66000128</ele>
        <time>2020-10-25T13:07:55.000Z</time>
      </trkpt>
      <trkpt lat="43.68239" lon="3.83339">
        <ele>87.86000128</ele>
        <time>2020-10-25T13:07:56.000Z</time>
      </trkpt>
      <trkpt lat="43.68242" lon="3.83336">
        <ele>88.06000128</ele>
        <time>2020-10-25T13:07:57.000Z</time>
      </trkpt>
      <trkpt lat="43.68245" lon="3.83333">
        <ele>88.26000128</ele>
        <time>2020-10-25T13:07:58.000Z</time>
      </trkpt>
      <trkpt lat="43.68248" lon="3.83329">
        <ele>88.46000128</ele>
        <time>2020-10-25T13:07:59.000Z</time>
      </trkpt>
      <trkpt lat="43.68251" lon="3.83326">
        <ele>88.66000128</ele>
        <time>2020-10-25T13:08:00.000Z</time>
      </trkpt>
      <trkpt lat="43.68254" lon="3.83322">
        <ele>88.86000128</ele>
        <time>2020-10-25T13:08:01.000Z</time>
      </trkpt>
      <trkpt lat="43.68257" lon="3.83319">
        <ele>89.03000064</ele>
        <time>2020-10-25T13:08:02.000Z</time>
      </trkpt>
      <trkpt lat="43.68259" lon="3.83314">
        <ele>89.13000064</ele>
        <time>2020-10-25T13:08:03.000Z</time>
      </trkpt>
      <trkpt lat="43.68262" lon="3.8331">
        <ele>89.23000064</ele>
        <time>2020-10-25T13:08:04.000Z</time>
      </trkpt>
      <trkpt lat="43.68264" lon="3.83306">
        <ele>89.33000064</ele>
        <time>2020-10-25T13:08:05.000Z</time>
      </trkpt>
      <trkpt lat="43.68266" lon="3.83302">
        <ele>89.43000064</ele>
        <time>2020-10-25T13:08:06.000Z</time>
      </trkpt>
      <trkpt lat="43.68268" lon="3.83298">
        <ele>89.53000064</ele>
        <time>2020-10-25T13:08:07.000Z</time>
      </trkpt>
      <trkpt lat="43.6827" lon="3.83294">
        <ele>89.63000064</ele>
        <time>2020-10-25T13:08:08.000Z</time>
      </trkpt>
      <trkpt lat="43.68271" lon="3.8329">
        <ele>89.73000064</ele>
        <time>2020-10-25T13:08:09.000Z</time>
      </trkpt>
      <trkpt lat="43.68274" lon="3.83287">
        <ele>89.83000064</ele>
        <time>2020-10-25T13:08:10.000Z</time>
      </trkpt>
      <trkpt lat="43.68276" lon="3.83285">
        <ele>89.93000064</ele>
        <time>2020-10-25T13:08:11.000Z</time>
      </trkpt>
      <trkpt lat="43.68278" lon="3.83282">
        <ele>90</ele>
        <time>2020-10-25T13:08:12.000Z</time>
      </trkpt>
      <trkpt lat="43.68281" lon="3.83278">
        <ele>90</ele>
        <time>2020-10-25T13:08:13.000Z</time>
      </trkpt>
      <trkpt lat="43.68284" lon="3.83273">
        <ele>90</ele>
        <time>2020-10-25T13:08:14.000Z</time>
      </trkpt>
      <trkpt lat="43.68286" lon="3.83269">
        <ele>90</ele>
        <time>2020-10-25T13:08:15.000Z</time>
      </trkpt>
      <trkpt lat="43.68289" lon="3.83265">
        <ele>90</ele>
        <time>2020-10-25T13:08:16.000Z</time>
      </trkpt>
      <trkpt lat="43.68292" lon="3.8326">
        <ele>90</ele>
        <time>2020-10-25T13:08:17.000Z</time>
      </trkpt>
      <trkpt lat="43.68295" lon="3.83256">
        <ele>90</ele>
        <time>2020-10-25T13:08:18.000Z</time>
      </trkpt>
      <trkpt lat="43.68298" lon="3.83253">
        <ele>90</ele>
        <time>2020-10-25T13:08:19.000Z</time>
      </trkpt>
      <trkpt lat="43.68302" lon="3.83249">
        <ele>90</ele>
        <time>2020-10-25T13:08:20.000Z</time>
      </trkpt>
      <trkpt lat="43.68305" lon="3.83245">
        <ele>90</ele>
        <time>2020-10-25T13:08:21.000Z</time>
      </trkpt>
      <trkpt lat="43.68307" lon="3.83243">
        <ele>90.020648659398</ele>
        <time>2020-10-25T13:08:22.000Z</time>
      </trkpt>
      <trkpt lat="43.6831" lon="3.83243">
        <ele>90.118977107249</ele>
        <time>2020-10-25T13:08:23.000Z</time>
      </trkpt>
      <trkpt lat="43.68312" lon="3.83244">
        <ele>90.217305555101</ele>
        <time>2020-10-25T13:08:24.000Z</time>
      </trkpt>
      <trkpt lat="43.68314" lon="3.83246">
        <ele>90.315634002953</ele>
        <time>2020-10-25T13:08:25.000Z</time>
      </trkpt>
      <trkpt lat="43.68315" lon="3.83248">
        <ele>90.413962450804</ele>
        <time>2020-10-25T13:08:26.000Z</time>
      </trkpt>
      <trkpt lat="43.68316" lon="3.83253">
        <ele>90.610619346508</ele>
        <time>2020-10-25T13:08:28.000Z</time>
      </trkpt>
      <trkpt lat="43.68318" lon="3.83255">
        <ele>90.807276242211</ele>
        <time>2020-10-25T13:08:30.000Z</time>
      </trkpt>
      <trkpt lat="43.68322" lon="3.83253">
        <ele>90.995893221121</ele>
        <time>2020-10-25T13:08:32.000Z</time>
      </trkpt>
      <trkpt lat="43.68325" lon="3.83252">
        <ele>90.893223749141</ele>
        <time>2020-10-25T13:08:33.000Z</time>
      </trkpt>
      <trkpt lat="43.68328" lon="3.83252">
        <ele>90.790554277161</ele>
        <time>2020-10-25T13:08:34.000Z</time>
      </trkpt>
      <trkpt lat="43.68331" lon="3.83253">
        <ele>90.687884805181</ele>
        <time>2020-10-25T13:08:35.000Z</time>
      </trkpt>
      <trkpt lat="43.68334" lon="3.83254">
        <ele>90.585215333201</ele>
        <time>2020-10-25T13:08:36.000Z</time>
      </trkpt>
      <trkpt lat="43.68337" lon="3.83255">
        <ele>90.482545861221</ele>
        <time>2020-10-25T13:08:37.000Z</time>
      </trkpt>
      <trkpt lat="43.6834" lon="3.83255">
        <ele>90.379876389241</ele>
        <time>2020-10-25T13:08:38.000Z</time>
      </trkpt>
      <trkpt lat="43.68342" lon="3.83254">
        <ele>90.277206917261</ele>
        <time>2020-10-25T13:08:39.000Z</time>
      </trkpt>
      <trkpt lat="43.68345" lon="3.83254">
        <ele>90.174537445281</ele>
        <time>2020-10-25T13:08:40.000Z</time>
      </trkpt>
      <trkpt lat="43.68347" lon="3.83254">
        <ele>90.071867973301</ele>
        <time>2020-10-25T13:08:41.000Z</time>
      </trkpt>
      <trkpt lat="43.68349" lon="3.83253">
        <ele>89.93999872</ele>
        <time>2020-10-25T13:08:42.000Z</time>
      </trkpt>
      <trkpt lat="43.68351" lon="3.83251">
        <ele>89.73999872</ele>
        <time>2020-10-25T13:08:43.000Z</time>
      </trkpt>
      <trkpt lat="43.68351" lon="3.83249">
        <ele>89.53999872</ele>
        <time>2020-10-25T13:08:44.000Z</time>
      </trkpt>
      <trkpt lat="43.68352" lon="3.83245">
        <ele>89.33999872</ele>
        <time>2020-10-25T13:08:45.000Z</time>
      </trkpt>
      <trkpt lat="43.68354" lon="3.83242">
        <ele>89.13999872</ele>
        <time>2020-10-25T13:08:46.000Z</time>
      </trkpt>
      <trkpt lat="43.68355" lon="3.83238">
        <ele>88.93999872</ele>
        <time>2020-10-25T13:08:47.000Z</time>
      </trkpt>
      <trkpt lat="43.68356" lon="3.83235">
        <ele>88.73999872</ele>
        <time>2020-10-25T13:08:48.000Z</time>
      </trkpt>
      <trkpt lat="43.68357" lon="3.83231">
        <ele>88.53999872</ele>
        <time>2020-10-25T13:08:49.000Z</time>
      </trkpt>
      <trkpt lat="43.68357" lon="3.83227">
        <ele>88.33999872</ele>
        <time>2020-10-25T13:08:50.000Z</time>
      </trkpt>
      <trkpt lat="43.68358" lon="3.83224">
        <ele>88.13999872</ele>
        <time>2020-10-25T13:08:51.000Z</time>
      </trkpt>
      <trkpt lat="43.68358" lon="3.83221">
        <ele>88</ele>
        <time>2020-10-25T13:08:52.000Z</time>
      </trkpt>
      <trkpt lat="43.68358" lon="3.83218">
        <ele>88</ele>
        <time>2020-10-25T13:08:53.000Z</time>
      </trkpt>
      <trkpt lat="43.68359" lon="3.83214">
        <ele>88</ele>
        <time>2020-10-25T13:08:54.000Z</time>
      </trkpt>
      <trkpt lat="43.6836" lon="3.83211">
        <ele>88</ele>
        <time>2020-10-25T13:08:55.000Z</time>
      </trkpt>
      <trkpt lat="43.68361" lon="3.83208">
        <ele>88</ele>
        <time>2020-10-25T13:08:56.000Z</time>
      </trkpt>
      <trkpt lat="43.68361" lon="3.83205">
        <ele>88</ele>
        <time>2020-10-25T13:08:57.000Z</time>
      </trkpt>
      <trkpt lat="43.68362" lon="3.83201">
        <ele>88</ele>
        <time>2020-10-25T13:08:58.000Z</time>
      </trkpt>
      <trkpt lat="43.68362" lon="3.83197">
        <ele>88</ele>
        <time>2020-10-25T13:08:59.000Z</time>
      </trkpt>
      <trkpt lat="43.68361" lon="3.83193">
        <ele>88</ele>
        <time>2020-10-25T13:09:00.000Z</time>
      </trkpt>
      <trkpt lat="43.6836" lon="3.83189">
        <ele>88</ele>
        <time>2020-10-25T13:09:01.000Z</time>
      </trkpt>
      <trkpt lat="43.68359" lon="3.83184">
        <ele>88</ele>
        <time>2020-10-25T13:09:02.000Z</time>
      </trkpt>
      <trkpt lat="43.68359" lon="3.8318">
        <ele>88</ele>
        <time>2020-10-25T13:09:03.000Z</time>
      </trkpt>
      <trkpt lat="43.68359" lon="3.83175">
        <ele>88</ele>
        <time>2020-10-25T13:09:04.000Z</time>
      </trkpt>
      <trkpt lat="43.68361" lon="3.83172">
        <ele>88</ele>
        <time>2020-10-25T13:09:05.000Z</time>
      </trkpt>
      <trkpt lat="43.68362" lon="3.83169">
        <ele>88</ele>
        <time>2020-10-25T13:09:06.000Z</time>
      </trkpt>
      <trkpt lat="43.68363" lon="3.83166">
        <ele>88</ele>
        <time>2020-10-25T13:09:07.000Z</time>
      </trkpt>
      <trkpt lat="43.68364" lon="3.83162">
        <ele>88</ele>
        <time>2020-10-25T13:09:08.000Z</time>
      </trkpt>
      <trkpt lat="43.68365" lon="3.83157">
        <ele>88</ele>
        <time>2020-10-25T13:09:09.000Z</time>
      </trkpt>
      <trkpt lat="43.68366" lon="3.83153">
        <ele>88</ele>
        <time>2020-10-25T13:09:10.000Z</time>
      </trkpt>
      <trkpt lat="43.68368" lon="3.8315">
        <ele>88</ele>
        <time>2020-10-25T13:09:11.000Z</time>
      </trkpt>
      <trkpt lat="43.68369" lon="3.83146">
        <ele>88.029703585138</ele>
        <time>2020-10-25T13:09:12.000Z</time>
      </trkpt>
      <trkpt lat="43.6837" lon="3.83143">
        <ele>88.128713423389</ele>
        <time>2020-10-25T13:09:13.000Z</time>
      </trkpt>
      <trkpt lat="43.68372" lon="3.83139">
        <ele>88.227723261641</ele>
        <time>2020-10-25T13:09:14.000Z</time>
      </trkpt>
      <trkpt lat="43.68373" lon="3.83137">
        <ele>88.326733099892</ele>
        <time>2020-10-25T13:09:15.000Z</time>
      </trkpt>
      <trkpt lat="43.68374" lon="3.83135">
        <ele>88.425742938143</ele>
        <time>2020-10-25T13:09:16.000Z</time>
      </trkpt>
      <trkpt lat="43.68375" lon="3.83132">
        <ele>88.524752776394</ele>
        <time>2020-10-25T13:09:17.000Z</time>
      </trkpt>
      <trkpt lat="43.68376" lon="3.8313">
        <ele>88.623762614645</ele>
        <time>2020-10-25T13:09:18.000Z</time>
      </trkpt>
      <trkpt lat="43.68377" lon="3.83127">
        <ele>88.821782291148</ele>
        <time>2020-10-25T13:09:20.000Z</time>
      </trkpt>
      <trkpt lat="43.68376" lon="3.83122">
        <ele>89</ele>
        <time>2020-10-25T13:09:22.000Z</time>
      </trkpt>
      <trkpt lat="43.68375" lon="3.83119">
        <ele>89</ele>
        <time>2020-10-25T13:09:23.000Z</time>
      </trkpt>
      <trkpt lat="43.68375" lon="3.83116">
        <ele>89</ele>
        <time>2020-10-25T13:09:24.000Z</time>
      </trkpt>
      <trkpt lat="43.68376" lon="3.83112">
        <ele>89</ele>
        <time>2020-10-25T13:09:25.000Z</time>
      </trkpt>
      <trkpt lat="43.68377" lon="3.83108">
        <ele>89</ele>
        <time>2020-10-25T13:09:26.000Z</time>
      </trkpt>
      <trkpt lat="43.68379" lon="3.83104">
        <ele>89</ele>
        <time>2020-10-25T13:09:27.000Z</time>
      </trkpt>
      <trkpt lat="43.68381" lon="3.83101">
        <ele>89</ele>
        <time>2020-10-25T13:09:28.000Z</time>
      </trkpt>
      <trkpt lat="43.68383" lon="3.83098">
        <ele>89</ele>
        <time>2020-10-25T13:09:29.000Z</time>
      </trkpt>
      <trkpt lat="43.68384" lon="3.83095">
        <ele>89</ele>
        <time>2020-10-25T13:09:30.000Z</time>
      </trkpt>
      <trkpt lat="43.68386" lon="3.83092">
        <ele>89</ele>
        <time>2020-10-25T13:09:31.000Z</time>
      </trkpt>
      <trkpt lat="43.68388" lon="3.8309">
        <ele>89.054211052611</ele>
        <time>2020-10-25T13:09:32.000Z</time>
      </trkpt>
      <trkpt lat="43.6839" lon="3.83085">
        <ele>89.247821954795</ele>
        <time>2020-10-25T13:09:33.000Z</time>
      </trkpt>
      <trkpt lat="43.68392" lon="3.83081">
        <ele>89.441432856978</ele>
        <time>2020-10-25T13:09:34.000Z</time>
      </trkpt>
      <trkpt lat="43.68394" lon="3.83078">
        <ele>89.635043759162</ele>
        <time>2020-10-25T13:09:35.000Z</time>
      </trkpt>
      <trkpt lat="43.68396" lon="3.83075">
        <ele>89.828654661345</ele>
        <time>2020-10-25T13:09:36.000Z</time>
      </trkpt>
      <trkpt lat="43.68398" lon="3.83072">
        <ele>90.022265563529</ele>
        <time>2020-10-25T13:09:37.000Z</time>
      </trkpt>
      <trkpt lat="43.684" lon="3.83068">
        <ele>90.215876465712</ele>
        <time>2020-10-25T13:09:38.000Z</time>
      </trkpt>
      <trkpt lat="43.68401" lon="3.83066">
        <ele>90.409487367895</ele>
        <time>2020-10-25T13:09:39.000Z</time>
      </trkpt>
      <trkpt lat="43.68403" lon="3.83063">
        <ele>90.603098270079</ele>
        <time>2020-10-25T13:09:40.000Z</time>
      </trkpt>
      <trkpt lat="43.68404" lon="3.83061">
        <ele>90.796709172262</ele>
        <time>2020-10-25T13:09:41.000Z</time>
      </trkpt>
      <trkpt lat="43.68405" lon="3.83058">
        <ele>90.990320074446</ele>
        <time>2020-10-25T13:09:42.000Z</time>
      </trkpt>
      <trkpt lat="43.68406" lon="3.83055">
        <ele>91.098445960106</ele>
        <time>2020-10-25T13:09:43.000Z</time>
      </trkpt>
      <trkpt lat="43.68408" lon="3.83052">
        <ele>91.202072937475</ele>
        <time>2020-10-25T13:09:44.000Z</time>
      </trkpt>
      <trkpt lat="43.6841" lon="3.8305">
        <ele>91.305699914844</ele>
        <time>2020-10-25T13:09:45.000Z</time>
      </trkpt>
      <trkpt lat="43.68412" lon="3.83047">
        <ele>91.409326892212</ele>
        <time>2020-10-25T13:09:46.000Z</time>
      </trkpt>
      <trkpt lat="43.68413" lon="3.83045">
        <ele>91.512953869581</ele>
        <time>2020-10-25T13:09:47.000Z</time>
      </trkpt>
      <trkpt lat="43.68412" lon="3.83041">
        <ele>91.616580846949</ele>
        <time>2020-10-25T13:09:48.000Z</time>
      </trkpt>
      <trkpt lat="43.6841" lon="3.83037">
        <ele>91.720207824318</ele>
        <time>2020-10-25T13:09:49.000Z</time>
      </trkpt>
      <trkpt lat="43.6841" lon="3.83033">
        <ele>91.823834801686</ele>
        <time>2020-10-25T13:09:50.000Z</time>
      </trkpt>
      <trkpt lat="43.6841" lon="3.83028">
        <ele>91.927461779055</ele>
        <time>2020-10-25T13:09:51.000Z</time>
      </trkpt>
      <trkpt lat="43.68409" lon="3.83024">
        <ele>92</ele>
        <time>2020-10-25T13:09:52.000Z</time>
      </trkpt>
      <trkpt lat="43.68408" lon="3.83019">
        <ele>92</ele>
        <time>2020-10-25T13:09:53.000Z</time>
      </trkpt>
      <trkpt lat="43.68407" lon="3.83015">
        <ele>92</ele>
        <time>2020-10-25T13:09:54.000Z</time>
      </trkpt>
      <trkpt lat="43.68406" lon="3.83011">
        <ele>92</ele>
        <time>2020-10-25T13:09:55.000Z</time>
      </trkpt>
      <trkpt lat="43.68405" lon="3.83006">
        <ele>92</ele>
        <time>2020-10-25T13:09:56.000Z</time>
      </trkpt>
      <trkpt lat="43.68406" lon="3.83003">
        <ele>92</ele>
        <time>2020-10-25T13:09:57.000Z</time>
      </trkpt>
      <trkpt lat="43.68408" lon="3.83">
        <ele>92</ele>
        <time>2020-10-25T13:09:58.000Z</time>
      </trkpt>
      <trkpt lat="43.68411" lon="3.82997">
        <ele>92</ele>
        <time>2020-10-25T13:09:59.000Z</time>
      </trkpt>
      <trkpt lat="43.68413" lon="3.82993">
        <ele>92</ele>
        <time>2020-10-25T13:10:00.000Z</time>
      </trkpt>
      <trkpt lat="43.68415" lon="3.8299">
        <ele>92</ele>
        <time>2020-10-25T13:10:01.000Z</time>
      </trkpt>
      <trkpt lat="43.68416" lon="3.82987">
        <ele>92</ele>
        <time>2020-10-25T13:10:02.000Z</time>
      </trkpt>
      <trkpt lat="43.68419" lon="3.82984">
        <ele>92</ele>
        <time>2020-10-25T13:10:04.000Z</time>
      </trkpt>
      <trkpt lat="43.6842" lon="3.82983">
        <ele>92</ele>
        <time>2020-10-25T13:10:05.000Z</time>
      </trkpt>
      <trkpt lat="43.68422" lon="3.8298">
        <ele>92</ele>
        <time>2020-10-25T13:10:06.000Z</time>
      </trkpt>
      <trkpt lat="43.68424" lon="3.82977">
        <ele>92</ele>
        <time>2020-10-25T13:10:07.000Z</time>
      </trkpt>
      <trkpt lat="43.68426" lon="3.82973">
        <ele>92</ele>
        <time>2020-10-25T13:10:08.000Z</time>
      </trkpt>
      <trkpt lat="43.68428" lon="3.8297">
        <ele>92</ele>
        <time>2020-10-25T13:10:09.000Z</time>
      </trkpt>
      <trkpt lat="43.6843" lon="3.82969">
        <ele>92</ele>
        <time>2020-10-25T13:10:10.000Z</time>
      </trkpt>
      <trkpt lat="43.68432" lon="3.82967">
        <ele>92</ele>
        <time>2020-10-25T13:10:11.000Z</time>
      </trkpt>
      <trkpt lat="43.68432" lon="3.82964">
        <ele>92</ele>
        <time>2020-10-25T13:10:13.000Z</time>
      </trkpt>
      <trkpt lat="43.68433" lon="3.82959">
        <ele>92</ele>
        <time>2020-10-25T13:10:15.000Z</time>
      </trkpt>
      <trkpt lat="43.68435" lon="3.82957">
        <ele>92</ele>
        <time>2020-10-25T13:10:16.000Z</time>
      </trkpt>
      <trkpt lat="43.68437" lon="3.82954">
        <ele>92</ele>
        <time>2020-10-25T13:10:17.000Z</time>
      </trkpt>
      <trkpt lat="43.68439" lon="3.82951">
        <ele>92</ele>
        <time>2020-10-25T13:10:18.000Z</time>
      </trkpt>
      <trkpt lat="43.68442" lon="3.82947">
        <ele>92</ele>
        <time>2020-10-25T13:10:19.000Z</time>
      </trkpt>
      <trkpt lat="43.68446" lon="3.82942">
        <ele>92</ele>
        <time>2020-10-25T13:10:20.000Z</time>
      </trkpt>
      <trkpt lat="43.68449" lon="3.82939">
        <ele>92</ele>
        <time>2020-10-25T13:10:21.000Z</time>
      </trkpt>
      <trkpt lat="43.68452" lon="3.82936">
        <ele>92</ele>
        <time>2020-10-25T13:10:22.000Z</time>
      </trkpt>
      <trkpt lat="43.68456" lon="3.82934">
        <ele>92</ele>
        <time>2020-10-25T13:10:23.000Z</time>
      </trkpt>
      <trkpt lat="43.68459" lon="3.82933">
        <ele>92</ele>
        <time>2020-10-25T13:10:24.000Z</time>
      </trkpt>
      <trkpt lat="43.68462" lon="3.82933">
        <ele>92</ele>
        <time>2020-10-25T13:10:25.000Z</time>
      </trkpt>
      <trkpt lat="43.68465" lon="3.82931">
        <ele>92</ele>
        <time>2020-10-25T13:10:26.000Z</time>
      </trkpt>
      <trkpt lat="43.68468" lon="3.82929">
        <ele>92</ele>
        <time>2020-10-25T13:10:27.000Z</time>
      </trkpt>
      <trkpt lat="43.6847" lon="3.82928">
        <ele>92</ele>
        <time>2020-10-25T13:10:28.000Z</time>
      </trkpt>
      <trkpt lat="43.68473" lon="3.82928">
        <ele>92</ele>
        <time>2020-10-25T13:10:29.000Z</time>
      </trkpt>
      <trkpt lat="43.68475" lon="3.8293">
        <ele>92</ele>
        <time>2020-10-25T13:10:30.000Z</time>
      </trkpt>
      <trkpt lat="43.68477" lon="3.8293">
        <ele>92</ele>
        <time>2020-10-25T13:10:31.000Z</time>
      </trkpt>
      <trkpt lat="43.68479" lon="3.8293">
        <ele>92.001029537578</ele>
        <time>2020-10-25T13:10:32.000Z</time>
      </trkpt>
      <trkpt lat="43.68482" lon="3.82928">
        <ele>92.104016251139</ele>
        <time>2020-10-25T13:10:33.000Z</time>
      </trkpt>
      <trkpt lat="43.68485" lon="3.82925">
        <ele>92.207002964699</ele>
        <time>2020-10-25T13:10:34.000Z</time>
      </trkpt>
      <trkpt lat="43.68487" lon="3.82924">
        <ele>92.30998967826</ele>
        <time>2020-10-25T13:10:35.000Z</time>
      </trkpt>
      <trkpt lat="43.68489" lon="3.82923">
        <ele>92.41297639182</ele>
        <time>2020-10-25T13:10:36.000Z</time>
      </trkpt>
      <trkpt lat="43.68492" lon="3.82922">
        <ele>92.515963105381</ele>
        <time>2020-10-25T13:10:37.000Z</time>
      </trkpt>
      <trkpt lat="43.68495" lon="3.8292">
        <ele>92.618949818941</ele>
        <time>2020-10-25T13:10:38.000Z</time>
      </trkpt>
      <trkpt lat="43.68497" lon="3.82918">
        <ele>92.721936532502</ele>
        <time>2020-10-25T13:10:39.000Z</time>
      </trkpt>
      <trkpt lat="43.685" lon="3.82916">
        <ele>92.824923246062</ele>
        <time>2020-10-25T13:10:40.000Z</time>
      </trkpt>
      <trkpt lat="43.68504" lon="3.82914">
        <ele>92.927909959623</ele>
        <time>2020-10-25T13:10:41.000Z</time>
      </trkpt>
      <trkpt lat="43.68507" lon="3.82913">
        <ele>93</ele>
        <time>2020-10-25T13:10:42.000Z</time>
      </trkpt>
      <trkpt lat="43.68511" lon="3.82911">
        <ele>93</ele>
        <time>2020-10-25T13:10:43.000Z</time>
      </trkpt>
      <trkpt lat="43.68514" lon="3.82911">
        <ele>93</ele>
        <time>2020-10-25T13:10:44.000Z</time>
      </trkpt>
      <trkpt lat="43.68517" lon="3.8291">
        <ele>93</ele>
        <time>2020-10-25T13:10:45.000Z</time>
      </trkpt>
      <trkpt lat="43.68519" lon="3.82909">
        <ele>93</ele>
        <time>2020-10-25T13:10:46.000Z</time>
      </trkpt>
      <trkpt lat="43.68522" lon="3.82907">
        <ele>93</ele>
        <time>2020-10-25T13:10:47.000Z</time>
      </trkpt>
      <trkpt lat="43.68525" lon="3.82905">
        <ele>93</ele>
        <time>2020-10-25T13:10:48.000Z</time>
      </trkpt>
      <trkpt lat="43.68528" lon="3.82904">
        <ele>93</ele>
        <time>2020-10-25T13:10:49.000Z</time>
      </trkpt>
      <trkpt lat="43.68531" lon="3.82902">
        <ele>93</ele>
        <time>2020-10-25T13:10:50.000Z</time>
      </trkpt>
      <trkpt lat="43.68534" lon="3.829">
        <ele>93</ele>
        <time>2020-10-25T13:10:51.000Z</time>
      </trkpt>
      <trkpt lat="43.68536" lon="3.82899">
        <ele>92.979797966738</ele>
        <time>2020-10-25T13:10:52.000Z</time>
      </trkpt>
      <trkpt lat="43.68539" lon="3.82896">
        <ele>92.878787800428</ele>
        <time>2020-10-25T13:10:53.000Z</time>
      </trkpt>
      <trkpt lat="43.68542" lon="3.82893">
        <ele>92.777777634119</ele>
        <time>2020-10-25T13:10:54.000Z</time>
      </trkpt>
      <trkpt lat="43.68545" lon="3.8289">
        <ele>92.676767467809</ele>
        <time>2020-10-25T13:10:55.000Z</time>
      </trkpt>
      <trkpt lat="43.68549" lon="3.82887">
        <ele>92.5757573015</ele>
        <time>2020-10-25T13:10:56.000Z</time>
      </trkpt>
      <trkpt lat="43.68552" lon="3.82884">
        <ele>92.47474713519</ele>
        <time>2020-10-25T13:10:57.000Z</time>
      </trkpt>
      <trkpt lat="43.68556" lon="3.82882">
        <ele>92.37373696888</ele>
        <time>2020-10-25T13:10:58.000Z</time>
      </trkpt>
      <trkpt lat="43.68558" lon="3.8288">
        <ele>92.272726802571</ele>
        <time>2020-10-25T13:10:59.000Z</time>
      </trkpt>
      <trkpt lat="43.68561" lon="3.82877">
        <ele>92.171716636261</ele>
        <time>2020-10-25T13:11:00.000Z</time>
      </trkpt>
      <trkpt lat="43.68563" lon="3.82873">
        <ele>92.070706469952</ele>
        <time>2020-10-25T13:11:01.000Z</time>
      </trkpt>
      <trkpt lat="43.68564" lon="3.82869">
        <ele>92.03000064</ele>
        <time>2020-10-25T13:11:02.000Z</time>
      </trkpt>
      <trkpt lat="43.68566" lon="3.82866">
        <ele>92.13000064</ele>
        <time>2020-10-25T13:11:03.000Z</time>
      </trkpt>
      <trkpt lat="43.68569" lon="3.82862">
        <ele>92.23000064</ele>
        <time>2020-10-25T13:11:04.000Z</time>
      </trkpt>
      <trkpt lat="43.68571" lon="3.82858">
        <ele>92.33000064</ele>
        <time>2020-10-25T13:11:05.000Z</time>
      </trkpt>
      <trkpt lat="43.68573" lon="3.82855">
        <ele>92.43000064</ele>
        <time>2020-10-25T13:11:06.000Z</time>
      </trkpt>
      <trkpt lat="43.68575" lon="3.82854">
        <ele>92.53000064</ele>
        <time>2020-10-25T13:11:07.000Z</time>
      </trkpt>
      <trkpt lat="43.68578" lon="3.82854">
        <ele>92.63000064</ele>
        <time>2020-10-25T13:11:08.000Z</time>
      </trkpt>
      <trkpt lat="43.6858" lon="3.82854">
        <ele>92.73000064</ele>
        <time>2020-10-25T13:11:09.000Z</time>
      </trkpt>
      <trkpt lat="43.68581" lon="3.82853">
        <ele>92.83000064</ele>
        <time>2020-10-25T13:11:10.000Z</time>
      </trkpt>
      <trkpt lat="43.68582" lon="3.82849">
        <ele>92.96999936</ele>
        <time>2020-10-25T13:11:12.000Z</time>
      </trkpt>
      <trkpt lat="43.68583" lon="3.82846">
        <ele>92.76999936</ele>
        <time>2020-10-25T13:11:14.000Z</time>
      </trkpt>
      <trkpt lat="43.6858" lon="3.82841">
        <ele>92.46999936</ele>
        <time>2020-10-25T13:11:17.000Z</time>
      </trkpt>
      <trkpt lat="43.68579" lon="3.82838">
        <ele>92.36999936</ele>
        <time>2020-10-25T13:11:18.000Z</time>
      </trkpt>
      <trkpt lat="43.68578" lon="3.82834">
        <ele>92.26999936</ele>
        <time>2020-10-25T13:11:19.000Z</time>
      </trkpt>
      <trkpt lat="43.68578" lon="3.8283">
        <ele>92.16999936</ele>
        <time>2020-10-25T13:11:20.000Z</time>
      </trkpt>
      <trkpt lat="43.68579" lon="3.82827">
        <ele>92.06999936</ele>
        <time>2020-10-25T13:11:21.000Z</time>
      </trkpt>
      <trkpt lat="43.6858" lon="3.82825">
        <ele>92</ele>
        <time>2020-10-25T13:11:22.000Z</time>
      </trkpt>
      <trkpt lat="43.68581" lon="3.82822">
        <ele>92</ele>
        <time>2020-10-25T13:11:23.000Z</time>
      </trkpt>
      <trkpt lat="43.68582" lon="3.82819">
        <ele>92</ele>
        <time>2020-10-25T13:11:24.000Z</time>
      </trkpt>
      <trkpt lat="43.68583" lon="3.82816">
        <ele>92</ele>
        <time>2020-10-25T13:11:25.000Z</time>
      </trkpt>
      <trkpt lat="43.68582" lon="3.82814">
        <ele>92</ele>
        <time>2020-10-25T13:11:31.000Z</time>
      </trkpt>
      <trkpt lat="43.68583" lon="3.82809">
        <ele>92</ele>
        <time>2020-10-25T13:11:34.000Z</time>
      </trkpt>
      <trkpt lat="43.68584" lon="3.82806">
        <ele>92</ele>
        <time>2020-10-25T13:11:36.000Z</time>
      </trkpt>
      <trkpt lat="43.68584" lon="3.82802">
        <ele>92</ele>
        <time>2020-10-25T13:11:38.000Z</time>
      </trkpt>
      <trkpt lat="43.68584" lon="3.82801">
        <ele>92</ele>
        <time>2020-10-25T13:11:43.000Z</time>
      </trkpt>
      <trkpt lat="43.68585" lon="3.82787">
        <ele>97.993973690453</ele>
        <time>2020-10-25T13:15:12.000Z</time>
      </trkpt>
      <trkpt lat="43.68585" lon="3.82784">
        <ele>98</ele>
        <time>2020-10-25T13:15:13.000Z</time>
      </trkpt>
      <trkpt lat="43.68586" lon="3.82781">
        <ele>98</ele>
        <time>2020-10-25T13:15:14.000Z</time>
      </trkpt>
      <trkpt lat="43.68587" lon="3.82778">
        <ele>98</ele>
        <time>2020-10-25T13:15:15.000Z</time>
      </trkpt>
      <trkpt lat="43.68587" lon="3.82775">
        <ele>98</ele>
        <time>2020-10-25T13:15:16.000Z</time>
      </trkpt>
      <trkpt lat="43.68588" lon="3.82773">
        <ele>98</ele>
        <time>2020-10-25T13:15:17.000Z</time>
      </trkpt>
      <trkpt lat="43.68589" lon="3.82769">
        <ele>98</ele>
        <time>2020-10-25T13:15:19.000Z</time>
      </trkpt>
      <trkpt lat="43.68589" lon="3.82766">
        <ele>98</ele>
        <time>2020-10-25T13:15:20.000Z</time>
      </trkpt>
      <trkpt lat="43.68589" lon="3.82763">
        <ele>98</ele>
        <time>2020-10-25T13:15:21.000Z</time>
      </trkpt>
      <trkpt lat="43.68589" lon="3.82761">
        <ele>97.971125475688</ele>
        <time>2020-10-25T13:15:22.000Z</time>
      </trkpt>
      <trkpt lat="43.68589" lon="3.82758">
        <ele>97.87487911457</ele>
        <time>2020-10-25T13:15:23.000Z</time>
      </trkpt>
      <trkpt lat="43.68588" lon="3.82755">
        <ele>97.778632753453</ele>
        <time>2020-10-25T13:15:24.000Z</time>
      </trkpt>
      <trkpt lat="43.68587" lon="3.82753">
        <ele>97.682386392335</ele>
        <time>2020-10-25T13:15:25.000Z</time>
      </trkpt>
      <trkpt lat="43.68585" lon="3.82751">
        <ele>97.586140031218</ele>
        <time>2020-10-25T13:15:26.000Z</time>
      </trkpt>
      <trkpt lat="43.68584" lon="3.82749">
        <ele>97.4898936701</ele>
        <time>2020-10-25T13:15:27.000Z</time>
      </trkpt>
      <trkpt lat="43.68581" lon="3.82747">
        <ele>97.297400947865</ele>
        <time>2020-10-25T13:15:29.000Z</time>
      </trkpt>
      <trkpt lat="43.6858" lon="3.82745">
        <ele>97.201154586747</ele>
        <time>2020-10-25T13:15:30.000Z</time>
      </trkpt>
      <trkpt lat="43.68578" lon="3.82743">
        <ele>97.10490822563</ele>
        <time>2020-10-25T13:15:31.000Z</time>
      </trkpt>
      <trkpt lat="43.68577" lon="3.82741">
        <ele>97.008661864512</ele>
        <time>2020-10-25T13:15:32.000Z</time>
      </trkpt>
      <trkpt lat="43.68576" lon="3.82739">
        <ele>97</ele>
        <time>2020-10-25T13:15:33.000Z</time>
      </trkpt>
      <trkpt lat="43.68575" lon="3.82736">
        <ele>97</ele>
        <time>2020-10-25T13:15:34.000Z</time>
      </trkpt>
      <trkpt lat="43.68574" lon="3.82734">
        <ele>97</ele>
        <time>2020-10-25T13:15:35.000Z</time>
      </trkpt>
      <trkpt lat="43.68572" lon="3.8273">
        <ele>97</ele>
        <time>2020-10-25T13:15:37.000Z</time>
      </trkpt>
      <trkpt lat="43.68572" lon="3.82726">
        <ele>97</ele>
        <time>2020-10-25T13:15:39.000Z</time>
      </trkpt>
      <trkpt lat="43.68571" lon="3.82721">
        <ele>97</ele>
        <time>2020-10-25T13:15:41.000Z</time>
      </trkpt>
      <trkpt lat="43.68571" lon="3.82718">
        <ele>96.982776396621</ele>
        <time>2020-10-25T13:15:42.000Z</time>
      </trkpt>
      <trkpt lat="43.68571" lon="3.82714">
        <ele>96.780141954343</ele>
        <time>2020-10-25T13:15:44.000Z</time>
      </trkpt>
      <trkpt lat="43.68571" lon="3.8271">
        <ele>96.476190290925</ele>
        <time>2020-10-25T13:15:47.000Z</time>
      </trkpt>
      <trkpt lat="43.68572" lon="3.82708">
        <ele>96.273555848646</ele>
        <time>2020-10-25T13:15:49.000Z</time>
      </trkpt>
      <trkpt lat="43.68575" lon="3.82706">
        <ele>96.070921406367</ele>
        <time>2020-10-25T13:15:51.000Z</time>
      </trkpt>
      <trkpt lat="43.68578" lon="3.82707">
        <ele>96</ele>
        <time>2020-10-25T13:15:53.000Z</time>
      </trkpt>
      <trkpt lat="43.68581" lon="3.82707">
        <ele>96</ele>
        <time>2020-10-25T13:15:54.000Z</time>
      </trkpt>
      <trkpt lat="43.68583" lon="3.82706">
        <ele>96</ele>
        <time>2020-10-25T13:15:55.000Z</time>
      </trkpt>
      <trkpt lat="43.68586" lon="3.82705">
        <ele>96</ele>
        <time>2020-10-25T13:15:56.000Z</time>
      </trkpt>
      <trkpt lat="43.68588" lon="3.82704">
        <ele>96</ele>
        <time>2020-10-25T13:15:57.000Z</time>
      </trkpt>
      <trkpt lat="43.6859" lon="3.82702">
        <ele>96</ele>
        <time>2020-10-25T13:15:58.000Z</time>
      </trkpt>
      <trkpt lat="43.68593" lon="3.827">
        <ele>96</ele>
        <time>2020-10-25T13:15:59.000Z</time>
      </trkpt>
      <trkpt lat="43.68594" lon="3.82698">
        <ele>96</ele>
        <time>2020-10-25T13:16:00.000Z</time>
      </trkpt>
      <trkpt lat="43.68596" lon="3.82696">
        <ele>96</ele>
        <time>2020-10-25T13:16:01.000Z</time>
      </trkpt>
      <trkpt lat="43.68598" lon="3.82694">
        <ele>96</ele>
        <time>2020-10-25T13:16:02.000Z</time>
      </trkpt>
      <trkpt lat="43.68599" lon="3.82691">
        <ele>96</ele>
        <time>2020-10-25T13:16:03.000Z</time>
      </trkpt>
      <trkpt lat="43.68601" lon="3.82688">
        <ele>96</ele>
        <time>2020-10-25T13:16:04.000Z</time>
      </trkpt>
      <trkpt lat="43.68603" lon="3.82686">
        <ele>96</ele>
        <time>2020-10-25T13:16:05.000Z</time>
      </trkpt>
      <trkpt lat="43.68605" lon="3.82683">
        <ele>96</ele>
        <time>2020-10-25T13:16:06.000Z</time>
      </trkpt>
      <trkpt lat="43.68607" lon="3.82681">
        <ele>96</ele>
        <time>2020-10-25T13:16:07.000Z</time>
      </trkpt>
      <trkpt lat="43.68608" lon="3.82679">
        <ele>96</ele>
        <time>2020-10-25T13:16:08.000Z</time>
      </trkpt>
      <trkpt lat="43.6861" lon="3.82676">
        <ele>96</ele>
        <time>2020-10-25T13:16:09.000Z</time>
      </trkpt>
      <trkpt lat="43.68612" lon="3.82674">
        <ele>96</ele>
        <time>2020-10-25T13:16:10.000Z</time>
      </trkpt>
      <trkpt lat="43.68614" lon="3.82671">
        <ele>96</ele>
        <time>2020-10-25T13:16:11.000Z</time>
      </trkpt>
      <trkpt lat="43.68616" lon="3.82669">
        <ele>96.03000064</ele>
        <time>2020-10-25T13:16:12.000Z</time>
      </trkpt>
      <trkpt lat="43.68618" lon="3.82667">
        <ele>96.13000064</ele>
        <time>2020-10-25T13:16:13.000Z</time>
      </trkpt>
      <trkpt lat="43.6862" lon="3.82666">
        <ele>96.23000064</ele>
        <time>2020-10-25T13:16:14.000Z</time>
      </trkpt>
      <trkpt lat="43.68621" lon="3.82664">
        <ele>96.33000064</ele>
        <time>2020-10-25T13:16:15.000Z</time>
      </trkpt>
      <trkpt lat="43.68623" lon="3.82663">
        <ele>96.43000064</ele>
        <time>2020-10-25T13:16:16.000Z</time>
      </trkpt>
      <trkpt lat="43.68624" lon="3.82661">
        <ele>96.53000064</ele>
        <time>2020-10-25T13:16:17.000Z</time>
      </trkpt>
      <trkpt lat="43.68626" lon="3.82659">
        <ele>96.63000064</ele>
        <time>2020-10-25T13:16:18.000Z</time>
      </trkpt>
      <trkpt lat="43.68628" lon="3.82658">
        <ele>96.73000064</ele>
        <time>2020-10-25T13:16:19.000Z</time>
      </trkpt>
      <trkpt lat="43.6863" lon="3.82656">
        <ele>96.83000064</ele>
        <time>2020-10-25T13:16:20.000Z</time>
      </trkpt>
      <trkpt lat="43.68631" lon="3.82654">
        <ele>96.93000064</ele>
        <time>2020-10-25T13:16:21.000Z</time>
      </trkpt>
      <trkpt lat="43.68633" lon="3.82653">
        <ele>97</ele>
        <time>2020-10-25T13:16:22.000Z</time>
      </trkpt>
      <trkpt lat="43.68635" lon="3.82651">
        <ele>97</ele>
        <time>2020-10-25T13:16:23.000Z</time>
      </trkpt>
      <trkpt lat="43.68637" lon="3.82649">
        <ele>97</ele>
        <time>2020-10-25T13:16:24.000Z</time>
      </trkpt>
      <trkpt lat="43.68639" lon="3.82647">
        <ele>97</ele>
        <time>2020-10-25T13:16:25.000Z</time>
      </trkpt>
      <trkpt lat="43.6864" lon="3.82645">
        <ele>97</ele>
        <time>2020-10-25T13:16:26.000Z</time>
      </trkpt>
      <trkpt lat="43.68642" lon="3.82643">
        <ele>97</ele>
        <time>2020-10-25T13:16:27.000Z</time>
      </trkpt>
      <trkpt lat="43.68645" lon="3.82641">
        <ele>97</ele>
        <time>2020-10-25T13:16:28.000Z</time>
      </trkpt>
      <trkpt lat="43.68647" lon="3.8264">
        <ele>97</ele>
        <time>2020-10-25T13:16:29.000Z</time>
      </trkpt>
      <trkpt lat="43.68648" lon="3.82638">
        <ele>97</ele>
        <time>2020-10-25T13:16:30.000Z</time>
      </trkpt>
      <trkpt lat="43.6865" lon="3.82636">
        <ele>97</ele>
        <time>2020-10-25T13:16:31.000Z</time>
      </trkpt>
      <trkpt lat="43.68651" lon="3.82634">
        <ele>97</ele>
        <time>2020-10-25T13:16:32.000Z</time>
      </trkpt>
      <trkpt lat="43.68653" lon="3.82631">
        <ele>97</ele>
        <time>2020-10-25T13:16:33.000Z</time>
      </trkpt>
      <trkpt lat="43.68654" lon="3.82629">
        <ele>97</ele>
        <time>2020-10-25T13:16:34.000Z</time>
      </trkpt>
      <trkpt lat="43.68656" lon="3.82626">
        <ele>97</ele>
        <time>2020-10-25T13:16:35.000Z</time>
      </trkpt>
      <trkpt lat="43.68657" lon="3.82623">
        <ele>97</ele>
        <time>2020-10-25T13:16:36.000Z</time>
      </trkpt>
      <trkpt lat="43.68659" lon="3.8262">
        <ele>97</ele>
        <time>2020-10-25T13:16:37.000Z</time>
      </trkpt>
      <trkpt lat="43.68661" lon="3.82617">
        <ele>97</ele>
        <time>2020-10-25T13:16:38.000Z</time>
      </trkpt>
      <trkpt lat="43.68663" lon="3.82615">
        <ele>97</ele>
        <time>2020-10-25T13:16:39.000Z</time>
      </trkpt>
      <trkpt lat="43.68665" lon="3.82612">
        <ele>97</ele>
        <time>2020-10-25T13:16:40.000Z</time>
      </trkpt>
      <trkpt lat="43.68667" lon="3.82609">
        <ele>97</ele>
        <time>2020-10-25T13:16:41.000Z</time>
      </trkpt>
      <trkpt lat="43.68669" lon="3.82607">
        <ele>97</ele>
        <time>2020-10-25T13:16:42.000Z</time>
      </trkpt>
      <trkpt lat="43.68671" lon="3.82604">
        <ele>97</ele>
        <time>2020-10-25T13:16:43.000Z</time>
      </trkpt>
      <trkpt lat="43.68673" lon="3.82601">
        <ele>97</ele>
        <time>2020-10-25T13:16:44.000Z</time>
      </trkpt>
      <trkpt lat="43.68675" lon="3.82598">
        <ele>97</ele>
        <time>2020-10-25T13:16:45.000Z</time>
      </trkpt>
      <trkpt lat="43.68678" lon="3.82596">
        <ele>97</ele>
        <time>2020-10-25T13:16:46.000Z</time>
      </trkpt>
      <trkpt lat="43.68681" lon="3.82593">
        <ele>97</ele>
        <time>2020-10-25T13:16:47.000Z</time>
      </trkpt>
      <trkpt lat="43.68683" lon="3.8259">
        <ele>97</ele>
        <time>2020-10-25T13:16:48.000Z</time>
      </trkpt>
      <trkpt lat="43.68686" lon="3.82588">
        <ele>97</ele>
        <time>2020-10-25T13:16:49.000Z</time>
      </trkpt>
      <trkpt lat="43.68689" lon="3.82586">
        <ele>97</ele>
        <time>2020-10-25T13:16:50.000Z</time>
      </trkpt>
      <trkpt lat="43.68691" lon="3.82584">
        <ele>97</ele>
        <time>2020-10-25T13:16:51.000Z</time>
      </trkpt>
      <trkpt lat="43.68694" lon="3.82581">
        <ele>97.02848693343</ele>
        <time>2020-10-25T13:16:52.000Z</time>
      </trkpt>
      <trkpt lat="43.68697" lon="3.82578">
        <ele>97.126718822299</ele>
        <time>2020-10-25T13:16:53.000Z</time>
      </trkpt>
      <trkpt lat="43.687" lon="3.82574">
        <ele>97.224950711167</ele>
        <time>2020-10-25T13:16:54.000Z</time>
      </trkpt>
      <trkpt lat="43.68702" lon="3.82571">
        <ele>97.323182600036</ele>
        <time>2020-10-25T13:16:55.000Z</time>
      </trkpt>
      <trkpt lat="43.68705" lon="3.82568">
        <ele>97.421414488905</ele>
        <time>2020-10-25T13:16:56.000Z</time>
      </trkpt>
      <trkpt lat="43.68707" lon="3.82564">
        <ele>97.519646377774</ele>
        <time>2020-10-25T13:16:57.000Z</time>
      </trkpt>
      <trkpt lat="43.6871" lon="3.82561">
        <ele>97.617878266643</ele>
        <time>2020-10-25T13:16:58.000Z</time>
      </trkpt>
      <trkpt lat="43.68712" lon="3.82558">
        <ele>97.716110155511</ele>
        <time>2020-10-25T13:16:59.000Z</time>
      </trkpt>
      <trkpt lat="43.68715" lon="3.82555">
        <ele>97.81434204438</ele>
        <time>2020-10-25T13:17:00.000Z</time>
      </trkpt>
      <trkpt lat="43.68717" lon="3.82552">
        <ele>97.912573933249</ele>
        <time>2020-10-25T13:17:01.000Z</time>
      </trkpt>
      <trkpt lat="43.68719" lon="3.82549">
        <ele>98</ele>
        <time>2020-10-25T13:17:02.000Z</time>
      </trkpt>
      <trkpt lat="43.68722" lon="3.82546">
        <ele>98</ele>
        <time>2020-10-25T13:17:03.000Z</time>
      </trkpt>
      <trkpt lat="43.68724" lon="3.82543">
        <ele>98</ele>
        <time>2020-10-25T13:17:04.000Z</time>
      </trkpt>
      <trkpt lat="43.68727" lon="3.8254">
        <ele>98</ele>
        <time>2020-10-25T13:17:05.000Z</time>
      </trkpt>
      <trkpt lat="43.6873" lon="3.82537">
        <ele>98</ele>
        <time>2020-10-25T13:17:06.000Z</time>
      </trkpt>
      <trkpt lat="43.68732" lon="3.82535">
        <ele>98</ele>
        <time>2020-10-25T13:17:07.000Z</time>
      </trkpt>
      <trkpt lat="43.68735" lon="3.82533">
        <ele>98</ele>
        <time>2020-10-25T13:17:08.000Z</time>
      </trkpt>
      <trkpt lat="43.68737" lon="3.82531">
        <ele>98</ele>
        <time>2020-10-25T13:17:09.000Z</time>
      </trkpt>
      <trkpt lat="43.6874" lon="3.82528">
        <ele>98</ele>
        <time>2020-10-25T13:17:10.000Z</time>
      </trkpt>
      <trkpt lat="43.68742" lon="3.82527">
        <ele>98</ele>
        <time>2020-10-25T13:17:11.000Z</time>
      </trkpt>
      <trkpt lat="43.68744" lon="3.82524">
        <ele>98</ele>
        <time>2020-10-25T13:17:12.000Z</time>
      </trkpt>
      <trkpt lat="43.68747" lon="3.82522">
        <ele>98</ele>
        <time>2020-10-25T13:17:13.000Z</time>
      </trkpt>
      <trkpt lat="43.68749" lon="3.82519">
        <ele>98</ele>
        <time>2020-10-25T13:17:14.000Z</time>
      </trkpt>
      <trkpt lat="43.68751" lon="3.82516">
        <ele>98</ele>
        <time>2020-10-25T13:17:15.000Z</time>
      </trkpt>
      <trkpt lat="43.68754" lon="3.82514">
        <ele>98</ele>
        <time>2020-10-25T13:17:16.000Z</time>
      </trkpt>
      <trkpt lat="43.68756" lon="3.82511">
        <ele>98</ele>
        <time>2020-10-25T13:17:17.000Z</time>
      </trkpt>
      <trkpt lat="43.68758" lon="3.82509">
        <ele>98</ele>
        <time>2020-10-25T13:17:18.000Z</time>
      </trkpt>
      <trkpt lat="43.68759" lon="3.82507">
        <ele>98</ele>
        <time>2020-10-25T13:17:19.000Z</time>
      </trkpt>
      <trkpt lat="43.68761" lon="3.82504">
        <ele>98</ele>
        <time>2020-10-25T13:17:20.000Z</time>
      </trkpt>
      <trkpt lat="43.68763" lon="3.82501">
        <ele>98</ele>
        <time>2020-10-25T13:17:21.000Z</time>
      </trkpt>
      <trkpt lat="43.68764" lon="3.82498">
        <ele>98</ele>
        <time>2020-10-25T13:17:22.000Z</time>
      </trkpt>
      <trkpt lat="43.68766" lon="3.82495">
        <ele>98</ele>
        <time>2020-10-25T13:17:23.000Z</time>
      </trkpt>
      <trkpt lat="43.68766" lon="3.82493">
        <ele>98</ele>
        <time>2020-10-25T13:17:24.000Z</time>
      </trkpt>
      <trkpt lat="43.68768" lon="3.82489">
        <ele>98</ele>
        <time>2020-10-25T13:17:26.000Z</time>
      </trkpt>
      <trkpt lat="43.68769" lon="3.82486">
        <ele>98</ele>
        <time>2020-10-25T13:17:27.000Z</time>
      </trkpt>
      <trkpt lat="43.68769" lon="3.82483">
        <ele>98</ele>
        <time>2020-10-25T13:17:28.000Z</time>
      </trkpt>
      <trkpt lat="43.6877" lon="3.82479">
        <ele>98</ele>
        <time>2020-10-25T13:17:29.000Z</time>
      </trkpt>
      <trkpt lat="43.68771" lon="3.82474">
        <ele>98</ele>
        <time>2020-10-25T13:17:30.000Z</time>
      </trkpt>
      <trkpt lat="43.68772" lon="3.8247">
        <ele>98</ele>
        <time>2020-10-25T13:17:31.000Z</time>
      </trkpt>
      <trkpt lat="43.68775" lon="3.82466">
        <ele>98</ele>
        <time>2020-10-25T13:17:32.000Z</time>
      </trkpt>
      <trkpt lat="43.68779" lon="3.82463">
        <ele>98</ele>
        <time>2020-10-25T13:17:33.000Z</time>
      </trkpt>
      <trkpt lat="43.68783" lon="3.82462">
        <ele>98</ele>
        <time>2020-10-25T13:17:34.000Z</time>
      </trkpt>
      <trkpt lat="43.68787" lon="3.82461">
        <ele>98</ele>
        <time>2020-10-25T13:17:35.000Z</time>
      </trkpt>
      <trkpt lat="43.68791" lon="3.82461">
        <ele>98</ele>
        <time>2020-10-25T13:17:36.000Z</time>
      </trkpt>
      <trkpt lat="43.68794" lon="3.82462">
        <ele>98</ele>
        <time>2020-10-25T13:17:37.000Z</time>
      </trkpt>
      <trkpt lat="43.68797" lon="3.82463">
        <ele>98</ele>
        <time>2020-10-25T13:17:38.000Z</time>
      </trkpt>
      <trkpt lat="43.68799" lon="3.82464">
        <ele>98</ele>
        <time>2020-10-25T13:17:39.000Z</time>
      </trkpt>
      <trkpt lat="43.68801" lon="3.82464">
        <ele>98</ele>
        <time>2020-10-25T13:17:40.000Z</time>
      </trkpt>
      <trkpt lat="43.68803" lon="3.82463">
        <ele>98</ele>
        <time>2020-10-25T13:17:41.000Z</time>
      </trkpt>
      <trkpt lat="43.68805" lon="3.82462">
        <ele>98</ele>
        <time>2020-10-25T13:17:42.000Z</time>
      </trkpt>
      <trkpt lat="43.68807" lon="3.8246">
        <ele>98</ele>
        <time>2020-10-25T13:17:44.000Z</time>
      </trkpt>
      <trkpt lat="43.68809" lon="3.82458">
        <ele>98</ele>
        <time>2020-10-25T13:17:46.000Z</time>
      </trkpt>
      <trkpt lat="43.68813" lon="3.82455">
        <ele>98</ele>
        <time>2020-10-25T13:17:48.000Z</time>
      </trkpt>
      <trkpt lat="43.68816" lon="3.82454">
        <ele>98</ele>
        <time>2020-10-25T13:17:49.000Z</time>
      </trkpt>
      <trkpt lat="43.68821" lon="3.82453">
        <ele>98</ele>
        <time>2020-10-25T13:17:50.000Z</time>
      </trkpt>
      <trkpt lat="43.68826" lon="3.82451">
        <ele>98</ele>
        <time>2020-10-25T13:17:51.000Z</time>
      </trkpt>
      <trkpt lat="43.68831" lon="3.82449">
        <ele>98</ele>
        <time>2020-10-25T13:17:52.000Z</time>
      </trkpt>
      <trkpt lat="43.68835" lon="3.82447">
        <ele>98</ele>
        <time>2020-10-25T13:17:53.000Z</time>
      </trkpt>
      <trkpt lat="43.68839" lon="3.82446">
        <ele>98</ele>
        <time>2020-10-25T13:17:54.000Z</time>
      </trkpt>
      <trkpt lat="43.68842" lon="3.82444">
        <ele>98</ele>
        <time>2020-10-25T13:17:55.000Z</time>
      </trkpt>
      <trkpt lat="43.68845" lon="3.82442">
        <ele>98</ele>
        <time>2020-10-25T13:17:56.000Z</time>
      </trkpt>
      <trkpt lat="43.68848" lon="3.82441">
        <ele>98</ele>
        <time>2020-10-25T13:17:57.000Z</time>
      </trkpt>
      <trkpt lat="43.68852" lon="3.8244">
        <ele>98</ele>
        <time>2020-10-25T13:17:58.000Z</time>
      </trkpt>
      <trkpt lat="43.68855" lon="3.82439">
        <ele>98</ele>
        <time>2020-10-25T13:17:59.000Z</time>
      </trkpt>
      <trkpt lat="43.68859" lon="3.82439">
        <ele>98</ele>
        <time>2020-10-25T13:18:00.000Z</time>
      </trkpt>
      <trkpt lat="43.68862" lon="3.82439">
        <ele>98</ele>
        <time>2020-10-25T13:18:01.000Z</time>
      </trkpt>
      <trkpt lat="43.68866" lon="3.8244">
        <ele>98</ele>
        <time>2020-10-25T13:18:02.000Z</time>
      </trkpt>
      <trkpt lat="43.68869" lon="3.82441">
        <ele>98</ele>
        <time>2020-10-25T13:18:03.000Z</time>
      </trkpt>
      <trkpt lat="43.68872" lon="3.82441">
        <ele>98</ele>
        <time>2020-10-25T13:18:04.000Z</time>
      </trkpt>
      <trkpt lat="43.68875" lon="3.82441">
        <ele>98</ele>
        <time>2020-10-25T13:18:05.000Z</time>
      </trkpt>
      <trkpt lat="43.68878" lon="3.82441">
        <ele>98</ele>
        <time>2020-10-25T13:18:06.000Z</time>
      </trkpt>
      <trkpt lat="43.68881" lon="3.82441">
        <ele>98</ele>
        <time>2020-10-25T13:18:07.000Z</time>
      </trkpt>
      <trkpt lat="43.68884" lon="3.82441">
        <ele>98</ele>
        <time>2020-10-25T13:18:08.000Z</time>
      </trkpt>
      <trkpt lat="43.68886" lon="3.82441">
        <ele>98</ele>
        <time>2020-10-25T13:18:09.000Z</time>
      </trkpt>
      <trkpt lat="43.68889" lon="3.82441">
        <ele>98</ele>
        <time>2020-10-25T13:18:10.000Z</time>
      </trkpt>
      <trkpt lat="43.68891" lon="3.82441">
        <ele>98</ele>
        <time>2020-10-25T13:18:11.000Z</time>
      </trkpt>
      <trkpt lat="43.68894" lon="3.82442">
        <ele>98</ele>
        <time>2020-10-25T13:18:13.000Z</time>
      </trkpt>
      <trkpt lat="43.68896" lon="3.82441">
        <ele>98</ele>
        <time>2020-10-25T13:18:15.000Z</time>
      </trkpt>
      <trkpt lat="43.68898" lon="3.82441">
        <ele>98</ele>
        <time>2020-10-25T13:18:16.000Z</time>
      </trkpt>
      <trkpt lat="43.68901" lon="3.82441">
        <ele>98</ele>
        <time>2020-10-25T13:18:17.000Z</time>
      </trkpt>
      <trkpt lat="43.68904" lon="3.82441">
        <ele>98</ele>
        <time>2020-10-25T13:18:18.000Z</time>
      </trkpt>
      <trkpt lat="43.68907" lon="3.82441">
        <ele>98</ele>
        <time>2020-10-25T13:18:19.000Z</time>
      </trkpt>
      <trkpt lat="43.6891" lon="3.82441">
        <ele>98</ele>
        <time>2020-10-25T13:18:20.000Z</time>
      </trkpt>
      <trkpt lat="43.68912" lon="3.82441">
        <ele>98</ele>
        <time>2020-10-25T13:18:21.000Z</time>
      </trkpt>
      <trkpt lat="43.68914" lon="3.82441">
        <ele>98</ele>
        <time>2020-10-25T13:18:22.000Z</time>
      </trkpt>
      <trkpt lat="43.68916" lon="3.82441">
        <ele>98</ele>
        <time>2020-10-25T13:18:23.000Z</time>
      </trkpt>
      <trkpt lat="43.68918" lon="3.82441">
        <ele>98</ele>
        <time>2020-10-25T13:18:24.000Z</time>
      </trkpt>
      <trkpt lat="43.68921" lon="3.82441">
        <ele>98</ele>
        <time>2020-10-25T13:18:25.000Z</time>
      </trkpt>
      <trkpt lat="43.68923" lon="3.82441">
        <ele>98</ele>
        <time>2020-10-25T13:18:26.000Z</time>
      </trkpt>
      <trkpt lat="43.68926" lon="3.82441">
        <ele>98</ele>
        <time>2020-10-25T13:18:27.000Z</time>
      </trkpt>
      <trkpt lat="43.68928" lon="3.82442">
        <ele>98</ele>
        <time>2020-10-25T13:18:28.000Z</time>
      </trkpt>
      <trkpt lat="43.6893" lon="3.82442">
        <ele>98</ele>
        <time>2020-10-25T13:18:29.000Z</time>
      </trkpt>
      <trkpt lat="43.68932" lon="3.82443">
        <ele>98</ele>
        <time>2020-10-25T13:18:30.000Z</time>
      </trkpt>
      <trkpt lat="43.68934" lon="3.82444">
        <ele>98</ele>
        <time>2020-10-25T13:18:31.000Z</time>
      </trkpt>
      <trkpt lat="43.68936" lon="3.82445">
        <ele>98.029126816853</ele>
        <time>2020-10-25T13:18:32.000Z</time>
      </trkpt>
      <trkpt lat="43.68938" lon="3.82446">
        <ele>98.126214135168</ele>
        <time>2020-10-25T13:18:33.000Z</time>
      </trkpt>
      <trkpt lat="43.6894" lon="3.82449">
        <ele>98.320388771797</ele>
        <time>2020-10-25T13:18:35.000Z</time>
      </trkpt>
      <trkpt lat="43.68943" lon="3.8245">
        <ele>98.514563408427</ele>
        <time>2020-10-25T13:18:37.000Z</time>
      </trkpt>
      <trkpt lat="43.68946" lon="3.82452">
        <ele>98.708738045056</ele>
        <time>2020-10-25T13:18:39.000Z</time>
      </trkpt>
      <trkpt lat="43.68948" lon="3.82454">
        <ele>98.805825363371</ele>
        <time>2020-10-25T13:18:40.000Z</time>
      </trkpt>
      <trkpt lat="43.6895" lon="3.82455">
        <ele>98.902912681685</ele>
        <time>2020-10-25T13:18:41.000Z</time>
      </trkpt>
      <trkpt lat="43.68952" lon="3.82456">
        <ele>99</ele>
        <time>2020-10-25T13:18:42.000Z</time>
      </trkpt>
      <trkpt lat="43.68953" lon="3.82458">
        <ele>99.20618570305</ele>
        <time>2020-10-25T13:18:43.000Z</time>
      </trkpt>
      <trkpt lat="43.68955" lon="3.82461">
        <ele>99.618557109151</ele>
        <time>2020-10-25T13:18:45.000Z</time>
      </trkpt>
      <trkpt lat="43.68958" lon="3.82461">
        <ele>100.03092851525</ele>
        <time>2020-10-25T13:18:47.000Z</time>
      </trkpt>
      <trkpt lat="43.68961" lon="3.82462">
        <ele>100.44329992135</ele>
        <time>2020-10-25T13:18:49.000Z</time>
      </trkpt>
      <trkpt lat="43.68963" lon="3.82464">
        <ele>100.85567132745</ele>
        <time>2020-10-25T13:18:51.000Z</time>
      </trkpt>
      <trkpt lat="43.68966" lon="3.82465">
        <ele>101.39000192</ele>
        <time>2020-10-25T13:18:53.000Z</time>
      </trkpt>
      <trkpt lat="43.68969" lon="3.82467">
        <ele>101.99000192</ele>
        <time>2020-10-25T13:18:55.000Z</time>
      </trkpt>
      <trkpt lat="43.68972" lon="3.82468">
        <ele>102.59000192</ele>
        <time>2020-10-25T13:18:57.000Z</time>
      </trkpt>
      <trkpt lat="43.68974" lon="3.82469">
        <ele>103.19000192</ele>
        <time>2020-10-25T13:18:59.000Z</time>
      </trkpt>
      <trkpt lat="43.68977" lon="3.8247">
        <ele>103.79000192</ele>
        <time>2020-10-25T13:19:01.000Z</time>
      </trkpt>
      <trkpt lat="43.68979" lon="3.82472">
        <ele>104.26000128</ele>
        <time>2020-10-25T13:19:03.000Z</time>
      </trkpt>
      <trkpt lat="43.68981" lon="3.82473">
        <ele>104.66000128</ele>
        <time>2020-10-25T13:19:05.000Z</time>
      </trkpt>
      <trkpt lat="43.68984" lon="3.82474">
        <ele>105.06000128</ele>
        <time>2020-10-25T13:19:07.000Z</time>
      </trkpt>
      <trkpt lat="43.68986" lon="3.82476">
        <ele>105.46000128</ele>
        <time>2020-10-25T13:19:09.000Z</time>
      </trkpt>
      <trkpt lat="43.68989" lon="3.82477">
        <ele>105.86000128</ele>
        <time>2020-10-25T13:19:11.000Z</time>
      </trkpt>
      <trkpt lat="43.68992" lon="3.82478">
        <ele>106.26000128</ele>
        <time>2020-10-25T13:19:13.000Z</time>
      </trkpt>
      <trkpt lat="43.68994" lon="3.8248">
        <ele>106.66000128</ele>
        <time>2020-10-25T13:19:15.000Z</time>
      </trkpt>
      <trkpt lat="43.68997" lon="3.82482">
        <ele>107.06000128</ele>
        <time>2020-10-25T13:19:17.000Z</time>
      </trkpt>
      <trkpt lat="43.68999" lon="3.82484">
        <ele>107.46000128</ele>
        <time>2020-10-25T13:19:19.000Z</time>
      </trkpt>
      <trkpt lat="43.69002" lon="3.82486">
        <ele>107.86000128</ele>
        <time>2020-10-25T13:19:21.000Z</time>
      </trkpt>
      <trkpt lat="43.69004" lon="3.82489">
        <ele>108.26000128</ele>
        <time>2020-10-25T13:19:23.000Z</time>
      </trkpt>
      <trkpt lat="43.69007" lon="3.82491">
        <ele>108.66000128</ele>
        <time>2020-10-25T13:19:25.000Z</time>
      </trkpt>
      <trkpt lat="43.6901" lon="3.82493">
        <ele>109.06000128</ele>
        <time>2020-10-25T13:19:27.000Z</time>
      </trkpt>
      <trkpt lat="43.69011" lon="3.82495">
        <ele>109.26000128</ele>
        <time>2020-10-25T13:19:28.000Z</time>
      </trkpt>
      <trkpt lat="43.69015" lon="3.82496">
        <ele>109.66000128</ele>
        <time>2020-10-25T13:19:30.000Z</time>
      </trkpt>
      <trkpt lat="43.69018" lon="3.82497">
        <ele>110.03000064</ele>
        <time>2020-10-25T13:19:32.000Z</time>
      </trkpt>
      <trkpt lat="43.6902" lon="3.82498">
        <ele>110.13000064</ele>
        <time>2020-10-25T13:19:33.000Z</time>
      </trkpt>
      <trkpt lat="43.69022" lon="3.82499">
        <ele>110.23000064</ele>
        <time>2020-10-25T13:19:34.000Z</time>
      </trkpt>
      <trkpt lat="43.69024" lon="3.825">
        <ele>110.33000064</ele>
        <time>2020-10-25T13:19:35.000Z</time>
      </trkpt>
      <trkpt lat="43.69026" lon="3.82501">
        <ele>110.43000064</ele>
        <time>2020-10-25T13:19:36.000Z</time>
      </trkpt>
      <trkpt lat="43.69029" lon="3.82503">
        <ele>110.53000064</ele>
        <time>2020-10-25T13:19:37.000Z</time>
      </trkpt>
      <trkpt lat="43.69031" lon="3.82504">
        <ele>110.63000064</ele>
        <time>2020-10-25T13:19:38.000Z</time>
      </trkpt>
      <trkpt lat="43.69034" lon="3.82505">
        <ele>110.73000064</ele>
        <time>2020-10-25T13:19:39.000Z</time>
      </trkpt>
      <trkpt lat="43.69036" lon="3.82507">
        <ele>110.83000064</ele>
        <time>2020-10-25T13:19:40.000Z</time>
      </trkpt>
      <trkpt lat="43.69039" lon="3.82509">
        <ele>110.93000064</ele>
        <time>2020-10-25T13:19:41.000Z</time>
      </trkpt>
      <trkpt lat="43.69041" lon="3.8251">
        <ele>111</ele>
        <time>2020-10-25T13:19:42.000Z</time>
      </trkpt>
      <trkpt lat="43.69044" lon="3.82512">
        <ele>111</ele>
        <time>2020-10-25T13:19:43.000Z</time>
      </trkpt>
      <trkpt lat="43.69047" lon="3.82514">
        <ele>111</ele>
        <time>2020-10-25T13:19:44.000Z</time>
      </trkpt>
      <trkpt lat="43.69051" lon="3.82515">
        <ele>111</ele>
        <time>2020-10-25T13:19:45.000Z</time>
      </trkpt>
      <trkpt lat="43.69055" lon="3.82516">
        <ele>111</ele>
        <time>2020-10-25T13:19:46.000Z</time>
      </trkpt>
      <trkpt lat="43.69058" lon="3.82518">
        <ele>111</ele>
        <time>2020-10-25T13:19:47.000Z</time>
      </trkpt>
      <trkpt lat="43.69061" lon="3.82519">
        <ele>111</ele>
        <time>2020-10-25T13:19:48.000Z</time>
      </trkpt>
      <trkpt lat="43.69063" lon="3.82521">
        <ele>111</ele>
        <time>2020-10-25T13:19:49.000Z</time>
      </trkpt>
      <trkpt lat="43.69067" lon="3.82524">
        <ele>111</ele>
        <time>2020-10-25T13:19:50.000Z</time>
      </trkpt>
      <trkpt lat="43.69071" lon="3.82528">
        <ele>111</ele>
        <time>2020-10-25T13:19:51.000Z</time>
      </trkpt>
      <trkpt lat="43.69075" lon="3.82531">
        <ele>110.97084488629</ele>
        <time>2020-10-25T13:19:52.000Z</time>
      </trkpt>
      <trkpt lat="43.69079" lon="3.82533">
        <ele>110.87366324712</ele>
        <time>2020-10-25T13:19:53.000Z</time>
      </trkpt>
      <trkpt lat="43.69082" lon="3.82536">
        <ele>110.77648160795</ele>
        <time>2020-10-25T13:19:54.000Z</time>
      </trkpt>
      <trkpt lat="43.69084" lon="3.82538">
        <ele>110.67929996878</ele>
        <time>2020-10-25T13:19:55.000Z</time>
      </trkpt>
      <trkpt lat="43.69086" lon="3.8254">
        <ele>110.58211832961</ele>
        <time>2020-10-25T13:19:56.000Z</time>
      </trkpt>
      <trkpt lat="43.6909" lon="3.82542">
        <ele>110.48493669044</ele>
        <time>2020-10-25T13:19:57.000Z</time>
      </trkpt>
      <trkpt lat="43.69095" lon="3.82545">
        <ele>110.38775505127</ele>
        <time>2020-10-25T13:19:58.000Z</time>
      </trkpt>
      <trkpt lat="43.691" lon="3.82547">
        <ele>110.2905734121</ele>
        <time>2020-10-25T13:19:59.000Z</time>
      </trkpt>
      <trkpt lat="43.69105" lon="3.8255">
        <ele>110.19339177293</ele>
        <time>2020-10-25T13:20:00.000Z</time>
      </trkpt>
      <trkpt lat="43.6911" lon="3.82552">
        <ele>110.09621013376</ele>
        <time>2020-10-25T13:20:01.000Z</time>
      </trkpt>
      <trkpt lat="43.69115" lon="3.82554">
        <ele>110.00102953758</ele>
        <time>2020-10-25T13:20:02.000Z</time>
      </trkpt>
      <trkpt lat="43.6912" lon="3.82555">
        <ele>110.10401625114</ele>
        <time>2020-10-25T13:20:03.000Z</time>
      </trkpt>
      <trkpt lat="43.69124" lon="3.82557">
        <ele>110.2070029647</ele>
        <time>2020-10-25T13:20:04.000Z</time>
      </trkpt>
      <trkpt lat="43.69126" lon="3.82559">
        <ele>110.30998967826</ele>
        <time>2020-10-25T13:20:05.000Z</time>
      </trkpt>
      <trkpt lat="43.69128" lon="3.82561">
        <ele>110.41297639182</ele>
        <time>2020-10-25T13:20:06.000Z</time>
      </trkpt>
      <trkpt lat="43.6913" lon="3.82563">
        <ele>110.51596310538</ele>
        <time>2020-10-25T13:20:07.000Z</time>
      </trkpt>
      <trkpt lat="43.69132" lon="3.82565">
        <ele>110.61894981894</ele>
        <time>2020-10-25T13:20:08.000Z</time>
      </trkpt>
      <trkpt lat="43.69134" lon="3.82567">
        <ele>110.7219365325</ele>
        <time>2020-10-25T13:20:09.000Z</time>
      </trkpt>
      <trkpt lat="43.69135" lon="3.82569">
        <ele>110.82492324606</ele>
        <time>2020-10-25T13:20:10.000Z</time>
      </trkpt>
      <trkpt lat="43.69138" lon="3.8257">
        <ele>110.92790995962</ele>
        <time>2020-10-25T13:20:11.000Z</time>
      </trkpt>
      <trkpt lat="43.69139" lon="3.82572">
        <ele>111</ele>
        <time>2020-10-25T13:20:12.000Z</time>
      </trkpt>
      <trkpt lat="43.69141" lon="3.82573">
        <ele>111</ele>
        <time>2020-10-25T13:20:13.000Z</time>
      </trkpt>
      <trkpt lat="43.69144" lon="3.82575">
        <ele>111</ele>
        <time>2020-10-25T13:20:14.000Z</time>
      </trkpt>
      <trkpt lat="43.69146" lon="3.82576">
        <ele>111</ele>
        <time>2020-10-25T13:20:15.000Z</time>
      </trkpt>
      <trkpt lat="43.69148" lon="3.82577">
        <ele>111</ele>
        <time>2020-10-25T13:20:16.000Z</time>
      </trkpt>
      <trkpt lat="43.69151" lon="3.82579">
        <ele>111</ele>
        <time>2020-10-25T13:20:17.000Z</time>
      </trkpt>
      <trkpt lat="43.69153" lon="3.82579">
        <ele>111</ele>
        <time>2020-10-25T13:20:18.000Z</time>
      </trkpt>
      <trkpt lat="43.69156" lon="3.8258">
        <ele>111</ele>
        <time>2020-10-25T13:20:19.000Z</time>
      </trkpt>
      <trkpt lat="43.69158" lon="3.82581">
        <ele>111</ele>
        <time>2020-10-25T13:20:20.000Z</time>
      </trkpt>
      <trkpt lat="43.69161" lon="3.82582">
        <ele>111</ele>
        <time>2020-10-25T13:20:21.000Z</time>
      </trkpt>
      <trkpt lat="43.69163" lon="3.82582">
        <ele>111</ele>
        <time>2020-10-25T13:20:22.000Z</time>
      </trkpt>
      <trkpt lat="43.69165" lon="3.82583">
        <ele>111</ele>
        <time>2020-10-25T13:20:23.000Z</time>
      </trkpt>
      <trkpt lat="43.69167" lon="3.82583">
        <ele>111</ele>
        <time>2020-10-25T13:20:24.000Z</time>
      </trkpt>
      <trkpt lat="43.69169" lon="3.82583">
        <ele>111</ele>
        <time>2020-10-25T13:20:25.000Z</time>
      </trkpt>
      <trkpt lat="43.69172" lon="3.82585">
        <ele>111</ele>
        <time>2020-10-25T13:20:27.000Z</time>
      </trkpt>
      <trkpt lat="43.69174" lon="3.82588">
        <ele>111</ele>
        <time>2020-10-25T13:20:29.000Z</time>
      </trkpt>
      <trkpt lat="43.69177" lon="3.82589">
        <ele>111</ele>
        <time>2020-10-25T13:20:31.000Z</time>
      </trkpt>
      <trkpt lat="43.6918" lon="3.8259">
        <ele>110.8877556085</ele>
        <time>2020-10-25T13:20:33.000Z</time>
      </trkpt>
      <trkpt lat="43.69184" lon="3.82592">
        <ele>110.68367370929</ele>
        <time>2020-10-25T13:20:35.000Z</time>
      </trkpt>
      <trkpt lat="43.69187" lon="3.82594">
        <ele>110.58163275968</ele>
        <time>2020-10-25T13:20:36.000Z</time>
      </trkpt>
      <trkpt lat="43.69192" lon="3.82596">
        <ele>110.47959181008</ele>
        <time>2020-10-25T13:20:37.000Z</time>
      </trkpt>
      <trkpt lat="43.69196" lon="3.82599">
        <ele>110.37755086047</ele>
        <time>2020-10-25T13:20:38.000Z</time>
      </trkpt>
      <trkpt lat="43.692" lon="3.82601">
        <ele>110.27550991087</ele>
        <time>2020-10-25T13:20:39.000Z</time>
      </trkpt>
      <trkpt lat="43.69204" lon="3.82603">
        <ele>110.17346896127</ele>
        <time>2020-10-25T13:20:40.000Z</time>
      </trkpt>
      <trkpt lat="43.69208" lon="3.82605">
        <ele>110.07142801166</ele>
        <time>2020-10-25T13:20:41.000Z</time>
      </trkpt>
      <trkpt lat="43.69212" lon="3.82608">
        <ele>109.93999872</ele>
        <time>2020-10-25T13:20:42.000Z</time>
      </trkpt>
      <trkpt lat="43.69216" lon="3.8261">
        <ele>109.73999872</ele>
        <time>2020-10-25T13:20:43.000Z</time>
      </trkpt>
      <trkpt lat="43.6922" lon="3.82613">
        <ele>109.53999872</ele>
        <time>2020-10-25T13:20:44.000Z</time>
      </trkpt>
      <trkpt lat="43.69225" lon="3.82617">
        <ele>109.33999872</ele>
        <time>2020-10-25T13:20:45.000Z</time>
      </trkpt>
      <trkpt lat="43.6923" lon="3.82621">
        <ele>109.13999872</ele>
        <time>2020-10-25T13:20:46.000Z</time>
      </trkpt>
      <trkpt lat="43.69234" lon="3.82623">
        <ele>108.93999872</ele>
        <time>2020-10-25T13:20:47.000Z</time>
      </trkpt>
      <trkpt lat="43.69237" lon="3.82626">
        <ele>108.73999872</ele>
        <time>2020-10-25T13:20:48.000Z</time>
      </trkpt>
      <trkpt lat="43.69241" lon="3.82628">
        <ele>108.53999872</ele>
        <time>2020-10-25T13:20:49.000Z</time>
      </trkpt>
      <trkpt lat="43.69243" lon="3.82629">
        <ele>108.33999872</ele>
        <time>2020-10-25T13:20:50.000Z</time>
      </trkpt>
      <trkpt lat="43.69248" lon="3.8263">
        <ele>108.13999872</ele>
        <time>2020-10-25T13:20:51.000Z</time>
      </trkpt>
      <trkpt lat="43.69254" lon="3.82631">
        <ele>107.96999936</ele>
        <time>2020-10-25T13:20:52.000Z</time>
      </trkpt>
      <trkpt lat="43.69261" lon="3.82631">
        <ele>107.86999936</ele>
        <time>2020-10-25T13:20:53.000Z</time>
      </trkpt>
      <trkpt lat="43.69267" lon="3.82632">
        <ele>107.76999936</ele>
        <time>2020-10-25T13:20:54.000Z</time>
      </trkpt>
      <trkpt lat="43.69274" lon="3.82632">
        <ele>107.66999936</ele>
        <time>2020-10-25T13:20:55.000Z</time>
      </trkpt>
      <trkpt lat="43.6928" lon="3.82632">
        <ele>107.56999936</ele>
        <time>2020-10-25T13:20:56.000Z</time>
      </trkpt>
      <trkpt lat="43.69286" lon="3.82634">
        <ele>107.46999936</ele>
        <time>2020-10-25T13:20:57.000Z</time>
      </trkpt>
      <trkpt lat="43.6929" lon="3.82637">
        <ele>107.36999936</ele>
        <time>2020-10-25T13:20:58.000Z</time>
      </trkpt>
      <trkpt lat="43.69293" lon="3.82643">
        <ele>107.26999936</ele>
        <time>2020-10-25T13:20:59.000Z</time>
      </trkpt>
      <trkpt lat="43.69294" lon="3.82649">
        <ele>107.16999936</ele>
        <time>2020-10-25T13:21:00.000Z</time>
      </trkpt>
      <trkpt lat="43.69294" lon="3.82653">
        <ele>107.06999936</ele>
        <time>2020-10-25T13:21:01.000Z</time>
      </trkpt>
      <trkpt lat="43.69296" lon="3.82656">
        <ele>106.86999936</ele>
        <time>2020-10-25T13:21:03.000Z</time>
      </trkpt>
      <trkpt lat="43.69299" lon="3.82657">
        <ele>106.76999936</ele>
        <time>2020-10-25T13:21:04.000Z</time>
      </trkpt>
      <trkpt lat="43.69302" lon="3.82659">
        <ele>106.66999936</ele>
        <time>2020-10-25T13:21:05.000Z</time>
      </trkpt>
      <trkpt lat="43.69304" lon="3.82661">
        <ele>106.56999936</ele>
        <time>2020-10-25T13:21:06.000Z</time>
      </trkpt>
      <trkpt lat="43.69307" lon="3.82662">
        <ele>106.46999936</ele>
        <time>2020-10-25T13:21:07.000Z</time>
      </trkpt>
      <trkpt lat="43.69309" lon="3.82663">
        <ele>106.36999936</ele>
        <time>2020-10-25T13:21:08.000Z</time>
      </trkpt>
      <trkpt lat="43.69312" lon="3.82663">
        <ele>106.26999936</ele>
        <time>2020-10-25T13:21:09.000Z</time>
      </trkpt>
      <trkpt lat="43.69316" lon="3.82663">
        <ele>106.16999936</ele>
        <time>2020-10-25T13:21:10.000Z</time>
      </trkpt>
      <trkpt lat="43.69319" lon="3.82663">
        <ele>106.06999936</ele>
        <time>2020-10-25T13:21:11.000Z</time>
      </trkpt>
      <trkpt lat="43.69323" lon="3.82662">
        <ele>105.93999872</ele>
        <time>2020-10-25T13:21:12.000Z</time>
      </trkpt>
      <trkpt lat="43.69327" lon="3.82661">
        <ele>105.73999872</ele>
        <time>2020-10-25T13:21:13.000Z</time>
      </trkpt>
      <trkpt lat="43.69331" lon="3.82661">
        <ele>105.53999872</ele>
        <time>2020-10-25T13:21:14.000Z</time>
      </trkpt>
      <trkpt lat="43.69334" lon="3.82661">
        <ele>105.33999872</ele>
        <time>2020-10-25T13:21:15.000Z</time>
      </trkpt>
      <trkpt lat="43.69338" lon="3.82662">
        <ele>105.13999872</ele>
        <time>2020-10-25T13:21:16.000Z</time>
      </trkpt>
      <trkpt lat="43.69343" lon="3.82663">
        <ele>104.93999872</ele>
        <time>2020-10-25T13:21:17.000Z</time>
      </trkpt>
      <trkpt lat="43.69347" lon="3.82665">
        <ele>104.73999872</ele>
        <time>2020-10-25T13:21:18.000Z</time>
      </trkpt>
      <trkpt lat="43.69351" lon="3.82666">
        <ele>104.53999872</ele>
        <time>2020-10-25T13:21:19.000Z</time>
      </trkpt>
      <trkpt lat="43.69356" lon="3.82668">
        <ele>104.33999872</ele>
        <time>2020-10-25T13:21:20.000Z</time>
      </trkpt>
      <trkpt lat="43.6936" lon="3.82669">
        <ele>104.13999872</ele>
        <time>2020-10-25T13:21:21.000Z</time>
      </trkpt>
      <trkpt lat="43.69365" lon="3.8267">
        <ele>103.97032578585</ele>
        <time>2020-10-25T13:21:22.000Z</time>
      </trkpt>
      <trkpt lat="43.69369" lon="3.82672">
        <ele>103.87141384881</ele>
        <time>2020-10-25T13:21:23.000Z</time>
      </trkpt>
      <trkpt lat="43.69373" lon="3.82673">
        <ele>103.77250191177</ele>
        <time>2020-10-25T13:21:24.000Z</time>
      </trkpt>
      <trkpt lat="43.69377" lon="3.82674">
        <ele>103.67358997473</ele>
        <time>2020-10-25T13:21:25.000Z</time>
      </trkpt>
      <trkpt lat="43.69381" lon="3.82675">
        <ele>103.57467803769</ele>
        <time>2020-10-25T13:21:26.000Z</time>
      </trkpt>
      <trkpt lat="43.69385" lon="3.82676">
        <ele>103.47576610065</ele>
        <time>2020-10-25T13:21:27.000Z</time>
      </trkpt>
      <trkpt lat="43.69389" lon="3.82677">
        <ele>103.37685416361</ele>
        <time>2020-10-25T13:21:28.000Z</time>
      </trkpt>
      <trkpt lat="43.69393" lon="3.82678">
        <ele>103.27794222657</ele>
        <time>2020-10-25T13:21:29.000Z</time>
      </trkpt>
      <trkpt lat="43.69397" lon="3.8268">
        <ele>103.17903028953</ele>
        <time>2020-10-25T13:21:30.000Z</time>
      </trkpt>
      <trkpt lat="43.69401" lon="3.82681">
        <ele>103.08011835249</ele>
        <time>2020-10-25T13:21:31.000Z</time>
      </trkpt>
      <trkpt lat="43.69406" lon="3.82683">
        <ele>103</ele>
        <time>2020-10-25T13:21:32.000Z</time>
      </trkpt>
      <trkpt lat="43.69409" lon="3.82684">
        <ele>103</ele>
        <time>2020-10-25T13:21:33.000Z</time>
      </trkpt>
      <trkpt lat="43.69413" lon="3.82686">
        <ele>103</ele>
        <time>2020-10-25T13:21:34.000Z</time>
      </trkpt>
      <trkpt lat="43.69417" lon="3.82687">
        <ele>103</ele>
        <time>2020-10-25T13:21:35.000Z</time>
      </trkpt>
      <trkpt lat="43.6942" lon="3.82688">
        <ele>103</ele>
        <time>2020-10-25T13:21:36.000Z</time>
      </trkpt>
      <trkpt lat="43.69424" lon="3.82689">
        <ele>103</ele>
        <time>2020-10-25T13:21:37.000Z</time>
      </trkpt>
      <trkpt lat="43.69428" lon="3.82691">
        <ele>103</ele>
        <time>2020-10-25T13:21:38.000Z</time>
      </trkpt>
      <trkpt lat="43.69432" lon="3.82692">
        <ele>103</ele>
        <time>2020-10-25T13:21:39.000Z</time>
      </trkpt>
      <trkpt lat="43.69436" lon="3.82693">
        <ele>103</ele>
        <time>2020-10-25T13:21:40.000Z</time>
      </trkpt>
      <trkpt lat="43.69441" lon="3.82693">
        <ele>103</ele>
        <time>2020-10-25T13:21:41.000Z</time>
      </trkpt>
      <trkpt lat="43.69445" lon="3.82693">
        <ele>103.02915511371</ele>
        <time>2020-10-25T13:21:42.000Z</time>
      </trkpt>
      <trkpt lat="43.69449" lon="3.82693">
        <ele>103.12633675288</ele>
        <time>2020-10-25T13:21:43.000Z</time>
      </trkpt>
      <trkpt lat="43.69453" lon="3.82694">
        <ele>103.22351839205</ele>
        <time>2020-10-25T13:21:44.000Z</time>
      </trkpt>
      <trkpt lat="43.69457" lon="3.82695">
        <ele>103.32070003122</ele>
        <time>2020-10-25T13:21:45.000Z</time>
      </trkpt>
      <trkpt lat="43.6946" lon="3.82696">
        <ele>103.41788167039</ele>
        <time>2020-10-25T13:21:46.000Z</time>
      </trkpt>
      <trkpt lat="43.69463" lon="3.82698">
        <ele>103.51506330956</ele>
        <time>2020-10-25T13:21:47.000Z</time>
      </trkpt>
      <trkpt lat="43.69466" lon="3.82699">
        <ele>103.61224494873</ele>
        <time>2020-10-25T13:21:48.000Z</time>
      </trkpt>
      <trkpt lat="43.69469" lon="3.82701">
        <ele>103.7094265879</ele>
        <time>2020-10-25T13:21:49.000Z</time>
      </trkpt>
      <trkpt lat="43.69472" lon="3.82702">
        <ele>103.80660822707</ele>
        <time>2020-10-25T13:21:50.000Z</time>
      </trkpt>
      <trkpt lat="43.69475" lon="3.82701">
        <ele>103.90378986624</ele>
        <time>2020-10-25T13:21:51.000Z</time>
      </trkpt>
      <trkpt lat="43.69478" lon="3.827">
        <ele>104</ele>
        <time>2020-10-25T13:21:52.000Z</time>
      </trkpt>
      <trkpt lat="43.69481" lon="3.82699">
        <ele>104</ele>
        <time>2020-10-25T13:21:53.000Z</time>
      </trkpt>
      <trkpt lat="43.69484" lon="3.82698">
        <ele>104</ele>
        <time>2020-10-25T13:21:54.000Z</time>
      </trkpt>
      <trkpt lat="43.69487" lon="3.82697">
        <ele>104</ele>
        <time>2020-10-25T13:21:55.000Z</time>
      </trkpt>
      <trkpt lat="43.6949" lon="3.82697">
        <ele>104</ele>
        <time>2020-10-25T13:21:56.000Z</time>
      </trkpt>
      <trkpt lat="43.69493" lon="3.82696">
        <ele>104</ele>
        <time>2020-10-25T13:21:57.000Z</time>
      </trkpt>
      <trkpt lat="43.69496" lon="3.82696">
        <ele>104</ele>
        <time>2020-10-25T13:21:58.000Z</time>
      </trkpt>
      <trkpt lat="43.69499" lon="3.82696">
        <ele>104</ele>
        <time>2020-10-25T13:21:59.000Z</time>
      </trkpt>
      <trkpt lat="43.69503" lon="3.82696">
        <ele>104</ele>
        <time>2020-10-25T13:22:00.000Z</time>
      </trkpt>
      <trkpt lat="43.69506" lon="3.82696">
        <ele>104</ele>
        <time>2020-10-25T13:22:01.000Z</time>
      </trkpt>
      <trkpt lat="43.69509" lon="3.82696">
        <ele>104</ele>
        <time>2020-10-25T13:22:02.000Z</time>
      </trkpt>
      <trkpt lat="43.69512" lon="3.82695">
        <ele>104</ele>
        <time>2020-10-25T13:22:03.000Z</time>
      </trkpt>
      <trkpt lat="43.69515" lon="3.82694">
        <ele>104</ele>
        <time>2020-10-25T13:22:04.000Z</time>
      </trkpt>
      <trkpt lat="43.69518" lon="3.82693">
        <ele>104</ele>
        <time>2020-10-25T13:22:05.000Z</time>
      </trkpt>
      <trkpt lat="43.69521" lon="3.82692">
        <ele>104</ele>
        <time>2020-10-25T13:22:06.000Z</time>
      </trkpt>
      <trkpt lat="43.69524" lon="3.82691">
        <ele>104</ele>
        <time>2020-10-25T13:22:07.000Z</time>
      </trkpt>
      <trkpt lat="43.69527" lon="3.82691">
        <ele>104</ele>
        <time>2020-10-25T13:22:08.000Z</time>
      </trkpt>
      <trkpt lat="43.6953" lon="3.82689">
        <ele>104</ele>
        <time>2020-10-25T13:22:09.000Z</time>
      </trkpt>
      <trkpt lat="43.69532" lon="3.82688">
        <ele>104</ele>
        <time>2020-10-25T13:22:10.000Z</time>
      </trkpt>
      <trkpt lat="43.69534" lon="3.82687">
        <ele>104</ele>
        <time>2020-10-25T13:22:11.000Z</time>
      </trkpt>
      <trkpt lat="43.69537" lon="3.82685">
        <ele>104.02708157339</ele>
        <time>2020-10-25T13:22:12.000Z</time>
      </trkpt>
      <trkpt lat="43.6954" lon="3.82684">
        <ele>104.12738250829</ele>
        <time>2020-10-25T13:22:13.000Z</time>
      </trkpt>
      <trkpt lat="43.69542" lon="3.82683">
        <ele>104.22768344319</ele>
        <time>2020-10-25T13:22:14.000Z</time>
      </trkpt>
      <trkpt lat="43.69545" lon="3.82682">
        <ele>104.32798437809</ele>
        <time>2020-10-25T13:22:15.000Z</time>
      </trkpt>
      <trkpt lat="43.69548" lon="3.82681">
        <ele>104.42828531299</ele>
        <time>2020-10-25T13:22:16.000Z</time>
      </trkpt>
      <trkpt lat="43.6955" lon="3.8268">
        <ele>104.52858624789</ele>
        <time>2020-10-25T13:22:17.000Z</time>
      </trkpt>
      <trkpt lat="43.69553" lon="3.82679">
        <ele>104.62888718279</ele>
        <time>2020-10-25T13:22:18.000Z</time>
      </trkpt>
      <trkpt lat="43.69555" lon="3.82679">
        <ele>104.72918811769</ele>
        <time>2020-10-25T13:22:19.000Z</time>
      </trkpt>
      <trkpt lat="43.69557" lon="3.82679">
        <ele>104.92978998749</ele>
        <time>2020-10-25T13:22:21.000Z</time>
      </trkpt>
      <trkpt lat="43.69561" lon="3.82681">
        <ele>105</ele>
        <time>2020-10-25T13:22:23.000Z</time>
      </trkpt>
      <trkpt lat="43.69563" lon="3.82683">
        <ele>105</ele>
        <time>2020-10-25T13:22:25.000Z</time>
      </trkpt>
      <trkpt lat="43.69564" lon="3.82687">
        <ele>105</ele>
        <time>2020-10-25T13:22:27.000Z</time>
      </trkpt>
      <trkpt lat="43.69565" lon="3.8269">
        <ele>105</ele>
        <time>2020-10-25T13:22:28.000Z</time>
      </trkpt>
      <trkpt lat="43.69565" lon="3.82693">
        <ele>105</ele>
        <time>2020-10-25T13:22:29.000Z</time>
      </trkpt>
      <trkpt lat="43.69569" lon="3.82704">
        <ele>105</ele>
        <time>2020-10-25T13:22:35.000Z</time>
      </trkpt>
      <trkpt lat="43.6957" lon="3.82709">
        <ele>105</ele>
        <time>2020-10-25T13:22:37.000Z</time>
      </trkpt>
      <trkpt lat="43.6957" lon="3.82712">
        <ele>105</ele>
        <time>2020-10-25T13:22:38.000Z</time>
      </trkpt>
      <trkpt lat="43.6957" lon="3.82717">
        <ele>105</ele>
        <time>2020-10-25T13:22:40.000Z</time>
      </trkpt>
      <trkpt lat="43.69571" lon="3.8272">
        <ele>105</ele>
        <time>2020-10-25T13:22:41.000Z</time>
      </trkpt>
      <trkpt lat="43.6957" lon="3.82723">
        <ele>105.03000064</ele>
        <time>2020-10-25T13:22:42.000Z</time>
      </trkpt>
      <trkpt lat="43.6957" lon="3.82726">
        <ele>105.13000064</ele>
        <time>2020-10-25T13:22:43.000Z</time>
      </trkpt>
      <trkpt lat="43.6957" lon="3.82729">
        <ele>105.23000064</ele>
        <time>2020-10-25T13:22:44.000Z</time>
      </trkpt>
      <trkpt lat="43.6957" lon="3.82733">
        <ele>105.33000064</ele>
        <time>2020-10-25T13:22:45.000Z</time>
      </trkpt>
      <trkpt lat="43.69569" lon="3.82737">
        <ele>105.43000064</ele>
        <time>2020-10-25T13:22:46.000Z</time>
      </trkpt>
      <trkpt lat="43.69569" lon="3.82741">
        <ele>105.53000064</ele>
        <time>2020-10-25T13:22:47.000Z</time>
      </trkpt>
      <trkpt lat="43.69568" lon="3.82744">
        <ele>105.63000064</ele>
        <time>2020-10-25T13:22:48.000Z</time>
      </trkpt>
      <trkpt lat="43.69567" lon="3.82748">
        <ele>105.73000064</ele>
        <time>2020-10-25T13:22:49.000Z</time>
      </trkpt>
      <trkpt lat="43.69566" lon="3.82752">
        <ele>105.83000064</ele>
        <time>2020-10-25T13:22:50.000Z</time>
      </trkpt>
      <trkpt lat="43.69565" lon="3.82756">
        <ele>105.93000064</ele>
        <time>2020-10-25T13:22:51.000Z</time>
      </trkpt>
      <trkpt lat="43.69563" lon="3.82759">
        <ele>106</ele>
        <time>2020-10-25T13:22:52.000Z</time>
      </trkpt>
      <trkpt lat="43.69562" lon="3.82763">
        <ele>106</ele>
        <time>2020-10-25T13:22:53.000Z</time>
      </trkpt>
      <trkpt lat="43.6956" lon="3.82767">
        <ele>106</ele>
        <time>2020-10-25T13:22:54.000Z</time>
      </trkpt>
      <trkpt lat="43.69558" lon="3.8277">
        <ele>106</ele>
        <time>2020-10-25T13:22:55.000Z</time>
      </trkpt>
      <trkpt lat="43.69556" lon="3.82773">
        <ele>106</ele>
        <time>2020-10-25T13:22:56.000Z</time>
      </trkpt>
      <trkpt lat="43.69554" lon="3.82776">
        <ele>106</ele>
        <time>2020-10-25T13:22:57.000Z</time>
      </trkpt>
      <trkpt lat="43.69552" lon="3.82779">
        <ele>106</ele>
        <time>2020-10-25T13:22:58.000Z</time>
      </trkpt>
      <trkpt lat="43.6955" lon="3.82782">
        <ele>106</ele>
        <time>2020-10-25T13:22:59.000Z</time>
      </trkpt>
      <trkpt lat="43.69548" lon="3.82784">
        <ele>106</ele>
        <time>2020-10-25T13:23:00.000Z</time>
      </trkpt>
      <trkpt lat="43.69545" lon="3.82787">
        <ele>106</ele>
        <time>2020-10-25T13:23:01.000Z</time>
      </trkpt>
      <trkpt lat="43.69543" lon="3.8279">
        <ele>106</ele>
        <time>2020-10-25T13:23:02.000Z</time>
      </trkpt>
      <trkpt lat="43.6954" lon="3.82793">
        <ele>106</ele>
        <time>2020-10-25T13:23:03.000Z</time>
      </trkpt>
      <trkpt lat="43.69538" lon="3.82796">
        <ele>106</ele>
        <time>2020-10-25T13:23:04.000Z</time>
      </trkpt>
      <trkpt lat="43.69535" lon="3.82798">
        <ele>106</ele>
        <time>2020-10-25T13:23:05.000Z</time>
      </trkpt>
      <trkpt lat="43.69532" lon="3.82801">
        <ele>106</ele>
        <time>2020-10-25T13:23:06.000Z</time>
      </trkpt>
      <trkpt lat="43.69529" lon="3.82804">
        <ele>106</ele>
        <time>2020-10-25T13:23:07.000Z</time>
      </trkpt>
      <trkpt lat="43.69526" lon="3.82806">
        <ele>106</ele>
        <time>2020-10-25T13:23:08.000Z</time>
      </trkpt>
      <trkpt lat="43.69523" lon="3.82808">
        <ele>106</ele>
        <time>2020-10-25T13:23:09.000Z</time>
      </trkpt>
      <trkpt lat="43.6952" lon="3.82811">
        <ele>106</ele>
        <time>2020-10-25T13:23:10.000Z</time>
      </trkpt>
      <trkpt lat="43.69518" lon="3.82814">
        <ele>106</ele>
        <time>2020-10-25T13:23:11.000Z</time>
      </trkpt>
      <trkpt lat="43.69515" lon="3.82816">
        <ele>106</ele>
        <time>2020-10-25T13:23:12.000Z</time>
      </trkpt>
      <trkpt lat="43.69512" lon="3.82819">
        <ele>106</ele>
        <time>2020-10-25T13:23:13.000Z</time>
      </trkpt>
      <trkpt lat="43.69508" lon="3.82821">
        <ele>106</ele>
        <time>2020-10-25T13:23:14.000Z</time>
      </trkpt>
      <trkpt lat="43.69505" lon="3.82824">
        <ele>106</ele>
        <time>2020-10-25T13:23:15.000Z</time>
      </trkpt>
      <trkpt lat="43.69501" lon="3.82826">
        <ele>106</ele>
        <time>2020-10-25T13:23:16.000Z</time>
      </trkpt>
      <trkpt lat="43.69498" lon="3.82828">
        <ele>106</ele>
        <time>2020-10-25T13:23:17.000Z</time>
      </trkpt>
      <trkpt lat="43.69495" lon="3.82831">
        <ele>106</ele>
        <time>2020-10-25T13:23:18.000Z</time>
      </trkpt>
      <trkpt lat="43.69491" lon="3.82833">
        <ele>106</ele>
        <time>2020-10-25T13:23:19.000Z</time>
      </trkpt>
      <trkpt lat="43.69488" lon="3.82835">
        <ele>106</ele>
        <time>2020-10-25T13:23:20.000Z</time>
      </trkpt>
      <trkpt lat="43.69484" lon="3.82837">
        <ele>106</ele>
        <time>2020-10-25T13:23:21.000Z</time>
      </trkpt>
      <trkpt lat="43.69481" lon="3.8284">
        <ele>106</ele>
        <time>2020-10-25T13:23:22.000Z</time>
      </trkpt>
      <trkpt lat="43.69478" lon="3.82843">
        <ele>106</ele>
        <time>2020-10-25T13:23:23.000Z</time>
      </trkpt>
      <trkpt lat="43.69474" lon="3.82845">
        <ele>106</ele>
        <time>2020-10-25T13:23:24.000Z</time>
      </trkpt>
      <trkpt lat="43.6947" lon="3.82848">
        <ele>106</ele>
        <time>2020-10-25T13:23:25.000Z</time>
      </trkpt>
      <trkpt lat="43.69467" lon="3.8285">
        <ele>106</ele>
        <time>2020-10-25T13:23:26.000Z</time>
      </trkpt>
      <trkpt lat="43.69463" lon="3.82853">
        <ele>106</ele>
        <time>2020-10-25T13:23:27.000Z</time>
      </trkpt>
      <trkpt lat="43.6946" lon="3.82857">
        <ele>106</ele>
        <time>2020-10-25T13:23:28.000Z</time>
      </trkpt>
      <trkpt lat="43.69456" lon="3.8286">
        <ele>106</ele>
        <time>2020-10-25T13:23:29.000Z</time>
      </trkpt>
      <trkpt lat="43.69453" lon="3.82864">
        <ele>106</ele>
        <time>2020-10-25T13:23:30.000Z</time>
      </trkpt>
      <trkpt lat="43.69451" lon="3.82867">
        <ele>106</ele>
        <time>2020-10-25T13:23:31.000Z</time>
      </trkpt>
      <trkpt lat="43.69448" lon="3.82871">
        <ele>106</ele>
        <time>2020-10-25T13:23:32.000Z</time>
      </trkpt>
      <trkpt lat="43.69445" lon="3.82875">
        <ele>106</ele>
        <time>2020-10-25T13:23:33.000Z</time>
      </trkpt>
      <trkpt lat="43.69442" lon="3.82879">
        <ele>106</ele>
        <time>2020-10-25T13:23:34.000Z</time>
      </trkpt>
      <trkpt lat="43.69439" lon="3.82884">
        <ele>106</ele>
        <time>2020-10-25T13:23:35.000Z</time>
      </trkpt>
      <trkpt lat="43.69435" lon="3.82888">
        <ele>106</ele>
        <time>2020-10-25T13:23:36.000Z</time>
      </trkpt>
      <trkpt lat="43.69432" lon="3.82891">
        <ele>106</ele>
        <time>2020-10-25T13:23:37.000Z</time>
      </trkpt>
      <trkpt lat="43.69429" lon="3.82894">
        <ele>106</ele>
        <time>2020-10-25T13:23:38.000Z</time>
      </trkpt>
      <trkpt lat="43.69426" lon="3.82898">
        <ele>106</ele>
        <time>2020-10-25T13:23:39.000Z</time>
      </trkpt>
      <trkpt lat="43.69424" lon="3.82903">
        <ele>106</ele>
        <time>2020-10-25T13:23:40.000Z</time>
      </trkpt>
      <trkpt lat="43.69421" lon="3.82908">
        <ele>106</ele>
        <time>2020-10-25T13:23:41.000Z</time>
      </trkpt>
      <trkpt lat="43.69417" lon="3.82913">
        <ele>105.98178200069</ele>
        <time>2020-10-25T13:23:42.000Z</time>
      </trkpt>
      <trkpt lat="43.69414" lon="3.82917">
        <ele>105.88056729466</ele>
        <time>2020-10-25T13:23:43.000Z</time>
      </trkpt>
      <trkpt lat="43.69411" lon="3.82921">
        <ele>105.77935258864</ele>
        <time>2020-10-25T13:23:44.000Z</time>
      </trkpt>
      <trkpt lat="43.69408" lon="3.82926">
        <ele>105.67813788261</ele>
        <time>2020-10-25T13:23:45.000Z</time>
      </trkpt>
      <trkpt lat="43.69405" lon="3.82931">
        <ele>105.57692317658</ele>
        <time>2020-10-25T13:23:46.000Z</time>
      </trkpt>
      <trkpt lat="43.69401" lon="3.82936">
        <ele>105.47570847055</ele>
        <time>2020-10-25T13:23:47.000Z</time>
      </trkpt>
      <trkpt lat="43.69398" lon="3.82939">
        <ele>105.37449376453</ele>
        <time>2020-10-25T13:23:48.000Z</time>
      </trkpt>
      <trkpt lat="43.69396" lon="3.82942">
        <ele>105.2732790585</ele>
        <time>2020-10-25T13:23:49.000Z</time>
      </trkpt>
      <trkpt lat="43.69392" lon="3.82944">
        <ele>105.17206435247</ele>
        <time>2020-10-25T13:23:50.000Z</time>
      </trkpt>
      <trkpt lat="43.6939" lon="3.82944">
        <ele>105.07084964644</ele>
        <time>2020-10-25T13:23:51.000Z</time>
      </trkpt>
      <trkpt lat="43.69387" lon="3.82945">
        <ele>105</ele>
        <time>2020-10-25T13:23:53.000Z</time>
      </trkpt>
      <trkpt lat="43.69386" lon="3.82947">
        <ele>105</ele>
        <time>2020-10-25T13:23:57.000Z</time>
      </trkpt>
      <trkpt lat="43.69388" lon="3.82951">
        <ele>105</ele>
        <time>2020-10-25T13:23:59.000Z</time>
      </trkpt>
      <trkpt lat="43.6939" lon="3.82953">
        <ele>105</ele>
        <time>2020-10-25T13:24:00.000Z</time>
      </trkpt>
      <trkpt lat="43.69393" lon="3.82955">
        <ele>105</ele>
        <time>2020-10-25T13:24:01.000Z</time>
      </trkpt>
      <trkpt lat="43.69396" lon="3.82957">
        <ele>104.96999936</ele>
        <time>2020-10-25T13:24:02.000Z</time>
      </trkpt>
      <trkpt lat="43.69399" lon="3.8296">
        <ele>104.86999936</ele>
        <time>2020-10-25T13:24:03.000Z</time>
      </trkpt>
      <trkpt lat="43.69402" lon="3.82965">
        <ele>104.76999936</ele>
        <time>2020-10-25T13:24:04.000Z</time>
      </trkpt>
      <trkpt lat="43.69403" lon="3.8297">
        <ele>104.66999936</ele>
        <time>2020-10-25T13:24:05.000Z</time>
      </trkpt>
      <trkpt lat="43.69403" lon="3.82976">
        <ele>104.56999936</ele>
        <time>2020-10-25T13:24:06.000Z</time>
      </trkpt>
      <trkpt lat="43.69403" lon="3.82982">
        <ele>104.46999936</ele>
        <time>2020-10-25T13:24:07.000Z</time>
      </trkpt>
      <trkpt lat="43.69403" lon="3.82988">
        <ele>104.36999936</ele>
        <time>2020-10-25T13:24:08.000Z</time>
      </trkpt>
      <trkpt lat="43.69403" lon="3.82992">
        <ele>104.26999936</ele>
        <time>2020-10-25T13:24:09.000Z</time>
      </trkpt>
      <trkpt lat="43.69404" lon="3.82994">
        <ele>104.16999936</ele>
        <time>2020-10-25T13:24:10.000Z</time>
      </trkpt>
      <trkpt lat="43.69405" lon="3.82996">
        <ele>104.06999936</ele>
        <time>2020-10-25T13:24:11.000Z</time>
      </trkpt>
      <trkpt lat="43.69407" lon="3.82997">
        <ele>103.94071027262</ele>
        <time>2020-10-25T13:24:12.000Z</time>
      </trkpt>
      <trkpt lat="43.69409" lon="3.82996">
        <ele>103.74308206409</ele>
        <time>2020-10-25T13:24:13.000Z</time>
      </trkpt>
      <trkpt lat="43.69412" lon="3.82995">
        <ele>103.34782564702</ele>
        <time>2020-10-25T13:24:15.000Z</time>
      </trkpt>
      <trkpt lat="43.69415" lon="3.82994">
        <ele>103.15019743848</ele>
        <time>2020-10-25T13:24:16.000Z</time>
      </trkpt>
      <trkpt lat="43.69417" lon="3.82992">
        <ele>102.95256922995</ele>
        <time>2020-10-25T13:24:17.000Z</time>
      </trkpt>
      <trkpt lat="43.69419" lon="3.8299">
        <ele>102.75494102142</ele>
        <time>2020-10-25T13:24:18.000Z</time>
      </trkpt>
      <trkpt lat="43.69422" lon="3.82988">
        <ele>102.55731281289</ele>
        <time>2020-10-25T13:24:19.000Z</time>
      </trkpt>
      <trkpt lat="43.69425" lon="3.82987">
        <ele>102.35968460435</ele>
        <time>2020-10-25T13:24:20.000Z</time>
      </trkpt>
      <trkpt lat="43.69427" lon="3.82985">
        <ele>102.16205639582</ele>
        <time>2020-10-25T13:24:21.000Z</time>
      </trkpt>
      <trkpt lat="43.6943" lon="3.82983">
        <ele>101.98178200069</ele>
        <time>2020-10-25T13:24:22.000Z</time>
      </trkpt>
      <trkpt lat="43.69432" lon="3.82982">
        <ele>101.88056729466</ele>
        <time>2020-10-25T13:24:23.000Z</time>
      </trkpt>
      <trkpt lat="43.69435" lon="3.8298">
        <ele>101.77935258864</ele>
        <time>2020-10-25T13:24:24.000Z</time>
      </trkpt>
      <trkpt lat="43.69438" lon="3.82978">
        <ele>101.67813788261</ele>
        <time>2020-10-25T13:24:25.000Z</time>
      </trkpt>
      <trkpt lat="43.6944" lon="3.82976">
        <ele>101.57692317658</ele>
        <time>2020-10-25T13:24:26.000Z</time>
      </trkpt>
      <trkpt lat="43.69442" lon="3.82973">
        <ele>101.47570847055</ele>
        <time>2020-10-25T13:24:27.000Z</time>
      </trkpt>
      <trkpt lat="43.69445" lon="3.82971">
        <ele>101.37449376453</ele>
        <time>2020-10-25T13:24:28.000Z</time>
      </trkpt>
      <trkpt lat="43.69448" lon="3.82969">
        <ele>101.2732790585</ele>
        <time>2020-10-25T13:24:29.000Z</time>
      </trkpt>
      <trkpt lat="43.69451" lon="3.82966">
        <ele>101.17206435247</ele>
        <time>2020-10-25T13:24:30.000Z</time>
      </trkpt>
      <trkpt lat="43.69454" lon="3.82964">
        <ele>101.07084964644</ele>
        <time>2020-10-25T13:24:31.000Z</time>
      </trkpt>
      <trkpt lat="43.69457" lon="3.82962">
        <ele>100.94011852128</ele>
        <time>2020-10-25T13:24:32.000Z</time>
      </trkpt>
      <trkpt lat="43.69461" lon="3.82959">
        <ele>100.74051785037</ele>
        <time>2020-10-25T13:24:33.000Z</time>
      </trkpt>
      <trkpt lat="43.69464" lon="3.82958">
        <ele>100.54091717945</ele>
        <time>2020-10-25T13:24:34.000Z</time>
      </trkpt>
      <trkpt lat="43.69467" lon="3.82956">
        <ele>100.34131650854</ele>
        <time>2020-10-25T13:24:35.000Z</time>
      </trkpt>
      <trkpt lat="43.6947" lon="3.82954">
        <ele>100.14171583763</ele>
        <time>2020-10-25T13:24:36.000Z</time>
      </trkpt>
      <trkpt lat="43.69473" lon="3.82952">
        <ele>99.942115166713</ele>
        <time>2020-10-25T13:24:37.000Z</time>
      </trkpt>
      <trkpt lat="43.69476" lon="3.82951">
        <ele>99.742514495799</ele>
        <time>2020-10-25T13:24:38.000Z</time>
      </trkpt>
      <trkpt lat="43.69478" lon="3.82949">
        <ele>99.542913824885</ele>
        <time>2020-10-25T13:24:39.000Z</time>
      </trkpt>
      <trkpt lat="43.69481" lon="3.82947">
        <ele>99.343313153972</ele>
        <time>2020-10-25T13:24:40.000Z</time>
      </trkpt>
      <trkpt lat="43.69484" lon="3.82946">
        <ele>99.143712483058</ele>
        <time>2020-10-25T13:24:41.000Z</time>
      </trkpt>
      <trkpt lat="43.69487" lon="3.82945">
        <ele>98.971943869784</ele>
        <time>2020-10-25T13:24:42.000Z</time>
      </trkpt>
      <trkpt lat="43.6949" lon="3.82945">
        <ele>98.871743404725</ele>
        <time>2020-10-25T13:24:43.000Z</time>
      </trkpt>
      <trkpt lat="43.69492" lon="3.82945">
        <ele>98.771542939667</ele>
        <time>2020-10-25T13:24:44.000Z</time>
      </trkpt>
      <trkpt lat="43.69494" lon="3.82946">
        <ele>98.671342474608</ele>
        <time>2020-10-25T13:24:45.000Z</time>
      </trkpt>
      <trkpt lat="43.69497" lon="3.82946">
        <ele>98.57114200955</ele>
        <time>2020-10-25T13:24:46.000Z</time>
      </trkpt>
      <trkpt lat="43.69499" lon="3.82947">
        <ele>98.470941544492</ele>
        <time>2020-10-25T13:24:47.000Z</time>
      </trkpt>
      <trkpt lat="43.69501" lon="3.82947">
        <ele>98.370741079433</ele>
        <time>2020-10-25T13:24:48.000Z</time>
      </trkpt>
      <trkpt lat="43.69502" lon="3.82948">
        <ele>98</ele>
        <time>2020-10-25T13:24:55.000Z</time>
      </trkpt>
      <trkpt lat="43.69492" lon="3.82946">
        <ele>98</ele>
        <time>2020-10-25T13:25:12.000Z</time>
      </trkpt>
      <trkpt lat="43.6949" lon="3.82946">
        <ele>98</ele>
        <time>2020-10-25T13:25:13.000Z</time>
      </trkpt>
      <trkpt lat="43.69487" lon="3.82946">
        <ele>98</ele>
        <time>2020-10-25T13:25:14.000Z</time>
      </trkpt>
      <trkpt lat="43.69484" lon="3.82947">
        <ele>98</ele>
        <time>2020-10-25T13:25:15.000Z</time>
      </trkpt>
      <trkpt lat="43.69481" lon="3.82948">
        <ele>98</ele>
        <time>2020-10-25T13:25:16.000Z</time>
      </trkpt>
      <trkpt lat="43.69477" lon="3.8295">
        <ele>98</ele>
        <time>2020-10-25T13:25:17.000Z</time>
      </trkpt>
      <trkpt lat="43.69474" lon="3.82953">
        <ele>98</ele>
        <time>2020-10-25T13:25:18.000Z</time>
      </trkpt>
      <trkpt lat="43.6947" lon="3.82955">
        <ele>98</ele>
        <time>2020-10-25T13:25:19.000Z</time>
      </trkpt>
      <trkpt lat="43.69467" lon="3.82957">
        <ele>98</ele>
        <time>2020-10-25T13:25:20.000Z</time>
      </trkpt>
      <trkpt lat="43.69463" lon="3.8296">
        <ele>98</ele>
        <time>2020-10-25T13:25:21.000Z</time>
      </trkpt>
      <trkpt lat="43.69459" lon="3.82962">
        <ele>98</ele>
        <time>2020-10-25T13:25:22.000Z</time>
      </trkpt>
      <trkpt lat="43.69456" lon="3.82964">
        <ele>98</ele>
        <time>2020-10-25T13:25:23.000Z</time>
      </trkpt>
      <trkpt lat="43.69452" lon="3.82967">
        <ele>98</ele>
        <time>2020-10-25T13:25:24.000Z</time>
      </trkpt>
      <trkpt lat="43.69449" lon="3.8297">
        <ele>98</ele>
        <time>2020-10-25T13:25:25.000Z</time>
      </trkpt>
      <trkpt lat="43.69446" lon="3.82973">
        <ele>98</ele>
        <time>2020-10-25T13:25:26.000Z</time>
      </trkpt>
      <trkpt lat="43.69443" lon="3.82975">
        <ele>98</ele>
        <time>2020-10-25T13:25:27.000Z</time>
      </trkpt>
      <trkpt lat="43.69439" lon="3.82978">
        <ele>98</ele>
        <time>2020-10-25T13:25:28.000Z</time>
      </trkpt>
      <trkpt lat="43.69435" lon="3.8298">
        <ele>98</ele>
        <time>2020-10-25T13:25:29.000Z</time>
      </trkpt>
      <trkpt lat="43.69431" lon="3.82983">
        <ele>98</ele>
        <time>2020-10-25T13:25:30.000Z</time>
      </trkpt>
      <trkpt lat="43.69428" lon="3.82986">
        <ele>98</ele>
        <time>2020-10-25T13:25:31.000Z</time>
      </trkpt>
      <trkpt lat="43.69424" lon="3.82988">
        <ele>98.002056957441</ele>
        <time>2020-10-25T13:25:32.000Z</time>
      </trkpt>
      <trkpt lat="43.6942" lon="3.8299">
        <ele>98.104937751358</ele>
        <time>2020-10-25T13:25:33.000Z</time>
      </trkpt>
      <trkpt lat="43.69417" lon="3.82991">
        <ele>98.207818545275</ele>
        <time>2020-10-25T13:25:34.000Z</time>
      </trkpt>
      <trkpt lat="43.69413" lon="3.82993">
        <ele>98.310699339192</ele>
        <time>2020-10-25T13:25:35.000Z</time>
      </trkpt>
      <trkpt lat="43.6941" lon="3.82994">
        <ele>98.41358013311</ele>
        <time>2020-10-25T13:25:36.000Z</time>
      </trkpt>
      <trkpt lat="43.69407" lon="3.82995">
        <ele>98.516460927027</ele>
        <time>2020-10-25T13:25:37.000Z</time>
      </trkpt>
      <trkpt lat="43.69404" lon="3.82995">
        <ele>98.619341720944</ele>
        <time>2020-10-25T13:25:38.000Z</time>
      </trkpt>
      <trkpt lat="43.69402" lon="3.82996">
        <ele>98.722222514861</ele>
        <time>2020-10-25T13:25:39.000Z</time>
      </trkpt>
      <trkpt lat="43.694" lon="3.82996">
        <ele>98.825103308778</ele>
        <time>2020-10-25T13:25:40.000Z</time>
      </trkpt>
      <trkpt lat="43.69398" lon="3.82996">
        <ele>98.927984102695</ele>
        <time>2020-10-25T13:25:41.000Z</time>
      </trkpt>
      <trkpt lat="43.69395" lon="3.82996">
        <ele>99</ele>
        <time>2020-10-25T13:25:43.000Z</time>
      </trkpt>
      <trkpt lat="43.69392" lon="3.82996">
        <ele>99</ele>
        <time>2020-10-25T13:25:45.000Z</time>
      </trkpt>
      <trkpt lat="43.69389" lon="3.82997">
        <ele>99</ele>
        <time>2020-10-25T13:25:47.000Z</time>
      </trkpt>
      <trkpt lat="43.69387" lon="3.83">
        <ele>99</ele>
        <time>2020-10-25T13:25:49.000Z</time>
      </trkpt>
      <trkpt lat="43.69387" lon="3.83005">
        <ele>99</ele>
        <time>2020-10-25T13:25:51.000Z</time>
      </trkpt>
      <trkpt lat="43.69388" lon="3.83007">
        <ele>99</ele>
        <time>2020-10-25T13:25:52.000Z</time>
      </trkpt>
      <trkpt lat="43.69389" lon="3.8301">
        <ele>99</ele>
        <time>2020-10-25T13:25:53.000Z</time>
      </trkpt>
      <trkpt lat="43.6939" lon="3.83014">
        <ele>99</ele>
        <time>2020-10-25T13:25:54.000Z</time>
      </trkpt>
      <trkpt lat="43.69393" lon="3.83018">
        <ele>99</ele>
        <time>2020-10-25T13:25:55.000Z</time>
      </trkpt>
      <trkpt lat="43.69395" lon="3.83023">
        <ele>99</ele>
        <time>2020-10-25T13:25:56.000Z</time>
      </trkpt>
      <trkpt lat="43.69397" lon="3.83027">
        <ele>99</ele>
        <time>2020-10-25T13:25:57.000Z</time>
      </trkpt>
      <trkpt lat="43.694" lon="3.83032">
        <ele>99</ele>
        <time>2020-10-25T13:25:58.000Z</time>
      </trkpt>
      <trkpt lat="43.69405" lon="3.83037">
        <ele>99</ele>
        <time>2020-10-25T13:25:59.000Z</time>
      </trkpt>
      <trkpt lat="43.69409" lon="3.83042">
        <ele>99</ele>
        <time>2020-10-25T13:26:00.000Z</time>
      </trkpt>
      <trkpt lat="43.69413" lon="3.83047">
        <ele>99</ele>
        <time>2020-10-25T13:26:01.000Z</time>
      </trkpt>
      <trkpt lat="43.69417" lon="3.8305">
        <ele>98.971943869784</ele>
        <time>2020-10-25T13:26:02.000Z</time>
      </trkpt>
      <trkpt lat="43.69422" lon="3.83056">
        <ele>98.771542939667</ele>
        <time>2020-10-25T13:26:04.000Z</time>
      </trkpt>
      <trkpt lat="43.69423" lon="3.8306">
        <ele>98.671342474608</ele>
        <time>2020-10-25T13:26:05.000Z</time>
      </trkpt>
      <trkpt lat="43.69423" lon="3.83064">
        <ele>98.57114200955</ele>
        <time>2020-10-25T13:26:06.000Z</time>
      </trkpt>
      <trkpt lat="43.69424" lon="3.83067">
        <ele>98.470941544492</ele>
        <time>2020-10-25T13:26:07.000Z</time>
      </trkpt>
      <trkpt lat="43.69425" lon="3.83071">
        <ele>98.370741079433</ele>
        <time>2020-10-25T13:26:08.000Z</time>
      </trkpt>
      <trkpt lat="43.69424" lon="3.83075">
        <ele>98.270540614375</ele>
        <time>2020-10-25T13:26:09.000Z</time>
      </trkpt>
      <trkpt lat="43.69424" lon="3.83079">
        <ele>98.170340149316</ele>
        <time>2020-10-25T13:26:10.000Z</time>
      </trkpt>
      <trkpt lat="43.69424" lon="3.83083">
        <ele>98.070139684258</ele>
        <time>2020-10-25T13:26:11.000Z</time>
      </trkpt>
      <trkpt lat="43.69424" lon="3.83087">
        <ele>97.96999936</ele>
        <time>2020-10-25T13:26:12.000Z</time>
      </trkpt>
      <trkpt lat="43.69424" lon="3.83091">
        <ele>97.86999936</ele>
        <time>2020-10-25T13:26:13.000Z</time>
      </trkpt>
      <trkpt lat="43.69425" lon="3.83096">
        <ele>97.76999936</ele>
        <time>2020-10-25T13:26:14.000Z</time>
      </trkpt>
      <trkpt lat="43.69425" lon="3.83101">
        <ele>97.66999936</ele>
        <time>2020-10-25T13:26:15.000Z</time>
      </trkpt>
      <trkpt lat="43.69425" lon="3.83106">
        <ele>97.56999936</ele>
        <time>2020-10-25T13:26:16.000Z</time>
      </trkpt>
      <trkpt lat="43.69424" lon="3.83112">
        <ele>97.46999936</ele>
        <time>2020-10-25T13:26:17.000Z</time>
      </trkpt>
      <trkpt lat="43.69422" lon="3.83119">
        <ele>97.36999936</ele>
        <time>2020-10-25T13:26:18.000Z</time>
      </trkpt>
      <trkpt lat="43.69422" lon="3.83125">
        <ele>97.26999936</ele>
        <time>2020-10-25T13:26:19.000Z</time>
      </trkpt>
      <trkpt lat="43.69421" lon="3.83132">
        <ele>97.16999936</ele>
        <time>2020-10-25T13:26:20.000Z</time>
      </trkpt>
      <trkpt lat="43.69421" lon="3.83139">
        <ele>97.06999936</ele>
        <time>2020-10-25T13:26:21.000Z</time>
      </trkpt>
      <trkpt lat="43.69422" lon="3.83147">
        <ele>96.96999936</ele>
        <time>2020-10-25T13:26:22.000Z</time>
      </trkpt>
      <trkpt lat="43.69423" lon="3.83154">
        <ele>96.86999936</ele>
        <time>2020-10-25T13:26:23.000Z</time>
      </trkpt>
      <trkpt lat="43.69426" lon="3.83161">
        <ele>96.76999936</ele>
        <time>2020-10-25T13:26:24.000Z</time>
      </trkpt>
      <trkpt lat="43.69429" lon="3.83167">
        <ele>96.66999936</ele>
        <time>2020-10-25T13:26:25.000Z</time>
      </trkpt>
      <trkpt lat="43.69432" lon="3.83174">
        <ele>96.56999936</ele>
        <time>2020-10-25T13:26:26.000Z</time>
      </trkpt>
      <trkpt lat="43.69434" lon="3.8318">
        <ele>96.46999936</ele>
        <time>2020-10-25T13:26:27.000Z</time>
      </trkpt>
      <trkpt lat="43.69435" lon="3.83185">
        <ele>96.36999936</ele>
        <time>2020-10-25T13:26:28.000Z</time>
      </trkpt>
      <trkpt lat="43.69436" lon="3.83189">
        <ele>96.26999936</ele>
        <time>2020-10-25T13:26:29.000Z</time>
      </trkpt>
      <trkpt lat="43.69435" lon="3.83192">
        <ele>96.16999936</ele>
        <time>2020-10-25T13:26:30.000Z</time>
      </trkpt>
      <trkpt lat="43.6943" lon="3.83204">
        <ele>95.53999872</ele>
        <time>2020-10-25T13:26:34.000Z</time>
      </trkpt>
      <trkpt lat="43.69424" lon="3.83217">
        <ele>94.73999872</ele>
        <time>2020-10-25T13:26:38.000Z</time>
      </trkpt>
      <trkpt lat="43.69423" lon="3.8322">
        <ele>94.53999872</ele>
        <time>2020-10-25T13:26:39.000Z</time>
      </trkpt>
      <trkpt lat="43.69422" lon="3.83223">
        <ele>94.33999872</ele>
        <time>2020-10-25T13:26:40.000Z</time>
      </trkpt>
      <trkpt lat="43.69422" lon="3.83227">
        <ele>94.13999872</ele>
        <time>2020-10-25T13:26:41.000Z</time>
      </trkpt>
      <trkpt lat="43.69422" lon="3.8323">
        <ele>93.96999936</ele>
        <time>2020-10-25T13:26:42.000Z</time>
      </trkpt>
      <trkpt lat="43.69422" lon="3.83233">
        <ele>93.86999936</ele>
        <time>2020-10-25T13:26:43.000Z</time>
      </trkpt>
      <trkpt lat="43.69422" lon="3.83236">
        <ele>93.76999936</ele>
        <time>2020-10-25T13:26:44.000Z</time>
      </trkpt>
      <trkpt lat="43.69423" lon="3.8324">
        <ele>93.66999936</ele>
        <time>2020-10-25T13:26:45.000Z</time>
      </trkpt>
      <trkpt lat="43.69423" lon="3.83244">
        <ele>93.56999936</ele>
        <time>2020-10-25T13:26:46.000Z</time>
      </trkpt>
      <trkpt lat="43.69424" lon="3.83247">
        <ele>93.46999936</ele>
        <time>2020-10-25T13:26:47.000Z</time>
      </trkpt>
      <trkpt lat="43.69424" lon="3.83251">
        <ele>93.36999936</ele>
        <time>2020-10-25T13:26:48.000Z</time>
      </trkpt>
      <trkpt lat="43.69424" lon="3.83254">
        <ele>93.26999936</ele>
        <time>2020-10-25T13:26:49.000Z</time>
      </trkpt>
      <trkpt lat="43.69425" lon="3.83257">
        <ele>93.16999936</ele>
        <time>2020-10-25T13:26:50.000Z</time>
      </trkpt>
      <trkpt lat="43.69425" lon="3.8326">
        <ele>93.06999936</ele>
        <time>2020-10-25T13:26:51.000Z</time>
      </trkpt>
      <trkpt lat="43.69426" lon="3.83262">
        <ele>92.970873183147</ele>
        <time>2020-10-25T13:26:52.000Z</time>
      </trkpt>
      <trkpt lat="43.69427" lon="3.83266">
        <ele>92.873785864832</ele>
        <time>2020-10-25T13:26:53.000Z</time>
      </trkpt>
      <trkpt lat="43.69428" lon="3.83269">
        <ele>92.776698546517</ele>
        <time>2020-10-25T13:26:54.000Z</time>
      </trkpt>
      <trkpt lat="43.69428" lon="3.83272">
        <ele>92.679611228203</ele>
        <time>2020-10-25T13:26:55.000Z</time>
      </trkpt>
      <trkpt lat="43.6943" lon="3.83274">
        <ele>92.582523909888</ele>
        <time>2020-10-25T13:26:56.000Z</time>
      </trkpt>
      <trkpt lat="43.69431" lon="3.83276">
        <ele>92.485436591573</ele>
        <time>2020-10-25T13:26:57.000Z</time>
      </trkpt>
      <trkpt lat="43.69431" lon="3.83279">
        <ele>92.388349273259</ele>
        <time>2020-10-25T13:26:58.000Z</time>
      </trkpt>
      <trkpt lat="43.69432" lon="3.83282">
        <ele>92.291261954944</ele>
        <time>2020-10-25T13:26:59.000Z</time>
      </trkpt>
      <trkpt lat="43.69432" lon="3.83286">
        <ele>92.097087318315</ele>
        <time>2020-10-25T13:27:01.000Z</time>
      </trkpt>
      <trkpt lat="43.69431" lon="3.8329">
        <ele>92</ele>
        <time>2020-10-25T13:27:03.000Z</time>
      </trkpt>
      <trkpt lat="43.6943" lon="3.83292">
        <ele>92</ele>
        <time>2020-10-25T13:27:04.000Z</time>
      </trkpt>
      <trkpt lat="43.69428" lon="3.83294">
        <ele>92</ele>
        <time>2020-10-25T13:27:05.000Z</time>
      </trkpt>
      <trkpt lat="43.69426" lon="3.83296">
        <ele>92</ele>
        <time>2020-10-25T13:27:06.000Z</time>
      </trkpt>
      <trkpt lat="43.69424" lon="3.83297">
        <ele>92</ele>
        <time>2020-10-25T13:27:07.000Z</time>
      </trkpt>
      <trkpt lat="43.69421" lon="3.83299">
        <ele>92</ele>
        <time>2020-10-25T13:27:08.000Z</time>
      </trkpt>
      <trkpt lat="43.69419" lon="3.83301">
        <ele>92</ele>
        <time>2020-10-25T13:27:09.000Z</time>
      </trkpt>
      <trkpt lat="43.69417" lon="3.83302">
        <ele>92</ele>
        <time>2020-10-25T13:27:10.000Z</time>
      </trkpt>
      <trkpt lat="43.69415" lon="3.83305">
        <ele>92</ele>
        <time>2020-10-25T13:27:11.000Z</time>
      </trkpt>
      <trkpt lat="43.69413" lon="3.83307">
        <ele>91.96999936</ele>
        <time>2020-10-25T13:27:12.000Z</time>
      </trkpt>
      <trkpt lat="43.69411" lon="3.83309">
        <ele>91.86999936</ele>
        <time>2020-10-25T13:27:13.000Z</time>
      </trkpt>
      <trkpt lat="43.69408" lon="3.83312">
        <ele>91.76999936</ele>
        <time>2020-10-25T13:27:14.000Z</time>
      </trkpt>
      <trkpt lat="43.69405" lon="3.83314">
        <ele>91.66999936</ele>
        <time>2020-10-25T13:27:15.000Z</time>
      </trkpt>
      <trkpt lat="43.69403" lon="3.83317">
        <ele>91.56999936</ele>
        <time>2020-10-25T13:27:16.000Z</time>
      </trkpt>
      <trkpt lat="43.69401" lon="3.8332">
        <ele>91.46999936</ele>
        <time>2020-10-25T13:27:17.000Z</time>
      </trkpt>
      <trkpt lat="43.69399" lon="3.83324">
        <ele>91.36999936</ele>
        <time>2020-10-25T13:27:18.000Z</time>
      </trkpt>
      <trkpt lat="43.69398" lon="3.83328">
        <ele>91.26999936</ele>
        <time>2020-10-25T13:27:19.000Z</time>
      </trkpt>
      <trkpt lat="43.69396" lon="3.83331">
        <ele>91.16999936</ele>
        <time>2020-10-25T13:27:20.000Z</time>
      </trkpt>
      <trkpt lat="43.69394" lon="3.83336">
        <ele>91.06999936</ele>
        <time>2020-10-25T13:27:21.000Z</time>
      </trkpt>
      <trkpt lat="43.69393" lon="3.8334">
        <ele>90.970816534392</ele>
        <time>2020-10-25T13:27:22.000Z</time>
      </trkpt>
      <trkpt lat="43.6939" lon="3.83348">
        <ele>90.776264247453</ele>
        <time>2020-10-25T13:27:24.000Z</time>
      </trkpt>
      <trkpt lat="43.69388" lon="3.83351">
        <ele>90.678988103984</ele>
        <time>2020-10-25T13:27:25.000Z</time>
      </trkpt>
      <trkpt lat="43.69386" lon="3.83354">
        <ele>90.581711960514</ele>
        <time>2020-10-25T13:27:26.000Z</time>
      </trkpt>
      <trkpt lat="43.69384" lon="3.83357">
        <ele>90.484435817045</ele>
        <time>2020-10-25T13:27:27.000Z</time>
      </trkpt>
      <trkpt lat="43.69381" lon="3.8336">
        <ele>90.387159673575</ele>
        <time>2020-10-25T13:27:28.000Z</time>
      </trkpt>
      <trkpt lat="43.69378" lon="3.83362">
        <ele>90.289883530106</ele>
        <time>2020-10-25T13:27:29.000Z</time>
      </trkpt>
      <trkpt lat="43.69376" lon="3.83364">
        <ele>90.192607386637</ele>
        <time>2020-10-25T13:27:30.000Z</time>
      </trkpt>
      <trkpt lat="43.69373" lon="3.83366">
        <ele>90.095331243167</ele>
        <time>2020-10-25T13:27:31.000Z</time>
      </trkpt>
      <trkpt lat="43.6937" lon="3.83367">
        <ele>90</ele>
        <time>2020-10-25T13:27:32.000Z</time>
      </trkpt>
      <trkpt lat="43.69367" lon="3.83368">
        <ele>90</ele>
        <time>2020-10-25T13:27:33.000Z</time>
      </trkpt>
      <trkpt lat="43.69363" lon="3.83369">
        <ele>90</ele>
        <time>2020-10-25T13:27:34.000Z</time>
      </trkpt>
      <trkpt lat="43.6936" lon="3.8337">
        <ele>90</ele>
        <time>2020-10-25T13:27:35.000Z</time>
      </trkpt>
      <trkpt lat="43.69357" lon="3.83371">
        <ele>90</ele>
        <time>2020-10-25T13:27:36.000Z</time>
      </trkpt>
      <trkpt lat="43.69354" lon="3.83371">
        <ele>90</ele>
        <time>2020-10-25T13:27:37.000Z</time>
      </trkpt>
      <trkpt lat="43.69351" lon="3.83373">
        <ele>90</ele>
        <time>2020-10-25T13:27:38.000Z</time>
      </trkpt>
      <trkpt lat="43.69349" lon="3.83374">
        <ele>90</ele>
        <time>2020-10-25T13:27:39.000Z</time>
      </trkpt>
      <trkpt lat="43.69346" lon="3.83375">
        <ele>90</ele>
        <time>2020-10-25T13:27:40.000Z</time>
      </trkpt>
      <trkpt lat="43.69344" lon="3.83376">
        <ele>90</ele>
        <time>2020-10-25T13:27:41.000Z</time>
      </trkpt>
      <trkpt lat="43.69341" lon="3.83377">
        <ele>90</ele>
        <time>2020-10-25T13:27:42.000Z</time>
      </trkpt>
      <trkpt lat="43.69338" lon="3.83379">
        <ele>90</ele>
        <time>2020-10-25T13:27:43.000Z</time>
      </trkpt>
      <trkpt lat="43.69335" lon="3.83381">
        <ele>90</ele>
        <time>2020-10-25T13:27:44.000Z</time>
      </trkpt>
      <trkpt lat="43.69333" lon="3.83382">
        <ele>90</ele>
        <time>2020-10-25T13:27:45.000Z</time>
      </trkpt>
      <trkpt lat="43.6933" lon="3.83383">
        <ele>90</ele>
        <time>2020-10-25T13:27:46.000Z</time>
      </trkpt>
      <trkpt lat="43.69327" lon="3.83385">
        <ele>90</ele>
        <time>2020-10-25T13:27:47.000Z</time>
      </trkpt>
      <trkpt lat="43.69325" lon="3.83387">
        <ele>90</ele>
        <time>2020-10-25T13:27:48.000Z</time>
      </trkpt>
      <trkpt lat="43.69322" lon="3.83389">
        <ele>90</ele>
        <time>2020-10-25T13:27:49.000Z</time>
      </trkpt>
      <trkpt lat="43.6932" lon="3.83391">
        <ele>90</ele>
        <time>2020-10-25T13:27:50.000Z</time>
      </trkpt>
      <trkpt lat="43.69317" lon="3.83393">
        <ele>90</ele>
        <time>2020-10-25T13:27:51.000Z</time>
      </trkpt>
      <trkpt lat="43.69315" lon="3.83395">
        <ele>89.96999936</ele>
        <time>2020-10-25T13:27:52.000Z</time>
      </trkpt>
      <trkpt lat="43.69313" lon="3.83396">
        <ele>89.86999936</ele>
        <time>2020-10-25T13:27:53.000Z</time>
      </trkpt>
      <trkpt lat="43.69311" lon="3.83398">
        <ele>89.76999936</ele>
        <time>2020-10-25T13:27:54.000Z</time>
      </trkpt>
      <trkpt lat="43.69308" lon="3.83399">
        <ele>89.66999936</ele>
        <time>2020-10-25T13:27:55.000Z</time>
      </trkpt>
      <trkpt lat="43.69306" lon="3.83401">
        <ele>89.56999936</ele>
        <time>2020-10-25T13:27:56.000Z</time>
      </trkpt>
      <trkpt lat="43.69303" lon="3.83403">
        <ele>89.46999936</ele>
        <time>2020-10-25T13:27:57.000Z</time>
      </trkpt>
      <trkpt lat="43.693" lon="3.83405">
        <ele>89.36999936</ele>
        <time>2020-10-25T13:27:58.000Z</time>
      </trkpt>
      <trkpt lat="43.69298" lon="3.83408">
        <ele>89.26999936</ele>
        <time>2020-10-25T13:27:59.000Z</time>
      </trkpt>
      <trkpt lat="43.69295" lon="3.8341">
        <ele>89.16999936</ele>
        <time>2020-10-25T13:28:00.000Z</time>
      </trkpt>
      <trkpt lat="43.69293" lon="3.83412">
        <ele>89.06999936</ele>
        <time>2020-10-25T13:28:01.000Z</time>
      </trkpt>
      <trkpt lat="43.69291" lon="3.83414">
        <ele>89</ele>
        <time>2020-10-25T13:28:03.000Z</time>
      </trkpt>
      <trkpt lat="43.69288" lon="3.83414">
        <ele>89</ele>
        <time>2020-10-25T13:28:05.000Z</time>
      </trkpt>
      <trkpt lat="43.69287" lon="3.83416">
        <ele>89</ele>
        <time>2020-10-25T13:28:07.000Z</time>
      </trkpt>
      <trkpt lat="43.69284" lon="3.83419">
        <ele>89</ele>
        <time>2020-10-25T13:28:09.000Z</time>
      </trkpt>
      <trkpt lat="43.69282" lon="3.8342">
        <ele>89</ele>
        <time>2020-10-25T13:28:10.000Z</time>
      </trkpt>
      <trkpt lat="43.6928" lon="3.83422">
        <ele>89</ele>
        <time>2020-10-25T13:28:11.000Z</time>
      </trkpt>
      <trkpt lat="43.69277" lon="3.83424">
        <ele>89</ele>
        <time>2020-10-25T13:28:12.000Z</time>
      </trkpt>
      <trkpt lat="43.69275" lon="3.83426">
        <ele>89</ele>
        <time>2020-10-25T13:28:13.000Z</time>
      </trkpt>
      <trkpt lat="43.69274" lon="3.83429">
        <ele>89</ele>
        <time>2020-10-25T13:28:14.000Z</time>
      </trkpt>
      <trkpt lat="43.69273" lon="3.83431">
        <ele>89</ele>
        <time>2020-10-25T13:28:15.000Z</time>
      </trkpt>
      <trkpt lat="43.69273" lon="3.83436">
        <ele>89</ele>
        <time>2020-10-25T13:28:17.000Z</time>
      </trkpt>
      <trkpt lat="43.69273" lon="3.83439">
        <ele>89</ele>
        <time>2020-10-25T13:28:19.000Z</time>
      </trkpt>
      <trkpt lat="43.69274" lon="3.83443">
        <ele>89</ele>
        <time>2020-10-25T13:28:21.000Z</time>
      </trkpt>
      <trkpt lat="43.69275" lon="3.83445">
        <ele>89.1149540085</ele>
        <time>2020-10-25T13:28:23.000Z</time>
      </trkpt>
      <trkpt lat="43.69276" lon="3.83448">
        <ele>89.318413006792</ele>
        <time>2020-10-25T13:28:25.000Z</time>
      </trkpt>
      <trkpt lat="43.69277" lon="3.8345">
        <ele>89.521872005084</ele>
        <time>2020-10-25T13:28:27.000Z</time>
      </trkpt>
      <trkpt lat="43.69277" lon="3.83452">
        <ele>90</ele>
        <time>2020-10-25T13:28:32.000Z</time>
      </trkpt>
      <trkpt lat="43.69277" lon="3.83452">
        <ele>90</ele>
        <time>2020-10-25T13:28:34.000Z</time>
      </trkpt>
      <trkpt lat="43.69278" lon="3.83452">
        <ele>90</ele>
        <time>2020-10-25T13:28:55.000Z</time>
      </trkpt>
      <trkpt lat="43.69278" lon="3.83452">
        <ele>90</ele>
        <time>2020-10-25T13:28:58.000Z</time>
      </trkpt>
      <trkpt lat="43.69288" lon="3.83455">
        <ele>90</ele>
        <time>2020-10-25T13:29:17.000Z</time>
      </trkpt>
      <trkpt lat="43.69292" lon="3.83456">
        <ele>89.917720954976</ele>
        <time>2020-10-25T13:29:18.000Z</time>
      </trkpt>
      <trkpt lat="43.69295" lon="3.83458">
        <ele>89.812235865335</ele>
        <time>2020-10-25T13:29:19.000Z</time>
      </trkpt>
      <trkpt lat="43.69299" lon="3.83461">
        <ele>89.706750775695</ele>
        <time>2020-10-25T13:29:20.000Z</time>
      </trkpt>
      <trkpt lat="43.69302" lon="3.83465">
        <ele>89.601265686055</ele>
        <time>2020-10-25T13:29:21.000Z</time>
      </trkpt>
      <trkpt lat="43.69304" lon="3.8347">
        <ele>89.495780596414</ele>
        <time>2020-10-25T13:29:22.000Z</time>
      </trkpt>
      <trkpt lat="43.69305" lon="3.83474">
        <ele>89.390295506774</ele>
        <time>2020-10-25T13:29:23.000Z</time>
      </trkpt>
      <trkpt lat="43.69303" lon="3.83478">
        <ele>89.284810417134</ele>
        <time>2020-10-25T13:29:24.000Z</time>
      </trkpt>
      <trkpt lat="43.69302" lon="3.83482">
        <ele>89.179325327493</ele>
        <time>2020-10-25T13:29:25.000Z</time>
      </trkpt>
      <trkpt lat="43.69299" lon="3.83485">
        <ele>89.073840237853</ele>
        <time>2020-10-25T13:29:26.000Z</time>
      </trkpt>
      <trkpt lat="43.69297" lon="3.83489">
        <ele>89</ele>
        <time>2020-10-25T13:29:27.000Z</time>
      </trkpt>
      <trkpt lat="43.69295" lon="3.83493">
        <ele>89</ele>
        <time>2020-10-25T13:29:28.000Z</time>
      </trkpt>
      <trkpt lat="43.69294" lon="3.83497">
        <ele>89</ele>
        <time>2020-10-25T13:29:29.000Z</time>
      </trkpt>
      <trkpt lat="43.69293" lon="3.83501">
        <ele>89</ele>
        <time>2020-10-25T13:29:30.000Z</time>
      </trkpt>
      <trkpt lat="43.69292" lon="3.83506">
        <ele>89</ele>
        <time>2020-10-25T13:29:31.000Z</time>
      </trkpt>
      <trkpt lat="43.69292" lon="3.83511">
        <ele>89</ele>
        <time>2020-10-25T13:29:32.000Z</time>
      </trkpt>
      <trkpt lat="43.69293" lon="3.83515">
        <ele>89</ele>
        <time>2020-10-25T13:29:33.000Z</time>
      </trkpt>
      <trkpt lat="43.69294" lon="3.83519">
        <ele>89</ele>
        <time>2020-10-25T13:29:34.000Z</time>
      </trkpt>
      <trkpt lat="43.69295" lon="3.83523">
        <ele>89</ele>
        <time>2020-10-25T13:29:35.000Z</time>
      </trkpt>
      <trkpt lat="43.69296" lon="3.83527">
        <ele>89</ele>
        <time>2020-10-25T13:29:36.000Z</time>
      </trkpt>
      <trkpt lat="43.69297" lon="3.8353">
        <ele>89</ele>
        <time>2020-10-25T13:29:37.000Z</time>
      </trkpt>
      <trkpt lat="43.69299" lon="3.83533">
        <ele>89</ele>
        <time>2020-10-25T13:29:38.000Z</time>
      </trkpt>
      <trkpt lat="43.69301" lon="3.83536">
        <ele>89</ele>
        <time>2020-10-25T13:29:39.000Z</time>
      </trkpt>
      <trkpt lat="43.69303" lon="3.83538">
        <ele>89</ele>
        <time>2020-10-25T13:29:40.000Z</time>
      </trkpt>
      <trkpt lat="43.69305" lon="3.8354">
        <ele>89</ele>
        <time>2020-10-25T13:29:41.000Z</time>
      </trkpt>
      <trkpt lat="43.69308" lon="3.83541">
        <ele>89</ele>
        <time>2020-10-25T13:29:42.000Z</time>
      </trkpt>
      <trkpt lat="43.69312" lon="3.83541">
        <ele>89</ele>
        <time>2020-10-25T13:29:43.000Z</time>
      </trkpt>
      <trkpt lat="43.69315" lon="3.83541">
        <ele>89</ele>
        <time>2020-10-25T13:29:44.000Z</time>
      </trkpt>
      <trkpt lat="43.69319" lon="3.83541">
        <ele>89</ele>
        <time>2020-10-25T13:29:45.000Z</time>
      </trkpt>
      <trkpt lat="43.69322" lon="3.8354">
        <ele>89</ele>
        <time>2020-10-25T13:29:46.000Z</time>
      </trkpt>
      <trkpt lat="43.69325" lon="3.83539">
        <ele>89</ele>
        <time>2020-10-25T13:29:47.000Z</time>
      </trkpt>
      <trkpt lat="43.69328" lon="3.83538">
        <ele>89</ele>
        <time>2020-10-25T13:29:48.000Z</time>
      </trkpt>
      <trkpt lat="43.69331" lon="3.83536">
        <ele>89</ele>
        <time>2020-10-25T13:29:49.000Z</time>
      </trkpt>
      <trkpt lat="43.69334" lon="3.83534">
        <ele>89</ele>
        <time>2020-10-25T13:29:50.000Z</time>
      </trkpt>
      <trkpt lat="43.69337" lon="3.83533">
        <ele>89</ele>
        <time>2020-10-25T13:29:51.000Z</time>
      </trkpt>
      <trkpt lat="43.69339" lon="3.83532">
        <ele>89</ele>
        <time>2020-10-25T13:29:52.000Z</time>
      </trkpt>
      <trkpt lat="43.69341" lon="3.83531">
        <ele>89</ele>
        <time>2020-10-25T13:29:53.000Z</time>
      </trkpt>
      <trkpt lat="43.69344" lon="3.83529">
        <ele>89</ele>
        <time>2020-10-25T13:29:54.000Z</time>
      </trkpt>
      <trkpt lat="43.69346" lon="3.83528">
        <ele>89</ele>
        <time>2020-10-25T13:29:55.000Z</time>
      </trkpt>
      <trkpt lat="43.69348" lon="3.83527">
        <ele>89</ele>
        <time>2020-10-25T13:29:56.000Z</time>
      </trkpt>
      <trkpt lat="43.69351" lon="3.83526">
        <ele>89.02999936</ele>
        <time>2020-10-25T13:29:57.000Z</time>
      </trkpt>
      <trkpt lat="43.69354" lon="3.83525">
        <ele>89.12999936</ele>
        <time>2020-10-25T13:29:58.000Z</time>
      </trkpt>
      <trkpt lat="43.69357" lon="3.83525">
        <ele>89.22999936</ele>
        <time>2020-10-25T13:29:59.000Z</time>
      </trkpt>
      <trkpt lat="43.6936" lon="3.83524">
        <ele>89.32999936</ele>
        <time>2020-10-25T13:30:00.000Z</time>
      </trkpt>
      <trkpt lat="43.69362" lon="3.83523">
        <ele>89.42999936</ele>
        <time>2020-10-25T13:30:01.000Z</time>
      </trkpt>
      <trkpt lat="43.69365" lon="3.83523">
        <ele>89.52999936</ele>
        <time>2020-10-25T13:30:02.000Z</time>
      </trkpt>
      <trkpt lat="43.69368" lon="3.83522">
        <ele>89.62999936</ele>
        <time>2020-10-25T13:30:03.000Z</time>
      </trkpt>
      <trkpt lat="43.6937" lon="3.83521">
        <ele>89.72999936</ele>
        <time>2020-10-25T13:30:04.000Z</time>
      </trkpt>
      <trkpt lat="43.69373" lon="3.8352">
        <ele>89.82999936</ele>
        <time>2020-10-25T13:30:05.000Z</time>
      </trkpt>
      <trkpt lat="43.69376" lon="3.83518">
        <ele>89.92999936</ele>
        <time>2020-10-25T13:30:06.000Z</time>
      </trkpt>
      <trkpt lat="43.69378" lon="3.83517">
        <ele>90</ele>
        <time>2020-10-25T13:30:07.000Z</time>
      </trkpt>
      <trkpt lat="43.69381" lon="3.83516">
        <ele>90</ele>
        <time>2020-10-25T13:30:08.000Z</time>
      </trkpt>
      <trkpt lat="43.69382" lon="3.83515">
        <ele>90</ele>
        <time>2020-10-25T13:30:09.000Z</time>
      </trkpt>
      <trkpt lat="43.69384" lon="3.83511">
        <ele>90</ele>
        <time>2020-10-25T13:30:11.000Z</time>
      </trkpt>
      <trkpt lat="43.69387" lon="3.83509">
        <ele>90</ele>
        <time>2020-10-25T13:30:13.000Z</time>
      </trkpt>
      <trkpt lat="43.69388" lon="3.83512">
        <ele>90</ele>
        <time>2020-10-25T13:30:15.000Z</time>
      </trkpt>
      <trkpt lat="43.69386" lon="3.83513">
        <ele>90</ele>
        <time>2020-10-25T13:30:17.000Z</time>
      </trkpt>
      <trkpt lat="43.69383" lon="3.83514">
        <ele>90</ele>
        <time>2020-10-25T13:30:19.000Z</time>
      </trkpt>
      <trkpt lat="43.69384" lon="3.83517">
        <ele>90</ele>
        <time>2020-10-25T13:30:21.000Z</time>
      </trkpt>
      <trkpt lat="43.69385" lon="3.8352">
        <ele>90</ele>
        <time>2020-10-25T13:30:23.000Z</time>
      </trkpt>
      <trkpt lat="43.69387" lon="3.83525">
        <ele>90</ele>
        <time>2020-10-25T13:30:25.000Z</time>
      </trkpt>
      <trkpt lat="43.69388" lon="3.83528">
        <ele>90</ele>
        <time>2020-10-25T13:30:26.000Z</time>
      </trkpt>
      <trkpt lat="43.6939" lon="3.8353">
        <ele>90.017223581042</ele>
        <time>2020-10-25T13:30:27.000Z</time>
      </trkpt>
      <trkpt lat="43.69392" lon="3.8353">
        <ele>90.118540670787</ele>
        <time>2020-10-25T13:30:28.000Z</time>
      </trkpt>
      <trkpt lat="43.69394" lon="3.8353">
        <ele>90.219857760532</ele>
        <time>2020-10-25T13:30:29.000Z</time>
      </trkpt>
      <trkpt lat="43.69397" lon="3.83531">
        <ele>90.321174850278</ele>
        <time>2020-10-25T13:30:30.000Z</time>
      </trkpt>
      <trkpt lat="43.69399" lon="3.83534">
        <ele>90.422491940023</ele>
        <time>2020-10-25T13:30:31.000Z</time>
      </trkpt>
      <trkpt lat="43.69402" lon="3.83536">
        <ele>90.523809029768</ele>
        <time>2020-10-25T13:30:32.000Z</time>
      </trkpt>
      <trkpt lat="43.69404" lon="3.83539">
        <ele>90.625126119513</ele>
        <time>2020-10-25T13:30:33.000Z</time>
      </trkpt>
      <trkpt lat="43.69405" lon="3.83541">
        <ele>90.726443209259</ele>
        <time>2020-10-25T13:30:34.000Z</time>
      </trkpt>
      <trkpt lat="43.69407" lon="3.83543">
        <ele>90.827760299004</ele>
        <time>2020-10-25T13:30:35.000Z</time>
      </trkpt>
      <trkpt lat="43.69408" lon="3.83545">
        <ele>90.929077388749</ele>
        <time>2020-10-25T13:30:36.000Z</time>
      </trkpt>
      <trkpt lat="43.6941" lon="3.83546">
        <ele>91.05999872</ele>
        <time>2020-10-25T13:30:37.000Z</time>
      </trkpt>
      <trkpt lat="43.69412" lon="3.83548">
        <ele>91.25999872</ele>
        <time>2020-10-25T13:30:38.000Z</time>
      </trkpt>
      <trkpt lat="43.69414" lon="3.83549">
        <ele>91.45999872</ele>
        <time>2020-10-25T13:30:39.000Z</time>
      </trkpt>
      <trkpt lat="43.69416" lon="3.8355">
        <ele>91.65999872</ele>
        <time>2020-10-25T13:30:40.000Z</time>
      </trkpt>
      <trkpt lat="43.69418" lon="3.83551">
        <ele>91.85999872</ele>
        <time>2020-10-25T13:30:41.000Z</time>
      </trkpt>
      <trkpt lat="43.69419" lon="3.83552">
        <ele>92.05999872</ele>
        <time>2020-10-25T13:30:42.000Z</time>
      </trkpt>
      <trkpt lat="43.69421" lon="3.83554">
        <ele>92.25999872</ele>
        <time>2020-10-25T13:30:43.000Z</time>
      </trkpt>
      <trkpt lat="43.69422" lon="3.83556">
        <ele>92.45999872</ele>
        <time>2020-10-25T13:30:44.000Z</time>
      </trkpt>
      <trkpt lat="43.69423" lon="3.83558">
        <ele>92.65999872</ele>
        <time>2020-10-25T13:30:45.000Z</time>
      </trkpt>
      <trkpt lat="43.69425" lon="3.8356">
        <ele>92.85999872</ele>
        <time>2020-10-25T13:30:46.000Z</time>
      </trkpt>
      <trkpt lat="43.69427" lon="3.83561">
        <ele>93.05999872</ele>
        <time>2020-10-25T13:30:47.000Z</time>
      </trkpt>
      <trkpt lat="43.69428" lon="3.83562">
        <ele>93.25999872</ele>
        <time>2020-10-25T13:30:48.000Z</time>
      </trkpt>
      <trkpt lat="43.6943" lon="3.83564">
        <ele>93.45999872</ele>
        <time>2020-10-25T13:30:49.000Z</time>
      </trkpt>
      <trkpt lat="43.69432" lon="3.83565">
        <ele>93.65999872</ele>
        <time>2020-10-25T13:30:50.000Z</time>
      </trkpt>
      <trkpt lat="43.69434" lon="3.83566">
        <ele>93.85999872</ele>
        <time>2020-10-25T13:30:51.000Z</time>
      </trkpt>
      <trkpt lat="43.69435" lon="3.83568">
        <ele>94.05999872</ele>
        <time>2020-10-25T13:30:52.000Z</time>
      </trkpt>
      <trkpt lat="43.69437" lon="3.8357">
        <ele>94.25999872</ele>
        <time>2020-10-25T13:30:53.000Z</time>
      </trkpt>
      <trkpt lat="43.69439" lon="3.83571">
        <ele>94.45999872</ele>
        <time>2020-10-25T13:30:54.000Z</time>
      </trkpt>
      <trkpt lat="43.6944" lon="3.83573">
        <ele>94.65999872</ele>
        <time>2020-10-25T13:30:55.000Z</time>
      </trkpt>
      <trkpt lat="43.69443" lon="3.83575">
        <ele>95.02999936</ele>
        <time>2020-10-25T13:30:57.000Z</time>
      </trkpt>
      <trkpt lat="43.69446" lon="3.83577">
        <ele>95.22999936</ele>
        <time>2020-10-25T13:30:59.000Z</time>
      </trkpt>
      <trkpt lat="43.69448" lon="3.83578">
        <ele>95.42999936</ele>
        <time>2020-10-25T13:31:01.000Z</time>
      </trkpt>
      <trkpt lat="43.69451" lon="3.83577">
        <ele>95.62999936</ele>
        <time>2020-10-25T13:31:03.000Z</time>
      </trkpt>
      <trkpt lat="43.69453" lon="3.83576">
        <ele>95.72999936</ele>
        <time>2020-10-25T13:31:04.000Z</time>
      </trkpt>
      <trkpt lat="43.69455" lon="3.83575">
        <ele>95.82999936</ele>
        <time>2020-10-25T13:31:05.000Z</time>
      </trkpt>
      <trkpt lat="43.69457" lon="3.83573">
        <ele>95.92999936</ele>
        <time>2020-10-25T13:31:06.000Z</time>
      </trkpt>
      <trkpt lat="43.6946" lon="3.83571">
        <ele>96.02999936</ele>
        <time>2020-10-25T13:31:07.000Z</time>
      </trkpt>
      <trkpt lat="43.69462" lon="3.83569">
        <ele>96.12999936</ele>
        <time>2020-10-25T13:31:08.000Z</time>
      </trkpt>
      <trkpt lat="43.69464" lon="3.83568">
        <ele>96.22999936</ele>
        <time>2020-10-25T13:31:09.000Z</time>
      </trkpt>
      <trkpt lat="43.69466" lon="3.83567">
        <ele>96.32999936</ele>
        <time>2020-10-25T13:31:10.000Z</time>
      </trkpt>
      <trkpt lat="43.69468" lon="3.83567">
        <ele>96.42999936</ele>
        <time>2020-10-25T13:31:11.000Z</time>
      </trkpt>
      <trkpt lat="43.6947" lon="3.83567">
        <ele>96.52999936</ele>
        <time>2020-10-25T13:31:12.000Z</time>
      </trkpt>
      <trkpt lat="43.69473" lon="3.83567">
        <ele>96.72999936</ele>
        <time>2020-10-25T13:31:14.000Z</time>
      </trkpt>
      <trkpt lat="43.69475" lon="3.83568">
        <ele>96.92999936</ele>
        <time>2020-10-25T13:31:16.000Z</time>
      </trkpt>
      <trkpt lat="43.69478" lon="3.83569">
        <ele>97.1269525</ele>
        <time>2020-10-25T13:31:18.000Z</time>
      </trkpt>
      <trkpt lat="43.6948" lon="3.83573">
        <ele>97.322265</ele>
        <time>2020-10-25T13:31:20.000Z</time>
      </trkpt>
      <trkpt lat="43.6948" lon="3.83577">
        <ele>97.5175775</ele>
        <time>2020-10-25T13:31:22.000Z</time>
      </trkpt>
      <trkpt lat="43.6948" lon="3.8358">
        <ele>97.61523375</ele>
        <time>2020-10-25T13:31:23.000Z</time>
      </trkpt>
      <trkpt lat="43.6948" lon="3.83583">
        <ele>97.71289</ele>
        <time>2020-10-25T13:31:24.000Z</time>
      </trkpt>
      <trkpt lat="43.69479" lon="3.83586">
        <ele>97.81054625</ele>
        <time>2020-10-25T13:31:25.000Z</time>
      </trkpt>
      <trkpt lat="43.6948" lon="3.8359">
        <ele>97.9082025</ele>
        <time>2020-10-25T13:31:26.000Z</time>
      </trkpt>
      <trkpt lat="43.69479" lon="3.83594">
        <ele>98.012293770492</ele>
        <time>2020-10-25T13:31:27.000Z</time>
      </trkpt>
      <trkpt lat="43.69479" lon="3.836">
        <ele>98.217211803279</ele>
        <time>2020-10-25T13:31:28.000Z</time>
      </trkpt>
      <trkpt lat="43.69479" lon="3.83604">
        <ele>98.422129836066</ele>
        <time>2020-10-25T13:31:29.000Z</time>
      </trkpt>
      <trkpt lat="43.69479" lon="3.83607">
        <ele>98.627047868853</ele>
        <time>2020-10-25T13:31:30.000Z</time>
      </trkpt>
      <trkpt lat="43.69479" lon="3.83609">
        <ele>98.831965901639</ele>
        <time>2020-10-25T13:31:31.000Z</time>
      </trkpt>
      <trkpt lat="43.69479" lon="3.83613">
        <ele>99.241801967213</ele>
        <time>2020-10-25T13:31:33.000Z</time>
      </trkpt>
      <trkpt lat="43.69479" lon="3.83618">
        <ele>99.651638032787</ele>
        <time>2020-10-25T13:31:35.000Z</time>
      </trkpt>
      <trkpt lat="43.6948" lon="3.83622">
        <ele>100.02918229314</ele>
        <time>2020-10-25T13:31:37.000Z</time>
      </trkpt>
      <trkpt lat="43.69482" lon="3.83625">
        <ele>100.22373506457</ele>
        <time>2020-10-25T13:31:39.000Z</time>
      </trkpt>
      <trkpt lat="43.69484" lon="3.83627">
        <ele>100.418287836</ele>
        <time>2020-10-25T13:31:41.000Z</time>
      </trkpt>
      <trkpt lat="43.69487" lon="3.83628">
        <ele>100.61284060743</ele>
        <time>2020-10-25T13:31:43.000Z</time>
      </trkpt>
      <trkpt lat="43.69491" lon="3.83628">
        <ele>100.80739337886</ele>
        <time>2020-10-25T13:31:45.000Z</time>
      </trkpt>
      <trkpt lat="43.69492" lon="3.83628">
        <ele>100.90466976457</ele>
        <time>2020-10-25T13:31:46.000Z</time>
      </trkpt>
      <trkpt lat="43.69494" lon="3.83628">
        <ele>101.00205826889</ele>
        <time>2020-10-25T13:31:47.000Z</time>
      </trkpt>
      <trkpt lat="43.69496" lon="3.83627">
        <ele>101.10493879185</ele>
        <time>2020-10-25T13:31:48.000Z</time>
      </trkpt>
      <trkpt lat="43.69498" lon="3.83627">
        <ele>101.20781931481</ele>
        <time>2020-10-25T13:31:49.000Z</time>
      </trkpt>
      <trkpt lat="43.695" lon="3.83628">
        <ele>101.31069983776</ele>
        <time>2020-10-25T13:31:50.000Z</time>
      </trkpt>
      <trkpt lat="43.69503" lon="3.83631">
        <ele>101.51646088367</ele>
        <time>2020-10-25T13:31:52.000Z</time>
      </trkpt>
      <trkpt lat="43.69503" lon="3.83633">
        <ele>101.61934140663</ele>
        <time>2020-10-25T13:31:53.000Z</time>
      </trkpt>
      <trkpt lat="43.69505" lon="3.83638">
        <ele>101.82510245254</ele>
        <time>2020-10-25T13:31:55.000Z</time>
      </trkpt>
      <trkpt lat="43.69505" lon="3.8364">
        <ele>101.9279829755</ele>
        <time>2020-10-25T13:31:56.000Z</time>
      </trkpt>
      <trkpt lat="43.69506" lon="3.83643">
        <ele>102</ele>
        <time>2020-10-25T13:31:57.000Z</time>
      </trkpt>
      <trkpt lat="43.69508" lon="3.83647">
        <ele>102</ele>
        <time>2020-10-25T13:31:58.000Z</time>
      </trkpt>
      <trkpt lat="43.6951" lon="3.83649">
        <ele>102</ele>
        <time>2020-10-25T13:31:59.000Z</time>
      </trkpt>
      <trkpt lat="43.69512" lon="3.83651">
        <ele>102</ele>
        <time>2020-10-25T13:32:00.000Z</time>
      </trkpt>
      <trkpt lat="43.69514" lon="3.83652">
        <ele>102</ele>
        <time>2020-10-25T13:32:01.000Z</time>
      </trkpt>
      <trkpt lat="43.69516" lon="3.83653">
        <ele>102</ele>
        <time>2020-10-25T13:32:02.000Z</time>
      </trkpt>
      <trkpt lat="43.69519" lon="3.83657">
        <ele>102</ele>
        <time>2020-10-25T13:32:04.000Z</time>
      </trkpt>
      <trkpt lat="43.69519" lon="3.8366">
        <ele>102</ele>
        <time>2020-10-25T13:32:05.000Z</time>
      </trkpt>
      <trkpt lat="43.69519" lon="3.83663">
        <ele>102</ele>
        <time>2020-10-25T13:32:06.000Z</time>
      </trkpt>
      <trkpt lat="43.69519" lon="3.83667">
        <ele>101.97000064</ele>
        <time>2020-10-25T13:32:07.000Z</time>
      </trkpt>
      <trkpt lat="43.69517" lon="3.83671">
        <ele>101.87000064</ele>
        <time>2020-10-25T13:32:08.000Z</time>
      </trkpt>
      <trkpt lat="43.69516" lon="3.83675">
        <ele>101.77000064</ele>
        <time>2020-10-25T13:32:09.000Z</time>
      </trkpt>
      <trkpt lat="43.69514" lon="3.83679">
        <ele>101.67000064</ele>
        <time>2020-10-25T13:32:10.000Z</time>
      </trkpt>
      <trkpt lat="43.69513" lon="3.83684">
        <ele>101.57000064</ele>
        <time>2020-10-25T13:32:11.000Z</time>
      </trkpt>
      <trkpt lat="43.69511" lon="3.83688">
        <ele>101.47000064</ele>
        <time>2020-10-25T13:32:12.000Z</time>
      </trkpt>
      <trkpt lat="43.69509" lon="3.83691">
        <ele>101.37000064</ele>
        <time>2020-10-25T13:32:13.000Z</time>
      </trkpt>
      <trkpt lat="43.69507" lon="3.83694">
        <ele>101.27000064</ele>
        <time>2020-10-25T13:32:14.000Z</time>
      </trkpt>
      <trkpt lat="43.69506" lon="3.83697">
        <ele>101.17000064</ele>
        <time>2020-10-25T13:32:15.000Z</time>
      </trkpt>
      <trkpt lat="43.69504" lon="3.83701">
        <ele>101.07000064</ele>
        <time>2020-10-25T13:32:16.000Z</time>
      </trkpt>
      <trkpt lat="43.69503" lon="3.83704">
        <ele>100.97000064</ele>
        <time>2020-10-25T13:32:17.000Z</time>
      </trkpt>
      <trkpt lat="43.69501" lon="3.83709">
        <ele>100.87000064</ele>
        <time>2020-10-25T13:32:18.000Z</time>
      </trkpt>
      <trkpt lat="43.695" lon="3.83713">
        <ele>100.77000064</ele>
        <time>2020-10-25T13:32:19.000Z</time>
      </trkpt>
      <trkpt lat="43.69498" lon="3.83717">
        <ele>100.67000064</ele>
        <time>2020-10-25T13:32:20.000Z</time>
      </trkpt>
      <trkpt lat="43.69496" lon="3.83722">
        <ele>100.57000064</ele>
        <time>2020-10-25T13:32:21.000Z</time>
      </trkpt>
      <trkpt lat="43.69494" lon="3.83727">
        <ele>100.47000064</ele>
        <time>2020-10-25T13:32:22.000Z</time>
      </trkpt>
      <trkpt lat="43.69493" lon="3.83731">
        <ele>100.37000064</ele>
        <time>2020-10-25T13:32:23.000Z</time>
      </trkpt>
      <trkpt lat="43.69491" lon="3.83735">
        <ele>100.27000064</ele>
        <time>2020-10-25T13:32:24.000Z</time>
      </trkpt>
      <trkpt lat="43.69489" lon="3.8374">
        <ele>100.17000064</ele>
        <time>2020-10-25T13:32:25.000Z</time>
      </trkpt>
      <trkpt lat="43.69488" lon="3.83745">
        <ele>100.07000064</ele>
        <time>2020-10-25T13:32:26.000Z</time>
      </trkpt>
      <trkpt lat="43.69486" lon="3.8375">
        <ele>99.970817706855</ele>
        <time>2020-10-25T13:32:27.000Z</time>
      </trkpt>
      <trkpt lat="43.69484" lon="3.83755">
        <ele>99.873541321141</ele>
        <time>2020-10-25T13:32:28.000Z</time>
      </trkpt>
      <trkpt lat="43.69483" lon="3.83759">
        <ele>99.776264935427</ele>
        <time>2020-10-25T13:32:29.000Z</time>
      </trkpt>
      <trkpt lat="43.69481" lon="3.83764">
        <ele>99.678988549713</ele>
        <time>2020-10-25T13:32:30.000Z</time>
      </trkpt>
      <trkpt lat="43.6948" lon="3.83769">
        <ele>99.581712164</ele>
        <time>2020-10-25T13:32:31.000Z</time>
      </trkpt>
      <trkpt lat="43.69479" lon="3.83774">
        <ele>99.484435778286</ele>
        <time>2020-10-25T13:32:32.000Z</time>
      </trkpt>
      <trkpt lat="43.69478" lon="3.8378">
        <ele>99.387159392572</ele>
        <time>2020-10-25T13:32:33.000Z</time>
      </trkpt>
      <trkpt lat="43.69477" lon="3.83786">
        <ele>99.289883006858</ele>
        <time>2020-10-25T13:32:34.000Z</time>
      </trkpt>
      <trkpt lat="43.69475" lon="3.83791">
        <ele>99.192606621144</ele>
        <time>2020-10-25T13:32:35.000Z</time>
      </trkpt>
      <trkpt lat="43.69474" lon="3.83796">
        <ele>99.095330235431</ele>
        <time>2020-10-25T13:32:36.000Z</time>
      </trkpt>
      <trkpt lat="43.69473" lon="3.83802">
        <ele>99</ele>
        <time>2020-10-25T13:32:37.000Z</time>
      </trkpt>
      <trkpt lat="43.69471" lon="3.83806">
        <ele>99</ele>
        <time>2020-10-25T13:32:38.000Z</time>
      </trkpt>
      <trkpt lat="43.6947" lon="3.83811">
        <ele>99</ele>
        <time>2020-10-25T13:32:39.000Z</time>
      </trkpt>
      <trkpt lat="43.69469" lon="3.83816">
        <ele>99</ele>
        <time>2020-10-25T13:32:40.000Z</time>
      </trkpt>
      <trkpt lat="43.69467" lon="3.83821">
        <ele>99</ele>
        <time>2020-10-25T13:32:41.000Z</time>
      </trkpt>
      <trkpt lat="43.69465" lon="3.83826">
        <ele>99</ele>
        <time>2020-10-25T13:32:42.000Z</time>
      </trkpt>
      <trkpt lat="43.69463" lon="3.8383">
        <ele>99</ele>
        <time>2020-10-25T13:32:43.000Z</time>
      </trkpt>
      <trkpt lat="43.69461" lon="3.83835">
        <ele>99</ele>
        <time>2020-10-25T13:32:44.000Z</time>
      </trkpt>
      <trkpt lat="43.69459" lon="3.83839">
        <ele>99</ele>
        <time>2020-10-25T13:32:45.000Z</time>
      </trkpt>
      <trkpt lat="43.69458" lon="3.83844">
        <ele>99</ele>
        <time>2020-10-25T13:32:46.000Z</time>
      </trkpt>
      <trkpt lat="43.69456" lon="3.83848">
        <ele>99</ele>
        <time>2020-10-25T13:32:47.000Z</time>
      </trkpt>
      <trkpt lat="43.69454" lon="3.83853">
        <ele>98.896907284515</ele>
        <time>2020-10-25T13:32:48.000Z</time>
      </trkpt>
      <trkpt lat="43.69452" lon="3.83857">
        <ele>98.79381456903</ele>
        <time>2020-10-25T13:32:49.000Z</time>
      </trkpt>
      <trkpt lat="43.6945" lon="3.83862">
        <ele>98.690721853544</ele>
        <time>2020-10-25T13:32:50.000Z</time>
      </trkpt>
      <trkpt lat="43.69449" lon="3.83866">
        <ele>98.587629138059</ele>
        <time>2020-10-25T13:32:51.000Z</time>
      </trkpt>
      <trkpt lat="43.69447" lon="3.8387">
        <ele>98.484536422574</ele>
        <time>2020-10-25T13:32:52.000Z</time>
      </trkpt>
      <trkpt lat="43.69446" lon="3.83874">
        <ele>98.381443707089</ele>
        <time>2020-10-25T13:32:53.000Z</time>
      </trkpt>
      <trkpt lat="43.69444" lon="3.83879">
        <ele>98.278350991604</ele>
        <time>2020-10-25T13:32:54.000Z</time>
      </trkpt>
      <trkpt lat="43.69442" lon="3.83883">
        <ele>98.175258276118</ele>
        <time>2020-10-25T13:32:55.000Z</time>
      </trkpt>
      <trkpt lat="43.6944" lon="3.83887">
        <ele>98.072165560633</ele>
        <time>2020-10-25T13:32:56.000Z</time>
      </trkpt>
      <trkpt lat="43.69438" lon="3.8389">
        <ele>97.970060499839</ele>
        <time>2020-10-25T13:32:57.000Z</time>
      </trkpt>
      <trkpt lat="43.69436" lon="3.83893">
        <ele>97.870260036893</ele>
        <time>2020-10-25T13:32:58.000Z</time>
      </trkpt>
      <trkpt lat="43.69434" lon="3.83896">
        <ele>97.770459573946</ele>
        <time>2020-10-25T13:32:59.000Z</time>
      </trkpt>
      <trkpt lat="43.69433" lon="3.83899">
        <ele>97.670659111</ele>
        <time>2020-10-25T13:33:00.000Z</time>
      </trkpt>
      <trkpt lat="43.6943" lon="3.83905">
        <ele>97.471058185107</ele>
        <time>2020-10-25T13:33:02.000Z</time>
      </trkpt>
      <trkpt lat="43.69427" lon="3.83907">
        <ele>97.371257722161</ele>
        <time>2020-10-25T13:33:03.000Z</time>
      </trkpt>
      <trkpt lat="43.69421" lon="3.83911">
        <ele>97.171656796268</ele>
        <time>2020-10-25T13:33:05.000Z</time>
      </trkpt>
      <trkpt lat="43.69419" lon="3.83914">
        <ele>97.071856333321</ele>
        <time>2020-10-25T13:33:06.000Z</time>
      </trkpt>
      <trkpt lat="43.69417" lon="3.83916">
        <ele>97</ele>
        <time>2020-10-25T13:33:07.000Z</time>
      </trkpt>
      <trkpt lat="43.69414" lon="3.83919">
        <ele>97</ele>
        <time>2020-10-25T13:33:08.000Z</time>
      </trkpt>
      <trkpt lat="43.69412" lon="3.83922">
        <ele>97</ele>
        <time>2020-10-25T13:33:09.000Z</time>
      </trkpt>
      <trkpt lat="43.69409" lon="3.83924">
        <ele>97</ele>
        <time>2020-10-25T13:33:10.000Z</time>
      </trkpt>
      <trkpt lat="43.69406" lon="3.83927">
        <ele>97</ele>
        <time>2020-10-25T13:33:11.000Z</time>
      </trkpt>
      <trkpt lat="43.69403" lon="3.83929">
        <ele>97</ele>
        <time>2020-10-25T13:33:12.000Z</time>
      </trkpt>
      <trkpt lat="43.694" lon="3.83931">
        <ele>97</ele>
        <time>2020-10-25T13:33:13.000Z</time>
      </trkpt>
      <trkpt lat="43.69397" lon="3.83933">
        <ele>97</ele>
        <time>2020-10-25T13:33:14.000Z</time>
      </trkpt>
      <trkpt lat="43.69394" lon="3.83936">
        <ele>97</ele>
        <time>2020-10-25T13:33:15.000Z</time>
      </trkpt>
      <trkpt lat="43.69391" lon="3.83938">
        <ele>97</ele>
        <time>2020-10-25T13:33:16.000Z</time>
      </trkpt>
      <trkpt lat="43.69387" lon="3.83935">
        <ele>96.935346206897</ele>
        <time>2020-10-25T13:33:17.000Z</time>
      </trkpt>
      <trkpt lat="43.69385" lon="3.83932">
        <ele>96.719828965517</ele>
        <time>2020-10-25T13:33:18.000Z</time>
      </trkpt>
      <trkpt lat="43.69382" lon="3.8393">
        <ele>96.504311724138</ele>
        <time>2020-10-25T13:33:19.000Z</time>
      </trkpt>
      <trkpt lat="43.69379" lon="3.83929">
        <ele>96.288794482759</ele>
        <time>2020-10-25T13:33:20.000Z</time>
      </trkpt>
      <trkpt lat="43.69376" lon="3.83929">
        <ele>96.073277241379</ele>
        <time>2020-10-25T13:33:21.000Z</time>
      </trkpt>
      <trkpt lat="43.69373" lon="3.83929">
        <ele>96</ele>
        <time>2020-10-25T13:33:22.000Z</time>
      </trkpt>
      <trkpt lat="43.69369" lon="3.83929">
        <ele>96</ele>
        <time>2020-10-25T13:33:23.000Z</time>
      </trkpt>
      <trkpt lat="43.69366" lon="3.83929">
        <ele>96</ele>
        <time>2020-10-25T13:33:24.000Z</time>
      </trkpt>
      <trkpt lat="43.69362" lon="3.83928">
        <ele>96</ele>
        <time>2020-10-25T13:33:25.000Z</time>
      </trkpt>
      <trkpt lat="43.69358" lon="3.83926">
        <ele>96</ele>
        <time>2020-10-25T13:33:26.000Z</time>
      </trkpt>
      <trkpt lat="43.69354" lon="3.83925">
        <ele>96.028056094233</ele>
        <time>2020-10-25T13:33:27.000Z</time>
      </trkpt>
      <trkpt lat="43.6935" lon="3.83923">
        <ele>96.128256430777</ele>
        <time>2020-10-25T13:33:28.000Z</time>
      </trkpt>
      <trkpt lat="43.69346" lon="3.8392">
        <ele>96.228456767322</ele>
        <time>2020-10-25T13:33:29.000Z</time>
      </trkpt>
      <trkpt lat="43.69341" lon="3.83917">
        <ele>96.328657103867</ele>
        <time>2020-10-25T13:33:30.000Z</time>
      </trkpt>
      <trkpt lat="43.69337" lon="3.83913">
        <ele>96.428857440412</ele>
        <time>2020-10-25T13:33:31.000Z</time>
      </trkpt>
      <trkpt lat="43.69332" lon="3.8391">
        <ele>96.529057776957</ele>
        <time>2020-10-25T13:33:32.000Z</time>
      </trkpt>
      <trkpt lat="43.69328" lon="3.83908">
        <ele>96.629258113502</ele>
        <time>2020-10-25T13:33:33.000Z</time>
      </trkpt>
      <trkpt lat="43.69324" lon="3.83907">
        <ele>96.729458450047</ele>
        <time>2020-10-25T13:33:34.000Z</time>
      </trkpt>
      <trkpt lat="43.6932" lon="3.83908">
        <ele>96.829658786592</ele>
        <time>2020-10-25T13:33:35.000Z</time>
      </trkpt>
      <trkpt lat="43.69317" lon="3.83908">
        <ele>96.929859123136</ele>
        <time>2020-10-25T13:33:36.000Z</time>
      </trkpt>
      <trkpt lat="43.69314" lon="3.83909">
        <ele>97.05999872</ele>
        <time>2020-10-25T13:33:37.000Z</time>
      </trkpt>
      <trkpt lat="43.69311" lon="3.83909">
        <ele>97.25999872</ele>
        <time>2020-10-25T13:33:38.000Z</time>
      </trkpt>
      <trkpt lat="43.69308" lon="3.83908">
        <ele>97.45999872</ele>
        <time>2020-10-25T13:33:39.000Z</time>
      </trkpt>
      <trkpt lat="43.69306" lon="3.83905">
        <ele>97.65999872</ele>
        <time>2020-10-25T13:33:40.000Z</time>
      </trkpt>
      <trkpt lat="43.69305" lon="3.83902">
        <ele>97.85999872</ele>
        <time>2020-10-25T13:33:41.000Z</time>
      </trkpt>
      <trkpt lat="43.69304" lon="3.83899">
        <ele>98.05999872</ele>
        <time>2020-10-25T13:33:42.000Z</time>
      </trkpt>
      <trkpt lat="43.69303" lon="3.83896">
        <ele>98.25999872</ele>
        <time>2020-10-25T13:33:43.000Z</time>
      </trkpt>
      <trkpt lat="43.69303" lon="3.83893">
        <ele>98.45999872</ele>
        <time>2020-10-25T13:33:44.000Z</time>
      </trkpt>
      <trkpt lat="43.69303" lon="3.8389">
        <ele>99.023123791352</ele>
        <time>2020-10-25T13:33:50.000Z</time>
      </trkpt>
      <trkpt lat="43.69287" lon="3.83886">
        <ele>105.96005939506</ele>
        <time>2020-10-25T13:34:23.000Z</time>
      </trkpt>
      <trkpt lat="43.69287" lon="3.83885">
        <ele>107</ele>
        <time>2020-10-25T13:34:27.000Z</time>
      </trkpt>
      <trkpt lat="43.69288" lon="3.83885">
        <ele>107</ele>
        <time>2020-10-25T13:34:29.000Z</time>
      </trkpt>
      <trkpt lat="43.69288" lon="3.83885">
        <ele>107.01122778443</ele>
        <time>2020-10-25T13:34:34.000Z</time>
      </trkpt>
      <trkpt lat="43.6928" lon="3.83885">
        <ele>107.98428167665</ele>
        <time>2020-10-25T13:34:47.000Z</time>
      </trkpt>
      <trkpt lat="43.69277" lon="3.83899">
        <ele>108.60970449323</ele>
        <time>2020-10-25T13:34:53.000Z</time>
      </trkpt>
      <trkpt lat="43.69281" lon="3.83911">
        <ele>109.1247595392</ele>
        <time>2020-10-25T13:34:58.000Z</time>
      </trkpt>
      <trkpt lat="43.69284" lon="3.83914">
        <ele>109.50863693429</ele>
        <time>2020-10-25T13:35:02.000Z</time>
      </trkpt>
      <trkpt lat="43.69286" lon="3.83916">
        <ele>109.98848367815</ele>
        <time>2020-10-25T13:35:07.000Z</time>
      </trkpt>
      <trkpt lat="43.69287" lon="3.83918">
        <ele>110</ele>
        <time>2020-10-25T13:35:08.000Z</time>
      </trkpt>
      <trkpt lat="43.69289" lon="3.83921">
        <ele>110</ele>
        <time>2020-10-25T13:35:09.000Z</time>
      </trkpt>
      <trkpt lat="43.69293" lon="3.83923">
        <ele>110</ele>
        <time>2020-10-25T13:35:10.000Z</time>
      </trkpt>
      <trkpt lat="43.69297" lon="3.83926">
        <ele>110</ele>
        <time>2020-10-25T13:35:11.000Z</time>
      </trkpt>
      <trkpt lat="43.693" lon="3.83928">
        <ele>110</ele>
        <time>2020-10-25T13:35:12.000Z</time>
      </trkpt>
      <trkpt lat="43.6931" lon="3.83938">
        <ele>110</ele>
        <time>2020-10-25T13:35:15.000Z</time>
      </trkpt>
      <trkpt lat="43.6932" lon="3.83947">
        <ele>109.89139409836</ele>
        <time>2020-10-25T13:35:18.000Z</time>
      </trkpt>
      <trkpt lat="43.69329" lon="3.83952">
        <ele>109.68647606557</ele>
        <time>2020-10-25T13:35:20.000Z</time>
      </trkpt>
      <trkpt lat="43.69339" lon="3.83958">
        <ele>109.48155803279</ele>
        <time>2020-10-25T13:35:22.000Z</time>
      </trkpt>
      <trkpt lat="43.6935" lon="3.83963">
        <ele>109.17418098361</ele>
        <time>2020-10-25T13:35:25.000Z</time>
      </trkpt>
      <trkpt lat="43.6936" lon="3.8397">
        <ele>109</ele>
        <time>2020-10-25T13:35:28.000Z</time>
      </trkpt>
      <trkpt lat="43.6937" lon="3.83977">
        <ele>109</ele>
        <time>2020-10-25T13:35:31.000Z</time>
      </trkpt>
      <trkpt lat="43.69377" lon="3.83986">
        <ele>109</ele>
        <time>2020-10-25T13:35:34.000Z</time>
      </trkpt>
      <trkpt lat="43.69382" lon="3.83993">
        <ele>109</ele>
        <time>2020-10-25T13:35:36.000Z</time>
      </trkpt>
      <trkpt lat="43.69385" lon="3.83996">
        <ele>109</ele>
        <time>2020-10-25T13:35:37.000Z</time>
      </trkpt>
      <trkpt lat="43.69388" lon="3.83999">
        <ele>109</ele>
        <time>2020-10-25T13:35:38.000Z</time>
      </trkpt>
      <trkpt lat="43.69394" lon="3.84003">
        <ele>109</ele>
        <time>2020-10-25T13:35:40.000Z</time>
      </trkpt>
      <trkpt lat="43.69396" lon="3.84004">
        <ele>109</ele>
        <time>2020-10-25T13:35:41.000Z</time>
      </trkpt>
      <trkpt lat="43.69399" lon="3.84005">
        <ele>109</ele>
        <time>2020-10-25T13:35:42.000Z</time>
      </trkpt>
      <trkpt lat="43.69401" lon="3.84006">
        <ele>109</ele>
        <time>2020-10-25T13:35:43.000Z</time>
      </trkpt>
      <trkpt lat="43.69403" lon="3.84008">
        <ele>109</ele>
        <time>2020-10-25T13:35:44.000Z</time>
      </trkpt>
      <trkpt lat="43.69406" lon="3.84009">
        <ele>109</ele>
        <time>2020-10-25T13:35:45.000Z</time>
      </trkpt>
      <trkpt lat="43.69408" lon="3.84009">
        <ele>109</ele>
        <time>2020-10-25T13:35:46.000Z</time>
      </trkpt>
      <trkpt lat="43.69411" lon="3.84009">
        <ele>109</ele>
        <time>2020-10-25T13:35:47.000Z</time>
      </trkpt>
      <trkpt lat="43.69413" lon="3.84008">
        <ele>109</ele>
        <time>2020-10-25T13:35:48.000Z</time>
      </trkpt>
      <trkpt lat="43.69422" lon="3.84006">
        <ele>109</ele>
        <time>2020-10-25T13:35:51.000Z</time>
      </trkpt>
      <trkpt lat="43.69425" lon="3.84006">
        <ele>109</ele>
        <time>2020-10-25T13:35:52.000Z</time>
      </trkpt>
      <trkpt lat="43.69428" lon="3.84008">
        <ele>109</ele>
        <time>2020-10-25T13:35:53.000Z</time>
      </trkpt>
      <trkpt lat="43.69431" lon="3.8401">
        <ele>109</ele>
        <time>2020-10-25T13:35:54.000Z</time>
      </trkpt>
      <trkpt lat="43.69433" lon="3.84013">
        <ele>109</ele>
        <time>2020-10-25T13:35:55.000Z</time>
      </trkpt>
      <trkpt lat="43.69434" lon="3.84016">
        <ele>109</ele>
        <time>2020-10-25T13:35:56.000Z</time>
      </trkpt>
      <trkpt lat="43.69436" lon="3.84019">
        <ele>109.02999936</ele>
        <time>2020-10-25T13:35:57.000Z</time>
      </trkpt>
      <trkpt lat="43.69438" lon="3.84022">
        <ele>109.12999936</ele>
        <time>2020-10-25T13:35:58.000Z</time>
      </trkpt>
      <trkpt lat="43.69439" lon="3.84024">
        <ele>109.22999936</ele>
        <time>2020-10-25T13:35:59.000Z</time>
      </trkpt>
      <trkpt lat="43.69441" lon="3.84027">
        <ele>109.32999936</ele>
        <time>2020-10-25T13:36:00.000Z</time>
      </trkpt>
      <trkpt lat="43.69444" lon="3.84029">
        <ele>109.42999936</ele>
        <time>2020-10-25T13:36:01.000Z</time>
      </trkpt>
      <trkpt lat="43.69446" lon="3.84032">
        <ele>109.52999936</ele>
        <time>2020-10-25T13:36:02.000Z</time>
      </trkpt>
      <trkpt lat="43.69449" lon="3.84034">
        <ele>109.62999936</ele>
        <time>2020-10-25T13:36:03.000Z</time>
      </trkpt>
      <trkpt lat="43.69451" lon="3.84035">
        <ele>109.72999936</ele>
        <time>2020-10-25T13:36:04.000Z</time>
      </trkpt>
      <trkpt lat="43.69454" lon="3.84036">
        <ele>109.82999936</ele>
        <time>2020-10-25T13:36:05.000Z</time>
      </trkpt>
      <trkpt lat="43.69456" lon="3.84037">
        <ele>109.92999936</ele>
        <time>2020-10-25T13:36:06.000Z</time>
      </trkpt>
      <trkpt lat="43.69459" lon="3.84037">
        <ele>110.02999936</ele>
        <time>2020-10-25T13:36:07.000Z</time>
      </trkpt>
      <trkpt lat="43.69462" lon="3.84036">
        <ele>110.12999936</ele>
        <time>2020-10-25T13:36:08.000Z</time>
      </trkpt>
      <trkpt lat="43.69465" lon="3.84035">
        <ele>110.22999936</ele>
        <time>2020-10-25T13:36:09.000Z</time>
      </trkpt>
      <trkpt lat="43.69468" lon="3.84035">
        <ele>110.32999936</ele>
        <time>2020-10-25T13:36:10.000Z</time>
      </trkpt>
      <trkpt lat="43.69471" lon="3.84035">
        <ele>110.42999936</ele>
        <time>2020-10-25T13:36:11.000Z</time>
      </trkpt>
      <trkpt lat="43.69473" lon="3.84034">
        <ele>110.52999936</ele>
        <time>2020-10-25T13:36:12.000Z</time>
      </trkpt>
      <trkpt lat="43.69476" lon="3.84033">
        <ele>110.62999936</ele>
        <time>2020-10-25T13:36:13.000Z</time>
      </trkpt>
      <trkpt lat="43.69479" lon="3.84032">
        <ele>110.72999936</ele>
        <time>2020-10-25T13:36:14.000Z</time>
      </trkpt>
      <trkpt lat="43.69482" lon="3.84031">
        <ele>110.82999936</ele>
        <time>2020-10-25T13:36:15.000Z</time>
      </trkpt>
      <trkpt lat="43.69486" lon="3.8403">
        <ele>110.92999936</ele>
        <time>2020-10-25T13:36:16.000Z</time>
      </trkpt>
      <trkpt lat="43.69489" lon="3.84029">
        <ele>111.02999936</ele>
        <time>2020-10-25T13:36:17.000Z</time>
      </trkpt>
      <trkpt lat="43.69492" lon="3.84028">
        <ele>111.12999936</ele>
        <time>2020-10-25T13:36:18.000Z</time>
      </trkpt>
      <trkpt lat="43.69495" lon="3.84027">
        <ele>111.22999936</ele>
        <time>2020-10-25T13:36:19.000Z</time>
      </trkpt>
      <trkpt lat="43.69498" lon="3.84026">
        <ele>111.32999936</ele>
        <time>2020-10-25T13:36:20.000Z</time>
      </trkpt>
      <trkpt lat="43.69501" lon="3.84026">
        <ele>111.42999936</ele>
        <time>2020-10-25T13:36:21.000Z</time>
      </trkpt>
      <trkpt lat="43.69511" lon="3.84028">
        <ele>111.82999936</ele>
        <time>2020-10-25T13:36:25.000Z</time>
      </trkpt>
      <trkpt lat="43.6952" lon="3.84031">
        <ele>112.12999936</ele>
        <time>2020-10-25T13:36:28.000Z</time>
      </trkpt>
      <trkpt lat="43.69531" lon="3.84038">
        <ele>112.52999936</ele>
        <time>2020-10-25T13:36:32.000Z</time>
      </trkpt>
      <trkpt lat="43.6954" lon="3.84045">
        <ele>112.92999936</ele>
        <time>2020-10-25T13:36:36.000Z</time>
      </trkpt>
      <trkpt lat="43.69549" lon="3.8405">
        <ele>113.45409562222</ele>
        <time>2020-10-25T13:36:39.000Z</time>
      </trkpt>
      <trkpt lat="43.69552" lon="3.84052">
        <ele>113.65152905083</ele>
        <time>2020-10-25T13:36:40.000Z</time>
      </trkpt>
      <trkpt lat="43.69556" lon="3.84054">
        <ele>113.84896247944</ele>
        <time>2020-10-25T13:36:41.000Z</time>
      </trkpt>
      <trkpt lat="43.69558" lon="3.84056">
        <ele>114.04639590804</ele>
        <time>2020-10-25T13:36:42.000Z</time>
      </trkpt>
      <trkpt lat="43.69561" lon="3.84058">
        <ele>114.24382933665</ele>
        <time>2020-10-25T13:36:43.000Z</time>
      </trkpt>
      <trkpt lat="43.69563" lon="3.8406">
        <ele>114.44126276526</ele>
        <time>2020-10-25T13:36:44.000Z</time>
      </trkpt>
      <trkpt lat="43.69569" lon="3.84065">
        <ele>115.01720615385</ele>
        <time>2020-10-25T13:36:47.000Z</time>
      </trkpt>
      <trkpt lat="43.69572" lon="3.84067">
        <ele>115.11842072874</ele>
        <time>2020-10-25T13:36:48.000Z</time>
      </trkpt>
      <trkpt lat="43.69575" lon="3.84069">
        <ele>115.21963530364</ele>
        <time>2020-10-25T13:36:49.000Z</time>
      </trkpt>
      <trkpt lat="43.69578" lon="3.8407">
        <ele>115.32084987854</ele>
        <time>2020-10-25T13:36:50.000Z</time>
      </trkpt>
      <trkpt lat="43.69581" lon="3.8407">
        <ele>115.42206445344</ele>
        <time>2020-10-25T13:36:51.000Z</time>
      </trkpt>
      <trkpt lat="43.69584" lon="3.8407">
        <ele>115.52327902834</ele>
        <time>2020-10-25T13:36:52.000Z</time>
      </trkpt>
      <trkpt lat="43.69587" lon="3.84069">
        <ele>115.62449360324</ele>
        <time>2020-10-25T13:36:53.000Z</time>
      </trkpt>
      <trkpt lat="43.6959" lon="3.84068">
        <ele>115.72570817814</ele>
        <time>2020-10-25T13:36:54.000Z</time>
      </trkpt>
      <trkpt lat="43.69592" lon="3.84068">
        <ele>115.82692275304</ele>
        <time>2020-10-25T13:36:55.000Z</time>
      </trkpt>
      <trkpt lat="43.69594" lon="3.84067">
        <ele>115.92813732794</ele>
        <time>2020-10-25T13:36:56.000Z</time>
      </trkpt>
      <trkpt lat="43.69596" lon="3.84066">
        <ele>116</ele>
        <time>2020-10-25T13:36:57.000Z</time>
      </trkpt>
      <trkpt lat="43.69598" lon="3.84065">
        <ele>116</ele>
        <time>2020-10-25T13:36:58.000Z</time>
      </trkpt>
      <trkpt lat="43.69602" lon="3.84064">
        <ele>116</ele>
        <time>2020-10-25T13:36:59.000Z</time>
      </trkpt>
      <trkpt lat="43.69614" lon="3.84059">
        <ele>116</ele>
        <time>2020-10-25T13:37:02.000Z</time>
      </trkpt>
      <trkpt lat="43.69624" lon="3.84056">
        <ele>116</ele>
        <time>2020-10-25T13:37:04.000Z</time>
      </trkpt>
      <trkpt lat="43.69633" lon="3.84052">
        <ele>116</ele>
        <time>2020-10-25T13:37:06.000Z</time>
      </trkpt>
      <trkpt lat="43.69645" lon="3.84047">
        <ele>115.61523070767</ele>
        <time>2020-10-25T13:37:08.000Z</time>
      </trkpt>
      <trkpt lat="43.69651" lon="3.84047">
        <ele>115.31462969803</ele>
        <time>2020-10-25T13:37:09.000Z</time>
      </trkpt>
      <trkpt lat="43.69657" lon="3.84048">
        <ele>115.0140286884</ele>
        <time>2020-10-25T13:37:10.000Z</time>
      </trkpt>
      <trkpt lat="43.69663" lon="3.84049">
        <ele>114.71342767876</ele>
        <time>2020-10-25T13:37:11.000Z</time>
      </trkpt>
      <trkpt lat="43.69668" lon="3.8405">
        <ele>114.41282666913</ele>
        <time>2020-10-25T13:37:12.000Z</time>
      </trkpt>
      <trkpt lat="43.69673" lon="3.8405">
        <ele>114.11222565949</ele>
        <time>2020-10-25T13:37:13.000Z</time>
      </trkpt>
      <trkpt lat="43.69676" lon="3.84051">
        <ele>113.81162464986</ele>
        <time>2020-10-25T13:37:14.000Z</time>
      </trkpt>
      <trkpt lat="43.69679" lon="3.84051">
        <ele>113.51102364023</ele>
        <time>2020-10-25T13:37:15.000Z</time>
      </trkpt>
      <trkpt lat="43.69681" lon="3.8405">
        <ele>113</ele>
        <time>2020-10-25T13:37:17.000Z</time>
      </trkpt>
      <trkpt lat="43.69681" lon="3.8405">
        <ele>113</ele>
        <time>2020-10-25T13:37:22.000Z</time>
      </trkpt>
      <trkpt lat="43.69685" lon="3.84052">
        <ele>112.99386568106</ele>
        <time>2020-10-25T13:37:51.000Z</time>
      </trkpt>
      <trkpt lat="43.69687" lon="3.84053">
        <ele>112.89161612539</ele>
        <time>2020-10-25T13:37:52.000Z</time>
      </trkpt>
      <trkpt lat="43.69689" lon="3.84053">
        <ele>112.78936656973</ele>
        <time>2020-10-25T13:37:53.000Z</time>
      </trkpt>
      <trkpt lat="43.69692" lon="3.84053">
        <ele>112.68711701406</ele>
        <time>2020-10-25T13:37:54.000Z</time>
      </trkpt>
      <trkpt lat="43.69694" lon="3.84053">
        <ele>112.5848674584</ele>
        <time>2020-10-25T13:37:55.000Z</time>
      </trkpt>
      <trkpt lat="43.69696" lon="3.84054">
        <ele>112.48261790274</ele>
        <time>2020-10-25T13:37:56.000Z</time>
      </trkpt>
      <trkpt lat="43.69697" lon="3.84056">
        <ele>112.38036834707</ele>
        <time>2020-10-25T13:37:57.000Z</time>
      </trkpt>
      <trkpt lat="43.69703" lon="3.84066">
        <ele>112</ele>
        <time>2020-10-25T13:38:01.000Z</time>
      </trkpt>
      <trkpt lat="43.69713" lon="3.84073">
        <ele>112</ele>
        <time>2020-10-25T13:38:04.000Z</time>
      </trkpt>
      <trkpt lat="43.69723" lon="3.8407">
        <ele>112</ele>
        <time>2020-10-25T13:38:07.000Z</time>
      </trkpt>
      <trkpt lat="43.69733" lon="3.84066">
        <ele>112</ele>
        <time>2020-10-25T13:38:10.000Z</time>
      </trkpt>
      <trkpt lat="43.69741" lon="3.84068">
        <ele>111.88775459559</ele>
        <time>2020-10-25T13:38:12.000Z</time>
      </trkpt>
      <trkpt lat="43.69745" lon="3.84068">
        <ele>111.78571391254</ele>
        <time>2020-10-25T13:38:13.000Z</time>
      </trkpt>
      <trkpt lat="43.69749" lon="3.84069">
        <ele>111.68367322949</ele>
        <time>2020-10-25T13:38:14.000Z</time>
      </trkpt>
      <trkpt lat="43.69752" lon="3.8407">
        <ele>111.58163254644</ele>
        <time>2020-10-25T13:38:15.000Z</time>
      </trkpt>
      <trkpt lat="43.69756" lon="3.84069">
        <ele>111.47959186339</ele>
        <time>2020-10-25T13:38:16.000Z</time>
      </trkpt>
      <trkpt lat="43.6976" lon="3.84067">
        <ele>111.37755118034</ele>
        <time>2020-10-25T13:38:17.000Z</time>
      </trkpt>
      <trkpt lat="43.69763" lon="3.84067">
        <ele>111.27551049729</ele>
        <time>2020-10-25T13:38:18.000Z</time>
      </trkpt>
      <trkpt lat="43.69766" lon="3.84068">
        <ele>111.0714291312</ele>
        <time>2020-10-25T13:38:20.000Z</time>
      </trkpt>
      <trkpt lat="43.69769" lon="3.84068">
        <ele>110.97012012127</ele>
        <time>2020-10-25T13:38:21.000Z</time>
      </trkpt>
      <trkpt lat="43.69772" lon="3.84067">
        <ele>110.87051840066</ele>
        <time>2020-10-25T13:38:22.000Z</time>
      </trkpt>
      <trkpt lat="43.69774" lon="3.84066">
        <ele>110.77091668005</ele>
        <time>2020-10-25T13:38:23.000Z</time>
      </trkpt>
      <trkpt lat="43.69777" lon="3.84067">
        <ele>110.67131495944</ele>
        <time>2020-10-25T13:38:24.000Z</time>
      </trkpt>
      <trkpt lat="43.6978" lon="3.84068">
        <ele>110.57171323884</ele>
        <time>2020-10-25T13:38:25.000Z</time>
      </trkpt>
      <trkpt lat="43.69784" lon="3.84068">
        <ele>110.47211151823</ele>
        <time>2020-10-25T13:38:26.000Z</time>
      </trkpt>
      <trkpt lat="43.69787" lon="3.84069">
        <ele>110.37250979762</ele>
        <time>2020-10-25T13:38:27.000Z</time>
      </trkpt>
      <trkpt lat="43.6979" lon="3.84068">
        <ele>110.27290807701</ele>
        <time>2020-10-25T13:38:28.000Z</time>
      </trkpt>
      <trkpt lat="43.69794" lon="3.84068">
        <ele>110.17330635641</ele>
        <time>2020-10-25T13:38:29.000Z</time>
      </trkpt>
      <trkpt lat="43.69798" lon="3.84068">
        <ele>110.0737046358</ele>
        <time>2020-10-25T13:38:30.000Z</time>
      </trkpt>
      <trkpt lat="43.69801" lon="3.84066">
        <ele>110.02610502669</ele>
        <time>2020-10-25T13:38:31.000Z</time>
      </trkpt>
      <trkpt lat="43.69804" lon="3.84064">
        <ele>110.12650650409</ele>
        <time>2020-10-25T13:38:32.000Z</time>
      </trkpt>
      <trkpt lat="43.69805" lon="3.84062">
        <ele>110.22690798148</ele>
        <time>2020-10-25T13:38:33.000Z</time>
      </trkpt>
      <trkpt lat="43.69807" lon="3.84059">
        <ele>110.32730945888</ele>
        <time>2020-10-25T13:38:34.000Z</time>
      </trkpt>
      <trkpt lat="43.69809" lon="3.84057">
        <ele>110.42771093628</ele>
        <time>2020-10-25T13:38:35.000Z</time>
      </trkpt>
      <trkpt lat="43.69809" lon="3.84056">
        <ele>111</ele>
        <time>2020-10-25T13:38:42.000Z</time>
      </trkpt>
      <trkpt lat="43.69812" lon="3.8405">
        <ele>110</ele>
        <time>2020-10-25T13:38:51.000Z</time>
      </trkpt>
      <trkpt lat="43.69813" lon="3.84048">
        <ele>110</ele>
        <time>2020-10-25T13:38:52.000Z</time>
      </trkpt>
      <trkpt lat="43.69814" lon="3.84045">
        <ele>110</ele>
        <time>2020-10-25T13:38:53.000Z</time>
      </trkpt>
      <trkpt lat="43.69816" lon="3.84043">
        <ele>110</ele>
        <time>2020-10-25T13:38:54.000Z</time>
      </trkpt>
      <trkpt lat="43.69817" lon="3.8404">
        <ele>110</ele>
        <time>2020-10-25T13:38:55.000Z</time>
      </trkpt>
      <trkpt lat="43.69819" lon="3.84038">
        <ele>110</ele>
        <time>2020-10-25T13:38:56.000Z</time>
      </trkpt>
      <trkpt lat="43.6982" lon="3.84035">
        <ele>110</ele>
        <time>2020-10-25T13:38:57.000Z</time>
      </trkpt>
      <trkpt lat="43.69822" lon="3.84032">
        <ele>110</ele>
        <time>2020-10-25T13:38:58.000Z</time>
      </trkpt>
      <trkpt lat="43.69823" lon="3.84029">
        <ele>110</ele>
        <time>2020-10-25T13:38:59.000Z</time>
      </trkpt>
      <trkpt lat="43.69825" lon="3.84026">
        <ele>110</ele>
        <time>2020-10-25T13:39:00.000Z</time>
      </trkpt>
      <trkpt lat="43.69826" lon="3.84023">
        <ele>110</ele>
        <time>2020-10-25T13:39:01.000Z</time>
      </trkpt>
      <trkpt lat="43.69829" lon="3.84022">
        <ele>110</ele>
        <time>2020-10-25T13:39:02.000Z</time>
      </trkpt>
      <trkpt lat="43.69831" lon="3.84022">
        <ele>110</ele>
        <time>2020-10-25T13:39:03.000Z</time>
      </trkpt>
      <trkpt lat="43.69834" lon="3.84021">
        <ele>110</ele>
        <time>2020-10-25T13:39:04.000Z</time>
      </trkpt>
      <trkpt lat="43.69836" lon="3.8402">
        <ele>110</ele>
        <time>2020-10-25T13:39:05.000Z</time>
      </trkpt>
      <trkpt lat="43.69839" lon="3.84018">
        <ele>110</ele>
        <time>2020-10-25T13:39:06.000Z</time>
      </trkpt>
      <trkpt lat="43.69841" lon="3.84017">
        <ele>110</ele>
        <time>2020-10-25T13:39:07.000Z</time>
      </trkpt>
      <trkpt lat="43.69844" lon="3.84017">
        <ele>110</ele>
        <time>2020-10-25T13:39:08.000Z</time>
      </trkpt>
      <trkpt lat="43.69846" lon="3.84016">
        <ele>110</ele>
        <time>2020-10-25T13:39:09.000Z</time>
      </trkpt>
      <trkpt lat="43.69848" lon="3.84015">
        <ele>110</ele>
        <time>2020-10-25T13:39:11.000Z</time>
      </trkpt>
      <trkpt lat="43.69851" lon="3.84014">
        <ele>110</ele>
        <time>2020-10-25T13:39:14.000Z</time>
      </trkpt>
      <trkpt lat="43.69853" lon="3.84012">
        <ele>110</ele>
        <time>2020-10-25T13:39:16.000Z</time>
      </trkpt>
      <trkpt lat="43.69856" lon="3.8401">
        <ele>110</ele>
        <time>2020-10-25T13:39:18.000Z</time>
      </trkpt>
      <trkpt lat="43.69859" lon="3.84009">
        <ele>110</ele>
        <time>2020-10-25T13:39:20.000Z</time>
      </trkpt>
      <trkpt lat="43.69861" lon="3.84008">
        <ele>110</ele>
        <time>2020-10-25T13:39:21.000Z</time>
      </trkpt>
      <trkpt lat="43.69863" lon="3.84007">
        <ele>110</ele>
        <time>2020-10-25T13:39:22.000Z</time>
      </trkpt>
      <trkpt lat="43.69866" lon="3.84007">
        <ele>110</ele>
        <time>2020-10-25T13:39:23.000Z</time>
      </trkpt>
      <trkpt lat="43.6987" lon="3.84007">
        <ele>110</ele>
        <time>2020-10-25T13:39:24.000Z</time>
      </trkpt>
      <trkpt lat="43.69873" lon="3.84007">
        <ele>110</ele>
        <time>2020-10-25T13:39:25.000Z</time>
      </trkpt>
      <trkpt lat="43.69876" lon="3.84008">
        <ele>110</ele>
        <time>2020-10-25T13:39:26.000Z</time>
      </trkpt>
      <trkpt lat="43.69879" lon="3.84008">
        <ele>110</ele>
        <time>2020-10-25T13:39:27.000Z</time>
      </trkpt>
      <trkpt lat="43.69882" lon="3.84009">
        <ele>110</ele>
        <time>2020-10-25T13:39:28.000Z</time>
      </trkpt>
      <trkpt lat="43.69885" lon="3.8401">
        <ele>110</ele>
        <time>2020-10-25T13:39:29.000Z</time>
      </trkpt>
      <trkpt lat="43.69887" lon="3.8401">
        <ele>110</ele>
        <time>2020-10-25T13:39:30.000Z</time>
      </trkpt>
      <trkpt lat="43.69889" lon="3.84009">
        <ele>110.02610502669</ele>
        <time>2020-10-25T13:39:31.000Z</time>
      </trkpt>
      <trkpt lat="43.69891" lon="3.84008">
        <ele>110.12650650409</ele>
        <time>2020-10-25T13:39:32.000Z</time>
      </trkpt>
      <trkpt lat="43.69894" lon="3.84008">
        <ele>110.32730945888</ele>
        <time>2020-10-25T13:39:34.000Z</time>
      </trkpt>
      <trkpt lat="43.69896" lon="3.84007">
        <ele>110.42771093628</ele>
        <time>2020-10-25T13:39:35.000Z</time>
      </trkpt>
      <trkpt lat="43.69899" lon="3.84006">
        <ele>110.62851389107</ele>
        <time>2020-10-25T13:39:37.000Z</time>
      </trkpt>
      <trkpt lat="43.69901" lon="3.84006">
        <ele>110.82931684586</ele>
        <time>2020-10-25T13:39:39.000Z</time>
      </trkpt>
      <trkpt lat="43.69904" lon="3.84005">
        <ele>111</ele>
        <time>2020-10-25T13:39:43.000Z</time>
      </trkpt>
      <trkpt lat="43.69907" lon="3.84004">
        <ele>111</ele>
        <time>2020-10-25T13:39:45.000Z</time>
      </trkpt>
      <trkpt lat="43.69911" lon="3.84003">
        <ele>111</ele>
        <time>2020-10-25T13:39:47.000Z</time>
      </trkpt>
      <trkpt lat="43.69914" lon="3.84003">
        <ele>111</ele>
        <time>2020-10-25T13:39:49.000Z</time>
      </trkpt>
      <trkpt lat="43.69917" lon="3.84002">
        <ele>111</ele>
        <time>2020-10-25T13:39:51.000Z</time>
      </trkpt>
      <trkpt lat="43.69919" lon="3.84002">
        <ele>111</ele>
        <time>2020-10-25T13:39:52.000Z</time>
      </trkpt>
      <trkpt lat="43.69922" lon="3.84">
        <ele>111</ele>
        <time>2020-10-25T13:39:54.000Z</time>
      </trkpt>
      <trkpt lat="43.69924" lon="3.83999">
        <ele>111</ele>
        <time>2020-10-25T13:39:55.000Z</time>
      </trkpt>
      <trkpt lat="43.69926" lon="3.83999">
        <ele>111</ele>
        <time>2020-10-25T13:39:56.000Z</time>
      </trkpt>
      <trkpt lat="43.69928" lon="3.83999">
        <ele>111</ele>
        <time>2020-10-25T13:39:57.000Z</time>
      </trkpt>
      <trkpt lat="43.6993" lon="3.83999">
        <ele>111</ele>
        <time>2020-10-25T13:39:58.000Z</time>
      </trkpt>
      <trkpt lat="43.69932" lon="3.83999">
        <ele>111</ele>
        <time>2020-10-25T13:39:59.000Z</time>
      </trkpt>
      <trkpt lat="43.69935" lon="3.83999">
        <ele>111</ele>
        <time>2020-10-25T13:40:00.000Z</time>
      </trkpt>
      <trkpt lat="43.69937" lon="3.83999">
        <ele>111.05999872</ele>
        <time>2020-10-25T13:40:01.000Z</time>
      </trkpt>
      <trkpt lat="43.6994" lon="3.84">
        <ele>111.45999872</ele>
        <time>2020-10-25T13:40:03.000Z</time>
      </trkpt>
      <trkpt lat="43.69943" lon="3.84">
        <ele>111.85999872</ele>
        <time>2020-10-25T13:40:05.000Z</time>
      </trkpt>
      <trkpt lat="43.69946" lon="3.84001">
        <ele>112.25999872</ele>
        <time>2020-10-25T13:40:07.000Z</time>
      </trkpt>
      <trkpt lat="43.69949" lon="3.84002">
        <ele>112.65999872</ele>
        <time>2020-10-25T13:40:09.000Z</time>
      </trkpt>
      <trkpt lat="43.69952" lon="3.84003">
        <ele>113.02898491577</ele>
        <time>2020-10-25T13:40:11.000Z</time>
      </trkpt>
      <trkpt lat="43.69954" lon="3.84004">
        <ele>113.22222180998</ele>
        <time>2020-10-25T13:40:13.000Z</time>
      </trkpt>
      <trkpt lat="43.69956" lon="3.84005">
        <ele>113.41545870419</ele>
        <time>2020-10-25T13:40:15.000Z</time>
      </trkpt>
      <trkpt lat="43.69959" lon="3.84005">
        <ele>113.6086955984</ele>
        <time>2020-10-25T13:40:17.000Z</time>
      </trkpt>
      <trkpt lat="43.69962" lon="3.84006">
        <ele>113.80193249261</ele>
        <time>2020-10-25T13:40:19.000Z</time>
      </trkpt>
      <trkpt lat="43.69964" lon="3.84007">
        <ele>113.99516938682</ele>
        <time>2020-10-25T13:40:21.000Z</time>
      </trkpt>
      <trkpt lat="43.69967" lon="3.84007">
        <ele>114.20123878679</ele>
        <time>2020-10-25T13:40:23.000Z</time>
      </trkpt>
      <trkpt lat="43.69971" lon="3.84008">
        <ele>114.40763720376</ele>
        <time>2020-10-25T13:40:25.000Z</time>
      </trkpt>
      <trkpt lat="43.69974" lon="3.84009">
        <ele>114.61403562073</ele>
        <time>2020-10-25T13:40:27.000Z</time>
      </trkpt>
      <trkpt lat="43.69976" lon="3.84011">
        <ele>114.82043403771</ele>
        <time>2020-10-25T13:40:29.000Z</time>
      </trkpt>
      <trkpt lat="43.6998" lon="3.84013">
        <ele>115.05221005338</ele>
        <time>2020-10-25T13:40:31.000Z</time>
      </trkpt>
      <trkpt lat="43.69981" lon="3.84014">
        <ele>115.25301300818</ele>
        <time>2020-10-25T13:40:32.000Z</time>
      </trkpt>
      <trkpt lat="43.69983" lon="3.84015">
        <ele>115.45381596297</ele>
        <time>2020-10-25T13:40:33.000Z</time>
      </trkpt>
      <trkpt lat="43.69985" lon="3.84016">
        <ele>115.65461891776</ele>
        <time>2020-10-25T13:40:34.000Z</time>
      </trkpt>
      <trkpt lat="43.69988" lon="3.84018">
        <ele>116.05622482734</ele>
        <time>2020-10-25T13:40:36.000Z</time>
      </trkpt>
      <trkpt lat="43.6999" lon="3.84018">
        <ele>116.45783073692</ele>
        <time>2020-10-25T13:40:38.000Z</time>
      </trkpt>
      <trkpt lat="43.69993" lon="3.84019">
        <ele>116.85943664651</ele>
        <time>2020-10-25T13:40:40.000Z</time>
      </trkpt>
      <trkpt lat="43.69996" lon="3.8402">
        <ele>117.12973996311</ele>
        <time>2020-10-25T13:40:42.000Z</time>
      </trkpt>
      <trkpt lat="43.69999" lon="3.84022">
        <ele>117.329340889</ele>
        <time>2020-10-25T13:40:44.000Z</time>
      </trkpt>
      <trkpt lat="43.70001" lon="3.84025">
        <ele>117.52894181489</ele>
        <time>2020-10-25T13:40:46.000Z</time>
      </trkpt>
      <trkpt lat="43.7" lon="3.84028">
        <ele>117.72854274079</ele>
        <time>2020-10-25T13:40:48.000Z</time>
      </trkpt>
      <trkpt lat="43.69997" lon="3.84032">
        <ele>117.92814366668</ele>
        <time>2020-10-25T13:40:50.000Z</time>
      </trkpt>
      <trkpt lat="43.69996" lon="3.84034">
        <ele>118.05611218846</ele>
        <time>2020-10-25T13:40:51.000Z</time>
      </trkpt>
      <trkpt lat="43.69995" lon="3.84036">
        <ele>118.25651286155</ele>
        <time>2020-10-25T13:40:52.000Z</time>
      </trkpt>
      <trkpt lat="43.69993" lon="3.84038">
        <ele>118.45691353464</ele>
        <time>2020-10-25T13:40:53.000Z</time>
      </trkpt>
      <trkpt lat="43.69991" lon="3.8404">
        <ele>118.65731420773</ele>
        <time>2020-10-25T13:40:54.000Z</time>
      </trkpt>
      <trkpt lat="43.69989" lon="3.84043">
        <ele>118.85771488082</ele>
        <time>2020-10-25T13:40:55.000Z</time>
      </trkpt>
      <trkpt lat="43.69987" lon="3.84045">
        <ele>119.05811555391</ele>
        <time>2020-10-25T13:40:56.000Z</time>
      </trkpt>
      <trkpt lat="43.69986" lon="3.84047">
        <ele>119.258516227</ele>
        <time>2020-10-25T13:40:57.000Z</time>
      </trkpt>
      <trkpt lat="43.69984" lon="3.8405">
        <ele>119.45891690009</ele>
        <time>2020-10-25T13:40:58.000Z</time>
      </trkpt>
      <trkpt lat="43.69983" lon="3.84052">
        <ele>119.65931757318</ele>
        <time>2020-10-25T13:40:59.000Z</time>
      </trkpt>
      <trkpt lat="43.69983" lon="3.84057">
        <ele>120.02999936</ele>
        <time>2020-10-25T13:41:01.000Z</time>
      </trkpt>
      <trkpt lat="43.69983" lon="3.84061">
        <ele>120.22999936</ele>
        <time>2020-10-25T13:41:03.000Z</time>
      </trkpt>
      <trkpt lat="43.69982" lon="3.84066">
        <ele>120.42999936</ele>
        <time>2020-10-25T13:41:05.000Z</time>
      </trkpt>
      <trkpt lat="43.69981" lon="3.8407">
        <ele>120.62999936</ele>
        <time>2020-10-25T13:41:07.000Z</time>
      </trkpt>
      <trkpt lat="43.69979" lon="3.84074">
        <ele>120.82999936</ele>
        <time>2020-10-25T13:41:09.000Z</time>
      </trkpt>
      <trkpt lat="43.69977" lon="3.84078">
        <ele>121.02982045635</ele>
        <time>2020-10-25T13:41:11.000Z</time>
      </trkpt>
      <trkpt lat="43.69976" lon="3.84081">
        <ele>121.22862773988</ele>
        <time>2020-10-25T13:41:13.000Z</time>
      </trkpt>
      <trkpt lat="43.69972" lon="3.84094">
        <ele>121.72564594872</ele>
        <time>2020-10-25T13:41:18.000Z</time>
      </trkpt>
      <trkpt lat="43.69972" lon="3.84097">
        <ele>121.82504959049</ele>
        <time>2020-10-25T13:41:19.000Z</time>
      </trkpt>
      <trkpt lat="43.69971" lon="3.841">
        <ele>121.92445323226</ele>
        <time>2020-10-25T13:41:20.000Z</time>
      </trkpt>
      <trkpt lat="43.69971" lon="3.84103">
        <ele>122.02414485367</ele>
        <time>2020-10-25T13:41:21.000Z</time>
      </trkpt>
      <trkpt lat="43.6997" lon="3.84105">
        <ele>122.12474841063</ele>
        <time>2020-10-25T13:41:22.000Z</time>
      </trkpt>
      <trkpt lat="43.69966" lon="3.84118">
        <ele>122.52716263845</ele>
        <time>2020-10-25T13:41:26.000Z</time>
      </trkpt>
      <trkpt lat="43.69963" lon="3.84127">
        <ele>122.82897330931</ele>
        <time>2020-10-25T13:41:29.000Z</time>
      </trkpt>
      <trkpt lat="43.69962" lon="3.8413">
        <ele>122.92957686627</ele>
        <time>2020-10-25T13:41:30.000Z</time>
      </trkpt>
      <trkpt lat="43.6996" lon="3.84133">
        <ele>123.02918229314</ele>
        <time>2020-10-25T13:41:31.000Z</time>
      </trkpt>
      <trkpt lat="43.69958" lon="3.84136">
        <ele>123.12645867886</ele>
        <time>2020-10-25T13:41:32.000Z</time>
      </trkpt>
      <trkpt lat="43.69957" lon="3.84139">
        <ele>123.22373506457</ele>
        <time>2020-10-25T13:41:33.000Z</time>
      </trkpt>
      <trkpt lat="43.69955" lon="3.84142">
        <ele>123.32101145029</ele>
        <time>2020-10-25T13:41:34.000Z</time>
      </trkpt>
      <trkpt lat="43.69953" lon="3.84145">
        <ele>123.418287836</ele>
        <time>2020-10-25T13:41:35.000Z</time>
      </trkpt>
      <trkpt lat="43.6995" lon="3.84148">
        <ele>123.51556422171</ele>
        <time>2020-10-25T13:41:36.000Z</time>
      </trkpt>
      <trkpt lat="43.69947" lon="3.8415">
        <ele>123.61284060743</ele>
        <time>2020-10-25T13:41:37.000Z</time>
      </trkpt>
      <trkpt lat="43.69945" lon="3.84153">
        <ele>123.71011699314</ele>
        <time>2020-10-25T13:41:38.000Z</time>
      </trkpt>
      <trkpt lat="43.69944" lon="3.84156">
        <ele>123.80739337886</ele>
        <time>2020-10-25T13:41:39.000Z</time>
      </trkpt>
      <trkpt lat="43.69942" lon="3.84159">
        <ele>123.90466976457</ele>
        <time>2020-10-25T13:41:40.000Z</time>
      </trkpt>
      <trkpt lat="43.6994" lon="3.84161">
        <ele>124</ele>
        <time>2020-10-25T13:41:41.000Z</time>
      </trkpt>
      <trkpt lat="43.69937" lon="3.84162">
        <ele>124</ele>
        <time>2020-10-25T13:41:42.000Z</time>
      </trkpt>
      <trkpt lat="43.69935" lon="3.84162">
        <ele>124</ele>
        <time>2020-10-25T13:41:43.000Z</time>
      </trkpt>
      <trkpt lat="43.69935" lon="3.84163">
        <ele>124</ele>
        <time>2020-10-25T13:41:50.000Z</time>
      </trkpt>
      <trkpt lat="43.69933" lon="3.84163">
        <ele>124</ele>
        <time>2020-10-25T13:42:09.000Z</time>
      </trkpt>
      <trkpt lat="43.69932" lon="3.84164">
        <ele>124</ele>
        <time>2020-10-25T13:42:13.000Z</time>
      </trkpt>
      <trkpt lat="43.69924" lon="3.84169">
        <ele>124</ele>
        <time>2020-10-25T13:42:45.000Z</time>
      </trkpt>
      <trkpt lat="43.69922" lon="3.84171">
        <ele>123.83350845082</ele>
        <time>2020-10-25T13:42:46.000Z</time>
      </trkpt>
      <trkpt lat="43.69919" lon="3.84172">
        <ele>123.62276050806</ele>
        <time>2020-10-25T13:42:47.000Z</time>
      </trkpt>
      <trkpt lat="43.69916" lon="3.84174">
        <ele>123.4120125653</ele>
        <time>2020-10-25T13:42:48.000Z</time>
      </trkpt>
      <trkpt lat="43.69914" lon="3.84175">
        <ele>123.20126462254</ele>
        <time>2020-10-25T13:42:49.000Z</time>
      </trkpt>
      <trkpt lat="43.69911" lon="3.84177">
        <ele>122.99051667977</ele>
        <time>2020-10-25T13:42:50.000Z</time>
      </trkpt>
      <trkpt lat="43.69908" lon="3.84179">
        <ele>122.77976873701</ele>
        <time>2020-10-25T13:42:51.000Z</time>
      </trkpt>
      <trkpt lat="43.69906" lon="3.84181">
        <ele>122.56902079425</ele>
        <time>2020-10-25T13:42:52.000Z</time>
      </trkpt>
      <trkpt lat="43.69904" lon="3.84185">
        <ele>122.35827285148</ele>
        <time>2020-10-25T13:42:53.000Z</time>
      </trkpt>
      <trkpt lat="43.69902" lon="3.84189">
        <ele>122.14752490872</ele>
        <time>2020-10-25T13:42:54.000Z</time>
      </trkpt>
      <trkpt lat="43.69901" lon="3.84194">
        <ele>121.88338437578</ele>
        <time>2020-10-25T13:42:55.000Z</time>
      </trkpt>
      <trkpt lat="43.699" lon="3.84198">
        <ele>121.49465733556</ele>
        <time>2020-10-25T13:42:56.000Z</time>
      </trkpt>
      <trkpt lat="43.699" lon="3.84203">
        <ele>121.10593029533</ele>
        <time>2020-10-25T13:42:57.000Z</time>
      </trkpt>
      <trkpt lat="43.699" lon="3.8421">
        <ele>120.71720325511</ele>
        <time>2020-10-25T13:42:58.000Z</time>
      </trkpt>
      <trkpt lat="43.69899" lon="3.84216">
        <ele>120.32847621488</ele>
        <time>2020-10-25T13:42:59.000Z</time>
      </trkpt>
      <trkpt lat="43.69897" lon="3.84223">
        <ele>119.93974917466</ele>
        <time>2020-10-25T13:43:00.000Z</time>
      </trkpt>
      <trkpt lat="43.69893" lon="3.84229">
        <ele>119.55102213443</ele>
        <time>2020-10-25T13:43:01.000Z</time>
      </trkpt>
      <trkpt lat="43.6989" lon="3.84235">
        <ele>119.1622950942</ele>
        <time>2020-10-25T13:43:02.000Z</time>
      </trkpt>
      <trkpt lat="43.69887" lon="3.84241">
        <ele>118.77356805398</ele>
        <time>2020-10-25T13:43:03.000Z</time>
      </trkpt>
      <trkpt lat="43.69884" lon="3.84247">
        <ele>118.38484101375</ele>
        <time>2020-10-25T13:43:04.000Z</time>
      </trkpt>
      <trkpt lat="43.69881" lon="3.84254">
        <ele>117.99697372058</ele>
        <time>2020-10-25T13:43:05.000Z</time>
      </trkpt>
      <trkpt lat="43.69878" lon="3.84259">
        <ele>117.69424890664</ele>
        <time>2020-10-25T13:43:06.000Z</time>
      </trkpt>
      <trkpt lat="43.69876" lon="3.84264">
        <ele>117.3915240927</ele>
        <time>2020-10-25T13:43:07.000Z</time>
      </trkpt>
      <trkpt lat="43.69875" lon="3.84268">
        <ele>117.08879927876</ele>
        <time>2020-10-25T13:43:08.000Z</time>
      </trkpt>
      <trkpt lat="43.69873" lon="3.84272">
        <ele>116.78607446482</ele>
        <time>2020-10-25T13:43:09.000Z</time>
      </trkpt>
      <trkpt lat="43.69873" lon="3.84277">
        <ele>116.48334965087</ele>
        <time>2020-10-25T13:43:10.000Z</time>
      </trkpt>
      <trkpt lat="43.69871" lon="3.84282">
        <ele>116.18062483693</ele>
        <time>2020-10-25T13:43:11.000Z</time>
      </trkpt>
      <trkpt lat="43.6987" lon="3.84287">
        <ele>115.87790002299</ele>
        <time>2020-10-25T13:43:12.000Z</time>
      </trkpt>
      <trkpt lat="43.69868" lon="3.84293">
        <ele>115.57517520905</ele>
        <time>2020-10-25T13:43:13.000Z</time>
      </trkpt>
      <trkpt lat="43.69867" lon="3.843">
        <ele>115.27245039511</ele>
        <time>2020-10-25T13:43:14.000Z</time>
      </trkpt>
      <trkpt lat="43.69864" lon="3.84307">
        <ele>114.94969500221</ele>
        <time>2020-10-25T13:43:15.000Z</time>
      </trkpt>
      <trkpt lat="43.69862" lon="3.84314">
        <ele>114.44667721743</ele>
        <time>2020-10-25T13:43:16.000Z</time>
      </trkpt>
      <trkpt lat="43.6986" lon="3.8432">
        <ele>113.94365943265</ele>
        <time>2020-10-25T13:43:17.000Z</time>
      </trkpt>
      <trkpt lat="43.69858" lon="3.84326">
        <ele>113.44064164788</ele>
        <time>2020-10-25T13:43:18.000Z</time>
      </trkpt>
      <trkpt lat="43.69857" lon="3.84333">
        <ele>112.9376238631</ele>
        <time>2020-10-25T13:43:19.000Z</time>
      </trkpt>
      <trkpt lat="43.69857" lon="3.8434">
        <ele>112.43460607832</ele>
        <time>2020-10-25T13:43:20.000Z</time>
      </trkpt>
      <trkpt lat="43.69858" lon="3.84348">
        <ele>111.93158829355</ele>
        <time>2020-10-25T13:43:21.000Z</time>
      </trkpt>
      <trkpt lat="43.69858" lon="3.84356">
        <ele>111.42857050877</ele>
        <time>2020-10-25T13:43:22.000Z</time>
      </trkpt>
      <trkpt lat="43.69857" lon="3.84363">
        <ele>110.92555272399</ele>
        <time>2020-10-25T13:43:23.000Z</time>
      </trkpt>
      <trkpt lat="43.69857" lon="3.8437">
        <ele>110.42253493921</ele>
        <time>2020-10-25T13:43:24.000Z</time>
      </trkpt>
      <trkpt lat="43.69856" lon="3.84376">
        <ele>109.95131849002</ele>
        <time>2020-10-25T13:43:25.000Z</time>
      </trkpt>
      <trkpt lat="43.69855" lon="3.84381">
        <ele>109.64705905262</ele>
        <time>2020-10-25T13:43:26.000Z</time>
      </trkpt>
      <trkpt lat="43.69853" lon="3.84384">
        <ele>109.34279961522</ele>
        <time>2020-10-25T13:43:27.000Z</time>
      </trkpt>
      <trkpt lat="43.69851" lon="3.84387">
        <ele>109.03854017782</ele>
        <time>2020-10-25T13:43:28.000Z</time>
      </trkpt>
      <trkpt lat="43.69849" lon="3.84389">
        <ele>108.73428074043</ele>
        <time>2020-10-25T13:43:29.000Z</time>
      </trkpt>
      <trkpt lat="43.69848" lon="3.84393">
        <ele>108.43002130303</ele>
        <time>2020-10-25T13:43:30.000Z</time>
      </trkpt>
      <trkpt lat="43.69847" lon="3.84396">
        <ele>108.12576186563</ele>
        <time>2020-10-25T13:43:31.000Z</time>
      </trkpt>
      <trkpt lat="43.69846" lon="3.844">
        <ele>107.82150242823</ele>
        <time>2020-10-25T13:43:32.000Z</time>
      </trkpt>
      <trkpt lat="43.69846" lon="3.84404">
        <ele>107.51724299084</ele>
        <time>2020-10-25T13:43:33.000Z</time>
      </trkpt>
      <trkpt lat="43.69845" lon="3.84409">
        <ele>107.21298355344</ele>
        <time>2020-10-25T13:43:34.000Z</time>
      </trkpt>
      <trkpt lat="43.69843" lon="3.84415">
        <ele>106.91000192</ele>
        <time>2020-10-25T13:43:35.000Z</time>
      </trkpt>
      <trkpt lat="43.69841" lon="3.84419">
        <ele>106.61000192</ele>
        <time>2020-10-25T13:43:36.000Z</time>
      </trkpt>
      <trkpt lat="43.69839" lon="3.84423">
        <ele>106.31000192</ele>
        <time>2020-10-25T13:43:37.000Z</time>
      </trkpt>
      <trkpt lat="43.69837" lon="3.84427">
        <ele>106.01000192</ele>
        <time>2020-10-25T13:43:38.000Z</time>
      </trkpt>
      <trkpt lat="43.69836" lon="3.84431">
        <ele>105.71000192</ele>
        <time>2020-10-25T13:43:39.000Z</time>
      </trkpt>
      <trkpt lat="43.69835" lon="3.84435">
        <ele>105.41000192</ele>
        <time>2020-10-25T13:43:40.000Z</time>
      </trkpt>
      <trkpt lat="43.69835" lon="3.84439">
        <ele>105.11000192</ele>
        <time>2020-10-25T13:43:41.000Z</time>
      </trkpt>
      <trkpt lat="43.69836" lon="3.84443">
        <ele>104.81000192</ele>
        <time>2020-10-25T13:43:42.000Z</time>
      </trkpt>
      <trkpt lat="43.69836" lon="3.84448">
        <ele>104.51000192</ele>
        <time>2020-10-25T13:43:43.000Z</time>
      </trkpt>
      <trkpt lat="43.69837" lon="3.84453">
        <ele>104.21000192</ele>
        <time>2020-10-25T13:43:44.000Z</time>
      </trkpt>
      <trkpt lat="43.69838" lon="3.84458">
        <ele>103.85366161285</ele>
        <time>2020-10-25T13:43:45.000Z</time>
      </trkpt>
      <trkpt lat="43.69837" lon="3.84464">
        <ele>103.36585658251</ele>
        <time>2020-10-25T13:43:46.000Z</time>
      </trkpt>
      <trkpt lat="43.69835" lon="3.8447">
        <ele>102.87805155217</ele>
        <time>2020-10-25T13:43:47.000Z</time>
      </trkpt>
      <trkpt lat="43.69832" lon="3.84476">
        <ele>102.39024652183</ele>
        <time>2020-10-25T13:43:48.000Z</time>
      </trkpt>
      <trkpt lat="43.69828" lon="3.84482">
        <ele>101.90244149149</ele>
        <time>2020-10-25T13:43:49.000Z</time>
      </trkpt>
      <trkpt lat="43.69825" lon="3.84488">
        <ele>101.41463646115</ele>
        <time>2020-10-25T13:43:50.000Z</time>
      </trkpt>
      <trkpt lat="43.69822" lon="3.84495">
        <ele>100.92683143082</ele>
        <time>2020-10-25T13:43:51.000Z</time>
      </trkpt>
      <trkpt lat="43.69818" lon="3.84501">
        <ele>100.43902640048</ele>
        <time>2020-10-25T13:43:52.000Z</time>
      </trkpt>
      <trkpt lat="43.69814" lon="3.84507">
        <ele>99.951221370137</ele>
        <time>2020-10-25T13:43:53.000Z</time>
      </trkpt>
      <trkpt lat="43.6981" lon="3.84513">
        <ele>99.463416339798</ele>
        <time>2020-10-25T13:43:54.000Z</time>
      </trkpt>
      <trkpt lat="43.69806" lon="3.84518">
        <ele>98.97948849904</ele>
        <time>2020-10-25T13:43:55.000Z</time>
      </trkpt>
      <trkpt lat="43.69802" lon="3.84524">
        <ele>98.569232223431</ele>
        <time>2020-10-25T13:43:56.000Z</time>
      </trkpt>
      <trkpt lat="43.69797" lon="3.84529">
        <ele>98.158975947823</ele>
        <time>2020-10-25T13:43:57.000Z</time>
      </trkpt>
      <trkpt lat="43.69793" lon="3.84533">
        <ele>97.748719672215</ele>
        <time>2020-10-25T13:43:58.000Z</time>
      </trkpt>
      <trkpt lat="43.69787" lon="3.84537">
        <ele>97.338463396607</ele>
        <time>2020-10-25T13:43:59.000Z</time>
      </trkpt>
      <trkpt lat="43.69782" lon="3.84541">
        <ele>96.928207120999</ele>
        <time>2020-10-25T13:44:00.000Z</time>
      </trkpt>
      <trkpt lat="43.69777" lon="3.84545">
        <ele>96.517950845391</ele>
        <time>2020-10-25T13:44:01.000Z</time>
      </trkpt>
      <trkpt lat="43.69772" lon="3.84551">
        <ele>96.107694569782</ele>
        <time>2020-10-25T13:44:02.000Z</time>
      </trkpt>
      <trkpt lat="43.69768" lon="3.84557">
        <ele>95.697438294174</ele>
        <time>2020-10-25T13:44:03.000Z</time>
      </trkpt>
      <trkpt lat="43.69764" lon="3.84562">
        <ele>95.287182018566</ele>
        <time>2020-10-25T13:44:04.000Z</time>
      </trkpt>
      <trkpt lat="43.6976" lon="3.84567">
        <ele>94.88000256</ele>
        <time>2020-10-25T13:44:05.000Z</time>
      </trkpt>
      <trkpt lat="43.69757" lon="3.84572">
        <ele>94.48000256</ele>
        <time>2020-10-25T13:44:06.000Z</time>
      </trkpt>
      <trkpt lat="43.69754" lon="3.84577">
        <ele>94.08000256</ele>
        <time>2020-10-25T13:44:07.000Z</time>
      </trkpt>
      <trkpt lat="43.6975" lon="3.84583">
        <ele>93.68000256</ele>
        <time>2020-10-25T13:44:08.000Z</time>
      </trkpt>
      <trkpt lat="43.69748" lon="3.84589">
        <ele>93.28000256</ele>
        <time>2020-10-25T13:44:09.000Z</time>
      </trkpt>
      <trkpt lat="43.69744" lon="3.84594">
        <ele>92.88000256</ele>
        <time>2020-10-25T13:44:10.000Z</time>
      </trkpt>
      <trkpt lat="43.6974" lon="3.84599">
        <ele>92.48000256</ele>
        <time>2020-10-25T13:44:11.000Z</time>
      </trkpt>
      <trkpt lat="43.69736" lon="3.84603">
        <ele>92.08000256</ele>
        <time>2020-10-25T13:44:12.000Z</time>
      </trkpt>
      <trkpt lat="43.69732" lon="3.84606">
        <ele>91.68000256</ele>
        <time>2020-10-25T13:44:13.000Z</time>
      </trkpt>
      <trkpt lat="43.69728" lon="3.8461">
        <ele>91.28000256</ele>
        <time>2020-10-25T13:44:14.000Z</time>
      </trkpt>
      <trkpt lat="43.69725" lon="3.84614">
        <ele>90.91000192</ele>
        <time>2020-10-25T13:44:15.000Z</time>
      </trkpt>
      <trkpt lat="43.69722" lon="3.84617">
        <ele>90.61000192</ele>
        <time>2020-10-25T13:44:16.000Z</time>
      </trkpt>
      <trkpt lat="43.69719" lon="3.8462">
        <ele>90.31000192</ele>
        <time>2020-10-25T13:44:17.000Z</time>
      </trkpt>
      <trkpt lat="43.69715" lon="3.84622">
        <ele>90.01000192</ele>
        <time>2020-10-25T13:44:18.000Z</time>
      </trkpt>
      <trkpt lat="43.69712" lon="3.84624">
        <ele>89.71000192</ele>
        <time>2020-10-25T13:44:19.000Z</time>
      </trkpt>
      <trkpt lat="43.69708" lon="3.84627">
        <ele>89.41000192</ele>
        <time>2020-10-25T13:44:20.000Z</time>
      </trkpt>
      <trkpt lat="43.69705" lon="3.84629">
        <ele>89.11000192</ele>
        <time>2020-10-25T13:44:21.000Z</time>
      </trkpt>
      <trkpt lat="43.69701" lon="3.84632">
        <ele>88.81000192</ele>
        <time>2020-10-25T13:44:22.000Z</time>
      </trkpt>
      <trkpt lat="43.69697" lon="3.84635">
        <ele>88.51000192</ele>
        <time>2020-10-25T13:44:23.000Z</time>
      </trkpt>
      <trkpt lat="43.69693" lon="3.84638">
        <ele>88.21000192</ele>
        <time>2020-10-25T13:44:24.000Z</time>
      </trkpt>
      <trkpt lat="43.69689" lon="3.84641">
        <ele>87.94059528909</ele>
        <time>2020-10-25T13:44:25.000Z</time>
      </trkpt>
      <trkpt lat="43.69686" lon="3.84643">
        <ele>87.742575361632</ele>
        <time>2020-10-25T13:44:26.000Z</time>
      </trkpt>
      <trkpt lat="43.69682" lon="3.84646">
        <ele>87.544555434174</ele>
        <time>2020-10-25T13:44:27.000Z</time>
      </trkpt>
      <trkpt lat="43.69678" lon="3.84648">
        <ele>87.346535506716</ele>
        <time>2020-10-25T13:44:28.000Z</time>
      </trkpt>
      <trkpt lat="43.69674" lon="3.84651">
        <ele>87.148515579257</ele>
        <time>2020-10-25T13:44:29.000Z</time>
      </trkpt>
      <trkpt lat="43.6967" lon="3.84653">
        <ele>86.950495651799</ele>
        <time>2020-10-25T13:44:30.000Z</time>
      </trkpt>
      <trkpt lat="43.69666" lon="3.84656">
        <ele>86.752475724341</ele>
        <time>2020-10-25T13:44:31.000Z</time>
      </trkpt>
      <trkpt lat="43.69662" lon="3.84658">
        <ele>86.554455796883</ele>
        <time>2020-10-25T13:44:32.000Z</time>
      </trkpt>
      <trkpt lat="43.69658" lon="3.8466">
        <ele>86.356435869425</ele>
        <time>2020-10-25T13:44:33.000Z</time>
      </trkpt>
      <trkpt lat="43.69654" lon="3.84662">
        <ele>86.158415941966</ele>
        <time>2020-10-25T13:44:34.000Z</time>
      </trkpt>
      <trkpt lat="43.69651" lon="3.84664">
        <ele>86</ele>
        <time>2020-10-25T13:44:35.000Z</time>
      </trkpt>
      <trkpt lat="43.69647" lon="3.84667">
        <ele>86</ele>
        <time>2020-10-25T13:44:36.000Z</time>
      </trkpt>
      <trkpt lat="43.69644" lon="3.8467">
        <ele>86</ele>
        <time>2020-10-25T13:44:37.000Z</time>
      </trkpt>
      <trkpt lat="43.69641" lon="3.84672">
        <ele>86</ele>
        <time>2020-10-25T13:44:38.000Z</time>
      </trkpt>
      <trkpt lat="43.69637" lon="3.84675">
        <ele>86</ele>
        <time>2020-10-25T13:44:39.000Z</time>
      </trkpt>
      <trkpt lat="43.69634" lon="3.84677">
        <ele>86</ele>
        <time>2020-10-25T13:44:40.000Z</time>
      </trkpt>
      <trkpt lat="43.69631" lon="3.84679">
        <ele>86</ele>
        <time>2020-10-25T13:44:41.000Z</time>
      </trkpt>
      <trkpt lat="43.69628" lon="3.84682">
        <ele>86</ele>
        <time>2020-10-25T13:44:42.000Z</time>
      </trkpt>
      <trkpt lat="43.69625" lon="3.84684">
        <ele>86</ele>
        <time>2020-10-25T13:44:43.000Z</time>
      </trkpt>
      <trkpt lat="43.69622" lon="3.84686">
        <ele>86</ele>
        <time>2020-10-25T13:44:44.000Z</time>
      </trkpt>
      <trkpt lat="43.69618" lon="3.84688">
        <ele>85.94000128</ele>
        <time>2020-10-25T13:44:45.000Z</time>
      </trkpt>
      <trkpt lat="43.69615" lon="3.84689">
        <ele>85.74000128</ele>
        <time>2020-10-25T13:44:46.000Z</time>
      </trkpt>
      <trkpt lat="43.69612" lon="3.84691">
        <ele>85.54000128</ele>
        <time>2020-10-25T13:44:47.000Z</time>
      </trkpt>
      <trkpt lat="43.69608" lon="3.84693">
        <ele>85.34000128</ele>
        <time>2020-10-25T13:44:48.000Z</time>
      </trkpt>
      <trkpt lat="43.69605" lon="3.84695">
        <ele>85.14000128</ele>
        <time>2020-10-25T13:44:49.000Z</time>
      </trkpt>
      <trkpt lat="43.69602" lon="3.84697">
        <ele>84.94000128</ele>
        <time>2020-10-25T13:44:50.000Z</time>
      </trkpt>
      <trkpt lat="43.69598" lon="3.847">
        <ele>84.74000128</ele>
        <time>2020-10-25T13:44:51.000Z</time>
      </trkpt>
      <trkpt lat="43.69594" lon="3.84702">
        <ele>84.54000128</ele>
        <time>2020-10-25T13:44:52.000Z</time>
      </trkpt>
      <trkpt lat="43.6959" lon="3.84703">
        <ele>84.34000128</ele>
        <time>2020-10-25T13:44:53.000Z</time>
      </trkpt>
      <trkpt lat="43.69586" lon="3.84705">
        <ele>84.14000128</ele>
        <time>2020-10-25T13:44:54.000Z</time>
      </trkpt>
      <trkpt lat="43.69582" lon="3.84707">
        <ele>83.941748779339</ele>
        <time>2020-10-25T13:44:55.000Z</time>
      </trkpt>
      <trkpt lat="43.69577" lon="3.84709">
        <ele>83.747573901405</ele>
        <time>2020-10-25T13:44:56.000Z</time>
      </trkpt>
      <trkpt lat="43.69573" lon="3.84711">
        <ele>83.553399023471</ele>
        <time>2020-10-25T13:44:57.000Z</time>
      </trkpt>
      <trkpt lat="43.69569" lon="3.84713">
        <ele>83.359224145537</ele>
        <time>2020-10-25T13:44:58.000Z</time>
      </trkpt>
      <trkpt lat="43.69564" lon="3.84715">
        <ele>83.165049267603</ele>
        <time>2020-10-25T13:44:59.000Z</time>
      </trkpt>
      <trkpt lat="43.6956" lon="3.84717">
        <ele>82.97087438967</ele>
        <time>2020-10-25T13:45:00.000Z</time>
      </trkpt>
      <trkpt lat="43.69556" lon="3.84719">
        <ele>82.776699511736</ele>
        <time>2020-10-25T13:45:01.000Z</time>
      </trkpt>
      <trkpt lat="43.69551" lon="3.84722">
        <ele>82.582524633802</ele>
        <time>2020-10-25T13:45:02.000Z</time>
      </trkpt>
      <trkpt lat="43.69547" lon="3.84724">
        <ele>82.388349755868</ele>
        <time>2020-10-25T13:45:03.000Z</time>
      </trkpt>
      <trkpt lat="43.69542" lon="3.84726">
        <ele>82.194174877934</ele>
        <time>2020-10-25T13:45:04.000Z</time>
      </trkpt>
      <trkpt lat="43.69538" lon="3.84729">
        <ele>82</ele>
        <time>2020-10-25T13:45:05.000Z</time>
      </trkpt>
      <trkpt lat="43.69534" lon="3.84731">
        <ele>81.900099868164</ele>
        <time>2020-10-25T13:45:06.000Z</time>
      </trkpt>
      <trkpt lat="43.6953" lon="3.84733">
        <ele>81.800199736328</ele>
        <time>2020-10-25T13:45:07.000Z</time>
      </trkpt>
      <trkpt lat="43.69526" lon="3.84736">
        <ele>81.700299604491</ele>
        <time>2020-10-25T13:45:08.000Z</time>
      </trkpt>
      <trkpt lat="43.69522" lon="3.84738">
        <ele>81.600399472655</ele>
        <time>2020-10-25T13:45:09.000Z</time>
      </trkpt>
      <trkpt lat="43.69518" lon="3.84741">
        <ele>81.500499340819</ele>
        <time>2020-10-25T13:45:10.000Z</time>
      </trkpt>
      <trkpt lat="43.69514" lon="3.84743">
        <ele>81.400599208983</ele>
        <time>2020-10-25T13:45:11.000Z</time>
      </trkpt>
      <trkpt lat="43.6951" lon="3.84746">
        <ele>81.300699077147</ele>
        <time>2020-10-25T13:45:12.000Z</time>
      </trkpt>
      <trkpt lat="43.69506" lon="3.84748">
        <ele>81.20079894531</ele>
        <time>2020-10-25T13:45:13.000Z</time>
      </trkpt>
      <trkpt lat="43.69502" lon="3.8475">
        <ele>81.100898813474</ele>
        <time>2020-10-25T13:45:14.000Z</time>
      </trkpt>
      <trkpt lat="43.69498" lon="3.84752">
        <ele>81.000998681638</ele>
        <time>2020-10-25T13:45:15.000Z</time>
      </trkpt>
      <trkpt lat="43.69494" lon="3.84755">
        <ele>80.897832588319</ele>
        <time>2020-10-25T13:45:16.000Z</time>
      </trkpt>
      <trkpt lat="43.69491" lon="3.84757">
        <ele>80.794633516153</ele>
        <time>2020-10-25T13:45:17.000Z</time>
      </trkpt>
      <trkpt lat="43.69487" lon="3.84759">
        <ele>80.691434443986</ele>
        <time>2020-10-25T13:45:18.000Z</time>
      </trkpt>
      <trkpt lat="43.69483" lon="3.84762">
        <ele>80.588235371821</ele>
        <time>2020-10-25T13:45:19.000Z</time>
      </trkpt>
      <trkpt lat="43.69479" lon="3.84764">
        <ele>80.485036299654</ele>
        <time>2020-10-25T13:45:20.000Z</time>
      </trkpt>
      <trkpt lat="43.69475" lon="3.84766">
        <ele>80.381837227488</ele>
        <time>2020-10-25T13:45:21.000Z</time>
      </trkpt>
      <trkpt lat="43.69472" lon="3.84769">
        <ele>80.278638155322</ele>
        <time>2020-10-25T13:45:22.000Z</time>
      </trkpt>
      <trkpt lat="43.69468" lon="3.8477">
        <ele>80.175439083156</ele>
        <time>2020-10-25T13:45:23.000Z</time>
      </trkpt>
      <trkpt lat="43.69464" lon="3.84772">
        <ele>80.07224001099</ele>
        <time>2020-10-25T13:45:24.000Z</time>
      </trkpt>
      <trkpt lat="43.6946" lon="3.84775">
        <ele>79.970060499839</ele>
        <time>2020-10-25T13:45:25.000Z</time>
      </trkpt>
      <trkpt lat="43.69456" lon="3.84777">
        <ele>79.870260036893</ele>
        <time>2020-10-25T13:45:26.000Z</time>
      </trkpt>
      <trkpt lat="43.69452" lon="3.84779">
        <ele>79.770459573946</ele>
        <time>2020-10-25T13:45:27.000Z</time>
      </trkpt>
      <trkpt lat="43.69448" lon="3.84781">
        <ele>79.670659111</ele>
        <time>2020-10-25T13:45:28.000Z</time>
      </trkpt>
      <trkpt lat="43.69444" lon="3.84784">
        <ele>79.570858648053</ele>
        <time>2020-10-25T13:45:29.000Z</time>
      </trkpt>
      <trkpt lat="43.6944" lon="3.84785">
        <ele>79.471058185107</ele>
        <time>2020-10-25T13:45:30.000Z</time>
      </trkpt>
      <trkpt lat="43.69436" lon="3.84787">
        <ele>79.371257722161</ele>
        <time>2020-10-25T13:45:31.000Z</time>
      </trkpt>
      <trkpt lat="43.69431" lon="3.8479">
        <ele>79.271457259214</ele>
        <time>2020-10-25T13:45:32.000Z</time>
      </trkpt>
      <trkpt lat="43.69426" lon="3.84792">
        <ele>79.171656796268</ele>
        <time>2020-10-25T13:45:33.000Z</time>
      </trkpt>
      <trkpt lat="43.69421" lon="3.84794">
        <ele>79.071856333321</ele>
        <time>2020-10-25T13:45:34.000Z</time>
      </trkpt>
      <trkpt lat="43.69415" lon="3.84796">
        <ele>78.971943905767</ele>
        <time>2020-10-25T13:45:35.000Z</time>
      </trkpt>
      <trkpt lat="43.6941" lon="3.84798">
        <ele>78.871743569223</ele>
        <time>2020-10-25T13:45:36.000Z</time>
      </trkpt>
      <trkpt lat="43.69405" lon="3.84799">
        <ele>78.771543232678</ele>
        <time>2020-10-25T13:45:37.000Z</time>
      </trkpt>
      <trkpt lat="43.694" lon="3.84801">
        <ele>78.671342896133</ele>
        <time>2020-10-25T13:45:38.000Z</time>
      </trkpt>
      <trkpt lat="43.69395" lon="3.84803">
        <ele>78.571142559588</ele>
        <time>2020-10-25T13:45:39.000Z</time>
      </trkpt>
      <trkpt lat="43.69389" lon="3.84805">
        <ele>78.470942223043</ele>
        <time>2020-10-25T13:45:40.000Z</time>
      </trkpt>
      <trkpt lat="43.69384" lon="3.84807">
        <ele>78.370741886498</ele>
        <time>2020-10-25T13:45:41.000Z</time>
      </trkpt>
      <trkpt lat="43.6938" lon="3.84808">
        <ele>78.270541549953</ele>
        <time>2020-10-25T13:45:42.000Z</time>
      </trkpt>
      <trkpt lat="43.69376" lon="3.8481">
        <ele>78.170341213408</ele>
        <time>2020-10-25T13:45:43.000Z</time>
      </trkpt>
      <trkpt lat="43.69373" lon="3.84811">
        <ele>78.070140876864</ele>
        <time>2020-10-25T13:45:44.000Z</time>
      </trkpt>
      <trkpt lat="43.6937" lon="3.84813">
        <ele>78</ele>
        <time>2020-10-25T13:45:45.000Z</time>
      </trkpt>
      <trkpt lat="43.69368" lon="3.84815">
        <ele>78</ele>
        <time>2020-10-25T13:45:46.000Z</time>
      </trkpt>
      <trkpt lat="43.69366" lon="3.84817">
        <ele>78</ele>
        <time>2020-10-25T13:45:47.000Z</time>
      </trkpt>
      <trkpt lat="43.69364" lon="3.84818">
        <ele>78</ele>
        <time>2020-10-25T13:45:48.000Z</time>
      </trkpt>
      <trkpt lat="43.69362" lon="3.84819">
        <ele>78</ele>
        <time>2020-10-25T13:45:49.000Z</time>
      </trkpt>
      <trkpt lat="43.6936" lon="3.84818">
        <ele>78</ele>
        <time>2020-10-25T13:45:50.000Z</time>
      </trkpt>
      <trkpt lat="43.69358" lon="3.84818">
        <ele>78</ele>
        <time>2020-10-25T13:45:51.000Z</time>
      </trkpt>
      <trkpt lat="43.69355" lon="3.84818">
        <ele>78</ele>
        <time>2020-10-25T13:45:52.000Z</time>
      </trkpt>
      <trkpt lat="43.69352" lon="3.84818">
        <ele>78</ele>
        <time>2020-10-25T13:45:53.000Z</time>
      </trkpt>
      <trkpt lat="43.69349" lon="3.84819">
        <ele>78</ele>
        <time>2020-10-25T13:45:54.000Z</time>
      </trkpt>
      <trkpt lat="43.69346" lon="3.8482">
        <ele>77.97000064</ele>
        <time>2020-10-25T13:45:55.000Z</time>
      </trkpt>
      <trkpt lat="43.69342" lon="3.84821">
        <ele>77.87000064</ele>
        <time>2020-10-25T13:45:56.000Z</time>
      </trkpt>
      <trkpt lat="43.69339" lon="3.84822">
        <ele>77.77000064</ele>
        <time>2020-10-25T13:45:57.000Z</time>
      </trkpt>
      <trkpt lat="43.69335" lon="3.84823">
        <ele>77.67000064</ele>
        <time>2020-10-25T13:45:58.000Z</time>
      </trkpt>
      <trkpt lat="43.69331" lon="3.84823">
        <ele>77.57000064</ele>
        <time>2020-10-25T13:45:59.000Z</time>
      </trkpt>
      <trkpt lat="43.69328" lon="3.84825">
        <ele>77.47000064</ele>
        <time>2020-10-25T13:46:00.000Z</time>
      </trkpt>
      <trkpt lat="43.69325" lon="3.84828">
        <ele>77.37000064</ele>
        <time>2020-10-25T13:46:01.000Z</time>
      </trkpt>
      <trkpt lat="43.69323" lon="3.84832">
        <ele>77.27000064</ele>
        <time>2020-10-25T13:46:02.000Z</time>
      </trkpt>
      <trkpt lat="43.69321" lon="3.84835">
        <ele>77.17000064</ele>
        <time>2020-10-25T13:46:03.000Z</time>
      </trkpt>
      <trkpt lat="43.6932" lon="3.84839">
        <ele>77.07000064</ele>
        <time>2020-10-25T13:46:04.000Z</time>
      </trkpt>
      <trkpt lat="43.69319" lon="3.84842">
        <ele>77.02912561033</ele>
        <time>2020-10-25T13:46:05.000Z</time>
      </trkpt>
      <trkpt lat="43.69318" lon="3.84846">
        <ele>77.126213049297</ele>
        <time>2020-10-25T13:46:06.000Z</time>
      </trkpt>
      <trkpt lat="43.69317" lon="3.84849">
        <ele>77.223300488264</ele>
        <time>2020-10-25T13:46:07.000Z</time>
      </trkpt>
      <trkpt lat="43.69316" lon="3.84852">
        <ele>77.320387927231</ele>
        <time>2020-10-25T13:46:08.000Z</time>
      </trkpt>
      <trkpt lat="43.69316" lon="3.84856">
        <ele>77.417475366198</ele>
        <time>2020-10-25T13:46:09.000Z</time>
      </trkpt>
      <trkpt lat="43.69315" lon="3.84859">
        <ele>77.514562805165</ele>
        <time>2020-10-25T13:46:10.000Z</time>
      </trkpt>
      <trkpt lat="43.69314" lon="3.84863">
        <ele>77.611650244132</ele>
        <time>2020-10-25T13:46:11.000Z</time>
      </trkpt>
      <trkpt lat="43.69313" lon="3.84866">
        <ele>77.708737683099</ele>
        <time>2020-10-25T13:46:12.000Z</time>
      </trkpt>
      <trkpt lat="43.69312" lon="3.8487">
        <ele>77.805825122066</ele>
        <time>2020-10-25T13:46:13.000Z</time>
      </trkpt>
      <trkpt lat="43.6931" lon="3.84873">
        <ele>77.902912561033</ele>
        <time>2020-10-25T13:46:14.000Z</time>
      </trkpt>
      <trkpt lat="43.69309" lon="3.84877">
        <ele>78</ele>
        <time>2020-10-25T13:46:15.000Z</time>
      </trkpt>
      <trkpt lat="43.69307" lon="3.84881">
        <ele>78.101112267296</ele>
        <time>2020-10-25T13:46:16.000Z</time>
      </trkpt>
      <trkpt lat="43.69305" lon="3.84885">
        <ele>78.202224534592</ele>
        <time>2020-10-25T13:46:17.000Z</time>
      </trkpt>
      <trkpt lat="43.69304" lon="3.84889">
        <ele>78.303336801889</ele>
        <time>2020-10-25T13:46:18.000Z</time>
      </trkpt>
      <trkpt lat="43.69302" lon="3.84893">
        <ele>78.404449069185</ele>
        <time>2020-10-25T13:46:19.000Z</time>
      </trkpt>
      <trkpt lat="43.693" lon="3.84898">
        <ele>78.505561336481</ele>
        <time>2020-10-25T13:46:20.000Z</time>
      </trkpt>
      <trkpt lat="43.69298" lon="3.84902">
        <ele>78.606673603777</ele>
        <time>2020-10-25T13:46:21.000Z</time>
      </trkpt>
      <trkpt lat="43.69296" lon="3.84907">
        <ele>78.707785871073</ele>
        <time>2020-10-25T13:46:22.000Z</time>
      </trkpt>
      <trkpt lat="43.69294" lon="3.84911">
        <ele>78.808898138369</ele>
        <time>2020-10-25T13:46:23.000Z</time>
      </trkpt>
      <trkpt lat="43.69292" lon="3.84915">
        <ele>78.910010405666</ele>
        <time>2020-10-25T13:46:24.000Z</time>
      </trkpt>
      <trkpt lat="43.6929" lon="3.84919">
        <ele>78.988910967742</ele>
        <time>2020-10-25T13:46:25.000Z</time>
      </trkpt>
      <trkpt lat="43.69288" lon="3.84924">
        <ele>78.888104516129</ele>
        <time>2020-10-25T13:46:26.000Z</time>
      </trkpt>
      <trkpt lat="43.69287" lon="3.84928">
        <ele>78.787298064516</ele>
        <time>2020-10-25T13:46:27.000Z</time>
      </trkpt>
      <trkpt lat="43.69285" lon="3.84932">
        <ele>78.686491612903</ele>
        <time>2020-10-25T13:46:28.000Z</time>
      </trkpt>
      <trkpt lat="43.69283" lon="3.84936">
        <ele>78.58568516129</ele>
        <time>2020-10-25T13:46:29.000Z</time>
      </trkpt>
      <trkpt lat="43.69281" lon="3.8494">
        <ele>78.484878709677</ele>
        <time>2020-10-25T13:46:30.000Z</time>
      </trkpt>
      <trkpt lat="43.6928" lon="3.84944">
        <ele>78.384072258065</ele>
        <time>2020-10-25T13:46:31.000Z</time>
      </trkpt>
      <trkpt lat="43.69278" lon="3.84947">
        <ele>78.283265806452</ele>
        <time>2020-10-25T13:46:32.000Z</time>
      </trkpt>
      <trkpt lat="43.69277" lon="3.84951">
        <ele>78.182459354839</ele>
        <time>2020-10-25T13:46:33.000Z</time>
      </trkpt>
      <trkpt lat="43.69276" lon="3.84955">
        <ele>78.081652903226</ele>
        <time>2020-10-25T13:46:34.000Z</time>
      </trkpt>
      <trkpt lat="43.69274" lon="3.84958">
        <ele>77.980788370519</ele>
        <time>2020-10-25T13:46:35.000Z</time>
      </trkpt>
      <trkpt lat="43.69273" lon="3.84962">
        <ele>77.879676234086</ele>
        <time>2020-10-25T13:46:36.000Z</time>
      </trkpt>
      <trkpt lat="43.69271" lon="3.84966">
        <ele>77.778564097653</ele>
        <time>2020-10-25T13:46:37.000Z</time>
      </trkpt>
      <trkpt lat="43.69269" lon="3.84969">
        <ele>77.67745196122</ele>
        <time>2020-10-25T13:46:38.000Z</time>
      </trkpt>
      <trkpt lat="43.69268" lon="3.84973">
        <ele>77.576339824786</ele>
        <time>2020-10-25T13:46:39.000Z</time>
      </trkpt>
      <trkpt lat="43.69265" lon="3.84976">
        <ele>77.475227688353</ele>
        <time>2020-10-25T13:46:40.000Z</time>
      </trkpt>
      <trkpt lat="43.69264" lon="3.8498">
        <ele>77.37411555192</ele>
        <time>2020-10-25T13:46:41.000Z</time>
      </trkpt>
      <trkpt lat="43.69262" lon="3.84984">
        <ele>77.273003415487</ele>
        <time>2020-10-25T13:46:42.000Z</time>
      </trkpt>
      <trkpt lat="43.6926" lon="3.84987">
        <ele>77.171891279054</ele>
        <time>2020-10-25T13:46:43.000Z</time>
      </trkpt>
      <trkpt lat="43.69257" lon="3.8499">
        <ele>77.070779142621</ele>
        <time>2020-10-25T13:46:44.000Z</time>
      </trkpt>
      <trkpt lat="43.69255" lon="3.84992">
        <ele>77</ele>
        <time>2020-10-25T13:46:45.000Z</time>
      </trkpt>
      <trkpt lat="43.69253" lon="3.84995">
        <ele>77</ele>
        <time>2020-10-25T13:46:46.000Z</time>
      </trkpt>
      <trkpt lat="43.69252" lon="3.84997">
        <ele>77</ele>
        <time>2020-10-25T13:46:47.000Z</time>
      </trkpt>
      <trkpt lat="43.6925" lon="3.84999">
        <ele>77</ele>
        <time>2020-10-25T13:46:48.000Z</time>
      </trkpt>
      <trkpt lat="43.69248" lon="3.85001">
        <ele>77</ele>
        <time>2020-10-25T13:46:49.000Z</time>
      </trkpt>
      <trkpt lat="43.69246" lon="3.85003">
        <ele>77</ele>
        <time>2020-10-25T13:46:50.000Z</time>
      </trkpt>
      <trkpt lat="43.69244" lon="3.85005">
        <ele>77</ele>
        <time>2020-10-25T13:46:51.000Z</time>
      </trkpt>
      <trkpt lat="43.69241" lon="3.85007">
        <ele>77</ele>
        <time>2020-10-25T13:46:52.000Z</time>
      </trkpt>
      <trkpt lat="43.69239" lon="3.85009">
        <ele>77</ele>
        <time>2020-10-25T13:46:53.000Z</time>
      </trkpt>
      <trkpt lat="43.69236" lon="3.85012">
        <ele>77</ele>
        <time>2020-10-25T13:46:54.000Z</time>
      </trkpt>
      <trkpt lat="43.69233" lon="3.85015">
        <ele>77</ele>
        <time>2020-10-25T13:46:55.000Z</time>
      </trkpt>
      <trkpt lat="43.6923" lon="3.85018">
        <ele>76.802394697073</ele>
        <time>2020-10-25T13:46:56.000Z</time>
      </trkpt>
      <trkpt lat="43.69226" lon="3.85021">
        <ele>76.60279402616</ele>
        <time>2020-10-25T13:46:57.000Z</time>
      </trkpt>
      <trkpt lat="43.69222" lon="3.85024">
        <ele>76.403193355246</ele>
        <time>2020-10-25T13:46:58.000Z</time>
      </trkpt>
      <trkpt lat="43.69218" lon="3.85028">
        <ele>76.203592684332</ele>
        <time>2020-10-25T13:46:59.000Z</time>
      </trkpt>
      <trkpt lat="43.69214" lon="3.85032">
        <ele>76.003992013418</ele>
        <time>2020-10-25T13:47:00.000Z</time>
      </trkpt>
      <trkpt lat="43.6921" lon="3.85035">
        <ele>75.804391342505</ele>
        <time>2020-10-25T13:47:01.000Z</time>
      </trkpt>
      <trkpt lat="43.69206" lon="3.85039">
        <ele>75.604790671591</ele>
        <time>2020-10-25T13:47:02.000Z</time>
      </trkpt>
      <trkpt lat="43.69202" lon="3.85043">
        <ele>75.405190000677</ele>
        <time>2020-10-25T13:47:03.000Z</time>
      </trkpt>
      <trkpt lat="43.69197" lon="3.85047">
        <ele>75.205589329763</ele>
        <time>2020-10-25T13:47:04.000Z</time>
      </trkpt>
      <trkpt lat="43.69193" lon="3.85051">
        <ele>75.00598865885</ele>
        <time>2020-10-25T13:47:05.000Z</time>
      </trkpt>
      <trkpt lat="43.69189" lon="3.85056">
        <ele>74.80561173907</ele>
        <time>2020-10-25T13:47:06.000Z</time>
      </trkpt>
      <trkpt lat="43.69185" lon="3.8506">
        <ele>74.605210808953</ele>
        <time>2020-10-25T13:47:07.000Z</time>
      </trkpt>
      <trkpt lat="43.6918" lon="3.85064">
        <ele>74.404809878836</ele>
        <time>2020-10-25T13:47:08.000Z</time>
      </trkpt>
      <trkpt lat="43.69176" lon="3.85067">
        <ele>74.204408948719</ele>
        <time>2020-10-25T13:47:09.000Z</time>
      </trkpt>
      <trkpt lat="43.69172" lon="3.85071">
        <ele>74.004008018602</ele>
        <time>2020-10-25T13:47:10.000Z</time>
      </trkpt>
      <trkpt lat="43.69168" lon="3.85075">
        <ele>73.803607088486</ele>
        <time>2020-10-25T13:47:11.000Z</time>
      </trkpt>
      <trkpt lat="43.69163" lon="3.85078">
        <ele>73.603206158369</ele>
        <time>2020-10-25T13:47:12.000Z</time>
      </trkpt>
      <trkpt lat="43.69159" lon="3.85082">
        <ele>73.402805228252</ele>
        <time>2020-10-25T13:47:13.000Z</time>
      </trkpt>
      <trkpt lat="43.69154" lon="3.85086">
        <ele>73.202404298135</ele>
        <time>2020-10-25T13:47:14.000Z</time>
      </trkpt>
      <trkpt lat="43.69149" lon="3.85091">
        <ele>73.002003368018</ele>
        <time>2020-10-25T13:47:15.000Z</time>
      </trkpt>
      <trkpt lat="43.69145" lon="3.85094">
        <ele>72.897832588319</ele>
        <time>2020-10-25T13:47:16.000Z</time>
      </trkpt>
      <trkpt lat="43.69141" lon="3.85098">
        <ele>72.794633516153</ele>
        <time>2020-10-25T13:47:17.000Z</time>
      </trkpt>
      <trkpt lat="43.69137" lon="3.85102">
        <ele>72.691434443986</ele>
        <time>2020-10-25T13:47:18.000Z</time>
      </trkpt>
      <trkpt lat="43.69133" lon="3.85106">
        <ele>72.588235371821</ele>
        <time>2020-10-25T13:47:19.000Z</time>
      </trkpt>
      <trkpt lat="43.69128" lon="3.8511">
        <ele>72.485036299654</ele>
        <time>2020-10-25T13:47:20.000Z</time>
      </trkpt>
      <trkpt lat="43.69124" lon="3.85114">
        <ele>72.381837227488</ele>
        <time>2020-10-25T13:47:21.000Z</time>
      </trkpt>
      <trkpt lat="43.69119" lon="3.85117">
        <ele>72.278638155322</ele>
        <time>2020-10-25T13:47:22.000Z</time>
      </trkpt>
      <trkpt lat="43.69115" lon="3.85121">
        <ele>72.175439083156</ele>
        <time>2020-10-25T13:47:23.000Z</time>
      </trkpt>
      <trkpt lat="43.69109" lon="3.85125">
        <ele>72.07224001099</ele>
        <time>2020-10-25T13:47:24.000Z</time>
      </trkpt>
      <trkpt lat="43.69103" lon="3.8513">
        <ele>71.970268216537</ele>
        <time>2020-10-25T13:47:25.000Z</time>
      </trkpt>
      <trkpt lat="43.69097" lon="3.85137">
        <ele>71.871160157355</ele>
        <time>2020-10-25T13:47:26.000Z</time>
      </trkpt>
      <trkpt lat="43.69091" lon="3.85143">
        <ele>71.772052098173</ele>
        <time>2020-10-25T13:47:27.000Z</time>
      </trkpt>
      <trkpt lat="43.69087" lon="3.8515">
        <ele>71.672944038991</ele>
        <time>2020-10-25T13:47:28.000Z</time>
      </trkpt>
      <trkpt lat="43.69083" lon="3.85158">
        <ele>71.573835979809</ele>
        <time>2020-10-25T13:47:29.000Z</time>
      </trkpt>
      <trkpt lat="43.6908" lon="3.85166">
        <ele>71.474727920627</ele>
        <time>2020-10-25T13:47:30.000Z</time>
      </trkpt>
      <trkpt lat="43.69077" lon="3.85175">
        <ele>71.375619861445</ele>
        <time>2020-10-25T13:47:31.000Z</time>
      </trkpt>
      <trkpt lat="43.69076" lon="3.85184">
        <ele>71.276511802263</ele>
        <time>2020-10-25T13:47:32.000Z</time>
      </trkpt>
      <trkpt lat="43.69075" lon="3.85192">
        <ele>71.177403743081</ele>
        <time>2020-10-25T13:47:33.000Z</time>
      </trkpt>
      <trkpt lat="43.69074" lon="3.85199">
        <ele>71.078295683899</ele>
        <time>2020-10-25T13:47:34.000Z</time>
      </trkpt>
      <trkpt lat="43.69073" lon="3.85207">
        <ele>70.957619226601</ele>
        <time>2020-10-25T13:47:35.000Z</time>
      </trkpt>
      <trkpt lat="43.69072" lon="3.85214">
        <ele>70.755802944645</ele>
        <time>2020-10-25T13:47:36.000Z</time>
      </trkpt>
      <trkpt lat="43.69071" lon="3.85221">
        <ele>70.553986662689</ele>
        <time>2020-10-25T13:47:37.000Z</time>
      </trkpt>
      <trkpt lat="43.69071" lon="3.85228">
        <ele>70.352170380732</ele>
        <time>2020-10-25T13:47:38.000Z</time>
      </trkpt>
      <trkpt lat="43.6907" lon="3.85234">
        <ele>70.150354098776</ele>
        <time>2020-10-25T13:47:39.000Z</time>
      </trkpt>
      <trkpt lat="43.6907" lon="3.8524">
        <ele>69.948537816819</ele>
        <time>2020-10-25T13:47:40.000Z</time>
      </trkpt>
      <trkpt lat="43.69069" lon="3.85246">
        <ele>69.746721534863</ele>
        <time>2020-10-25T13:47:41.000Z</time>
      </trkpt>
      <trkpt lat="43.69068" lon="3.85252">
        <ele>69.544905252907</ele>
        <time>2020-10-25T13:47:42.000Z</time>
      </trkpt>
      <trkpt lat="43.69068" lon="3.85257">
        <ele>69.34308897095</ele>
        <time>2020-10-25T13:47:43.000Z</time>
      </trkpt>
      <trkpt lat="43.69067" lon="3.85262">
        <ele>69.141272688994</ele>
        <time>2020-10-25T13:47:44.000Z</time>
      </trkpt>
      <trkpt lat="43.69067" lon="3.85267">
        <ele>68.94000128</ele>
        <time>2020-10-25T13:47:45.000Z</time>
      </trkpt>
      <trkpt lat="43.69067" lon="3.85271">
        <ele>68.74000128</ele>
        <time>2020-10-25T13:47:46.000Z</time>
      </trkpt>
      <trkpt lat="43.69067" lon="3.85276">
        <ele>68.54000128</ele>
        <time>2020-10-25T13:47:47.000Z</time>
      </trkpt>
      <trkpt lat="43.69066" lon="3.85279">
        <ele>68.34000128</ele>
        <time>2020-10-25T13:47:48.000Z</time>
      </trkpt>
      <trkpt lat="43.69066" lon="3.85283">
        <ele>68.14000128</ele>
        <time>2020-10-25T13:47:49.000Z</time>
      </trkpt>
      <trkpt lat="43.69065" lon="3.85287">
        <ele>67.94000128</ele>
        <time>2020-10-25T13:47:50.000Z</time>
      </trkpt>
      <trkpt lat="43.69064" lon="3.85291">
        <ele>67.74000128</ele>
        <time>2020-10-25T13:47:51.000Z</time>
      </trkpt>
      <trkpt lat="43.69063" lon="3.85294">
        <ele>67.54000128</ele>
        <time>2020-10-25T13:47:52.000Z</time>
      </trkpt>
      <trkpt lat="43.69062" lon="3.85298">
        <ele>67.34000128</ele>
        <time>2020-10-25T13:47:53.000Z</time>
      </trkpt>
      <trkpt lat="43.69062" lon="3.85301">
        <ele>67.14000128</ele>
        <time>2020-10-25T13:47:54.000Z</time>
      </trkpt>
      <trkpt lat="43.69061" lon="3.85306">
        <ele>66.97000064</ele>
        <time>2020-10-25T13:47:55.000Z</time>
      </trkpt>
      <trkpt lat="43.6906" lon="3.8531">
        <ele>66.87000064</ele>
        <time>2020-10-25T13:47:56.000Z</time>
      </trkpt>
      <trkpt lat="43.69059" lon="3.85314">
        <ele>66.77000064</ele>
        <time>2020-10-25T13:47:57.000Z</time>
      </trkpt>
      <trkpt lat="43.69057" lon="3.85317">
        <ele>66.67000064</ele>
        <time>2020-10-25T13:47:58.000Z</time>
      </trkpt>
      <trkpt lat="43.69054" lon="3.8532">
        <ele>66.57000064</ele>
        <time>2020-10-25T13:47:59.000Z</time>
      </trkpt>
      <trkpt lat="43.69051" lon="3.85322">
        <ele>66.47000064</ele>
        <time>2020-10-25T13:48:00.000Z</time>
      </trkpt>
      <trkpt lat="43.69048" lon="3.85325">
        <ele>66.37000064</ele>
        <time>2020-10-25T13:48:01.000Z</time>
      </trkpt>
      <trkpt lat="43.69045" lon="3.85327">
        <ele>66.27000064</ele>
        <time>2020-10-25T13:48:02.000Z</time>
      </trkpt>
      <trkpt lat="43.69042" lon="3.85329">
        <ele>66.17000064</ele>
        <time>2020-10-25T13:48:03.000Z</time>
      </trkpt>
      <trkpt lat="43.69039" lon="3.85332">
        <ele>66.07000064</ele>
        <time>2020-10-25T13:48:04.000Z</time>
      </trkpt>
      <trkpt lat="43.69036" lon="3.85334">
        <ele>65.97000064</ele>
        <time>2020-10-25T13:48:05.000Z</time>
      </trkpt>
      <trkpt lat="43.69033" lon="3.85337">
        <ele>65.87000064</ele>
        <time>2020-10-25T13:48:06.000Z</time>
      </trkpt>
      <trkpt lat="43.6903" lon="3.85339">
        <ele>65.77000064</ele>
        <time>2020-10-25T13:48:07.000Z</time>
      </trkpt>
      <trkpt lat="43.69027" lon="3.85342">
        <ele>65.67000064</ele>
        <time>2020-10-25T13:48:08.000Z</time>
      </trkpt>
      <trkpt lat="43.69024" lon="3.85345">
        <ele>65.57000064</ele>
        <time>2020-10-25T13:48:09.000Z</time>
      </trkpt>
      <trkpt lat="43.69021" lon="3.85348">
        <ele>65.47000064</ele>
        <time>2020-10-25T13:48:10.000Z</time>
      </trkpt>
      <trkpt lat="43.69017" lon="3.85351">
        <ele>65.37000064</ele>
        <time>2020-10-25T13:48:11.000Z</time>
      </trkpt>
      <trkpt lat="43.69014" lon="3.85354">
        <ele>65.27000064</ele>
        <time>2020-10-25T13:48:12.000Z</time>
      </trkpt>
      <trkpt lat="43.69011" lon="3.85357">
        <ele>65.17000064</ele>
        <time>2020-10-25T13:48:13.000Z</time>
      </trkpt>
      <trkpt lat="43.69008" lon="3.8536">
        <ele>65.07000064</ele>
        <time>2020-10-25T13:48:14.000Z</time>
      </trkpt>
      <trkpt lat="43.69005" lon="3.85363">
        <ele>64.97087438967</ele>
        <time>2020-10-25T13:48:15.000Z</time>
      </trkpt>
      <trkpt lat="43.69002" lon="3.85367">
        <ele>64.873786950703</ele>
        <time>2020-10-25T13:48:16.000Z</time>
      </trkpt>
      <trkpt lat="43.68999" lon="3.8537">
        <ele>64.776699511736</ele>
        <time>2020-10-25T13:48:17.000Z</time>
      </trkpt>
      <trkpt lat="43.68996" lon="3.85374">
        <ele>64.679612072769</ele>
        <time>2020-10-25T13:48:18.000Z</time>
      </trkpt>
      <trkpt lat="43.68992" lon="3.85378">
        <ele>64.582524633802</ele>
        <time>2020-10-25T13:48:19.000Z</time>
      </trkpt>
      <trkpt lat="43.68989" lon="3.85381">
        <ele>64.485437194835</ele>
        <time>2020-10-25T13:48:20.000Z</time>
      </trkpt>
      <trkpt lat="43.68986" lon="3.85385">
        <ele>64.388349755868</ele>
        <time>2020-10-25T13:48:21.000Z</time>
      </trkpt>
      <trkpt lat="43.68982" lon="3.85389">
        <ele>64.291262316901</ele>
        <time>2020-10-25T13:48:22.000Z</time>
      </trkpt>
      <trkpt lat="43.68978" lon="3.85393">
        <ele>64.194174877934</ele>
        <time>2020-10-25T13:48:23.000Z</time>
      </trkpt>
      <trkpt lat="43.68975" lon="3.85397">
        <ele>64.097087438967</ele>
        <time>2020-10-25T13:48:24.000Z</time>
      </trkpt>
      <trkpt lat="43.68971" lon="3.85401">
        <ele>64</ele>
        <time>2020-10-25T13:48:25.000Z</time>
      </trkpt>
      <trkpt lat="43.68968" lon="3.85405">
        <ele>64.103092715485</ele>
        <time>2020-10-25T13:48:26.000Z</time>
      </trkpt>
      <trkpt lat="43.68964" lon="3.85409">
        <ele>64.20618543097</ele>
        <time>2020-10-25T13:48:27.000Z</time>
      </trkpt>
      <trkpt lat="43.68961" lon="3.85413">
        <ele>64.309278146456</ele>
        <time>2020-10-25T13:48:28.000Z</time>
      </trkpt>
      <trkpt lat="43.68957" lon="3.85417">
        <ele>64.412370861941</ele>
        <time>2020-10-25T13:48:29.000Z</time>
      </trkpt>
      <trkpt lat="43.68953" lon="3.85421">
        <ele>64.515463577426</ele>
        <time>2020-10-25T13:48:30.000Z</time>
      </trkpt>
      <trkpt lat="43.6895" lon="3.85425">
        <ele>64.618556292911</ele>
        <time>2020-10-25T13:48:31.000Z</time>
      </trkpt>
      <trkpt lat="43.68946" lon="3.85429">
        <ele>64.721649008396</ele>
        <time>2020-10-25T13:48:32.000Z</time>
      </trkpt>
      <trkpt lat="43.68943" lon="3.85433">
        <ele>64.824741723882</ele>
        <time>2020-10-25T13:48:33.000Z</time>
      </trkpt>
      <trkpt lat="43.68939" lon="3.85437">
        <ele>64.927834439367</ele>
        <time>2020-10-25T13:48:34.000Z</time>
      </trkpt>
      <trkpt lat="43.68936" lon="3.85441">
        <ele>65.02999936</ele>
        <time>2020-10-25T13:48:35.000Z</time>
      </trkpt>
      <trkpt lat="43.68932" lon="3.85445">
        <ele>65.12999936</ele>
        <time>2020-10-25T13:48:36.000Z</time>
      </trkpt>
      <trkpt lat="43.68928" lon="3.85449">
        <ele>65.22999936</ele>
        <time>2020-10-25T13:48:37.000Z</time>
      </trkpt>
      <trkpt lat="43.68925" lon="3.85453">
        <ele>65.32999936</ele>
        <time>2020-10-25T13:48:38.000Z</time>
      </trkpt>
      <trkpt lat="43.68921" lon="3.85457">
        <ele>65.42999936</ele>
        <time>2020-10-25T13:48:39.000Z</time>
      </trkpt>
      <trkpt lat="43.68917" lon="3.85462">
        <ele>65.52999936</ele>
        <time>2020-10-25T13:48:40.000Z</time>
      </trkpt>
      <trkpt lat="43.68914" lon="3.85466">
        <ele>65.62999936</ele>
        <time>2020-10-25T13:48:41.000Z</time>
      </trkpt>
      <trkpt lat="43.6891" lon="3.8547">
        <ele>65.72999936</ele>
        <time>2020-10-25T13:48:42.000Z</time>
      </trkpt>
      <trkpt lat="43.68906" lon="3.85474">
        <ele>65.82999936</ele>
        <time>2020-10-25T13:48:43.000Z</time>
      </trkpt>
      <trkpt lat="43.68902" lon="3.85478">
        <ele>65.92999936</ele>
        <time>2020-10-25T13:48:44.000Z</time>
      </trkpt>
      <trkpt lat="43.68898" lon="3.85483">
        <ele>65.970559972265</ele>
        <time>2020-10-25T13:48:45.000Z</time>
      </trkpt>
      <trkpt lat="43.68894" lon="3.85487">
        <ele>65.872424452922</ele>
        <time>2020-10-25T13:48:46.000Z</time>
      </trkpt>
      <trkpt lat="43.6889" lon="3.85492">
        <ele>65.774288933579</ele>
        <time>2020-10-25T13:48:47.000Z</time>
      </trkpt>
      <trkpt lat="43.68886" lon="3.85496">
        <ele>65.676153414237</ele>
        <time>2020-10-25T13:48:48.000Z</time>
      </trkpt>
      <trkpt lat="43.68882" lon="3.85501">
        <ele>65.578017894894</ele>
        <time>2020-10-25T13:48:49.000Z</time>
      </trkpt>
      <trkpt lat="43.68877" lon="3.85506">
        <ele>65.479882375552</ele>
        <time>2020-10-25T13:48:50.000Z</time>
      </trkpt>
      <trkpt lat="43.68873" lon="3.85511">
        <ele>65.381746856209</ele>
        <time>2020-10-25T13:48:51.000Z</time>
      </trkpt>
      <trkpt lat="43.68868" lon="3.85515">
        <ele>65.283611336866</ele>
        <time>2020-10-25T13:48:52.000Z</time>
      </trkpt>
      <trkpt lat="43.68862" lon="3.85519">
        <ele>65.185475817524</ele>
        <time>2020-10-25T13:48:53.000Z</time>
      </trkpt>
      <trkpt lat="43.68857" lon="3.85523">
        <ele>65.087340298181</ele>
        <time>2020-10-25T13:48:54.000Z</time>
      </trkpt>
      <trkpt lat="43.68851" lon="3.85527">
        <ele>64.988786636865</ele>
        <time>2020-10-25T13:48:55.000Z</time>
      </trkpt>
      <trkpt lat="43.68845" lon="3.85531">
        <ele>64.886849937435</ele>
        <time>2020-10-25T13:48:56.000Z</time>
      </trkpt>
      <trkpt lat="43.68839" lon="3.85535">
        <ele>64.784913238005</ele>
        <time>2020-10-25T13:48:57.000Z</time>
      </trkpt>
      <trkpt lat="43.68833" lon="3.85539">
        <ele>64.682976538576</ele>
        <time>2020-10-25T13:48:58.000Z</time>
      </trkpt>
      <trkpt lat="43.68827" lon="3.85544">
        <ele>64.581039839146</ele>
        <time>2020-10-25T13:48:59.000Z</time>
      </trkpt>
      <trkpt lat="43.68821" lon="3.85548">
        <ele>64.479103139716</ele>
        <time>2020-10-25T13:49:00.000Z</time>
      </trkpt>
      <trkpt lat="43.68814" lon="3.85553">
        <ele>64.377166440286</ele>
        <time>2020-10-25T13:49:01.000Z</time>
      </trkpt>
      <trkpt lat="43.68808" lon="3.85557">
        <ele>64.275229740856</ele>
        <time>2020-10-25T13:49:02.000Z</time>
      </trkpt>
      <trkpt lat="43.68801" lon="3.85562">
        <ele>64.173293041426</ele>
        <time>2020-10-25T13:49:03.000Z</time>
      </trkpt>
      <trkpt lat="43.68795" lon="3.85566">
        <ele>64.071356341996</ele>
        <time>2020-10-25T13:49:04.000Z</time>
      </trkpt>
      <trkpt lat="43.68789" lon="3.85571">
        <ele>63.97000064</ele>
        <time>2020-10-25T13:49:05.000Z</time>
      </trkpt>
      <trkpt lat="43.68782" lon="3.85575">
        <ele>63.87000064</ele>
        <time>2020-10-25T13:49:06.000Z</time>
      </trkpt>
      <trkpt lat="43.68776" lon="3.8558">
        <ele>63.77000064</ele>
        <time>2020-10-25T13:49:07.000Z</time>
      </trkpt>
      <trkpt lat="43.6877" lon="3.85584">
        <ele>63.67000064</ele>
        <time>2020-10-25T13:49:08.000Z</time>
      </trkpt>
      <trkpt lat="43.68764" lon="3.85588">
        <ele>63.57000064</ele>
        <time>2020-10-25T13:49:09.000Z</time>
      </trkpt>
      <trkpt lat="43.68758" lon="3.85591">
        <ele>63.47000064</ele>
        <time>2020-10-25T13:49:10.000Z</time>
      </trkpt>
      <trkpt lat="43.68752" lon="3.85596">
        <ele>63.37000064</ele>
        <time>2020-10-25T13:49:11.000Z</time>
      </trkpt>
      <trkpt lat="43.68745" lon="3.856">
        <ele>63.27000064</ele>
        <time>2020-10-25T13:49:12.000Z</time>
      </trkpt>
      <trkpt lat="43.6874" lon="3.85604">
        <ele>63.17000064</ele>
        <time>2020-10-25T13:49:13.000Z</time>
      </trkpt>
      <trkpt lat="43.68734" lon="3.85607">
        <ele>63.07000064</ele>
        <time>2020-10-25T13:49:14.000Z</time>
      </trkpt>
      <trkpt lat="43.68728" lon="3.8561">
        <ele>62.941635413709</ele>
        <time>2020-10-25T13:49:15.000Z</time>
      </trkpt>
      <trkpt lat="43.68722" lon="3.85612">
        <ele>62.747082642282</ele>
        <time>2020-10-25T13:49:16.000Z</time>
      </trkpt>
      <trkpt lat="43.68717" lon="3.85614">
        <ele>62.552529870854</ele>
        <time>2020-10-25T13:49:17.000Z</time>
      </trkpt>
      <trkpt lat="43.68711" lon="3.85615">
        <ele>62.357977099427</ele>
        <time>2020-10-25T13:49:18.000Z</time>
      </trkpt>
      <trkpt lat="43.68705" lon="3.85617">
        <ele>62.163424327999</ele>
        <time>2020-10-25T13:49:19.000Z</time>
      </trkpt>
      <trkpt lat="43.68699" lon="3.85618">
        <ele>61.968871556572</ele>
        <time>2020-10-25T13:49:20.000Z</time>
      </trkpt>
      <trkpt lat="43.68693" lon="3.85619">
        <ele>61.774318785144</ele>
        <time>2020-10-25T13:49:21.000Z</time>
      </trkpt>
      <trkpt lat="43.68687" lon="3.85621">
        <ele>61.579766013716</ele>
        <time>2020-10-25T13:49:22.000Z</time>
      </trkpt>
      <trkpt lat="43.68682" lon="3.85622">
        <ele>61.385213242289</ele>
        <time>2020-10-25T13:49:23.000Z</time>
      </trkpt>
      <trkpt lat="43.68676" lon="3.85623">
        <ele>61.190660470861</ele>
        <time>2020-10-25T13:49:24.000Z</time>
      </trkpt>
      <trkpt lat="43.6867" lon="3.85624">
        <ele>60.995933658537</ele>
        <time>2020-10-25T13:49:25.000Z</time>
      </trkpt>
      <trkpt lat="43.68665" lon="3.85625">
        <ele>60.792681626016</ele>
        <time>2020-10-25T13:49:26.000Z</time>
      </trkpt>
      <trkpt lat="43.68659" lon="3.85627">
        <ele>60.589429593496</ele>
        <time>2020-10-25T13:49:27.000Z</time>
      </trkpt>
      <trkpt lat="43.68653" lon="3.85628">
        <ele>60.386177560976</ele>
        <time>2020-10-25T13:49:28.000Z</time>
      </trkpt>
      <trkpt lat="43.68646" lon="3.8563">
        <ele>60.182925528455</ele>
        <time>2020-10-25T13:49:29.000Z</time>
      </trkpt>
      <trkpt lat="43.6864" lon="3.85632">
        <ele>59.979673495935</ele>
        <time>2020-10-25T13:49:30.000Z</time>
      </trkpt>
      <trkpt lat="43.68634" lon="3.85633">
        <ele>59.776421463415</ele>
        <time>2020-10-25T13:49:31.000Z</time>
      </trkpt>
      <trkpt lat="43.68628" lon="3.85635">
        <ele>59.573169430894</ele>
        <time>2020-10-25T13:49:32.000Z</time>
      </trkpt>
      <trkpt lat="43.68622" lon="3.85636">
        <ele>59.369917398374</ele>
        <time>2020-10-25T13:49:33.000Z</time>
      </trkpt>
      <trkpt lat="43.68616" lon="3.85638">
        <ele>59.166665365854</ele>
        <time>2020-10-25T13:49:34.000Z</time>
      </trkpt>
      <trkpt lat="43.6861" lon="3.8564">
        <ele>59</ele>
        <time>2020-10-25T13:49:35.000Z</time>
      </trkpt>
      <trkpt lat="43.68604" lon="3.85641">
        <ele>59</ele>
        <time>2020-10-25T13:49:36.000Z</time>
      </trkpt>
      <trkpt lat="43.68597" lon="3.85643">
        <ele>59</ele>
        <time>2020-10-25T13:49:37.000Z</time>
      </trkpt>
      <trkpt lat="43.68591" lon="3.85644">
        <ele>59</ele>
        <time>2020-10-25T13:49:38.000Z</time>
      </trkpt>
      <trkpt lat="43.68585" lon="3.85646">
        <ele>59</ele>
        <time>2020-10-25T13:49:39.000Z</time>
      </trkpt>
      <trkpt lat="43.68578" lon="3.85647">
        <ele>59</ele>
        <time>2020-10-25T13:49:40.000Z</time>
      </trkpt>
      <trkpt lat="43.68572" lon="3.85649">
        <ele>59</ele>
        <time>2020-10-25T13:49:41.000Z</time>
      </trkpt>
      <trkpt lat="43.68566" lon="3.8565">
        <ele>59</ele>
        <time>2020-10-25T13:49:42.000Z</time>
      </trkpt>
      <trkpt lat="43.68559" lon="3.85652">
        <ele>59</ele>
        <time>2020-10-25T13:49:43.000Z</time>
      </trkpt>
      <trkpt lat="43.68553" lon="3.85653">
        <ele>59</ele>
        <time>2020-10-25T13:49:44.000Z</time>
      </trkpt>
      <trkpt lat="43.68547" lon="3.85654">
        <ele>58.982776418958</ele>
        <time>2020-10-25T13:49:45.000Z</time>
      </trkpt>
      <trkpt lat="43.68541" lon="3.85655">
        <ele>58.881459329213</ele>
        <time>2020-10-25T13:49:46.000Z</time>
      </trkpt>
      <trkpt lat="43.68535" lon="3.85655">
        <ele>58.780142239468</ele>
        <time>2020-10-25T13:49:47.000Z</time>
      </trkpt>
      <trkpt lat="43.6853" lon="3.85655">
        <ele>58.678825149722</ele>
        <time>2020-10-25T13:49:48.000Z</time>
      </trkpt>
      <trkpt lat="43.68524" lon="3.85654">
        <ele>58.577508059977</ele>
        <time>2020-10-25T13:49:49.000Z</time>
      </trkpt>
      <trkpt lat="43.68518" lon="3.85653">
        <ele>58.476190970232</ele>
        <time>2020-10-25T13:49:50.000Z</time>
      </trkpt>
      <trkpt lat="43.68513" lon="3.85651">
        <ele>58.374873880487</ele>
        <time>2020-10-25T13:49:51.000Z</time>
      </trkpt>
      <trkpt lat="43.68507" lon="3.8565">
        <ele>58.273556790742</ele>
        <time>2020-10-25T13:49:52.000Z</time>
      </trkpt>
      <trkpt lat="43.68502" lon="3.85648">
        <ele>58.172239700996</ele>
        <time>2020-10-25T13:49:53.000Z</time>
      </trkpt>
      <trkpt lat="43.68496" lon="3.85646">
        <ele>58.070922611251</ele>
        <time>2020-10-25T13:49:54.000Z</time>
      </trkpt>
      <trkpt lat="43.68491" lon="3.85645">
        <ele>58.02999936</ele>
        <time>2020-10-25T13:49:55.000Z</time>
      </trkpt>
      <trkpt lat="43.68486" lon="3.85644">
        <ele>58.12999936</ele>
        <time>2020-10-25T13:49:56.000Z</time>
      </trkpt>
      <trkpt lat="43.68481" lon="3.85643">
        <ele>58.22999936</ele>
        <time>2020-10-25T13:49:57.000Z</time>
      </trkpt>
      <trkpt lat="43.68476" lon="3.85642">
        <ele>58.32999936</ele>
        <time>2020-10-25T13:49:58.000Z</time>
      </trkpt>
      <trkpt lat="43.68471" lon="3.85641">
        <ele>58.42999936</ele>
        <time>2020-10-25T13:49:59.000Z</time>
      </trkpt>
      <trkpt lat="43.68466" lon="3.85641">
        <ele>58.52999936</ele>
        <time>2020-10-25T13:50:00.000Z</time>
      </trkpt>
      <trkpt lat="43.68461" lon="3.85641">
        <ele>58.62999936</ele>
        <time>2020-10-25T13:50:01.000Z</time>
      </trkpt>
      <trkpt lat="43.68457" lon="3.8564">
        <ele>58.72999936</ele>
        <time>2020-10-25T13:50:02.000Z</time>
      </trkpt>
      <trkpt lat="43.68452" lon="3.8564">
        <ele>58.82999936</ele>
        <time>2020-10-25T13:50:03.000Z</time>
      </trkpt>
      <trkpt lat="43.68447" lon="3.8564">
        <ele>58.92999936</ele>
        <time>2020-10-25T13:50:04.000Z</time>
      </trkpt>
      <trkpt lat="43.68442" lon="3.85641">
        <ele>59</ele>
        <time>2020-10-25T13:50:05.000Z</time>
      </trkpt>
      <trkpt lat="43.68436" lon="3.85641">
        <ele>59</ele>
        <time>2020-10-25T13:50:06.000Z</time>
      </trkpt>
      <trkpt lat="43.68431" lon="3.85642">
        <ele>59</ele>
        <time>2020-10-25T13:50:07.000Z</time>
      </trkpt>
      <trkpt lat="43.68426" lon="3.85642">
        <ele>59</ele>
        <time>2020-10-25T13:50:08.000Z</time>
      </trkpt>
      <trkpt lat="43.68422" lon="3.85643">
        <ele>59</ele>
        <time>2020-10-25T13:50:09.000Z</time>
      </trkpt>
      <trkpt lat="43.68417" lon="3.85643">
        <ele>59</ele>
        <time>2020-10-25T13:50:10.000Z</time>
      </trkpt>
      <trkpt lat="43.68412" lon="3.85644">
        <ele>59</ele>
        <time>2020-10-25T13:50:11.000Z</time>
      </trkpt>
      <trkpt lat="43.68407" lon="3.85644">
        <ele>59</ele>
        <time>2020-10-25T13:50:12.000Z</time>
      </trkpt>
      <trkpt lat="43.68402" lon="3.85645">
        <ele>59</ele>
        <time>2020-10-25T13:50:13.000Z</time>
      </trkpt>
      <trkpt lat="43.68398" lon="3.85646">
        <ele>59</ele>
        <time>2020-10-25T13:50:14.000Z</time>
      </trkpt>
      <trkpt lat="43.68394" lon="3.85647">
        <ele>59.027081538618</ele>
        <time>2020-10-25T13:50:15.000Z</time>
      </trkpt>
      <trkpt lat="43.6839" lon="3.85647">
        <ele>59.127382344747</ele>
        <time>2020-10-25T13:50:16.000Z</time>
      </trkpt>
      <trkpt lat="43.68386" lon="3.85647">
        <ele>59.227683150877</ele>
        <time>2020-10-25T13:50:17.000Z</time>
      </trkpt>
      <trkpt lat="43.68382" lon="3.85648">
        <ele>59.327983957006</ele>
        <time>2020-10-25T13:50:18.000Z</time>
      </trkpt>
      <trkpt lat="43.68378" lon="3.85648">
        <ele>59.428284763136</ele>
        <time>2020-10-25T13:50:19.000Z</time>
      </trkpt>
      <trkpt lat="43.68375" lon="3.85648">
        <ele>59.528585569266</ele>
        <time>2020-10-25T13:50:20.000Z</time>
      </trkpt>
      <trkpt lat="43.68371" lon="3.85649">
        <ele>59.628886375395</ele>
        <time>2020-10-25T13:50:21.000Z</time>
      </trkpt>
      <trkpt lat="43.68367" lon="3.85649">
        <ele>59.729187181525</ele>
        <time>2020-10-25T13:50:22.000Z</time>
      </trkpt>
      <trkpt lat="43.68363" lon="3.85649">
        <ele>59.829487987655</ele>
        <time>2020-10-25T13:50:23.000Z</time>
      </trkpt>
      <trkpt lat="43.68359" lon="3.85649">
        <ele>59.929788793784</ele>
        <time>2020-10-25T13:50:24.000Z</time>
      </trkpt>
      <trkpt lat="43.68355" lon="3.85649">
        <ele>60</ele>
        <time>2020-10-25T13:50:25.000Z</time>
      </trkpt>
      <trkpt lat="43.68351" lon="3.8565">
        <ele>60</ele>
        <time>2020-10-25T13:50:26.000Z</time>
      </trkpt>
      <trkpt lat="43.68347" lon="3.8565">
        <ele>60</ele>
        <time>2020-10-25T13:50:27.000Z</time>
      </trkpt>
      <trkpt lat="43.68343" lon="3.8565">
        <ele>60</ele>
        <time>2020-10-25T13:50:28.000Z</time>
      </trkpt>
      <trkpt lat="43.68339" lon="3.8565">
        <ele>60</ele>
        <time>2020-10-25T13:50:29.000Z</time>
      </trkpt>
      <trkpt lat="43.68335" lon="3.8565">
        <ele>60</ele>
        <time>2020-10-25T13:50:30.000Z</time>
      </trkpt>
      <trkpt lat="43.68331" lon="3.85652">
        <ele>60</ele>
        <time>2020-10-25T13:50:31.000Z</time>
      </trkpt>
      <trkpt lat="43.68327" lon="3.85653">
        <ele>60</ele>
        <time>2020-10-25T13:50:32.000Z</time>
      </trkpt>
      <trkpt lat="43.68323" lon="3.85653">
        <ele>60</ele>
        <time>2020-10-25T13:50:33.000Z</time>
      </trkpt>
      <trkpt lat="43.68319" lon="3.85654">
        <ele>60</ele>
        <time>2020-10-25T13:50:34.000Z</time>
      </trkpt>
      <trkpt lat="43.68315" lon="3.85654">
        <ele>60.02999936</ele>
        <time>2020-10-25T13:50:35.000Z</time>
      </trkpt>
      <trkpt lat="43.68312" lon="3.85655">
        <ele>60.12999936</ele>
        <time>2020-10-25T13:50:36.000Z</time>
      </trkpt>
      <trkpt lat="43.68308" lon="3.85656">
        <ele>60.22999936</ele>
        <time>2020-10-25T13:50:37.000Z</time>
      </trkpt>
      <trkpt lat="43.68303" lon="3.85657">
        <ele>60.32999936</ele>
        <time>2020-10-25T13:50:38.000Z</time>
      </trkpt>
      <trkpt lat="43.68299" lon="3.85658">
        <ele>60.42999936</ele>
        <time>2020-10-25T13:50:39.000Z</time>
      </trkpt>
      <trkpt lat="43.68296" lon="3.85659">
        <ele>60.52999936</ele>
        <time>2020-10-25T13:50:40.000Z</time>
      </trkpt>
      <trkpt lat="43.68292" lon="3.8566">
        <ele>60.62999936</ele>
        <time>2020-10-25T13:50:41.000Z</time>
      </trkpt>
      <trkpt lat="43.68288" lon="3.85661">
        <ele>60.72999936</ele>
        <time>2020-10-25T13:50:42.000Z</time>
      </trkpt>
      <trkpt lat="43.68284" lon="3.85662">
        <ele>60.82999936</ele>
        <time>2020-10-25T13:50:43.000Z</time>
      </trkpt>
      <trkpt lat="43.6828" lon="3.85663">
        <ele>60.92999936</ele>
        <time>2020-10-25T13:50:44.000Z</time>
      </trkpt>
      <trkpt lat="43.68276" lon="3.85664">
        <ele>61</ele>
        <time>2020-10-25T13:50:45.000Z</time>
      </trkpt>
      <trkpt lat="43.68271" lon="3.85665">
        <ele>61</ele>
        <time>2020-10-25T13:50:46.000Z</time>
      </trkpt>
      <trkpt lat="43.68267" lon="3.85666">
        <ele>61</ele>
        <time>2020-10-25T13:50:47.000Z</time>
      </trkpt>
      <trkpt lat="43.68262" lon="3.85666">
        <ele>61</ele>
        <time>2020-10-25T13:50:48.000Z</time>
      </trkpt>
      <trkpt lat="43.68258" lon="3.85667">
        <ele>61</ele>
        <time>2020-10-25T13:50:49.000Z</time>
      </trkpt>
      <trkpt lat="43.68253" lon="3.85668">
        <ele>61</ele>
        <time>2020-10-25T13:50:50.000Z</time>
      </trkpt>
      <trkpt lat="43.68249" lon="3.85669">
        <ele>61</ele>
        <time>2020-10-25T13:50:51.000Z</time>
      </trkpt>
      <trkpt lat="43.68244" lon="3.8567">
        <ele>61</ele>
        <time>2020-10-25T13:50:52.000Z</time>
      </trkpt>
      <trkpt lat="43.6824" lon="3.85671">
        <ele>61</ele>
        <time>2020-10-25T13:50:53.000Z</time>
      </trkpt>
      <trkpt lat="43.68235" lon="3.85671">
        <ele>61</ele>
        <time>2020-10-25T13:50:54.000Z</time>
      </trkpt>
      <trkpt lat="43.6823" lon="3.85672">
        <ele>61</ele>
        <time>2020-10-25T13:50:55.000Z</time>
      </trkpt>
      <trkpt lat="43.68226" lon="3.85673">
        <ele>61</ele>
        <time>2020-10-25T13:50:56.000Z</time>
      </trkpt>
      <trkpt lat="43.68222" lon="3.85674">
        <ele>61</ele>
        <time>2020-10-25T13:50:57.000Z</time>
      </trkpt>
      <trkpt lat="43.68218" lon="3.85674">
        <ele>61</ele>
        <time>2020-10-25T13:50:58.000Z</time>
      </trkpt>
      <trkpt lat="43.68214" lon="3.85675">
        <ele>61</ele>
        <time>2020-10-25T13:50:59.000Z</time>
      </trkpt>
      <trkpt lat="43.6821" lon="3.85677">
        <ele>61</ele>
        <time>2020-10-25T13:51:00.000Z</time>
      </trkpt>
      <trkpt lat="43.68206" lon="3.85678">
        <ele>61</ele>
        <time>2020-10-25T13:51:01.000Z</time>
      </trkpt>
      <trkpt lat="43.68202" lon="3.85679">
        <ele>61</ele>
        <time>2020-10-25T13:51:02.000Z</time>
      </trkpt>
      <trkpt lat="43.68198" lon="3.8568">
        <ele>61</ele>
        <time>2020-10-25T13:51:03.000Z</time>
      </trkpt>
      <trkpt lat="43.68194" lon="3.8568">
        <ele>61</ele>
        <time>2020-10-25T13:51:04.000Z</time>
      </trkpt>
      <trkpt lat="43.68189" lon="3.85681">
        <ele>61.02999936</ele>
        <time>2020-10-25T13:51:05.000Z</time>
      </trkpt>
      <trkpt lat="43.68185" lon="3.85682">
        <ele>61.12999936</ele>
        <time>2020-10-25T13:51:06.000Z</time>
      </trkpt>
      <trkpt lat="43.6818" lon="3.85683">
        <ele>61.22999936</ele>
        <time>2020-10-25T13:51:07.000Z</time>
      </trkpt>
      <trkpt lat="43.68176" lon="3.85684">
        <ele>61.32999936</ele>
        <time>2020-10-25T13:51:08.000Z</time>
      </trkpt>
      <trkpt lat="43.68172" lon="3.85685">
        <ele>61.42999936</ele>
        <time>2020-10-25T13:51:09.000Z</time>
      </trkpt>
      <trkpt lat="43.68167" lon="3.85686">
        <ele>61.52999936</ele>
        <time>2020-10-25T13:51:10.000Z</time>
      </trkpt>
      <trkpt lat="43.68162" lon="3.85687">
        <ele>61.62999936</ele>
        <time>2020-10-25T13:51:11.000Z</time>
      </trkpt>
      <trkpt lat="43.68158" lon="3.85687">
        <ele>61.72999936</ele>
        <time>2020-10-25T13:51:12.000Z</time>
      </trkpt>
      <trkpt lat="43.68153" lon="3.85688">
        <ele>61.82999936</ele>
        <time>2020-10-25T13:51:13.000Z</time>
      </trkpt>
      <trkpt lat="43.68148" lon="3.85689">
        <ele>61.92999936</ele>
        <time>2020-10-25T13:51:14.000Z</time>
      </trkpt>
      <trkpt lat="43.68144" lon="3.8569">
        <ele>62</ele>
        <time>2020-10-25T13:51:15.000Z</time>
      </trkpt>
      <trkpt lat="43.68139" lon="3.85691">
        <ele>62</ele>
        <time>2020-10-25T13:51:16.000Z</time>
      </trkpt>
      <trkpt lat="43.68135" lon="3.85691">
        <ele>62</ele>
        <time>2020-10-25T13:51:17.000Z</time>
      </trkpt>
      <trkpt lat="43.6813" lon="3.85692">
        <ele>62</ele>
        <time>2020-10-25T13:51:18.000Z</time>
      </trkpt>
      <trkpt lat="43.68126" lon="3.85692">
        <ele>62</ele>
        <time>2020-10-25T13:51:19.000Z</time>
      </trkpt>
      <trkpt lat="43.68121" lon="3.85693">
        <ele>62</ele>
        <time>2020-10-25T13:51:20.000Z</time>
      </trkpt>
      <trkpt lat="43.68117" lon="3.85694">
        <ele>62</ele>
        <time>2020-10-25T13:51:21.000Z</time>
      </trkpt>
      <trkpt lat="43.68113" lon="3.85694">
        <ele>62</ele>
        <time>2020-10-25T13:51:22.000Z</time>
      </trkpt>
      <trkpt lat="43.68108" lon="3.85694">
        <ele>62</ele>
        <time>2020-10-25T13:51:23.000Z</time>
      </trkpt>
      <trkpt lat="43.68104" lon="3.85695">
        <ele>62</ele>
        <time>2020-10-25T13:51:24.000Z</time>
      </trkpt>
      <trkpt lat="43.68099" lon="3.85695">
        <ele>62</ele>
        <time>2020-10-25T13:51:25.000Z</time>
      </trkpt>
      <trkpt lat="43.68095" lon="3.85695">
        <ele>62</ele>
        <time>2020-10-25T13:51:26.000Z</time>
      </trkpt>
      <trkpt lat="43.6809" lon="3.85695">
        <ele>62</ele>
        <time>2020-10-25T13:51:27.000Z</time>
      </trkpt>
      <trkpt lat="43.68085" lon="3.85695">
        <ele>62</ele>
        <time>2020-10-25T13:51:28.000Z</time>
      </trkpt>
      <trkpt lat="43.68081" lon="3.85695">
        <ele>62</ele>
        <time>2020-10-25T13:51:29.000Z</time>
      </trkpt>
      <trkpt lat="43.68076" lon="3.85694">
        <ele>62</ele>
        <time>2020-10-25T13:51:30.000Z</time>
      </trkpt>
      <trkpt lat="43.68071" lon="3.85694">
        <ele>62</ele>
        <time>2020-10-25T13:51:31.000Z</time>
      </trkpt>
      <trkpt lat="43.68067" lon="3.85693">
        <ele>62</ele>
        <time>2020-10-25T13:51:32.000Z</time>
      </trkpt>
      <trkpt lat="43.68062" lon="3.85692">
        <ele>62</ele>
        <time>2020-10-25T13:51:33.000Z</time>
      </trkpt>
      <trkpt lat="43.68058" lon="3.8569">
        <ele>62</ele>
        <time>2020-10-25T13:51:34.000Z</time>
      </trkpt>
      <trkpt lat="43.68054" lon="3.85689">
        <ele>62</ele>
        <time>2020-10-25T13:51:35.000Z</time>
      </trkpt>
      <trkpt lat="43.68049" lon="3.85688">
        <ele>62</ele>
        <time>2020-10-25T13:51:36.000Z</time>
      </trkpt>
      <trkpt lat="43.68045" lon="3.85687">
        <ele>62</ele>
        <time>2020-10-25T13:51:37.000Z</time>
      </trkpt>
      <trkpt lat="43.6804" lon="3.85686">
        <ele>62</ele>
        <time>2020-10-25T13:51:38.000Z</time>
      </trkpt>
      <trkpt lat="43.68035" lon="3.85684">
        <ele>62</ele>
        <time>2020-10-25T13:51:39.000Z</time>
      </trkpt>
      <trkpt lat="43.68031" lon="3.85683">
        <ele>62</ele>
        <time>2020-10-25T13:51:40.000Z</time>
      </trkpt>
      <trkpt lat="43.68027" lon="3.85682">
        <ele>62</ele>
        <time>2020-10-25T13:51:41.000Z</time>
      </trkpt>
      <trkpt lat="43.68022" lon="3.85681">
        <ele>62</ele>
        <time>2020-10-25T13:51:42.000Z</time>
      </trkpt>
      <trkpt lat="43.68017" lon="3.85679">
        <ele>62</ele>
        <time>2020-10-25T13:51:43.000Z</time>
      </trkpt>
      <trkpt lat="43.68013" lon="3.85678">
        <ele>62</ele>
        <time>2020-10-25T13:51:44.000Z</time>
      </trkpt>
      <trkpt lat="43.68008" lon="3.85677">
        <ele>62</ele>
        <time>2020-10-25T13:51:45.000Z</time>
      </trkpt>
      <trkpt lat="43.68004" lon="3.85675">
        <ele>62</ele>
        <time>2020-10-25T13:51:46.000Z</time>
      </trkpt>
      <trkpt lat="43.67999" lon="3.85674">
        <ele>62</ele>
        <time>2020-10-25T13:51:47.000Z</time>
      </trkpt>
      <trkpt lat="43.67994" lon="3.85673">
        <ele>62</ele>
        <time>2020-10-25T13:51:48.000Z</time>
      </trkpt>
      <trkpt lat="43.67989" lon="3.85672">
        <ele>62</ele>
        <time>2020-10-25T13:51:49.000Z</time>
      </trkpt>
      <trkpt lat="43.67985" lon="3.8567">
        <ele>62</ele>
        <time>2020-10-25T13:51:50.000Z</time>
      </trkpt>
      <trkpt lat="43.6798" lon="3.85669">
        <ele>62</ele>
        <time>2020-10-25T13:51:51.000Z</time>
      </trkpt>
      <trkpt lat="43.67976" lon="3.85667">
        <ele>62</ele>
        <time>2020-10-25T13:51:52.000Z</time>
      </trkpt>
      <trkpt lat="43.67971" lon="3.85666">
        <ele>62</ele>
        <time>2020-10-25T13:51:53.000Z</time>
      </trkpt>
      <trkpt lat="43.67967" lon="3.85665">
        <ele>62</ele>
        <time>2020-10-25T13:51:54.000Z</time>
      </trkpt>
      <trkpt lat="43.67962" lon="3.85664">
        <ele>62.02999936</ele>
        <time>2020-10-25T13:51:55.000Z</time>
      </trkpt>
      <trkpt lat="43.67957" lon="3.85663">
        <ele>62.12999936</ele>
        <time>2020-10-25T13:51:56.000Z</time>
      </trkpt>
      <trkpt lat="43.67953" lon="3.85661">
        <ele>62.22999936</ele>
        <time>2020-10-25T13:51:57.000Z</time>
      </trkpt>
      <trkpt lat="43.67948" lon="3.8566">
        <ele>62.32999936</ele>
        <time>2020-10-25T13:51:58.000Z</time>
      </trkpt>
      <trkpt lat="43.67943" lon="3.85659">
        <ele>62.42999936</ele>
        <time>2020-10-25T13:51:59.000Z</time>
      </trkpt>
      <trkpt lat="43.67939" lon="3.85657">
        <ele>62.52999936</ele>
        <time>2020-10-25T13:52:00.000Z</time>
      </trkpt>
      <trkpt lat="43.67934" lon="3.85656">
        <ele>62.62999936</ele>
        <time>2020-10-25T13:52:01.000Z</time>
      </trkpt>
      <trkpt lat="43.6793" lon="3.85655">
        <ele>62.72999936</ele>
        <time>2020-10-25T13:52:02.000Z</time>
      </trkpt>
      <trkpt lat="43.67925" lon="3.85654">
        <ele>62.82999936</ele>
        <time>2020-10-25T13:52:03.000Z</time>
      </trkpt>
      <trkpt lat="43.67921" lon="3.85653">
        <ele>62.92999936</ele>
        <time>2020-10-25T13:52:04.000Z</time>
      </trkpt>
      <trkpt lat="43.67916" lon="3.85651">
        <ele>63</ele>
        <time>2020-10-25T13:52:05.000Z</time>
      </trkpt>
      <trkpt lat="43.67912" lon="3.8565">
        <ele>63</ele>
        <time>2020-10-25T13:52:06.000Z</time>
      </trkpt>
      <trkpt lat="43.67907" lon="3.85649">
        <ele>63</ele>
        <time>2020-10-25T13:52:07.000Z</time>
      </trkpt>
      <trkpt lat="43.67902" lon="3.85647">
        <ele>63</ele>
        <time>2020-10-25T13:52:08.000Z</time>
      </trkpt>
      <trkpt lat="43.67898" lon="3.85646">
        <ele>63</ele>
        <time>2020-10-25T13:52:09.000Z</time>
      </trkpt>
      <trkpt lat="43.67894" lon="3.85645">
        <ele>63</ele>
        <time>2020-10-25T13:52:10.000Z</time>
      </trkpt>
      <trkpt lat="43.67889" lon="3.85644">
        <ele>63</ele>
        <time>2020-10-25T13:52:11.000Z</time>
      </trkpt>
      <trkpt lat="43.67885" lon="3.85643">
        <ele>63</ele>
        <time>2020-10-25T13:52:12.000Z</time>
      </trkpt>
      <trkpt lat="43.67881" lon="3.85642">
        <ele>63</ele>
        <time>2020-10-25T13:52:13.000Z</time>
      </trkpt>
      <trkpt lat="43.67876" lon="3.8564">
        <ele>63</ele>
        <time>2020-10-25T13:52:14.000Z</time>
      </trkpt>
      <trkpt lat="43.67872" lon="3.85639">
        <ele>63.02999936</ele>
        <time>2020-10-25T13:52:15.000Z</time>
      </trkpt>
      <trkpt lat="43.67868" lon="3.85638">
        <ele>63.12999936</ele>
        <time>2020-10-25T13:52:16.000Z</time>
      </trkpt>
      <trkpt lat="43.67864" lon="3.85637">
        <ele>63.22999936</ele>
        <time>2020-10-25T13:52:17.000Z</time>
      </trkpt>
      <trkpt lat="43.6786" lon="3.85636">
        <ele>63.32999936</ele>
        <time>2020-10-25T13:52:18.000Z</time>
      </trkpt>
      <trkpt lat="43.67856" lon="3.85634">
        <ele>63.42999936</ele>
        <time>2020-10-25T13:52:19.000Z</time>
      </trkpt>
      <trkpt lat="43.67852" lon="3.85633">
        <ele>63.52999936</ele>
        <time>2020-10-25T13:52:20.000Z</time>
      </trkpt>
      <trkpt lat="43.67848" lon="3.85631">
        <ele>63.62999936</ele>
        <time>2020-10-25T13:52:21.000Z</time>
      </trkpt>
      <trkpt lat="43.67845" lon="3.8563">
        <ele>63.72999936</ele>
        <time>2020-10-25T13:52:22.000Z</time>
      </trkpt>
      <trkpt lat="43.67841" lon="3.85629">
        <ele>63.82999936</ele>
        <time>2020-10-25T13:52:23.000Z</time>
      </trkpt>
      <trkpt lat="43.67838" lon="3.85627">
        <ele>63.92999936</ele>
        <time>2020-10-25T13:52:24.000Z</time>
      </trkpt>
      <trkpt lat="43.67834" lon="3.85626">
        <ele>64.029153906054</ele>
        <time>2020-10-25T13:52:25.000Z</time>
      </trkpt>
      <trkpt lat="43.67831" lon="3.85624">
        <ele>64.12633566611</ele>
        <time>2020-10-25T13:52:26.000Z</time>
      </trkpt>
      <trkpt lat="43.67827" lon="3.85623">
        <ele>64.223517426167</ele>
        <time>2020-10-25T13:52:27.000Z</time>
      </trkpt>
      <trkpt lat="43.67824" lon="3.85622">
        <ele>64.320699186223</ele>
        <time>2020-10-25T13:52:28.000Z</time>
      </trkpt>
      <trkpt lat="43.67821" lon="3.8562">
        <ele>64.41788094628</ele>
        <time>2020-10-25T13:52:29.000Z</time>
      </trkpt>
      <trkpt lat="43.67818" lon="3.85619">
        <ele>64.515062706336</ele>
        <time>2020-10-25T13:52:30.000Z</time>
      </trkpt>
      <trkpt lat="43.67815" lon="3.85618">
        <ele>64.612244466393</ele>
        <time>2020-10-25T13:52:31.000Z</time>
      </trkpt>
      <trkpt lat="43.67812" lon="3.85617">
        <ele>64.709426226449</ele>
        <time>2020-10-25T13:52:32.000Z</time>
      </trkpt>
      <trkpt lat="43.67808" lon="3.85615">
        <ele>64.806607986506</ele>
        <time>2020-10-25T13:52:33.000Z</time>
      </trkpt>
      <trkpt lat="43.67804" lon="3.85614">
        <ele>64.903789746562</ele>
        <time>2020-10-25T13:52:34.000Z</time>
      </trkpt>
      <trkpt lat="43.67801" lon="3.85613">
        <ele>65</ele>
        <time>2020-10-25T13:52:35.000Z</time>
      </trkpt>
      <trkpt lat="43.67797" lon="3.85611">
        <ele>65</ele>
        <time>2020-10-25T13:52:36.000Z</time>
      </trkpt>
      <trkpt lat="43.67793" lon="3.8561">
        <ele>65</ele>
        <time>2020-10-25T13:52:37.000Z</time>
      </trkpt>
      <trkpt lat="43.67789" lon="3.85609">
        <ele>65</ele>
        <time>2020-10-25T13:52:38.000Z</time>
      </trkpt>
      <trkpt lat="43.67785" lon="3.85608">
        <ele>65</ele>
        <time>2020-10-25T13:52:39.000Z</time>
      </trkpt>
      <trkpt lat="43.67782" lon="3.85606">
        <ele>65</ele>
        <time>2020-10-25T13:52:40.000Z</time>
      </trkpt>
      <trkpt lat="43.67778" lon="3.85605">
        <ele>65</ele>
        <time>2020-10-25T13:52:41.000Z</time>
      </trkpt>
      <trkpt lat="43.67774" lon="3.85603">
        <ele>65</ele>
        <time>2020-10-25T13:52:42.000Z</time>
      </trkpt>
      <trkpt lat="43.6777" lon="3.85601">
        <ele>65</ele>
        <time>2020-10-25T13:52:43.000Z</time>
      </trkpt>
      <trkpt lat="43.67766" lon="3.856">
        <ele>65</ele>
        <time>2020-10-25T13:52:44.000Z</time>
      </trkpt>
      <trkpt lat="43.67762" lon="3.85598">
        <ele>65</ele>
        <time>2020-10-25T13:52:45.000Z</time>
      </trkpt>
      <trkpt lat="43.67758" lon="3.85596">
        <ele>65</ele>
        <time>2020-10-25T13:52:46.000Z</time>
      </trkpt>
      <trkpt lat="43.67754" lon="3.85594">
        <ele>65</ele>
        <time>2020-10-25T13:52:47.000Z</time>
      </trkpt>
      <trkpt lat="43.6775" lon="3.85591">
        <ele>65</ele>
        <time>2020-10-25T13:52:48.000Z</time>
      </trkpt>
      <trkpt lat="43.67747" lon="3.85587">
        <ele>65</ele>
        <time>2020-10-25T13:52:49.000Z</time>
      </trkpt>
      <trkpt lat="43.67745" lon="3.85583">
        <ele>65</ele>
        <time>2020-10-25T13:52:50.000Z</time>
      </trkpt>
      <trkpt lat="43.67742" lon="3.8558">
        <ele>65</ele>
        <time>2020-10-25T13:52:51.000Z</time>
      </trkpt>
      <trkpt lat="43.6774" lon="3.85577">
        <ele>65</ele>
        <time>2020-10-25T13:52:52.000Z</time>
      </trkpt>
      <trkpt lat="43.67738" lon="3.85573">
        <ele>65</ele>
        <time>2020-10-25T13:52:53.000Z</time>
      </trkpt>
      <trkpt lat="43.67736" lon="3.85569">
        <ele>65</ele>
        <time>2020-10-25T13:52:54.000Z</time>
      </trkpt>
      <trkpt lat="43.67735" lon="3.85564">
        <ele>65</ele>
        <time>2020-10-25T13:52:55.000Z</time>
      </trkpt>
      <trkpt lat="43.67734" lon="3.8556">
        <ele>65</ele>
        <time>2020-10-25T13:52:56.000Z</time>
      </trkpt>
      <trkpt lat="43.67733" lon="3.85555">
        <ele>65</ele>
        <time>2020-10-25T13:52:57.000Z</time>
      </trkpt>
      <trkpt lat="43.67731" lon="3.8555">
        <ele>65</ele>
        <time>2020-10-25T13:52:58.000Z</time>
      </trkpt>
      <trkpt lat="43.6773" lon="3.85545">
        <ele>65</ele>
        <time>2020-10-25T13:52:59.000Z</time>
      </trkpt>
      <trkpt lat="43.6773" lon="3.8554">
        <ele>65</ele>
        <time>2020-10-25T13:53:00.000Z</time>
      </trkpt>
      <trkpt lat="43.67729" lon="3.85535">
        <ele>65</ele>
        <time>2020-10-25T13:53:01.000Z</time>
      </trkpt>
      <trkpt lat="43.67728" lon="3.8553">
        <ele>65</ele>
        <time>2020-10-25T13:53:02.000Z</time>
      </trkpt>
      <trkpt lat="43.67727" lon="3.85526">
        <ele>65</ele>
        <time>2020-10-25T13:53:03.000Z</time>
      </trkpt>
      <trkpt lat="43.67726" lon="3.85521">
        <ele>65</ele>
        <time>2020-10-25T13:53:04.000Z</time>
      </trkpt>
      <trkpt lat="43.67726" lon="3.85517">
        <ele>65.02999936</ele>
        <time>2020-10-25T13:53:05.000Z</time>
      </trkpt>
      <trkpt lat="43.67725" lon="3.85512">
        <ele>65.12999936</ele>
        <time>2020-10-25T13:53:06.000Z</time>
      </trkpt>
      <trkpt lat="43.67725" lon="3.85508">
        <ele>65.22999936</ele>
        <time>2020-10-25T13:53:07.000Z</time>
      </trkpt>
      <trkpt lat="43.67724" lon="3.85503">
        <ele>65.32999936</ele>
        <time>2020-10-25T13:53:08.000Z</time>
      </trkpt>
      <trkpt lat="43.67724" lon="3.85499">
        <ele>65.42999936</ele>
        <time>2020-10-25T13:53:09.000Z</time>
      </trkpt>
      <trkpt lat="43.67724" lon="3.85495">
        <ele>65.52999936</ele>
        <time>2020-10-25T13:53:10.000Z</time>
      </trkpt>
      <trkpt lat="43.67724" lon="3.85492">
        <ele>65.62999936</ele>
        <time>2020-10-25T13:53:11.000Z</time>
      </trkpt>
      <trkpt lat="43.67725" lon="3.85489">
        <ele>65.72999936</ele>
        <time>2020-10-25T13:53:12.000Z</time>
      </trkpt>
      <trkpt lat="43.67725" lon="3.85486">
        <ele>65.82999936</ele>
        <time>2020-10-25T13:53:13.000Z</time>
      </trkpt>
      <trkpt lat="43.67726" lon="3.85483">
        <ele>65.92999936</ele>
        <time>2020-10-25T13:53:14.000Z</time>
      </trkpt>
      <trkpt lat="43.67728" lon="3.8548">
        <ele>66.05999872</ele>
        <time>2020-10-25T13:53:15.000Z</time>
      </trkpt>
      <trkpt lat="43.67729" lon="3.85477">
        <ele>66.25999872</ele>
        <time>2020-10-25T13:53:16.000Z</time>
      </trkpt>
      <trkpt lat="43.6773" lon="3.85475">
        <ele>66.45999872</ele>
        <time>2020-10-25T13:53:17.000Z</time>
      </trkpt>
      <trkpt lat="43.67731" lon="3.85472">
        <ele>66.65999872</ele>
        <time>2020-10-25T13:53:18.000Z</time>
      </trkpt>
      <trkpt lat="43.67733" lon="3.8547">
        <ele>66.85999872</ele>
        <time>2020-10-25T13:53:19.000Z</time>
      </trkpt>
      <trkpt lat="43.67734" lon="3.85467">
        <ele>67.05999872</ele>
        <time>2020-10-25T13:53:20.000Z</time>
      </trkpt>
      <trkpt lat="43.67735" lon="3.85464">
        <ele>67.25999872</ele>
        <time>2020-10-25T13:53:21.000Z</time>
      </trkpt>
      <trkpt lat="43.67735" lon="3.85461">
        <ele>67.45999872</ele>
        <time>2020-10-25T13:53:22.000Z</time>
      </trkpt>
      <trkpt lat="43.67736" lon="3.85457">
        <ele>67.65999872</ele>
        <time>2020-10-25T13:53:23.000Z</time>
      </trkpt>
      <trkpt lat="43.67737" lon="3.85453">
        <ele>67.85999872</ele>
        <time>2020-10-25T13:53:24.000Z</time>
      </trkpt>
      <trkpt lat="43.67739" lon="3.85449">
        <ele>68.08999808</ele>
        <time>2020-10-25T13:53:25.000Z</time>
      </trkpt>
      <trkpt lat="43.6774" lon="3.85445">
        <ele>68.38999808</ele>
        <time>2020-10-25T13:53:26.000Z</time>
      </trkpt>
      <trkpt lat="43.6774" lon="3.85441">
        <ele>68.68999808</ele>
        <time>2020-10-25T13:53:27.000Z</time>
      </trkpt>
      <trkpt lat="43.67741" lon="3.85437">
        <ele>68.98999808</ele>
        <time>2020-10-25T13:53:28.000Z</time>
      </trkpt>
      <trkpt lat="43.67742" lon="3.85434">
        <ele>69.28999808</ele>
        <time>2020-10-25T13:53:29.000Z</time>
      </trkpt>
      <trkpt lat="43.67743" lon="3.85431">
        <ele>69.58999808</ele>
        <time>2020-10-25T13:53:30.000Z</time>
      </trkpt>
      <trkpt lat="43.67743" lon="3.85427">
        <ele>69.88999808</ele>
        <time>2020-10-25T13:53:31.000Z</time>
      </trkpt>
      <trkpt lat="43.67744" lon="3.85424">
        <ele>70.18999808</ele>
        <time>2020-10-25T13:53:32.000Z</time>
      </trkpt>
      <trkpt lat="43.67745" lon="3.85421">
        <ele>70.48999808</ele>
        <time>2020-10-25T13:53:33.000Z</time>
      </trkpt>
      <trkpt lat="43.67745" lon="3.85417">
        <ele>71.029153906054</ele>
        <time>2020-10-25T13:53:35.000Z</time>
      </trkpt>
      <trkpt lat="43.67745" lon="3.85413">
        <ele>71.223517426167</ele>
        <time>2020-10-25T13:53:37.000Z</time>
      </trkpt>
      <trkpt lat="43.67746" lon="3.85409">
        <ele>71.41788094628</ele>
        <time>2020-10-25T13:53:39.000Z</time>
      </trkpt>
      <trkpt lat="43.67746" lon="3.85404">
        <ele>71.612244466393</ele>
        <time>2020-10-25T13:53:41.000Z</time>
      </trkpt>
      <trkpt lat="43.67745" lon="3.85401">
        <ele>71.709426226449</ele>
        <time>2020-10-25T13:53:42.000Z</time>
      </trkpt>
      <trkpt lat="43.67745" lon="3.85398">
        <ele>71.806607986506</ele>
        <time>2020-10-25T13:53:43.000Z</time>
      </trkpt>
      <trkpt lat="43.67744" lon="3.85395">
        <ele>71.903789746562</ele>
        <time>2020-10-25T13:53:44.000Z</time>
      </trkpt>
      <trkpt lat="43.67743" lon="3.85391">
        <ele>72.002059072442</ele>
        <time>2020-10-25T13:53:45.000Z</time>
      </trkpt>
      <trkpt lat="43.67742" lon="3.85387">
        <ele>72.208032228043</ele>
        <time>2020-10-25T13:53:46.000Z</time>
      </trkpt>
      <trkpt lat="43.6774" lon="3.85382">
        <ele>72.414005383644</ele>
        <time>2020-10-25T13:53:47.000Z</time>
      </trkpt>
      <trkpt lat="43.67738" lon="3.85378">
        <ele>72.619978539245</ele>
        <time>2020-10-25T13:53:48.000Z</time>
      </trkpt>
      <trkpt lat="43.67735" lon="3.85374">
        <ele>72.825951694846</ele>
        <time>2020-10-25T13:53:49.000Z</time>
      </trkpt>
      <trkpt lat="43.67733" lon="3.8537">
        <ele>73.031924850447</ele>
        <time>2020-10-25T13:53:50.000Z</time>
      </trkpt>
      <trkpt lat="43.6773" lon="3.85367">
        <ele>73.237898006048</ele>
        <time>2020-10-25T13:53:51.000Z</time>
      </trkpt>
      <trkpt lat="43.67727" lon="3.85363">
        <ele>73.443871161649</ele>
        <time>2020-10-25T13:53:52.000Z</time>
      </trkpt>
      <trkpt lat="43.67724" lon="3.85359">
        <ele>73.64984431725</ele>
        <time>2020-10-25T13:53:53.000Z</time>
      </trkpt>
      <trkpt lat="43.67721" lon="3.85356">
        <ele>73.855817472851</ele>
        <time>2020-10-25T13:53:54.000Z</time>
      </trkpt>
      <trkpt lat="43.67718" lon="3.85353">
        <ele>74.029731783463</ele>
        <time>2020-10-25T13:53:55.000Z</time>
      </trkpt>
      <trkpt lat="43.67714" lon="3.85351">
        <ele>74.128839842645</ele>
        <time>2020-10-25T13:53:56.000Z</time>
      </trkpt>
      <trkpt lat="43.67711" lon="3.85349">
        <ele>74.227947901827</ele>
        <time>2020-10-25T13:53:57.000Z</time>
      </trkpt>
      <trkpt lat="43.67709" lon="3.85347">
        <ele>74.327055961009</ele>
        <time>2020-10-25T13:53:58.000Z</time>
      </trkpt>
      <trkpt lat="43.67706" lon="3.85345">
        <ele>74.426164020191</ele>
        <time>2020-10-25T13:53:59.000Z</time>
      </trkpt>
      <trkpt lat="43.67704" lon="3.85343">
        <ele>74.525272079373</ele>
        <time>2020-10-25T13:54:00.000Z</time>
      </trkpt>
      <trkpt lat="43.67702" lon="3.85341">
        <ele>74.624380138555</ele>
        <time>2020-10-25T13:54:01.000Z</time>
      </trkpt>
      <trkpt lat="43.677" lon="3.85339">
        <ele>74.723488197737</ele>
        <time>2020-10-25T13:54:02.000Z</time>
      </trkpt>
      <trkpt lat="43.67698" lon="3.85337">
        <ele>74.822596256919</ele>
        <time>2020-10-25T13:54:03.000Z</time>
      </trkpt>
      <trkpt lat="43.67696" lon="3.85335">
        <ele>74.921704316101</ele>
        <time>2020-10-25T13:54:04.000Z</time>
      </trkpt>
      <trkpt lat="43.67694" lon="3.85332">
        <ele>75.021190386699</ele>
        <time>2020-10-25T13:54:05.000Z</time>
      </trkpt>
      <trkpt lat="43.67692" lon="3.85329">
        <ele>75.122098527678</ele>
        <time>2020-10-25T13:54:06.000Z</time>
      </trkpt>
      <trkpt lat="43.6769" lon="3.85325">
        <ele>75.223006668656</ele>
        <time>2020-10-25T13:54:07.000Z</time>
      </trkpt>
      <trkpt lat="43.67688" lon="3.85322">
        <ele>75.323914809634</ele>
        <time>2020-10-25T13:54:08.000Z</time>
      </trkpt>
      <trkpt lat="43.67686" lon="3.85319">
        <ele>75.424822950612</ele>
        <time>2020-10-25T13:54:09.000Z</time>
      </trkpt>
      <trkpt lat="43.67685" lon="3.85316">
        <ele>75.52573109159</ele>
        <time>2020-10-25T13:54:10.000Z</time>
      </trkpt>
      <trkpt lat="43.67683" lon="3.85313">
        <ele>75.626639232569</ele>
        <time>2020-10-25T13:54:11.000Z</time>
      </trkpt>
      <trkpt lat="43.67682" lon="3.85309">
        <ele>75.727547373547</ele>
        <time>2020-10-25T13:54:12.000Z</time>
      </trkpt>
      <trkpt lat="43.67682" lon="3.85307">
        <ele>75.828455514525</ele>
        <time>2020-10-25T13:54:13.000Z</time>
      </trkpt>
      <trkpt lat="43.6768" lon="3.85303">
        <ele>75.929363655503</ele>
        <time>2020-10-25T13:54:14.000Z</time>
      </trkpt>
      <trkpt lat="43.6768" lon="3.85299">
        <ele>76.02999936</ele>
        <time>2020-10-25T13:54:15.000Z</time>
      </trkpt>
      <trkpt lat="43.67679" lon="3.85295">
        <ele>76.12999936</ele>
        <time>2020-10-25T13:54:16.000Z</time>
      </trkpt>
      <trkpt lat="43.67678" lon="3.85291">
        <ele>76.22999936</ele>
        <time>2020-10-25T13:54:17.000Z</time>
      </trkpt>
      <trkpt lat="43.67677" lon="3.85287">
        <ele>76.32999936</ele>
        <time>2020-10-25T13:54:18.000Z</time>
      </trkpt>
      <trkpt lat="43.67676" lon="3.85283">
        <ele>76.42999936</ele>
        <time>2020-10-25T13:54:19.000Z</time>
      </trkpt>
      <trkpt lat="43.67675" lon="3.85279">
        <ele>76.52999936</ele>
        <time>2020-10-25T13:54:20.000Z</time>
      </trkpt>
      <trkpt lat="43.67674" lon="3.85275">
        <ele>76.62999936</ele>
        <time>2020-10-25T13:54:21.000Z</time>
      </trkpt>
      <trkpt lat="43.67673" lon="3.85271">
        <ele>76.72999936</ele>
        <time>2020-10-25T13:54:22.000Z</time>
      </trkpt>
      <trkpt lat="43.67672" lon="3.85267">
        <ele>76.82999936</ele>
        <time>2020-10-25T13:54:23.000Z</time>
      </trkpt>
      <trkpt lat="43.6767" lon="3.85264">
        <ele>76.92999936</ele>
        <time>2020-10-25T13:54:24.000Z</time>
      </trkpt>
      <trkpt lat="43.67668" lon="3.8526">
        <ele>77</ele>
        <time>2020-10-25T13:54:25.000Z</time>
      </trkpt>
      <trkpt lat="43.67666" lon="3.85257">
        <ele>77</ele>
        <time>2020-10-25T13:54:26.000Z</time>
      </trkpt>
      <trkpt lat="43.67663" lon="3.85255">
        <ele>77</ele>
        <time>2020-10-25T13:54:27.000Z</time>
      </trkpt>
      <trkpt lat="43.6766" lon="3.85253">
        <ele>77</ele>
        <time>2020-10-25T13:54:28.000Z</time>
      </trkpt>
      <trkpt lat="43.67657" lon="3.85251">
        <ele>77</ele>
        <time>2020-10-25T13:54:29.000Z</time>
      </trkpt>
      <trkpt lat="43.67653" lon="3.85249">
        <ele>77</ele>
        <time>2020-10-25T13:54:30.000Z</time>
      </trkpt>
      <trkpt lat="43.6765" lon="3.85247">
        <ele>77</ele>
        <time>2020-10-25T13:54:31.000Z</time>
      </trkpt>
      <trkpt lat="43.67646" lon="3.85245">
        <ele>77</ele>
        <time>2020-10-25T13:54:32.000Z</time>
      </trkpt>
      <trkpt lat="43.67643" lon="3.85243">
        <ele>77</ele>
        <time>2020-10-25T13:54:33.000Z</time>
      </trkpt>
      <trkpt lat="43.67639" lon="3.85241">
        <ele>77</ele>
        <time>2020-10-25T13:54:34.000Z</time>
      </trkpt>
      <trkpt lat="43.67635" lon="3.8524">
        <ele>77</ele>
        <time>2020-10-25T13:54:35.000Z</time>
      </trkpt>
      <trkpt lat="43.67631" lon="3.85238">
        <ele>77</ele>
        <time>2020-10-25T13:54:36.000Z</time>
      </trkpt>
      <trkpt lat="43.67627" lon="3.85236">
        <ele>77</ele>
        <time>2020-10-25T13:54:37.000Z</time>
      </trkpt>
      <trkpt lat="43.67624" lon="3.85234">
        <ele>77</ele>
        <time>2020-10-25T13:54:38.000Z</time>
      </trkpt>
      <trkpt lat="43.6762" lon="3.85232">
        <ele>77</ele>
        <time>2020-10-25T13:54:39.000Z</time>
      </trkpt>
      <trkpt lat="43.67616" lon="3.8523">
        <ele>77</ele>
        <time>2020-10-25T13:54:40.000Z</time>
      </trkpt>
      <trkpt lat="43.67613" lon="3.85227">
        <ele>77</ele>
        <time>2020-10-25T13:54:41.000Z</time>
      </trkpt>
      <trkpt lat="43.67609" lon="3.85225">
        <ele>77</ele>
        <time>2020-10-25T13:54:42.000Z</time>
      </trkpt>
      <trkpt lat="43.67604" lon="3.85222">
        <ele>77</ele>
        <time>2020-10-25T13:54:43.000Z</time>
      </trkpt>
      <trkpt lat="43.676" lon="3.8522">
        <ele>77</ele>
        <time>2020-10-25T13:54:44.000Z</time>
      </trkpt>
      <trkpt lat="43.67596" lon="3.85217">
        <ele>77.02999936</ele>
        <time>2020-10-25T13:54:45.000Z</time>
      </trkpt>
      <trkpt lat="43.67592" lon="3.85214">
        <ele>77.12999936</ele>
        <time>2020-10-25T13:54:46.000Z</time>
      </trkpt>
      <trkpt lat="43.67587" lon="3.85212">
        <ele>77.22999936</ele>
        <time>2020-10-25T13:54:47.000Z</time>
      </trkpt>
      <trkpt lat="43.67583" lon="3.85209">
        <ele>77.32999936</ele>
        <time>2020-10-25T13:54:48.000Z</time>
      </trkpt>
      <trkpt lat="43.67578" lon="3.85206">
        <ele>77.42999936</ele>
        <time>2020-10-25T13:54:49.000Z</time>
      </trkpt>
      <trkpt lat="43.67575" lon="3.85201">
        <ele>77.52999936</ele>
        <time>2020-10-25T13:54:50.000Z</time>
      </trkpt>
      <trkpt lat="43.67572" lon="3.85197">
        <ele>77.62999936</ele>
        <time>2020-10-25T13:54:51.000Z</time>
      </trkpt>
      <trkpt lat="43.6757" lon="3.85192">
        <ele>77.72999936</ele>
        <time>2020-10-25T13:54:52.000Z</time>
      </trkpt>
      <trkpt lat="43.67569" lon="3.85187">
        <ele>77.82999936</ele>
        <time>2020-10-25T13:54:53.000Z</time>
      </trkpt>
      <trkpt lat="43.67567" lon="3.85182">
        <ele>77.92999936</ele>
        <time>2020-10-25T13:54:54.000Z</time>
      </trkpt>
      <trkpt lat="43.67565" lon="3.85178">
        <ele>78</ele>
        <time>2020-10-25T13:54:55.000Z</time>
      </trkpt>
      <trkpt lat="43.67564" lon="3.85173">
        <ele>78</ele>
        <time>2020-10-25T13:54:56.000Z</time>
      </trkpt>
      <trkpt lat="43.67563" lon="3.85169">
        <ele>78</ele>
        <time>2020-10-25T13:54:57.000Z</time>
      </trkpt>
      <trkpt lat="43.67561" lon="3.85166">
        <ele>78</ele>
        <time>2020-10-25T13:54:58.000Z</time>
      </trkpt>
      <trkpt lat="43.6756" lon="3.85162">
        <ele>78</ele>
        <time>2020-10-25T13:54:59.000Z</time>
      </trkpt>
      <trkpt lat="43.67558" lon="3.85158">
        <ele>78</ele>
        <time>2020-10-25T13:55:00.000Z</time>
      </trkpt>
      <trkpt lat="43.67557" lon="3.85155">
        <ele>78</ele>
        <time>2020-10-25T13:55:01.000Z</time>
      </trkpt>
      <trkpt lat="43.67556" lon="3.85151">
        <ele>78</ele>
        <time>2020-10-25T13:55:02.000Z</time>
      </trkpt>
      <trkpt lat="43.67554" lon="3.85148">
        <ele>78</ele>
        <time>2020-10-25T13:55:03.000Z</time>
      </trkpt>
      <trkpt lat="43.67553" lon="3.85145">
        <ele>78</ele>
        <time>2020-10-25T13:55:04.000Z</time>
      </trkpt>
      <trkpt lat="43.67552" lon="3.85142">
        <ele>78</ele>
        <time>2020-10-25T13:55:05.000Z</time>
      </trkpt>
      <trkpt lat="43.67551" lon="3.85138">
        <ele>78</ele>
        <time>2020-10-25T13:55:06.000Z</time>
      </trkpt>
      <trkpt lat="43.67549" lon="3.85135">
        <ele>78</ele>
        <time>2020-10-25T13:55:07.000Z</time>
      </trkpt>
      <trkpt lat="43.67548" lon="3.85132">
        <ele>78</ele>
        <time>2020-10-25T13:55:08.000Z</time>
      </trkpt>
      <trkpt lat="43.67547" lon="3.85128">
        <ele>78</ele>
        <time>2020-10-25T13:55:09.000Z</time>
      </trkpt>
      <trkpt lat="43.67545" lon="3.85125">
        <ele>78</ele>
        <time>2020-10-25T13:55:10.000Z</time>
      </trkpt>
      <trkpt lat="43.67544" lon="3.85122">
        <ele>78</ele>
        <time>2020-10-25T13:55:11.000Z</time>
      </trkpt>
      <trkpt lat="43.67542" lon="3.85118">
        <ele>78</ele>
        <time>2020-10-25T13:55:12.000Z</time>
      </trkpt>
      <trkpt lat="43.67541" lon="3.85115">
        <ele>78</ele>
        <time>2020-10-25T13:55:13.000Z</time>
      </trkpt>
      <trkpt lat="43.6754" lon="3.85112">
        <ele>78</ele>
        <time>2020-10-25T13:55:14.000Z</time>
      </trkpt>
      <trkpt lat="43.67538" lon="3.85109">
        <ele>78.05805739882</ele>
        <time>2020-10-25T13:55:15.000Z</time>
      </trkpt>
      <trkpt lat="43.67537" lon="3.85106">
        <ele>78.258257534892</ele>
        <time>2020-10-25T13:55:16.000Z</time>
      </trkpt>
      <trkpt lat="43.67536" lon="3.85103">
        <ele>78.458457670965</ele>
        <time>2020-10-25T13:55:17.000Z</time>
      </trkpt>
      <trkpt lat="43.67535" lon="3.851">
        <ele>78.658657807037</ele>
        <time>2020-10-25T13:55:18.000Z</time>
      </trkpt>
      <trkpt lat="43.67533" lon="3.85098">
        <ele>78.858857943109</ele>
        <time>2020-10-25T13:55:19.000Z</time>
      </trkpt>
      <trkpt lat="43.6753" lon="3.85097">
        <ele>79.059058079181</ele>
        <time>2020-10-25T13:55:20.000Z</time>
      </trkpt>
      <trkpt lat="43.67528" lon="3.85094">
        <ele>79.259258215253</ele>
        <time>2020-10-25T13:55:21.000Z</time>
      </trkpt>
      <trkpt lat="43.67525" lon="3.85091">
        <ele>79.459458351325</ele>
        <time>2020-10-25T13:55:22.000Z</time>
      </trkpt>
      <trkpt lat="43.67524" lon="3.85088">
        <ele>79.659658487397</ele>
        <time>2020-10-25T13:55:23.000Z</time>
      </trkpt>
      <trkpt lat="43.67522" lon="3.85085">
        <ele>79.859858623469</ele>
        <time>2020-10-25T13:55:24.000Z</time>
      </trkpt>
      <trkpt lat="43.6752" lon="3.85082">
        <ele>80.02999936</ele>
        <time>2020-10-25T13:55:25.000Z</time>
      </trkpt>
      <trkpt lat="43.67518" lon="3.85078">
        <ele>80.12999936</ele>
        <time>2020-10-25T13:55:26.000Z</time>
      </trkpt>
      <trkpt lat="43.67516" lon="3.85075">
        <ele>80.22999936</ele>
        <time>2020-10-25T13:55:27.000Z</time>
      </trkpt>
      <trkpt lat="43.67514" lon="3.85072">
        <ele>80.32999936</ele>
        <time>2020-10-25T13:55:28.000Z</time>
      </trkpt>
      <trkpt lat="43.67512" lon="3.85069">
        <ele>80.42999936</ele>
        <time>2020-10-25T13:55:29.000Z</time>
      </trkpt>
      <trkpt lat="43.6751" lon="3.85066">
        <ele>80.52999936</ele>
        <time>2020-10-25T13:55:30.000Z</time>
      </trkpt>
      <trkpt lat="43.67509" lon="3.85063">
        <ele>80.62999936</ele>
        <time>2020-10-25T13:55:31.000Z</time>
      </trkpt>
      <trkpt lat="43.67507" lon="3.85059">
        <ele>80.72999936</ele>
        <time>2020-10-25T13:55:32.000Z</time>
      </trkpt>
      <trkpt lat="43.67505" lon="3.85056">
        <ele>80.82999936</ele>
        <time>2020-10-25T13:55:33.000Z</time>
      </trkpt>
      <trkpt lat="43.67504" lon="3.85053">
        <ele>80.92999936</ele>
        <time>2020-10-25T13:55:34.000Z</time>
      </trkpt>
      <trkpt lat="43.67502" lon="3.8505">
        <ele>81.029153906054</ele>
        <time>2020-10-25T13:55:35.000Z</time>
      </trkpt>
      <trkpt lat="43.67501" lon="3.85046">
        <ele>81.12633566611</ele>
        <time>2020-10-25T13:55:36.000Z</time>
      </trkpt>
      <trkpt lat="43.675" lon="3.85043">
        <ele>81.223517426167</ele>
        <time>2020-10-25T13:55:37.000Z</time>
      </trkpt>
      <trkpt lat="43.67499" lon="3.8504">
        <ele>81.320699186223</ele>
        <time>2020-10-25T13:55:38.000Z</time>
      </trkpt>
      <trkpt lat="43.67498" lon="3.85037">
        <ele>81.41788094628</ele>
        <time>2020-10-25T13:55:39.000Z</time>
      </trkpt>
      <trkpt lat="43.67497" lon="3.85034">
        <ele>81.515062706336</ele>
        <time>2020-10-25T13:55:40.000Z</time>
      </trkpt>
      <trkpt lat="43.67496" lon="3.85031">
        <ele>81.612244466393</ele>
        <time>2020-10-25T13:55:41.000Z</time>
      </trkpt>
      <trkpt lat="43.67494" lon="3.85028">
        <ele>81.806607986506</ele>
        <time>2020-10-25T13:55:43.000Z</time>
      </trkpt>
      <trkpt lat="43.67494" lon="3.85033">
        <ele>82.101100877935</ele>
        <time>2020-10-25T13:55:46.000Z</time>
      </trkpt>
      <trkpt lat="43.67495" lon="3.85035">
        <ele>82.201201074227</ele>
        <time>2020-10-25T13:55:47.000Z</time>
      </trkpt>
      <trkpt lat="43.67495" lon="3.85039">
        <ele>82.30130127052</ele>
        <time>2020-10-25T13:55:48.000Z</time>
      </trkpt>
      <trkpt lat="43.67495" lon="3.85042">
        <ele>82.401401466812</ele>
        <time>2020-10-25T13:55:49.000Z</time>
      </trkpt>
      <trkpt lat="43.67495" lon="3.85045">
        <ele>82.501501663105</ele>
        <time>2020-10-25T13:55:50.000Z</time>
      </trkpt>
      <trkpt lat="43.67491" lon="3.85047">
        <ele>82.70170205569</ele>
        <time>2020-10-25T13:55:52.000Z</time>
      </trkpt>
      <trkpt lat="43.67489" lon="3.85047">
        <ele>82.801802251982</ele>
        <time>2020-10-25T13:55:53.000Z</time>
      </trkpt>
      <trkpt lat="43.67487" lon="3.85051">
        <ele>83.002058268895</ele>
        <time>2020-10-25T13:55:55.000Z</time>
      </trkpt>
      <trkpt lat="43.67486" lon="3.85054">
        <ele>83.10493879185</ele>
        <time>2020-10-25T13:55:56.000Z</time>
      </trkpt>
      <trkpt lat="43.67485" lon="3.85056">
        <ele>83.207819314806</ele>
        <time>2020-10-25T13:55:57.000Z</time>
      </trkpt>
      <trkpt lat="43.67484" lon="3.85058">
        <ele>83.310699837762</ele>
        <time>2020-10-25T13:55:58.000Z</time>
      </trkpt>
      <trkpt lat="43.67482" lon="3.85061">
        <ele>83.413580360717</ele>
        <time>2020-10-25T13:55:59.000Z</time>
      </trkpt>
      <trkpt lat="43.6748" lon="3.85064">
        <ele>83.516460883673</ele>
        <time>2020-10-25T13:56:00.000Z</time>
      </trkpt>
      <trkpt lat="43.67479" lon="3.85066">
        <ele>83.619341406629</ele>
        <time>2020-10-25T13:56:01.000Z</time>
      </trkpt>
      <trkpt lat="43.67477" lon="3.85069">
        <ele>83.722221929584</ele>
        <time>2020-10-25T13:56:02.000Z</time>
      </trkpt>
      <trkpt lat="43.67475" lon="3.85071">
        <ele>83.82510245254</ele>
        <time>2020-10-25T13:56:03.000Z</time>
      </trkpt>
      <trkpt lat="43.67473" lon="3.85074">
        <ele>83.927982975496</ele>
        <time>2020-10-25T13:56:04.000Z</time>
      </trkpt>
      <trkpt lat="43.67471" lon="3.85077">
        <ele>84.029820456347</ele>
        <time>2020-10-25T13:56:05.000Z</time>
      </trkpt>
      <trkpt lat="43.67469" lon="3.8508">
        <ele>84.129224098115</ele>
        <time>2020-10-25T13:56:06.000Z</time>
      </trkpt>
      <trkpt lat="43.67467" lon="3.85082">
        <ele>84.228627739882</ele>
        <time>2020-10-25T13:56:07.000Z</time>
      </trkpt>
      <trkpt lat="43.67465" lon="3.85086">
        <ele>84.32803138165</ele>
        <time>2020-10-25T13:56:08.000Z</time>
      </trkpt>
      <trkpt lat="43.67463" lon="3.85089">
        <ele>84.427435023418</ele>
        <time>2020-10-25T13:56:09.000Z</time>
      </trkpt>
      <trkpt lat="43.6746" lon="3.85093">
        <ele>84.526838665186</ele>
        <time>2020-10-25T13:56:10.000Z</time>
      </trkpt>
      <trkpt lat="43.67458" lon="3.85096">
        <ele>84.626242306953</ele>
        <time>2020-10-25T13:56:11.000Z</time>
      </trkpt>
      <trkpt lat="43.67456" lon="3.851">
        <ele>84.725645948721</ele>
        <time>2020-10-25T13:56:12.000Z</time>
      </trkpt>
      <trkpt lat="43.67453" lon="3.85103">
        <ele>84.825049590489</ele>
        <time>2020-10-25T13:56:13.000Z</time>
      </trkpt>
      <trkpt lat="43.67451" lon="3.85107">
        <ele>84.924453232256</ele>
        <time>2020-10-25T13:56:14.000Z</time>
      </trkpt>
      <trkpt lat="43.67448" lon="3.8511">
        <ele>85.048289707339</ele>
        <time>2020-10-25T13:56:15.000Z</time>
      </trkpt>
      <trkpt lat="43.67446" lon="3.85114">
        <ele>85.249496821249</ele>
        <time>2020-10-25T13:56:16.000Z</time>
      </trkpt>
      <trkpt lat="43.67443" lon="3.85117">
        <ele>85.45070393516</ele>
        <time>2020-10-25T13:56:17.000Z</time>
      </trkpt>
      <trkpt lat="43.67441" lon="3.85121">
        <ele>85.651911049071</ele>
        <time>2020-10-25T13:56:18.000Z</time>
      </trkpt>
      <trkpt lat="43.67439" lon="3.85124">
        <ele>85.853118162982</ele>
        <time>2020-10-25T13:56:19.000Z</time>
      </trkpt>
      <trkpt lat="43.67437" lon="3.85126">
        <ele>86.054325276893</ele>
        <time>2020-10-25T13:56:20.000Z</time>
      </trkpt>
      <trkpt lat="43.67435" lon="3.85129">
        <ele>86.255532390804</ele>
        <time>2020-10-25T13:56:21.000Z</time>
      </trkpt>
      <trkpt lat="43.67434" lon="3.85131">
        <ele>86.456739504715</ele>
        <time>2020-10-25T13:56:22.000Z</time>
      </trkpt>
      <trkpt lat="43.67432" lon="3.85133">
        <ele>86.657946618626</ele>
        <time>2020-10-25T13:56:23.000Z</time>
      </trkpt>
      <trkpt lat="43.67431" lon="3.85135">
        <ele>86.859153732537</ele>
        <time>2020-10-25T13:56:24.000Z</time>
      </trkpt>
      <trkpt lat="43.67429" lon="3.85137">
        <ele>87.02999936</ele>
        <time>2020-10-25T13:56:25.000Z</time>
      </trkpt>
      <trkpt lat="43.67427" lon="3.85139">
        <ele>87.12999936</ele>
        <time>2020-10-25T13:56:26.000Z</time>
      </trkpt>
      <trkpt lat="43.67425" lon="3.85142">
        <ele>87.22999936</ele>
        <time>2020-10-25T13:56:27.000Z</time>
      </trkpt>
      <trkpt lat="43.67423" lon="3.85145">
        <ele>87.32999936</ele>
        <time>2020-10-25T13:56:28.000Z</time>
      </trkpt>
      <trkpt lat="43.67421" lon="3.85148">
        <ele>87.42999936</ele>
        <time>2020-10-25T13:56:29.000Z</time>
      </trkpt>
      <trkpt lat="43.6742" lon="3.8515">
        <ele>87.52999936</ele>
        <time>2020-10-25T13:56:30.000Z</time>
      </trkpt>
      <trkpt lat="43.67418" lon="3.85153">
        <ele>87.62999936</ele>
        <time>2020-10-25T13:56:31.000Z</time>
      </trkpt>
      <trkpt lat="43.67416" lon="3.85156">
        <ele>87.72999936</ele>
        <time>2020-10-25T13:56:32.000Z</time>
      </trkpt>
      <trkpt lat="43.67414" lon="3.85158">
        <ele>87.82999936</ele>
        <time>2020-10-25T13:56:33.000Z</time>
      </trkpt>
      <trkpt lat="43.67412" lon="3.85159">
        <ele>87.92999936</ele>
        <time>2020-10-25T13:56:34.000Z</time>
      </trkpt>
      <trkpt lat="43.6741" lon="3.8516">
        <ele>88.02999936</ele>
        <time>2020-10-25T13:56:35.000Z</time>
      </trkpt>
      <trkpt lat="43.67407" lon="3.85161">
        <ele>88.12999936</ele>
        <time>2020-10-25T13:56:36.000Z</time>
      </trkpt>
      <trkpt lat="43.67405" lon="3.85158">
        <ele>88.32999936</ele>
        <time>2020-10-25T13:56:38.000Z</time>
      </trkpt>
      <trkpt lat="43.67408" lon="3.85158">
        <ele>88.62999936</ele>
        <time>2020-10-25T13:56:41.000Z</time>
      </trkpt>
      <trkpt lat="43.67407" lon="3.85162">
        <ele>88.82999936</ele>
        <time>2020-10-25T13:56:43.000Z</time>
      </trkpt>
      <trkpt lat="43.67405" lon="3.85165">
        <ele>88.92999936</ele>
        <time>2020-10-25T13:56:44.000Z</time>
      </trkpt>
      <trkpt lat="43.67403" lon="3.85167">
        <ele>89</ele>
        <time>2020-10-25T13:56:45.000Z</time>
      </trkpt>
      <trkpt lat="43.67401" lon="3.8517">
        <ele>89</ele>
        <time>2020-10-25T13:56:46.000Z</time>
      </trkpt>
      <trkpt lat="43.67398" lon="3.85173">
        <ele>89</ele>
        <time>2020-10-25T13:56:47.000Z</time>
      </trkpt>
      <trkpt lat="43.67396" lon="3.85176">
        <ele>89</ele>
        <time>2020-10-25T13:56:48.000Z</time>
      </trkpt>
      <trkpt lat="43.67394" lon="3.85179">
        <ele>89</ele>
        <time>2020-10-25T13:56:49.000Z</time>
      </trkpt>
      <trkpt lat="43.67392" lon="3.85181">
        <ele>89</ele>
        <time>2020-10-25T13:56:50.000Z</time>
      </trkpt>
      <trkpt lat="43.6739" lon="3.85184">
        <ele>89</ele>
        <time>2020-10-25T13:56:51.000Z</time>
      </trkpt>
      <trkpt lat="43.67388" lon="3.85187">
        <ele>89</ele>
        <time>2020-10-25T13:56:52.000Z</time>
      </trkpt>
      <trkpt lat="43.67386" lon="3.8519">
        <ele>89</ele>
        <time>2020-10-25T13:56:53.000Z</time>
      </trkpt>
      <trkpt lat="43.67384" lon="3.85193">
        <ele>89</ele>
        <time>2020-10-25T13:56:54.000Z</time>
      </trkpt>
      <trkpt lat="43.67382" lon="3.85195">
        <ele>89.029939500161</ele>
        <time>2020-10-25T13:56:55.000Z</time>
      </trkpt>
      <trkpt lat="43.6738" lon="3.85198">
        <ele>89.129739963107</ele>
        <time>2020-10-25T13:56:56.000Z</time>
      </trkpt>
      <trkpt lat="43.67378" lon="3.85201">
        <ele>89.229540426054</ele>
        <time>2020-10-25T13:56:57.000Z</time>
      </trkpt>
      <trkpt lat="43.67376" lon="3.85204">
        <ele>89.329340889</ele>
        <time>2020-10-25T13:56:58.000Z</time>
      </trkpt>
      <trkpt lat="43.67374" lon="3.85207">
        <ele>89.429141351947</ele>
        <time>2020-10-25T13:56:59.000Z</time>
      </trkpt>
      <trkpt lat="43.67371" lon="3.8521">
        <ele>89.528941814893</ele>
        <time>2020-10-25T13:57:00.000Z</time>
      </trkpt>
      <trkpt lat="43.67369" lon="3.85213">
        <ele>89.628742277839</ele>
        <time>2020-10-25T13:57:01.000Z</time>
      </trkpt>
      <trkpt lat="43.67367" lon="3.85216">
        <ele>89.728542740786</ele>
        <time>2020-10-25T13:57:02.000Z</time>
      </trkpt>
      <trkpt lat="43.67365" lon="3.85219">
        <ele>89.828343203732</ele>
        <time>2020-10-25T13:57:03.000Z</time>
      </trkpt>
      <trkpt lat="43.67363" lon="3.85222">
        <ele>89.928143666679</ele>
        <time>2020-10-25T13:57:04.000Z</time>
      </trkpt>
      <trkpt lat="43.67361" lon="3.85224">
        <ele>90.028056094233</ele>
        <time>2020-10-25T13:57:05.000Z</time>
      </trkpt>
      <trkpt lat="43.67359" lon="3.85226">
        <ele>90.128256430777</ele>
        <time>2020-10-25T13:57:06.000Z</time>
      </trkpt>
      <trkpt lat="43.67356" lon="3.85228">
        <ele>90.228456767322</ele>
        <time>2020-10-25T13:57:07.000Z</time>
      </trkpt>
      <trkpt lat="43.67354" lon="3.8523">
        <ele>90.328657103867</ele>
        <time>2020-10-25T13:57:08.000Z</time>
      </trkpt>
      <trkpt lat="43.67352" lon="3.85232">
        <ele>90.428857440412</ele>
        <time>2020-10-25T13:57:09.000Z</time>
      </trkpt>
      <trkpt lat="43.67351" lon="3.85234">
        <ele>90.529057776957</ele>
        <time>2020-10-25T13:57:10.000Z</time>
      </trkpt>
      <trkpt lat="43.6735" lon="3.85237">
        <ele>90.629258113502</ele>
        <time>2020-10-25T13:57:11.000Z</time>
      </trkpt>
      <trkpt lat="43.67349" lon="3.85241">
        <ele>90.829658786592</ele>
        <time>2020-10-25T13:57:13.000Z</time>
      </trkpt>
      <trkpt lat="43.67347" lon="3.85245">
        <ele>91.0585925</ele>
        <time>2020-10-25T13:57:15.000Z</time>
      </trkpt>
      <trkpt lat="43.67346" lon="3.85248">
        <ele>91.253905</ele>
        <time>2020-10-25T13:57:16.000Z</time>
      </trkpt>
      <trkpt lat="43.67345" lon="3.85251">
        <ele>91.4492175</ele>
        <time>2020-10-25T13:57:17.000Z</time>
      </trkpt>
      <trkpt lat="43.67343" lon="3.85253">
        <ele>91.64453</ele>
        <time>2020-10-25T13:57:18.000Z</time>
      </trkpt>
      <trkpt lat="43.67342" lon="3.85257">
        <ele>91.8398425</ele>
        <time>2020-10-25T13:57:19.000Z</time>
      </trkpt>
      <trkpt lat="43.6734" lon="3.85261">
        <ele>92.035155</ele>
        <time>2020-10-25T13:57:20.000Z</time>
      </trkpt>
      <trkpt lat="43.67338" lon="3.85265">
        <ele>92.2304675</ele>
        <time>2020-10-25T13:57:21.000Z</time>
      </trkpt>
      <trkpt lat="43.67336" lon="3.85268">
        <ele>92.42578</ele>
        <time>2020-10-25T13:57:22.000Z</time>
      </trkpt>
      <trkpt lat="43.67335" lon="3.85272">
        <ele>92.6210925</ele>
        <time>2020-10-25T13:57:23.000Z</time>
      </trkpt>
      <trkpt lat="43.67333" lon="3.85275">
        <ele>92.816405</ele>
        <time>2020-10-25T13:57:24.000Z</time>
      </trkpt>
      <trkpt lat="43.67332" lon="3.85278">
        <ele>93.00599936</ele>
        <time>2020-10-25T13:57:25.000Z</time>
      </trkpt>
      <trkpt lat="43.67331" lon="3.85281">
        <ele>93.10599936</ele>
        <time>2020-10-25T13:57:26.000Z</time>
      </trkpt>
      <trkpt lat="43.6733" lon="3.85284">
        <ele>93.20599936</ele>
        <time>2020-10-25T13:57:27.000Z</time>
      </trkpt>
      <trkpt lat="43.67326" lon="3.85288">
        <ele>93.40599936</ele>
        <time>2020-10-25T13:57:29.000Z</time>
      </trkpt>
      <trkpt lat="43.67322" lon="3.85293">
        <ele>93.60599936</ele>
        <time>2020-10-25T13:57:31.000Z</time>
      </trkpt>
      <trkpt lat="43.67314" lon="3.85301">
        <ele>93.90599936</ele>
        <time>2020-10-25T13:57:34.000Z</time>
      </trkpt>
      <trkpt lat="43.67311" lon="3.85304">
        <ele>94.006146885246</ele>
        <time>2020-10-25T13:57:35.000Z</time>
      </trkpt>
      <trkpt lat="43.67308" lon="3.85306">
        <ele>94.108605901639</ele>
        <time>2020-10-25T13:57:36.000Z</time>
      </trkpt>
      <trkpt lat="43.67306" lon="3.85308">
        <ele>94.211064918033</ele>
        <time>2020-10-25T13:57:37.000Z</time>
      </trkpt>
      <trkpt lat="43.67303" lon="3.85309">
        <ele>94.313523934426</ele>
        <time>2020-10-25T13:57:38.000Z</time>
      </trkpt>
      <trkpt lat="43.67301" lon="3.85309">
        <ele>94.41598295082</ele>
        <time>2020-10-25T13:57:39.000Z</time>
      </trkpt>
      <trkpt lat="43.67299" lon="3.85311">
        <ele>94.518441967213</ele>
        <time>2020-10-25T13:57:40.000Z</time>
      </trkpt>
      <trkpt lat="43.67297" lon="3.85313">
        <ele>94.620900983607</ele>
        <time>2020-10-25T13:57:41.000Z</time>
      </trkpt>
      <trkpt lat="43.67295" lon="3.85314">
        <ele>94.72336</ele>
        <time>2020-10-25T13:57:42.000Z</time>
      </trkpt>
      <trkpt lat="43.67293" lon="3.85316">
        <ele>94.825819016393</ele>
        <time>2020-10-25T13:57:43.000Z</time>
      </trkpt>
      <trkpt lat="43.67292" lon="3.85318">
        <ele>94.928278032787</ele>
        <time>2020-10-25T13:57:44.000Z</time>
      </trkpt>
      <trkpt lat="43.67289" lon="3.8532">
        <ele>95.02999936</ele>
        <time>2020-10-25T13:57:45.000Z</time>
      </trkpt>
      <trkpt lat="43.67287" lon="3.85323">
        <ele>95.12999936</ele>
        <time>2020-10-25T13:57:46.000Z</time>
      </trkpt>
      <trkpt lat="43.67284" lon="3.85325">
        <ele>95.22999936</ele>
        <time>2020-10-25T13:57:47.000Z</time>
      </trkpt>
      <trkpt lat="43.67282" lon="3.85326">
        <ele>95.32999936</ele>
        <time>2020-10-25T13:57:48.000Z</time>
      </trkpt>
      <trkpt lat="43.67279" lon="3.85328">
        <ele>95.42999936</ele>
        <time>2020-10-25T13:57:49.000Z</time>
      </trkpt>
      <trkpt lat="43.67277" lon="3.8533">
        <ele>95.52999936</ele>
        <time>2020-10-25T13:57:50.000Z</time>
      </trkpt>
      <trkpt lat="43.67274" lon="3.85332">
        <ele>95.62999936</ele>
        <time>2020-10-25T13:57:51.000Z</time>
      </trkpt>
      <trkpt lat="43.67272" lon="3.85334">
        <ele>95.72999936</ele>
        <time>2020-10-25T13:57:52.000Z</time>
      </trkpt>
      <trkpt lat="43.6727" lon="3.85336">
        <ele>95.82999936</ele>
        <time>2020-10-25T13:57:53.000Z</time>
      </trkpt>
      <trkpt lat="43.67267" lon="3.85338">
        <ele>95.92999936</ele>
        <time>2020-10-25T13:57:54.000Z</time>
      </trkpt>
      <trkpt lat="43.67265" lon="3.85339">
        <ele>96.02999936</ele>
        <time>2020-10-25T13:57:55.000Z</time>
      </trkpt>
      <trkpt lat="43.67263" lon="3.85341">
        <ele>96.12999936</ele>
        <time>2020-10-25T13:57:56.000Z</time>
      </trkpt>
      <trkpt lat="43.67261" lon="3.85342">
        <ele>96.22999936</ele>
        <time>2020-10-25T13:57:57.000Z</time>
      </trkpt>
      <trkpt lat="43.67259" lon="3.85343">
        <ele>96.32999936</ele>
        <time>2020-10-25T13:57:58.000Z</time>
      </trkpt>
      <trkpt lat="43.67257" lon="3.85344">
        <ele>96.42999936</ele>
        <time>2020-10-25T13:57:59.000Z</time>
      </trkpt>
      <trkpt lat="43.67254" lon="3.85344">
        <ele>96.62999936</ele>
        <time>2020-10-25T13:58:01.000Z</time>
      </trkpt>
      <trkpt lat="43.67253" lon="3.85342">
        <ele>96.82999936</ele>
        <time>2020-10-25T13:58:03.000Z</time>
      </trkpt>
      <trkpt lat="43.67254" lon="3.85344">
        <ele>97.22999936</ele>
        <time>2020-10-25T13:58:07.000Z</time>
      </trkpt>
      <trkpt lat="43.67254" lon="3.85346">
        <ele>97.32999936</ele>
        <time>2020-10-25T13:58:08.000Z</time>
      </trkpt>
      <trkpt lat="43.67252" lon="3.85347">
        <ele>97.42999936</ele>
        <time>2020-10-25T13:58:09.000Z</time>
      </trkpt>
      <trkpt lat="43.67249" lon="3.85345">
        <ele>97.62999936</ele>
        <time>2020-10-25T13:58:11.000Z</time>
      </trkpt>
      <trkpt lat="43.6725" lon="3.85342">
        <ele>97.82999936</ele>
        <time>2020-10-25T13:58:13.000Z</time>
      </trkpt>
      <trkpt lat="43.67252" lon="3.85341">
        <ele>98.02999936</ele>
        <time>2020-10-25T13:58:15.000Z</time>
      </trkpt>
      <trkpt lat="43.67253" lon="3.85337">
        <ele>98.32999936</ele>
        <time>2020-10-25T13:58:18.000Z</time>
      </trkpt>
      <trkpt lat="43.67253" lon="3.85333">
        <ele>98.62999936</ele>
        <time>2020-10-25T13:58:21.000Z</time>
      </trkpt>
      <trkpt lat="43.67252" lon="3.85331">
        <ele>98.82999936</ele>
        <time>2020-10-25T13:58:23.000Z</time>
      </trkpt>
      <trkpt lat="43.67251" lon="3.85328">
        <ele>99.029939500161</ele>
        <time>2020-10-25T13:58:25.000Z</time>
      </trkpt>
      <trkpt lat="43.67252" lon="3.85325">
        <ele>99.229540426054</ele>
        <time>2020-10-25T13:58:27.000Z</time>
      </trkpt>
      <trkpt lat="43.67253" lon="3.85321">
        <ele>99.429141351947</ele>
        <time>2020-10-25T13:58:29.000Z</time>
      </trkpt>
      <trkpt lat="43.67254" lon="3.85317">
        <ele>99.628742277839</ele>
        <time>2020-10-25T13:58:31.000Z</time>
      </trkpt>
      <trkpt lat="43.67254" lon="3.85314">
        <ele>99.728542740786</ele>
        <time>2020-10-25T13:58:32.000Z</time>
      </trkpt>
      <trkpt lat="43.67255" lon="3.85312">
        <ele>99.828343203732</ele>
        <time>2020-10-25T13:58:33.000Z</time>
      </trkpt>
      <trkpt lat="43.67255" lon="3.85309">
        <ele>99.928143666679</ele>
        <time>2020-10-25T13:58:34.000Z</time>
      </trkpt>
      <trkpt lat="43.67256" lon="3.85307">
        <ele>100</ele>
        <time>2020-10-25T13:58:35.000Z</time>
      </trkpt>
      <trkpt lat="43.67256" lon="3.85304">
        <ele>100</ele>
        <time>2020-10-25T13:58:36.000Z</time>
      </trkpt>
      <trkpt lat="43.67256" lon="3.85301">
        <ele>100</ele>
        <time>2020-10-25T13:58:37.000Z</time>
      </trkpt>
      <trkpt lat="43.67257" lon="3.85298">
        <ele>100</ele>
        <time>2020-10-25T13:58:38.000Z</time>
      </trkpt>
      <trkpt lat="43.67258" lon="3.85295">
        <ele>100</ele>
        <time>2020-10-25T13:58:39.000Z</time>
      </trkpt>
      <trkpt lat="43.67258" lon="3.85293">
        <ele>100</ele>
        <time>2020-10-25T13:58:40.000Z</time>
      </trkpt>
      <trkpt lat="43.67258" lon="3.8529">
        <ele>100</ele>
        <time>2020-10-25T13:58:41.000Z</time>
      </trkpt>
      <trkpt lat="43.67259" lon="3.85287">
        <ele>100</ele>
        <time>2020-10-25T13:58:42.000Z</time>
      </trkpt>
      <trkpt lat="43.67259" lon="3.85285">
        <ele>100</ele>
        <time>2020-10-25T13:58:43.000Z</time>
      </trkpt>
      <trkpt lat="43.6726" lon="3.85282">
        <ele>100</ele>
        <time>2020-10-25T13:58:44.000Z</time>
      </trkpt>
      <trkpt lat="43.67261" lon="3.85279">
        <ele>100.02935359959</ele>
        <time>2020-10-25T13:58:45.000Z</time>
      </trkpt>
      <trkpt lat="43.67262" lon="3.85275">
        <ele>100.22504843839</ele>
        <time>2020-10-25T13:58:47.000Z</time>
      </trkpt>
      <trkpt lat="43.67263" lon="3.8527">
        <ele>100.42074327718</ele>
        <time>2020-10-25T13:58:49.000Z</time>
      </trkpt>
      <trkpt lat="43.67263" lon="3.85267">
        <ele>100.51859069657</ele>
        <time>2020-10-25T13:58:50.000Z</time>
      </trkpt>
      <trkpt lat="43.67263" lon="3.85264">
        <ele>100.61643811597</ele>
        <time>2020-10-25T13:58:51.000Z</time>
      </trkpt>
      <trkpt lat="43.67263" lon="3.85262">
        <ele>100.71428553536</ele>
        <time>2020-10-25T13:58:52.000Z</time>
      </trkpt>
      <trkpt lat="43.67263" lon="3.85258">
        <ele>100.90998037416</ele>
        <time>2020-10-25T13:58:54.000Z</time>
      </trkpt>
      <trkpt lat="43.67262" lon="3.85254">
        <ele>100.88979591837</ele>
        <time>2020-10-25T13:58:56.000Z</time>
      </trkpt>
      <trkpt lat="43.67261" lon="3.8525">
        <ele>100.68571428571</ele>
        <time>2020-10-25T13:58:58.000Z</time>
      </trkpt>
      <trkpt lat="43.6726" lon="3.85246">
        <ele>100.48163265306</ele>
        <time>2020-10-25T13:59:00.000Z</time>
      </trkpt>
      <trkpt lat="43.67258" lon="3.85244">
        <ele>100.27755102041</ele>
        <time>2020-10-25T13:59:02.000Z</time>
      </trkpt>
      <trkpt lat="43.67256" lon="3.85244">
        <ele>100.07346938775</ele>
        <time>2020-10-25T13:59:04.000Z</time>
      </trkpt>
      <trkpt lat="43.67255" lon="3.85247">
        <ele>100</ele>
        <time>2020-10-25T13:59:06.000Z</time>
      </trkpt>
      <trkpt lat="43.67257" lon="3.85249">
        <ele>100</ele>
        <time>2020-10-25T13:59:08.000Z</time>
      </trkpt>
      <trkpt lat="43.6726" lon="3.8525">
        <ele>100</ele>
        <time>2020-10-25T13:59:09.000Z</time>
      </trkpt>
      <trkpt lat="43.67262" lon="3.85248">
        <ele>100</ele>
        <time>2020-10-25T13:59:11.000Z</time>
      </trkpt>
      <trkpt lat="43.67263" lon="3.85247">
        <ele>99.999532173628</ele>
        <time>2020-10-25T13:59:18.000Z</time>
      </trkpt>
      <trkpt lat="43.67259" lon="3.85244">
        <ele>98.001336585678</ele>
        <time>2020-10-25T14:04:17.000Z</time>
      </trkpt>
      <trkpt lat="43.67257" lon="3.85245">
        <ele>98.051632978422</ele>
        <time>2020-10-25T14:04:18.000Z</time>
      </trkpt>
      <trkpt lat="43.67255" lon="3.85245">
        <ele>98.157007091931</ele>
        <time>2020-10-25T14:04:19.000Z</time>
      </trkpt>
      <trkpt lat="43.67253" lon="3.85245">
        <ele>98.262381205439</ele>
        <time>2020-10-25T14:04:20.000Z</time>
      </trkpt>
      <trkpt lat="43.6725" lon="3.85245">
        <ele>98.367755318948</ele>
        <time>2020-10-25T14:04:21.000Z</time>
      </trkpt>
      <trkpt lat="43.67248" lon="3.85245">
        <ele>98.473129432457</ele>
        <time>2020-10-25T14:04:22.000Z</time>
      </trkpt>
      <trkpt lat="43.67246" lon="3.85246">
        <ele>98.578503545965</ele>
        <time>2020-10-25T14:04:23.000Z</time>
      </trkpt>
      <trkpt lat="43.67244" lon="3.85246">
        <ele>98.683877659474</ele>
        <time>2020-10-25T14:04:24.000Z</time>
      </trkpt>
      <trkpt lat="43.67242" lon="3.85247">
        <ele>98.789251772983</ele>
        <time>2020-10-25T14:04:25.000Z</time>
      </trkpt>
      <trkpt lat="43.6724" lon="3.85247">
        <ele>98.894625886491</ele>
        <time>2020-10-25T14:04:26.000Z</time>
      </trkpt>
      <trkpt lat="43.67238" lon="3.85246">
        <ele>99</ele>
        <time>2020-10-25T14:04:27.000Z</time>
      </trkpt>
      <trkpt lat="43.67236" lon="3.85246">
        <ele>99</ele>
        <time>2020-10-25T14:04:28.000Z</time>
      </trkpt>
      <trkpt lat="43.67234" lon="3.85247">
        <ele>99</ele>
        <time>2020-10-25T14:04:29.000Z</time>
      </trkpt>
      <trkpt lat="43.67231" lon="3.85247">
        <ele>99</ele>
        <time>2020-10-25T14:04:31.000Z</time>
      </trkpt>
      <trkpt lat="43.67229" lon="3.85247">
        <ele>99</ele>
        <time>2020-10-25T14:04:32.000Z</time>
      </trkpt>
      <trkpt lat="43.67226" lon="3.85246">
        <ele>99</ele>
        <time>2020-10-25T14:04:35.000Z</time>
      </trkpt>
      <trkpt lat="43.67224" lon="3.85246">
        <ele>99</ele>
        <time>2020-10-25T14:04:36.000Z</time>
      </trkpt>
      <trkpt lat="43.67222" lon="3.85246">
        <ele>99.002054043825</ele>
        <time>2020-10-25T14:04:37.000Z</time>
      </trkpt>
      <trkpt lat="43.6722" lon="3.85246">
        <ele>99.10472338088</ele>
        <time>2020-10-25T14:04:38.000Z</time>
      </trkpt>
      <trkpt lat="43.67218" lon="3.85246">
        <ele>99.207392717935</ele>
        <time>2020-10-25T14:04:39.000Z</time>
      </trkpt>
      <trkpt lat="43.67216" lon="3.85245">
        <ele>99.31006205499</ele>
        <time>2020-10-25T14:04:40.000Z</time>
      </trkpt>
      <trkpt lat="43.67213" lon="3.85245">
        <ele>99.412731392045</ele>
        <time>2020-10-25T14:04:41.000Z</time>
      </trkpt>
      <trkpt lat="43.67211" lon="3.85244">
        <ele>99.5154007291</ele>
        <time>2020-10-25T14:04:42.000Z</time>
      </trkpt>
      <trkpt lat="43.67209" lon="3.85243">
        <ele>99.618070066155</ele>
        <time>2020-10-25T14:04:43.000Z</time>
      </trkpt>
      <trkpt lat="43.67208" lon="3.85242">
        <ele>99.72073940321</ele>
        <time>2020-10-25T14:04:44.000Z</time>
      </trkpt>
      <trkpt lat="43.67206" lon="3.85242">
        <ele>99.823408740265</ele>
        <time>2020-10-25T14:04:45.000Z</time>
      </trkpt>
      <trkpt lat="43.67204" lon="3.85241">
        <ele>99.92607807732</ele>
        <time>2020-10-25T14:04:46.000Z</time>
      </trkpt>
      <trkpt lat="43.67202" lon="3.8524">
        <ele>100.02742410262</ele>
        <time>2020-10-25T14:04:47.000Z</time>
      </trkpt>
      <trkpt lat="43.672" lon="3.85239">
        <ele>100.12536732627</ele>
        <time>2020-10-25T14:04:48.000Z</time>
      </trkpt>
      <trkpt lat="43.67197" lon="3.85237">
        <ele>100.32125377356</ele>
        <time>2020-10-25T14:04:50.000Z</time>
      </trkpt>
      <trkpt lat="43.67195" lon="3.85235">
        <ele>100.4191969972</ele>
        <time>2020-10-25T14:04:51.000Z</time>
      </trkpt>
      <trkpt lat="43.67194" lon="3.85233">
        <ele>100.51714022085</ele>
        <time>2020-10-25T14:04:52.000Z</time>
      </trkpt>
      <trkpt lat="43.67191" lon="3.8523">
        <ele>100.71302666814</ele>
        <time>2020-10-25T14:04:54.000Z</time>
      </trkpt>
      <trkpt lat="43.67189" lon="3.85229">
        <ele>100.81096989178</ele>
        <time>2020-10-25T14:04:55.000Z</time>
      </trkpt>
      <trkpt lat="43.67187" lon="3.85227">
        <ele>100.90891311543</ele>
        <time>2020-10-25T14:04:56.000Z</time>
      </trkpt>
      <trkpt lat="43.67186" lon="3.85226">
        <ele>101.01414205146</ele>
        <time>2020-10-25T14:04:57.000Z</time>
      </trkpt>
      <trkpt lat="43.67184" lon="3.85224">
        <ele>101.21616212288</ele>
        <time>2020-10-25T14:04:58.000Z</time>
      </trkpt>
      <trkpt lat="43.67183" lon="3.85222">
        <ele>101.41818219431</ele>
        <time>2020-10-25T14:04:59.000Z</time>
      </trkpt>
      <trkpt lat="43.6718" lon="3.8522">
        <ele>101.82222233715</ele>
        <time>2020-10-25T14:05:01.000Z</time>
      </trkpt>
      <trkpt lat="43.67178" lon="3.85219">
        <ele>102.02424240857</ele>
        <time>2020-10-25T14:05:02.000Z</time>
      </trkpt>
      <trkpt lat="43.67176" lon="3.85216">
        <ele>102.22626247999</ele>
        <time>2020-10-25T14:05:03.000Z</time>
      </trkpt>
      <trkpt lat="43.67176" lon="3.85214">
        <ele>102.42828255141</ele>
        <time>2020-10-25T14:05:04.000Z</time>
      </trkpt>
      <trkpt lat="43.67175" lon="3.85211">
        <ele>102.63030262284</ele>
        <time>2020-10-25T14:05:05.000Z</time>
      </trkpt>
      <trkpt lat="43.67174" lon="3.85209">
        <ele>102.83232269426</ele>
        <time>2020-10-25T14:05:06.000Z</time>
      </trkpt>
      <trkpt lat="43.67172" lon="3.85207">
        <ele>103.01681471278</ele>
        <time>2020-10-25T14:05:07.000Z</time>
      </trkpt>
      <trkpt lat="43.6717" lon="3.85206">
        <ele>103.11572664982</ele>
        <time>2020-10-25T14:05:08.000Z</time>
      </trkpt>
      <trkpt lat="43.67168" lon="3.85206">
        <ele>103.21463858686</ele>
        <time>2020-10-25T14:05:09.000Z</time>
      </trkpt>
      <trkpt lat="43.67165" lon="3.85203">
        <ele>103.41246246094</ele>
        <time>2020-10-25T14:05:11.000Z</time>
      </trkpt>
      <trkpt lat="43.67163" lon="3.85199">
        <ele>103.61028633502</ele>
        <time>2020-10-25T14:05:13.000Z</time>
      </trkpt>
      <trkpt lat="43.6716" lon="3.85197">
        <ele>103.8081102091</ele>
        <time>2020-10-25T14:05:15.000Z</time>
      </trkpt>
      <trkpt lat="43.67157" lon="3.85195">
        <ele>104.01229377049</ele>
        <time>2020-10-25T14:05:17.000Z</time>
      </trkpt>
      <trkpt lat="43.67156" lon="3.85192">
        <ele>104.42212983607</ele>
        <time>2020-10-25T14:05:19.000Z</time>
      </trkpt>
      <trkpt lat="43.67154" lon="3.8519">
        <ele>104.83196590164</ele>
        <time>2020-10-25T14:05:21.000Z</time>
      </trkpt>
      <trkpt lat="43.67152" lon="3.85188">
        <ele>105.24180196721</ele>
        <time>2020-10-25T14:05:23.000Z</time>
      </trkpt>
      <trkpt lat="43.6715" lon="3.85186">
        <ele>105.65163803279</ele>
        <time>2020-10-25T14:05:25.000Z</time>
      </trkpt>
      <trkpt lat="43.67149" lon="3.85184">
        <ele>106.05958170526</ele>
        <time>2020-10-25T14:05:27.000Z</time>
      </trkpt>
      <trkpt lat="43.67147" lon="3.85181">
        <ele>106.4568015477</ele>
        <time>2020-10-25T14:05:29.000Z</time>
      </trkpt>
      <trkpt lat="43.67145" lon="3.85177">
        <ele>106.85402139013</ele>
        <time>2020-10-25T14:05:31.000Z</time>
      </trkpt>
      <trkpt lat="43.67145" lon="3.85173">
        <ele>107.25124123256</ele>
        <time>2020-10-25T14:05:33.000Z</time>
      </trkpt>
      <trkpt lat="43.67144" lon="3.85169">
        <ele>107.648461075</ele>
        <time>2020-10-25T14:05:35.000Z</time>
      </trkpt>
      <trkpt lat="43.67142" lon="3.85165">
        <ele>108.04632486962</ele>
        <time>2020-10-25T14:05:37.000Z</time>
      </trkpt>
      <trkpt lat="43.67141" lon="3.85161">
        <ele>108.44914421835</ele>
        <time>2020-10-25T14:05:39.000Z</time>
      </trkpt>
      <trkpt lat="43.67139" lon="3.85157">
        <ele>108.85196356708</ele>
        <time>2020-10-25T14:05:41.000Z</time>
      </trkpt>
      <trkpt lat="43.67138" lon="3.85153">
        <ele>109.25478291582</ele>
        <time>2020-10-25T14:05:43.000Z</time>
      </trkpt>
      <trkpt lat="43.67136" lon="3.85149">
        <ele>109.65760226455</ele>
        <time>2020-10-25T14:05:45.000Z</time>
      </trkpt>
      <trkpt lat="43.67135" lon="3.85144">
        <ele>110.02999936</ele>
        <time>2020-10-25T14:05:47.000Z</time>
      </trkpt>
      <trkpt lat="43.67133" lon="3.8514">
        <ele>110.22999936</ele>
        <time>2020-10-25T14:05:49.000Z</time>
      </trkpt>
      <trkpt lat="43.67133" lon="3.85138">
        <ele>110.32999936</ele>
        <time>2020-10-25T14:05:50.000Z</time>
      </trkpt>
      <trkpt lat="43.67131" lon="3.85134">
        <ele>110.52999936</ele>
        <time>2020-10-25T14:05:52.000Z</time>
      </trkpt>
      <trkpt lat="43.67129" lon="3.8513">
        <ele>110.72999936</ele>
        <time>2020-10-25T14:05:54.000Z</time>
      </trkpt>
      <trkpt lat="43.67127" lon="3.85126">
        <ele>110.92999936</ele>
        <time>2020-10-25T14:05:56.000Z</time>
      </trkpt>
      <trkpt lat="43.67126" lon="3.85123">
        <ele>111.12999936</ele>
        <time>2020-10-25T14:05:58.000Z</time>
      </trkpt>
      <trkpt lat="43.67125" lon="3.85119">
        <ele>111.32999936</ele>
        <time>2020-10-25T14:06:00.000Z</time>
      </trkpt>
      <trkpt lat="43.67122" lon="3.85117">
        <ele>111.52999936</ele>
        <time>2020-10-25T14:06:02.000Z</time>
      </trkpt>
      <trkpt lat="43.67121" lon="3.85114">
        <ele>111.72999936</ele>
        <time>2020-10-25T14:06:04.000Z</time>
      </trkpt>
      <trkpt lat="43.67121" lon="3.8511">
        <ele>111.92999936</ele>
        <time>2020-10-25T14:06:06.000Z</time>
      </trkpt>
      <trkpt lat="43.6712" lon="3.85107">
        <ele>112.12999936</ele>
        <time>2020-10-25T14:06:08.000Z</time>
      </trkpt>
      <trkpt lat="43.67118" lon="3.85104">
        <ele>112.32999936</ele>
        <time>2020-10-25T14:06:10.000Z</time>
      </trkpt>
      <trkpt lat="43.67116" lon="3.85103">
        <ele>112.52999936</ele>
        <time>2020-10-25T14:06:12.000Z</time>
      </trkpt>
      <trkpt lat="43.67114" lon="3.85101">
        <ele>112.72999936</ele>
        <time>2020-10-25T14:06:14.000Z</time>
      </trkpt>
      <trkpt lat="43.67115" lon="3.85097">
        <ele>112.92999936</ele>
        <time>2020-10-25T14:06:16.000Z</time>
      </trkpt>
      <trkpt lat="43.67113" lon="3.85095">
        <ele>113.25999872</ele>
        <time>2020-10-25T14:06:18.000Z</time>
      </trkpt>
      <trkpt lat="43.67111" lon="3.85092">
        <ele>113.65999872</ele>
        <time>2020-10-25T14:06:20.000Z</time>
      </trkpt>
      <trkpt lat="43.6711" lon="3.85089">
        <ele>114.05999872</ele>
        <time>2020-10-25T14:06:22.000Z</time>
      </trkpt>
      <trkpt lat="43.67108" lon="3.85086">
        <ele>114.45999872</ele>
        <time>2020-10-25T14:06:24.000Z</time>
      </trkpt>
      <trkpt lat="43.67107" lon="3.85083">
        <ele>114.85999872</ele>
        <time>2020-10-25T14:06:26.000Z</time>
      </trkpt>
      <trkpt lat="43.67106" lon="3.85079">
        <ele>115.38999808</ele>
        <time>2020-10-25T14:06:28.000Z</time>
      </trkpt>
      <trkpt lat="43.67105" lon="3.85077">
        <ele>115.98999808</ele>
        <time>2020-10-25T14:06:30.000Z</time>
      </trkpt>
      <trkpt lat="43.67102" lon="3.85075">
        <ele>116.58999808</ele>
        <time>2020-10-25T14:06:32.000Z</time>
      </trkpt>
      <trkpt lat="43.67101" lon="3.85073">
        <ele>117.18999808</ele>
        <time>2020-10-25T14:06:34.000Z</time>
      </trkpt>
      <trkpt lat="43.671" lon="3.85068">
        <ele>117.78999808</ele>
        <time>2020-10-25T14:06:36.000Z</time>
      </trkpt>
      <trkpt lat="43.67099" lon="3.85064">
        <ele>118.25999872</ele>
        <time>2020-10-25T14:06:38.000Z</time>
      </trkpt>
      <trkpt lat="43.67096" lon="3.85062">
        <ele>118.65999872</ele>
        <time>2020-10-25T14:06:40.000Z</time>
      </trkpt>
      <trkpt lat="43.67094" lon="3.85059">
        <ele>119.05999872</ele>
        <time>2020-10-25T14:06:42.000Z</time>
      </trkpt>
      <trkpt lat="43.67092" lon="3.85057">
        <ele>119.45999872</ele>
        <time>2020-10-25T14:06:44.000Z</time>
      </trkpt>
      <trkpt lat="43.6709" lon="3.85054">
        <ele>119.85999872</ele>
        <time>2020-10-25T14:06:46.000Z</time>
      </trkpt>
      <trkpt lat="43.67088" lon="3.85052">
        <ele>120.38999808</ele>
        <time>2020-10-25T14:06:48.000Z</time>
      </trkpt>
      <trkpt lat="43.67087" lon="3.85049">
        <ele>120.98999808</ele>
        <time>2020-10-25T14:06:50.000Z</time>
      </trkpt>
      <trkpt lat="43.67086" lon="3.85045">
        <ele>121.58999808</ele>
        <time>2020-10-25T14:06:52.000Z</time>
      </trkpt>
      <trkpt lat="43.67084" lon="3.85041">
        <ele>122.18999808</ele>
        <time>2020-10-25T14:06:54.000Z</time>
      </trkpt>
      <trkpt lat="43.67081" lon="3.85041">
        <ele>122.78999808</ele>
        <time>2020-10-25T14:06:56.000Z</time>
      </trkpt>
      <trkpt lat="43.67079" lon="3.8504">
        <ele>123.05825122066</ele>
        <time>2020-10-25T14:06:57.000Z</time>
      </trkpt>
      <trkpt lat="43.67078" lon="3.85036">
        <ele>123.44660097653</ele>
        <time>2020-10-25T14:06:59.000Z</time>
      </trkpt>
      <trkpt lat="43.67075" lon="3.85034">
        <ele>123.8349507324</ele>
        <time>2020-10-25T14:07:01.000Z</time>
      </trkpt>
      <trkpt lat="43.67072" lon="3.85032">
        <ele>124.22330048826</ele>
        <time>2020-10-25T14:07:03.000Z</time>
      </trkpt>
      <trkpt lat="43.67071" lon="3.85028">
        <ele>124.61165024413</ele>
        <time>2020-10-25T14:07:05.000Z</time>
      </trkpt>
      <trkpt lat="43.67068" lon="3.85026">
        <ele>125</ele>
        <time>2020-10-25T14:07:07.000Z</time>
      </trkpt>
      <trkpt lat="43.67066" lon="3.85025">
        <ele>125.20618543097</ele>
        <time>2020-10-25T14:07:08.000Z</time>
      </trkpt>
      <trkpt lat="43.67064" lon="3.85022">
        <ele>125.61855629291</ele>
        <time>2020-10-25T14:07:10.000Z</time>
      </trkpt>
      <trkpt lat="43.67063" lon="3.85018">
        <ele>126.03092715485</ele>
        <time>2020-10-25T14:07:12.000Z</time>
      </trkpt>
      <trkpt lat="43.67063" lon="3.85015">
        <ele>126.44329801679</ele>
        <time>2020-10-25T14:07:14.000Z</time>
      </trkpt>
      <trkpt lat="43.67061" lon="3.85014">
        <ele>126.85566887873</ele>
        <time>2020-10-25T14:07:16.000Z</time>
      </trkpt>
      <trkpt lat="43.67059" lon="3.85014">
        <ele>127.12999936</ele>
        <time>2020-10-25T14:07:18.000Z</time>
      </trkpt>
      <trkpt lat="43.67057" lon="3.85014">
        <ele>127.22999936</ele>
        <time>2020-10-25T14:07:19.000Z</time>
      </trkpt>
      <trkpt lat="43.67055" lon="3.85013">
        <ele>127.32999936</ele>
        <time>2020-10-25T14:07:20.000Z</time>
      </trkpt>
      <trkpt lat="43.67054" lon="3.8501">
        <ele>127.42999936</ele>
        <time>2020-10-25T14:07:21.000Z</time>
      </trkpt>
      <trkpt lat="43.67053" lon="3.85007">
        <ele>127.52999936</ele>
        <time>2020-10-25T14:07:22.000Z</time>
      </trkpt>
      <trkpt lat="43.67052" lon="3.85001">
        <ele>127.72999936</ele>
        <time>2020-10-25T14:07:24.000Z</time>
      </trkpt>
      <trkpt lat="43.6705" lon="3.84999">
        <ele>127.92999936</ele>
        <time>2020-10-25T14:07:26.000Z</time>
      </trkpt>
      <trkpt lat="43.67043" lon="3.8499">
        <ele>128</ele>
        <time>2020-10-25T14:07:33.000Z</time>
      </trkpt>
      <trkpt lat="43.6704" lon="3.84977">
        <ele>128.43536060836</ele>
        <time>2020-10-25T14:07:39.000Z</time>
      </trkpt>
      <trkpt lat="43.67034" lon="3.84965">
        <ele>129.95627315589</ele>
        <time>2020-10-25T14:07:47.000Z</time>
      </trkpt>
      <trkpt lat="43.67033" lon="3.84962">
        <ele>130</ele>
        <time>2020-10-25T14:07:49.000Z</time>
      </trkpt>
      <trkpt lat="43.67033" lon="3.84957">
        <ele>130</ele>
        <time>2020-10-25T14:07:51.000Z</time>
      </trkpt>
      <trkpt lat="43.67033" lon="3.84954">
        <ele>130</ele>
        <time>2020-10-25T14:07:52.000Z</time>
      </trkpt>
      <trkpt lat="43.67033" lon="3.84951">
        <ele>130</ele>
        <time>2020-10-25T14:07:53.000Z</time>
      </trkpt>
      <trkpt lat="43.67032" lon="3.84948">
        <ele>130</ele>
        <time>2020-10-25T14:07:54.000Z</time>
      </trkpt>
      <trkpt lat="43.67032" lon="3.84946">
        <ele>130</ele>
        <time>2020-10-25T14:07:55.000Z</time>
      </trkpt>
      <trkpt lat="43.67031" lon="3.84943">
        <ele>130</ele>
        <time>2020-10-25T14:07:56.000Z</time>
      </trkpt>
      <trkpt lat="43.6703" lon="3.84939">
        <ele>130.25440203798</ele>
        <time>2020-10-25T14:07:58.000Z</time>
      </trkpt>
      <trkpt lat="43.67028" lon="3.84936">
        <ele>130.64579171556</ele>
        <time>2020-10-25T14:08:00.000Z</time>
      </trkpt>
      <trkpt lat="43.67025" lon="3.84932">
        <ele>131.03718139315</ele>
        <time>2020-10-25T14:08:02.000Z</time>
      </trkpt>
      <trkpt lat="43.67024" lon="3.8493">
        <ele>131.23287623194</ele>
        <time>2020-10-25T14:08:03.000Z</time>
      </trkpt>
      <trkpt lat="43.67023" lon="3.84925">
        <ele>131.62426590952</ele>
        <time>2020-10-25T14:08:05.000Z</time>
      </trkpt>
      <trkpt lat="43.67022" lon="3.84921">
        <ele>132.00817995375</ele>
        <time>2020-10-25T14:08:07.000Z</time>
      </trkpt>
      <trkpt lat="43.67022" lon="3.84918">
        <ele>132.11042937559</ele>
        <time>2020-10-25T14:08:08.000Z</time>
      </trkpt>
      <trkpt lat="43.67021" lon="3.84915">
        <ele>132.21267879743</ele>
        <time>2020-10-25T14:08:09.000Z</time>
      </trkpt>
      <trkpt lat="43.67021" lon="3.84913">
        <ele>132.31492821927</ele>
        <time>2020-10-25T14:08:10.000Z</time>
      </trkpt>
      <trkpt lat="43.6702" lon="3.84908">
        <ele>132.51942706295</ele>
        <time>2020-10-25T14:08:12.000Z</time>
      </trkpt>
      <trkpt lat="43.67019" lon="3.84906">
        <ele>132.62167648479</ele>
        <time>2020-10-25T14:08:13.000Z</time>
      </trkpt>
      <trkpt lat="43.67019" lon="3.84903">
        <ele>132.72392590663</ele>
        <time>2020-10-25T14:08:14.000Z</time>
      </trkpt>
      <trkpt lat="43.67019" lon="3.84901">
        <ele>132.82617532847</ele>
        <time>2020-10-25T14:08:15.000Z</time>
      </trkpt>
      <trkpt lat="43.67019" lon="3.84898">
        <ele>132.92842475032</ele>
        <time>2020-10-25T14:08:16.000Z</time>
      </trkpt>
      <trkpt lat="43.67018" lon="3.84895">
        <ele>133.05999872</ele>
        <time>2020-10-25T14:08:17.000Z</time>
      </trkpt>
      <trkpt lat="43.67018" lon="3.84892">
        <ele>133.25999872</ele>
        <time>2020-10-25T14:08:18.000Z</time>
      </trkpt>
      <trkpt lat="43.67018" lon="3.8489">
        <ele>133.45999872</ele>
        <time>2020-10-25T14:08:19.000Z</time>
      </trkpt>
      <trkpt lat="43.67018" lon="3.84887">
        <ele>133.65999872</ele>
        <time>2020-10-25T14:08:20.000Z</time>
      </trkpt>
      <trkpt lat="43.67018" lon="3.84884">
        <ele>133.85999872</ele>
        <time>2020-10-25T14:08:21.000Z</time>
      </trkpt>
      <trkpt lat="43.67018" lon="3.84881">
        <ele>134.05999872</ele>
        <time>2020-10-25T14:08:22.000Z</time>
      </trkpt>
      <trkpt lat="43.67017" lon="3.84877">
        <ele>134.45999872</ele>
        <time>2020-10-25T14:08:24.000Z</time>
      </trkpt>
      <trkpt lat="43.67017" lon="3.84872">
        <ele>134.85999872</ele>
        <time>2020-10-25T14:08:26.000Z</time>
      </trkpt>
      <trkpt lat="43.67017" lon="3.84868">
        <ele>135.12871231918</ele>
        <time>2020-10-25T14:08:28.000Z</time>
      </trkpt>
      <trkpt lat="43.67017" lon="3.84864">
        <ele>135.32673224664</ele>
        <time>2020-10-25T14:08:30.000Z</time>
      </trkpt>
      <trkpt lat="43.67017" lon="3.84861">
        <ele>135.5247521741</ele>
        <time>2020-10-25T14:08:32.000Z</time>
      </trkpt>
      <trkpt lat="43.67017" lon="3.84858">
        <ele>135.72277210156</ele>
        <time>2020-10-25T14:08:34.000Z</time>
      </trkpt>
      <trkpt lat="43.67016" lon="3.84855">
        <ele>135.92079202902</ele>
        <time>2020-10-25T14:08:36.000Z</time>
      </trkpt>
      <trkpt lat="43.67016" lon="3.84852">
        <ele>136.12121204285</ele>
        <time>2020-10-25T14:08:38.000Z</time>
      </trkpt>
      <trkpt lat="43.67016" lon="3.84848">
        <ele>136.32323211427</ele>
        <time>2020-10-25T14:08:40.000Z</time>
      </trkpt>
      <trkpt lat="43.67016" lon="3.84844">
        <ele>136.5252521857</ele>
        <time>2020-10-25T14:08:42.000Z</time>
      </trkpt>
      <trkpt lat="43.67017" lon="3.8484">
        <ele>136.72727225712</ele>
        <time>2020-10-25T14:08:44.000Z</time>
      </trkpt>
      <trkpt lat="43.67017" lon="3.84836">
        <ele>136.92929232854</ele>
        <time>2020-10-25T14:08:46.000Z</time>
      </trkpt>
      <trkpt lat="43.67017" lon="3.84832">
        <ele>137.12999936</ele>
        <time>2020-10-25T14:08:48.000Z</time>
      </trkpt>
      <trkpt lat="43.67017" lon="3.84828">
        <ele>137.32999936</ele>
        <time>2020-10-25T14:08:50.000Z</time>
      </trkpt>
      <trkpt lat="43.67017" lon="3.84824">
        <ele>137.52999936</ele>
        <time>2020-10-25T14:08:52.000Z</time>
      </trkpt>
      <trkpt lat="43.67017" lon="3.84821">
        <ele>137.72999936</ele>
        <time>2020-10-25T14:08:54.000Z</time>
      </trkpt>
      <trkpt lat="43.67018" lon="3.84818">
        <ele>137.92999936</ele>
        <time>2020-10-25T14:08:56.000Z</time>
      </trkpt>
      <trkpt lat="43.67017" lon="3.84814">
        <ele>138</ele>
        <time>2020-10-25T14:08:58.000Z</time>
      </trkpt>
      <trkpt lat="43.67017" lon="3.84811">
        <ele>138</ele>
        <time>2020-10-25T14:09:00.000Z</time>
      </trkpt>
      <trkpt lat="43.67018" lon="3.84808">
        <ele>138</ele>
        <time>2020-10-25T14:09:02.000Z</time>
      </trkpt>
      <trkpt lat="43.67018" lon="3.84804">
        <ele>138</ele>
        <time>2020-10-25T14:09:04.000Z</time>
      </trkpt>
      <trkpt lat="43.67019" lon="3.848">
        <ele>138</ele>
        <time>2020-10-25T14:09:06.000Z</time>
      </trkpt>
      <trkpt lat="43.67019" lon="3.84797">
        <ele>137.97000064</ele>
        <time>2020-10-25T14:09:07.000Z</time>
      </trkpt>
      <trkpt lat="43.67019" lon="3.84794">
        <ele>137.87000064</ele>
        <time>2020-10-25T14:09:08.000Z</time>
      </trkpt>
      <trkpt lat="43.6702" lon="3.84791">
        <ele>137.77000064</ele>
        <time>2020-10-25T14:09:09.000Z</time>
      </trkpt>
      <trkpt lat="43.6702" lon="3.84788">
        <ele>137.67000064</ele>
        <time>2020-10-25T14:09:10.000Z</time>
      </trkpt>
      <trkpt lat="43.6702" lon="3.84784">
        <ele>137.57000064</ele>
        <time>2020-10-25T14:09:11.000Z</time>
      </trkpt>
      <trkpt lat="43.6702" lon="3.8478">
        <ele>137.47000064</ele>
        <time>2020-10-25T14:09:12.000Z</time>
      </trkpt>
      <trkpt lat="43.67021" lon="3.84775">
        <ele>137.37000064</ele>
        <time>2020-10-25T14:09:13.000Z</time>
      </trkpt>
      <trkpt lat="43.67021" lon="3.84771">
        <ele>137.27000064</ele>
        <time>2020-10-25T14:09:14.000Z</time>
      </trkpt>
      <trkpt lat="43.67021" lon="3.84766">
        <ele>137.17000064</ele>
        <time>2020-10-25T14:09:15.000Z</time>
      </trkpt>
      <trkpt lat="43.6702" lon="3.84762">
        <ele>137.07000064</ele>
        <time>2020-10-25T14:09:16.000Z</time>
      </trkpt>
      <trkpt lat="43.6702" lon="3.84757">
        <ele>137.02987987873</ele>
        <time>2020-10-25T14:09:17.000Z</time>
      </trkpt>
      <trkpt lat="43.67019" lon="3.84752">
        <ele>137.12948159934</ele>
        <time>2020-10-25T14:09:18.000Z</time>
      </trkpt>
      <trkpt lat="43.67018" lon="3.84748">
        <ele>137.22908331995</ele>
        <time>2020-10-25T14:09:19.000Z</time>
      </trkpt>
      <trkpt lat="43.67017" lon="3.84744">
        <ele>137.32868504056</ele>
        <time>2020-10-25T14:09:20.000Z</time>
      </trkpt>
      <trkpt lat="43.67016" lon="3.8474">
        <ele>137.42828676116</ele>
        <time>2020-10-25T14:09:21.000Z</time>
      </trkpt>
      <trkpt lat="43.67014" lon="3.84736">
        <ele>137.52788848177</ele>
        <time>2020-10-25T14:09:22.000Z</time>
      </trkpt>
      <trkpt lat="43.67013" lon="3.84732">
        <ele>137.62749020238</ele>
        <time>2020-10-25T14:09:23.000Z</time>
      </trkpt>
      <trkpt lat="43.67012" lon="3.84729">
        <ele>137.72709192299</ele>
        <time>2020-10-25T14:09:24.000Z</time>
      </trkpt>
      <trkpt lat="43.6701" lon="3.84725">
        <ele>137.82669364359</ele>
        <time>2020-10-25T14:09:25.000Z</time>
      </trkpt>
      <trkpt lat="43.67009" lon="3.84722">
        <ele>137.9262953642</ele>
        <time>2020-10-25T14:09:26.000Z</time>
      </trkpt>
      <trkpt lat="43.67007" lon="3.84718">
        <ele>138.02610502669</ele>
        <time>2020-10-25T14:09:27.000Z</time>
      </trkpt>
      <trkpt lat="43.67005" lon="3.84715">
        <ele>138.12650650409</ele>
        <time>2020-10-25T14:09:28.000Z</time>
      </trkpt>
      <trkpt lat="43.67003" lon="3.84712">
        <ele>138.22690798148</ele>
        <time>2020-10-25T14:09:29.000Z</time>
      </trkpt>
      <trkpt lat="43.67002" lon="3.8471">
        <ele>138.32730945888</ele>
        <time>2020-10-25T14:09:30.000Z</time>
      </trkpt>
      <trkpt lat="43.67" lon="3.84708">
        <ele>138.42771093627</ele>
        <time>2020-10-25T14:09:31.000Z</time>
      </trkpt>
      <trkpt lat="43.66998" lon="3.84705">
        <ele>138.52811241367</ele>
        <time>2020-10-25T14:09:32.000Z</time>
      </trkpt>
      <trkpt lat="43.66996" lon="3.84703">
        <ele>138.62851389107</ele>
        <time>2020-10-25T14:09:33.000Z</time>
      </trkpt>
      <trkpt lat="43.66993" lon="3.84701">
        <ele>138.72891536846</ele>
        <time>2020-10-25T14:09:34.000Z</time>
      </trkpt>
      <trkpt lat="43.66991" lon="3.84699">
        <ele>138.82931684586</ele>
        <time>2020-10-25T14:09:35.000Z</time>
      </trkpt>
      <trkpt lat="43.66989" lon="3.84697">
        <ele>138.92971832325</ele>
        <time>2020-10-25T14:09:36.000Z</time>
      </trkpt>
      <trkpt lat="43.66987" lon="3.84694">
        <ele>139.02909736948</ele>
        <time>2020-10-25T14:09:37.000Z</time>
      </trkpt>
      <trkpt lat="43.66985" lon="3.84692">
        <ele>139.12609067027</ele>
        <time>2020-10-25T14:09:38.000Z</time>
      </trkpt>
      <trkpt lat="43.66983" lon="3.84689">
        <ele>139.22308397106</ele>
        <time>2020-10-25T14:09:39.000Z</time>
      </trkpt>
      <trkpt lat="43.66981" lon="3.84687">
        <ele>139.32007727185</ele>
        <time>2020-10-25T14:09:40.000Z</time>
      </trkpt>
      <trkpt lat="43.66979" lon="3.84685">
        <ele>139.41707057264</ele>
        <time>2020-10-25T14:09:41.000Z</time>
      </trkpt>
      <trkpt lat="43.66976" lon="3.84684">
        <ele>139.51406387342</ele>
        <time>2020-10-25T14:09:42.000Z</time>
      </trkpt>
      <trkpt lat="43.66974" lon="3.84682">
        <ele>139.61105717421</ele>
        <time>2020-10-25T14:09:43.000Z</time>
      </trkpt>
      <trkpt lat="43.66972" lon="3.8468">
        <ele>139.708050475</ele>
        <time>2020-10-25T14:09:44.000Z</time>
      </trkpt>
      <trkpt lat="43.66969" lon="3.84679">
        <ele>139.80504377579</ele>
        <time>2020-10-25T14:09:45.000Z</time>
      </trkpt>
      <trkpt lat="43.66966" lon="3.84677">
        <ele>139.90203707658</ele>
        <time>2020-10-25T14:09:46.000Z</time>
      </trkpt>
      <trkpt lat="43.66964" lon="3.84675">
        <ele>139.99903037737</ele>
        <time>2020-10-25T14:09:47.000Z</time>
      </trkpt>
      <trkpt lat="43.66961" lon="3.84674">
        <ele>140.10216741168</ele>
        <time>2020-10-25T14:09:48.000Z</time>
      </trkpt>
      <trkpt lat="43.66959" lon="3.84673">
        <ele>140.20536648385</ele>
        <time>2020-10-25T14:09:49.000Z</time>
      </trkpt>
      <trkpt lat="43.66956" lon="3.84671">
        <ele>140.30856555601</ele>
        <time>2020-10-25T14:09:50.000Z</time>
      </trkpt>
      <trkpt lat="43.66954" lon="3.8467">
        <ele>140.41176462818</ele>
        <time>2020-10-25T14:09:51.000Z</time>
      </trkpt>
      <trkpt lat="43.66952" lon="3.84669">
        <ele>140.51496370035</ele>
        <time>2020-10-25T14:09:52.000Z</time>
      </trkpt>
      <trkpt lat="43.6695" lon="3.84668">
        <ele>140.61816277251</ele>
        <time>2020-10-25T14:09:53.000Z</time>
      </trkpt>
      <trkpt lat="43.66948" lon="3.84666">
        <ele>140.72136184468</ele>
        <time>2020-10-25T14:09:54.000Z</time>
      </trkpt>
      <trkpt lat="43.66946" lon="3.84664">
        <ele>140.82456091684</ele>
        <time>2020-10-25T14:09:55.000Z</time>
      </trkpt>
      <trkpt lat="43.66944" lon="3.84663">
        <ele>140.92775998901</ele>
        <time>2020-10-25T14:09:56.000Z</time>
      </trkpt>
      <trkpt lat="43.66941" lon="3.84661">
        <ele>141</ele>
        <time>2020-10-25T14:09:57.000Z</time>
      </trkpt>
      <trkpt lat="43.66939" lon="3.8466">
        <ele>141</ele>
        <time>2020-10-25T14:09:58.000Z</time>
      </trkpt>
      <trkpt lat="43.66936" lon="3.84659">
        <ele>141</ele>
        <time>2020-10-25T14:09:59.000Z</time>
      </trkpt>
      <trkpt lat="43.66934" lon="3.84657">
        <ele>141</ele>
        <time>2020-10-25T14:10:00.000Z</time>
      </trkpt>
      <trkpt lat="43.66931" lon="3.84656">
        <ele>141</ele>
        <time>2020-10-25T14:10:01.000Z</time>
      </trkpt>
      <trkpt lat="43.66928" lon="3.84653">
        <ele>141</ele>
        <time>2020-10-25T14:10:02.000Z</time>
      </trkpt>
      <trkpt lat="43.66926" lon="3.84651">
        <ele>141</ele>
        <time>2020-10-25T14:10:03.000Z</time>
      </trkpt>
      <trkpt lat="43.66925" lon="3.8465">
        <ele>141</ele>
        <time>2020-10-25T14:10:04.000Z</time>
      </trkpt>
      <trkpt lat="43.66923" lon="3.8465">
        <ele>141</ele>
        <time>2020-10-25T14:10:05.000Z</time>
      </trkpt>
      <trkpt lat="43.66919" lon="3.84649">
        <ele>141.00102742069</ele>
        <time>2020-10-25T14:10:07.000Z</time>
      </trkpt>
      <trkpt lat="43.66917" lon="3.84648">
        <ele>141.10380237741</ele>
        <time>2020-10-25T14:10:08.000Z</time>
      </trkpt>
      <trkpt lat="43.66915" lon="3.84648">
        <ele>141.20657733413</ele>
        <time>2020-10-25T14:10:09.000Z</time>
      </trkpt>
      <trkpt lat="43.66913" lon="3.84646">
        <ele>141.30935229085</ele>
        <time>2020-10-25T14:10:10.000Z</time>
      </trkpt>
      <trkpt lat="43.66912" lon="3.84645">
        <ele>141.41212724756</ele>
        <time>2020-10-25T14:10:11.000Z</time>
      </trkpt>
      <trkpt lat="43.6691" lon="3.84644">
        <ele>141.51490220428</ele>
        <time>2020-10-25T14:10:12.000Z</time>
      </trkpt>
      <trkpt lat="43.66908" lon="3.84643">
        <ele>141.617677161</ele>
        <time>2020-10-25T14:10:13.000Z</time>
      </trkpt>
      <trkpt lat="43.66906" lon="3.84641">
        <ele>141.82322707444</ele>
        <time>2020-10-25T14:10:15.000Z</time>
      </trkpt>
      <trkpt lat="43.66903" lon="3.8464">
        <ele>142.02797203691</ele>
        <time>2020-10-25T14:10:17.000Z</time>
      </trkpt>
      <trkpt lat="43.66901" lon="3.84638">
        <ele>142.12787216875</ele>
        <time>2020-10-25T14:10:18.000Z</time>
      </trkpt>
      <trkpt lat="43.66899" lon="3.84637">
        <ele>142.22777230059</ele>
        <time>2020-10-25T14:10:19.000Z</time>
      </trkpt>
      <trkpt lat="43.66896" lon="3.84636">
        <ele>142.32767243242</ele>
        <time>2020-10-25T14:10:20.000Z</time>
      </trkpt>
      <trkpt lat="43.66894" lon="3.84635">
        <ele>142.42757256426</ele>
        <time>2020-10-25T14:10:21.000Z</time>
      </trkpt>
      <trkpt lat="43.66892" lon="3.84634">
        <ele>142.5274726961</ele>
        <time>2020-10-25T14:10:22.000Z</time>
      </trkpt>
      <trkpt lat="43.6689" lon="3.84632">
        <ele>142.62737282793</ele>
        <time>2020-10-25T14:10:23.000Z</time>
      </trkpt>
      <trkpt lat="43.66889" lon="3.84631">
        <ele>142.72727295977</ele>
        <time>2020-10-25T14:10:24.000Z</time>
      </trkpt>
      <trkpt lat="43.66887" lon="3.8463">
        <ele>142.8271730916</ele>
        <time>2020-10-25T14:10:25.000Z</time>
      </trkpt>
      <trkpt lat="43.66885" lon="3.84628">
        <ele>142.92707322344</ele>
        <time>2020-10-25T14:10:26.000Z</time>
      </trkpt>
      <trkpt lat="43.66883" lon="3.84625">
        <ele>142.97291846138</ele>
        <time>2020-10-25T14:10:27.000Z</time>
      </trkpt>
      <trkpt lat="43.66882" lon="3.84623">
        <ele>142.87261765525</ele>
        <time>2020-10-25T14:10:28.000Z</time>
      </trkpt>
      <trkpt lat="43.6688" lon="3.84622">
        <ele>142.77231684912</ele>
        <time>2020-10-25T14:10:29.000Z</time>
      </trkpt>
      <trkpt lat="43.66878" lon="3.84619">
        <ele>142.57171523686</ele>
        <time>2020-10-25T14:10:31.000Z</time>
      </trkpt>
      <trkpt lat="43.66875" lon="3.84618">
        <ele>142.3711136246</ele>
        <time>2020-10-25T14:10:33.000Z</time>
      </trkpt>
      <trkpt lat="43.66874" lon="3.84621">
        <ele>142.17051201235</ele>
        <time>2020-10-25T14:10:35.000Z</time>
      </trkpt>
      <trkpt lat="43.66875" lon="3.84624">
        <ele>142.02941117416</ele>
        <time>2020-10-25T14:10:37.000Z</time>
      </trkpt>
      <trkpt lat="43.66878" lon="3.84625">
        <ele>142.2254898516</ele>
        <time>2020-10-25T14:10:39.000Z</time>
      </trkpt>
      <trkpt lat="43.66889" lon="3.84628">
        <ele>143.00991142764</ele>
        <time>2020-10-25T14:10:47.000Z</time>
      </trkpt>
      <trkpt lat="43.66898" lon="3.84634">
        <ele>143.40634316146</ele>
        <time>2020-10-25T14:10:51.000Z</time>
      </trkpt>
      <trkpt lat="43.66901" lon="3.84636">
        <ele>143.50545109491</ele>
        <time>2020-10-25T14:10:52.000Z</time>
      </trkpt>
      <trkpt lat="43.66903" lon="3.84638">
        <ele>143.60455902837</ele>
        <time>2020-10-25T14:10:53.000Z</time>
      </trkpt>
      <trkpt lat="43.66906" lon="3.84639">
        <ele>143.70366696182</ele>
        <time>2020-10-25T14:10:54.000Z</time>
      </trkpt>
      <trkpt lat="43.66908" lon="3.84641">
        <ele>143.80277489528</ele>
        <time>2020-10-25T14:10:55.000Z</time>
      </trkpt>
      <trkpt lat="43.6691" lon="3.84644">
        <ele>143.90188282873</ele>
        <time>2020-10-25T14:10:56.000Z</time>
      </trkpt>
      <trkpt lat="43.66913" lon="3.84647">
        <ele>143.99794092756</ele>
        <time>2020-10-25T14:10:57.000Z</time>
      </trkpt>
      <trkpt lat="43.66915" lon="3.8465">
        <ele>143.79196777196</ele>
        <time>2020-10-25T14:10:58.000Z</time>
      </trkpt>
      <trkpt lat="43.66918" lon="3.84654">
        <ele>143.58599461636</ele>
        <time>2020-10-25T14:10:59.000Z</time>
      </trkpt>
      <trkpt lat="43.66919" lon="3.84658">
        <ele>143.38002146075</ele>
        <time>2020-10-25T14:11:00.000Z</time>
      </trkpt>
      <trkpt lat="43.66919" lon="3.84662">
        <ele>143.17404830515</ele>
        <time>2020-10-25T14:11:01.000Z</time>
      </trkpt>
      <trkpt lat="43.66918" lon="3.84678">
        <ele>142.35015568275</ele>
        <time>2020-10-25T14:11:05.000Z</time>
      </trkpt>
      <trkpt lat="43.66919" lon="3.84681">
        <ele>142.14418252715</ele>
        <time>2020-10-25T14:11:06.000Z</time>
      </trkpt>
      <trkpt lat="43.66919" lon="3.84685">
        <ele>142</ele>
        <time>2020-10-25T14:11:07.000Z</time>
      </trkpt>
      <trkpt lat="43.66919" lon="3.84688">
        <ele>142</ele>
        <time>2020-10-25T14:11:08.000Z</time>
      </trkpt>
      <trkpt lat="43.6692" lon="3.84692">
        <ele>142</ele>
        <time>2020-10-25T14:11:09.000Z</time>
      </trkpt>
      <trkpt lat="43.66919" lon="3.84696">
        <ele>142</ele>
        <time>2020-10-25T14:11:10.000Z</time>
      </trkpt>
      <trkpt lat="43.66919" lon="3.847">
        <ele>142</ele>
        <time>2020-10-25T14:11:11.000Z</time>
      </trkpt>
      <trkpt lat="43.66919" lon="3.84704">
        <ele>142</ele>
        <time>2020-10-25T14:11:12.000Z</time>
      </trkpt>
      <trkpt lat="43.66918" lon="3.84708">
        <ele>142</ele>
        <time>2020-10-25T14:11:13.000Z</time>
      </trkpt>
      <trkpt lat="43.66918" lon="3.84712">
        <ele>142</ele>
        <time>2020-10-25T14:11:14.000Z</time>
      </trkpt>
      <trkpt lat="43.66918" lon="3.84716">
        <ele>142</ele>
        <time>2020-10-25T14:11:15.000Z</time>
      </trkpt>
      <trkpt lat="43.66918" lon="3.84719">
        <ele>142</ele>
        <time>2020-10-25T14:11:16.000Z</time>
      </trkpt>
      <trkpt lat="43.66919" lon="3.84722">
        <ele>142</ele>
        <time>2020-10-25T14:11:17.000Z</time>
      </trkpt>
      <trkpt lat="43.66918" lon="3.84726">
        <ele>142</ele>
        <time>2020-10-25T14:11:18.000Z</time>
      </trkpt>
      <trkpt lat="43.66918" lon="3.8474">
        <ele>142</ele>
        <time>2020-10-25T14:11:22.000Z</time>
      </trkpt>
      <trkpt lat="43.66918" lon="3.84744">
        <ele>142</ele>
        <time>2020-10-25T14:11:23.000Z</time>
      </trkpt>
      <trkpt lat="43.66918" lon="3.84748">
        <ele>142</ele>
        <time>2020-10-25T14:11:24.000Z</time>
      </trkpt>
      <trkpt lat="43.66918" lon="3.84753">
        <ele>142</ele>
        <time>2020-10-25T14:11:25.000Z</time>
      </trkpt>
      <trkpt lat="43.66917" lon="3.84757">
        <ele>142</ele>
        <time>2020-10-25T14:11:26.000Z</time>
      </trkpt>
      <trkpt lat="43.66916" lon="3.84762">
        <ele>142</ele>
        <time>2020-10-25T14:11:27.000Z</time>
      </trkpt>
      <trkpt lat="43.66916" lon="3.84766">
        <ele>142</ele>
        <time>2020-10-25T14:11:28.000Z</time>
      </trkpt>
      <trkpt lat="43.66916" lon="3.8477">
        <ele>142</ele>
        <time>2020-10-25T14:11:29.000Z</time>
      </trkpt>
      <trkpt lat="43.66916" lon="3.84774">
        <ele>142</ele>
        <time>2020-10-25T14:11:30.000Z</time>
      </trkpt>
      <trkpt lat="43.66915" lon="3.84778">
        <ele>142</ele>
        <time>2020-10-25T14:11:31.000Z</time>
      </trkpt>
      <trkpt lat="43.66915" lon="3.84782">
        <ele>142</ele>
        <time>2020-10-25T14:11:32.000Z</time>
      </trkpt>
      <trkpt lat="43.66915" lon="3.84788">
        <ele>142</ele>
        <time>2020-10-25T14:11:34.000Z</time>
      </trkpt>
      <trkpt lat="43.66915" lon="3.84791">
        <ele>142</ele>
        <time>2020-10-25T14:11:35.000Z</time>
      </trkpt>
      <trkpt lat="43.66915" lon="3.84794">
        <ele>142</ele>
        <time>2020-10-25T14:11:36.000Z</time>
      </trkpt>
      <trkpt lat="43.66915" lon="3.84797">
        <ele>142</ele>
        <time>2020-10-25T14:11:37.000Z</time>
      </trkpt>
      <trkpt lat="43.66914" lon="3.848">
        <ele>142</ele>
        <time>2020-10-25T14:11:38.000Z</time>
      </trkpt>
      <trkpt lat="43.66913" lon="3.84803">
        <ele>142</ele>
        <time>2020-10-25T14:11:39.000Z</time>
      </trkpt>
      <trkpt lat="43.66911" lon="3.84806">
        <ele>142</ele>
        <time>2020-10-25T14:11:40.000Z</time>
      </trkpt>
      <trkpt lat="43.66909" lon="3.84807">
        <ele>142</ele>
        <time>2020-10-25T14:11:41.000Z</time>
      </trkpt>
      <trkpt lat="43.66907" lon="3.84808">
        <ele>142</ele>
        <time>2020-10-25T14:11:42.000Z</time>
      </trkpt>
      <trkpt lat="43.66904" lon="3.8481">
        <ele>142</ele>
        <time>2020-10-25T14:11:43.000Z</time>
      </trkpt>
      <trkpt lat="43.66902" lon="3.84811">
        <ele>142</ele>
        <time>2020-10-25T14:11:44.000Z</time>
      </trkpt>
      <trkpt lat="43.669" lon="3.84811">
        <ele>142</ele>
        <time>2020-10-25T14:11:45.000Z</time>
      </trkpt>
      <trkpt lat="43.66897" lon="3.8481">
        <ele>142</ele>
        <time>2020-10-25T14:11:46.000Z</time>
      </trkpt>
      <trkpt lat="43.66896" lon="3.84807">
        <ele>141.97006049984</ele>
        <time>2020-10-25T14:11:47.000Z</time>
      </trkpt>
      <trkpt lat="43.66896" lon="3.84804">
        <ele>141.87026003689</ele>
        <time>2020-10-25T14:11:48.000Z</time>
      </trkpt>
      <trkpt lat="43.66898" lon="3.84802">
        <ele>141.77045957395</ele>
        <time>2020-10-25T14:11:49.000Z</time>
      </trkpt>
      <trkpt lat="43.669" lon="3.848">
        <ele>141.670659111</ele>
        <time>2020-10-25T14:11:50.000Z</time>
      </trkpt>
      <trkpt lat="43.66902" lon="3.84799">
        <ele>141.57085864805</ele>
        <time>2020-10-25T14:11:51.000Z</time>
      </trkpt>
      <trkpt lat="43.66904" lon="3.84797">
        <ele>141.47105818511</ele>
        <time>2020-10-25T14:11:52.000Z</time>
      </trkpt>
      <trkpt lat="43.66906" lon="3.84794">
        <ele>141.37125772216</ele>
        <time>2020-10-25T14:11:53.000Z</time>
      </trkpt>
      <trkpt lat="43.66908" lon="3.84791">
        <ele>141.27145725921</ele>
        <time>2020-10-25T14:11:54.000Z</time>
      </trkpt>
      <trkpt lat="43.66909" lon="3.84788">
        <ele>141.17165679627</ele>
        <time>2020-10-25T14:11:55.000Z</time>
      </trkpt>
      <trkpt lat="43.6691" lon="3.84785">
        <ele>141.07185633332</ele>
        <time>2020-10-25T14:11:56.000Z</time>
      </trkpt>
      <trkpt lat="43.6691" lon="3.84781">
        <ele>141.02805609423</ele>
        <time>2020-10-25T14:11:57.000Z</time>
      </trkpt>
      <trkpt lat="43.6691" lon="3.84777">
        <ele>141.12825643078</ele>
        <time>2020-10-25T14:11:58.000Z</time>
      </trkpt>
      <trkpt lat="43.66911" lon="3.84772">
        <ele>141.22845676732</ele>
        <time>2020-10-25T14:11:59.000Z</time>
      </trkpt>
      <trkpt lat="43.66911" lon="3.84767">
        <ele>141.32865710387</ele>
        <time>2020-10-25T14:12:00.000Z</time>
      </trkpt>
      <trkpt lat="43.66911" lon="3.84762">
        <ele>141.42885744041</ele>
        <time>2020-10-25T14:12:01.000Z</time>
      </trkpt>
      <trkpt lat="43.6691" lon="3.84757">
        <ele>141.52905777696</ele>
        <time>2020-10-25T14:12:02.000Z</time>
      </trkpt>
      <trkpt lat="43.6691" lon="3.84752">
        <ele>141.6292581135</ele>
        <time>2020-10-25T14:12:03.000Z</time>
      </trkpt>
      <trkpt lat="43.6691" lon="3.84749">
        <ele>141.72945845005</ele>
        <time>2020-10-25T14:12:04.000Z</time>
      </trkpt>
      <trkpt lat="43.6691" lon="3.84745">
        <ele>141.82965878659</ele>
        <time>2020-10-25T14:12:05.000Z</time>
      </trkpt>
      <trkpt lat="43.6691" lon="3.84741">
        <ele>141.92985912314</ele>
        <time>2020-10-25T14:12:06.000Z</time>
      </trkpt>
      <trkpt lat="43.66911" lon="3.84735">
        <ele>142</ele>
        <time>2020-10-25T14:12:07.000Z</time>
      </trkpt>
      <trkpt lat="43.66911" lon="3.84728">
        <ele>142</ele>
        <time>2020-10-25T14:12:08.000Z</time>
      </trkpt>
      <trkpt lat="43.66911" lon="3.84722">
        <ele>142</ele>
        <time>2020-10-25T14:12:09.000Z</time>
      </trkpt>
      <trkpt lat="43.66912" lon="3.84716">
        <ele>142</ele>
        <time>2020-10-25T14:12:10.000Z</time>
      </trkpt>
      <trkpt lat="43.66913" lon="3.8471">
        <ele>142</ele>
        <time>2020-10-25T14:12:11.000Z</time>
      </trkpt>
      <trkpt lat="43.66914" lon="3.84704">
        <ele>142</ele>
        <time>2020-10-25T14:12:12.000Z</time>
      </trkpt>
      <trkpt lat="43.66915" lon="3.84698">
        <ele>142</ele>
        <time>2020-10-25T14:12:13.000Z</time>
      </trkpt>
      <trkpt lat="43.66915" lon="3.84692">
        <ele>142</ele>
        <time>2020-10-25T14:12:14.000Z</time>
      </trkpt>
      <trkpt lat="43.66915" lon="3.84686">
        <ele>142</ele>
        <time>2020-10-25T14:12:15.000Z</time>
      </trkpt>
      <trkpt lat="43.66916" lon="3.84673">
        <ele>142</ele>
        <time>2020-10-25T14:12:17.000Z</time>
      </trkpt>
      <trkpt lat="43.66917" lon="3.84658">
        <ele>142</ele>
        <time>2020-10-25T14:12:19.000Z</time>
      </trkpt>
      <trkpt lat="43.66916" lon="3.84652">
        <ele>142</ele>
        <time>2020-10-25T14:12:20.000Z</time>
      </trkpt>
      <trkpt lat="43.66913" lon="3.84646">
        <ele>142</ele>
        <time>2020-10-25T14:12:21.000Z</time>
      </trkpt>
      <trkpt lat="43.66911" lon="3.84642">
        <ele>142</ele>
        <time>2020-10-25T14:12:22.000Z</time>
      </trkpt>
      <trkpt lat="43.66909" lon="3.84638">
        <ele>142</ele>
        <time>2020-10-25T14:12:23.000Z</time>
      </trkpt>
      <trkpt lat="43.66911" lon="3.84629">
        <ele>142</ele>
        <time>2020-10-25T14:12:25.000Z</time>
      </trkpt>
      <trkpt lat="43.66914" lon="3.84615">
        <ele>142.12999936</ele>
        <time>2020-10-25T14:12:28.000Z</time>
      </trkpt>
      <trkpt lat="43.66907" lon="3.84605">
        <ele>142.42999936</ele>
        <time>2020-10-25T14:12:31.000Z</time>
      </trkpt>
      <trkpt lat="43.669" lon="3.84596">
        <ele>142.82999936</ele>
        <time>2020-10-25T14:12:35.000Z</time>
      </trkpt>
      <trkpt lat="43.66903" lon="3.84594">
        <ele>142.92999936</ele>
        <time>2020-10-25T14:12:36.000Z</time>
      </trkpt>
      <trkpt lat="43.66906" lon="3.84592">
        <ele>143</ele>
        <time>2020-10-25T14:12:37.000Z</time>
      </trkpt>
      <trkpt lat="43.66908" lon="3.84589">
        <ele>143</ele>
        <time>2020-10-25T14:12:38.000Z</time>
      </trkpt>
      <trkpt lat="43.6691" lon="3.84578">
        <ele>143</ele>
        <time>2020-10-25T14:12:44.000Z</time>
      </trkpt>
      <trkpt lat="43.66908" lon="3.84573">
        <ele>143</ele>
        <time>2020-10-25T14:12:46.000Z</time>
      </trkpt>
      <trkpt lat="43.66906" lon="3.84571">
        <ele>142.97104305303</ele>
        <time>2020-10-25T14:12:47.000Z</time>
      </trkpt>
      <trkpt lat="43.66904" lon="3.84568">
        <ele>142.87451783724</ele>
        <time>2020-10-25T14:12:48.000Z</time>
      </trkpt>
      <trkpt lat="43.66902" lon="3.84566">
        <ele>142.77799262146</ele>
        <time>2020-10-25T14:12:49.000Z</time>
      </trkpt>
      <trkpt lat="43.669" lon="3.84563">
        <ele>142.68146740567</ele>
        <time>2020-10-25T14:12:50.000Z</time>
      </trkpt>
      <trkpt lat="43.66899" lon="3.8456">
        <ele>142.58494218989</ele>
        <time>2020-10-25T14:12:51.000Z</time>
      </trkpt>
      <trkpt lat="43.66898" lon="3.84557">
        <ele>142.48841697411</ele>
        <time>2020-10-25T14:12:52.000Z</time>
      </trkpt>
      <trkpt lat="43.66897" lon="3.84555">
        <ele>142.39189175832</ele>
        <time>2020-10-25T14:12:53.000Z</time>
      </trkpt>
      <trkpt lat="43.66896" lon="3.84551">
        <ele>142.19884132675</ele>
        <time>2020-10-25T14:12:55.000Z</time>
      </trkpt>
      <trkpt lat="43.66894" lon="3.8455">
        <ele>142.00579089519</ele>
        <time>2020-10-25T14:12:57.000Z</time>
      </trkpt>
      <trkpt lat="43.66891" lon="3.84549">
        <ele>142</ele>
        <time>2020-10-25T14:12:59.000Z</time>
      </trkpt>
      <trkpt lat="43.66889" lon="3.84548">
        <ele>142</ele>
        <time>2020-10-25T14:13:00.000Z</time>
      </trkpt>
      <trkpt lat="43.66887" lon="3.84546">
        <ele>142</ele>
        <time>2020-10-25T14:13:01.000Z</time>
      </trkpt>
      <trkpt lat="43.66886" lon="3.84545">
        <ele>142</ele>
        <time>2020-10-25T14:13:02.000Z</time>
      </trkpt>
      <trkpt lat="43.66884" lon="3.84543">
        <ele>142</ele>
        <time>2020-10-25T14:13:03.000Z</time>
      </trkpt>
      <trkpt lat="43.66881" lon="3.8454">
        <ele>142</ele>
        <time>2020-10-25T14:13:05.000Z</time>
      </trkpt>
      <trkpt lat="43.66881" lon="3.84539">
        <ele>142</ele>
        <time>2020-10-25T14:13:10.000Z</time>
      </trkpt>
      <trkpt lat="43.66885" lon="3.84535">
        <ele>142.99391545244</ele>
        <time>2020-10-25T14:13:17.000Z</time>
      </trkpt>
      <trkpt lat="43.6689" lon="3.8453">
        <ele>142.79107556419</ele>
        <time>2020-10-25T14:13:19.000Z</time>
      </trkpt>
      <trkpt lat="43.66894" lon="3.84526">
        <ele>142.58823567593</ele>
        <time>2020-10-25T14:13:21.000Z</time>
      </trkpt>
      <trkpt lat="43.66895" lon="3.84523">
        <ele>142.48681573181</ele>
        <time>2020-10-25T14:13:22.000Z</time>
      </trkpt>
      <trkpt lat="43.66896" lon="3.84519">
        <ele>142.38539578768</ele>
        <time>2020-10-25T14:13:23.000Z</time>
      </trkpt>
      <trkpt lat="43.669" lon="3.84501">
        <ele>142.0811359553</ele>
        <time>2020-10-25T14:13:26.000Z</time>
      </trkpt>
      <trkpt lat="43.66901" lon="3.84495">
        <ele>142</ele>
        <time>2020-10-25T14:13:27.000Z</time>
      </trkpt>
      <trkpt lat="43.66902" lon="3.84488">
        <ele>142</ele>
        <time>2020-10-25T14:13:28.000Z</time>
      </trkpt>
      <trkpt lat="43.66903" lon="3.84482">
        <ele>142</ele>
        <time>2020-10-25T14:13:29.000Z</time>
      </trkpt>
      <trkpt lat="43.66905" lon="3.84476">
        <ele>142</ele>
        <time>2020-10-25T14:13:30.000Z</time>
      </trkpt>
      <trkpt lat="43.66909" lon="3.84462">
        <ele>142</ele>
        <time>2020-10-25T14:13:33.000Z</time>
      </trkpt>
      <trkpt lat="43.66911" lon="3.84443">
        <ele>142</ele>
        <time>2020-10-25T14:13:36.000Z</time>
      </trkpt>
      <trkpt lat="43.66915" lon="3.84426">
        <ele>141.17525827612</ele>
        <time>2020-10-25T14:13:38.000Z</time>
      </trkpt>
      <trkpt lat="43.66922" lon="3.84403">
        <ele>139.52577482835</ele>
        <time>2020-10-25T14:13:40.000Z</time>
      </trkpt>
      <trkpt lat="43.66926" lon="3.84391">
        <ele>138.70103310447</ele>
        <time>2020-10-25T14:13:41.000Z</time>
      </trkpt>
      <trkpt lat="43.66929" lon="3.84379">
        <ele>137.87629138059</ele>
        <time>2020-10-25T14:13:42.000Z</time>
      </trkpt>
      <trkpt lat="43.66934" lon="3.84369">
        <ele>137.05154965671</ele>
        <time>2020-10-25T14:13:43.000Z</time>
      </trkpt>
      <trkpt lat="43.66938" lon="3.84359">
        <ele>136.22680793283</ele>
        <time>2020-10-25T14:13:44.000Z</time>
      </trkpt>
      <trkpt lat="43.66942" lon="3.84351">
        <ele>135.40206620895</ele>
        <time>2020-10-25T14:13:45.000Z</time>
      </trkpt>
      <trkpt lat="43.6695" lon="3.84337">
        <ele>133.85323200202</ele>
        <time>2020-10-25T14:13:47.000Z</time>
      </trkpt>
      <trkpt lat="43.66953" lon="3.84332">
        <ele>133.36399490505</ele>
        <time>2020-10-25T14:13:48.000Z</time>
      </trkpt>
      <trkpt lat="43.66956" lon="3.84327">
        <ele>132.87475780807</ele>
        <time>2020-10-25T14:13:49.000Z</time>
      </trkpt>
      <trkpt lat="43.66959" lon="3.84322">
        <ele>132.38552071109</ele>
        <time>2020-10-25T14:13:50.000Z</time>
      </trkpt>
      <trkpt lat="43.66962" lon="3.84318">
        <ele>131.89628361411</ele>
        <time>2020-10-25T14:13:51.000Z</time>
      </trkpt>
      <trkpt lat="43.66965" lon="3.84314">
        <ele>131.40704651713</ele>
        <time>2020-10-25T14:13:52.000Z</time>
      </trkpt>
      <trkpt lat="43.66967" lon="3.84311">
        <ele>130.91780942016</ele>
        <time>2020-10-25T14:13:53.000Z</time>
      </trkpt>
      <trkpt lat="43.66969" lon="3.84307">
        <ele>130.42857232318</ele>
        <time>2020-10-25T14:13:54.000Z</time>
      </trkpt>
      <trkpt lat="43.6697" lon="3.84304">
        <ele>129.9393352262</ele>
        <time>2020-10-25T14:13:55.000Z</time>
      </trkpt>
      <trkpt lat="43.66973" lon="3.84302">
        <ele>129.45009812922</ele>
        <time>2020-10-25T14:13:56.000Z</time>
      </trkpt>
      <trkpt lat="43.66977" lon="3.843">
        <ele>128.96734693878</ele>
        <time>2020-10-25T14:13:57.000Z</time>
      </trkpt>
      <trkpt lat="43.66981" lon="3.84299">
        <ele>128.55918367347</ele>
        <time>2020-10-25T14:13:58.000Z</time>
      </trkpt>
      <trkpt lat="43.66985" lon="3.84297">
        <ele>128.15102040816</ele>
        <time>2020-10-25T14:13:59.000Z</time>
      </trkpt>
      <trkpt lat="43.66988" lon="3.84296">
        <ele>127.74285714286</ele>
        <time>2020-10-25T14:14:00.000Z</time>
      </trkpt>
      <trkpt lat="43.66991" lon="3.84295">
        <ele>127.33469387755</ele>
        <time>2020-10-25T14:14:01.000Z</time>
      </trkpt>
      <trkpt lat="43.66994" lon="3.84295">
        <ele>126.92653061225</ele>
        <time>2020-10-25T14:14:02.000Z</time>
      </trkpt>
      <trkpt lat="43.66997" lon="3.84295">
        <ele>126.51836734694</ele>
        <time>2020-10-25T14:14:03.000Z</time>
      </trkpt>
      <trkpt lat="43.66999" lon="3.84293">
        <ele>125.70204081633</ele>
        <time>2020-10-25T14:14:05.000Z</time>
      </trkpt>
      <trkpt lat="43.67002" lon="3.84293">
        <ele>124.88777562307</ele>
        <time>2020-10-25T14:14:07.000Z</time>
      </trkpt>
      <trkpt lat="43.67005" lon="3.84294">
        <ele>124.48697427689</ele>
        <time>2020-10-25T14:14:08.000Z</time>
      </trkpt>
      <trkpt lat="43.67008" lon="3.84296">
        <ele>124.08617293071</ele>
        <time>2020-10-25T14:14:09.000Z</time>
      </trkpt>
      <trkpt lat="43.67011" lon="3.84297">
        <ele>123.68537158453</ele>
        <time>2020-10-25T14:14:10.000Z</time>
      </trkpt>
      <trkpt lat="43.67014" lon="3.84298">
        <ele>123.28457023835</ele>
        <time>2020-10-25T14:14:11.000Z</time>
      </trkpt>
      <trkpt lat="43.67017" lon="3.84299">
        <ele>122.88376889217</ele>
        <time>2020-10-25T14:14:12.000Z</time>
      </trkpt>
      <trkpt lat="43.6702" lon="3.843">
        <ele>122.48296754599</ele>
        <time>2020-10-25T14:14:13.000Z</time>
      </trkpt>
      <trkpt lat="43.67023" lon="3.84301">
        <ele>122.08216619981</ele>
        <time>2020-10-25T14:14:14.000Z</time>
      </trkpt>
      <trkpt lat="43.67027" lon="3.84302">
        <ele>121.68136485363</ele>
        <time>2020-10-25T14:14:15.000Z</time>
      </trkpt>
      <trkpt lat="43.6703" lon="3.84303">
        <ele>121.28056350745</ele>
        <time>2020-10-25T14:14:16.000Z</time>
      </trkpt>
      <trkpt lat="43.67033" lon="3.84304">
        <ele>120.97090263052</ele>
        <time>2020-10-25T14:14:17.000Z</time>
      </trkpt>
      <trkpt lat="43.67036" lon="3.84305">
        <ele>120.87390932973</ele>
        <time>2020-10-25T14:14:18.000Z</time>
      </trkpt>
      <trkpt lat="43.67039" lon="3.84305">
        <ele>120.77691602894</ele>
        <time>2020-10-25T14:14:19.000Z</time>
      </trkpt>
      <trkpt lat="43.67042" lon="3.84306">
        <ele>120.67992272815</ele>
        <time>2020-10-25T14:14:20.000Z</time>
      </trkpt>
      <trkpt lat="43.67045" lon="3.84307">
        <ele>120.58292942736</ele>
        <time>2020-10-25T14:14:21.000Z</time>
      </trkpt>
      <trkpt lat="43.67048" lon="3.84307">
        <ele>120.48593612657</ele>
        <time>2020-10-25T14:14:22.000Z</time>
      </trkpt>
      <trkpt lat="43.67051" lon="3.84308">
        <ele>120.38894282579</ele>
        <time>2020-10-25T14:14:23.000Z</time>
      </trkpt>
      <trkpt lat="43.67054" lon="3.84309">
        <ele>120.291949525</ele>
        <time>2020-10-25T14:14:24.000Z</time>
      </trkpt>
      <trkpt lat="43.67056" lon="3.84308">
        <ele>120.19495622421</ele>
        <time>2020-10-25T14:14:25.000Z</time>
      </trkpt>
      <trkpt lat="43.67059" lon="3.84308">
        <ele>120.09796292342</ele>
        <time>2020-10-25T14:14:26.000Z</time>
      </trkpt>
      <trkpt lat="43.6706" lon="3.8431">
        <ele>119.89783258832</ele>
        <time>2020-10-25T14:14:28.000Z</time>
      </trkpt>
      <trkpt lat="43.67062" lon="3.84311">
        <ele>119.69143444399</ele>
        <time>2020-10-25T14:14:30.000Z</time>
      </trkpt>
      <trkpt lat="43.67063" lon="3.84308">
        <ele>119.48503629965</ele>
        <time>2020-10-25T14:14:32.000Z</time>
      </trkpt>
      <trkpt lat="43.6706" lon="3.84308">
        <ele>119.27863815532</ele>
        <time>2020-10-25T14:14:34.000Z</time>
      </trkpt>
      <trkpt lat="43.67058" lon="3.84309">
        <ele>119.07224001099</ele>
        <time>2020-10-25T14:14:36.000Z</time>
      </trkpt>
      <trkpt lat="43.67056" lon="3.8431">
        <ele>119</ele>
        <time>2020-10-25T14:14:37.000Z</time>
      </trkpt>
      <trkpt lat="43.67053" lon="3.84311">
        <ele>119</ele>
        <time>2020-10-25T14:14:38.000Z</time>
      </trkpt>
      <trkpt lat="43.67051" lon="3.84309">
        <ele>119</ele>
        <time>2020-10-25T14:14:40.000Z</time>
      </trkpt>
      <trkpt lat="43.6705" lon="3.84306">
        <ele>119</ele>
        <time>2020-10-25T14:14:43.000Z</time>
      </trkpt>
      <trkpt lat="43.67052" lon="3.84306">
        <ele>119</ele>
        <time>2020-10-25T14:14:50.000Z</time>
      </trkpt>
      <trkpt lat="43.67053" lon="3.84307">
        <ele>118.99617468897</ele>
        <time>2020-10-25T14:14:56.000Z</time>
      </trkpt>
      <trkpt lat="43.67055" lon="3.84286">
        <ele>115.98377283</ele>
        <time>2020-10-25T14:15:51.000Z</time>
      </trkpt>
      <trkpt lat="43.67055" lon="3.84286">
        <ele>115.88235301754</ele>
        <time>2020-10-25T14:15:52.000Z</time>
      </trkpt>
      <trkpt lat="43.67056" lon="3.84283">
        <ele>115.27383414275</ele>
        <time>2020-10-25T14:15:58.000Z</time>
      </trkpt>
      <trkpt lat="43.67056" lon="3.84282">
        <ele>115</ele>
        <time>2020-10-25T14:16:02.000Z</time>
      </trkpt>
      <trkpt lat="43.67054" lon="3.84276">
        <ele>115</ele>
        <time>2020-10-25T14:16:05.000Z</time>
      </trkpt>
      <trkpt lat="43.67053" lon="3.84274">
        <ele>114.83157906083</ele>
        <time>2020-10-25T14:16:06.000Z</time>
      </trkpt>
      <trkpt lat="43.67052" lon="3.84271">
        <ele>114.62105288687</ele>
        <time>2020-10-25T14:16:07.000Z</time>
      </trkpt>
      <trkpt lat="43.67051" lon="3.84269">
        <ele>114.41052671291</ele>
        <time>2020-10-25T14:16:08.000Z</time>
      </trkpt>
      <trkpt lat="43.6705" lon="3.84266">
        <ele>114.20000053895</ele>
        <time>2020-10-25T14:16:09.000Z</time>
      </trkpt>
      <trkpt lat="43.67054" lon="3.84252">
        <ele>113.14736966914</ele>
        <time>2020-10-25T14:16:14.000Z</time>
      </trkpt>
      <trkpt lat="43.67056" lon="3.84239">
        <ele>112.67992272815</ele>
        <time>2020-10-25T14:16:18.000Z</time>
      </trkpt>
      <trkpt lat="43.67055" lon="3.84225">
        <ele>112.291949525</ele>
        <time>2020-10-25T14:16:22.000Z</time>
      </trkpt>
      <trkpt lat="43.67053" lon="3.84211">
        <ele>111.28482811823</ele>
        <time>2020-10-25T14:16:26.000Z</time>
      </trkpt>
      <trkpt lat="43.67052" lon="3.84195">
        <ele>109.11764760274</ele>
        <time>2020-10-25T14:16:29.000Z</time>
      </trkpt>
      <trkpt lat="43.67049" lon="3.84193">
        <ele>108.39525409758</ele>
        <time>2020-10-25T14:16:30.000Z</time>
      </trkpt>
      <trkpt lat="43.67052" lon="3.84194">
        <ele>105.50568007693</ele>
        <time>2020-10-25T14:16:34.000Z</time>
      </trkpt>
      <trkpt lat="43.67053" lon="3.84192">
        <ele>103.28000256</ele>
        <time>2020-10-25T14:16:39.000Z</time>
      </trkpt>
      <trkpt lat="43.67055" lon="3.84192">
        <ele>102.08000256</ele>
        <time>2020-10-25T14:16:42.000Z</time>
      </trkpt>
      <trkpt lat="43.67057" lon="3.84194">
        <ele>101.28000256</ele>
        <time>2020-10-25T14:16:44.000Z</time>
      </trkpt>
      <trkpt lat="43.67059" lon="3.84195">
        <ele>100</ele>
        <time>2020-10-25T14:16:50.000Z</time>
      </trkpt>
      <trkpt lat="43.67064" lon="3.84199">
        <ele>97.981559344262</ele>
        <time>2020-10-25T14:16:57.000Z</time>
      </trkpt>
      <trkpt lat="43.67067" lon="3.84201">
        <ele>97.366805245902</ele>
        <time>2020-10-25T14:16:59.000Z</time>
      </trkpt>
      <trkpt lat="43.67071" lon="3.84203">
        <ele>96.752051147541</ele>
        <time>2020-10-25T14:17:01.000Z</time>
      </trkpt>
      <trkpt lat="43.67073" lon="3.84204">
        <ele>96.444674098361</ele>
        <time>2020-10-25T14:17:02.000Z</time>
      </trkpt>
      <trkpt lat="43.67076" lon="3.84206">
        <ele>95.82992</ele>
        <time>2020-10-25T14:17:04.000Z</time>
      </trkpt>
      <trkpt lat="43.67078" lon="3.84207">
        <ele>95.52254295082</ele>
        <time>2020-10-25T14:17:05.000Z</time>
      </trkpt>
      <trkpt lat="43.67079" lon="3.84208">
        <ele>95.215165901639</ele>
        <time>2020-10-25T14:17:06.000Z</time>
      </trkpt>
      <trkpt lat="43.67082" lon="3.84208">
        <ele>94.94163541371</ele>
        <time>2020-10-25T14:17:07.000Z</time>
      </trkpt>
      <trkpt lat="43.67084" lon="3.84209">
        <ele>94.747082642282</ele>
        <time>2020-10-25T14:17:08.000Z</time>
      </trkpt>
      <trkpt lat="43.67086" lon="3.84209">
        <ele>94.357977099427</ele>
        <time>2020-10-25T14:17:10.000Z</time>
      </trkpt>
      <trkpt lat="43.67089" lon="3.84211">
        <ele>93.385213242289</ele>
        <time>2020-10-25T14:17:15.000Z</time>
      </trkpt>
      <trkpt lat="43.67091" lon="3.84213">
        <ele>92.997941731105</ele>
        <time>2020-10-25T14:17:17.000Z</time>
      </trkpt>
      <trkpt lat="43.67093" lon="3.84213">
        <ele>92.792180685194</ele>
        <time>2020-10-25T14:17:19.000Z</time>
      </trkpt>
      <trkpt lat="43.67094" lon="3.84211">
        <ele>92.17489754746</ele>
        <time>2020-10-25T14:17:25.000Z</time>
      </trkpt>
      <trkpt lat="43.67096" lon="3.84212">
        <ele>91.74000128</ele>
        <time>2020-10-25T14:17:28.000Z</time>
      </trkpt>
      <trkpt lat="43.67098" lon="3.84214">
        <ele>91.34000128</ele>
        <time>2020-10-25T14:17:30.000Z</time>
      </trkpt>
      <trkpt lat="43.67099" lon="3.84216">
        <ele>90.74000128</ele>
        <time>2020-10-25T14:17:33.000Z</time>
      </trkpt>
      <trkpt lat="43.67101" lon="3.84217">
        <ele>90.34000128</ele>
        <time>2020-10-25T14:17:35.000Z</time>
      </trkpt>
      <trkpt lat="43.67103" lon="3.84218">
        <ele>90</ele>
        <time>2020-10-25T14:17:38.000Z</time>
      </trkpt>
      <trkpt lat="43.67105" lon="3.8422">
        <ele>90</ele>
        <time>2020-10-25T14:17:43.000Z</time>
      </trkpt>
      <trkpt lat="43.67107" lon="3.84223">
        <ele>90</ele>
        <time>2020-10-25T14:17:45.000Z</time>
      </trkpt>
      <trkpt lat="43.67109" lon="3.84225">
        <ele>89.970675084896</ele>
        <time>2020-10-25T14:17:47.000Z</time>
      </trkpt>
      <trkpt lat="43.6711" lon="3.84227">
        <ele>89.775171480122</ele>
        <time>2020-10-25T14:17:49.000Z</time>
      </trkpt>
      <trkpt lat="43.67111" lon="3.84229">
        <ele>89.579667875348</ele>
        <time>2020-10-25T14:17:51.000Z</time>
      </trkpt>
      <trkpt lat="43.67114" lon="3.84233">
        <ele>89.384164270575</ele>
        <time>2020-10-25T14:17:53.000Z</time>
      </trkpt>
      <trkpt lat="43.67114" lon="3.84236">
        <ele>89.188660665801</ele>
        <time>2020-10-25T14:17:55.000Z</time>
      </trkpt>
      <trkpt lat="43.67114" lon="3.84239">
        <ele>88.992834889333</ele>
        <time>2020-10-25T14:17:57.000Z</time>
      </trkpt>
      <trkpt lat="43.67116" lon="3.8424">
        <ele>88.583418710254</ele>
        <time>2020-10-25T14:18:01.000Z</time>
      </trkpt>
      <trkpt lat="43.67118" lon="3.84241">
        <ele>88.481064665484</ele>
        <time>2020-10-25T14:18:02.000Z</time>
      </trkpt>
      <trkpt lat="43.67122" lon="3.84242">
        <ele>88.378710620714</ele>
        <time>2020-10-25T14:18:03.000Z</time>
      </trkpt>
      <trkpt lat="43.67124" lon="3.84241">
        <ele>88.276356575944</ele>
        <time>2020-10-25T14:18:04.000Z</time>
      </trkpt>
      <trkpt lat="43.67126" lon="3.84239">
        <ele>88.174002531175</ele>
        <time>2020-10-25T14:18:05.000Z</time>
      </trkpt>
      <trkpt lat="43.67127" lon="3.84234">
        <ele>88</ele>
        <time>2020-10-25T14:18:07.000Z</time>
      </trkpt>
      <trkpt lat="43.67126" lon="3.84231">
        <ele>88</ele>
        <time>2020-10-25T14:18:08.000Z</time>
      </trkpt>
      <trkpt lat="43.67125" lon="3.84228">
        <ele>88</ele>
        <time>2020-10-25T14:18:09.000Z</time>
      </trkpt>
      <trkpt lat="43.67125" lon="3.84226">
        <ele>88</ele>
        <time>2020-10-25T14:18:10.000Z</time>
      </trkpt>
      <trkpt lat="43.67123" lon="3.84223">
        <ele>88</ele>
        <time>2020-10-25T14:18:11.000Z</time>
      </trkpt>
      <trkpt lat="43.6712" lon="3.8422">
        <ele>88</ele>
        <time>2020-10-25T14:18:12.000Z</time>
      </trkpt>
      <trkpt lat="43.67117" lon="3.84218">
        <ele>88</ele>
        <time>2020-10-25T14:18:13.000Z</time>
      </trkpt>
      <trkpt lat="43.67115" lon="3.84216">
        <ele>88</ele>
        <time>2020-10-25T14:18:14.000Z</time>
      </trkpt>
      <trkpt lat="43.67113" lon="3.84215">
        <ele>88</ele>
        <time>2020-10-25T14:18:15.000Z</time>
      </trkpt>
      <trkpt lat="43.6711" lon="3.84213">
        <ele>88</ele>
        <time>2020-10-25T14:18:16.000Z</time>
      </trkpt>
      <trkpt lat="43.67108" lon="3.84212">
        <ele>88</ele>
        <time>2020-10-25T14:18:17.000Z</time>
      </trkpt>
      <trkpt lat="43.67105" lon="3.8421">
        <ele>87.89241190762</ele>
        <time>2020-10-25T14:18:18.000Z</time>
      </trkpt>
      <trkpt lat="43.67103" lon="3.84208">
        <ele>87.779161665536</ele>
        <time>2020-10-25T14:18:19.000Z</time>
      </trkpt>
      <trkpt lat="43.67101" lon="3.84206">
        <ele>87.665911423452</ele>
        <time>2020-10-25T14:18:20.000Z</time>
      </trkpt>
      <trkpt lat="43.671" lon="3.84205">
        <ele>87</ele>
        <time>2020-10-25T14:18:26.000Z</time>
      </trkpt>
      <trkpt lat="43.67102" lon="3.84208">
        <ele>88.997734181925</ele>
        <time>2020-10-25T14:21:49.000Z</time>
      </trkpt>
      <trkpt lat="43.67103" lon="3.84206">
        <ele>88.036435998621</ele>
        <time>2020-10-25T14:21:54.000Z</time>
      </trkpt>
      <trkpt lat="43.671" lon="3.84203">
        <ele>87</ele>
        <time>2020-10-25T14:21:59.000Z</time>
      </trkpt>
      <trkpt lat="43.671" lon="3.84203">
        <ele>87</ele>
        <time>2020-10-25T14:22:02.000Z</time>
      </trkpt>
      <trkpt lat="43.671" lon="3.84202">
        <ele>87</ele>
        <time>2020-10-25T14:22:06.000Z</time>
      </trkpt>
      <trkpt lat="43.67099" lon="3.84205">
        <ele>86.00151095442</ele>
        <time>2020-10-25T14:24:45.000Z</time>
      </trkpt>
      <trkpt lat="43.67099" lon="3.84204">
        <ele>86</ele>
        <time>2020-10-25T14:24:49.000Z</time>
      </trkpt>
      <trkpt lat="43.67102" lon="3.84205">
        <ele>86</ele>
        <time>2020-10-25T14:24:55.000Z</time>
      </trkpt>
      <trkpt lat="43.67101" lon="3.84205">
        <ele>86</ele>
        <time>2020-10-25T14:25:00.000Z</time>
      </trkpt>
      <trkpt lat="43.6709" lon="3.84201">
        <ele>85.001926399469</ele>
        <time>2020-10-25T14:26:49.000Z</time>
      </trkpt>
      <trkpt lat="43.67087" lon="3.84199">
        <ele>84.917720954976</ele>
        <time>2020-10-25T14:26:50.000Z</time>
      </trkpt>
      <trkpt lat="43.67084" lon="3.84197">
        <ele>84.812235865335</ele>
        <time>2020-10-25T14:26:51.000Z</time>
      </trkpt>
      <trkpt lat="43.67081" lon="3.84195">
        <ele>84.706750775695</ele>
        <time>2020-10-25T14:26:52.000Z</time>
      </trkpt>
      <trkpt lat="43.67079" lon="3.84193">
        <ele>84.601265686055</ele>
        <time>2020-10-25T14:26:53.000Z</time>
      </trkpt>
      <trkpt lat="43.67075" lon="3.84191">
        <ele>84.495780596414</ele>
        <time>2020-10-25T14:26:54.000Z</time>
      </trkpt>
      <trkpt lat="43.67071" lon="3.84189">
        <ele>84.390295506774</ele>
        <time>2020-10-25T14:26:55.000Z</time>
      </trkpt>
      <trkpt lat="43.67067" lon="3.84187">
        <ele>84.284810417134</ele>
        <time>2020-10-25T14:26:56.000Z</time>
      </trkpt>
      <trkpt lat="43.67063" lon="3.84185">
        <ele>84.179325327493</ele>
        <time>2020-10-25T14:26:57.000Z</time>
      </trkpt>
      <trkpt lat="43.67059" lon="3.84184">
        <ele>84.073840237853</ele>
        <time>2020-10-25T14:26:58.000Z</time>
      </trkpt>
      <trkpt lat="43.67056" lon="3.84182">
        <ele>83.970817706855</ele>
        <time>2020-10-25T14:26:59.000Z</time>
      </trkpt>
      <trkpt lat="43.67052" lon="3.8418">
        <ele>83.873541321141</ele>
        <time>2020-10-25T14:27:00.000Z</time>
      </trkpt>
      <trkpt lat="43.67047" lon="3.84178">
        <ele>83.776264935427</ele>
        <time>2020-10-25T14:27:01.000Z</time>
      </trkpt>
      <trkpt lat="43.67043" lon="3.84176">
        <ele>83.678988549713</ele>
        <time>2020-10-25T14:27:02.000Z</time>
      </trkpt>
      <trkpt lat="43.67039" lon="3.84174">
        <ele>83.581712164</ele>
        <time>2020-10-25T14:27:03.000Z</time>
      </trkpt>
      <trkpt lat="43.67034" lon="3.84172">
        <ele>83.484435778286</ele>
        <time>2020-10-25T14:27:04.000Z</time>
      </trkpt>
      <trkpt lat="43.67029" lon="3.8417">
        <ele>83.387159392572</ele>
        <time>2020-10-25T14:27:05.000Z</time>
      </trkpt>
      <trkpt lat="43.67023" lon="3.84168">
        <ele>83.289883006858</ele>
        <time>2020-10-25T14:27:06.000Z</time>
      </trkpt>
      <trkpt lat="43.67017" lon="3.84165">
        <ele>83.192606621144</ele>
        <time>2020-10-25T14:27:07.000Z</time>
      </trkpt>
      <trkpt lat="43.67011" lon="3.84162">
        <ele>83.095330235431</ele>
        <time>2020-10-25T14:27:08.000Z</time>
      </trkpt>
      <trkpt lat="43.67004" lon="3.8416">
        <ele>82.991766924422</ele>
        <time>2020-10-25T14:27:09.000Z</time>
      </trkpt>
      <trkpt lat="43.66996" lon="3.84156">
        <ele>82.580244832599</ele>
        <time>2020-10-25T14:27:10.000Z</time>
      </trkpt>
      <trkpt lat="43.66989" lon="3.84153">
        <ele>82.168722740777</ele>
        <time>2020-10-25T14:27:11.000Z</time>
      </trkpt>
      <trkpt lat="43.66981" lon="3.84149">
        <ele>81.757200648954</ele>
        <time>2020-10-25T14:27:12.000Z</time>
      </trkpt>
      <trkpt lat="43.66974" lon="3.84145">
        <ele>81.345678557131</ele>
        <time>2020-10-25T14:27:13.000Z</time>
      </trkpt>
      <trkpt lat="43.66967" lon="3.84142">
        <ele>80.934156465308</ele>
        <time>2020-10-25T14:27:14.000Z</time>
      </trkpt>
      <trkpt lat="43.66961" lon="3.84138">
        <ele>80.522634373486</ele>
        <time>2020-10-25T14:27:15.000Z</time>
      </trkpt>
      <trkpt lat="43.66956" lon="3.84133">
        <ele>80.111112281663</ele>
        <time>2020-10-25T14:27:16.000Z</time>
      </trkpt>
      <trkpt lat="43.66952" lon="3.84128">
        <ele>79.69959018984</ele>
        <time>2020-10-25T14:27:17.000Z</time>
      </trkpt>
      <trkpt lat="43.66951" lon="3.84123">
        <ele>79.288068098017</ele>
        <time>2020-10-25T14:27:18.000Z</time>
      </trkpt>
      <trkpt lat="43.66948" lon="3.84119">
        <ele>78.941350169791</ele>
        <time>2020-10-25T14:27:19.000Z</time>
      </trkpt>
      <trkpt lat="43.66945" lon="3.84115">
        <ele>78.745846565017</ele>
        <time>2020-10-25T14:27:20.000Z</time>
      </trkpt>
      <trkpt lat="43.66941" lon="3.84112">
        <ele>78.550342960244</ele>
        <time>2020-10-25T14:27:21.000Z</time>
      </trkpt>
      <trkpt lat="43.66937" lon="3.84109">
        <ele>78.35483935547</ele>
        <time>2020-10-25T14:27:22.000Z</time>
      </trkpt>
      <trkpt lat="43.66933" lon="3.84107">
        <ele>78.159335750696</ele>
        <time>2020-10-25T14:27:23.000Z</time>
      </trkpt>
      <trkpt lat="43.6693" lon="3.84106">
        <ele>77.963832145923</ele>
        <time>2020-10-25T14:27:24.000Z</time>
      </trkpt>
      <trkpt lat="43.66926" lon="3.84106">
        <ele>77.768328541149</ele>
        <time>2020-10-25T14:27:25.000Z</time>
      </trkpt>
      <trkpt lat="43.66923" lon="3.84107">
        <ele>77.572824936375</ele>
        <time>2020-10-25T14:27:26.000Z</time>
      </trkpt>
      <trkpt lat="43.6692" lon="3.84108">
        <ele>77.377321331602</ele>
        <time>2020-10-25T14:27:27.000Z</time>
      </trkpt>
      <trkpt lat="43.66917" lon="3.84109">
        <ele>77.181817726828</ele>
        <time>2020-10-25T14:27:28.000Z</time>
      </trkpt>
      <trkpt lat="43.66914" lon="3.8411">
        <ele>77</ele>
        <time>2020-10-25T14:27:29.000Z</time>
      </trkpt>
      <trkpt lat="43.66911" lon="3.8411">
        <ele>77</ele>
        <time>2020-10-25T14:27:30.000Z</time>
      </trkpt>
      <trkpt lat="43.66908" lon="3.84111">
        <ele>77</ele>
        <time>2020-10-25T14:27:31.000Z</time>
      </trkpt>
      <trkpt lat="43.66905" lon="3.84111">
        <ele>77</ele>
        <time>2020-10-25T14:27:32.000Z</time>
      </trkpt>
      <trkpt lat="43.66903" lon="3.84112">
        <ele>77</ele>
        <time>2020-10-25T14:27:33.000Z</time>
      </trkpt>
      <trkpt lat="43.669" lon="3.84112">
        <ele>77</ele>
        <time>2020-10-25T14:27:34.000Z</time>
      </trkpt>
      <trkpt lat="43.66897" lon="3.84113">
        <ele>77</ele>
        <time>2020-10-25T14:27:35.000Z</time>
      </trkpt>
      <trkpt lat="43.66895" lon="3.84112">
        <ele>77</ele>
        <time>2020-10-25T14:27:36.000Z</time>
      </trkpt>
      <trkpt lat="43.66893" lon="3.8411">
        <ele>77</ele>
        <time>2020-10-25T14:27:37.000Z</time>
      </trkpt>
      <trkpt lat="43.66891" lon="3.84108">
        <ele>77</ele>
        <time>2020-10-25T14:27:38.000Z</time>
      </trkpt>
      <trkpt lat="43.6689" lon="3.84106">
        <ele>77</ele>
        <time>2020-10-25T14:27:40.000Z</time>
      </trkpt>
      <trkpt lat="43.66888" lon="3.84104">
        <ele>77</ele>
        <time>2020-10-25T14:27:42.000Z</time>
      </trkpt>
      <trkpt lat="43.66886" lon="3.84102">
        <ele>77</ele>
        <time>2020-10-25T14:27:44.000Z</time>
      </trkpt>
      <trkpt lat="43.66883" lon="3.84099">
        <ele>77</ele>
        <time>2020-10-25T14:27:46.000Z</time>
      </trkpt>
      <trkpt lat="43.6688" lon="3.84097">
        <ele>77</ele>
        <time>2020-10-25T14:27:48.000Z</time>
      </trkpt>
      <trkpt lat="43.66878" lon="3.84096">
        <ele>77.127450512879</ele>
        <time>2020-10-25T14:27:50.000Z</time>
      </trkpt>
      <trkpt lat="43.66877" lon="3.84094">
        <ele>77.225489851595</ele>
        <time>2020-10-25T14:27:51.000Z</time>
      </trkpt>
      <trkpt lat="43.66874" lon="3.84093">
        <ele>77.421568529027</ele>
        <time>2020-10-25T14:27:53.000Z</time>
      </trkpt>
      <trkpt lat="43.66872" lon="3.84091">
        <ele>77.617647206459</ele>
        <time>2020-10-25T14:27:55.000Z</time>
      </trkpt>
      <trkpt lat="43.66869" lon="3.8409">
        <ele>77.813725883891</ele>
        <time>2020-10-25T14:27:57.000Z</time>
      </trkpt>
      <trkpt lat="43.66867" lon="3.84089">
        <ele>77.911765222607</ele>
        <time>2020-10-25T14:27:58.000Z</time>
      </trkpt>
      <trkpt lat="43.66865" lon="3.84088">
        <ele>78</ele>
        <time>2020-10-25T14:27:59.000Z</time>
      </trkpt>
      <trkpt lat="43.66861" lon="3.84086">
        <ele>78</ele>
        <time>2020-10-25T14:28:01.000Z</time>
      </trkpt>
      <trkpt lat="43.66858" lon="3.84086">
        <ele>78</ele>
        <time>2020-10-25T14:28:02.000Z</time>
      </trkpt>
      <trkpt lat="43.66856" lon="3.84085">
        <ele>78</ele>
        <time>2020-10-25T14:28:03.000Z</time>
      </trkpt>
      <trkpt lat="43.66853" lon="3.84085">
        <ele>78</ele>
        <time>2020-10-25T14:28:04.000Z</time>
      </trkpt>
      <trkpt lat="43.66851" lon="3.84085">
        <ele>78</ele>
        <time>2020-10-25T14:28:05.000Z</time>
      </trkpt>
      <trkpt lat="43.66849" lon="3.84085">
        <ele>78</ele>
        <time>2020-10-25T14:28:06.000Z</time>
      </trkpt>
      <trkpt lat="43.66847" lon="3.84084">
        <ele>78</ele>
        <time>2020-10-25T14:28:07.000Z</time>
      </trkpt>
      <trkpt lat="43.66844" lon="3.84084">
        <ele>78</ele>
        <time>2020-10-25T14:28:08.000Z</time>
      </trkpt>
      <trkpt lat="43.66841" lon="3.84083">
        <ele>77.970817706855</ele>
        <time>2020-10-25T14:28:09.000Z</time>
      </trkpt>
      <trkpt lat="43.66839" lon="3.84082">
        <ele>77.873541321141</ele>
        <time>2020-10-25T14:28:10.000Z</time>
      </trkpt>
      <trkpt lat="43.66837" lon="3.8408">
        <ele>77.776264935427</ele>
        <time>2020-10-25T14:28:11.000Z</time>
      </trkpt>
      <trkpt lat="43.66834" lon="3.84079">
        <ele>77.581712164</ele>
        <time>2020-10-25T14:28:13.000Z</time>
      </trkpt>
      <trkpt lat="43.66832" lon="3.84079">
        <ele>77.484435778286</ele>
        <time>2020-10-25T14:28:14.000Z</time>
      </trkpt>
      <trkpt lat="43.6683" lon="3.8408">
        <ele>77.387159392572</ele>
        <time>2020-10-25T14:28:15.000Z</time>
      </trkpt>
      <trkpt lat="43.66827" lon="3.84081">
        <ele>77.289883006858</ele>
        <time>2020-10-25T14:28:16.000Z</time>
      </trkpt>
      <trkpt lat="43.66824" lon="3.84082">
        <ele>77.192606621144</ele>
        <time>2020-10-25T14:28:17.000Z</time>
      </trkpt>
      <trkpt lat="43.66822" lon="3.84082">
        <ele>77.095330235431</ele>
        <time>2020-10-25T14:28:18.000Z</time>
      </trkpt>
      <trkpt lat="43.66818" lon="3.84083">
        <ele>77</ele>
        <time>2020-10-25T14:28:19.000Z</time>
      </trkpt>
      <trkpt lat="43.66815" lon="3.84084">
        <ele>77</ele>
        <time>2020-10-25T14:28:20.000Z</time>
      </trkpt>
      <trkpt lat="43.66811" lon="3.84085">
        <ele>77</ele>
        <time>2020-10-25T14:28:21.000Z</time>
      </trkpt>
      <trkpt lat="43.66807" lon="3.84086">
        <ele>77</ele>
        <time>2020-10-25T14:28:22.000Z</time>
      </trkpt>
      <trkpt lat="43.66804" lon="3.84088">
        <ele>77</ele>
        <time>2020-10-25T14:28:23.000Z</time>
      </trkpt>
      <trkpt lat="43.668" lon="3.84089">
        <ele>77</ele>
        <time>2020-10-25T14:28:24.000Z</time>
      </trkpt>
      <trkpt lat="43.66797" lon="3.8409">
        <ele>77</ele>
        <time>2020-10-25T14:28:25.000Z</time>
      </trkpt>
      <trkpt lat="43.66794" lon="3.84091">
        <ele>77</ele>
        <time>2020-10-25T14:28:26.000Z</time>
      </trkpt>
      <trkpt lat="43.66791" lon="3.84092">
        <ele>77</ele>
        <time>2020-10-25T14:28:27.000Z</time>
      </trkpt>
      <trkpt lat="43.66787" lon="3.84093">
        <ele>77</ele>
        <time>2020-10-25T14:28:28.000Z</time>
      </trkpt>
      <trkpt lat="43.66785" lon="3.84094">
        <ele>77</ele>
        <time>2020-10-25T14:28:29.000Z</time>
      </trkpt>
      <trkpt lat="43.66782" lon="3.84095">
        <ele>77</ele>
        <time>2020-10-25T14:28:30.000Z</time>
      </trkpt>
      <trkpt lat="43.6678" lon="3.84096">
        <ele>77</ele>
        <time>2020-10-25T14:28:31.000Z</time>
      </trkpt>
      <trkpt lat="43.66777" lon="3.84097">
        <ele>77</ele>
        <time>2020-10-25T14:28:32.000Z</time>
      </trkpt>
      <trkpt lat="43.66772" lon="3.84099">
        <ele>77</ele>
        <time>2020-10-25T14:28:33.000Z</time>
      </trkpt>
      <trkpt lat="43.66768" lon="3.84101">
        <ele>77</ele>
        <time>2020-10-25T14:28:34.000Z</time>
      </trkpt>
      <trkpt lat="43.66764" lon="3.84103">
        <ele>77</ele>
        <time>2020-10-25T14:28:35.000Z</time>
      </trkpt>
      <trkpt lat="43.6676" lon="3.84105">
        <ele>77</ele>
        <time>2020-10-25T14:28:36.000Z</time>
      </trkpt>
      <trkpt lat="43.66757" lon="3.84107">
        <ele>77</ele>
        <time>2020-10-25T14:28:37.000Z</time>
      </trkpt>
      <trkpt lat="43.66754" lon="3.84109">
        <ele>77</ele>
        <time>2020-10-25T14:28:38.000Z</time>
      </trkpt>
      <trkpt lat="43.66751" lon="3.8411">
        <ele>77</ele>
        <time>2020-10-25T14:28:39.000Z</time>
      </trkpt>
      <trkpt lat="43.66748" lon="3.84112">
        <ele>77</ele>
        <time>2020-10-25T14:28:40.000Z</time>
      </trkpt>
      <trkpt lat="43.66745" lon="3.84113">
        <ele>77</ele>
        <time>2020-10-25T14:28:41.000Z</time>
      </trkpt>
      <trkpt lat="43.66741" lon="3.84115">
        <ele>77</ele>
        <time>2020-10-25T14:28:42.000Z</time>
      </trkpt>
      <trkpt lat="43.66738" lon="3.84116">
        <ele>77</ele>
        <time>2020-10-25T14:28:43.000Z</time>
      </trkpt>
      <trkpt lat="43.66734" lon="3.84117">
        <ele>77</ele>
        <time>2020-10-25T14:28:44.000Z</time>
      </trkpt>
      <trkpt lat="43.66731" lon="3.84118">
        <ele>77</ele>
        <time>2020-10-25T14:28:45.000Z</time>
      </trkpt>
      <trkpt lat="43.66727" lon="3.84119">
        <ele>77</ele>
        <time>2020-10-25T14:28:46.000Z</time>
      </trkpt>
      <trkpt lat="43.66723" lon="3.8412">
        <ele>77</ele>
        <time>2020-10-25T14:28:47.000Z</time>
      </trkpt>
      <trkpt lat="43.6672" lon="3.84121">
        <ele>77</ele>
        <time>2020-10-25T14:28:48.000Z</time>
      </trkpt>
      <trkpt lat="43.66717" lon="3.84122">
        <ele>77</ele>
        <time>2020-10-25T14:28:49.000Z</time>
      </trkpt>
      <trkpt lat="43.66714" lon="3.84123">
        <ele>77</ele>
        <time>2020-10-25T14:28:50.000Z</time>
      </trkpt>
      <trkpt lat="43.66712" lon="3.84124">
        <ele>77</ele>
        <time>2020-10-25T14:28:51.000Z</time>
      </trkpt>
      <trkpt lat="43.66707" lon="3.84124">
        <ele>77</ele>
        <time>2020-10-25T14:28:52.000Z</time>
      </trkpt>
      <trkpt lat="43.66701" lon="3.84125">
        <ele>77</ele>
        <time>2020-10-25T14:28:53.000Z</time>
      </trkpt>
      <trkpt lat="43.66696" lon="3.84126">
        <ele>77</ele>
        <time>2020-10-25T14:28:54.000Z</time>
      </trkpt>
      <trkpt lat="43.66692" lon="3.84126">
        <ele>77</ele>
        <time>2020-10-25T14:28:55.000Z</time>
      </trkpt>
      <trkpt lat="43.66686" lon="3.84126">
        <ele>77</ele>
        <time>2020-10-25T14:28:56.000Z</time>
      </trkpt>
      <trkpt lat="43.6668" lon="3.84125">
        <ele>77</ele>
        <time>2020-10-25T14:28:57.000Z</time>
      </trkpt>
      <trkpt lat="43.66674" lon="3.84124">
        <ele>77</ele>
        <time>2020-10-25T14:28:58.000Z</time>
      </trkpt>
      <trkpt lat="43.66669" lon="3.84124">
        <ele>76.961654260616</ele>
        <time>2020-10-25T14:28:59.000Z</time>
      </trkpt>
      <trkpt lat="43.66664" lon="3.84122">
        <ele>76.75983797866</ele>
        <time>2020-10-25T14:29:00.000Z</time>
      </trkpt>
      <trkpt lat="43.6666" lon="3.84122">
        <ele>76.558021696703</ele>
        <time>2020-10-25T14:29:01.000Z</time>
      </trkpt>
      <trkpt lat="43.66656" lon="3.84123">
        <ele>76.356205414747</ele>
        <time>2020-10-25T14:29:02.000Z</time>
      </trkpt>
      <trkpt lat="43.66652" lon="3.84124">
        <ele>76.154389132791</ele>
        <time>2020-10-25T14:29:03.000Z</time>
      </trkpt>
      <trkpt lat="43.66649" lon="3.84124">
        <ele>75.952572850834</ele>
        <time>2020-10-25T14:29:04.000Z</time>
      </trkpt>
      <trkpt lat="43.66645" lon="3.84123">
        <ele>75.750756568878</ele>
        <time>2020-10-25T14:29:05.000Z</time>
      </trkpt>
      <trkpt lat="43.66642" lon="3.84121">
        <ele>75.548940286921</ele>
        <time>2020-10-25T14:29:06.000Z</time>
      </trkpt>
      <trkpt lat="43.6664" lon="3.8412">
        <ele>75.347124004965</ele>
        <time>2020-10-25T14:29:07.000Z</time>
      </trkpt>
      <trkpt lat="43.66638" lon="3.84119">
        <ele>75.145307723009</ele>
        <time>2020-10-25T14:29:08.000Z</time>
      </trkpt>
      <trkpt lat="43.66636" lon="3.84118">
        <ele>74.943887811535</ele>
        <time>2020-10-25T14:29:09.000Z</time>
      </trkpt>
      <trkpt lat="43.66634" lon="3.84116">
        <ele>74.743487138445</ele>
        <time>2020-10-25T14:29:10.000Z</time>
      </trkpt>
      <trkpt lat="43.66631" lon="3.84114">
        <ele>74.543086465355</ele>
        <time>2020-10-25T14:29:11.000Z</time>
      </trkpt>
      <trkpt lat="43.66629" lon="3.84113">
        <ele>74.342685792266</ele>
        <time>2020-10-25T14:29:12.000Z</time>
      </trkpt>
      <trkpt lat="43.66626" lon="3.84111">
        <ele>74.142285119176</ele>
        <time>2020-10-25T14:29:13.000Z</time>
      </trkpt>
      <trkpt lat="43.66624" lon="3.8411">
        <ele>73.941884446086</ele>
        <time>2020-10-25T14:29:14.000Z</time>
      </trkpt>
      <trkpt lat="43.66621" lon="3.84109">
        <ele>73.741483772996</ele>
        <time>2020-10-25T14:29:15.000Z</time>
      </trkpt>
      <trkpt lat="43.66619" lon="3.84108">
        <ele>73.541083099907</ele>
        <time>2020-10-25T14:29:16.000Z</time>
      </trkpt>
      <trkpt lat="43.66616" lon="3.84107">
        <ele>73.340682426817</ele>
        <time>2020-10-25T14:29:17.000Z</time>
      </trkpt>
      <trkpt lat="43.66613" lon="3.84106">
        <ele>73.140281753727</ele>
        <time>2020-10-25T14:29:18.000Z</time>
      </trkpt>
      <trkpt lat="43.6661" lon="3.84106">
        <ele>72.942749312977</ele>
        <time>2020-10-25T14:29:19.000Z</time>
      </trkpt>
      <trkpt lat="43.66607" lon="3.84107">
        <ele>72.751909618321</ele>
        <time>2020-10-25T14:29:20.000Z</time>
      </trkpt>
      <trkpt lat="43.66603" lon="3.84107">
        <ele>72.561069923664</ele>
        <time>2020-10-25T14:29:21.000Z</time>
      </trkpt>
      <trkpt lat="43.666" lon="3.84107">
        <ele>72.370230229008</ele>
        <time>2020-10-25T14:29:22.000Z</time>
      </trkpt>
      <trkpt lat="43.66596" lon="3.84105">
        <ele>72.179390534351</ele>
        <time>2020-10-25T14:29:23.000Z</time>
      </trkpt>
      <trkpt lat="43.66593" lon="3.84102">
        <ele>71.988550839695</ele>
        <time>2020-10-25T14:29:24.000Z</time>
      </trkpt>
      <trkpt lat="43.66589" lon="3.84101">
        <ele>71.797711145038</ele>
        <time>2020-10-25T14:29:25.000Z</time>
      </trkpt>
      <trkpt lat="43.66586" lon="3.841">
        <ele>71.606871450382</ele>
        <time>2020-10-25T14:29:26.000Z</time>
      </trkpt>
      <trkpt lat="43.66582" lon="3.84098">
        <ele>71.416031755725</ele>
        <time>2020-10-25T14:29:27.000Z</time>
      </trkpt>
      <trkpt lat="43.66579" lon="3.84096">
        <ele>71.225192061069</ele>
        <time>2020-10-25T14:29:28.000Z</time>
      </trkpt>
      <trkpt lat="43.66576" lon="3.84094">
        <ele>71.034352366412</ele>
        <time>2020-10-25T14:29:29.000Z</time>
      </trkpt>
      <trkpt lat="43.66573" lon="3.84093">
        <ele>71</ele>
        <time>2020-10-25T14:29:30.000Z</time>
      </trkpt>
      <trkpt lat="43.6657" lon="3.84092">
        <ele>71</ele>
        <time>2020-10-25T14:29:31.000Z</time>
      </trkpt>
      <trkpt lat="43.66567" lon="3.84091">
        <ele>71</ele>
        <time>2020-10-25T14:29:32.000Z</time>
      </trkpt>
      <trkpt lat="43.66564" lon="3.8409">
        <ele>71</ele>
        <time>2020-10-25T14:29:33.000Z</time>
      </trkpt>
      <trkpt lat="43.66561" lon="3.84089">
        <ele>71</ele>
        <time>2020-10-25T14:29:34.000Z</time>
      </trkpt>
      <trkpt lat="43.66559" lon="3.84088">
        <ele>71</ele>
        <time>2020-10-25T14:29:35.000Z</time>
      </trkpt>
      <trkpt lat="43.66556" lon="3.84087">
        <ele>71</ele>
        <time>2020-10-25T14:29:36.000Z</time>
      </trkpt>
      <trkpt lat="43.66555" lon="3.84087">
        <ele>71</ele>
        <time>2020-10-25T14:29:37.000Z</time>
      </trkpt>
      <trkpt lat="43.66556" lon="3.84091">
        <ele>71</ele>
        <time>2020-10-25T14:29:40.000Z</time>
      </trkpt>
      <trkpt lat="43.66558" lon="3.84091">
        <ele>71</ele>
        <time>2020-10-25T14:29:41.000Z</time>
      </trkpt>
      <trkpt lat="43.6656" lon="3.84091">
        <ele>71</ele>
        <time>2020-10-25T14:29:42.000Z</time>
      </trkpt>
      <trkpt lat="43.66563" lon="3.84091">
        <ele>71</ele>
        <time>2020-10-25T14:29:43.000Z</time>
      </trkpt>
      <trkpt lat="43.66565" lon="3.84091">
        <ele>71</ele>
        <time>2020-10-25T14:29:44.000Z</time>
      </trkpt>
      <trkpt lat="43.66568" lon="3.84093">
        <ele>71</ele>
        <time>2020-10-25T14:29:45.000Z</time>
      </trkpt>
      <trkpt lat="43.66569" lon="3.84094">
        <ele>71</ele>
        <time>2020-10-25T14:29:46.000Z</time>
      </trkpt>
      <trkpt lat="43.66571" lon="3.84096">
        <ele>71</ele>
        <time>2020-10-25T14:29:47.000Z</time>
      </trkpt>
      <trkpt lat="43.66573" lon="3.84098">
        <ele>71</ele>
        <time>2020-10-25T14:29:49.000Z</time>
      </trkpt>
      <trkpt lat="43.66576" lon="3.84098">
        <ele>71</ele>
        <time>2020-10-25T14:29:51.000Z</time>
      </trkpt>
      <trkpt lat="43.66578" lon="3.84097">
        <ele>71</ele>
        <time>2020-10-25T14:29:53.000Z</time>
      </trkpt>
      <trkpt lat="43.66576" lon="3.84094">
        <ele>71</ele>
        <time>2020-10-25T14:29:56.000Z</time>
      </trkpt>
      <trkpt lat="43.66576" lon="3.84094">
        <ele>71</ele>
        <time>2020-10-25T14:30:02.000Z</time>
      </trkpt>
      <trkpt lat="43.66576" lon="3.84096">
        <ele>70.014514664456</ele>
        <time>2020-10-25T14:30:35.000Z</time>
      </trkpt>
      <trkpt lat="43.66576" lon="3.84095">
        <ele>70</ele>
        <time>2020-10-25T14:30:40.000Z</time>
      </trkpt>
      <trkpt lat="43.66571" lon="3.84096">
        <ele>69.004468017021</ele>
        <time>2020-10-25T14:31:27.000Z</time>
      </trkpt>
      <trkpt lat="43.66569" lon="3.84095">
        <ele>69</ele>
        <time>2020-10-25T14:31:29.000Z</time>
      </trkpt>
      <trkpt lat="43.66565" lon="3.84094">
        <ele>69</ele>
        <time>2020-10-25T14:31:31.000Z</time>
      </trkpt>
      <trkpt lat="43.66563" lon="3.84094">
        <ele>69</ele>
        <time>2020-10-25T14:31:32.000Z</time>
      </trkpt>
      <trkpt lat="43.66561" lon="3.84093">
        <ele>69</ele>
        <time>2020-10-25T14:31:33.000Z</time>
      </trkpt>
      <trkpt lat="43.66558" lon="3.84091">
        <ele>69</ele>
        <time>2020-10-25T14:31:35.000Z</time>
      </trkpt>
      <trkpt lat="43.66555" lon="3.84091">
        <ele>69</ele>
        <time>2020-10-25T14:31:36.000Z</time>
      </trkpt>
      <trkpt lat="43.66553" lon="3.8409">
        <ele>69</ele>
        <time>2020-10-25T14:31:37.000Z</time>
      </trkpt>
      <trkpt lat="43.6655" lon="3.84088">
        <ele>69</ele>
        <time>2020-10-25T14:31:38.000Z</time>
      </trkpt>
      <trkpt lat="43.66548" lon="3.84087">
        <ele>69</ele>
        <time>2020-10-25T14:31:39.000Z</time>
      </trkpt>
      <trkpt lat="43.66545" lon="3.84086">
        <ele>69</ele>
        <time>2020-10-25T14:31:40.000Z</time>
      </trkpt>
      <trkpt lat="43.66542" lon="3.84085">
        <ele>69</ele>
        <time>2020-10-25T14:31:41.000Z</time>
      </trkpt>
      <trkpt lat="43.66539" lon="3.84084">
        <ele>69</ele>
        <time>2020-10-25T14:31:42.000Z</time>
      </trkpt>
      <trkpt lat="43.66536" lon="3.84082">
        <ele>69</ele>
        <time>2020-10-25T14:31:43.000Z</time>
      </trkpt>
      <trkpt lat="43.66533" lon="3.84081">
        <ele>69</ele>
        <time>2020-10-25T14:31:44.000Z</time>
      </trkpt>
      <trkpt lat="43.6653" lon="3.8408">
        <ele>69</ele>
        <time>2020-10-25T14:31:45.000Z</time>
      </trkpt>
      <trkpt lat="43.66528" lon="3.84079">
        <ele>69</ele>
        <time>2020-10-25T14:31:46.000Z</time>
      </trkpt>
      <trkpt lat="43.66525" lon="3.84078">
        <ele>69</ele>
        <time>2020-10-25T14:31:47.000Z</time>
      </trkpt>
      <trkpt lat="43.66522" lon="3.84077">
        <ele>69</ele>
        <time>2020-10-25T14:31:48.000Z</time>
      </trkpt>
      <trkpt lat="43.66519" lon="3.84075">
        <ele>69</ele>
        <time>2020-10-25T14:31:49.000Z</time>
      </trkpt>
      <trkpt lat="43.66517" lon="3.84074">
        <ele>69</ele>
        <time>2020-10-25T14:31:50.000Z</time>
      </trkpt>
      <trkpt lat="43.66514" lon="3.84073">
        <ele>69</ele>
        <time>2020-10-25T14:31:51.000Z</time>
      </trkpt>
      <trkpt lat="43.66512" lon="3.84071">
        <ele>69</ele>
        <time>2020-10-25T14:31:52.000Z</time>
      </trkpt>
      <trkpt lat="43.66509" lon="3.8407">
        <ele>69</ele>
        <time>2020-10-25T14:31:53.000Z</time>
      </trkpt>
      <trkpt lat="43.66506" lon="3.84068">
        <ele>69</ele>
        <time>2020-10-25T14:31:54.000Z</time>
      </trkpt>
      <trkpt lat="43.66503" lon="3.84066">
        <ele>69</ele>
        <time>2020-10-25T14:31:55.000Z</time>
      </trkpt>
      <trkpt lat="43.665" lon="3.84065">
        <ele>69</ele>
        <time>2020-10-25T14:31:56.000Z</time>
      </trkpt>
      <trkpt lat="43.66498" lon="3.84064">
        <ele>69.058995810107</ele>
        <time>2020-10-25T14:31:57.000Z</time>
      </trkpt>
      <trkpt lat="43.66495" lon="3.84063">
        <ele>69.25565270581</ele>
        <time>2020-10-25T14:31:58.000Z</time>
      </trkpt>
      <trkpt lat="43.66492" lon="3.84061">
        <ele>69.452309601513</ele>
        <time>2020-10-25T14:31:59.000Z</time>
      </trkpt>
      <trkpt lat="43.66489" lon="3.8406">
        <ele>69.648966497217</ele>
        <time>2020-10-25T14:32:00.000Z</time>
      </trkpt>
      <trkpt lat="43.66486" lon="3.84058">
        <ele>69.84562339292</ele>
        <time>2020-10-25T14:32:01.000Z</time>
      </trkpt>
      <trkpt lat="43.66484" lon="3.84057">
        <ele>70.042280288623</ele>
        <time>2020-10-25T14:32:02.000Z</time>
      </trkpt>
      <trkpt lat="43.66481" lon="3.84056">
        <ele>70.238937184326</ele>
        <time>2020-10-25T14:32:03.000Z</time>
      </trkpt>
      <trkpt lat="43.66478" lon="3.84055">
        <ele>70.43559408003</ele>
        <time>2020-10-25T14:32:04.000Z</time>
      </trkpt>
      <trkpt lat="43.66476" lon="3.84053">
        <ele>70.632250975733</ele>
        <time>2020-10-25T14:32:05.000Z</time>
      </trkpt>
      <trkpt lat="43.66473" lon="3.84052">
        <ele>70.828907871436</ele>
        <time>2020-10-25T14:32:06.000Z</time>
      </trkpt>
      <trkpt lat="43.6647" lon="3.84051">
        <ele>71.013224492134</ele>
        <time>2020-10-25T14:32:07.000Z</time>
      </trkpt>
      <trkpt lat="43.66468" lon="3.8405">
        <ele>71.114953858815</ele>
        <time>2020-10-25T14:32:08.000Z</time>
      </trkpt>
      <trkpt lat="43.66465" lon="3.84049">
        <ele>71.216683225495</ele>
        <time>2020-10-25T14:32:09.000Z</time>
      </trkpt>
      <trkpt lat="43.66462" lon="3.84047">
        <ele>71.318412592175</ele>
        <time>2020-10-25T14:32:10.000Z</time>
      </trkpt>
      <trkpt lat="43.66459" lon="3.84046">
        <ele>71.420141958855</ele>
        <time>2020-10-25T14:32:11.000Z</time>
      </trkpt>
      <trkpt lat="43.66457" lon="3.84045">
        <ele>71.521871325535</ele>
        <time>2020-10-25T14:32:12.000Z</time>
      </trkpt>
      <trkpt lat="43.66454" lon="3.84044">
        <ele>71.623600692215</ele>
        <time>2020-10-25T14:32:13.000Z</time>
      </trkpt>
      <trkpt lat="43.66451" lon="3.84043">
        <ele>71.725330058896</ele>
        <time>2020-10-25T14:32:14.000Z</time>
      </trkpt>
      <trkpt lat="43.66448" lon="3.84041">
        <ele>71.827059425576</ele>
        <time>2020-10-25T14:32:15.000Z</time>
      </trkpt>
      <trkpt lat="43.66445" lon="3.84039">
        <ele>71.928788792256</ele>
        <time>2020-10-25T14:32:16.000Z</time>
      </trkpt>
      <trkpt lat="43.66442" lon="3.84037">
        <ele>72.05993880038</ele>
        <time>2020-10-25T14:32:17.000Z</time>
      </trkpt>
      <trkpt lat="43.66439" lon="3.84035">
        <ele>72.259739064052</ele>
        <time>2020-10-25T14:32:18.000Z</time>
      </trkpt>
      <trkpt lat="43.66436" lon="3.84033">
        <ele>72.459539327725</ele>
        <time>2020-10-25T14:32:19.000Z</time>
      </trkpt>
      <trkpt lat="43.66433" lon="3.84031">
        <ele>72.659339591397</ele>
        <time>2020-10-25T14:32:20.000Z</time>
      </trkpt>
      <trkpt lat="43.6643" lon="3.84029">
        <ele>72.85913985507</ele>
        <time>2020-10-25T14:32:21.000Z</time>
      </trkpt>
      <trkpt lat="43.66427" lon="3.84028">
        <ele>73.058940118742</ele>
        <time>2020-10-25T14:32:22.000Z</time>
      </trkpt>
      <trkpt lat="43.66424" lon="3.84026">
        <ele>73.258740382415</ele>
        <time>2020-10-25T14:32:23.000Z</time>
      </trkpt>
      <trkpt lat="43.66421" lon="3.84025">
        <ele>73.458540646087</ele>
        <time>2020-10-25T14:32:24.000Z</time>
      </trkpt>
      <trkpt lat="43.66418" lon="3.84023">
        <ele>73.658340909759</ele>
        <time>2020-10-25T14:32:25.000Z</time>
      </trkpt>
      <trkpt lat="43.66415" lon="3.84021">
        <ele>73.858141173432</ele>
        <time>2020-10-25T14:32:26.000Z</time>
      </trkpt>
      <trkpt lat="43.66413" lon="3.8402">
        <ele>74</ele>
        <time>2020-10-25T14:32:27.000Z</time>
      </trkpt>
      <trkpt lat="43.6641" lon="3.84018">
        <ele>74</ele>
        <time>2020-10-25T14:32:28.000Z</time>
      </trkpt>
      <trkpt lat="43.66408" lon="3.84016">
        <ele>74</ele>
        <time>2020-10-25T14:32:29.000Z</time>
      </trkpt>
      <trkpt lat="43.66405" lon="3.84014">
        <ele>74</ele>
        <time>2020-10-25T14:32:30.000Z</time>
      </trkpt>
      <trkpt lat="43.66402" lon="3.84012">
        <ele>74</ele>
        <time>2020-10-25T14:32:31.000Z</time>
      </trkpt>
      <trkpt lat="43.664" lon="3.8401">
        <ele>74</ele>
        <time>2020-10-25T14:32:32.000Z</time>
      </trkpt>
      <trkpt lat="43.66397" lon="3.84008">
        <ele>74</ele>
        <time>2020-10-25T14:32:33.000Z</time>
      </trkpt>
      <trkpt lat="43.66394" lon="3.84006">
        <ele>74</ele>
        <time>2020-10-25T14:32:34.000Z</time>
      </trkpt>
      <trkpt lat="43.6639" lon="3.84004">
        <ele>74</ele>
        <time>2020-10-25T14:32:35.000Z</time>
      </trkpt>
      <trkpt lat="43.66387" lon="3.84002">
        <ele>74</ele>
        <time>2020-10-25T14:32:36.000Z</time>
      </trkpt>
      <trkpt lat="43.66384" lon="3.83999">
        <ele>73.97000064</ele>
        <time>2020-10-25T14:32:37.000Z</time>
      </trkpt>
      <trkpt lat="43.66381" lon="3.83996">
        <ele>73.87000064</ele>
        <time>2020-10-25T14:32:38.000Z</time>
      </trkpt>
      <trkpt lat="43.66378" lon="3.83993">
        <ele>73.77000064</ele>
        <time>2020-10-25T14:32:39.000Z</time>
      </trkpt>
      <trkpt lat="43.66374" lon="3.83991">
        <ele>73.67000064</ele>
        <time>2020-10-25T14:32:40.000Z</time>
      </trkpt>
      <trkpt lat="43.6637" lon="3.83989">
        <ele>73.57000064</ele>
        <time>2020-10-25T14:32:41.000Z</time>
      </trkpt>
      <trkpt lat="43.66367" lon="3.83987">
        <ele>73.47000064</ele>
        <time>2020-10-25T14:32:42.000Z</time>
      </trkpt>
      <trkpt lat="43.66364" lon="3.83984">
        <ele>73.37000064</ele>
        <time>2020-10-25T14:32:43.000Z</time>
      </trkpt>
      <trkpt lat="43.6636" lon="3.83981">
        <ele>73.27000064</ele>
        <time>2020-10-25T14:32:44.000Z</time>
      </trkpt>
      <trkpt lat="43.66357" lon="3.83978">
        <ele>73.17000064</ele>
        <time>2020-10-25T14:32:45.000Z</time>
      </trkpt>
      <trkpt lat="43.66354" lon="3.83976">
        <ele>73.07000064</ele>
        <time>2020-10-25T14:32:46.000Z</time>
      </trkpt>
      <trkpt lat="43.6635" lon="3.83973">
        <ele>72.97000064</ele>
        <time>2020-10-25T14:32:47.000Z</time>
      </trkpt>
      <trkpt lat="43.66347" lon="3.83971">
        <ele>72.87000064</ele>
        <time>2020-10-25T14:32:48.000Z</time>
      </trkpt>
      <trkpt lat="43.66344" lon="3.83969">
        <ele>72.77000064</ele>
        <time>2020-10-25T14:32:49.000Z</time>
      </trkpt>
      <trkpt lat="43.6634" lon="3.83967">
        <ele>72.67000064</ele>
        <time>2020-10-25T14:32:50.000Z</time>
      </trkpt>
      <trkpt lat="43.66337" lon="3.83964">
        <ele>72.57000064</ele>
        <time>2020-10-25T14:32:51.000Z</time>
      </trkpt>
      <trkpt lat="43.66333" lon="3.83963">
        <ele>72.47000064</ele>
        <time>2020-10-25T14:32:52.000Z</time>
      </trkpt>
      <trkpt lat="43.6633" lon="3.8396">
        <ele>72.37000064</ele>
        <time>2020-10-25T14:32:53.000Z</time>
      </trkpt>
      <trkpt lat="43.66326" lon="3.83958">
        <ele>72.27000064</ele>
        <time>2020-10-25T14:32:54.000Z</time>
      </trkpt>
      <trkpt lat="43.66323" lon="3.83955">
        <ele>72.17000064</ele>
        <time>2020-10-25T14:32:55.000Z</time>
      </trkpt>
      <trkpt lat="43.6632" lon="3.83952">
        <ele>72.07000064</ele>
        <time>2020-10-25T14:32:56.000Z</time>
      </trkpt>
      <trkpt lat="43.66318" lon="3.83948">
        <ele>71.97087438967</ele>
        <time>2020-10-25T14:32:57.000Z</time>
      </trkpt>
      <trkpt lat="43.66316" lon="3.83945">
        <ele>71.873786950703</ele>
        <time>2020-10-25T14:32:58.000Z</time>
      </trkpt>
      <trkpt lat="43.66314" lon="3.83942">
        <ele>71.776699511736</ele>
        <time>2020-10-25T14:32:59.000Z</time>
      </trkpt>
      <trkpt lat="43.66311" lon="3.8394">
        <ele>71.679612072769</ele>
        <time>2020-10-25T14:33:00.000Z</time>
      </trkpt>
      <trkpt lat="43.66309" lon="3.83939">
        <ele>71.582524633802</ele>
        <time>2020-10-25T14:33:01.000Z</time>
      </trkpt>
      <trkpt lat="43.66306" lon="3.83941">
        <ele>71.485437194835</ele>
        <time>2020-10-25T14:33:02.000Z</time>
      </trkpt>
      <trkpt lat="43.66302" lon="3.83942">
        <ele>71.388349755868</ele>
        <time>2020-10-25T14:33:03.000Z</time>
      </trkpt>
      <trkpt lat="43.66299" lon="3.83943">
        <ele>71.291262316901</ele>
        <time>2020-10-25T14:33:04.000Z</time>
      </trkpt>
      <trkpt lat="43.66295" lon="3.83944">
        <ele>71.194174877934</ele>
        <time>2020-10-25T14:33:05.000Z</time>
      </trkpt>
      <trkpt lat="43.66291" lon="3.83945">
        <ele>71.097087438967</ele>
        <time>2020-10-25T14:33:06.000Z</time>
      </trkpt>
      <trkpt lat="43.66288" lon="3.83945">
        <ele>71</ele>
        <time>2020-10-25T14:33:07.000Z</time>
      </trkpt>
      <trkpt lat="43.66284" lon="3.83944">
        <ele>70.79381456903</ele>
        <time>2020-10-25T14:33:08.000Z</time>
      </trkpt>
      <trkpt lat="43.6628" lon="3.83943">
        <ele>70.587629138059</ele>
        <time>2020-10-25T14:33:09.000Z</time>
      </trkpt>
      <trkpt lat="43.66277" lon="3.83942">
        <ele>70.381443707089</ele>
        <time>2020-10-25T14:33:10.000Z</time>
      </trkpt>
      <trkpt lat="43.66273" lon="3.83941">
        <ele>70.175258276118</ele>
        <time>2020-10-25T14:33:11.000Z</time>
      </trkpt>
      <trkpt lat="43.66269" lon="3.83939">
        <ele>69.969072845148</ele>
        <time>2020-10-25T14:33:12.000Z</time>
      </trkpt>
      <trkpt lat="43.66266" lon="3.83938">
        <ele>69.762887414177</ele>
        <time>2020-10-25T14:33:13.000Z</time>
      </trkpt>
      <trkpt lat="43.66263" lon="3.83937">
        <ele>69.556701983207</ele>
        <time>2020-10-25T14:33:14.000Z</time>
      </trkpt>
      <trkpt lat="43.6626" lon="3.83935">
        <ele>69.350516552236</ele>
        <time>2020-10-25T14:33:15.000Z</time>
      </trkpt>
      <trkpt lat="43.66257" lon="3.83934">
        <ele>69.144331121266</ele>
        <time>2020-10-25T14:33:16.000Z</time>
      </trkpt>
      <trkpt lat="43.66254" lon="3.83933">
        <ele>68.97003059981</ele>
        <time>2020-10-25T14:33:17.000Z</time>
      </trkpt>
      <trkpt lat="43.66252" lon="3.83932">
        <ele>68.870130467974</ele>
        <time>2020-10-25T14:33:18.000Z</time>
      </trkpt>
      <trkpt lat="43.66249" lon="3.8393">
        <ele>68.770230336138</ele>
        <time>2020-10-25T14:33:19.000Z</time>
      </trkpt>
      <trkpt lat="43.66247" lon="3.83929">
        <ele>68.670330204301</ele>
        <time>2020-10-25T14:33:20.000Z</time>
      </trkpt>
      <trkpt lat="43.66244" lon="3.83928">
        <ele>68.570430072465</ele>
        <time>2020-10-25T14:33:21.000Z</time>
      </trkpt>
      <trkpt lat="43.66241" lon="3.83927">
        <ele>68.470529940629</ele>
        <time>2020-10-25T14:33:22.000Z</time>
      </trkpt>
      <trkpt lat="43.66238" lon="3.83926">
        <ele>68.370629808793</ele>
        <time>2020-10-25T14:33:23.000Z</time>
      </trkpt>
      <trkpt lat="43.66236" lon="3.83924">
        <ele>68.270729676957</ele>
        <time>2020-10-25T14:33:24.000Z</time>
      </trkpt>
      <trkpt lat="43.66233" lon="3.83923">
        <ele>68.17082954512</ele>
        <time>2020-10-25T14:33:25.000Z</time>
      </trkpt>
      <trkpt lat="43.6623" lon="3.83922">
        <ele>68.070929413284</ele>
        <time>2020-10-25T14:33:26.000Z</time>
      </trkpt>
      <trkpt lat="43.66227" lon="3.8392">
        <ele>67.97151306657</ele>
        <time>2020-10-25T14:33:27.000Z</time>
      </trkpt>
      <trkpt lat="43.66224" lon="3.83919">
        <ele>67.873281177701</ele>
        <time>2020-10-25T14:33:28.000Z</time>
      </trkpt>
      <trkpt lat="43.66221" lon="3.83918">
        <ele>67.775049288833</ele>
        <time>2020-10-25T14:33:29.000Z</time>
      </trkpt>
      <trkpt lat="43.66218" lon="3.83916">
        <ele>67.676817399964</ele>
        <time>2020-10-25T14:33:30.000Z</time>
      </trkpt>
      <trkpt lat="43.66214" lon="3.83915">
        <ele>67.578585511095</ele>
        <time>2020-10-25T14:33:31.000Z</time>
      </trkpt>
      <trkpt lat="43.66211" lon="3.83913">
        <ele>67.480353622226</ele>
        <time>2020-10-25T14:33:32.000Z</time>
      </trkpt>
      <trkpt lat="43.66208" lon="3.83911">
        <ele>67.382121733357</ele>
        <time>2020-10-25T14:33:33.000Z</time>
      </trkpt>
      <trkpt lat="43.66205" lon="3.8391">
        <ele>67.283889844489</ele>
        <time>2020-10-25T14:33:34.000Z</time>
      </trkpt>
      <trkpt lat="43.66202" lon="3.83908">
        <ele>67.18565795562</ele>
        <time>2020-10-25T14:33:35.000Z</time>
      </trkpt>
      <trkpt lat="43.66198" lon="3.83907">
        <ele>67.087426066751</ele>
        <time>2020-10-25T14:33:36.000Z</time>
      </trkpt>
      <trkpt lat="43.66195" lon="3.83906">
        <ele>67</ele>
        <time>2020-10-25T14:33:37.000Z</time>
      </trkpt>
      <trkpt lat="43.66192" lon="3.83905">
        <ele>67</ele>
        <time>2020-10-25T14:33:38.000Z</time>
      </trkpt>
      <trkpt lat="43.66188" lon="3.83904">
        <ele>67</ele>
        <time>2020-10-25T14:33:39.000Z</time>
      </trkpt>
      <trkpt lat="43.66185" lon="3.83905">
        <ele>67</ele>
        <time>2020-10-25T14:33:40.000Z</time>
      </trkpt>
      <trkpt lat="43.66182" lon="3.83905">
        <ele>67</ele>
        <time>2020-10-25T14:33:41.000Z</time>
      </trkpt>
      <trkpt lat="43.66179" lon="3.83905">
        <ele>67</ele>
        <time>2020-10-25T14:33:42.000Z</time>
      </trkpt>
      <trkpt lat="43.66176" lon="3.83905">
        <ele>67</ele>
        <time>2020-10-25T14:33:43.000Z</time>
      </trkpt>
      <trkpt lat="43.66173" lon="3.83904">
        <ele>67</ele>
        <time>2020-10-25T14:33:44.000Z</time>
      </trkpt>
      <trkpt lat="43.6617" lon="3.83903">
        <ele>67</ele>
        <time>2020-10-25T14:33:45.000Z</time>
      </trkpt>
      <trkpt lat="43.66168" lon="3.83902">
        <ele>67</ele>
        <time>2020-10-25T14:33:46.000Z</time>
      </trkpt>
      <trkpt lat="43.66165" lon="3.839">
        <ele>67</ele>
        <time>2020-10-25T14:33:47.000Z</time>
      </trkpt>
      <trkpt lat="43.66162" lon="3.83899">
        <ele>67</ele>
        <time>2020-10-25T14:33:48.000Z</time>
      </trkpt>
      <trkpt lat="43.66159" lon="3.83897">
        <ele>67</ele>
        <time>2020-10-25T14:33:49.000Z</time>
      </trkpt>
      <trkpt lat="43.66156" lon="3.83895">
        <ele>67</ele>
        <time>2020-10-25T14:33:50.000Z</time>
      </trkpt>
      <trkpt lat="43.66153" lon="3.83894">
        <ele>67</ele>
        <time>2020-10-25T14:33:51.000Z</time>
      </trkpt>
      <trkpt lat="43.6615" lon="3.83892">
        <ele>67</ele>
        <time>2020-10-25T14:33:52.000Z</time>
      </trkpt>
      <trkpt lat="43.66147" lon="3.83891">
        <ele>67</ele>
        <time>2020-10-25T14:33:53.000Z</time>
      </trkpt>
      <trkpt lat="43.66144" lon="3.83889">
        <ele>67</ele>
        <time>2020-10-25T14:33:54.000Z</time>
      </trkpt>
      <trkpt lat="43.66141" lon="3.83888">
        <ele>67</ele>
        <time>2020-10-25T14:33:55.000Z</time>
      </trkpt>
      <trkpt lat="43.66138" lon="3.83887">
        <ele>67</ele>
        <time>2020-10-25T14:33:56.000Z</time>
      </trkpt>
      <trkpt lat="43.66135" lon="3.83885">
        <ele>67</ele>
        <time>2020-10-25T14:33:57.000Z</time>
      </trkpt>
      <trkpt lat="43.66132" lon="3.83883">
        <ele>67</ele>
        <time>2020-10-25T14:33:58.000Z</time>
      </trkpt>
      <trkpt lat="43.66129" lon="3.83881">
        <ele>67</ele>
        <time>2020-10-25T14:33:59.000Z</time>
      </trkpt>
      <trkpt lat="43.66126" lon="3.8388">
        <ele>67</ele>
        <time>2020-10-25T14:34:00.000Z</time>
      </trkpt>
      <trkpt lat="43.66123" lon="3.83878">
        <ele>67</ele>
        <time>2020-10-25T14:34:01.000Z</time>
      </trkpt>
      <trkpt lat="43.66121" lon="3.83878">
        <ele>67</ele>
        <time>2020-10-25T14:34:02.000Z</time>
      </trkpt>
      <trkpt lat="43.66119" lon="3.83879">
        <ele>67</ele>
        <time>2020-10-25T14:34:03.000Z</time>
      </trkpt>
      <trkpt lat="43.66117" lon="3.83881">
        <ele>67</ele>
        <time>2020-10-25T14:34:04.000Z</time>
      </trkpt>
      <trkpt lat="43.66115" lon="3.83882">
        <ele>67</ele>
        <time>2020-10-25T14:34:05.000Z</time>
      </trkpt>
      <trkpt lat="43.66112" lon="3.83882">
        <ele>67</ele>
        <time>2020-10-25T14:34:06.000Z</time>
      </trkpt>
      <trkpt lat="43.6611" lon="3.83881">
        <ele>67</ele>
        <time>2020-10-25T14:34:07.000Z</time>
      </trkpt>
      <trkpt lat="43.66107" lon="3.8388">
        <ele>67.100309873734</ele>
        <time>2020-10-25T14:34:08.000Z</time>
      </trkpt>
      <trkpt lat="43.66104" lon="3.83879">
        <ele>67.203722455852</ele>
        <time>2020-10-25T14:34:09.000Z</time>
      </trkpt>
      <trkpt lat="43.66101" lon="3.83877">
        <ele>67.30713503797</ele>
        <time>2020-10-25T14:34:10.000Z</time>
      </trkpt>
      <trkpt lat="43.66099" lon="3.83875">
        <ele>67.410547620088</ele>
        <time>2020-10-25T14:34:11.000Z</time>
      </trkpt>
      <trkpt lat="43.66095" lon="3.83873">
        <ele>67.513960202205</ele>
        <time>2020-10-25T14:34:12.000Z</time>
      </trkpt>
      <trkpt lat="43.66092" lon="3.83871">
        <ele>67.617372784323</ele>
        <time>2020-10-25T14:34:13.000Z</time>
      </trkpt>
      <trkpt lat="43.66089" lon="3.83869">
        <ele>67.720785366441</ele>
        <time>2020-10-25T14:34:14.000Z</time>
      </trkpt>
      <trkpt lat="43.66086" lon="3.83868">
        <ele>67.824197948559</ele>
        <time>2020-10-25T14:34:15.000Z</time>
      </trkpt>
      <trkpt lat="43.66084" lon="3.83866">
        <ele>67.927610530677</ele>
        <time>2020-10-25T14:34:16.000Z</time>
      </trkpt>
      <trkpt lat="43.66081" lon="3.83864">
        <ele>68</ele>
        <time>2020-10-25T14:34:17.000Z</time>
      </trkpt>
      <trkpt lat="43.66079" lon="3.83863">
        <ele>68</ele>
        <time>2020-10-25T14:34:18.000Z</time>
      </trkpt>
      <trkpt lat="43.66077" lon="3.83862">
        <ele>68</ele>
        <time>2020-10-25T14:34:19.000Z</time>
      </trkpt>
      <trkpt lat="43.66075" lon="3.83861">
        <ele>68</ele>
        <time>2020-10-25T14:34:20.000Z</time>
      </trkpt>
      <trkpt lat="43.66073" lon="3.8386">
        <ele>68</ele>
        <time>2020-10-25T14:34:21.000Z</time>
      </trkpt>
      <trkpt lat="43.66071" lon="3.83859">
        <ele>68</ele>
        <time>2020-10-25T14:34:22.000Z</time>
      </trkpt>
      <trkpt lat="43.66069" lon="3.83857">
        <ele>68</ele>
        <time>2020-10-25T14:34:23.000Z</time>
      </trkpt>
      <trkpt lat="43.66068" lon="3.83856">
        <ele>68</ele>
        <time>2020-10-25T14:34:24.000Z</time>
      </trkpt>
      <trkpt lat="43.66066" lon="3.83855">
        <ele>68</ele>
        <time>2020-10-25T14:34:25.000Z</time>
      </trkpt>
      <trkpt lat="43.66063" lon="3.83853">
        <ele>68</ele>
        <time>2020-10-25T14:34:27.000Z</time>
      </trkpt>
      <trkpt lat="43.66061" lon="3.83853">
        <ele>68</ele>
        <time>2020-10-25T14:34:28.000Z</time>
      </trkpt>
      <trkpt lat="43.66059" lon="3.83854">
        <ele>68</ele>
        <time>2020-10-25T14:34:29.000Z</time>
      </trkpt>
      <trkpt lat="43.66056" lon="3.83856">
        <ele>68</ele>
        <time>2020-10-25T14:34:30.000Z</time>
      </trkpt>
      <trkpt lat="43.66053" lon="3.83858">
        <ele>68</ele>
        <time>2020-10-25T14:34:31.000Z</time>
      </trkpt>
      <trkpt lat="43.6605" lon="3.8386">
        <ele>68</ele>
        <time>2020-10-25T14:34:32.000Z</time>
      </trkpt>
      <trkpt lat="43.66047" lon="3.83863">
        <ele>68</ele>
        <time>2020-10-25T14:34:33.000Z</time>
      </trkpt>
      <trkpt lat="43.66045" lon="3.83866">
        <ele>68</ele>
        <time>2020-10-25T14:34:34.000Z</time>
      </trkpt>
      <trkpt lat="43.66043" lon="3.8387">
        <ele>68</ele>
        <time>2020-10-25T14:34:35.000Z</time>
      </trkpt>
      <trkpt lat="43.66039" lon="3.83873">
        <ele>68</ele>
        <time>2020-10-25T14:34:36.000Z</time>
      </trkpt>
      <trkpt lat="43.66036" lon="3.83877">
        <ele>68</ele>
        <time>2020-10-25T14:34:37.000Z</time>
      </trkpt>
      <trkpt lat="43.66032" lon="3.8388">
        <ele>68</ele>
        <time>2020-10-25T14:34:38.000Z</time>
      </trkpt>
      <trkpt lat="43.66029" lon="3.83883">
        <ele>68</ele>
        <time>2020-10-25T14:34:39.000Z</time>
      </trkpt>
      <trkpt lat="43.66025" lon="3.83886">
        <ele>68</ele>
        <time>2020-10-25T14:34:40.000Z</time>
      </trkpt>
      <trkpt lat="43.66022" lon="3.83889">
        <ele>68</ele>
        <time>2020-10-25T14:34:41.000Z</time>
      </trkpt>
      <trkpt lat="43.66019" lon="3.83892">
        <ele>68</ele>
        <time>2020-10-25T14:34:42.000Z</time>
      </trkpt>
      <trkpt lat="43.66016" lon="3.83894">
        <ele>68</ele>
        <time>2020-10-25T14:34:43.000Z</time>
      </trkpt>
      <trkpt lat="43.66013" lon="3.83897">
        <ele>68</ele>
        <time>2020-10-25T14:34:44.000Z</time>
      </trkpt>
      <trkpt lat="43.66011" lon="3.839">
        <ele>68</ele>
        <time>2020-10-25T14:34:45.000Z</time>
      </trkpt>
      <trkpt lat="43.66008" lon="3.83902">
        <ele>68</ele>
        <time>2020-10-25T14:34:46.000Z</time>
      </trkpt>
      <trkpt lat="43.66006" lon="3.83904">
        <ele>68.029069147287</ele>
        <time>2020-10-25T14:34:47.000Z</time>
      </trkpt>
      <trkpt lat="43.66004" lon="3.83906">
        <ele>68.125968372093</ele>
        <time>2020-10-25T14:34:48.000Z</time>
      </trkpt>
      <trkpt lat="43.66002" lon="3.83908">
        <ele>68.222867596899</ele>
        <time>2020-10-25T14:34:49.000Z</time>
      </trkpt>
      <trkpt lat="43.66" lon="3.8391">
        <ele>68.319766821705</ele>
        <time>2020-10-25T14:34:50.000Z</time>
      </trkpt>
      <trkpt lat="43.65998" lon="3.83912">
        <ele>68.416666046512</ele>
        <time>2020-10-25T14:34:51.000Z</time>
      </trkpt>
      <trkpt lat="43.65996" lon="3.83914">
        <ele>68.513565271318</ele>
        <time>2020-10-25T14:34:52.000Z</time>
      </trkpt>
      <trkpt lat="43.65994" lon="3.83916">
        <ele>68.610464496124</ele>
        <time>2020-10-25T14:34:53.000Z</time>
      </trkpt>
      <trkpt lat="43.65992" lon="3.83918">
        <ele>68.70736372093</ele>
        <time>2020-10-25T14:34:54.000Z</time>
      </trkpt>
      <trkpt lat="43.6599" lon="3.8392">
        <ele>68.804262945736</ele>
        <time>2020-10-25T14:34:55.000Z</time>
      </trkpt>
      <trkpt lat="43.65988" lon="3.83922">
        <ele>68.901162170543</ele>
        <time>2020-10-25T14:34:56.000Z</time>
      </trkpt>
      <trkpt lat="43.65986" lon="3.83924">
        <ele>68.998061395349</ele>
        <time>2020-10-25T14:34:57.000Z</time>
      </trkpt>
      <trkpt lat="43.65984" lon="3.83926">
        <ele>69</ele>
        <time>2020-10-25T14:34:58.000Z</time>
      </trkpt>
      <trkpt lat="43.65982" lon="3.83928">
        <ele>69</ele>
        <time>2020-10-25T14:34:59.000Z</time>
      </trkpt>
      <trkpt lat="43.6598" lon="3.8393">
        <ele>69</ele>
        <time>2020-10-25T14:35:00.000Z</time>
      </trkpt>
      <trkpt lat="43.65978" lon="3.83932">
        <ele>69</ele>
        <time>2020-10-25T14:35:01.000Z</time>
      </trkpt>
      <trkpt lat="43.65976" lon="3.83934">
        <ele>69</ele>
        <time>2020-10-25T14:35:02.000Z</time>
      </trkpt>
      <trkpt lat="43.65974" lon="3.83937">
        <ele>69</ele>
        <time>2020-10-25T14:35:03.000Z</time>
      </trkpt>
      <trkpt lat="43.65971" lon="3.83939">
        <ele>69</ele>
        <time>2020-10-25T14:35:04.000Z</time>
      </trkpt>
      <trkpt lat="43.65968" lon="3.83942">
        <ele>69</ele>
        <time>2020-10-25T14:35:05.000Z</time>
      </trkpt>
      <trkpt lat="43.65966" lon="3.83945">
        <ele>69</ele>
        <time>2020-10-25T14:35:06.000Z</time>
      </trkpt>
      <trkpt lat="43.65962" lon="3.83949">
        <ele>68.970675084896</ele>
        <time>2020-10-25T14:35:07.000Z</time>
      </trkpt>
      <trkpt lat="43.65959" lon="3.83952">
        <ele>68.872923282509</ele>
        <time>2020-10-25T14:35:08.000Z</time>
      </trkpt>
      <trkpt lat="43.65956" lon="3.83955">
        <ele>68.775171480122</ele>
        <time>2020-10-25T14:35:09.000Z</time>
      </trkpt>
      <trkpt lat="43.65952" lon="3.83958">
        <ele>68.677419677735</ele>
        <time>2020-10-25T14:35:10.000Z</time>
      </trkpt>
      <trkpt lat="43.65949" lon="3.83961">
        <ele>68.579667875348</ele>
        <time>2020-10-25T14:35:11.000Z</time>
      </trkpt>
      <trkpt lat="43.65945" lon="3.83964">
        <ele>68.481916072961</ele>
        <time>2020-10-25T14:35:12.000Z</time>
      </trkpt>
      <trkpt lat="43.65942" lon="3.83967">
        <ele>68.384164270575</ele>
        <time>2020-10-25T14:35:13.000Z</time>
      </trkpt>
      <trkpt lat="43.6594" lon="3.8397">
        <ele>68.286412468188</ele>
        <time>2020-10-25T14:35:14.000Z</time>
      </trkpt>
      <trkpt lat="43.65937" lon="3.83973">
        <ele>68.188660665801</ele>
        <time>2020-10-25T14:35:15.000Z</time>
      </trkpt>
      <trkpt lat="43.65936" lon="3.83976">
        <ele>68.090908863414</ele>
        <time>2020-10-25T14:35:16.000Z</time>
      </trkpt>
      <trkpt lat="43.65935" lon="3.8398">
        <ele>68.007150477745</ele>
        <time>2020-10-25T14:35:17.000Z</time>
      </trkpt>
      <trkpt lat="43.65934" lon="3.83984">
        <ele>68.109295490322</ele>
        <time>2020-10-25T14:35:18.000Z</time>
      </trkpt>
      <trkpt lat="43.65933" lon="3.83989">
        <ele>68.2114405029</ele>
        <time>2020-10-25T14:35:19.000Z</time>
      </trkpt>
      <trkpt lat="43.65933" lon="3.83993">
        <ele>68.313585515478</ele>
        <time>2020-10-25T14:35:20.000Z</time>
      </trkpt>
      <trkpt lat="43.65932" lon="3.83997">
        <ele>68.415730528055</ele>
        <time>2020-10-25T14:35:21.000Z</time>
      </trkpt>
      <trkpt lat="43.65931" lon="3.84002">
        <ele>68.517875540633</ele>
        <time>2020-10-25T14:35:22.000Z</time>
      </trkpt>
      <trkpt lat="43.65931" lon="3.84006">
        <ele>68.620020553211</ele>
        <time>2020-10-25T14:35:23.000Z</time>
      </trkpt>
      <trkpt lat="43.6593" lon="3.8401">
        <ele>68.722165565789</ele>
        <time>2020-10-25T14:35:24.000Z</time>
      </trkpt>
      <trkpt lat="43.65929" lon="3.84014">
        <ele>68.824310578366</ele>
        <time>2020-10-25T14:35:25.000Z</time>
      </trkpt>
      <trkpt lat="43.65928" lon="3.84018">
        <ele>68.926455590944</ele>
        <time>2020-10-25T14:35:26.000Z</time>
      </trkpt>
      <trkpt lat="43.65927" lon="3.84021">
        <ele>68.971943905767</ele>
        <time>2020-10-25T14:35:27.000Z</time>
      </trkpt>
      <trkpt lat="43.65926" lon="3.84025">
        <ele>68.871743569223</ele>
        <time>2020-10-25T14:35:28.000Z</time>
      </trkpt>
      <trkpt lat="43.65925" lon="3.84028">
        <ele>68.771543232678</ele>
        <time>2020-10-25T14:35:29.000Z</time>
      </trkpt>
      <trkpt lat="43.65924" lon="3.84032">
        <ele>68.671342896133</ele>
        <time>2020-10-25T14:35:30.000Z</time>
      </trkpt>
      <trkpt lat="43.65925" lon="3.84035">
        <ele>68.571142559588</ele>
        <time>2020-10-25T14:35:31.000Z</time>
      </trkpt>
      <trkpt lat="43.65925" lon="3.84039">
        <ele>68.470942223043</ele>
        <time>2020-10-25T14:35:32.000Z</time>
      </trkpt>
      <trkpt lat="43.65927" lon="3.84042">
        <ele>68.370741886498</ele>
        <time>2020-10-25T14:35:33.000Z</time>
      </trkpt>
      <trkpt lat="43.65929" lon="3.84045">
        <ele>68.270541549953</ele>
        <time>2020-10-25T14:35:34.000Z</time>
      </trkpt>
      <trkpt lat="43.65932" lon="3.84049">
        <ele>68.170341213408</ele>
        <time>2020-10-25T14:35:35.000Z</time>
      </trkpt>
      <trkpt lat="43.65935" lon="3.84052">
        <ele>68.070140876864</ele>
        <time>2020-10-25T14:35:36.000Z</time>
      </trkpt>
      <trkpt lat="43.65937" lon="3.84055">
        <ele>68</ele>
        <time>2020-10-25T14:35:37.000Z</time>
      </trkpt>
      <trkpt lat="43.65941" lon="3.84057">
        <ele>68</ele>
        <time>2020-10-25T14:35:38.000Z</time>
      </trkpt>
      <trkpt lat="43.65944" lon="3.84059">
        <ele>68</ele>
        <time>2020-10-25T14:35:39.000Z</time>
      </trkpt>
      <trkpt lat="43.65948" lon="3.84063">
        <ele>68</ele>
        <time>2020-10-25T14:35:40.000Z</time>
      </trkpt>
      <trkpt lat="43.65951" lon="3.84066">
        <ele>68</ele>
        <time>2020-10-25T14:35:41.000Z</time>
      </trkpt>
      <trkpt lat="43.65954" lon="3.8407">
        <ele>68</ele>
        <time>2020-10-25T14:35:42.000Z</time>
      </trkpt>
      <trkpt lat="43.65957" lon="3.84075">
        <ele>68</ele>
        <time>2020-10-25T14:35:43.000Z</time>
      </trkpt>
      <trkpt lat="43.6596" lon="3.8408">
        <ele>68</ele>
        <time>2020-10-25T14:35:44.000Z</time>
      </trkpt>
      <trkpt lat="43.65962" lon="3.84084">
        <ele>68</ele>
        <time>2020-10-25T14:35:45.000Z</time>
      </trkpt>
      <trkpt lat="43.65965" lon="3.84089">
        <ele>68</ele>
        <time>2020-10-25T14:35:46.000Z</time>
      </trkpt>
      <trkpt lat="43.65967" lon="3.84093">
        <ele>68</ele>
        <time>2020-10-25T14:35:47.000Z</time>
      </trkpt>
      <trkpt lat="43.65969" lon="3.84098">
        <ele>68</ele>
        <time>2020-10-25T14:35:48.000Z</time>
      </trkpt>
      <trkpt lat="43.65971" lon="3.84102">
        <ele>68</ele>
        <time>2020-10-25T14:35:49.000Z</time>
      </trkpt>
      <trkpt lat="43.65974" lon="3.84107">
        <ele>68</ele>
        <time>2020-10-25T14:35:50.000Z</time>
      </trkpt>
      <trkpt lat="43.65976" lon="3.84111">
        <ele>68</ele>
        <time>2020-10-25T14:35:51.000Z</time>
      </trkpt>
      <trkpt lat="43.65978" lon="3.84116">
        <ele>68</ele>
        <time>2020-10-25T14:35:52.000Z</time>
      </trkpt>
      <trkpt lat="43.6598" lon="3.84121">
        <ele>68</ele>
        <time>2020-10-25T14:35:53.000Z</time>
      </trkpt>
      <trkpt lat="43.65983" lon="3.84126">
        <ele>68</ele>
        <time>2020-10-25T14:35:54.000Z</time>
      </trkpt>
      <trkpt lat="43.65985" lon="3.84131">
        <ele>68</ele>
        <time>2020-10-25T14:35:55.000Z</time>
      </trkpt>
      <trkpt lat="43.65988" lon="3.84135">
        <ele>68</ele>
        <time>2020-10-25T14:35:56.000Z</time>
      </trkpt>
      <trkpt lat="43.65991" lon="3.8414">
        <ele>67.970120121269</ele>
        <time>2020-10-25T14:35:57.000Z</time>
      </trkpt>
      <trkpt lat="43.65993" lon="3.84144">
        <ele>67.870518400661</ele>
        <time>2020-10-25T14:35:58.000Z</time>
      </trkpt>
      <trkpt lat="43.65995" lon="3.84149">
        <ele>67.770916680053</ele>
        <time>2020-10-25T14:35:59.000Z</time>
      </trkpt>
      <trkpt lat="43.65998" lon="3.84153">
        <ele>67.671314959445</ele>
        <time>2020-10-25T14:36:00.000Z</time>
      </trkpt>
      <trkpt lat="43.66" lon="3.84157">
        <ele>67.571713238838</ele>
        <time>2020-10-25T14:36:01.000Z</time>
      </trkpt>
      <trkpt lat="43.66002" lon="3.84161">
        <ele>67.47211151823</ele>
        <time>2020-10-25T14:36:02.000Z</time>
      </trkpt>
      <trkpt lat="43.66004" lon="3.84165">
        <ele>67.372509797622</ele>
        <time>2020-10-25T14:36:03.000Z</time>
      </trkpt>
      <trkpt lat="43.66006" lon="3.84169">
        <ele>67.272908077014</ele>
        <time>2020-10-25T14:36:04.000Z</time>
      </trkpt>
      <trkpt lat="43.66008" lon="3.84172">
        <ele>67.173306356406</ele>
        <time>2020-10-25T14:36:05.000Z</time>
      </trkpt>
      <trkpt lat="43.6601" lon="3.84176">
        <ele>67.073704635799</ele>
        <time>2020-10-25T14:36:06.000Z</time>
      </trkpt>
      <trkpt lat="43.66012" lon="3.8418">
        <ele>67</ele>
        <time>2020-10-25T14:36:07.000Z</time>
      </trkpt>
      <trkpt lat="43.66014" lon="3.84183">
        <ele>67</ele>
        <time>2020-10-25T14:36:08.000Z</time>
      </trkpt>
      <trkpt lat="43.66016" lon="3.84187">
        <ele>67</ele>
        <time>2020-10-25T14:36:09.000Z</time>
      </trkpt>
      <trkpt lat="43.66018" lon="3.8419">
        <ele>67</ele>
        <time>2020-10-25T14:36:10.000Z</time>
      </trkpt>
      <trkpt lat="43.66019" lon="3.84193">
        <ele>67</ele>
        <time>2020-10-25T14:36:11.000Z</time>
      </trkpt>
      <trkpt lat="43.66021" lon="3.84195">
        <ele>67</ele>
        <time>2020-10-25T14:36:12.000Z</time>
      </trkpt>
      <trkpt lat="43.66022" lon="3.84199">
        <ele>67</ele>
        <time>2020-10-25T14:36:13.000Z</time>
      </trkpt>
      <trkpt lat="43.66023" lon="3.84202">
        <ele>67</ele>
        <time>2020-10-25T14:36:14.000Z</time>
      </trkpt>
      <trkpt lat="43.66024" lon="3.84204">
        <ele>67</ele>
        <time>2020-10-25T14:36:15.000Z</time>
      </trkpt>
      <trkpt lat="43.66025" lon="3.84207">
        <ele>67</ele>
        <time>2020-10-25T14:36:16.000Z</time>
      </trkpt>
      <trkpt lat="43.66027" lon="3.84211">
        <ele>67.02999936</ele>
        <time>2020-10-25T14:36:17.000Z</time>
      </trkpt>
      <trkpt lat="43.66028" lon="3.84215">
        <ele>67.12999936</ele>
        <time>2020-10-25T14:36:18.000Z</time>
      </trkpt>
      <trkpt lat="43.6603" lon="3.84218">
        <ele>67.22999936</ele>
        <time>2020-10-25T14:36:19.000Z</time>
      </trkpt>
      <trkpt lat="43.66032" lon="3.8422">
        <ele>67.32999936</ele>
        <time>2020-10-25T14:36:20.000Z</time>
      </trkpt>
      <trkpt lat="43.66034" lon="3.84223">
        <ele>67.52999936</ele>
        <time>2020-10-25T14:36:22.000Z</time>
      </trkpt>
      <trkpt lat="43.66035" lon="3.8422">
        <ele>67.82999936</ele>
        <time>2020-10-25T14:36:25.000Z</time>
      </trkpt>
      <trkpt lat="43.66033" lon="3.8422">
        <ele>68</ele>
        <time>2020-10-25T14:36:32.000Z</time>
      </trkpt>
      <trkpt lat="43.66027" lon="3.84214">
        <ele>68.991420995239</ele>
        <time>2020-10-25T14:36:59.000Z</time>
      </trkpt>
      <trkpt lat="43.66026" lon="3.84212">
        <ele>69.080338212033</ele>
        <time>2020-10-25T14:37:00.000Z</time>
      </trkpt>
      <trkpt lat="43.66025" lon="3.84209">
        <ele>69.186046385761</ele>
        <time>2020-10-25T14:37:01.000Z</time>
      </trkpt>
      <trkpt lat="43.66024" lon="3.84206">
        <ele>69.29175455949</ele>
        <time>2020-10-25T14:37:02.000Z</time>
      </trkpt>
      <trkpt lat="43.66023" lon="3.84203">
        <ele>69.397462733218</ele>
        <time>2020-10-25T14:37:03.000Z</time>
      </trkpt>
      <trkpt lat="43.66022" lon="3.842">
        <ele>69.503170906946</ele>
        <time>2020-10-25T14:37:04.000Z</time>
      </trkpt>
      <trkpt lat="43.6602" lon="3.84197">
        <ele>69.608879080674</ele>
        <time>2020-10-25T14:37:05.000Z</time>
      </trkpt>
      <trkpt lat="43.66019" lon="3.84193">
        <ele>69.714587254402</ele>
        <time>2020-10-25T14:37:06.000Z</time>
      </trkpt>
      <trkpt lat="43.66017" lon="3.8419">
        <ele>69.82029542813</ele>
        <time>2020-10-25T14:37:07.000Z</time>
      </trkpt>
      <trkpt lat="43.66016" lon="3.84187">
        <ele>69.926003601858</ele>
        <time>2020-10-25T14:37:08.000Z</time>
      </trkpt>
      <trkpt lat="43.66014" lon="3.84184">
        <ele>70.029153906054</ele>
        <time>2020-10-25T14:37:09.000Z</time>
      </trkpt>
      <trkpt lat="43.66013" lon="3.8418">
        <ele>70.12633566611</ele>
        <time>2020-10-25T14:37:10.000Z</time>
      </trkpt>
      <trkpt lat="43.66011" lon="3.84177">
        <ele>70.223517426167</ele>
        <time>2020-10-25T14:37:11.000Z</time>
      </trkpt>
      <trkpt lat="43.6601" lon="3.84174">
        <ele>70.320699186223</ele>
        <time>2020-10-25T14:37:12.000Z</time>
      </trkpt>
      <trkpt lat="43.66008" lon="3.84171">
        <ele>70.41788094628</ele>
        <time>2020-10-25T14:37:13.000Z</time>
      </trkpt>
      <trkpt lat="43.66006" lon="3.84168">
        <ele>70.515062706336</ele>
        <time>2020-10-25T14:37:14.000Z</time>
      </trkpt>
      <trkpt lat="43.66005" lon="3.84165">
        <ele>70.612244466393</ele>
        <time>2020-10-25T14:37:15.000Z</time>
      </trkpt>
      <trkpt lat="43.66003" lon="3.84162">
        <ele>70.709426226449</ele>
        <time>2020-10-25T14:37:16.000Z</time>
      </trkpt>
      <trkpt lat="43.66002" lon="3.84158">
        <ele>70.806607986506</ele>
        <time>2020-10-25T14:37:17.000Z</time>
      </trkpt>
      <trkpt lat="43.66" lon="3.84155">
        <ele>70.903789746562</ele>
        <time>2020-10-25T14:37:18.000Z</time>
      </trkpt>
      <trkpt lat="43.65998" lon="3.84152">
        <ele>71</ele>
        <time>2020-10-25T14:37:19.000Z</time>
      </trkpt>
      <trkpt lat="43.65996" lon="3.84149">
        <ele>71</ele>
        <time>2020-10-25T14:37:20.000Z</time>
      </trkpt>
      <trkpt lat="43.65995" lon="3.84145">
        <ele>71</ele>
        <time>2020-10-25T14:37:21.000Z</time>
      </trkpt>
      <trkpt lat="43.65993" lon="3.84142">
        <ele>71</ele>
        <time>2020-10-25T14:37:22.000Z</time>
      </trkpt>
      <trkpt lat="43.65991" lon="3.84139">
        <ele>71</ele>
        <time>2020-10-25T14:37:23.000Z</time>
      </trkpt>
      <trkpt lat="43.65989" lon="3.84136">
        <ele>71</ele>
        <time>2020-10-25T14:37:24.000Z</time>
      </trkpt>
      <trkpt lat="43.65987" lon="3.84132">
        <ele>71</ele>
        <time>2020-10-25T14:37:25.000Z</time>
      </trkpt>
      <trkpt lat="43.65985" lon="3.84129">
        <ele>71</ele>
        <time>2020-10-25T14:37:26.000Z</time>
      </trkpt>
      <trkpt lat="43.65983" lon="3.84126">
        <ele>71</ele>
        <time>2020-10-25T14:37:27.000Z</time>
      </trkpt>
      <trkpt lat="43.65982" lon="3.84122">
        <ele>71</ele>
        <time>2020-10-25T14:37:28.000Z</time>
      </trkpt>
      <trkpt lat="43.6598" lon="3.84119">
        <ele>70.974732151853</ele>
        <time>2020-10-25T14:37:29.000Z</time>
      </trkpt>
      <trkpt lat="43.65978" lon="3.84115">
        <ele>70.877550512684</ele>
        <time>2020-10-25T14:37:30.000Z</time>
      </trkpt>
      <trkpt lat="43.65976" lon="3.84112">
        <ele>70.780368873514</ele>
        <time>2020-10-25T14:37:31.000Z</time>
      </trkpt>
      <trkpt lat="43.65975" lon="3.84108">
        <ele>70.683187234344</ele>
        <time>2020-10-25T14:37:32.000Z</time>
      </trkpt>
      <trkpt lat="43.65973" lon="3.84105">
        <ele>70.586005595175</ele>
        <time>2020-10-25T14:37:33.000Z</time>
      </trkpt>
      <trkpt lat="43.65972" lon="3.84101">
        <ele>70.488823956005</ele>
        <time>2020-10-25T14:37:34.000Z</time>
      </trkpt>
      <trkpt lat="43.6597" lon="3.84098">
        <ele>70.391642316835</ele>
        <time>2020-10-25T14:37:35.000Z</time>
      </trkpt>
      <trkpt lat="43.65969" lon="3.84094">
        <ele>70.294460677665</ele>
        <time>2020-10-25T14:37:36.000Z</time>
      </trkpt>
      <trkpt lat="43.65967" lon="3.84091">
        <ele>70.197279038496</ele>
        <time>2020-10-25T14:37:37.000Z</time>
      </trkpt>
      <trkpt lat="43.65965" lon="3.84087">
        <ele>70.100097399326</ele>
        <time>2020-10-25T14:37:38.000Z</time>
      </trkpt>
      <trkpt lat="43.65963" lon="3.84084">
        <ele>70.002915760156</ele>
        <time>2020-10-25T14:37:39.000Z</time>
      </trkpt>
      <trkpt lat="43.65962" lon="3.84081">
        <ele>70</ele>
        <time>2020-10-25T14:37:40.000Z</time>
      </trkpt>
      <trkpt lat="43.6596" lon="3.84078">
        <ele>70</ele>
        <time>2020-10-25T14:37:41.000Z</time>
      </trkpt>
      <trkpt lat="43.65958" lon="3.84075">
        <ele>70</ele>
        <time>2020-10-25T14:37:42.000Z</time>
      </trkpt>
      <trkpt lat="43.65956" lon="3.84072">
        <ele>70</ele>
        <time>2020-10-25T14:37:43.000Z</time>
      </trkpt>
      <trkpt lat="43.65954" lon="3.84069">
        <ele>70</ele>
        <time>2020-10-25T14:37:44.000Z</time>
      </trkpt>
      <trkpt lat="43.65953" lon="3.84066">
        <ele>70</ele>
        <time>2020-10-25T14:37:45.000Z</time>
      </trkpt>
      <trkpt lat="43.65951" lon="3.84063">
        <ele>70</ele>
        <time>2020-10-25T14:37:46.000Z</time>
      </trkpt>
      <trkpt lat="43.65949" lon="3.84061">
        <ele>70</ele>
        <time>2020-10-25T14:37:47.000Z</time>
      </trkpt>
      <trkpt lat="43.65947" lon="3.84059">
        <ele>70</ele>
        <time>2020-10-25T14:37:48.000Z</time>
      </trkpt>
      <trkpt lat="43.65945" lon="3.84057">
        <ele>70</ele>
        <time>2020-10-25T14:37:49.000Z</time>
      </trkpt>
      <trkpt lat="43.65943" lon="3.84055">
        <ele>70</ele>
        <time>2020-10-25T14:37:50.000Z</time>
      </trkpt>
      <trkpt lat="43.65941" lon="3.84053">
        <ele>70</ele>
        <time>2020-10-25T14:37:51.000Z</time>
      </trkpt>
      <trkpt lat="43.65939" lon="3.84051">
        <ele>70</ele>
        <time>2020-10-25T14:37:52.000Z</time>
      </trkpt>
      <trkpt lat="43.65937" lon="3.8405">
        <ele>70</ele>
        <time>2020-10-25T14:37:53.000Z</time>
      </trkpt>
      <trkpt lat="43.65935" lon="3.84048">
        <ele>70</ele>
        <time>2020-10-25T14:37:54.000Z</time>
      </trkpt>
      <trkpt lat="43.65933" lon="3.84046">
        <ele>70</ele>
        <time>2020-10-25T14:37:55.000Z</time>
      </trkpt>
      <trkpt lat="43.65932" lon="3.84044">
        <ele>70</ele>
        <time>2020-10-25T14:37:56.000Z</time>
      </trkpt>
      <trkpt lat="43.6593" lon="3.84041">
        <ele>70</ele>
        <time>2020-10-25T14:37:57.000Z</time>
      </trkpt>
      <trkpt lat="43.65929" lon="3.84039">
        <ele>70</ele>
        <time>2020-10-25T14:37:58.000Z</time>
      </trkpt>
      <trkpt lat="43.65928" lon="3.84037">
        <ele>70.001029536221</ele>
        <time>2020-10-25T14:37:59.000Z</time>
      </trkpt>
      <trkpt lat="43.65926" lon="3.84035">
        <ele>70.104016114022</ele>
        <time>2020-10-25T14:38:00.000Z</time>
      </trkpt>
      <trkpt lat="43.65925" lon="3.84032">
        <ele>70.207002691822</ele>
        <time>2020-10-25T14:38:01.000Z</time>
      </trkpt>
      <trkpt lat="43.65925" lon="3.84029">
        <ele>70.309989269623</ele>
        <time>2020-10-25T14:38:02.000Z</time>
      </trkpt>
      <trkpt lat="43.65925" lon="3.84026">
        <ele>70.412975847423</ele>
        <time>2020-10-25T14:38:03.000Z</time>
      </trkpt>
      <trkpt lat="43.65926" lon="3.84023">
        <ele>70.515962425224</ele>
        <time>2020-10-25T14:38:04.000Z</time>
      </trkpt>
      <trkpt lat="43.65927" lon="3.8402">
        <ele>70.618949003024</ele>
        <time>2020-10-25T14:38:05.000Z</time>
      </trkpt>
      <trkpt lat="43.65927" lon="3.84017">
        <ele>70.721935580825</ele>
        <time>2020-10-25T14:38:06.000Z</time>
      </trkpt>
      <trkpt lat="43.65928" lon="3.84014">
        <ele>70.824922158625</ele>
        <time>2020-10-25T14:38:07.000Z</time>
      </trkpt>
      <trkpt lat="43.65929" lon="3.84011">
        <ele>70.927908736426</ele>
        <time>2020-10-25T14:38:08.000Z</time>
      </trkpt>
      <trkpt lat="43.6593" lon="3.84008">
        <ele>71</ele>
        <time>2020-10-25T14:38:09.000Z</time>
      </trkpt>
      <trkpt lat="43.65931" lon="3.84005">
        <ele>71</ele>
        <time>2020-10-25T14:38:10.000Z</time>
      </trkpt>
      <trkpt lat="43.65931" lon="3.84002">
        <ele>71</ele>
        <time>2020-10-25T14:38:11.000Z</time>
      </trkpt>
      <trkpt lat="43.65932" lon="3.83999">
        <ele>71</ele>
        <time>2020-10-25T14:38:12.000Z</time>
      </trkpt>
      <trkpt lat="43.65933" lon="3.83995">
        <ele>71</ele>
        <time>2020-10-25T14:38:13.000Z</time>
      </trkpt>
      <trkpt lat="43.65933" lon="3.83992">
        <ele>71</ele>
        <time>2020-10-25T14:38:14.000Z</time>
      </trkpt>
      <trkpt lat="43.65933" lon="3.83989">
        <ele>71</ele>
        <time>2020-10-25T14:38:15.000Z</time>
      </trkpt>
      <trkpt lat="43.65934" lon="3.83986">
        <ele>71</ele>
        <time>2020-10-25T14:38:16.000Z</time>
      </trkpt>
      <trkpt lat="43.65934" lon="3.83982">
        <ele>71</ele>
        <time>2020-10-25T14:38:17.000Z</time>
      </trkpt>
      <trkpt lat="43.65935" lon="3.83979">
        <ele>71</ele>
        <time>2020-10-25T14:38:18.000Z</time>
      </trkpt>
      <trkpt lat="43.65936" lon="3.83975">
        <ele>71</ele>
        <time>2020-10-25T14:38:19.000Z</time>
      </trkpt>
      <trkpt lat="43.65936" lon="3.83972">
        <ele>71</ele>
        <time>2020-10-25T14:38:20.000Z</time>
      </trkpt>
      <trkpt lat="43.65936" lon="3.83968">
        <ele>71</ele>
        <time>2020-10-25T14:38:21.000Z</time>
      </trkpt>
      <trkpt lat="43.65936" lon="3.83965">
        <ele>71</ele>
        <time>2020-10-25T14:38:22.000Z</time>
      </trkpt>
      <trkpt lat="43.65936" lon="3.83962">
        <ele>71</ele>
        <time>2020-10-25T14:38:23.000Z</time>
      </trkpt>
      <trkpt lat="43.65936" lon="3.83958">
        <ele>71</ele>
        <time>2020-10-25T14:38:24.000Z</time>
      </trkpt>
      <trkpt lat="43.65937" lon="3.83955">
        <ele>71</ele>
        <time>2020-10-25T14:38:25.000Z</time>
      </trkpt>
      <trkpt lat="43.65937" lon="3.83952">
        <ele>71</ele>
        <time>2020-10-25T14:38:26.000Z</time>
      </trkpt>
      <trkpt lat="43.65936" lon="3.83948">
        <ele>71</ele>
        <time>2020-10-25T14:38:27.000Z</time>
      </trkpt>
      <trkpt lat="43.65936" lon="3.83945">
        <ele>71</ele>
        <time>2020-10-25T14:38:28.000Z</time>
      </trkpt>
      <trkpt lat="43.65936" lon="3.83941">
        <ele>71</ele>
        <time>2020-10-25T14:38:29.000Z</time>
      </trkpt>
      <trkpt lat="43.65937" lon="3.83938">
        <ele>71</ele>
        <time>2020-10-25T14:38:30.000Z</time>
      </trkpt>
      <trkpt lat="43.65937" lon="3.83934">
        <ele>71</ele>
        <time>2020-10-25T14:38:31.000Z</time>
      </trkpt>
      <trkpt lat="43.65938" lon="3.83931">
        <ele>71</ele>
        <time>2020-10-25T14:38:32.000Z</time>
      </trkpt>
      <trkpt lat="43.65938" lon="3.83929">
        <ele>71</ele>
        <time>2020-10-25T14:38:33.000Z</time>
      </trkpt>
      <trkpt lat="43.65938" lon="3.83924">
        <ele>71</ele>
        <time>2020-10-25T14:38:35.000Z</time>
      </trkpt>
      <trkpt lat="43.65938" lon="3.83919">
        <ele>71</ele>
        <time>2020-10-25T14:38:37.000Z</time>
      </trkpt>
      <trkpt lat="43.65939" lon="3.83916">
        <ele>71</ele>
        <time>2020-10-25T14:38:38.000Z</time>
      </trkpt>
      <trkpt lat="43.65939" lon="3.83913">
        <ele>71.02902869941</ele>
        <time>2020-10-25T14:38:39.000Z</time>
      </trkpt>
      <trkpt lat="43.65939" lon="3.83909">
        <ele>71.129128767446</ele>
        <time>2020-10-25T14:38:40.000Z</time>
      </trkpt>
      <trkpt lat="43.65939" lon="3.83906">
        <ele>71.229228835482</ele>
        <time>2020-10-25T14:38:41.000Z</time>
      </trkpt>
      <trkpt lat="43.65939" lon="3.83903">
        <ele>71.329328903518</ele>
        <time>2020-10-25T14:38:42.000Z</time>
      </trkpt>
      <trkpt lat="43.6594" lon="3.839">
        <ele>71.429428971554</ele>
        <time>2020-10-25T14:38:43.000Z</time>
      </trkpt>
      <trkpt lat="43.6594" lon="3.83896">
        <ele>71.52952903959</ele>
        <time>2020-10-25T14:38:44.000Z</time>
      </trkpt>
      <trkpt lat="43.6594" lon="3.83893">
        <ele>71.629629107626</ele>
        <time>2020-10-25T14:38:45.000Z</time>
      </trkpt>
      <trkpt lat="43.6594" lon="3.8389">
        <ele>71.729729175662</ele>
        <time>2020-10-25T14:38:46.000Z</time>
      </trkpt>
      <trkpt lat="43.65941" lon="3.83886">
        <ele>71.829829243698</ele>
        <time>2020-10-25T14:38:47.000Z</time>
      </trkpt>
      <trkpt lat="43.65941" lon="3.83883">
        <ele>71.929929311734</ele>
        <time>2020-10-25T14:38:48.000Z</time>
      </trkpt>
      <trkpt lat="43.65941" lon="3.8388">
        <ele>72</ele>
        <time>2020-10-25T14:38:49.000Z</time>
      </trkpt>
      <trkpt lat="43.65941" lon="3.83877">
        <ele>72</ele>
        <time>2020-10-25T14:38:50.000Z</time>
      </trkpt>
      <trkpt lat="43.65941" lon="3.83874">
        <ele>72</ele>
        <time>2020-10-25T14:38:51.000Z</time>
      </trkpt>
      <trkpt lat="43.65941" lon="3.83871">
        <ele>72</ele>
        <time>2020-10-25T14:38:52.000Z</time>
      </trkpt>
      <trkpt lat="43.65941" lon="3.83868">
        <ele>72</ele>
        <time>2020-10-25T14:38:53.000Z</time>
      </trkpt>
      <trkpt lat="43.65941" lon="3.83865">
        <ele>72</ele>
        <time>2020-10-25T14:38:54.000Z</time>
      </trkpt>
      <trkpt lat="43.6594" lon="3.83862">
        <ele>72</ele>
        <time>2020-10-25T14:38:55.000Z</time>
      </trkpt>
      <trkpt lat="43.6594" lon="3.83859">
        <ele>72</ele>
        <time>2020-10-25T14:38:56.000Z</time>
      </trkpt>
      <trkpt lat="43.65941" lon="3.83855">
        <ele>72</ele>
        <time>2020-10-25T14:38:57.000Z</time>
      </trkpt>
      <trkpt lat="43.65941" lon="3.83852">
        <ele>72</ele>
        <time>2020-10-25T14:38:58.000Z</time>
      </trkpt>
      <trkpt lat="43.6594" lon="3.83848">
        <ele>72.02999936</ele>
        <time>2020-10-25T14:38:59.000Z</time>
      </trkpt>
      <trkpt lat="43.6594" lon="3.83844">
        <ele>72.12999936</ele>
        <time>2020-10-25T14:39:00.000Z</time>
      </trkpt>
      <trkpt lat="43.6594" lon="3.8384">
        <ele>72.22999936</ele>
        <time>2020-10-25T14:39:01.000Z</time>
      </trkpt>
      <trkpt lat="43.65939" lon="3.83836">
        <ele>72.32999936</ele>
        <time>2020-10-25T14:39:02.000Z</time>
      </trkpt>
      <trkpt lat="43.65939" lon="3.83832">
        <ele>72.42999936</ele>
        <time>2020-10-25T14:39:03.000Z</time>
      </trkpt>
      <trkpt lat="43.65938" lon="3.83828">
        <ele>72.52999936</ele>
        <time>2020-10-25T14:39:04.000Z</time>
      </trkpt>
      <trkpt lat="43.65938" lon="3.83825">
        <ele>72.62999936</ele>
        <time>2020-10-25T14:39:05.000Z</time>
      </trkpt>
      <trkpt lat="43.65937" lon="3.83821">
        <ele>72.72999936</ele>
        <time>2020-10-25T14:39:06.000Z</time>
      </trkpt>
      <trkpt lat="43.65936" lon="3.83819">
        <ele>72.82999936</ele>
        <time>2020-10-25T14:39:07.000Z</time>
      </trkpt>
      <trkpt lat="43.65935" lon="3.83816">
        <ele>72.92999936</ele>
        <time>2020-10-25T14:39:08.000Z</time>
      </trkpt>
      <trkpt lat="43.65934" lon="3.83814">
        <ele>73</ele>
        <time>2020-10-25T14:39:09.000Z</time>
      </trkpt>
      <trkpt lat="43.65934" lon="3.83811">
        <ele>73</ele>
        <time>2020-10-25T14:39:10.000Z</time>
      </trkpt>
      <trkpt lat="43.65933" lon="3.83809">
        <ele>73</ele>
        <time>2020-10-25T14:39:11.000Z</time>
      </trkpt>
      <trkpt lat="43.65933" lon="3.83807">
        <ele>73</ele>
        <time>2020-10-25T14:39:12.000Z</time>
      </trkpt>
      <trkpt lat="43.65933" lon="3.83804">
        <ele>73</ele>
        <time>2020-10-25T14:39:13.000Z</time>
      </trkpt>
      <trkpt lat="43.65932" lon="3.838">
        <ele>73</ele>
        <time>2020-10-25T14:39:14.000Z</time>
      </trkpt>
      <trkpt lat="43.65932" lon="3.83797">
        <ele>73</ele>
        <time>2020-10-25T14:39:15.000Z</time>
      </trkpt>
      <trkpt lat="43.65931" lon="3.83793">
        <ele>73</ele>
        <time>2020-10-25T14:39:16.000Z</time>
      </trkpt>
      <trkpt lat="43.6593" lon="3.8379">
        <ele>73</ele>
        <time>2020-10-25T14:39:17.000Z</time>
      </trkpt>
      <trkpt lat="43.65929" lon="3.83787">
        <ele>73</ele>
        <time>2020-10-25T14:39:18.000Z</time>
      </trkpt>
      <trkpt lat="43.65927" lon="3.83784">
        <ele>73</ele>
        <time>2020-10-25T14:39:20.000Z</time>
      </trkpt>
      <trkpt lat="43.65928" lon="3.83783">
        <ele>73</ele>
        <time>2020-10-25T14:39:26.000Z</time>
      </trkpt>
      <trkpt lat="43.65927" lon="3.83775">
        <ele>73</ele>
        <time>2020-10-25T14:39:39.000Z</time>
      </trkpt>
      <trkpt lat="43.65927" lon="3.83775">
        <ele>73</ele>
        <time>2020-10-25T14:39:44.000Z</time>
      </trkpt>
      <trkpt lat="43.65919" lon="3.83771">
        <ele>73</ele>
        <time>2020-10-25T14:39:59.000Z</time>
      </trkpt>
      <trkpt lat="43.65918" lon="3.8377">
        <ele>73</ele>
        <time>2020-10-25T14:40:00.000Z</time>
      </trkpt>
      <trkpt lat="43.65916" lon="3.8377">
        <ele>73</ele>
        <time>2020-10-25T14:40:01.000Z</time>
      </trkpt>
      <trkpt lat="43.65914" lon="3.83769">
        <ele>73</ele>
        <time>2020-10-25T14:40:02.000Z</time>
      </trkpt>
      <trkpt lat="43.65911" lon="3.83769">
        <ele>73</ele>
        <time>2020-10-25T14:40:03.000Z</time>
      </trkpt>
      <trkpt lat="43.65908" lon="3.83768">
        <ele>73</ele>
        <time>2020-10-25T14:40:04.000Z</time>
      </trkpt>
      <trkpt lat="43.65906" lon="3.83767">
        <ele>73</ele>
        <time>2020-10-25T14:40:05.000Z</time>
      </trkpt>
      <trkpt lat="43.65902" lon="3.83766">
        <ele>73</ele>
        <time>2020-10-25T14:40:06.000Z</time>
      </trkpt>
      <trkpt lat="43.65899" lon="3.83766">
        <ele>73</ele>
        <time>2020-10-25T14:40:07.000Z</time>
      </trkpt>
      <trkpt lat="43.65896" lon="3.83765">
        <ele>73</ele>
        <time>2020-10-25T14:40:08.000Z</time>
      </trkpt>
      <trkpt lat="43.65892" lon="3.83764">
        <ele>73</ele>
        <time>2020-10-25T14:40:09.000Z</time>
      </trkpt>
      <trkpt lat="43.65889" lon="3.83763">
        <ele>73</ele>
        <time>2020-10-25T14:40:10.000Z</time>
      </trkpt>
      <trkpt lat="43.65886" lon="3.83763">
        <ele>73</ele>
        <time>2020-10-25T14:40:11.000Z</time>
      </trkpt>
      <trkpt lat="43.65882" lon="3.83762">
        <ele>73</ele>
        <time>2020-10-25T14:40:12.000Z</time>
      </trkpt>
      <trkpt lat="43.65879" lon="3.83762">
        <ele>73</ele>
        <time>2020-10-25T14:40:13.000Z</time>
      </trkpt>
      <trkpt lat="43.65875" lon="3.83761">
        <ele>73</ele>
        <time>2020-10-25T14:40:14.000Z</time>
      </trkpt>
      <trkpt lat="43.65872" lon="3.83761">
        <ele>73</ele>
        <time>2020-10-25T14:40:15.000Z</time>
      </trkpt>
      <trkpt lat="43.65868" lon="3.83761">
        <ele>73</ele>
        <time>2020-10-25T14:40:16.000Z</time>
      </trkpt>
      <trkpt lat="43.65865" lon="3.83761">
        <ele>73</ele>
        <time>2020-10-25T14:40:17.000Z</time>
      </trkpt>
      <trkpt lat="43.65861" lon="3.8376">
        <ele>73</ele>
        <time>2020-10-25T14:40:18.000Z</time>
      </trkpt>
      <trkpt lat="43.65858" lon="3.8376">
        <ele>73</ele>
        <time>2020-10-25T14:40:19.000Z</time>
      </trkpt>
      <trkpt lat="43.65854" lon="3.8376">
        <ele>72.899897098005</ele>
        <time>2020-10-25T14:40:20.000Z</time>
      </trkpt>
      <trkpt lat="43.65851" lon="3.8376">
        <ele>72.796697889518</ele>
        <time>2020-10-25T14:40:21.000Z</time>
      </trkpt>
      <trkpt lat="43.65848" lon="3.8376">
        <ele>72.693498681032</ele>
        <time>2020-10-25T14:40:22.000Z</time>
      </trkpt>
      <trkpt lat="43.65845" lon="3.8376">
        <ele>72.590299472545</ele>
        <time>2020-10-25T14:40:23.000Z</time>
      </trkpt>
      <trkpt lat="43.65842" lon="3.83761">
        <ele>72.487100264058</ele>
        <time>2020-10-25T14:40:24.000Z</time>
      </trkpt>
      <trkpt lat="43.65839" lon="3.83761">
        <ele>72.383901055571</ele>
        <time>2020-10-25T14:40:25.000Z</time>
      </trkpt>
      <trkpt lat="43.65836" lon="3.83761">
        <ele>72.280701847084</ele>
        <time>2020-10-25T14:40:26.000Z</time>
      </trkpt>
      <trkpt lat="43.65834" lon="3.83761">
        <ele>72.177502638597</ele>
        <time>2020-10-25T14:40:27.000Z</time>
      </trkpt>
      <trkpt lat="43.65831" lon="3.83761">
        <ele>72.074303430111</ele>
        <time>2020-10-25T14:40:28.000Z</time>
      </trkpt>
      <trkpt lat="43.65828" lon="3.83762">
        <ele>72.055009857767</ele>
        <time>2020-10-25T14:40:29.000Z</time>
      </trkpt>
      <trkpt lat="43.65825" lon="3.83762">
        <ele>72.251473635504</ele>
        <time>2020-10-25T14:40:30.000Z</time>
      </trkpt>
      <trkpt lat="43.65822" lon="3.83762">
        <ele>72.447937413242</ele>
        <time>2020-10-25T14:40:31.000Z</time>
      </trkpt>
      <trkpt lat="43.65819" lon="3.83763">
        <ele>72.644401190979</ele>
        <time>2020-10-25T14:40:32.000Z</time>
      </trkpt>
      <trkpt lat="43.65815" lon="3.83763">
        <ele>72.840864968717</ele>
        <time>2020-10-25T14:40:33.000Z</time>
      </trkpt>
      <trkpt lat="43.65811" lon="3.83764">
        <ele>73.037328746454</ele>
        <time>2020-10-25T14:40:34.000Z</time>
      </trkpt>
      <trkpt lat="43.65808" lon="3.83764">
        <ele>73.233792524192</ele>
        <time>2020-10-25T14:40:35.000Z</time>
      </trkpt>
      <trkpt lat="43.65804" lon="3.83764">
        <ele>73.430256301929</ele>
        <time>2020-10-25T14:40:36.000Z</time>
      </trkpt>
      <trkpt lat="43.658" lon="3.83764">
        <ele>73.626720079667</ele>
        <time>2020-10-25T14:40:37.000Z</time>
      </trkpt>
      <trkpt lat="43.65797" lon="3.83765">
        <ele>73.823183857404</ele>
        <time>2020-10-25T14:40:38.000Z</time>
      </trkpt>
      <trkpt lat="43.65793" lon="3.83767">
        <ele>74.010183944483</ele>
        <time>2020-10-25T14:40:39.000Z</time>
      </trkpt>
      <trkpt lat="43.6579" lon="3.83769">
        <ele>74.112016872005</ele>
        <time>2020-10-25T14:40:40.000Z</time>
      </trkpt>
      <trkpt lat="43.65786" lon="3.83769">
        <ele>74.213849799528</ele>
        <time>2020-10-25T14:40:41.000Z</time>
      </trkpt>
      <trkpt lat="43.65783" lon="3.83769">
        <ele>74.31568272705</ele>
        <time>2020-10-25T14:40:42.000Z</time>
      </trkpt>
      <trkpt lat="43.6578" lon="3.83769">
        <ele>74.417515654572</ele>
        <time>2020-10-25T14:40:43.000Z</time>
      </trkpt>
      <trkpt lat="43.65777" lon="3.83769">
        <ele>74.519348582095</ele>
        <time>2020-10-25T14:40:44.000Z</time>
      </trkpt>
      <trkpt lat="43.65774" lon="3.83768">
        <ele>74.621181509617</ele>
        <time>2020-10-25T14:40:45.000Z</time>
      </trkpt>
      <trkpt lat="43.65771" lon="3.83768">
        <ele>74.723014437139</ele>
        <time>2020-10-25T14:40:46.000Z</time>
      </trkpt>
      <trkpt lat="43.65768" lon="3.83767">
        <ele>74.824847364662</ele>
        <time>2020-10-25T14:40:47.000Z</time>
      </trkpt>
      <trkpt lat="43.65765" lon="3.83766">
        <ele>74.926680292184</ele>
        <time>2020-10-25T14:40:48.000Z</time>
      </trkpt>
      <trkpt lat="43.65762" lon="3.83765">
        <ele>75.028056094233</ele>
        <time>2020-10-25T14:40:49.000Z</time>
      </trkpt>
      <trkpt lat="43.6576" lon="3.83764">
        <ele>75.128256430777</ele>
        <time>2020-10-25T14:40:50.000Z</time>
      </trkpt>
      <trkpt lat="43.65757" lon="3.83764">
        <ele>75.228456767322</ele>
        <time>2020-10-25T14:40:51.000Z</time>
      </trkpt>
      <trkpt lat="43.65755" lon="3.83763">
        <ele>75.328657103867</ele>
        <time>2020-10-25T14:40:52.000Z</time>
      </trkpt>
      <trkpt lat="43.65752" lon="3.83762">
        <ele>75.428857440412</ele>
        <time>2020-10-25T14:40:53.000Z</time>
      </trkpt>
      <trkpt lat="43.6575" lon="3.83762">
        <ele>75.529057776957</ele>
        <time>2020-10-25T14:40:54.000Z</time>
      </trkpt>
      <trkpt lat="43.65747" lon="3.83761">
        <ele>75.629258113502</ele>
        <time>2020-10-25T14:40:55.000Z</time>
      </trkpt>
      <trkpt lat="43.65745" lon="3.8376">
        <ele>75.729458450047</ele>
        <time>2020-10-25T14:40:56.000Z</time>
      </trkpt>
      <trkpt lat="43.65743" lon="3.83759">
        <ele>75.829658786592</ele>
        <time>2020-10-25T14:40:57.000Z</time>
      </trkpt>
      <trkpt lat="43.65741" lon="3.83759">
        <ele>75.929859123136</ele>
        <time>2020-10-25T14:40:58.000Z</time>
      </trkpt>
      <trkpt lat="43.65738" lon="3.83758">
        <ele>76</ele>
        <time>2020-10-25T14:40:59.000Z</time>
      </trkpt>
      <trkpt lat="43.65736" lon="3.83757">
        <ele>76</ele>
        <time>2020-10-25T14:41:00.000Z</time>
      </trkpt>
      <trkpt lat="43.65734" lon="3.83756">
        <ele>76</ele>
        <time>2020-10-25T14:41:01.000Z</time>
      </trkpt>
      <trkpt lat="43.65731" lon="3.83756">
        <ele>76</ele>
        <time>2020-10-25T14:41:02.000Z</time>
      </trkpt>
      <trkpt lat="43.65729" lon="3.83755">
        <ele>76</ele>
        <time>2020-10-25T14:41:03.000Z</time>
      </trkpt>
      <trkpt lat="43.65727" lon="3.83755">
        <ele>76</ele>
        <time>2020-10-25T14:41:04.000Z</time>
      </trkpt>
      <trkpt lat="43.65724" lon="3.83754">
        <ele>76</ele>
        <time>2020-10-25T14:41:05.000Z</time>
      </trkpt>
      <trkpt lat="43.65722" lon="3.83754">
        <ele>76</ele>
        <time>2020-10-25T14:41:06.000Z</time>
      </trkpt>
      <trkpt lat="43.65719" lon="3.83753">
        <ele>76</ele>
        <time>2020-10-25T14:41:07.000Z</time>
      </trkpt>
      <trkpt lat="43.65717" lon="3.83752">
        <ele>76</ele>
        <time>2020-10-25T14:41:08.000Z</time>
      </trkpt>
      <trkpt lat="43.65714" lon="3.83751">
        <ele>76.00616714705</ele>
        <time>2020-10-25T14:41:09.000Z</time>
      </trkpt>
      <trkpt lat="43.65712" lon="3.83751">
        <ele>76.211716790084</ele>
        <time>2020-10-25T14:41:10.000Z</time>
      </trkpt>
      <trkpt lat="43.65709" lon="3.8375">
        <ele>76.417266433118</ele>
        <time>2020-10-25T14:41:11.000Z</time>
      </trkpt>
      <trkpt lat="43.65707" lon="3.83749">
        <ele>76.622816076153</ele>
        <time>2020-10-25T14:41:12.000Z</time>
      </trkpt>
      <trkpt lat="43.65704" lon="3.83749">
        <ele>76.828365719187</ele>
        <time>2020-10-25T14:41:13.000Z</time>
      </trkpt>
      <trkpt lat="43.65702" lon="3.83748">
        <ele>77.033915362221</ele>
        <time>2020-10-25T14:41:14.000Z</time>
      </trkpt>
      <trkpt lat="43.65699" lon="3.83747">
        <ele>77.239465005255</ele>
        <time>2020-10-25T14:41:15.000Z</time>
      </trkpt>
      <trkpt lat="43.65697" lon="3.83746">
        <ele>77.44501464829</ele>
        <time>2020-10-25T14:41:16.000Z</time>
      </trkpt>
      <trkpt lat="43.65694" lon="3.83746">
        <ele>77.650564291324</ele>
        <time>2020-10-25T14:41:17.000Z</time>
      </trkpt>
      <trkpt lat="43.65691" lon="3.83745">
        <ele>77.856113934358</ele>
        <time>2020-10-25T14:41:18.000Z</time>
      </trkpt>
      <trkpt lat="43.65689" lon="3.83745">
        <ele>78.02996940019</ele>
        <time>2020-10-25T14:41:19.000Z</time>
      </trkpt>
      <trkpt lat="43.65686" lon="3.83744">
        <ele>78.129869532026</ele>
        <time>2020-10-25T14:41:20.000Z</time>
      </trkpt>
      <trkpt lat="43.65684" lon="3.83744">
        <ele>78.229769663862</ele>
        <time>2020-10-25T14:41:21.000Z</time>
      </trkpt>
      <trkpt lat="43.65681" lon="3.83743">
        <ele>78.329669795699</ele>
        <time>2020-10-25T14:41:22.000Z</time>
      </trkpt>
      <trkpt lat="43.65678" lon="3.83742">
        <ele>78.429569927535</ele>
        <time>2020-10-25T14:41:23.000Z</time>
      </trkpt>
      <trkpt lat="43.65676" lon="3.83741">
        <ele>78.529470059371</ele>
        <time>2020-10-25T14:41:24.000Z</time>
      </trkpt>
      <trkpt lat="43.65673" lon="3.83741">
        <ele>78.629370191207</ele>
        <time>2020-10-25T14:41:25.000Z</time>
      </trkpt>
      <trkpt lat="43.65671" lon="3.8374">
        <ele>78.729270323043</ele>
        <time>2020-10-25T14:41:26.000Z</time>
      </trkpt>
      <trkpt lat="43.65668" lon="3.83739">
        <ele>78.82917045488</ele>
        <time>2020-10-25T14:41:27.000Z</time>
      </trkpt>
      <trkpt lat="43.65666" lon="3.83738">
        <ele>78.929070586716</ele>
        <time>2020-10-25T14:41:28.000Z</time>
      </trkpt>
      <trkpt lat="43.65663" lon="3.83738">
        <ele>79.02902869941</ele>
        <time>2020-10-25T14:41:29.000Z</time>
      </trkpt>
      <trkpt lat="43.65661" lon="3.83737">
        <ele>79.129128767446</ele>
        <time>2020-10-25T14:41:30.000Z</time>
      </trkpt>
      <trkpt lat="43.65658" lon="3.83737">
        <ele>79.229228835482</ele>
        <time>2020-10-25T14:41:31.000Z</time>
      </trkpt>
      <trkpt lat="43.65656" lon="3.83736">
        <ele>79.329328903518</ele>
        <time>2020-10-25T14:41:32.000Z</time>
      </trkpt>
      <trkpt lat="43.65653" lon="3.83735">
        <ele>79.429428971554</ele>
        <time>2020-10-25T14:41:33.000Z</time>
      </trkpt>
      <trkpt lat="43.65651" lon="3.83735">
        <ele>79.52952903959</ele>
        <time>2020-10-25T14:41:34.000Z</time>
      </trkpt>
      <trkpt lat="43.65648" lon="3.83734">
        <ele>79.629629107626</ele>
        <time>2020-10-25T14:41:35.000Z</time>
      </trkpt>
      <trkpt lat="43.65646" lon="3.83733">
        <ele>79.729729175662</ele>
        <time>2020-10-25T14:41:36.000Z</time>
      </trkpt>
      <trkpt lat="43.65643" lon="3.83733">
        <ele>79.829829243698</ele>
        <time>2020-10-25T14:41:37.000Z</time>
      </trkpt>
      <trkpt lat="43.6564" lon="3.83732">
        <ele>79.929929311734</ele>
        <time>2020-10-25T14:41:38.000Z</time>
      </trkpt>
      <trkpt lat="43.65638" lon="3.83731">
        <ele>80.05999872</ele>
        <time>2020-10-25T14:41:39.000Z</time>
      </trkpt>
      <trkpt lat="43.65635" lon="3.83731">
        <ele>80.25999872</ele>
        <time>2020-10-25T14:41:40.000Z</time>
      </trkpt>
      <trkpt lat="43.65633" lon="3.8373">
        <ele>80.45999872</ele>
        <time>2020-10-25T14:41:41.000Z</time>
      </trkpt>
      <trkpt lat="43.6563" lon="3.83729">
        <ele>80.65999872</ele>
        <time>2020-10-25T14:41:42.000Z</time>
      </trkpt>
      <trkpt lat="43.65628" lon="3.83728">
        <ele>80.85999872</ele>
        <time>2020-10-25T14:41:43.000Z</time>
      </trkpt>
      <trkpt lat="43.65625" lon="3.83728">
        <ele>81.05999872</ele>
        <time>2020-10-25T14:41:44.000Z</time>
      </trkpt>
      <trkpt lat="43.65623" lon="3.83727">
        <ele>81.25999872</ele>
        <time>2020-10-25T14:41:45.000Z</time>
      </trkpt>
      <trkpt lat="43.65621" lon="3.83726">
        <ele>81.45999872</ele>
        <time>2020-10-25T14:41:46.000Z</time>
      </trkpt>
      <trkpt lat="43.65618" lon="3.83726">
        <ele>81.65999872</ele>
        <time>2020-10-25T14:41:47.000Z</time>
      </trkpt>
      <trkpt lat="43.65616" lon="3.83725">
        <ele>81.85999872</ele>
        <time>2020-10-25T14:41:48.000Z</time>
      </trkpt>
      <trkpt lat="43.65614" lon="3.83724">
        <ele>82.029939500161</ele>
        <time>2020-10-25T14:41:49.000Z</time>
      </trkpt>
      <trkpt lat="43.65611" lon="3.83723">
        <ele>82.129739963107</ele>
        <time>2020-10-25T14:41:50.000Z</time>
      </trkpt>
      <trkpt lat="43.65609" lon="3.83723">
        <ele>82.229540426054</ele>
        <time>2020-10-25T14:41:51.000Z</time>
      </trkpt>
      <trkpt lat="43.65607" lon="3.83721">
        <ele>82.329340889</ele>
        <time>2020-10-25T14:41:52.000Z</time>
      </trkpt>
      <trkpt lat="43.65605" lon="3.8372">
        <ele>82.429141351947</ele>
        <time>2020-10-25T14:41:53.000Z</time>
      </trkpt>
      <trkpt lat="43.65603" lon="3.83719">
        <ele>82.528941814893</ele>
        <time>2020-10-25T14:41:54.000Z</time>
      </trkpt>
      <trkpt lat="43.65601" lon="3.83717">
        <ele>82.628742277839</ele>
        <time>2020-10-25T14:41:55.000Z</time>
      </trkpt>
      <trkpt lat="43.65599" lon="3.83715">
        <ele>82.728542740786</ele>
        <time>2020-10-25T14:41:56.000Z</time>
      </trkpt>
      <trkpt lat="43.65598" lon="3.83712">
        <ele>82.828343203732</ele>
        <time>2020-10-25T14:41:57.000Z</time>
      </trkpt>
      <trkpt lat="43.65596" lon="3.8371">
        <ele>82.928143666679</ele>
        <time>2020-10-25T14:41:58.000Z</time>
      </trkpt>
      <trkpt lat="43.65595" lon="3.83707">
        <ele>83.027158090504</ele>
        <time>2020-10-25T14:41:59.000Z</time>
      </trkpt>
      <trkpt lat="43.65593" lon="3.83706">
        <ele>83.124151270875</ele>
        <time>2020-10-25T14:42:00.000Z</time>
      </trkpt>
      <trkpt lat="43.65591" lon="3.83704">
        <ele>83.221144451245</ele>
        <time>2020-10-25T14:42:01.000Z</time>
      </trkpt>
      <trkpt lat="43.65588" lon="3.83704">
        <ele>83.318137631616</ele>
        <time>2020-10-25T14:42:02.000Z</time>
      </trkpt>
      <trkpt lat="43.65585" lon="3.83703">
        <ele>83.415130811987</ele>
        <time>2020-10-25T14:42:03.000Z</time>
      </trkpt>
      <trkpt lat="43.65583" lon="3.837">
        <ele>83.512123992357</ele>
        <time>2020-10-25T14:42:04.000Z</time>
      </trkpt>
      <trkpt lat="43.65582" lon="3.83696">
        <ele>83.609117172728</ele>
        <time>2020-10-25T14:42:05.000Z</time>
      </trkpt>
      <trkpt lat="43.65582" lon="3.83692">
        <ele>83.706110353099</ele>
        <time>2020-10-25T14:42:06.000Z</time>
      </trkpt>
      <trkpt lat="43.65582" lon="3.83688">
        <ele>83.803103533469</ele>
        <time>2020-10-25T14:42:07.000Z</time>
      </trkpt>
      <trkpt lat="43.65582" lon="3.83683">
        <ele>83.90009671384</ele>
        <time>2020-10-25T14:42:08.000Z</time>
      </trkpt>
      <trkpt lat="43.6558" lon="3.83679">
        <ele>83.997089894211</ele>
        <time>2020-10-25T14:42:09.000Z</time>
      </trkpt>
      <trkpt lat="43.65579" lon="3.83675">
        <ele>84.100309873734</ele>
        <time>2020-10-25T14:42:10.000Z</time>
      </trkpt>
      <trkpt lat="43.65577" lon="3.83671">
        <ele>84.203722455852</ele>
        <time>2020-10-25T14:42:11.000Z</time>
      </trkpt>
      <trkpt lat="43.65575" lon="3.83667">
        <ele>84.30713503797</ele>
        <time>2020-10-25T14:42:12.000Z</time>
      </trkpt>
      <trkpt lat="43.65575" lon="3.83663">
        <ele>84.410547620088</ele>
        <time>2020-10-25T14:42:13.000Z</time>
      </trkpt>
      <trkpt lat="43.65575" lon="3.83658">
        <ele>84.513960202205</ele>
        <time>2020-10-25T14:42:14.000Z</time>
      </trkpt>
      <trkpt lat="43.65575" lon="3.83653">
        <ele>84.617372784323</ele>
        <time>2020-10-25T14:42:15.000Z</time>
      </trkpt>
      <trkpt lat="43.65574" lon="3.83649">
        <ele>84.720785366441</ele>
        <time>2020-10-25T14:42:16.000Z</time>
      </trkpt>
      <trkpt lat="43.65573" lon="3.83645">
        <ele>84.824197948559</ele>
        <time>2020-10-25T14:42:17.000Z</time>
      </trkpt>
      <trkpt lat="43.65571" lon="3.83642">
        <ele>84.927610530677</ele>
        <time>2020-10-25T14:42:18.000Z</time>
      </trkpt>
      <trkpt lat="43.6557" lon="3.83638">
        <ele>85.08999808</ele>
        <time>2020-10-25T14:42:19.000Z</time>
      </trkpt>
      <trkpt lat="43.65568" lon="3.83634">
        <ele>85.38999808</ele>
        <time>2020-10-25T14:42:20.000Z</time>
      </trkpt>
      <trkpt lat="43.65567" lon="3.8363">
        <ele>85.68999808</ele>
        <time>2020-10-25T14:42:21.000Z</time>
      </trkpt>
      <trkpt lat="43.65565" lon="3.83627">
        <ele>85.98999808</ele>
        <time>2020-10-25T14:42:22.000Z</time>
      </trkpt>
      <trkpt lat="43.65564" lon="3.83623">
        <ele>86.28999808</ele>
        <time>2020-10-25T14:42:23.000Z</time>
      </trkpt>
      <trkpt lat="43.65562" lon="3.83619">
        <ele>86.58999808</ele>
        <time>2020-10-25T14:42:24.000Z</time>
      </trkpt>
      <trkpt lat="43.65561" lon="3.83615">
        <ele>86.88999808</ele>
        <time>2020-10-25T14:42:25.000Z</time>
      </trkpt>
      <trkpt lat="43.65559" lon="3.83611">
        <ele>87.18999808</ele>
        <time>2020-10-25T14:42:26.000Z</time>
      </trkpt>
      <trkpt lat="43.65558" lon="3.83607">
        <ele>87.48999808</ele>
        <time>2020-10-25T14:42:27.000Z</time>
      </trkpt>
      <trkpt lat="43.65556" lon="3.83603">
        <ele>87.78999808</ele>
        <time>2020-10-25T14:42:28.000Z</time>
      </trkpt>
      <trkpt lat="43.65555" lon="3.83599">
        <ele>88.02999936</ele>
        <time>2020-10-25T14:42:29.000Z</time>
      </trkpt>
      <trkpt lat="43.65553" lon="3.83595">
        <ele>88.12999936</ele>
        <time>2020-10-25T14:42:30.000Z</time>
      </trkpt>
      <trkpt lat="43.65552" lon="3.83592">
        <ele>88.22999936</ele>
        <time>2020-10-25T14:42:31.000Z</time>
      </trkpt>
      <trkpt lat="43.6555" lon="3.83588">
        <ele>88.32999936</ele>
        <time>2020-10-25T14:42:32.000Z</time>
      </trkpt>
      <trkpt lat="43.65548" lon="3.83584">
        <ele>88.42999936</ele>
        <time>2020-10-25T14:42:33.000Z</time>
      </trkpt>
      <trkpt lat="43.65546" lon="3.8358">
        <ele>88.52999936</ele>
        <time>2020-10-25T14:42:34.000Z</time>
      </trkpt>
      <trkpt lat="43.65544" lon="3.83576">
        <ele>88.62999936</ele>
        <time>2020-10-25T14:42:35.000Z</time>
      </trkpt>
      <trkpt lat="43.65542" lon="3.83572">
        <ele>88.72999936</ele>
        <time>2020-10-25T14:42:36.000Z</time>
      </trkpt>
      <trkpt lat="43.65541" lon="3.83568">
        <ele>88.82999936</ele>
        <time>2020-10-25T14:42:37.000Z</time>
      </trkpt>
      <trkpt lat="43.65539" lon="3.83564">
        <ele>88.92999936</ele>
        <time>2020-10-25T14:42:38.000Z</time>
      </trkpt>
      <trkpt lat="43.65538" lon="3.83561">
        <ele>89.08999808</ele>
        <time>2020-10-25T14:42:39.000Z</time>
      </trkpt>
      <trkpt lat="43.65536" lon="3.83557">
        <ele>89.38999808</ele>
        <time>2020-10-25T14:42:40.000Z</time>
      </trkpt>
      <trkpt lat="43.65535" lon="3.83553">
        <ele>89.68999808</ele>
        <time>2020-10-25T14:42:41.000Z</time>
      </trkpt>
      <trkpt lat="43.65533" lon="3.83549">
        <ele>89.98999808</ele>
        <time>2020-10-25T14:42:42.000Z</time>
      </trkpt>
      <trkpt lat="43.65532" lon="3.83545">
        <ele>90.28999808</ele>
        <time>2020-10-25T14:42:43.000Z</time>
      </trkpt>
      <trkpt lat="43.6553" lon="3.83541">
        <ele>90.58999808</ele>
        <time>2020-10-25T14:42:44.000Z</time>
      </trkpt>
      <trkpt lat="43.65529" lon="3.83537">
        <ele>90.88999808</ele>
        <time>2020-10-25T14:42:45.000Z</time>
      </trkpt>
      <trkpt lat="43.65527" lon="3.83532">
        <ele>91.18999808</ele>
        <time>2020-10-25T14:42:46.000Z</time>
      </trkpt>
      <trkpt lat="43.65526" lon="3.83528">
        <ele>91.48999808</ele>
        <time>2020-10-25T14:42:47.000Z</time>
      </trkpt>
      <trkpt lat="43.65524" lon="3.83524">
        <ele>91.78999808</ele>
        <time>2020-10-25T14:42:48.000Z</time>
      </trkpt>
      <trkpt lat="43.65522" lon="3.83521">
        <ele>92.02999936</ele>
        <time>2020-10-25T14:42:49.000Z</time>
      </trkpt>
      <trkpt lat="43.6552" lon="3.83518">
        <ele>92.12999936</ele>
        <time>2020-10-25T14:42:50.000Z</time>
      </trkpt>
      <trkpt lat="43.65518" lon="3.83514">
        <ele>92.22999936</ele>
        <time>2020-10-25T14:42:51.000Z</time>
      </trkpt>
      <trkpt lat="43.65516" lon="3.8351">
        <ele>92.32999936</ele>
        <time>2020-10-25T14:42:52.000Z</time>
      </trkpt>
      <trkpt lat="43.65513" lon="3.83507">
        <ele>92.42999936</ele>
        <time>2020-10-25T14:42:53.000Z</time>
      </trkpt>
      <trkpt lat="43.6551" lon="3.83505">
        <ele>92.52999936</ele>
        <time>2020-10-25T14:42:54.000Z</time>
      </trkpt>
      <trkpt lat="43.65508" lon="3.83502">
        <ele>92.62999936</ele>
        <time>2020-10-25T14:42:55.000Z</time>
      </trkpt>
      <trkpt lat="43.65505" lon="3.83499">
        <ele>92.72999936</ele>
        <time>2020-10-25T14:42:56.000Z</time>
      </trkpt>
      <trkpt lat="43.65503" lon="3.83497">
        <ele>92.82999936</ele>
        <time>2020-10-25T14:42:57.000Z</time>
      </trkpt>
      <trkpt lat="43.655" lon="3.83494">
        <ele>92.92999936</ele>
        <time>2020-10-25T14:42:58.000Z</time>
      </trkpt>
      <trkpt lat="43.65497" lon="3.83491">
        <ele>93.02999936</ele>
        <time>2020-10-25T14:42:59.000Z</time>
      </trkpt>
      <trkpt lat="43.65494" lon="3.83489">
        <ele>93.12999936</ele>
        <time>2020-10-25T14:43:00.000Z</time>
      </trkpt>
      <trkpt lat="43.65491" lon="3.83486">
        <ele>93.22999936</ele>
        <time>2020-10-25T14:43:01.000Z</time>
      </trkpt>
      <trkpt lat="43.65489" lon="3.83484">
        <ele>93.32999936</ele>
        <time>2020-10-25T14:43:02.000Z</time>
      </trkpt>
      <trkpt lat="43.65486" lon="3.83481">
        <ele>93.42999936</ele>
        <time>2020-10-25T14:43:03.000Z</time>
      </trkpt>
      <trkpt lat="43.65483" lon="3.83479">
        <ele>93.52999936</ele>
        <time>2020-10-25T14:43:04.000Z</time>
      </trkpt>
      <trkpt lat="43.65481" lon="3.83477">
        <ele>93.62999936</ele>
        <time>2020-10-25T14:43:05.000Z</time>
      </trkpt>
      <trkpt lat="43.65478" lon="3.83475">
        <ele>93.72999936</ele>
        <time>2020-10-25T14:43:06.000Z</time>
      </trkpt>
      <trkpt lat="43.65476" lon="3.83473">
        <ele>93.82999936</ele>
        <time>2020-10-25T14:43:07.000Z</time>
      </trkpt>
      <trkpt lat="43.65474" lon="3.83471">
        <ele>93.92999936</ele>
        <time>2020-10-25T14:43:08.000Z</time>
      </trkpt>
      <trkpt lat="43.65471" lon="3.83469">
        <ele>94.028984915773</ele>
        <time>2020-10-25T14:43:09.000Z</time>
      </trkpt>
      <trkpt lat="43.65469" lon="3.83467">
        <ele>94.125603362878</ele>
        <time>2020-10-25T14:43:10.000Z</time>
      </trkpt>
      <trkpt lat="43.65467" lon="3.83464">
        <ele>94.222221809983</ele>
        <time>2020-10-25T14:43:11.000Z</time>
      </trkpt>
      <trkpt lat="43.65464" lon="3.83461">
        <ele>94.318840257089</ele>
        <time>2020-10-25T14:43:12.000Z</time>
      </trkpt>
      <trkpt lat="43.65462" lon="3.83459">
        <ele>94.415458704194</ele>
        <time>2020-10-25T14:43:13.000Z</time>
      </trkpt>
      <trkpt lat="43.65459" lon="3.83457">
        <ele>94.512077151299</ele>
        <time>2020-10-25T14:43:14.000Z</time>
      </trkpt>
      <trkpt lat="43.65456" lon="3.83456">
        <ele>94.608695598404</ele>
        <time>2020-10-25T14:43:15.000Z</time>
      </trkpt>
      <trkpt lat="43.65453" lon="3.83455">
        <ele>94.705314045509</ele>
        <time>2020-10-25T14:43:16.000Z</time>
      </trkpt>
      <trkpt lat="43.65449" lon="3.83455">
        <ele>94.801932492614</ele>
        <time>2020-10-25T14:43:17.000Z</time>
      </trkpt>
      <trkpt lat="43.65446" lon="3.83454">
        <ele>94.898550939719</ele>
        <time>2020-10-25T14:43:18.000Z</time>
      </trkpt>
      <trkpt lat="43.65444" lon="3.83455">
        <ele>94.995169386824</ele>
        <time>2020-10-25T14:43:19.000Z</time>
      </trkpt>
      <trkpt lat="43.65442" lon="3.83456">
        <ele>95.095670040901</ele>
        <time>2020-10-25T14:43:20.000Z</time>
      </trkpt>
      <trkpt lat="43.65439" lon="3.83458">
        <ele>95.196375007895</ele>
        <time>2020-10-25T14:43:21.000Z</time>
      </trkpt>
      <trkpt lat="43.65437" lon="3.83461">
        <ele>95.29707997489</ele>
        <time>2020-10-25T14:43:22.000Z</time>
      </trkpt>
      <trkpt lat="43.65434" lon="3.83463">
        <ele>95.397784941884</ele>
        <time>2020-10-25T14:43:23.000Z</time>
      </trkpt>
      <trkpt lat="43.65432" lon="3.83465">
        <ele>95.498489908879</ele>
        <time>2020-10-25T14:43:24.000Z</time>
      </trkpt>
      <trkpt lat="43.6543" lon="3.83467">
        <ele>95.599194875873</ele>
        <time>2020-10-25T14:43:25.000Z</time>
      </trkpt>
      <trkpt lat="43.65428" lon="3.83469">
        <ele>95.699899842868</ele>
        <time>2020-10-25T14:43:26.000Z</time>
      </trkpt>
      <trkpt lat="43.65426" lon="3.83471">
        <ele>95.800604809863</ele>
        <time>2020-10-25T14:43:27.000Z</time>
      </trkpt>
      <trkpt lat="43.65424" lon="3.83473">
        <ele>95.901309776857</ele>
        <time>2020-10-25T14:43:28.000Z</time>
      </trkpt>
      <trkpt lat="43.65422" lon="3.83475">
        <ele>96</ele>
        <time>2020-10-25T14:43:29.000Z</time>
      </trkpt>
      <trkpt lat="43.6542" lon="3.83477">
        <ele>96</ele>
        <time>2020-10-25T14:43:30.000Z</time>
      </trkpt>
      <trkpt lat="43.65418" lon="3.83479">
        <ele>96</ele>
        <time>2020-10-25T14:43:31.000Z</time>
      </trkpt>
      <trkpt lat="43.65416" lon="3.83481">
        <ele>96</ele>
        <time>2020-10-25T14:43:32.000Z</time>
      </trkpt>
      <trkpt lat="43.65414" lon="3.83483">
        <ele>96</ele>
        <time>2020-10-25T14:43:33.000Z</time>
      </trkpt>
      <trkpt lat="43.65411" lon="3.83485">
        <ele>96</ele>
        <time>2020-10-25T14:43:34.000Z</time>
      </trkpt>
      <trkpt lat="43.65409" lon="3.83487">
        <ele>96</ele>
        <time>2020-10-25T14:43:35.000Z</time>
      </trkpt>
      <trkpt lat="43.65407" lon="3.83489">
        <ele>96</ele>
        <time>2020-10-25T14:43:36.000Z</time>
      </trkpt>
      <trkpt lat="43.65405" lon="3.83491">
        <ele>96</ele>
        <time>2020-10-25T14:43:37.000Z</time>
      </trkpt>
      <trkpt lat="43.65404" lon="3.83493">
        <ele>96</ele>
        <time>2020-10-25T14:43:38.000Z</time>
      </trkpt>
      <trkpt lat="43.65402" lon="3.83494">
        <ele>96</ele>
        <time>2020-10-25T14:43:39.000Z</time>
      </trkpt>
      <trkpt lat="43.654" lon="3.83496">
        <ele>96</ele>
        <time>2020-10-25T14:43:40.000Z</time>
      </trkpt>
      <trkpt lat="43.65399" lon="3.83497">
        <ele>96</ele>
        <time>2020-10-25T14:43:41.000Z</time>
      </trkpt>
      <trkpt lat="43.65397" lon="3.83499">
        <ele>96</ele>
        <time>2020-10-25T14:43:42.000Z</time>
      </trkpt>
      <trkpt lat="43.65396" lon="3.83501">
        <ele>96</ele>
        <time>2020-10-25T14:43:43.000Z</time>
      </trkpt>
      <trkpt lat="43.65394" lon="3.83503">
        <ele>96</ele>
        <time>2020-10-25T14:43:44.000Z</time>
      </trkpt>
      <trkpt lat="43.65392" lon="3.83505">
        <ele>96</ele>
        <time>2020-10-25T14:43:45.000Z</time>
      </trkpt>
      <trkpt lat="43.65391" lon="3.83507">
        <ele>96</ele>
        <time>2020-10-25T14:43:46.000Z</time>
      </trkpt>
      <trkpt lat="43.65389" lon="3.83508">
        <ele>96</ele>
        <time>2020-10-25T14:43:47.000Z</time>
      </trkpt>
      <trkpt lat="43.65387" lon="3.8351">
        <ele>96</ele>
        <time>2020-10-25T14:43:48.000Z</time>
      </trkpt>
      <trkpt lat="43.65385" lon="3.83512">
        <ele>96.007165110667</ele>
        <time>2020-10-25T14:43:49.000Z</time>
      </trkpt>
      <trkpt lat="43.65383" lon="3.83513">
        <ele>96.109519155437</ele>
        <time>2020-10-25T14:43:50.000Z</time>
      </trkpt>
      <trkpt lat="43.65381" lon="3.83515">
        <ele>96.211873200206</ele>
        <time>2020-10-25T14:43:51.000Z</time>
      </trkpt>
      <trkpt lat="43.65379" lon="3.83517">
        <ele>96.314227244976</ele>
        <time>2020-10-25T14:43:52.000Z</time>
      </trkpt>
      <trkpt lat="43.65377" lon="3.83519">
        <ele>96.416581289746</ele>
        <time>2020-10-25T14:43:53.000Z</time>
      </trkpt>
      <trkpt lat="43.65376" lon="3.83521">
        <ele>96.518935334516</ele>
        <time>2020-10-25T14:43:54.000Z</time>
      </trkpt>
      <trkpt lat="43.65374" lon="3.83523">
        <ele>96.621289379286</ele>
        <time>2020-10-25T14:43:55.000Z</time>
      </trkpt>
      <trkpt lat="43.65372" lon="3.83525">
        <ele>96.723643424056</ele>
        <time>2020-10-25T14:43:56.000Z</time>
      </trkpt>
      <trkpt lat="43.65371" lon="3.83526">
        <ele>96.825997468825</ele>
        <time>2020-10-25T14:43:57.000Z</time>
      </trkpt>
      <trkpt lat="43.65369" lon="3.83528">
        <ele>96.928351513595</ele>
        <time>2020-10-25T14:43:58.000Z</time>
      </trkpt>
      <trkpt lat="43.65367" lon="3.8353">
        <ele>97</ele>
        <time>2020-10-25T14:43:59.000Z</time>
      </trkpt>
      <trkpt lat="43.65365" lon="3.83532">
        <ele>97</ele>
        <time>2020-10-25T14:44:00.000Z</time>
      </trkpt>
      <trkpt lat="43.65363" lon="3.83534">
        <ele>97</ele>
        <time>2020-10-25T14:44:01.000Z</time>
      </trkpt>
      <trkpt lat="43.65361" lon="3.83536">
        <ele>97</ele>
        <time>2020-10-25T14:44:02.000Z</time>
      </trkpt>
      <trkpt lat="43.65358" lon="3.83538">
        <ele>97</ele>
        <time>2020-10-25T14:44:03.000Z</time>
      </trkpt>
      <trkpt lat="43.65356" lon="3.8354">
        <ele>97</ele>
        <time>2020-10-25T14:44:04.000Z</time>
      </trkpt>
      <trkpt lat="43.65354" lon="3.83543">
        <ele>97</ele>
        <time>2020-10-25T14:44:05.000Z</time>
      </trkpt>
      <trkpt lat="43.65352" lon="3.83545">
        <ele>97</ele>
        <time>2020-10-25T14:44:06.000Z</time>
      </trkpt>
      <trkpt lat="43.65349" lon="3.83547">
        <ele>97</ele>
        <time>2020-10-25T14:44:07.000Z</time>
      </trkpt>
      <trkpt lat="43.65347" lon="3.83549">
        <ele>97</ele>
        <time>2020-10-25T14:44:08.000Z</time>
      </trkpt>
      <trkpt lat="43.65344" lon="3.8355">
        <ele>97.027081538618</ele>
        <time>2020-10-25T14:44:09.000Z</time>
      </trkpt>
      <trkpt lat="43.65341" lon="3.83552">
        <ele>97.127382344747</ele>
        <time>2020-10-25T14:44:10.000Z</time>
      </trkpt>
      <trkpt lat="43.65339" lon="3.83555">
        <ele>97.227683150877</ele>
        <time>2020-10-25T14:44:11.000Z</time>
      </trkpt>
      <trkpt lat="43.65336" lon="3.83557">
        <ele>97.327983957006</ele>
        <time>2020-10-25T14:44:12.000Z</time>
      </trkpt>
      <trkpt lat="43.65333" lon="3.83559">
        <ele>97.428284763136</ele>
        <time>2020-10-25T14:44:13.000Z</time>
      </trkpt>
      <trkpt lat="43.6533" lon="3.83561">
        <ele>97.528585569266</ele>
        <time>2020-10-25T14:44:14.000Z</time>
      </trkpt>
      <trkpt lat="43.65327" lon="3.83563">
        <ele>97.628886375395</ele>
        <time>2020-10-25T14:44:15.000Z</time>
      </trkpt>
      <trkpt lat="43.65324" lon="3.83566">
        <ele>97.729187181525</ele>
        <time>2020-10-25T14:44:16.000Z</time>
      </trkpt>
      <trkpt lat="43.65322" lon="3.83568">
        <ele>97.829487987655</ele>
        <time>2020-10-25T14:44:17.000Z</time>
      </trkpt>
      <trkpt lat="43.65319" lon="3.8357">
        <ele>97.929788793784</ele>
        <time>2020-10-25T14:44:18.000Z</time>
      </trkpt>
      <trkpt lat="43.65317" lon="3.83571">
        <ele>97.970846093946</ele>
        <time>2020-10-25T14:44:19.000Z</time>
      </trkpt>
      <trkpt lat="43.65315" lon="3.83573">
        <ele>97.87366433389</ele>
        <time>2020-10-25T14:44:20.000Z</time>
      </trkpt>
      <trkpt lat="43.65312" lon="3.83575">
        <ele>97.776482573833</ele>
        <time>2020-10-25T14:44:21.000Z</time>
      </trkpt>
      <trkpt lat="43.6531" lon="3.83576">
        <ele>97.679300813777</ele>
        <time>2020-10-25T14:44:22.000Z</time>
      </trkpt>
      <trkpt lat="43.65309" lon="3.83578">
        <ele>97.58211905372</ele>
        <time>2020-10-25T14:44:23.000Z</time>
      </trkpt>
      <trkpt lat="43.65307" lon="3.8358">
        <ele>97.484937293664</ele>
        <time>2020-10-25T14:44:24.000Z</time>
      </trkpt>
      <trkpt lat="43.65305" lon="3.83582">
        <ele>97.387755533607</ele>
        <time>2020-10-25T14:44:25.000Z</time>
      </trkpt>
      <trkpt lat="43.65303" lon="3.83584">
        <ele>97.290573773551</ele>
        <time>2020-10-25T14:44:26.000Z</time>
      </trkpt>
      <trkpt lat="43.65301" lon="3.83586">
        <ele>97.193392013494</ele>
        <time>2020-10-25T14:44:27.000Z</time>
      </trkpt>
      <trkpt lat="43.65298" lon="3.83588">
        <ele>97.096210253438</ele>
        <time>2020-10-25T14:44:28.000Z</time>
      </trkpt>
      <trkpt lat="43.65296" lon="3.83589">
        <ele>97</ele>
        <time>2020-10-25T14:44:29.000Z</time>
      </trkpt>
      <trkpt lat="43.65293" lon="3.8359">
        <ele>97</ele>
        <time>2020-10-25T14:44:30.000Z</time>
      </trkpt>
      <trkpt lat="43.6529" lon="3.83591">
        <ele>97</ele>
        <time>2020-10-25T14:44:31.000Z</time>
      </trkpt>
      <trkpt lat="43.65288" lon="3.83591">
        <ele>97</ele>
        <time>2020-10-25T14:44:32.000Z</time>
      </trkpt>
      <trkpt lat="43.65285" lon="3.83591">
        <ele>97</ele>
        <time>2020-10-25T14:44:33.000Z</time>
      </trkpt>
      <trkpt lat="43.65282" lon="3.83591">
        <ele>97</ele>
        <time>2020-10-25T14:44:34.000Z</time>
      </trkpt>
      <trkpt lat="43.65279" lon="3.83592">
        <ele>97</ele>
        <time>2020-10-25T14:44:35.000Z</time>
      </trkpt>
      <trkpt lat="43.65277" lon="3.83592">
        <ele>97</ele>
        <time>2020-10-25T14:44:36.000Z</time>
      </trkpt>
      <trkpt lat="43.65275" lon="3.83592">
        <ele>97</ele>
        <time>2020-10-25T14:44:37.000Z</time>
      </trkpt>
      <trkpt lat="43.65273" lon="3.83592">
        <ele>97</ele>
        <time>2020-10-25T14:44:38.000Z</time>
      </trkpt>
      <trkpt lat="43.6527" lon="3.83591">
        <ele>97.138798115393</ele>
        <time>2020-10-25T14:44:40.000Z</time>
      </trkpt>
      <trkpt lat="43.6527" lon="3.83593">
        <ele>98</ele>
        <time>2020-10-25T14:44:48.000Z</time>
      </trkpt>
      <trkpt lat="43.65263" lon="3.83591">
        <ele>98.976667022222</ele>
        <time>2020-10-25T14:44:57.000Z</time>
      </trkpt>
      <trkpt lat="43.65261" lon="3.8359">
        <ele>99</ele>
        <time>2020-10-25T14:44:58.000Z</time>
      </trkpt>
      <trkpt lat="43.6526" lon="3.8359">
        <ele>99</ele>
        <time>2020-10-25T14:44:59.000Z</time>
      </trkpt>
      <trkpt lat="43.65256" lon="3.8359">
        <ele>99</ele>
        <time>2020-10-25T14:45:01.000Z</time>
      </trkpt>
      <trkpt lat="43.65254" lon="3.83591">
        <ele>99</ele>
        <time>2020-10-25T14:45:02.000Z</time>
      </trkpt>
      <trkpt lat="43.65252" lon="3.83593">
        <ele>99</ele>
        <time>2020-10-25T14:45:03.000Z</time>
      </trkpt>
      <trkpt lat="43.65249" lon="3.83596">
        <ele>99</ele>
        <time>2020-10-25T14:45:04.000Z</time>
      </trkpt>
      <trkpt lat="43.65247" lon="3.83599">
        <ele>99</ele>
        <time>2020-10-25T14:45:05.000Z</time>
      </trkpt>
      <trkpt lat="43.65247" lon="3.83603">
        <ele>99</ele>
        <time>2020-10-25T14:45:06.000Z</time>
      </trkpt>
      <trkpt lat="43.65246" lon="3.83608">
        <ele>98.915122861307</ele>
        <time>2020-10-25T14:45:07.000Z</time>
      </trkpt>
      <trkpt lat="43.65244" lon="3.83612">
        <ele>98.622439843103</ele>
        <time>2020-10-25T14:45:08.000Z</time>
      </trkpt>
      <trkpt lat="43.65242" lon="3.83616">
        <ele>98.3297568249</ele>
        <time>2020-10-25T14:45:09.000Z</time>
      </trkpt>
      <trkpt lat="43.65239" lon="3.83619">
        <ele>98.037073806696</ele>
        <time>2020-10-25T14:45:10.000Z</time>
      </trkpt>
      <trkpt lat="43.65235" lon="3.83623">
        <ele>97.744390788493</ele>
        <time>2020-10-25T14:45:11.000Z</time>
      </trkpt>
      <trkpt lat="43.65232" lon="3.83626">
        <ele>97.451707770289</ele>
        <time>2020-10-25T14:45:12.000Z</time>
      </trkpt>
      <trkpt lat="43.65228" lon="3.83629">
        <ele>97.159024752086</ele>
        <time>2020-10-25T14:45:13.000Z</time>
      </trkpt>
      <trkpt lat="43.65224" lon="3.83633">
        <ele>96.866341733882</ele>
        <time>2020-10-25T14:45:14.000Z</time>
      </trkpt>
      <trkpt lat="43.6522" lon="3.83637">
        <ele>96.573658715679</ele>
        <time>2020-10-25T14:45:15.000Z</time>
      </trkpt>
      <trkpt lat="43.65216" lon="3.8364">
        <ele>96.280975697475</ele>
        <time>2020-10-25T14:45:16.000Z</time>
      </trkpt>
      <trkpt lat="43.65211" lon="3.83644">
        <ele>96</ele>
        <time>2020-10-25T14:45:17.000Z</time>
      </trkpt>
      <trkpt lat="43.65207" lon="3.83648">
        <ele>96</ele>
        <time>2020-10-25T14:45:18.000Z</time>
      </trkpt>
      <trkpt lat="43.65202" lon="3.83651">
        <ele>95.847619047619</ele>
        <time>2020-10-25T14:45:19.000Z</time>
      </trkpt>
      <trkpt lat="43.65198" lon="3.83655">
        <ele>95.609523809524</ele>
        <time>2020-10-25T14:45:20.000Z</time>
      </trkpt>
      <trkpt lat="43.65193" lon="3.83659">
        <ele>95.371428571429</ele>
        <time>2020-10-25T14:45:21.000Z</time>
      </trkpt>
      <trkpt lat="43.65189" lon="3.83663">
        <ele>95.133333333333</ele>
        <time>2020-10-25T14:45:22.000Z</time>
      </trkpt>
      <trkpt lat="43.65184" lon="3.83667">
        <ele>94.895238095238</ele>
        <time>2020-10-25T14:45:23.000Z</time>
      </trkpt>
      <trkpt lat="43.6518" lon="3.83671">
        <ele>94.657142857143</ele>
        <time>2020-10-25T14:45:24.000Z</time>
      </trkpt>
      <trkpt lat="43.65175" lon="3.83675">
        <ele>94.419047619048</ele>
        <time>2020-10-25T14:45:25.000Z</time>
      </trkpt>
      <trkpt lat="43.65171" lon="3.83679">
        <ele>94.180952380952</ele>
        <time>2020-10-25T14:45:26.000Z</time>
      </trkpt>
      <trkpt lat="43.65166" lon="3.83682">
        <ele>93.976401172516</ele>
        <time>2020-10-25T14:45:27.000Z</time>
      </trkpt>
      <trkpt lat="43.65162" lon="3.83686">
        <ele>93.878072724664</ele>
        <time>2020-10-25T14:45:28.000Z</time>
      </trkpt>
      <trkpt lat="43.65159" lon="3.83691">
        <ele>93.779744276812</ele>
        <time>2020-10-25T14:45:29.000Z</time>
      </trkpt>
      <trkpt lat="43.65155" lon="3.83695">
        <ele>93.681415828961</ele>
        <time>2020-10-25T14:45:30.000Z</time>
      </trkpt>
      <trkpt lat="43.65151" lon="3.837">
        <ele>93.583087381109</ele>
        <time>2020-10-25T14:45:31.000Z</time>
      </trkpt>
      <trkpt lat="43.65147" lon="3.83704">
        <ele>93.484758933257</ele>
        <time>2020-10-25T14:45:32.000Z</time>
      </trkpt>
      <trkpt lat="43.65144" lon="3.83709">
        <ele>93.386430485406</ele>
        <time>2020-10-25T14:45:33.000Z</time>
      </trkpt>
      <trkpt lat="43.6514" lon="3.83714">
        <ele>93.288102037554</ele>
        <time>2020-10-25T14:45:34.000Z</time>
      </trkpt>
      <trkpt lat="43.65137" lon="3.83719">
        <ele>93.189773589703</ele>
        <time>2020-10-25T14:45:35.000Z</time>
      </trkpt>
      <trkpt lat="43.65133" lon="3.83724">
        <ele>93.091445141851</ele>
        <time>2020-10-25T14:45:36.000Z</time>
      </trkpt>
      <trkpt lat="43.65129" lon="3.83728">
        <ele>93</ele>
        <time>2020-10-25T14:45:37.000Z</time>
      </trkpt>
      <trkpt lat="43.65126" lon="3.83733">
        <ele>93</ele>
        <time>2020-10-25T14:45:38.000Z</time>
      </trkpt>
      <trkpt lat="43.65122" lon="3.83737">
        <ele>93</ele>
        <time>2020-10-25T14:45:39.000Z</time>
      </trkpt>
      <trkpt lat="43.65118" lon="3.8374">
        <ele>93</ele>
        <time>2020-10-25T14:45:40.000Z</time>
      </trkpt>
      <trkpt lat="43.65114" lon="3.83744">
        <ele>93</ele>
        <time>2020-10-25T14:45:41.000Z</time>
      </trkpt>
      <trkpt lat="43.6511" lon="3.83748">
        <ele>93</ele>
        <time>2020-10-25T14:45:42.000Z</time>
      </trkpt>
      <trkpt lat="43.65106" lon="3.83751">
        <ele>93</ele>
        <time>2020-10-25T14:45:43.000Z</time>
      </trkpt>
      <trkpt lat="43.65103" lon="3.83754">
        <ele>93</ele>
        <time>2020-10-25T14:45:44.000Z</time>
      </trkpt>
      <trkpt lat="43.65099" lon="3.83758">
        <ele>93</ele>
        <time>2020-10-25T14:45:45.000Z</time>
      </trkpt>
      <trkpt lat="43.65096" lon="3.83761">
        <ele>93</ele>
        <time>2020-10-25T14:45:46.000Z</time>
      </trkpt>
      <trkpt lat="43.65093" lon="3.83764">
        <ele>93</ele>
        <time>2020-10-25T14:45:47.000Z</time>
      </trkpt>
      <trkpt lat="43.6509" lon="3.83768">
        <ele>93</ele>
        <time>2020-10-25T14:45:48.000Z</time>
      </trkpt>
      <trkpt lat="43.65087" lon="3.83771">
        <ele>93</ele>
        <time>2020-10-25T14:45:49.000Z</time>
      </trkpt>
      <trkpt lat="43.65084" lon="3.83775">
        <ele>93</ele>
        <time>2020-10-25T14:45:50.000Z</time>
      </trkpt>
      <trkpt lat="43.65081" lon="3.8378">
        <ele>93</ele>
        <time>2020-10-25T14:45:51.000Z</time>
      </trkpt>
      <trkpt lat="43.65079" lon="3.83784">
        <ele>93</ele>
        <time>2020-10-25T14:45:52.000Z</time>
      </trkpt>
      <trkpt lat="43.65077" lon="3.83788">
        <ele>93</ele>
        <time>2020-10-25T14:45:53.000Z</time>
      </trkpt>
      <trkpt lat="43.65074" lon="3.83792">
        <ele>93</ele>
        <time>2020-10-25T14:45:54.000Z</time>
      </trkpt>
      <trkpt lat="43.65072" lon="3.83797">
        <ele>93</ele>
        <time>2020-10-25T14:45:55.000Z</time>
      </trkpt>
      <trkpt lat="43.6507" lon="3.83801">
        <ele>93</ele>
        <time>2020-10-25T14:45:56.000Z</time>
      </trkpt>
      <trkpt lat="43.65068" lon="3.83806">
        <ele>93</ele>
        <time>2020-10-25T14:45:57.000Z</time>
      </trkpt>
      <trkpt lat="43.65065" lon="3.8381">
        <ele>93</ele>
        <time>2020-10-25T14:45:58.000Z</time>
      </trkpt>
      <trkpt lat="43.65063" lon="3.83815">
        <ele>93</ele>
        <time>2020-10-25T14:45:59.000Z</time>
      </trkpt>
      <trkpt lat="43.65061" lon="3.83819">
        <ele>93</ele>
        <time>2020-10-25T14:46:00.000Z</time>
      </trkpt>
      <trkpt lat="43.65059" lon="3.83823">
        <ele>93</ele>
        <time>2020-10-25T14:46:01.000Z</time>
      </trkpt>
      <trkpt lat="43.65057" lon="3.83827">
        <ele>93</ele>
        <time>2020-10-25T14:46:02.000Z</time>
      </trkpt>
      <trkpt lat="43.65055" lon="3.83831">
        <ele>93</ele>
        <time>2020-10-25T14:46:03.000Z</time>
      </trkpt>
      <trkpt lat="43.65053" lon="3.83835">
        <ele>93</ele>
        <time>2020-10-25T14:46:04.000Z</time>
      </trkpt>
      <trkpt lat="43.65051" lon="3.83839">
        <ele>93</ele>
        <time>2020-10-25T14:46:05.000Z</time>
      </trkpt>
      <trkpt lat="43.65049" lon="3.83843">
        <ele>93</ele>
        <time>2020-10-25T14:46:06.000Z</time>
      </trkpt>
      <trkpt lat="43.65046" lon="3.83847">
        <ele>92.97000064</ele>
        <time>2020-10-25T14:46:07.000Z</time>
      </trkpt>
      <trkpt lat="43.65044" lon="3.83851">
        <ele>92.87000064</ele>
        <time>2020-10-25T14:46:08.000Z</time>
      </trkpt>
      <trkpt lat="43.65042" lon="3.83854">
        <ele>92.77000064</ele>
        <time>2020-10-25T14:46:09.000Z</time>
      </trkpt>
      <trkpt lat="43.65039" lon="3.83857">
        <ele>92.67000064</ele>
        <time>2020-10-25T14:46:10.000Z</time>
      </trkpt>
      <trkpt lat="43.65036" lon="3.8386">
        <ele>92.57000064</ele>
        <time>2020-10-25T14:46:11.000Z</time>
      </trkpt>
      <trkpt lat="43.65034" lon="3.83862">
        <ele>92.47000064</ele>
        <time>2020-10-25T14:46:12.000Z</time>
      </trkpt>
      <trkpt lat="43.6503" lon="3.83865">
        <ele>92.37000064</ele>
        <time>2020-10-25T14:46:13.000Z</time>
      </trkpt>
      <trkpt lat="43.65027" lon="3.83867">
        <ele>92.27000064</ele>
        <time>2020-10-25T14:46:14.000Z</time>
      </trkpt>
      <trkpt lat="43.65024" lon="3.8387">
        <ele>92.17000064</ele>
        <time>2020-10-25T14:46:15.000Z</time>
      </trkpt>
      <trkpt lat="43.65021" lon="3.83873">
        <ele>92.07000064</ele>
        <time>2020-10-25T14:46:16.000Z</time>
      </trkpt>
      <trkpt lat="43.65017" lon="3.83876">
        <ele>92</ele>
        <time>2020-10-25T14:46:17.000Z</time>
      </trkpt>
      <trkpt lat="43.65013" lon="3.83879">
        <ele>92</ele>
        <time>2020-10-25T14:46:18.000Z</time>
      </trkpt>
      <trkpt lat="43.65009" lon="3.83882">
        <ele>92</ele>
        <time>2020-10-25T14:46:19.000Z</time>
      </trkpt>
      <trkpt lat="43.65005" lon="3.83886">
        <ele>92</ele>
        <time>2020-10-25T14:46:20.000Z</time>
      </trkpt>
      <trkpt lat="43.65001" lon="3.83889">
        <ele>92</ele>
        <time>2020-10-25T14:46:21.000Z</time>
      </trkpt>
      <trkpt lat="43.64997" lon="3.83892">
        <ele>92</ele>
        <time>2020-10-25T14:46:22.000Z</time>
      </trkpt>
      <trkpt lat="43.64993" lon="3.83896">
        <ele>92</ele>
        <time>2020-10-25T14:46:23.000Z</time>
      </trkpt>
      <trkpt lat="43.64989" lon="3.839">
        <ele>92</ele>
        <time>2020-10-25T14:46:24.000Z</time>
      </trkpt>
      <trkpt lat="43.64986" lon="3.83903">
        <ele>92</ele>
        <time>2020-10-25T14:46:25.000Z</time>
      </trkpt>
      <trkpt lat="43.64982" lon="3.83907">
        <ele>92</ele>
        <time>2020-10-25T14:46:26.000Z</time>
      </trkpt>
      <trkpt lat="43.64979" lon="3.8391">
        <ele>92.002058268895</ele>
        <time>2020-10-25T14:46:27.000Z</time>
      </trkpt>
      <trkpt lat="43.64975" lon="3.83913">
        <ele>92.10493879185</ele>
        <time>2020-10-25T14:46:28.000Z</time>
      </trkpt>
      <trkpt lat="43.64972" lon="3.83917">
        <ele>92.207819314806</ele>
        <time>2020-10-25T14:46:29.000Z</time>
      </trkpt>
      <trkpt lat="43.64969" lon="3.8392">
        <ele>92.310699837762</ele>
        <time>2020-10-25T14:46:30.000Z</time>
      </trkpt>
      <trkpt lat="43.64966" lon="3.83924">
        <ele>92.413580360717</ele>
        <time>2020-10-25T14:46:31.000Z</time>
      </trkpt>
      <trkpt lat="43.64963" lon="3.83927">
        <ele>92.516460883673</ele>
        <time>2020-10-25T14:46:32.000Z</time>
      </trkpt>
      <trkpt lat="43.6496" lon="3.8393">
        <ele>92.619341406629</ele>
        <time>2020-10-25T14:46:33.000Z</time>
      </trkpt>
      <trkpt lat="43.64957" lon="3.83932">
        <ele>92.722221929584</ele>
        <time>2020-10-25T14:46:34.000Z</time>
      </trkpt>
      <trkpt lat="43.64954" lon="3.83935">
        <ele>92.82510245254</ele>
        <time>2020-10-25T14:46:35.000Z</time>
      </trkpt>
      <trkpt lat="43.64951" lon="3.83938">
        <ele>92.927982975496</ele>
        <time>2020-10-25T14:46:36.000Z</time>
      </trkpt>
      <trkpt lat="43.64948" lon="3.83941">
        <ele>93</ele>
        <time>2020-10-25T14:46:37.000Z</time>
      </trkpt>
      <trkpt lat="43.64945" lon="3.83944">
        <ele>93</ele>
        <time>2020-10-25T14:46:38.000Z</time>
      </trkpt>
      <trkpt lat="43.64942" lon="3.83947">
        <ele>93</ele>
        <time>2020-10-25T14:46:39.000Z</time>
      </trkpt>
      <trkpt lat="43.64939" lon="3.8395">
        <ele>93</ele>
        <time>2020-10-25T14:46:40.000Z</time>
      </trkpt>
      <trkpt lat="43.64936" lon="3.83953">
        <ele>93</ele>
        <time>2020-10-25T14:46:41.000Z</time>
      </trkpt>
      <trkpt lat="43.64933" lon="3.83956">
        <ele>93</ele>
        <time>2020-10-25T14:46:42.000Z</time>
      </trkpt>
      <trkpt lat="43.6493" lon="3.83958">
        <ele>93</ele>
        <time>2020-10-25T14:46:43.000Z</time>
      </trkpt>
      <trkpt lat="43.64927" lon="3.8396">
        <ele>93</ele>
        <time>2020-10-25T14:46:44.000Z</time>
      </trkpt>
      <trkpt lat="43.64925" lon="3.83963">
        <ele>93</ele>
        <time>2020-10-25T14:46:45.000Z</time>
      </trkpt>
      <trkpt lat="43.64922" lon="3.83966">
        <ele>93</ele>
        <time>2020-10-25T14:46:46.000Z</time>
      </trkpt>
      <trkpt lat="43.64919" lon="3.83969">
        <ele>93.020202007142</ele>
        <time>2020-10-25T14:46:47.000Z</time>
      </trkpt>
      <trkpt lat="43.64916" lon="3.83971">
        <ele>93.121212042853</ele>
        <time>2020-10-25T14:46:48.000Z</time>
      </trkpt>
      <trkpt lat="43.64913" lon="3.83974">
        <ele>93.222222078564</ele>
        <time>2020-10-25T14:46:49.000Z</time>
      </trkpt>
      <trkpt lat="43.6491" lon="3.83977">
        <ele>93.323232114274</ele>
        <time>2020-10-25T14:46:50.000Z</time>
      </trkpt>
      <trkpt lat="43.64907" lon="3.83979">
        <ele>93.424242149985</ele>
        <time>2020-10-25T14:46:51.000Z</time>
      </trkpt>
      <trkpt lat="43.64905" lon="3.83982">
        <ele>93.525252185696</ele>
        <time>2020-10-25T14:46:52.000Z</time>
      </trkpt>
      <trkpt lat="43.64902" lon="3.83984">
        <ele>93.626262221406</ele>
        <time>2020-10-25T14:46:53.000Z</time>
      </trkpt>
      <trkpt lat="43.649" lon="3.83986">
        <ele>93.727272257117</ele>
        <time>2020-10-25T14:46:54.000Z</time>
      </trkpt>
      <trkpt lat="43.64897" lon="3.83988">
        <ele>93.828282292828</ele>
        <time>2020-10-25T14:46:55.000Z</time>
      </trkpt>
      <trkpt lat="43.64894" lon="3.83991">
        <ele>93.929292328538</ele>
        <time>2020-10-25T14:46:56.000Z</time>
      </trkpt>
      <trkpt lat="43.64892" lon="3.83993">
        <ele>94</ele>
        <time>2020-10-25T14:46:57.000Z</time>
      </trkpt>
      <trkpt lat="43.64889" lon="3.83995">
        <ele>94</ele>
        <time>2020-10-25T14:46:58.000Z</time>
      </trkpt>
      <trkpt lat="43.64886" lon="3.83998">
        <ele>94</ele>
        <time>2020-10-25T14:46:59.000Z</time>
      </trkpt>
      <trkpt lat="43.64883" lon="3.84">
        <ele>94</ele>
        <time>2020-10-25T14:47:00.000Z</time>
      </trkpt>
      <trkpt lat="43.64881" lon="3.84002">
        <ele>94</ele>
        <time>2020-10-25T14:47:01.000Z</time>
      </trkpt>
      <trkpt lat="43.64878" lon="3.84005">
        <ele>94</ele>
        <time>2020-10-25T14:47:02.000Z</time>
      </trkpt>
      <trkpt lat="43.64875" lon="3.84008">
        <ele>94</ele>
        <time>2020-10-25T14:47:03.000Z</time>
      </trkpt>
      <trkpt lat="43.64872" lon="3.8401">
        <ele>94</ele>
        <time>2020-10-25T14:47:04.000Z</time>
      </trkpt>
      <trkpt lat="43.64869" lon="3.84013">
        <ele>94</ele>
        <time>2020-10-25T14:47:05.000Z</time>
      </trkpt>
      <trkpt lat="43.64866" lon="3.84016">
        <ele>94</ele>
        <time>2020-10-25T14:47:06.000Z</time>
      </trkpt>
      <trkpt lat="43.64863" lon="3.8402">
        <ele>93.912707891561</ele>
        <time>2020-10-25T14:47:07.000Z</time>
      </trkpt>
      <trkpt lat="43.64859" lon="3.84023">
        <ele>93.621727989194</ele>
        <time>2020-10-25T14:47:08.000Z</time>
      </trkpt>
      <trkpt lat="43.64855" lon="3.84027">
        <ele>93.330748086827</ele>
        <time>2020-10-25T14:47:09.000Z</time>
      </trkpt>
      <trkpt lat="43.64851" lon="3.84031">
        <ele>93.039768184459</ele>
        <time>2020-10-25T14:47:10.000Z</time>
      </trkpt>
      <trkpt lat="43.64846" lon="3.84035">
        <ele>92.748788282092</ele>
        <time>2020-10-25T14:47:11.000Z</time>
      </trkpt>
      <trkpt lat="43.64841" lon="3.84039">
        <ele>92.457808379725</ele>
        <time>2020-10-25T14:47:12.000Z</time>
      </trkpt>
      <trkpt lat="43.64836" lon="3.84044">
        <ele>92.166828477357</ele>
        <time>2020-10-25T14:47:13.000Z</time>
      </trkpt>
      <trkpt lat="43.6483" lon="3.84049">
        <ele>91.87584857499</ele>
        <time>2020-10-25T14:47:14.000Z</time>
      </trkpt>
      <trkpt lat="43.64825" lon="3.84053">
        <ele>91.584868672623</ele>
        <time>2020-10-25T14:47:15.000Z</time>
      </trkpt>
      <trkpt lat="43.64819" lon="3.84059">
        <ele>91.293888770255</ele>
        <time>2020-10-25T14:47:16.000Z</time>
      </trkpt>
      <trkpt lat="43.64813" lon="3.84064">
        <ele>91.002908867888</ele>
        <time>2020-10-25T14:47:17.000Z</time>
      </trkpt>
      <trkpt lat="43.64807" lon="3.8407">
        <ele>90.899898531817</ele>
        <time>2020-10-25T14:47:18.000Z</time>
      </trkpt>
      <trkpt lat="43.64801" lon="3.84075">
        <ele>90.798786264521</ele>
        <time>2020-10-25T14:47:19.000Z</time>
      </trkpt>
      <trkpt lat="43.64794" lon="3.8408">
        <ele>90.697673997225</ele>
        <time>2020-10-25T14:47:20.000Z</time>
      </trkpt>
      <trkpt lat="43.64786" lon="3.84082">
        <ele>90.596561729929</ele>
        <time>2020-10-25T14:47:21.000Z</time>
      </trkpt>
      <trkpt lat="43.64779" lon="3.8408">
        <ele>90.495449462633</ele>
        <time>2020-10-25T14:47:22.000Z</time>
      </trkpt>
      <trkpt lat="43.64772" lon="3.84076">
        <ele>90.394337195337</ele>
        <time>2020-10-25T14:47:23.000Z</time>
      </trkpt>
      <trkpt lat="43.64766" lon="3.84071">
        <ele>90.29322492804</ele>
        <time>2020-10-25T14:47:24.000Z</time>
      </trkpt>
      <trkpt lat="43.6476" lon="3.84064">
        <ele>90.192112660744</ele>
        <time>2020-10-25T14:47:25.000Z</time>
      </trkpt>
      <trkpt lat="43.64755" lon="3.84058">
        <ele>90.091000393448</ele>
        <time>2020-10-25T14:47:26.000Z</time>
      </trkpt>
      <trkpt lat="43.6475" lon="3.84052">
        <ele>89.94913206132</ele>
        <time>2020-10-25T14:47:27.000Z</time>
      </trkpt>
      <trkpt lat="43.64745" lon="3.84047">
        <ele>89.440485227919</ele>
        <time>2020-10-25T14:47:28.000Z</time>
      </trkpt>
      <trkpt lat="43.6474" lon="3.8404">
        <ele>88.931838394518</ele>
        <time>2020-10-25T14:47:29.000Z</time>
      </trkpt>
      <trkpt lat="43.64735" lon="3.84034">
        <ele>88.423191561118</ele>
        <time>2020-10-25T14:47:30.000Z</time>
      </trkpt>
      <trkpt lat="43.6473" lon="3.84028">
        <ele>87.914544727717</ele>
        <time>2020-10-25T14:47:31.000Z</time>
      </trkpt>
      <trkpt lat="43.64725" lon="3.84022">
        <ele>87.405897894316</ele>
        <time>2020-10-25T14:47:32.000Z</time>
      </trkpt>
      <trkpt lat="43.64721" lon="3.84015">
        <ele>86.897251060915</ele>
        <time>2020-10-25T14:47:33.000Z</time>
      </trkpt>
      <trkpt lat="43.64717" lon="3.84008">
        <ele>86.388604227514</ele>
        <time>2020-10-25T14:47:34.000Z</time>
      </trkpt>
      <trkpt lat="43.64712" lon="3.84002">
        <ele>85.879957394114</ele>
        <time>2020-10-25T14:47:35.000Z</time>
      </trkpt>
      <trkpt lat="43.64708" lon="3.83995">
        <ele>85.371310560713</ele>
        <time>2020-10-25T14:47:36.000Z</time>
      </trkpt>
      <trkpt lat="43.64704" lon="3.83987">
        <ele>84.94594532262</ele>
        <time>2020-10-25T14:47:37.000Z</time>
      </trkpt>
      <trkpt lat="43.647" lon="3.8398">
        <ele>84.745745186548</ele>
        <time>2020-10-25T14:47:38.000Z</time>
      </trkpt>
      <trkpt lat="43.64695" lon="3.83973">
        <ele>84.545545050476</ele>
        <time>2020-10-25T14:47:39.000Z</time>
      </trkpt>
      <trkpt lat="43.64691" lon="3.83966">
        <ele>84.345344914404</ele>
        <time>2020-10-25T14:47:40.000Z</time>
      </trkpt>
      <trkpt lat="43.64686" lon="3.83958">
        <ele>84.145144778332</ele>
        <time>2020-10-25T14:47:41.000Z</time>
      </trkpt>
      <trkpt lat="43.64681" lon="3.83951">
        <ele>83.94494464226</ele>
        <time>2020-10-25T14:47:42.000Z</time>
      </trkpt>
      <trkpt lat="43.64676" lon="3.83945">
        <ele>83.744744506188</ele>
        <time>2020-10-25T14:47:43.000Z</time>
      </trkpt>
      <trkpt lat="43.64673" lon="3.83941">
        <ele>83.544544370116</ele>
        <time>2020-10-25T14:47:44.000Z</time>
      </trkpt>
      <trkpt lat="43.64672" lon="3.8394">
        <ele>83.344344234044</ele>
        <time>2020-10-25T14:47:45.000Z</time>
      </trkpt>
      <trkpt lat="43.64673" lon="3.83937">
        <ele>83</ele>
        <time>2020-10-25T14:47:52.000Z</time>
      </trkpt>
      <trkpt lat="43.64672" lon="3.83933">
        <ele>83</ele>
        <time>2020-10-25T14:47:54.000Z</time>
      </trkpt>
      <trkpt lat="43.64668" lon="3.83931">
        <ele>83</ele>
        <time>2020-10-25T14:47:56.000Z</time>
      </trkpt>
      <trkpt lat="43.64666" lon="3.83932">
        <ele>82.992834889333</ele>
        <time>2020-10-25T14:47:57.000Z</time>
      </trkpt>
      <trkpt lat="43.64664" lon="3.83934">
        <ele>82.890480844563</ele>
        <time>2020-10-25T14:47:58.000Z</time>
      </trkpt>
      <trkpt lat="43.64663" lon="3.83937">
        <ele>82.788126799794</ele>
        <time>2020-10-25T14:47:59.000Z</time>
      </trkpt>
      <trkpt lat="43.6466" lon="3.83937">
        <ele>82.685772755024</ele>
        <time>2020-10-25T14:48:00.000Z</time>
      </trkpt>
      <trkpt lat="43.64658" lon="3.83935">
        <ele>82.583418710254</ele>
        <time>2020-10-25T14:48:01.000Z</time>
      </trkpt>
      <trkpt lat="43.64657" lon="3.83931">
        <ele>82.481064665484</ele>
        <time>2020-10-25T14:48:02.000Z</time>
      </trkpt>
      <trkpt lat="43.64655" lon="3.83927">
        <ele>82.378710620714</ele>
        <time>2020-10-25T14:48:03.000Z</time>
      </trkpt>
      <trkpt lat="43.64652" lon="3.83924">
        <ele>82.276356575944</ele>
        <time>2020-10-25T14:48:04.000Z</time>
      </trkpt>
      <trkpt lat="43.64649" lon="3.8392">
        <ele>82.174002531175</ele>
        <time>2020-10-25T14:48:05.000Z</time>
      </trkpt>
      <trkpt lat="43.64644" lon="3.83916">
        <ele>82.071648486405</ele>
        <time>2020-10-25T14:48:06.000Z</time>
      </trkpt>
      <trkpt lat="43.6464" lon="3.83912">
        <ele>81.912707891561</ele>
        <time>2020-10-25T14:48:07.000Z</time>
      </trkpt>
      <trkpt lat="43.64635" lon="3.83908">
        <ele>81.621727989194</ele>
        <time>2020-10-25T14:48:08.000Z</time>
      </trkpt>
      <trkpt lat="43.64631" lon="3.83902">
        <ele>81.330748086827</ele>
        <time>2020-10-25T14:48:09.000Z</time>
      </trkpt>
      <trkpt lat="43.64626" lon="3.83897">
        <ele>81.039768184459</ele>
        <time>2020-10-25T14:48:10.000Z</time>
      </trkpt>
      <trkpt lat="43.64621" lon="3.83892">
        <ele>80.748788282092</ele>
        <time>2020-10-25T14:48:11.000Z</time>
      </trkpt>
      <trkpt lat="43.64615" lon="3.83886">
        <ele>80.457808379725</ele>
        <time>2020-10-25T14:48:12.000Z</time>
      </trkpt>
      <trkpt lat="43.6461" lon="3.8388">
        <ele>80.166828477357</ele>
        <time>2020-10-25T14:48:13.000Z</time>
      </trkpt>
      <trkpt lat="43.64604" lon="3.83874">
        <ele>79.87584857499</ele>
        <time>2020-10-25T14:48:14.000Z</time>
      </trkpt>
      <trkpt lat="43.64597" lon="3.83867">
        <ele>79.584868672623</ele>
        <time>2020-10-25T14:48:15.000Z</time>
      </trkpt>
      <trkpt lat="43.64591" lon="3.8386">
        <ele>79.293888770255</ele>
        <time>2020-10-25T14:48:16.000Z</time>
      </trkpt>
      <trkpt lat="43.64585" lon="3.83853">
        <ele>79.002908867888</ele>
        <time>2020-10-25T14:48:17.000Z</time>
      </trkpt>
      <trkpt lat="43.64579" lon="3.83846">
        <ele>78.61664964958</ele>
        <time>2020-10-25T14:48:18.000Z</time>
      </trkpt>
      <trkpt lat="43.64572" lon="3.83839">
        <ele>78.229428325023</ele>
        <time>2020-10-25T14:48:19.000Z</time>
      </trkpt>
      <trkpt lat="43.64566" lon="3.83832">
        <ele>77.842207000466</ele>
        <time>2020-10-25T14:48:20.000Z</time>
      </trkpt>
      <trkpt lat="43.64559" lon="3.83825">
        <ele>77.454985675909</ele>
        <time>2020-10-25T14:48:21.000Z</time>
      </trkpt>
      <trkpt lat="43.64552" lon="3.83817">
        <ele>77.067764351352</ele>
        <time>2020-10-25T14:48:22.000Z</time>
      </trkpt>
      <trkpt lat="43.64545" lon="3.83809">
        <ele>76.680543026794</ele>
        <time>2020-10-25T14:48:23.000Z</time>
      </trkpt>
      <trkpt lat="43.64538" lon="3.83802">
        <ele>76.293321702237</ele>
        <time>2020-10-25T14:48:24.000Z</time>
      </trkpt>
      <trkpt lat="43.64532" lon="3.83794">
        <ele>75.90610037768</ele>
        <time>2020-10-25T14:48:25.000Z</time>
      </trkpt>
      <trkpt lat="43.64525" lon="3.83787">
        <ele>75.518879053123</ele>
        <time>2020-10-25T14:48:26.000Z</time>
      </trkpt>
      <trkpt lat="43.64518" lon="3.8378">
        <ele>75.131657728566</ele>
        <time>2020-10-25T14:48:27.000Z</time>
      </trkpt>
      <trkpt lat="43.64512" lon="3.83772">
        <ele>74.788914482841</ele>
        <time>2020-10-25T14:48:28.000Z</time>
      </trkpt>
      <trkpt lat="43.64506" lon="3.83764">
        <ele>74.469084840314</ele>
        <time>2020-10-25T14:48:29.000Z</time>
      </trkpt>
      <trkpt lat="43.645" lon="3.83757">
        <ele>74.149255197786</ele>
        <time>2020-10-25T14:48:30.000Z</time>
      </trkpt>
      <trkpt lat="43.64494" lon="3.8375">
        <ele>73.829425555258</ele>
        <time>2020-10-25T14:48:31.000Z</time>
      </trkpt>
      <trkpt lat="43.64487" lon="3.83743">
        <ele>73.509595912731</ele>
        <time>2020-10-25T14:48:32.000Z</time>
      </trkpt>
      <trkpt lat="43.64481" lon="3.83736">
        <ele>73.189766270203</ele>
        <time>2020-10-25T14:48:33.000Z</time>
      </trkpt>
      <trkpt lat="43.64475" lon="3.8373">
        <ele>72.869936627675</ele>
        <time>2020-10-25T14:48:34.000Z</time>
      </trkpt>
      <trkpt lat="43.64468" lon="3.83724">
        <ele>72.550106985148</ele>
        <time>2020-10-25T14:48:35.000Z</time>
      </trkpt>
      <trkpt lat="43.64462" lon="3.83717">
        <ele>72.23027734262</ele>
        <time>2020-10-25T14:48:36.000Z</time>
      </trkpt>
      <trkpt lat="43.64456" lon="3.83711">
        <ele>72</ele>
        <time>2020-10-25T14:48:37.000Z</time>
      </trkpt>
      <trkpt lat="43.64451" lon="3.83704">
        <ele>72</ele>
        <time>2020-10-25T14:48:38.000Z</time>
      </trkpt>
      <trkpt lat="43.64444" lon="3.83699">
        <ele>72</ele>
        <time>2020-10-25T14:48:39.000Z</time>
      </trkpt>
      <trkpt lat="43.64438" lon="3.83695">
        <ele>72</ele>
        <time>2020-10-25T14:48:40.000Z</time>
      </trkpt>
      <trkpt lat="43.64431" lon="3.83691">
        <ele>72</ele>
        <time>2020-10-25T14:48:41.000Z</time>
      </trkpt>
      <trkpt lat="43.64424" lon="3.83688">
        <ele>72</ele>
        <time>2020-10-25T14:48:42.000Z</time>
      </trkpt>
      <trkpt lat="43.64418" lon="3.83684">
        <ele>72</ele>
        <time>2020-10-25T14:48:43.000Z</time>
      </trkpt>
      <trkpt lat="43.64411" lon="3.83682">
        <ele>72</ele>
        <time>2020-10-25T14:48:44.000Z</time>
      </trkpt>
      <trkpt lat="43.64404" lon="3.8368">
        <ele>72</ele>
        <time>2020-10-25T14:48:45.000Z</time>
      </trkpt>
      <trkpt lat="43.64397" lon="3.83678">
        <ele>72</ele>
        <time>2020-10-25T14:48:46.000Z</time>
      </trkpt>
      <trkpt lat="43.64391" lon="3.83677">
        <ele>72</ele>
        <time>2020-10-25T14:48:47.000Z</time>
      </trkpt>
      <trkpt lat="43.64385" lon="3.83676">
        <ele>72</ele>
        <time>2020-10-25T14:48:48.000Z</time>
      </trkpt>
      <trkpt lat="43.64378" lon="3.83675">
        <ele>72</ele>
        <time>2020-10-25T14:48:49.000Z</time>
      </trkpt>
      <trkpt lat="43.64371" lon="3.83674">
        <ele>72</ele>
        <time>2020-10-25T14:48:50.000Z</time>
      </trkpt>
      <trkpt lat="43.64364" lon="3.83674">
        <ele>72</ele>
        <time>2020-10-25T14:48:51.000Z</time>
      </trkpt>
      <trkpt lat="43.64357" lon="3.83673">
        <ele>72</ele>
        <time>2020-10-25T14:48:52.000Z</time>
      </trkpt>
      <trkpt lat="43.64351" lon="3.83673">
        <ele>72</ele>
        <time>2020-10-25T14:48:53.000Z</time>
      </trkpt>
      <trkpt lat="43.64344" lon="3.83673">
        <ele>72</ele>
        <time>2020-10-25T14:48:54.000Z</time>
      </trkpt>
      <trkpt lat="43.64337" lon="3.83672">
        <ele>72</ele>
        <time>2020-10-25T14:48:55.000Z</time>
      </trkpt>
      <trkpt lat="43.6433" lon="3.83671">
        <ele>72</ele>
        <time>2020-10-25T14:48:56.000Z</time>
      </trkpt>
      <trkpt lat="43.64324" lon="3.8367">
        <ele>72</ele>
        <time>2020-10-25T14:48:57.000Z</time>
      </trkpt>
      <trkpt lat="43.64317" lon="3.83669">
        <ele>71.690721853544</ele>
        <time>2020-10-25T14:48:58.000Z</time>
      </trkpt>
      <trkpt lat="43.64311" lon="3.83667">
        <ele>71.381443707089</ele>
        <time>2020-10-25T14:48:59.000Z</time>
      </trkpt>
      <trkpt lat="43.64305" lon="3.83664">
        <ele>71.072165560633</ele>
        <time>2020-10-25T14:49:00.000Z</time>
      </trkpt>
      <trkpt lat="43.643" lon="3.8366">
        <ele>70.762887414177</ele>
        <time>2020-10-25T14:49:01.000Z</time>
      </trkpt>
      <trkpt lat="43.64295" lon="3.83654">
        <ele>70.453609267722</ele>
        <time>2020-10-25T14:49:02.000Z</time>
      </trkpt>
      <trkpt lat="43.64291" lon="3.83648">
        <ele>70.144331121266</ele>
        <time>2020-10-25T14:49:03.000Z</time>
      </trkpt>
      <trkpt lat="43.64288" lon="3.83642">
        <ele>69.83505297481</ele>
        <time>2020-10-25T14:49:04.000Z</time>
      </trkpt>
      <trkpt lat="43.64285" lon="3.83634">
        <ele>69.525774828355</ele>
        <time>2020-10-25T14:49:05.000Z</time>
      </trkpt>
      <trkpt lat="43.64281" lon="3.83628">
        <ele>69.216496681899</ele>
        <time>2020-10-25T14:49:06.000Z</time>
      </trkpt>
      <trkpt lat="43.64278" lon="3.83622">
        <ele>68.97000064</ele>
        <time>2020-10-25T14:49:07.000Z</time>
      </trkpt>
      <trkpt lat="43.64275" lon="3.83615">
        <ele>68.87000064</ele>
        <time>2020-10-25T14:49:08.000Z</time>
      </trkpt>
      <trkpt lat="43.64272" lon="3.83609">
        <ele>68.77000064</ele>
        <time>2020-10-25T14:49:09.000Z</time>
      </trkpt>
      <trkpt lat="43.6427" lon="3.83602">
        <ele>68.67000064</ele>
        <time>2020-10-25T14:49:10.000Z</time>
      </trkpt>
      <trkpt lat="43.64268" lon="3.83595">
        <ele>68.57000064</ele>
        <time>2020-10-25T14:49:11.000Z</time>
      </trkpt>
      <trkpt lat="43.64266" lon="3.83589">
        <ele>68.47000064</ele>
        <time>2020-10-25T14:49:12.000Z</time>
      </trkpt>
      <trkpt lat="43.64263" lon="3.83584">
        <ele>68.37000064</ele>
        <time>2020-10-25T14:49:13.000Z</time>
      </trkpt>
      <trkpt lat="43.6426" lon="3.83578">
        <ele>68.27000064</ele>
        <time>2020-10-25T14:49:14.000Z</time>
      </trkpt>
      <trkpt lat="43.64256" lon="3.83574">
        <ele>68.17000064</ele>
        <time>2020-10-25T14:49:15.000Z</time>
      </trkpt>
      <trkpt lat="43.64253" lon="3.83569">
        <ele>68.07000064</ele>
        <time>2020-10-25T14:49:16.000Z</time>
      </trkpt>
      <trkpt lat="43.64249" lon="3.83566">
        <ele>68</ele>
        <time>2020-10-25T14:49:17.000Z</time>
      </trkpt>
      <trkpt lat="43.64245" lon="3.83563">
        <ele>68</ele>
        <time>2020-10-25T14:49:18.000Z</time>
      </trkpt>
      <trkpt lat="43.6424" lon="3.8356">
        <ele>68</ele>
        <time>2020-10-25T14:49:19.000Z</time>
      </trkpt>
      <trkpt lat="43.64236" lon="3.83557">
        <ele>68</ele>
        <time>2020-10-25T14:49:20.000Z</time>
      </trkpt>
      <trkpt lat="43.64232" lon="3.83554">
        <ele>68</ele>
        <time>2020-10-25T14:49:21.000Z</time>
      </trkpt>
      <trkpt lat="43.64228" lon="3.83551">
        <ele>68</ele>
        <time>2020-10-25T14:49:22.000Z</time>
      </trkpt>
      <trkpt lat="43.64224" lon="3.83547">
        <ele>68</ele>
        <time>2020-10-25T14:49:23.000Z</time>
      </trkpt>
      <trkpt lat="43.6422" lon="3.83544">
        <ele>68</ele>
        <time>2020-10-25T14:49:24.000Z</time>
      </trkpt>
      <trkpt lat="43.64215" lon="3.83541">
        <ele>68</ele>
        <time>2020-10-25T14:49:25.000Z</time>
      </trkpt>
      <trkpt lat="43.64212" lon="3.83538">
        <ele>68</ele>
        <time>2020-10-25T14:49:26.000Z</time>
      </trkpt>
      <trkpt lat="43.64208" lon="3.83533">
        <ele>68.029643673858</ele>
        <time>2020-10-25T14:49:27.000Z</time>
      </trkpt>
      <trkpt lat="43.64204" lon="3.83529">
        <ele>68.128458028089</ele>
        <time>2020-10-25T14:49:28.000Z</time>
      </trkpt>
      <trkpt lat="43.642" lon="3.83526">
        <ele>68.227272382321</ele>
        <time>2020-10-25T14:49:29.000Z</time>
      </trkpt>
      <trkpt lat="43.64196" lon="3.83522">
        <ele>68.326086736552</ele>
        <time>2020-10-25T14:49:30.000Z</time>
      </trkpt>
      <trkpt lat="43.64193" lon="3.83519">
        <ele>68.424901090784</ele>
        <time>2020-10-25T14:49:31.000Z</time>
      </trkpt>
      <trkpt lat="43.64189" lon="3.83516">
        <ele>68.523715445016</ele>
        <time>2020-10-25T14:49:32.000Z</time>
      </trkpt>
      <trkpt lat="43.64185" lon="3.83514">
        <ele>68.622529799247</ele>
        <time>2020-10-25T14:49:33.000Z</time>
      </trkpt>
      <trkpt lat="43.64181" lon="3.83511">
        <ele>68.721344153479</ele>
        <time>2020-10-25T14:49:34.000Z</time>
      </trkpt>
      <trkpt lat="43.64177" lon="3.83508">
        <ele>68.82015850771</ele>
        <time>2020-10-25T14:49:35.000Z</time>
      </trkpt>
      <trkpt lat="43.64174" lon="3.83506">
        <ele>68.918972861942</ele>
        <time>2020-10-25T14:49:36.000Z</time>
      </trkpt>
      <trkpt lat="43.6417" lon="3.83503">
        <ele>69</ele>
        <time>2020-10-25T14:49:37.000Z</time>
      </trkpt>
      <trkpt lat="43.64166" lon="3.835">
        <ele>69</ele>
        <time>2020-10-25T14:49:38.000Z</time>
      </trkpt>
      <trkpt lat="43.64163" lon="3.83498">
        <ele>69</ele>
        <time>2020-10-25T14:49:39.000Z</time>
      </trkpt>
      <trkpt lat="43.64159" lon="3.83495">
        <ele>69</ele>
        <time>2020-10-25T14:49:40.000Z</time>
      </trkpt>
      <trkpt lat="43.64156" lon="3.83493">
        <ele>69</ele>
        <time>2020-10-25T14:49:41.000Z</time>
      </trkpt>
      <trkpt lat="43.64153" lon="3.8349">
        <ele>69</ele>
        <time>2020-10-25T14:49:42.000Z</time>
      </trkpt>
      <trkpt lat="43.64149" lon="3.83488">
        <ele>69</ele>
        <time>2020-10-25T14:49:43.000Z</time>
      </trkpt>
      <trkpt lat="43.64146" lon="3.83486">
        <ele>69</ele>
        <time>2020-10-25T14:49:44.000Z</time>
      </trkpt>
      <trkpt lat="43.64144" lon="3.83483">
        <ele>69</ele>
        <time>2020-10-25T14:49:45.000Z</time>
      </trkpt>
      <trkpt lat="43.64141" lon="3.83479">
        <ele>69</ele>
        <time>2020-10-25T14:49:46.000Z</time>
      </trkpt>
      <trkpt lat="43.64139" lon="3.83475">
        <ele>69.05999872</ele>
        <time>2020-10-25T14:49:47.000Z</time>
      </trkpt>
      <trkpt lat="43.64138" lon="3.83471">
        <ele>69.25999872</ele>
        <time>2020-10-25T14:49:48.000Z</time>
      </trkpt>
      <trkpt lat="43.64138" lon="3.83466">
        <ele>69.45999872</ele>
        <time>2020-10-25T14:49:49.000Z</time>
      </trkpt>
      <trkpt lat="43.64139" lon="3.83461">
        <ele>69.65999872</ele>
        <time>2020-10-25T14:49:50.000Z</time>
      </trkpt>
      <trkpt lat="43.6414" lon="3.83457">
        <ele>69.85999872</ele>
        <time>2020-10-25T14:49:51.000Z</time>
      </trkpt>
      <trkpt lat="43.64142" lon="3.83452">
        <ele>70.05999872</ele>
        <time>2020-10-25T14:49:52.000Z</time>
      </trkpt>
      <trkpt lat="43.64143" lon="3.83448">
        <ele>70.25999872</ele>
        <time>2020-10-25T14:49:53.000Z</time>
      </trkpt>
      <trkpt lat="43.64145" lon="3.83444">
        <ele>70.45999872</ele>
        <time>2020-10-25T14:49:54.000Z</time>
      </trkpt>
      <trkpt lat="43.64147" lon="3.8344">
        <ele>70.65999872</ele>
        <time>2020-10-25T14:49:55.000Z</time>
      </trkpt>
      <trkpt lat="43.64148" lon="3.83436">
        <ele>70.85999872</ele>
        <time>2020-10-25T14:49:56.000Z</time>
      </trkpt>
      <trkpt lat="43.6415" lon="3.83431">
        <ele>71.05999872</ele>
        <time>2020-10-25T14:49:57.000Z</time>
      </trkpt>
      <trkpt lat="43.64152" lon="3.83427">
        <ele>71.25999872</ele>
        <time>2020-10-25T14:49:58.000Z</time>
      </trkpt>
      <trkpt lat="43.64154" lon="3.83423">
        <ele>71.45999872</ele>
        <time>2020-10-25T14:49:59.000Z</time>
      </trkpt>
      <trkpt lat="43.64156" lon="3.83419">
        <ele>71.65999872</ele>
        <time>2020-10-25T14:50:00.000Z</time>
      </trkpt>
      <trkpt lat="43.64157" lon="3.83415">
        <ele>71.85999872</ele>
        <time>2020-10-25T14:50:01.000Z</time>
      </trkpt>
      <trkpt lat="43.64159" lon="3.83411">
        <ele>72.05999872</ele>
        <time>2020-10-25T14:50:02.000Z</time>
      </trkpt>
      <trkpt lat="43.6416" lon="3.83406">
        <ele>72.25999872</ele>
        <time>2020-10-25T14:50:03.000Z</time>
      </trkpt>
      <trkpt lat="43.64162" lon="3.83402">
        <ele>72.45999872</ele>
        <time>2020-10-25T14:50:04.000Z</time>
      </trkpt>
      <trkpt lat="43.64163" lon="3.83397">
        <ele>72.65999872</ele>
        <time>2020-10-25T14:50:05.000Z</time>
      </trkpt>
      <trkpt lat="43.64164" lon="3.83393">
        <ele>72.85999872</ele>
        <time>2020-10-25T14:50:06.000Z</time>
      </trkpt>
      <trkpt lat="43.64165" lon="3.83388">
        <ele>73.058307812107</ele>
        <time>2020-10-25T14:50:07.000Z</time>
      </trkpt>
      <trkpt lat="43.64166" lon="3.83383">
        <ele>73.25267133222</ele>
        <time>2020-10-25T14:50:08.000Z</time>
      </trkpt>
      <trkpt lat="43.64167" lon="3.83378">
        <ele>73.447034852334</ele>
        <time>2020-10-25T14:50:09.000Z</time>
      </trkpt>
      <trkpt lat="43.64168" lon="3.83373">
        <ele>73.641398372447</ele>
        <time>2020-10-25T14:50:10.000Z</time>
      </trkpt>
      <trkpt lat="43.64169" lon="3.83368">
        <ele>73.83576189256</ele>
        <time>2020-10-25T14:50:11.000Z</time>
      </trkpt>
      <trkpt lat="43.6417" lon="3.83363">
        <ele>74.030125412673</ele>
        <time>2020-10-25T14:50:12.000Z</time>
      </trkpt>
      <trkpt lat="43.64171" lon="3.83359">
        <ele>74.224488932786</ele>
        <time>2020-10-25T14:50:13.000Z</time>
      </trkpt>
      <trkpt lat="43.64172" lon="3.83354">
        <ele>74.418852452899</ele>
        <time>2020-10-25T14:50:14.000Z</time>
      </trkpt>
      <trkpt lat="43.64173" lon="3.83349">
        <ele>74.613215973012</ele>
        <time>2020-10-25T14:50:15.000Z</time>
      </trkpt>
      <trkpt lat="43.64173" lon="3.83344">
        <ele>74.807579493125</ele>
        <time>2020-10-25T14:50:16.000Z</time>
      </trkpt>
      <trkpt lat="43.64174" lon="3.83339">
        <ele>75</ele>
        <time>2020-10-25T14:50:17.000Z</time>
      </trkpt>
      <trkpt lat="43.64175" lon="3.83334">
        <ele>75</ele>
        <time>2020-10-25T14:50:18.000Z</time>
      </trkpt>
      <trkpt lat="43.64175" lon="3.83329">
        <ele>75</ele>
        <time>2020-10-25T14:50:19.000Z</time>
      </trkpt>
      <trkpt lat="43.64176" lon="3.83324">
        <ele>75</ele>
        <time>2020-10-25T14:50:20.000Z</time>
      </trkpt>
      <trkpt lat="43.64176" lon="3.83319">
        <ele>75</ele>
        <time>2020-10-25T14:50:21.000Z</time>
      </trkpt>
      <trkpt lat="43.64177" lon="3.83314">
        <ele>75</ele>
        <time>2020-10-25T14:50:22.000Z</time>
      </trkpt>
      <trkpt lat="43.64177" lon="3.83309">
        <ele>75</ele>
        <time>2020-10-25T14:50:23.000Z</time>
      </trkpt>
      <trkpt lat="43.64177" lon="3.83305">
        <ele>75</ele>
        <time>2020-10-25T14:50:24.000Z</time>
      </trkpt>
      <trkpt lat="43.64177" lon="3.833">
        <ele>75</ele>
        <time>2020-10-25T14:50:25.000Z</time>
      </trkpt>
      <trkpt lat="43.64177" lon="3.83295">
        <ele>75</ele>
        <time>2020-10-25T14:50:26.000Z</time>
      </trkpt>
      <trkpt lat="43.64177" lon="3.83291">
        <ele>74.97087438967</ele>
        <time>2020-10-25T14:50:27.000Z</time>
      </trkpt>
      <trkpt lat="43.64177" lon="3.83286">
        <ele>74.873786950703</ele>
        <time>2020-10-25T14:50:28.000Z</time>
      </trkpt>
      <trkpt lat="43.64177" lon="3.83281">
        <ele>74.776699511736</ele>
        <time>2020-10-25T14:50:29.000Z</time>
      </trkpt>
      <trkpt lat="43.64177" lon="3.83276">
        <ele>74.679612072769</ele>
        <time>2020-10-25T14:50:30.000Z</time>
      </trkpt>
      <trkpt lat="43.64177" lon="3.83271">
        <ele>74.582524633802</ele>
        <time>2020-10-25T14:50:31.000Z</time>
      </trkpt>
      <trkpt lat="43.64177" lon="3.83266">
        <ele>74.485437194835</ele>
        <time>2020-10-25T14:50:32.000Z</time>
      </trkpt>
      <trkpt lat="43.64176" lon="3.83262">
        <ele>74.388349755868</ele>
        <time>2020-10-25T14:50:33.000Z</time>
      </trkpt>
      <trkpt lat="43.64175" lon="3.83257">
        <ele>74.291262316901</ele>
        <time>2020-10-25T14:50:34.000Z</time>
      </trkpt>
      <trkpt lat="43.64174" lon="3.83253">
        <ele>74.194174877934</ele>
        <time>2020-10-25T14:50:35.000Z</time>
      </trkpt>
      <trkpt lat="43.64173" lon="3.83249">
        <ele>74.097087438967</ele>
        <time>2020-10-25T14:50:36.000Z</time>
      </trkpt>
      <trkpt lat="43.64171" lon="3.83245">
        <ele>74</ele>
        <time>2020-10-25T14:50:37.000Z</time>
      </trkpt>
      <trkpt lat="43.64169" lon="3.83241">
        <ele>74</ele>
        <time>2020-10-25T14:50:38.000Z</time>
      </trkpt>
      <trkpt lat="43.64168" lon="3.83237">
        <ele>74</ele>
        <time>2020-10-25T14:50:39.000Z</time>
      </trkpt>
      <trkpt lat="43.64166" lon="3.83234">
        <ele>74</ele>
        <time>2020-10-25T14:50:40.000Z</time>
      </trkpt>
      <trkpt lat="43.64164" lon="3.8323">
        <ele>74</ele>
        <time>2020-10-25T14:50:41.000Z</time>
      </trkpt>
      <trkpt lat="43.64162" lon="3.83226">
        <ele>74</ele>
        <time>2020-10-25T14:50:42.000Z</time>
      </trkpt>
      <trkpt lat="43.6416" lon="3.83222">
        <ele>74</ele>
        <time>2020-10-25T14:50:43.000Z</time>
      </trkpt>
      <trkpt lat="43.64158" lon="3.83218">
        <ele>74</ele>
        <time>2020-10-25T14:50:44.000Z</time>
      </trkpt>
      <trkpt lat="43.64156" lon="3.83214">
        <ele>74</ele>
        <time>2020-10-25T14:50:45.000Z</time>
      </trkpt>
      <trkpt lat="43.64154" lon="3.8321">
        <ele>74</ele>
        <time>2020-10-25T14:50:46.000Z</time>
      </trkpt>
      <trkpt lat="43.64151" lon="3.83206">
        <ele>74</ele>
        <time>2020-10-25T14:50:47.000Z</time>
      </trkpt>
      <trkpt lat="43.64149" lon="3.83202">
        <ele>74</ele>
        <time>2020-10-25T14:50:48.000Z</time>
      </trkpt>
      <trkpt lat="43.64147" lon="3.83198">
        <ele>74</ele>
        <time>2020-10-25T14:50:49.000Z</time>
      </trkpt>
      <trkpt lat="43.64145" lon="3.83195">
        <ele>74</ele>
        <time>2020-10-25T14:50:50.000Z</time>
      </trkpt>
      <trkpt lat="43.64143" lon="3.83191">
        <ele>74</ele>
        <time>2020-10-25T14:50:51.000Z</time>
      </trkpt>
      <trkpt lat="43.64142" lon="3.83188">
        <ele>74</ele>
        <time>2020-10-25T14:50:52.000Z</time>
      </trkpt>
      <trkpt lat="43.6414" lon="3.83186">
        <ele>74</ele>
        <time>2020-10-25T14:50:53.000Z</time>
      </trkpt>
      <trkpt lat="43.64139" lon="3.83183">
        <ele>74</ele>
        <time>2020-10-25T14:50:54.000Z</time>
      </trkpt>
      <trkpt lat="43.64137" lon="3.8318">
        <ele>74</ele>
        <time>2020-10-25T14:50:56.000Z</time>
      </trkpt>
      <trkpt lat="43.64136" lon="3.83176">
        <ele>74</ele>
        <time>2020-10-25T14:50:58.000Z</time>
      </trkpt>
      <trkpt lat="43.64135" lon="3.83173">
        <ele>74</ele>
        <time>2020-10-25T14:50:59.000Z</time>
      </trkpt>
      <trkpt lat="43.64134" lon="3.83171">
        <ele>74</ele>
        <time>2020-10-25T14:51:00.000Z</time>
      </trkpt>
      <trkpt lat="43.64133" lon="3.83169">
        <ele>74</ele>
        <time>2020-10-25T14:51:01.000Z</time>
      </trkpt>
      <trkpt lat="43.64131" lon="3.83165">
        <ele>74</ele>
        <time>2020-10-25T14:51:03.000Z</time>
      </trkpt>
      <trkpt lat="43.64131" lon="3.83162">
        <ele>74</ele>
        <time>2020-10-25T14:51:04.000Z</time>
      </trkpt>
      <trkpt lat="43.6413" lon="3.8316">
        <ele>74</ele>
        <time>2020-10-25T14:51:05.000Z</time>
      </trkpt>
      <trkpt lat="43.64129" lon="3.83157">
        <ele>74</ele>
        <time>2020-10-25T14:51:06.000Z</time>
      </trkpt>
      <trkpt lat="43.64128" lon="3.83154">
        <ele>74</ele>
        <time>2020-10-25T14:51:07.000Z</time>
      </trkpt>
      <trkpt lat="43.64127" lon="3.83151">
        <ele>74</ele>
        <time>2020-10-25T14:51:08.000Z</time>
      </trkpt>
      <trkpt lat="43.64126" lon="3.83148">
        <ele>74</ele>
        <time>2020-10-25T14:51:09.000Z</time>
      </trkpt>
      <trkpt lat="43.64125" lon="3.83146">
        <ele>74</ele>
        <time>2020-10-25T14:51:10.000Z</time>
      </trkpt>
      <trkpt lat="43.64123" lon="3.83142">
        <ele>74</ele>
        <time>2020-10-25T14:51:11.000Z</time>
      </trkpt>
      <trkpt lat="43.64122" lon="3.83139">
        <ele>74</ele>
        <time>2020-10-25T14:51:12.000Z</time>
      </trkpt>
      <trkpt lat="43.64121" lon="3.83136">
        <ele>74</ele>
        <time>2020-10-25T14:51:13.000Z</time>
      </trkpt>
      <trkpt lat="43.6412" lon="3.83133">
        <ele>74</ele>
        <time>2020-10-25T14:51:14.000Z</time>
      </trkpt>
      <trkpt lat="43.64119" lon="3.8313">
        <ele>74</ele>
        <time>2020-10-25T14:51:15.000Z</time>
      </trkpt>
      <trkpt lat="43.64118" lon="3.83126">
        <ele>74</ele>
        <time>2020-10-25T14:51:16.000Z</time>
      </trkpt>
      <trkpt lat="43.64117" lon="3.83123">
        <ele>74</ele>
        <time>2020-10-25T14:51:17.000Z</time>
      </trkpt>
      <trkpt lat="43.64116" lon="3.83119">
        <ele>74</ele>
        <time>2020-10-25T14:51:18.000Z</time>
      </trkpt>
      <trkpt lat="43.64114" lon="3.83115">
        <ele>74</ele>
        <time>2020-10-25T14:51:19.000Z</time>
      </trkpt>
      <trkpt lat="43.64113" lon="3.83111">
        <ele>74</ele>
        <time>2020-10-25T14:51:20.000Z</time>
      </trkpt>
      <trkpt lat="43.64112" lon="3.83108">
        <ele>74</ele>
        <time>2020-10-25T14:51:21.000Z</time>
      </trkpt>
      <trkpt lat="43.64111" lon="3.83104">
        <ele>74</ele>
        <time>2020-10-25T14:51:22.000Z</time>
      </trkpt>
      <trkpt lat="43.64109" lon="3.83101">
        <ele>74</ele>
        <time>2020-10-25T14:51:23.000Z</time>
      </trkpt>
      <trkpt lat="43.64108" lon="3.83097">
        <ele>74</ele>
        <time>2020-10-25T14:51:24.000Z</time>
      </trkpt>
      <trkpt lat="43.64107" lon="3.83093">
        <ele>74</ele>
        <time>2020-10-25T14:51:25.000Z</time>
      </trkpt>
      <trkpt lat="43.64105" lon="3.8309">
        <ele>74</ele>
        <time>2020-10-25T14:51:26.000Z</time>
      </trkpt>
      <trkpt lat="43.64104" lon="3.83086">
        <ele>74.027958405356</ele>
        <time>2020-10-25T14:51:27.000Z</time>
      </trkpt>
      <trkpt lat="43.64103" lon="3.83082">
        <ele>74.121155078071</ele>
        <time>2020-10-25T14:51:28.000Z</time>
      </trkpt>
      <trkpt lat="43.64101" lon="3.83078">
        <ele>74.214351750785</ele>
        <time>2020-10-25T14:51:29.000Z</time>
      </trkpt>
      <trkpt lat="43.64099" lon="3.83075">
        <ele>74.3075484235</ele>
        <time>2020-10-25T14:51:30.000Z</time>
      </trkpt>
      <trkpt lat="43.64097" lon="3.83071">
        <ele>74.400745096215</ele>
        <time>2020-10-25T14:51:31.000Z</time>
      </trkpt>
      <trkpt lat="43.64096" lon="3.83068">
        <ele>74.49394176893</ele>
        <time>2020-10-25T14:51:32.000Z</time>
      </trkpt>
      <trkpt lat="43.64094" lon="3.83064">
        <ele>74.587138441644</ele>
        <time>2020-10-25T14:51:33.000Z</time>
      </trkpt>
      <trkpt lat="43.64092" lon="3.83061">
        <ele>74.680335114359</ele>
        <time>2020-10-25T14:51:34.000Z</time>
      </trkpt>
      <trkpt lat="43.6409" lon="3.83057">
        <ele>74.773531787074</ele>
        <time>2020-10-25T14:51:35.000Z</time>
      </trkpt>
      <trkpt lat="43.64088" lon="3.83054">
        <ele>74.866728459789</ele>
        <time>2020-10-25T14:51:36.000Z</time>
      </trkpt>
      <trkpt lat="43.64087" lon="3.8305">
        <ele>74.959925132503</ele>
        <time>2020-10-25T14:51:37.000Z</time>
      </trkpt>
      <trkpt lat="43.64085" lon="3.83046">
        <ele>75.061488306714</ele>
        <time>2020-10-25T14:51:38.000Z</time>
      </trkpt>
      <trkpt lat="43.64083" lon="3.83042">
        <ele>75.169363134632</ele>
        <time>2020-10-25T14:51:39.000Z</time>
      </trkpt>
      <trkpt lat="43.64081" lon="3.83039">
        <ele>75.27723796255</ele>
        <time>2020-10-25T14:51:40.000Z</time>
      </trkpt>
      <trkpt lat="43.64078" lon="3.83035">
        <ele>75.385112790468</ele>
        <time>2020-10-25T14:51:41.000Z</time>
      </trkpt>
      <trkpt lat="43.64076" lon="3.83032">
        <ele>75.492987618386</ele>
        <time>2020-10-25T14:51:42.000Z</time>
      </trkpt>
      <trkpt lat="43.64074" lon="3.83028">
        <ele>75.600862446304</ele>
        <time>2020-10-25T14:51:43.000Z</time>
      </trkpt>
      <trkpt lat="43.64072" lon="3.83025">
        <ele>75.708737274222</ele>
        <time>2020-10-25T14:51:44.000Z</time>
      </trkpt>
      <trkpt lat="43.64069" lon="3.83021">
        <ele>75.81661210214</ele>
        <time>2020-10-25T14:51:45.000Z</time>
      </trkpt>
      <trkpt lat="43.64067" lon="3.83018">
        <ele>75.924486930058</ele>
        <time>2020-10-25T14:51:46.000Z</time>
      </trkpt>
      <trkpt lat="43.64064" lon="3.83014">
        <ele>76.029411174163</ele>
        <time>2020-10-25T14:51:47.000Z</time>
      </trkpt>
      <trkpt lat="43.64062" lon="3.83011">
        <ele>76.127450512879</ele>
        <time>2020-10-25T14:51:48.000Z</time>
      </trkpt>
      <trkpt lat="43.64059" lon="3.83008">
        <ele>76.225489851595</ele>
        <time>2020-10-25T14:51:49.000Z</time>
      </trkpt>
      <trkpt lat="43.64056" lon="3.83005">
        <ele>76.323529190311</ele>
        <time>2020-10-25T14:51:50.000Z</time>
      </trkpt>
      <trkpt lat="43.64053" lon="3.83002">
        <ele>76.421568529027</ele>
        <time>2020-10-25T14:51:51.000Z</time>
      </trkpt>
      <trkpt lat="43.6405" lon="3.82998">
        <ele>76.519607867743</ele>
        <time>2020-10-25T14:51:52.000Z</time>
      </trkpt>
      <trkpt lat="43.64047" lon="3.82995">
        <ele>76.617647206459</ele>
        <time>2020-10-25T14:51:53.000Z</time>
      </trkpt>
      <trkpt lat="43.64045" lon="3.82991">
        <ele>76.715686545175</ele>
        <time>2020-10-25T14:51:54.000Z</time>
      </trkpt>
      <trkpt lat="43.64042" lon="3.82987">
        <ele>76.813725883891</ele>
        <time>2020-10-25T14:51:55.000Z</time>
      </trkpt>
      <trkpt lat="43.64039" lon="3.82983">
        <ele>76.911765222607</ele>
        <time>2020-10-25T14:51:56.000Z</time>
      </trkpt>
      <trkpt lat="43.64037" lon="3.8298">
        <ele>77.00989182674</ele>
        <time>2020-10-25T14:51:57.000Z</time>
      </trkpt>
      <trkpt lat="43.64034" lon="3.82976">
        <ele>77.108803763781</ele>
        <time>2020-10-25T14:51:58.000Z</time>
      </trkpt>
      <trkpt lat="43.64031" lon="3.82972">
        <ele>77.207715700822</ele>
        <time>2020-10-25T14:51:59.000Z</time>
      </trkpt>
      <trkpt lat="43.64028" lon="3.82969">
        <ele>77.306627637863</ele>
        <time>2020-10-25T14:52:00.000Z</time>
      </trkpt>
      <trkpt lat="43.64025" lon="3.82965">
        <ele>77.405539574903</ele>
        <time>2020-10-25T14:52:01.000Z</time>
      </trkpt>
      <trkpt lat="43.64022" lon="3.82961">
        <ele>77.504451511944</ele>
        <time>2020-10-25T14:52:02.000Z</time>
      </trkpt>
      <trkpt lat="43.6402" lon="3.82957">
        <ele>77.603363448985</ele>
        <time>2020-10-25T14:52:03.000Z</time>
      </trkpt>
      <trkpt lat="43.64017" lon="3.82953">
        <ele>77.702275386026</ele>
        <time>2020-10-25T14:52:04.000Z</time>
      </trkpt>
      <trkpt lat="43.64014" lon="3.82949">
        <ele>77.801187323066</ele>
        <time>2020-10-25T14:52:05.000Z</time>
      </trkpt>
      <trkpt lat="43.64011" lon="3.82945">
        <ele>77.900099260107</ele>
        <time>2020-10-25T14:52:06.000Z</time>
      </trkpt>
      <trkpt lat="43.64008" lon="3.82941">
        <ele>77.999011197148</ele>
        <time>2020-10-25T14:52:07.000Z</time>
      </trkpt>
      <trkpt lat="43.64005" lon="3.82937">
        <ele>78.102062118227</ele>
        <time>2020-10-25T14:52:08.000Z</time>
      </trkpt>
      <trkpt lat="43.64002" lon="3.82933">
        <ele>78.205154833712</ele>
        <time>2020-10-25T14:52:09.000Z</time>
      </trkpt>
      <trkpt lat="43.63999" lon="3.82929">
        <ele>78.308247549198</ele>
        <time>2020-10-25T14:52:10.000Z</time>
      </trkpt>
      <trkpt lat="43.63995" lon="3.82925">
        <ele>78.411340264683</ele>
        <time>2020-10-25T14:52:11.000Z</time>
      </trkpt>
      <trkpt lat="43.63992" lon="3.82921">
        <ele>78.514432980168</ele>
        <time>2020-10-25T14:52:12.000Z</time>
      </trkpt>
      <trkpt lat="43.63989" lon="3.82917">
        <ele>78.617525695653</ele>
        <time>2020-10-25T14:52:13.000Z</time>
      </trkpt>
      <trkpt lat="43.63985" lon="3.82913">
        <ele>78.720618411138</ele>
        <time>2020-10-25T14:52:14.000Z</time>
      </trkpt>
      <trkpt lat="43.63981" lon="3.8291">
        <ele>78.823711126624</ele>
        <time>2020-10-25T14:52:15.000Z</time>
      </trkpt>
      <trkpt lat="43.63977" lon="3.82906">
        <ele>78.926803842109</ele>
        <time>2020-10-25T14:52:16.000Z</time>
      </trkpt>
      <trkpt lat="43.63973" lon="3.82902">
        <ele>79</ele>
        <time>2020-10-25T14:52:17.000Z</time>
      </trkpt>
      <trkpt lat="43.6397" lon="3.82897">
        <ele>79</ele>
        <time>2020-10-25T14:52:18.000Z</time>
      </trkpt>
      <trkpt lat="43.63966" lon="3.82892">
        <ele>79</ele>
        <time>2020-10-25T14:52:19.000Z</time>
      </trkpt>
      <trkpt lat="43.63962" lon="3.82887">
        <ele>79</ele>
        <time>2020-10-25T14:52:20.000Z</time>
      </trkpt>
      <trkpt lat="43.63959" lon="3.82882">
        <ele>79</ele>
        <time>2020-10-25T14:52:21.000Z</time>
      </trkpt>
      <trkpt lat="43.63957" lon="3.82878">
        <ele>79</ele>
        <time>2020-10-25T14:52:22.000Z</time>
      </trkpt>
      <trkpt lat="43.63955" lon="3.82875">
        <ele>79</ele>
        <time>2020-10-25T14:52:24.000Z</time>
      </trkpt>
      <trkpt lat="43.63953" lon="3.82872">
        <ele>79</ele>
        <time>2020-10-25T14:52:26.000Z</time>
      </trkpt>
      <trkpt lat="43.63951" lon="3.82869">
        <ele>79.12999936</ele>
        <time>2020-10-25T14:52:28.000Z</time>
      </trkpt>
      <trkpt lat="43.6395" lon="3.82867">
        <ele>79.32999936</ele>
        <time>2020-10-25T14:52:30.000Z</time>
      </trkpt>
      <trkpt lat="43.63949" lon="3.82864">
        <ele>79.62999936</ele>
        <time>2020-10-25T14:52:33.000Z</time>
      </trkpt>
      <trkpt lat="43.63948" lon="3.82861">
        <ele>79.82999936</ele>
        <time>2020-10-25T14:52:35.000Z</time>
      </trkpt>
      <trkpt lat="43.63945" lon="3.82858">
        <ele>80</ele>
        <time>2020-10-25T14:52:37.000Z</time>
      </trkpt>
      <trkpt lat="43.63943" lon="3.82858">
        <ele>80</ele>
        <time>2020-10-25T14:52:38.000Z</time>
      </trkpt>
      <trkpt lat="43.6394" lon="3.82858">
        <ele>80</ele>
        <time>2020-10-25T14:52:39.000Z</time>
      </trkpt>
      <trkpt lat="43.63937" lon="3.82858">
        <ele>80</ele>
        <time>2020-10-25T14:52:40.000Z</time>
      </trkpt>
      <trkpt lat="43.63933" lon="3.82859">
        <ele>80</ele>
        <time>2020-10-25T14:52:41.000Z</time>
      </trkpt>
      <trkpt lat="43.6393" lon="3.8286">
        <ele>80</ele>
        <time>2020-10-25T14:52:42.000Z</time>
      </trkpt>
      <trkpt lat="43.63926" lon="3.82859">
        <ele>80</ele>
        <time>2020-10-25T14:52:43.000Z</time>
      </trkpt>
      <trkpt lat="43.63922" lon="3.82859">
        <ele>80</ele>
        <time>2020-10-25T14:52:44.000Z</time>
      </trkpt>
      <trkpt lat="43.63919" lon="3.8286">
        <ele>80</ele>
        <time>2020-10-25T14:52:45.000Z</time>
      </trkpt>
      <trkpt lat="43.63916" lon="3.82863">
        <ele>80</ele>
        <time>2020-10-25T14:52:46.000Z</time>
      </trkpt>
      <trkpt lat="43.63913" lon="3.82866">
        <ele>79.969542527146</ele>
        <time>2020-10-25T14:52:47.000Z</time>
      </trkpt>
      <trkpt lat="43.6391" lon="3.82869">
        <ele>79.766497039759</ele>
        <time>2020-10-25T14:52:48.000Z</time>
      </trkpt>
      <trkpt lat="43.63907" lon="3.82874">
        <ele>79.563451552372</ele>
        <time>2020-10-25T14:52:49.000Z</time>
      </trkpt>
      <trkpt lat="43.63905" lon="3.8288">
        <ele>79.360406064985</ele>
        <time>2020-10-25T14:52:50.000Z</time>
      </trkpt>
      <trkpt lat="43.63902" lon="3.82886">
        <ele>79.157360577598</ele>
        <time>2020-10-25T14:52:51.000Z</time>
      </trkpt>
      <trkpt lat="43.63899" lon="3.82893">
        <ele>78.954315090211</ele>
        <time>2020-10-25T14:52:52.000Z</time>
      </trkpt>
      <trkpt lat="43.63896" lon="3.82899">
        <ele>78.751269602823</ele>
        <time>2020-10-25T14:52:53.000Z</time>
      </trkpt>
      <trkpt lat="43.63893" lon="3.82906">
        <ele>78.548224115436</ele>
        <time>2020-10-25T14:52:54.000Z</time>
      </trkpt>
      <trkpt lat="43.63889" lon="3.82913">
        <ele>78.345178628049</ele>
        <time>2020-10-25T14:52:55.000Z</time>
      </trkpt>
      <trkpt lat="43.63885" lon="3.8292">
        <ele>78.142133140662</ele>
        <time>2020-10-25T14:52:56.000Z</time>
      </trkpt>
      <trkpt lat="43.63881" lon="3.82927">
        <ele>78</ele>
        <time>2020-10-25T14:52:57.000Z</time>
      </trkpt>
      <trkpt lat="43.63877" lon="3.82934">
        <ele>78</ele>
        <time>2020-10-25T14:52:58.000Z</time>
      </trkpt>
      <trkpt lat="43.63873" lon="3.82941">
        <ele>78</ele>
        <time>2020-10-25T14:52:59.000Z</time>
      </trkpt>
      <trkpt lat="43.63868" lon="3.82947">
        <ele>78</ele>
        <time>2020-10-25T14:53:00.000Z</time>
      </trkpt>
      <trkpt lat="43.63864" lon="3.82954">
        <ele>78</ele>
        <time>2020-10-25T14:53:01.000Z</time>
      </trkpt>
      <trkpt lat="43.63859" lon="3.8296">
        <ele>78</ele>
        <time>2020-10-25T14:53:02.000Z</time>
      </trkpt>
      <trkpt lat="43.63855" lon="3.82966">
        <ele>78</ele>
        <time>2020-10-25T14:53:03.000Z</time>
      </trkpt>
      <trkpt lat="43.63851" lon="3.82971">
        <ele>78</ele>
        <time>2020-10-25T14:53:04.000Z</time>
      </trkpt>
      <trkpt lat="43.63848" lon="3.82975">
        <ele>78</ele>
        <time>2020-10-25T14:53:05.000Z</time>
      </trkpt>
      <trkpt lat="43.63844" lon="3.82979">
        <ele>78</ele>
        <time>2020-10-25T14:53:06.000Z</time>
      </trkpt>
      <trkpt lat="43.63841" lon="3.82983">
        <ele>77.972682918301</ele>
        <time>2020-10-25T14:53:07.000Z</time>
      </trkpt>
      <trkpt lat="43.63838" lon="3.82988">
        <ele>77.875121912233</ele>
        <time>2020-10-25T14:53:08.000Z</time>
      </trkpt>
      <trkpt lat="43.63835" lon="3.82992">
        <ele>77.777560906165</ele>
        <time>2020-10-25T14:53:09.000Z</time>
      </trkpt>
      <trkpt lat="43.63831" lon="3.82995">
        <ele>77.679999900097</ele>
        <time>2020-10-25T14:53:10.000Z</time>
      </trkpt>
      <trkpt lat="43.63828" lon="3.82999">
        <ele>77.58243889403</ele>
        <time>2020-10-25T14:53:11.000Z</time>
      </trkpt>
      <trkpt lat="43.63825" lon="3.83003">
        <ele>77.484877887962</ele>
        <time>2020-10-25T14:53:12.000Z</time>
      </trkpt>
      <trkpt lat="43.63822" lon="3.83007">
        <ele>77.387316881894</ele>
        <time>2020-10-25T14:53:13.000Z</time>
      </trkpt>
      <trkpt lat="43.63819" lon="3.83011">
        <ele>77.289755875826</ele>
        <time>2020-10-25T14:53:14.000Z</time>
      </trkpt>
      <trkpt lat="43.63816" lon="3.83015">
        <ele>77.192194869758</ele>
        <time>2020-10-25T14:53:15.000Z</time>
      </trkpt>
      <trkpt lat="43.63812" lon="3.83019">
        <ele>77.094633863691</ele>
        <time>2020-10-25T14:53:16.000Z</time>
      </trkpt>
      <trkpt lat="43.63809" lon="3.83023">
        <ele>77</ele>
        <time>2020-10-25T14:53:17.000Z</time>
      </trkpt>
      <trkpt lat="43.63806" lon="3.83026">
        <ele>77</ele>
        <time>2020-10-25T14:53:18.000Z</time>
      </trkpt>
      <trkpt lat="43.63803" lon="3.83029">
        <ele>77</ele>
        <time>2020-10-25T14:53:19.000Z</time>
      </trkpt>
      <trkpt lat="43.638" lon="3.83033">
        <ele>77</ele>
        <time>2020-10-25T14:53:20.000Z</time>
      </trkpt>
      <trkpt lat="43.63797" lon="3.83036">
        <ele>77</ele>
        <time>2020-10-25T14:53:21.000Z</time>
      </trkpt>
      <trkpt lat="43.63794" lon="3.8304">
        <ele>77</ele>
        <time>2020-10-25T14:53:22.000Z</time>
      </trkpt>
      <trkpt lat="43.6379" lon="3.83043">
        <ele>77</ele>
        <time>2020-10-25T14:53:23.000Z</time>
      </trkpt>
      <trkpt lat="43.63787" lon="3.83047">
        <ele>77</ele>
        <time>2020-10-25T14:53:24.000Z</time>
      </trkpt>
      <trkpt lat="43.63784" lon="3.8305">
        <ele>77</ele>
        <time>2020-10-25T14:53:25.000Z</time>
      </trkpt>
      <trkpt lat="43.6378" lon="3.83054">
        <ele>77</ele>
        <time>2020-10-25T14:53:26.000Z</time>
      </trkpt>
      <trkpt lat="43.63777" lon="3.83057">
        <ele>76.97000064</ele>
        <time>2020-10-25T14:53:27.000Z</time>
      </trkpt>
      <trkpt lat="43.63773" lon="3.8306">
        <ele>76.87000064</ele>
        <time>2020-10-25T14:53:28.000Z</time>
      </trkpt>
      <trkpt lat="43.63769" lon="3.83064">
        <ele>76.77000064</ele>
        <time>2020-10-25T14:53:29.000Z</time>
      </trkpt>
      <trkpt lat="43.63765" lon="3.83068">
        <ele>76.67000064</ele>
        <time>2020-10-25T14:53:30.000Z</time>
      </trkpt>
      <trkpt lat="43.63761" lon="3.83071">
        <ele>76.57000064</ele>
        <time>2020-10-25T14:53:31.000Z</time>
      </trkpt>
      <trkpt lat="43.63758" lon="3.83074">
        <ele>76.47000064</ele>
        <time>2020-10-25T14:53:32.000Z</time>
      </trkpt>
      <trkpt lat="43.63754" lon="3.83078">
        <ele>76.37000064</ele>
        <time>2020-10-25T14:53:33.000Z</time>
      </trkpt>
      <trkpt lat="43.6375" lon="3.83081">
        <ele>76.27000064</ele>
        <time>2020-10-25T14:53:34.000Z</time>
      </trkpt>
      <trkpt lat="43.63747" lon="3.83083">
        <ele>76.17000064</ele>
        <time>2020-10-25T14:53:35.000Z</time>
      </trkpt>
      <trkpt lat="43.63743" lon="3.83086">
        <ele>76.07000064</ele>
        <time>2020-10-25T14:53:36.000Z</time>
      </trkpt>
      <trkpt lat="43.6374" lon="3.83088">
        <ele>76</ele>
        <time>2020-10-25T14:53:37.000Z</time>
      </trkpt>
      <trkpt lat="43.63736" lon="3.83091">
        <ele>76</ele>
        <time>2020-10-25T14:53:38.000Z</time>
      </trkpt>
      <trkpt lat="43.63733" lon="3.83094">
        <ele>76</ele>
        <time>2020-10-25T14:53:39.000Z</time>
      </trkpt>
      <trkpt lat="43.6373" lon="3.83097">
        <ele>76</ele>
        <time>2020-10-25T14:53:40.000Z</time>
      </trkpt>
      <trkpt lat="43.63726" lon="3.83101">
        <ele>76</ele>
        <time>2020-10-25T14:53:41.000Z</time>
      </trkpt>
      <trkpt lat="43.63722" lon="3.83103">
        <ele>76</ele>
        <time>2020-10-25T14:53:42.000Z</time>
      </trkpt>
      <trkpt lat="43.63717" lon="3.83106">
        <ele>76</ele>
        <time>2020-10-25T14:53:43.000Z</time>
      </trkpt>
      <trkpt lat="43.63713" lon="3.83108">
        <ele>76</ele>
        <time>2020-10-25T14:53:44.000Z</time>
      </trkpt>
      <trkpt lat="43.63708" lon="3.8311">
        <ele>76</ele>
        <time>2020-10-25T14:53:45.000Z</time>
      </trkpt>
      <trkpt lat="43.63703" lon="3.83112">
        <ele>76</ele>
        <time>2020-10-25T14:53:46.000Z</time>
      </trkpt>
      <trkpt lat="43.63699" lon="3.83113">
        <ele>75.97090263052</ele>
        <time>2020-10-25T14:53:47.000Z</time>
      </trkpt>
      <trkpt lat="43.63694" lon="3.83114">
        <ele>75.873909329731</ele>
        <time>2020-10-25T14:53:48.000Z</time>
      </trkpt>
      <trkpt lat="43.63689" lon="3.83116">
        <ele>75.776916028942</ele>
        <time>2020-10-25T14:53:49.000Z</time>
      </trkpt>
      <trkpt lat="43.63685" lon="3.83117">
        <ele>75.679922728153</ele>
        <time>2020-10-25T14:53:50.000Z</time>
      </trkpt>
      <trkpt lat="43.6368" lon="3.83119">
        <ele>75.582929427364</ele>
        <time>2020-10-25T14:53:51.000Z</time>
      </trkpt>
      <trkpt lat="43.63675" lon="3.83121">
        <ele>75.485936126575</ele>
        <time>2020-10-25T14:53:52.000Z</time>
      </trkpt>
      <trkpt lat="43.6367" lon="3.83123">
        <ele>75.388942825786</ele>
        <time>2020-10-25T14:53:53.000Z</time>
      </trkpt>
      <trkpt lat="43.63665" lon="3.83125">
        <ele>75.291949524997</ele>
        <time>2020-10-25T14:53:54.000Z</time>
      </trkpt>
      <trkpt lat="43.63661" lon="3.83127">
        <ele>75.194956224208</ele>
        <time>2020-10-25T14:53:55.000Z</time>
      </trkpt>
      <trkpt lat="43.63658" lon="3.8313">
        <ele>75.097962923418</ele>
        <time>2020-10-25T14:53:56.000Z</time>
      </trkpt>
      <trkpt lat="43.63655" lon="3.83132">
        <ele>75.000969622629</ele>
        <time>2020-10-25T14:53:57.000Z</time>
      </trkpt>
      <trkpt lat="43.63651" lon="3.83134">
        <ele>75</ele>
        <time>2020-10-25T14:53:58.000Z</time>
      </trkpt>
      <trkpt lat="43.63647" lon="3.83137">
        <ele>75</ele>
        <time>2020-10-25T14:53:59.000Z</time>
      </trkpt>
      <trkpt lat="43.63643" lon="3.83139">
        <ele>75</ele>
        <time>2020-10-25T14:54:00.000Z</time>
      </trkpt>
      <trkpt lat="43.63638" lon="3.83141">
        <ele>75</ele>
        <time>2020-10-25T14:54:01.000Z</time>
      </trkpt>
      <trkpt lat="43.63632" lon="3.83143">
        <ele>75</ele>
        <time>2020-10-25T14:54:02.000Z</time>
      </trkpt>
      <trkpt lat="43.63627" lon="3.83145">
        <ele>75</ele>
        <time>2020-10-25T14:54:03.000Z</time>
      </trkpt>
      <trkpt lat="43.63622" lon="3.83147">
        <ele>75</ele>
        <time>2020-10-25T14:54:04.000Z</time>
      </trkpt>
      <trkpt lat="43.63617" lon="3.83149">
        <ele>75</ele>
        <time>2020-10-25T14:54:05.000Z</time>
      </trkpt>
      <trkpt lat="43.63612" lon="3.83151">
        <ele>75</ele>
        <time>2020-10-25T14:54:06.000Z</time>
      </trkpt>
      <trkpt lat="43.63608" lon="3.83154">
        <ele>75</ele>
        <time>2020-10-25T14:54:07.000Z</time>
      </trkpt>
      <trkpt lat="43.63604" lon="3.83158">
        <ele>75</ele>
        <time>2020-10-25T14:54:08.000Z</time>
      </trkpt>
      <trkpt lat="43.63599" lon="3.83161">
        <ele>75</ele>
        <time>2020-10-25T14:54:09.000Z</time>
      </trkpt>
      <trkpt lat="43.63596" lon="3.83165">
        <ele>75</ele>
        <time>2020-10-25T14:54:10.000Z</time>
      </trkpt>
      <trkpt lat="43.63591" lon="3.83168">
        <ele>75</ele>
        <time>2020-10-25T14:54:11.000Z</time>
      </trkpt>
      <trkpt lat="43.63587" lon="3.83171">
        <ele>75</ele>
        <time>2020-10-25T14:54:12.000Z</time>
      </trkpt>
      <trkpt lat="43.63584" lon="3.83175">
        <ele>75</ele>
        <time>2020-10-25T14:54:13.000Z</time>
      </trkpt>
      <trkpt lat="43.6358" lon="3.83179">
        <ele>75</ele>
        <time>2020-10-25T14:54:14.000Z</time>
      </trkpt>
      <trkpt lat="43.63577" lon="3.83183">
        <ele>75</ele>
        <time>2020-10-25T14:54:15.000Z</time>
      </trkpt>
      <trkpt lat="43.63574" lon="3.83187">
        <ele>75</ele>
        <time>2020-10-25T14:54:16.000Z</time>
      </trkpt>
      <trkpt lat="43.6357" lon="3.83191">
        <ele>75</ele>
        <time>2020-10-25T14:54:17.000Z</time>
      </trkpt>
      <trkpt lat="43.63566" lon="3.83194">
        <ele>75</ele>
        <time>2020-10-25T14:54:18.000Z</time>
      </trkpt>
      <trkpt lat="43.63562" lon="3.83198">
        <ele>75</ele>
        <time>2020-10-25T14:54:19.000Z</time>
      </trkpt>
      <trkpt lat="43.63558" lon="3.83202">
        <ele>75</ele>
        <time>2020-10-25T14:54:20.000Z</time>
      </trkpt>
      <trkpt lat="43.63554" lon="3.83206">
        <ele>75</ele>
        <time>2020-10-25T14:54:21.000Z</time>
      </trkpt>
      <trkpt lat="43.6355" lon="3.8321">
        <ele>75</ele>
        <time>2020-10-25T14:54:22.000Z</time>
      </trkpt>
      <trkpt lat="43.63546" lon="3.83214">
        <ele>75</ele>
        <time>2020-10-25T14:54:23.000Z</time>
      </trkpt>
      <trkpt lat="43.63542" lon="3.83218">
        <ele>75</ele>
        <time>2020-10-25T14:54:24.000Z</time>
      </trkpt>
      <trkpt lat="43.63538" lon="3.83222">
        <ele>75</ele>
        <time>2020-10-25T14:54:25.000Z</time>
      </trkpt>
      <trkpt lat="43.63534" lon="3.83226">
        <ele>75</ele>
        <time>2020-10-25T14:54:26.000Z</time>
      </trkpt>
      <trkpt lat="43.63531" lon="3.83229">
        <ele>74.970060499839</ele>
        <time>2020-10-25T14:54:27.000Z</time>
      </trkpt>
      <trkpt lat="43.63527" lon="3.83233">
        <ele>74.870260036893</ele>
        <time>2020-10-25T14:54:28.000Z</time>
      </trkpt>
      <trkpt lat="43.63523" lon="3.83237">
        <ele>74.770459573946</ele>
        <time>2020-10-25T14:54:29.000Z</time>
      </trkpt>
      <trkpt lat="43.6352" lon="3.83241">
        <ele>74.670659111</ele>
        <time>2020-10-25T14:54:30.000Z</time>
      </trkpt>
      <trkpt lat="43.63516" lon="3.83245">
        <ele>74.570858648053</ele>
        <time>2020-10-25T14:54:31.000Z</time>
      </trkpt>
      <trkpt lat="43.63513" lon="3.83249">
        <ele>74.471058185107</ele>
        <time>2020-10-25T14:54:32.000Z</time>
      </trkpt>
      <trkpt lat="43.63509" lon="3.83253">
        <ele>74.371257722161</ele>
        <time>2020-10-25T14:54:33.000Z</time>
      </trkpt>
      <trkpt lat="43.63506" lon="3.83257">
        <ele>74.271457259214</ele>
        <time>2020-10-25T14:54:34.000Z</time>
      </trkpt>
      <trkpt lat="43.63502" lon="3.83262">
        <ele>74.171656796268</ele>
        <time>2020-10-25T14:54:35.000Z</time>
      </trkpt>
      <trkpt lat="43.63498" lon="3.83266">
        <ele>74.071856333321</ele>
        <time>2020-10-25T14:54:36.000Z</time>
      </trkpt>
      <trkpt lat="43.63494" lon="3.8327">
        <ele>73.97273613313</ele>
        <time>2020-10-25T14:54:37.000Z</time>
      </trkpt>
      <trkpt lat="43.6349" lon="3.83275">
        <ele>73.875365180022</ele>
        <time>2020-10-25T14:54:38.000Z</time>
      </trkpt>
      <trkpt lat="43.63487" lon="3.8328">
        <ele>73.777994226915</ele>
        <time>2020-10-25T14:54:39.000Z</time>
      </trkpt>
      <trkpt lat="43.63483" lon="3.83285">
        <ele>73.680623273808</ele>
        <time>2020-10-25T14:54:40.000Z</time>
      </trkpt>
      <trkpt lat="43.63479" lon="3.8329">
        <ele>73.5832523207</ele>
        <time>2020-10-25T14:54:41.000Z</time>
      </trkpt>
      <trkpt lat="43.63476" lon="3.83295">
        <ele>73.485881367593</ele>
        <time>2020-10-25T14:54:42.000Z</time>
      </trkpt>
      <trkpt lat="43.63472" lon="3.833">
        <ele>73.388510414486</ele>
        <time>2020-10-25T14:54:43.000Z</time>
      </trkpt>
      <trkpt lat="43.63469" lon="3.83304">
        <ele>73.291139461378</ele>
        <time>2020-10-25T14:54:44.000Z</time>
      </trkpt>
      <trkpt lat="43.63466" lon="3.83309">
        <ele>73.193768508271</ele>
        <time>2020-10-25T14:54:45.000Z</time>
      </trkpt>
      <trkpt lat="43.63462" lon="3.83314">
        <ele>73.096397555163</ele>
        <time>2020-10-25T14:54:46.000Z</time>
      </trkpt>
      <trkpt lat="43.63458" lon="3.83319">
        <ele>72.996911391337</ele>
        <time>2020-10-25T14:54:47.000Z</time>
      </trkpt>
      <trkpt lat="43.63455" lon="3.83324">
        <ele>72.687951657936</ele>
        <time>2020-10-25T14:54:48.000Z</time>
      </trkpt>
      <trkpt lat="43.63451" lon="3.83329">
        <ele>72.378991924534</ele>
        <time>2020-10-25T14:54:49.000Z</time>
      </trkpt>
      <trkpt lat="43.63448" lon="3.83335">
        <ele>72.070032191132</ele>
        <time>2020-10-25T14:54:50.000Z</time>
      </trkpt>
      <trkpt lat="43.63444" lon="3.8334">
        <ele>71.761072457731</ele>
        <time>2020-10-25T14:54:51.000Z</time>
      </trkpt>
      <trkpt lat="43.63441" lon="3.83346">
        <ele>71.452112724329</ele>
        <time>2020-10-25T14:54:52.000Z</time>
      </trkpt>
      <trkpt lat="43.63438" lon="3.83353">
        <ele>71.143152990928</ele>
        <time>2020-10-25T14:54:53.000Z</time>
      </trkpt>
      <trkpt lat="43.63435" lon="3.8336">
        <ele>70.834193257526</ele>
        <time>2020-10-25T14:54:54.000Z</time>
      </trkpt>
      <trkpt lat="43.63432" lon="3.83367">
        <ele>70.525233524125</ele>
        <time>2020-10-25T14:54:55.000Z</time>
      </trkpt>
      <trkpt lat="43.63428" lon="3.83373">
        <ele>70.216273790723</ele>
        <time>2020-10-25T14:54:56.000Z</time>
      </trkpt>
      <trkpt lat="43.63423" lon="3.83378">
        <ele>69.943663156781</ele>
        <time>2020-10-25T14:54:57.000Z</time>
      </trkpt>
      <trkpt lat="43.63419" lon="3.83383">
        <ele>69.755869673125</ele>
        <time>2020-10-25T14:54:58.000Z</time>
      </trkpt>
      <trkpt lat="43.63415" lon="3.83389">
        <ele>69.568076189469</ele>
        <time>2020-10-25T14:54:59.000Z</time>
      </trkpt>
      <trkpt lat="43.63412" lon="3.83396">
        <ele>69.380282705813</ele>
        <time>2020-10-25T14:55:00.000Z</time>
      </trkpt>
      <trkpt lat="43.63409" lon="3.83403">
        <ele>69.192489222156</ele>
        <time>2020-10-25T14:55:01.000Z</time>
      </trkpt>
      <trkpt lat="43.63406" lon="3.83409">
        <ele>69.0046957385</ele>
        <time>2020-10-25T14:55:02.000Z</time>
      </trkpt>
      <trkpt lat="43.63403" lon="3.83415">
        <ele>68.816902254844</ele>
        <time>2020-10-25T14:55:03.000Z</time>
      </trkpt>
      <trkpt lat="43.63401" lon="3.83421">
        <ele>68.629108771188</ele>
        <time>2020-10-25T14:55:04.000Z</time>
      </trkpt>
      <trkpt lat="43.63399" lon="3.83428">
        <ele>68.441315287531</ele>
        <time>2020-10-25T14:55:05.000Z</time>
      </trkpt>
      <trkpt lat="43.63397" lon="3.83434">
        <ele>68.253521803875</ele>
        <time>2020-10-25T14:55:06.000Z</time>
      </trkpt>
      <trkpt lat="43.63394" lon="3.83441">
        <ele>68.065728320219</ele>
        <time>2020-10-25T14:55:07.000Z</time>
      </trkpt>
      <trkpt lat="43.63392" lon="3.83447">
        <ele>67.930777692808</ele>
        <time>2020-10-25T14:55:08.000Z</time>
      </trkpt>
      <trkpt lat="43.6339" lon="3.83454">
        <ele>67.824281311299</ele>
        <time>2020-10-25T14:55:09.000Z</time>
      </trkpt>
      <trkpt lat="43.63387" lon="3.83461">
        <ele>67.717784929791</ele>
        <time>2020-10-25T14:55:10.000Z</time>
      </trkpt>
      <trkpt lat="43.63385" lon="3.83468">
        <ele>67.611288548282</ele>
        <time>2020-10-25T14:55:11.000Z</time>
      </trkpt>
      <trkpt lat="43.63382" lon="3.83474">
        <ele>67.504792166774</ele>
        <time>2020-10-25T14:55:12.000Z</time>
      </trkpt>
      <trkpt lat="43.63378" lon="3.83481">
        <ele>67.398295785265</ele>
        <time>2020-10-25T14:55:13.000Z</time>
      </trkpt>
      <trkpt lat="43.63375" lon="3.83487">
        <ele>67.291799403757</ele>
        <time>2020-10-25T14:55:14.000Z</time>
      </trkpt>
      <trkpt lat="43.63372" lon="3.83494">
        <ele>67.185303022248</ele>
        <time>2020-10-25T14:55:15.000Z</time>
      </trkpt>
      <trkpt lat="43.63369" lon="3.835">
        <ele>67.07880664074</ele>
        <time>2020-10-25T14:55:16.000Z</time>
      </trkpt>
      <trkpt lat="43.63367" lon="3.83507">
        <ele>66.973894973308</ele>
        <time>2020-10-25T14:55:17.000Z</time>
      </trkpt>
      <trkpt lat="43.63364" lon="3.83513">
        <ele>66.873493495912</ele>
        <time>2020-10-25T14:55:18.000Z</time>
      </trkpt>
      <trkpt lat="43.63362" lon="3.83519">
        <ele>66.773092018516</ele>
        <time>2020-10-25T14:55:19.000Z</time>
      </trkpt>
      <trkpt lat="43.63359" lon="3.83525">
        <ele>66.672690541121</ele>
        <time>2020-10-25T14:55:20.000Z</time>
      </trkpt>
      <trkpt lat="43.63355" lon="3.83531">
        <ele>66.572289063725</ele>
        <time>2020-10-25T14:55:21.000Z</time>
      </trkpt>
      <trkpt lat="43.63351" lon="3.83535">
        <ele>66.471887586329</ele>
        <time>2020-10-25T14:55:22.000Z</time>
      </trkpt>
      <trkpt lat="43.63346" lon="3.83536">
        <ele>66.371486108933</ele>
        <time>2020-10-25T14:55:23.000Z</time>
      </trkpt>
      <trkpt lat="43.63341" lon="3.83534">
        <ele>66.271084631538</ele>
        <time>2020-10-25T14:55:24.000Z</time>
      </trkpt>
      <trkpt lat="43.63336" lon="3.83533">
        <ele>66.170683154142</ele>
        <time>2020-10-25T14:55:25.000Z</time>
      </trkpt>
      <trkpt lat="43.63331" lon="3.83531">
        <ele>66.070281676746</ele>
        <time>2020-10-25T14:55:26.000Z</time>
      </trkpt>
      <trkpt lat="43.63326" lon="3.83528">
        <ele>66</ele>
        <time>2020-10-25T14:55:27.000Z</time>
      </trkpt>
      <trkpt lat="43.63321" lon="3.83527">
        <ele>66</ele>
        <time>2020-10-25T14:55:28.000Z</time>
      </trkpt>
      <trkpt lat="43.63318" lon="3.83525">
        <ele>66</ele>
        <time>2020-10-25T14:55:29.000Z</time>
      </trkpt>
      <trkpt lat="43.63315" lon="3.83524">
        <ele>66</ele>
        <time>2020-10-25T14:55:30.000Z</time>
      </trkpt>
      <trkpt lat="43.63311" lon="3.83523">
        <ele>66</ele>
        <time>2020-10-25T14:55:31.000Z</time>
      </trkpt>
      <trkpt lat="43.63308" lon="3.83526">
        <ele>66</ele>
        <time>2020-10-25T14:55:32.000Z</time>
      </trkpt>
      <trkpt lat="43.63306" lon="3.8353">
        <ele>66</ele>
        <time>2020-10-25T14:55:33.000Z</time>
      </trkpt>
      <trkpt lat="43.63304" lon="3.83536">
        <ele>66</ele>
        <time>2020-10-25T14:55:34.000Z</time>
      </trkpt>
      <trkpt lat="43.63302" lon="3.83543">
        <ele>66</ele>
        <time>2020-10-25T14:55:35.000Z</time>
      </trkpt>
      <trkpt lat="43.63301" lon="3.8355">
        <ele>66</ele>
        <time>2020-10-25T14:55:36.000Z</time>
      </trkpt>
      <trkpt lat="43.633" lon="3.83557">
        <ele>66</ele>
        <time>2020-10-25T14:55:37.000Z</time>
      </trkpt>
      <trkpt lat="43.63295" lon="3.83571">
        <ele>65.794633516153</ele>
        <time>2020-10-25T14:55:39.000Z</time>
      </trkpt>
      <trkpt lat="43.6329" lon="3.83577">
        <ele>65.691434443986</ele>
        <time>2020-10-25T14:55:40.000Z</time>
      </trkpt>
      <trkpt lat="43.63286" lon="3.83582">
        <ele>65.588235371821</ele>
        <time>2020-10-25T14:55:41.000Z</time>
      </trkpt>
      <trkpt lat="43.63283" lon="3.83588">
        <ele>65.485036299654</ele>
        <time>2020-10-25T14:55:42.000Z</time>
      </trkpt>
      <trkpt lat="43.63281" lon="3.83594">
        <ele>65.381837227488</ele>
        <time>2020-10-25T14:55:43.000Z</time>
      </trkpt>
      <trkpt lat="43.63279" lon="3.83601">
        <ele>65.278638155322</ele>
        <time>2020-10-25T14:55:44.000Z</time>
      </trkpt>
      <trkpt lat="43.63276" lon="3.83607">
        <ele>65.175439083156</ele>
        <time>2020-10-25T14:55:45.000Z</time>
      </trkpt>
      <trkpt lat="43.63274" lon="3.83614">
        <ele>65.07224001099</ele>
        <time>2020-10-25T14:55:46.000Z</time>
      </trkpt>
      <trkpt lat="43.6327" lon="3.8362">
        <ele>64.970958984227</ele>
        <time>2020-10-25T14:55:47.000Z</time>
      </trkpt>
      <trkpt lat="43.63267" lon="3.83625">
        <ele>64.874153533136</ele>
        <time>2020-10-25T14:55:48.000Z</time>
      </trkpt>
      <trkpt lat="43.63264" lon="3.8363">
        <ele>64.777348082044</ele>
        <time>2020-10-25T14:55:49.000Z</time>
      </trkpt>
      <trkpt lat="43.6326" lon="3.83635">
        <ele>64.680542630952</ele>
        <time>2020-10-25T14:55:50.000Z</time>
      </trkpt>
      <trkpt lat="43.63257" lon="3.8364">
        <ele>64.583737179861</ele>
        <time>2020-10-25T14:55:51.000Z</time>
      </trkpt>
      <trkpt lat="43.63255" lon="3.83644">
        <ele>64.486931728769</ele>
        <time>2020-10-25T14:55:52.000Z</time>
      </trkpt>
      <trkpt lat="43.63252" lon="3.83648">
        <ele>64.390126277677</ele>
        <time>2020-10-25T14:55:53.000Z</time>
      </trkpt>
      <trkpt lat="43.6325" lon="3.83653">
        <ele>64.293320826585</ele>
        <time>2020-10-25T14:55:54.000Z</time>
      </trkpt>
      <trkpt lat="43.63247" lon="3.8366">
        <ele>64.196515375494</ele>
        <time>2020-10-25T14:55:55.000Z</time>
      </trkpt>
      <trkpt lat="43.63245" lon="3.83667">
        <ele>64.099709924402</ele>
        <time>2020-10-25T14:55:56.000Z</time>
      </trkpt>
      <trkpt lat="43.63243" lon="3.83674">
        <ele>64.00290447331</ele>
        <time>2020-10-25T14:55:57.000Z</time>
      </trkpt>
      <trkpt lat="43.63241" lon="3.8368">
        <ele>64</ele>
        <time>2020-10-25T14:55:58.000Z</time>
      </trkpt>
      <trkpt lat="43.63239" lon="3.83687">
        <ele>64</ele>
        <time>2020-10-25T14:55:59.000Z</time>
      </trkpt>
      <trkpt lat="43.63236" lon="3.83693">
        <ele>64</ele>
        <time>2020-10-25T14:56:00.000Z</time>
      </trkpt>
      <trkpt lat="43.63234" lon="3.83699">
        <ele>64</ele>
        <time>2020-10-25T14:56:01.000Z</time>
      </trkpt>
      <trkpt lat="43.63232" lon="3.83705">
        <ele>64</ele>
        <time>2020-10-25T14:56:02.000Z</time>
      </trkpt>
      <trkpt lat="43.6323" lon="3.83709">
        <ele>64</ele>
        <time>2020-10-25T14:56:03.000Z</time>
      </trkpt>
      <trkpt lat="43.63229" lon="3.83713">
        <ele>64</ele>
        <time>2020-10-25T14:56:04.000Z</time>
      </trkpt>
      <trkpt lat="43.63227" lon="3.83717">
        <ele>64</ele>
        <time>2020-10-25T14:56:05.000Z</time>
      </trkpt>
      <trkpt lat="43.63225" lon="3.83721">
        <ele>64</ele>
        <time>2020-10-25T14:56:06.000Z</time>
      </trkpt>
      <trkpt lat="43.63224" lon="3.83726">
        <ele>64</ele>
        <time>2020-10-25T14:56:07.000Z</time>
      </trkpt>
      <trkpt lat="43.63223" lon="3.8373">
        <ele>64</ele>
        <time>2020-10-25T14:56:08.000Z</time>
      </trkpt>
      <trkpt lat="43.63221" lon="3.83735">
        <ele>64</ele>
        <time>2020-10-25T14:56:09.000Z</time>
      </trkpt>
      <trkpt lat="43.63219" lon="3.83738">
        <ele>64</ele>
        <time>2020-10-25T14:56:10.000Z</time>
      </trkpt>
      <trkpt lat="43.63217" lon="3.83742">
        <ele>64</ele>
        <time>2020-10-25T14:56:11.000Z</time>
      </trkpt>
      <trkpt lat="43.63214" lon="3.83745">
        <ele>64</ele>
        <time>2020-10-25T14:56:12.000Z</time>
      </trkpt>
      <trkpt lat="43.63211" lon="3.83747">
        <ele>64</ele>
        <time>2020-10-25T14:56:13.000Z</time>
      </trkpt>
      <trkpt lat="43.63208" lon="3.83749">
        <ele>64</ele>
        <time>2020-10-25T14:56:14.000Z</time>
      </trkpt>
      <trkpt lat="43.63204" lon="3.83753">
        <ele>64</ele>
        <time>2020-10-25T14:56:15.000Z</time>
      </trkpt>
      <trkpt lat="43.63201" lon="3.83757">
        <ele>64</ele>
        <time>2020-10-25T14:56:16.000Z</time>
      </trkpt>
      <trkpt lat="43.63199" lon="3.83762">
        <ele>64</ele>
        <time>2020-10-25T14:56:17.000Z</time>
      </trkpt>
      <trkpt lat="43.63197" lon="3.83768">
        <ele>63.89814781893</ele>
        <time>2020-10-25T14:56:18.000Z</time>
      </trkpt>
      <trkpt lat="43.63195" lon="3.83773">
        <ele>63.795267160494</ele>
        <time>2020-10-25T14:56:19.000Z</time>
      </trkpt>
      <trkpt lat="43.63191" lon="3.83775">
        <ele>63.692386502058</ele>
        <time>2020-10-25T14:56:20.000Z</time>
      </trkpt>
      <trkpt lat="43.63188" lon="3.83777">
        <ele>63.589505843621</ele>
        <time>2020-10-25T14:56:21.000Z</time>
      </trkpt>
      <trkpt lat="43.63186" lon="3.83781">
        <ele>63.486625185185</ele>
        <time>2020-10-25T14:56:22.000Z</time>
      </trkpt>
      <trkpt lat="43.63184" lon="3.83784">
        <ele>63.383744526749</ele>
        <time>2020-10-25T14:56:23.000Z</time>
      </trkpt>
      <trkpt lat="43.63181" lon="3.83788">
        <ele>63.280863868313</ele>
        <time>2020-10-25T14:56:24.000Z</time>
      </trkpt>
      <trkpt lat="43.63177" lon="3.83791">
        <ele>63.177983209877</ele>
        <time>2020-10-25T14:56:25.000Z</time>
      </trkpt>
      <trkpt lat="43.63173" lon="3.83794">
        <ele>63.07510255144</ele>
        <time>2020-10-25T14:56:26.000Z</time>
      </trkpt>
      <trkpt lat="43.63166" lon="3.83804">
        <ele>62.872872593274</ele>
        <time>2020-10-25T14:56:28.000Z</time>
      </trkpt>
      <trkpt lat="43.63161" lon="3.83811">
        <ele>62.772772525238</ele>
        <time>2020-10-25T14:56:29.000Z</time>
      </trkpt>
      <trkpt lat="43.63157" lon="3.83817">
        <ele>62.672672457202</ele>
        <time>2020-10-25T14:56:30.000Z</time>
      </trkpt>
      <trkpt lat="43.63154" lon="3.83824">
        <ele>62.572572389166</ele>
        <time>2020-10-25T14:56:31.000Z</time>
      </trkpt>
      <trkpt lat="43.63151" lon="3.83831">
        <ele>62.47247232113</ele>
        <time>2020-10-25T14:56:32.000Z</time>
      </trkpt>
      <trkpt lat="43.63148" lon="3.83839">
        <ele>62.372372253094</ele>
        <time>2020-10-25T14:56:33.000Z</time>
      </trkpt>
      <trkpt lat="43.63146" lon="3.83846">
        <ele>62.272272185058</ele>
        <time>2020-10-25T14:56:34.000Z</time>
      </trkpt>
      <trkpt lat="43.63144" lon="3.83855">
        <ele>62.172172117022</ele>
        <time>2020-10-25T14:56:35.000Z</time>
      </trkpt>
      <trkpt lat="43.63142" lon="3.83862">
        <ele>62.072072048986</ele>
        <time>2020-10-25T14:56:36.000Z</time>
      </trkpt>
      <trkpt lat="43.63139" lon="3.83868">
        <ele>61.971943905767</ele>
        <time>2020-10-25T14:56:37.000Z</time>
      </trkpt>
      <trkpt lat="43.63138" lon="3.83875">
        <ele>61.871743569223</ele>
        <time>2020-10-25T14:56:38.000Z</time>
      </trkpt>
      <trkpt lat="43.63136" lon="3.83881">
        <ele>61.771543232678</ele>
        <time>2020-10-25T14:56:39.000Z</time>
      </trkpt>
      <trkpt lat="43.63134" lon="3.83886">
        <ele>61.671342896133</ele>
        <time>2020-10-25T14:56:40.000Z</time>
      </trkpt>
      <trkpt lat="43.63132" lon="3.83893">
        <ele>61.571142559588</ele>
        <time>2020-10-25T14:56:41.000Z</time>
      </trkpt>
      <trkpt lat="43.6313" lon="3.839">
        <ele>61.470942223043</ele>
        <time>2020-10-25T14:56:42.000Z</time>
      </trkpt>
      <trkpt lat="43.63128" lon="3.83907">
        <ele>61.370741886498</ele>
        <time>2020-10-25T14:56:43.000Z</time>
      </trkpt>
      <trkpt lat="43.63126" lon="3.83914">
        <ele>61.270541549953</ele>
        <time>2020-10-25T14:56:44.000Z</time>
      </trkpt>
      <trkpt lat="43.63124" lon="3.8392">
        <ele>61.170341213408</ele>
        <time>2020-10-25T14:56:45.000Z</time>
      </trkpt>
      <trkpt lat="43.63122" lon="3.83926">
        <ele>61.070140876864</ele>
        <time>2020-10-25T14:56:46.000Z</time>
      </trkpt>
      <trkpt lat="43.6312" lon="3.83931">
        <ele>60.970675084895</ele>
        <time>2020-10-25T14:56:47.000Z</time>
      </trkpt>
      <trkpt lat="43.63118" lon="3.83936">
        <ele>60.872923282509</ele>
        <time>2020-10-25T14:56:48.000Z</time>
      </trkpt>
      <trkpt lat="43.63115" lon="3.83942">
        <ele>60.775171480122</ele>
        <time>2020-10-25T14:56:49.000Z</time>
      </trkpt>
      <trkpt lat="43.63113" lon="3.83947">
        <ele>60.677419677735</ele>
        <time>2020-10-25T14:56:50.000Z</time>
      </trkpt>
      <trkpt lat="43.63111" lon="3.83952">
        <ele>60.579667875348</ele>
        <time>2020-10-25T14:56:51.000Z</time>
      </trkpt>
      <trkpt lat="43.63109" lon="3.83957">
        <ele>60.481916072961</ele>
        <time>2020-10-25T14:56:52.000Z</time>
      </trkpt>
      <trkpt lat="43.63107" lon="3.83961">
        <ele>60.384164270575</ele>
        <time>2020-10-25T14:56:53.000Z</time>
      </trkpt>
      <trkpt lat="43.63101" lon="3.83974">
        <ele>60.188660665801</ele>
        <time>2020-10-25T14:56:55.000Z</time>
      </trkpt>
      <trkpt lat="43.63098" lon="3.83983">
        <ele>60.090908863414</ele>
        <time>2020-10-25T14:56:56.000Z</time>
      </trkpt>
      <trkpt lat="43.63094" lon="3.83991">
        <ele>60</ele>
        <time>2020-10-25T14:56:57.000Z</time>
      </trkpt>
      <trkpt lat="43.63092" lon="3.83998">
        <ele>60</ele>
        <time>2020-10-25T14:56:58.000Z</time>
      </trkpt>
      <trkpt lat="43.63092" lon="3.84006">
        <ele>60</ele>
        <time>2020-10-25T14:56:59.000Z</time>
      </trkpt>
      <trkpt lat="43.63091" lon="3.84013">
        <ele>60</ele>
        <time>2020-10-25T14:57:00.000Z</time>
      </trkpt>
      <trkpt lat="43.6309" lon="3.8402">
        <ele>60</ele>
        <time>2020-10-25T14:57:01.000Z</time>
      </trkpt>
      <trkpt lat="43.6309" lon="3.84027">
        <ele>60</ele>
        <time>2020-10-25T14:57:02.000Z</time>
      </trkpt>
      <trkpt lat="43.63089" lon="3.84034">
        <ele>60</ele>
        <time>2020-10-25T14:57:03.000Z</time>
      </trkpt>
      <trkpt lat="43.63087" lon="3.8404">
        <ele>60</ele>
        <time>2020-10-25T14:57:04.000Z</time>
      </trkpt>
      <trkpt lat="43.63084" lon="3.84046">
        <ele>60</ele>
        <time>2020-10-25T14:57:05.000Z</time>
      </trkpt>
      <trkpt lat="43.63081" lon="3.84051">
        <ele>60</ele>
        <time>2020-10-25T14:57:06.000Z</time>
      </trkpt>
      <trkpt lat="43.63079" lon="3.84057">
        <ele>59.97000064</ele>
        <time>2020-10-25T14:57:07.000Z</time>
      </trkpt>
      <trkpt lat="43.63077" lon="3.84063">
        <ele>59.87000064</ele>
        <time>2020-10-25T14:57:08.000Z</time>
      </trkpt>
      <trkpt lat="43.63075" lon="3.84069">
        <ele>59.77000064</ele>
        <time>2020-10-25T14:57:09.000Z</time>
      </trkpt>
      <trkpt lat="43.63074" lon="3.84075">
        <ele>59.67000064</ele>
        <time>2020-10-25T14:57:10.000Z</time>
      </trkpt>
      <trkpt lat="43.63073" lon="3.84081">
        <ele>59.57000064</ele>
        <time>2020-10-25T14:57:11.000Z</time>
      </trkpt>
      <trkpt lat="43.63073" lon="3.84088">
        <ele>59.47000064</ele>
        <time>2020-10-25T14:57:12.000Z</time>
      </trkpt>
      <trkpt lat="43.63073" lon="3.84094">
        <ele>59.37000064</ele>
        <time>2020-10-25T14:57:13.000Z</time>
      </trkpt>
      <trkpt lat="43.63074" lon="3.84101">
        <ele>59.27000064</ele>
        <time>2020-10-25T14:57:14.000Z</time>
      </trkpt>
      <trkpt lat="43.63075" lon="3.8411">
        <ele>59.17000064</ele>
        <time>2020-10-25T14:57:15.000Z</time>
      </trkpt>
      <trkpt lat="43.63074" lon="3.84118">
        <ele>59.07000064</ele>
        <time>2020-10-25T14:57:16.000Z</time>
      </trkpt>
      <trkpt lat="43.63071" lon="3.84125">
        <ele>58.970120121269</ele>
        <time>2020-10-25T14:57:17.000Z</time>
      </trkpt>
      <trkpt lat="43.63068" lon="3.84131">
        <ele>58.870518400661</ele>
        <time>2020-10-25T14:57:18.000Z</time>
      </trkpt>
      <trkpt lat="43.63065" lon="3.84138">
        <ele>58.770916680053</ele>
        <time>2020-10-25T14:57:19.000Z</time>
      </trkpt>
      <trkpt lat="43.63062" lon="3.84143">
        <ele>58.671314959445</ele>
        <time>2020-10-25T14:57:20.000Z</time>
      </trkpt>
      <trkpt lat="43.63059" lon="3.84148">
        <ele>58.571713238838</ele>
        <time>2020-10-25T14:57:21.000Z</time>
      </trkpt>
      <trkpt lat="43.63056" lon="3.84154">
        <ele>58.47211151823</ele>
        <time>2020-10-25T14:57:22.000Z</time>
      </trkpt>
      <trkpt lat="43.63054" lon="3.8416">
        <ele>58.372509797622</ele>
        <time>2020-10-25T14:57:23.000Z</time>
      </trkpt>
      <trkpt lat="43.63051" lon="3.84164">
        <ele>58.272908077014</ele>
        <time>2020-10-25T14:57:24.000Z</time>
      </trkpt>
      <trkpt lat="43.63049" lon="3.84168">
        <ele>58.173306356406</ele>
        <time>2020-10-25T14:57:25.000Z</time>
      </trkpt>
      <trkpt lat="43.63047" lon="3.84172">
        <ele>58.073704635799</ele>
        <time>2020-10-25T14:57:26.000Z</time>
      </trkpt>
      <trkpt lat="43.63045" lon="3.84175">
        <ele>58</ele>
        <time>2020-10-25T14:57:27.000Z</time>
      </trkpt>
      <trkpt lat="43.63045" lon="3.84176">
        <ele>58</ele>
        <time>2020-10-25T14:57:33.000Z</time>
      </trkpt>
      <trkpt lat="43.6304" lon="3.84187">
        <ele>58</ele>
        <time>2020-10-25T14:57:38.000Z</time>
      </trkpt>
      <trkpt lat="43.63039" lon="3.84192">
        <ele>58</ele>
        <time>2020-10-25T14:57:39.000Z</time>
      </trkpt>
      <trkpt lat="43.63038" lon="3.84198">
        <ele>58</ele>
        <time>2020-10-25T14:57:40.000Z</time>
      </trkpt>
      <trkpt lat="43.63038" lon="3.84204">
        <ele>58</ele>
        <time>2020-10-25T14:57:41.000Z</time>
      </trkpt>
      <trkpt lat="43.63037" lon="3.84212">
        <ele>58</ele>
        <time>2020-10-25T14:57:42.000Z</time>
      </trkpt>
      <trkpt lat="43.63034" lon="3.84219">
        <ele>58</ele>
        <time>2020-10-25T14:57:43.000Z</time>
      </trkpt>
      <trkpt lat="43.63032" lon="3.84225">
        <ele>58</ele>
        <time>2020-10-25T14:57:44.000Z</time>
      </trkpt>
      <trkpt lat="43.63031" lon="3.84231">
        <ele>58</ele>
        <time>2020-10-25T14:57:45.000Z</time>
      </trkpt>
      <trkpt lat="43.63031" lon="3.84236">
        <ele>58</ele>
        <time>2020-10-25T14:57:46.000Z</time>
      </trkpt>
      <trkpt lat="43.63033" lon="3.84243">
        <ele>58</ele>
        <time>2020-10-25T14:57:47.000Z</time>
      </trkpt>
      <trkpt lat="43.63035" lon="3.8425">
        <ele>57.971750826817</ele>
        <time>2020-10-25T14:57:48.000Z</time>
      </trkpt>
      <trkpt lat="43.63037" lon="3.84258">
        <ele>57.877588924994</ele>
        <time>2020-10-25T14:57:49.000Z</time>
      </trkpt>
      <trkpt lat="43.63037" lon="3.84266">
        <ele>57.78342702317</ele>
        <time>2020-10-25T14:57:50.000Z</time>
      </trkpt>
      <trkpt lat="43.63036" lon="3.84274">
        <ele>57.689265121347</ele>
        <time>2020-10-25T14:57:51.000Z</time>
      </trkpt>
      <trkpt lat="43.63033" lon="3.84281">
        <ele>57.595103219524</ele>
        <time>2020-10-25T14:57:52.000Z</time>
      </trkpt>
      <trkpt lat="43.63031" lon="3.84288">
        <ele>57.5009413177</ele>
        <time>2020-10-25T14:57:53.000Z</time>
      </trkpt>
      <trkpt lat="43.63028" lon="3.84294">
        <ele>57.406779415877</ele>
        <time>2020-10-25T14:57:54.000Z</time>
      </trkpt>
      <trkpt lat="43.63024" lon="3.843">
        <ele>57.312617514053</ele>
        <time>2020-10-25T14:57:55.000Z</time>
      </trkpt>
      <trkpt lat="43.6302" lon="3.84305">
        <ele>57.21845561223</ele>
        <time>2020-10-25T14:57:56.000Z</time>
      </trkpt>
      <trkpt lat="43.63015" lon="3.84309">
        <ele>57.124293710407</ele>
        <time>2020-10-25T14:57:57.000Z</time>
      </trkpt>
      <trkpt lat="43.63011" lon="3.84314">
        <ele>57.030131808583</ele>
        <time>2020-10-25T14:57:58.000Z</time>
      </trkpt>
      <trkpt lat="43.63007" lon="3.84317">
        <ele>56.929166666667</ele>
        <time>2020-10-25T14:57:59.000Z</time>
      </trkpt>
      <trkpt lat="43.63004" lon="3.8432">
        <ele>56.825</ele>
        <time>2020-10-25T14:58:00.000Z</time>
      </trkpt>
      <trkpt lat="43.63002" lon="3.84322">
        <ele>56.720833333333</ele>
        <time>2020-10-25T14:58:01.000Z</time>
      </trkpt>
      <trkpt lat="43.62999" lon="3.84325">
        <ele>56.616666666667</ele>
        <time>2020-10-25T14:58:02.000Z</time>
      </trkpt>
      <trkpt lat="43.62997" lon="3.84329">
        <ele>56.5125</ele>
        <time>2020-10-25T14:58:03.000Z</time>
      </trkpt>
      <trkpt lat="43.62995" lon="3.84333">
        <ele>56.408333333333</ele>
        <time>2020-10-25T14:58:04.000Z</time>
      </trkpt>
      <trkpt lat="43.62993" lon="3.84337">
        <ele>56.304166666667</ele>
        <time>2020-10-25T14:58:05.000Z</time>
      </trkpt>
      <trkpt lat="43.6299" lon="3.84341">
        <ele>56.2</ele>
        <time>2020-10-25T14:58:06.000Z</time>
      </trkpt>
      <trkpt lat="43.62987" lon="3.84345">
        <ele>56.095833333333</ele>
        <time>2020-10-25T14:58:07.000Z</time>
      </trkpt>
      <trkpt lat="43.62985" lon="3.8435">
        <ele>55.991820035547</ele>
        <time>2020-10-25T14:58:08.000Z</time>
      </trkpt>
      <trkpt lat="43.62982" lon="3.84354">
        <ele>55.889570479883</ele>
        <time>2020-10-25T14:58:09.000Z</time>
      </trkpt>
      <trkpt lat="43.62979" lon="3.84358">
        <ele>55.787320924218</ele>
        <time>2020-10-25T14:58:10.000Z</time>
      </trkpt>
      <trkpt lat="43.62976" lon="3.84362">
        <ele>55.685071368554</ele>
        <time>2020-10-25T14:58:11.000Z</time>
      </trkpt>
      <trkpt lat="43.62973" lon="3.84366">
        <ele>55.582821812889</ele>
        <time>2020-10-25T14:58:12.000Z</time>
      </trkpt>
      <trkpt lat="43.6297" lon="3.84371">
        <ele>55.480572257225</ele>
        <time>2020-10-25T14:58:13.000Z</time>
      </trkpt>
      <trkpt lat="43.62967" lon="3.84375">
        <ele>55.378322701561</ele>
        <time>2020-10-25T14:58:14.000Z</time>
      </trkpt>
      <trkpt lat="43.62965" lon="3.84379">
        <ele>55.276073145896</ele>
        <time>2020-10-25T14:58:15.000Z</time>
      </trkpt>
      <trkpt lat="43.62963" lon="3.84381">
        <ele>55.173823590232</ele>
        <time>2020-10-25T14:58:16.000Z</time>
      </trkpt>
      <trkpt lat="43.62961" lon="3.84382">
        <ele>55.209004029321</ele>
        <time>2020-10-25T14:58:19.000Z</time>
      </trkpt>
      <trkpt lat="43.62961" lon="3.84384">
        <ele>56.000117678067</ele>
        <time>2020-10-25T14:58:24.000Z</time>
      </trkpt>
      <trkpt lat="43.62955" lon="3.84395">
        <ele>56.993853114754</ele>
        <time>2020-10-25T15:02:39.000Z</time>
      </trkpt>
      <trkpt lat="43.62954" lon="3.84398">
        <ele>56.891394098361</ele>
        <time>2020-10-25T15:02:40.000Z</time>
      </trkpt>
      <trkpt lat="43.62954" lon="3.84401">
        <ele>56.788935081967</ele>
        <time>2020-10-25T15:02:41.000Z</time>
      </trkpt>
      <trkpt lat="43.62952" lon="3.84404">
        <ele>56.686476065574</ele>
        <time>2020-10-25T15:02:42.000Z</time>
      </trkpt>
      <trkpt lat="43.6295" lon="3.84408">
        <ele>56.58401704918</ele>
        <time>2020-10-25T15:02:43.000Z</time>
      </trkpt>
      <trkpt lat="43.62948" lon="3.84412">
        <ele>56.481558032787</ele>
        <time>2020-10-25T15:02:44.000Z</time>
      </trkpt>
      <trkpt lat="43.62946" lon="3.84416">
        <ele>56.379099016393</ele>
        <time>2020-10-25T15:02:45.000Z</time>
      </trkpt>
      <trkpt lat="43.62944" lon="3.84421">
        <ele>56.27664</ele>
        <time>2020-10-25T15:02:46.000Z</time>
      </trkpt>
      <trkpt lat="43.62941" lon="3.84425">
        <ele>56.174180983607</ele>
        <time>2020-10-25T15:02:47.000Z</time>
      </trkpt>
      <trkpt lat="43.62939" lon="3.8443">
        <ele>56.071721967213</ele>
        <time>2020-10-25T15:02:48.000Z</time>
      </trkpt>
      <trkpt lat="43.62936" lon="3.84434">
        <ele>55.941692187893</ele>
        <time>2020-10-25T15:02:49.000Z</time>
      </trkpt>
      <trkpt lat="43.62934" lon="3.84439">
        <ele>55.74732866778</ele>
        <time>2020-10-25T15:02:50.000Z</time>
      </trkpt>
      <trkpt lat="43.62931" lon="3.84443">
        <ele>55.552965147666</ele>
        <time>2020-10-25T15:02:51.000Z</time>
      </trkpt>
      <trkpt lat="43.62928" lon="3.84447">
        <ele>55.358601627553</ele>
        <time>2020-10-25T15:02:52.000Z</time>
      </trkpt>
      <trkpt lat="43.62926" lon="3.84452">
        <ele>55.16423810744</ele>
        <time>2020-10-25T15:02:53.000Z</time>
      </trkpt>
      <trkpt lat="43.62923" lon="3.84457">
        <ele>54.969874587327</ele>
        <time>2020-10-25T15:02:54.000Z</time>
      </trkpt>
      <trkpt lat="43.62921" lon="3.84462">
        <ele>54.775511067214</ele>
        <time>2020-10-25T15:02:55.000Z</time>
      </trkpt>
      <trkpt lat="43.62918" lon="3.84466">
        <ele>54.581147547101</ele>
        <time>2020-10-25T15:02:56.000Z</time>
      </trkpt>
      <trkpt lat="43.62915" lon="3.84471">
        <ele>54.386784026988</ele>
        <time>2020-10-25T15:02:57.000Z</time>
      </trkpt>
      <trkpt lat="43.62912" lon="3.84476">
        <ele>54.192420506875</ele>
        <time>2020-10-25T15:02:58.000Z</time>
      </trkpt>
      <trkpt lat="43.6291" lon="3.84481">
        <ele>53.998970463779</ele>
        <time>2020-10-25T15:02:59.000Z</time>
      </trkpt>
      <trkpt lat="43.62907" lon="3.84486">
        <ele>53.895983885979</ele>
        <time>2020-10-25T15:03:00.000Z</time>
      </trkpt>
      <trkpt lat="43.62904" lon="3.84492">
        <ele>53.792997308178</ele>
        <time>2020-10-25T15:03:01.000Z</time>
      </trkpt>
      <trkpt lat="43.62901" lon="3.84497">
        <ele>53.690010730378</ele>
        <time>2020-10-25T15:03:02.000Z</time>
      </trkpt>
      <trkpt lat="43.62898" lon="3.84502">
        <ele>53.587024152577</ele>
        <time>2020-10-25T15:03:03.000Z</time>
      </trkpt>
      <trkpt lat="43.62896" lon="3.84507">
        <ele>53.484037574777</ele>
        <time>2020-10-25T15:03:04.000Z</time>
      </trkpt>
      <trkpt lat="43.62893" lon="3.84511">
        <ele>53.381050996976</ele>
        <time>2020-10-25T15:03:05.000Z</time>
      </trkpt>
      <trkpt lat="43.62891" lon="3.84516">
        <ele>53.278064419176</ele>
        <time>2020-10-25T15:03:06.000Z</time>
      </trkpt>
      <trkpt lat="43.62889" lon="3.84521">
        <ele>53.175077841375</ele>
        <time>2020-10-25T15:03:07.000Z</time>
      </trkpt>
      <trkpt lat="43.62887" lon="3.84525">
        <ele>53.072091263574</ele>
        <time>2020-10-25T15:03:08.000Z</time>
      </trkpt>
      <trkpt lat="43.62884" lon="3.8453">
        <ele>52.941004189893</ele>
        <time>2020-10-25T15:03:09.000Z</time>
      </trkpt>
      <trkpt lat="43.62881" lon="3.84535">
        <ele>52.74434729419</ele>
        <time>2020-10-25T15:03:10.000Z</time>
      </trkpt>
      <trkpt lat="43.62878" lon="3.8454">
        <ele>52.547690398487</ele>
        <time>2020-10-25T15:03:11.000Z</time>
      </trkpt>
      <trkpt lat="43.62874" lon="3.84545">
        <ele>52.351033502783</ele>
        <time>2020-10-25T15:03:12.000Z</time>
      </trkpt>
      <trkpt lat="43.6287" lon="3.8455">
        <ele>52.15437660708</ele>
        <time>2020-10-25T15:03:13.000Z</time>
      </trkpt>
      <trkpt lat="43.62867" lon="3.84556">
        <ele>51.957719711377</ele>
        <time>2020-10-25T15:03:14.000Z</time>
      </trkpt>
      <trkpt lat="43.62863" lon="3.84561">
        <ele>51.761062815674</ele>
        <time>2020-10-25T15:03:15.000Z</time>
      </trkpt>
      <trkpt lat="43.62859" lon="3.84566">
        <ele>51.56440591997</ele>
        <time>2020-10-25T15:03:16.000Z</time>
      </trkpt>
      <trkpt lat="43.62855" lon="3.84571">
        <ele>51.367749024267</ele>
        <time>2020-10-25T15:03:17.000Z</time>
      </trkpt>
      <trkpt lat="43.6285" lon="3.84576">
        <ele>51.171092128564</ele>
        <time>2020-10-25T15:03:18.000Z</time>
      </trkpt>
      <trkpt lat="43.62846" lon="3.8458">
        <ele>51</ele>
        <time>2020-10-25T15:03:19.000Z</time>
      </trkpt>
      <trkpt lat="43.62842" lon="3.84584">
        <ele>51</ele>
        <time>2020-10-25T15:03:20.000Z</time>
      </trkpt>
      <trkpt lat="43.62837" lon="3.84588">
        <ele>51</ele>
        <time>2020-10-25T15:03:21.000Z</time>
      </trkpt>
      <trkpt lat="43.62832" lon="3.84592">
        <ele>51</ele>
        <time>2020-10-25T15:03:22.000Z</time>
      </trkpt>
      <trkpt lat="43.62827" lon="3.84596">
        <ele>51</ele>
        <time>2020-10-25T15:03:23.000Z</time>
      </trkpt>
      <trkpt lat="43.62822" lon="3.84599">
        <ele>51</ele>
        <time>2020-10-25T15:03:24.000Z</time>
      </trkpt>
      <trkpt lat="43.62817" lon="3.84603">
        <ele>51</ele>
        <time>2020-10-25T15:03:25.000Z</time>
      </trkpt>
      <trkpt lat="43.62811" lon="3.84607">
        <ele>51</ele>
        <time>2020-10-25T15:03:26.000Z</time>
      </trkpt>
      <trkpt lat="43.62806" lon="3.84611">
        <ele>51</ele>
        <time>2020-10-25T15:03:27.000Z</time>
      </trkpt>
      <trkpt lat="43.62801" lon="3.84615">
        <ele>51</ele>
        <time>2020-10-25T15:03:28.000Z</time>
      </trkpt>
      <trkpt lat="43.62795" lon="3.84618">
        <ele>50.97000064</ele>
        <time>2020-10-25T15:03:29.000Z</time>
      </trkpt>
      <trkpt lat="43.6279" lon="3.84622">
        <ele>50.87000064</ele>
        <time>2020-10-25T15:03:30.000Z</time>
      </trkpt>
      <trkpt lat="43.62785" lon="3.84626">
        <ele>50.77000064</ele>
        <time>2020-10-25T15:03:31.000Z</time>
      </trkpt>
      <trkpt lat="43.6278" lon="3.8463">
        <ele>50.67000064</ele>
        <time>2020-10-25T15:03:32.000Z</time>
      </trkpt>
      <trkpt lat="43.62775" lon="3.84635">
        <ele>50.57000064</ele>
        <time>2020-10-25T15:03:33.000Z</time>
      </trkpt>
      <trkpt lat="43.6277" lon="3.8464">
        <ele>50.47000064</ele>
        <time>2020-10-25T15:03:34.000Z</time>
      </trkpt>
      <trkpt lat="43.62766" lon="3.84645">
        <ele>50.37000064</ele>
        <time>2020-10-25T15:03:35.000Z</time>
      </trkpt>
      <trkpt lat="43.62762" lon="3.8465">
        <ele>50.27000064</ele>
        <time>2020-10-25T15:03:36.000Z</time>
      </trkpt>
      <trkpt lat="43.62758" lon="3.84655">
        <ele>50.17000064</ele>
        <time>2020-10-25T15:03:37.000Z</time>
      </trkpt>
      <trkpt lat="43.62754" lon="3.84661">
        <ele>50.07000064</ele>
        <time>2020-10-25T15:03:38.000Z</time>
      </trkpt>
      <trkpt lat="43.6275" lon="3.84667">
        <ele>50</ele>
        <time>2020-10-25T15:03:39.000Z</time>
      </trkpt>
      <trkpt lat="43.62746" lon="3.84673">
        <ele>50</ele>
        <time>2020-10-25T15:03:40.000Z</time>
      </trkpt>
      <trkpt lat="43.62743" lon="3.84679">
        <ele>50</ele>
        <time>2020-10-25T15:03:41.000Z</time>
      </trkpt>
      <trkpt lat="43.6274" lon="3.84685">
        <ele>50</ele>
        <time>2020-10-25T15:03:42.000Z</time>
      </trkpt>
      <trkpt lat="43.62736" lon="3.84691">
        <ele>50</ele>
        <time>2020-10-25T15:03:43.000Z</time>
      </trkpt>
      <trkpt lat="43.62733" lon="3.84697">
        <ele>50</ele>
        <time>2020-10-25T15:03:44.000Z</time>
      </trkpt>
      <trkpt lat="43.6273" lon="3.84703">
        <ele>50</ele>
        <time>2020-10-25T15:03:45.000Z</time>
      </trkpt>
      <trkpt lat="43.62727" lon="3.84709">
        <ele>50</ele>
        <time>2020-10-25T15:03:46.000Z</time>
      </trkpt>
      <trkpt lat="43.62724" lon="3.84715">
        <ele>50</ele>
        <time>2020-10-25T15:03:47.000Z</time>
      </trkpt>
      <trkpt lat="43.62721" lon="3.84721">
        <ele>50</ele>
        <time>2020-10-25T15:03:48.000Z</time>
      </trkpt>
      <trkpt lat="43.62718" lon="3.84727">
        <ele>49.990019327732</ele>
        <time>2020-10-25T15:03:49.000Z</time>
      </trkpt>
      <trkpt lat="43.62716" lon="3.84733">
        <ele>49.890218992275</ele>
        <time>2020-10-25T15:03:50.000Z</time>
      </trkpt>
      <trkpt lat="43.62713" lon="3.84739">
        <ele>49.790418656818</ele>
        <time>2020-10-25T15:03:51.000Z</time>
      </trkpt>
      <trkpt lat="43.62711" lon="3.84745">
        <ele>49.690618321361</ele>
        <time>2020-10-25T15:03:52.000Z</time>
      </trkpt>
      <trkpt lat="43.62708" lon="3.84751">
        <ele>49.590817985905</ele>
        <time>2020-10-25T15:03:53.000Z</time>
      </trkpt>
      <trkpt lat="43.62706" lon="3.84756">
        <ele>49.491017650448</ele>
        <time>2020-10-25T15:03:54.000Z</time>
      </trkpt>
      <trkpt lat="43.62704" lon="3.84761">
        <ele>49.391217314991</ele>
        <time>2020-10-25T15:03:55.000Z</time>
      </trkpt>
      <trkpt lat="43.62701" lon="3.84766">
        <ele>49.291416979534</ele>
        <time>2020-10-25T15:03:56.000Z</time>
      </trkpt>
      <trkpt lat="43.62699" lon="3.84771">
        <ele>49.191616644077</ele>
        <time>2020-10-25T15:03:57.000Z</time>
      </trkpt>
      <trkpt lat="43.62697" lon="3.84776">
        <ele>49.09181630862</ele>
        <time>2020-10-25T15:03:58.000Z</time>
      </trkpt>
      <trkpt lat="43.62695" lon="3.84781">
        <ele>48.991845053405</ele>
        <time>2020-10-25T15:03:59.000Z</time>
      </trkpt>
      <trkpt lat="43.62693" lon="3.84786">
        <ele>48.889908220969</ele>
        <time>2020-10-25T15:04:00.000Z</time>
      </trkpt>
      <trkpt lat="43.62691" lon="3.84791">
        <ele>48.787971388533</ele>
        <time>2020-10-25T15:04:01.000Z</time>
      </trkpt>
      <trkpt lat="43.62689" lon="3.84797">
        <ele>48.686034556097</ele>
        <time>2020-10-25T15:04:02.000Z</time>
      </trkpt>
      <trkpt lat="43.62688" lon="3.84802">
        <ele>48.584097723661</ele>
        <time>2020-10-25T15:04:03.000Z</time>
      </trkpt>
      <trkpt lat="43.62686" lon="3.84807">
        <ele>48.482160891225</ele>
        <time>2020-10-25T15:04:04.000Z</time>
      </trkpt>
      <trkpt lat="43.62683" lon="3.84812">
        <ele>48.380224058789</ele>
        <time>2020-10-25T15:04:05.000Z</time>
      </trkpt>
      <trkpt lat="43.62681" lon="3.84817">
        <ele>48.278287226353</ele>
        <time>2020-10-25T15:04:06.000Z</time>
      </trkpt>
      <trkpt lat="43.62679" lon="3.84822">
        <ele>48.176350393917</ele>
        <time>2020-10-25T15:04:07.000Z</time>
      </trkpt>
      <trkpt lat="43.62676" lon="3.84826">
        <ele>48.07441356148</ele>
        <time>2020-10-25T15:04:08.000Z</time>
      </trkpt>
      <trkpt lat="43.62674" lon="3.84831">
        <ele>47.972918461382</ele>
        <time>2020-10-25T15:04:09.000Z</time>
      </trkpt>
      <trkpt lat="43.62672" lon="3.84835">
        <ele>47.872617655253</ele>
        <time>2020-10-25T15:04:10.000Z</time>
      </trkpt>
      <trkpt lat="43.62669" lon="3.8484">
        <ele>47.772316849123</ele>
        <time>2020-10-25T15:04:11.000Z</time>
      </trkpt>
      <trkpt lat="43.62667" lon="3.84844">
        <ele>47.672016042994</ele>
        <time>2020-10-25T15:04:12.000Z</time>
      </trkpt>
      <trkpt lat="43.62665" lon="3.84848">
        <ele>47.571715236864</ele>
        <time>2020-10-25T15:04:13.000Z</time>
      </trkpt>
      <trkpt lat="43.62662" lon="3.84852">
        <ele>47.471414430734</ele>
        <time>2020-10-25T15:04:14.000Z</time>
      </trkpt>
      <trkpt lat="43.6266" lon="3.84856">
        <ele>47.371113624605</ele>
        <time>2020-10-25T15:04:15.000Z</time>
      </trkpt>
      <trkpt lat="43.62657" lon="3.84861">
        <ele>47.270812818475</ele>
        <time>2020-10-25T15:04:16.000Z</time>
      </trkpt>
      <trkpt lat="43.62655" lon="3.84865">
        <ele>47.170512012345</ele>
        <time>2020-10-25T15:04:17.000Z</time>
      </trkpt>
      <trkpt lat="43.62652" lon="3.84869">
        <ele>47.070211206216</ele>
        <time>2020-10-25T15:04:18.000Z</time>
      </trkpt>
      <trkpt lat="43.62649" lon="3.84872">
        <ele>47</ele>
        <time>2020-10-25T15:04:19.000Z</time>
      </trkpt>
      <trkpt lat="43.62647" lon="3.84876">
        <ele>47</ele>
        <time>2020-10-25T15:04:20.000Z</time>
      </trkpt>
      <trkpt lat="43.62644" lon="3.8488">
        <ele>47</ele>
        <time>2020-10-25T15:04:21.000Z</time>
      </trkpt>
      <trkpt lat="43.62641" lon="3.84883">
        <ele>47</ele>
        <time>2020-10-25T15:04:22.000Z</time>
      </trkpt>
      <trkpt lat="43.62638" lon="3.84887">
        <ele>47</ele>
        <time>2020-10-25T15:04:23.000Z</time>
      </trkpt>
      <trkpt lat="43.62635" lon="3.84891">
        <ele>47</ele>
        <time>2020-10-25T15:04:24.000Z</time>
      </trkpt>
      <trkpt lat="43.62632" lon="3.84896">
        <ele>47</ele>
        <time>2020-10-25T15:04:25.000Z</time>
      </trkpt>
      <trkpt lat="43.6263" lon="3.849">
        <ele>47</ele>
        <time>2020-10-25T15:04:26.000Z</time>
      </trkpt>
      <trkpt lat="43.62627" lon="3.84904">
        <ele>47</ele>
        <time>2020-10-25T15:04:27.000Z</time>
      </trkpt>
      <trkpt lat="43.62624" lon="3.84908">
        <ele>47</ele>
        <time>2020-10-25T15:04:28.000Z</time>
      </trkpt>
      <trkpt lat="43.62621" lon="3.84913">
        <ele>46.971624561487</ele>
        <time>2020-10-25T15:04:29.000Z</time>
      </trkpt>
      <trkpt lat="43.62618" lon="3.84917">
        <ele>46.873777142091</ele>
        <time>2020-10-25T15:04:30.000Z</time>
      </trkpt>
      <trkpt lat="43.62614" lon="3.84921">
        <ele>46.775929722696</ele>
        <time>2020-10-25T15:04:31.000Z</time>
      </trkpt>
      <trkpt lat="43.62611" lon="3.84926">
        <ele>46.6780823033</ele>
        <time>2020-10-25T15:04:32.000Z</time>
      </trkpt>
      <trkpt lat="43.62609" lon="3.8493">
        <ele>46.580234883904</ele>
        <time>2020-10-25T15:04:33.000Z</time>
      </trkpt>
      <trkpt lat="43.62606" lon="3.84934">
        <ele>46.482387464509</ele>
        <time>2020-10-25T15:04:34.000Z</time>
      </trkpt>
      <trkpt lat="43.62603" lon="3.84938">
        <ele>46.384540045113</ele>
        <time>2020-10-25T15:04:35.000Z</time>
      </trkpt>
      <trkpt lat="43.62601" lon="3.84941">
        <ele>46.286692625717</ele>
        <time>2020-10-25T15:04:36.000Z</time>
      </trkpt>
      <trkpt lat="43.62598" lon="3.84945">
        <ele>46.188845206322</ele>
        <time>2020-10-25T15:04:37.000Z</time>
      </trkpt>
      <trkpt lat="43.62595" lon="3.84949">
        <ele>46.090997786926</ele>
        <time>2020-10-25T15:04:38.000Z</time>
      </trkpt>
      <trkpt lat="43.62592" lon="3.84952">
        <ele>46</ele>
        <time>2020-10-25T15:04:39.000Z</time>
      </trkpt>
      <trkpt lat="43.62589" lon="3.84956">
        <ele>46</ele>
        <time>2020-10-25T15:04:40.000Z</time>
      </trkpt>
      <trkpt lat="43.62586" lon="3.8496">
        <ele>46</ele>
        <time>2020-10-25T15:04:41.000Z</time>
      </trkpt>
      <trkpt lat="43.62584" lon="3.84964">
        <ele>46</ele>
        <time>2020-10-25T15:04:42.000Z</time>
      </trkpt>
      <trkpt lat="43.62581" lon="3.84968">
        <ele>46</ele>
        <time>2020-10-25T15:04:43.000Z</time>
      </trkpt>
      <trkpt lat="43.62578" lon="3.84971">
        <ele>46</ele>
        <time>2020-10-25T15:04:44.000Z</time>
      </trkpt>
      <trkpt lat="43.62576" lon="3.84975">
        <ele>46</ele>
        <time>2020-10-25T15:04:45.000Z</time>
      </trkpt>
      <trkpt lat="43.62573" lon="3.84978">
        <ele>46</ele>
        <time>2020-10-25T15:04:46.000Z</time>
      </trkpt>
      <trkpt lat="43.6257" lon="3.84981">
        <ele>46</ele>
        <time>2020-10-25T15:04:47.000Z</time>
      </trkpt>
      <trkpt lat="43.62567" lon="3.84984">
        <ele>46</ele>
        <time>2020-10-25T15:04:48.000Z</time>
      </trkpt>
      <trkpt lat="43.62565" lon="3.84987">
        <ele>46</ele>
        <time>2020-10-25T15:04:49.000Z</time>
      </trkpt>
      <trkpt lat="43.62562" lon="3.8499">
        <ele>46</ele>
        <time>2020-10-25T15:04:50.000Z</time>
      </trkpt>
      <trkpt lat="43.6256" lon="3.84993">
        <ele>46</ele>
        <time>2020-10-25T15:04:51.000Z</time>
      </trkpt>
      <trkpt lat="43.62557" lon="3.84996">
        <ele>46</ele>
        <time>2020-10-25T15:04:52.000Z</time>
      </trkpt>
      <trkpt lat="43.62555" lon="3.84999">
        <ele>46</ele>
        <time>2020-10-25T15:04:53.000Z</time>
      </trkpt>
      <trkpt lat="43.62553" lon="3.85001">
        <ele>46</ele>
        <time>2020-10-25T15:04:54.000Z</time>
      </trkpt>
      <trkpt lat="43.6255" lon="3.85003">
        <ele>46</ele>
        <time>2020-10-25T15:04:55.000Z</time>
      </trkpt>
      <trkpt lat="43.62549" lon="3.85006">
        <ele>46</ele>
        <time>2020-10-25T15:04:56.000Z</time>
      </trkpt>
      <trkpt lat="43.62547" lon="3.85008">
        <ele>46</ele>
        <time>2020-10-25T15:04:57.000Z</time>
      </trkpt>
      <trkpt lat="43.62545" lon="3.85011">
        <ele>46</ele>
        <time>2020-10-25T15:04:58.000Z</time>
      </trkpt>
      <trkpt lat="43.62543" lon="3.85013">
        <ele>46</ele>
        <time>2020-10-25T15:04:59.000Z</time>
      </trkpt>
      <trkpt lat="43.62541" lon="3.85015">
        <ele>46</ele>
        <time>2020-10-25T15:05:00.000Z</time>
      </trkpt>
      <trkpt lat="43.62539" lon="3.85016">
        <ele>46</ele>
        <time>2020-10-25T15:05:01.000Z</time>
      </trkpt>
      <trkpt lat="43.62535" lon="3.85015">
        <ele>46</ele>
        <time>2020-10-25T15:05:03.000Z</time>
      </trkpt>
      <trkpt lat="43.62536" lon="3.85011">
        <ele>46</ele>
        <time>2020-10-25T15:05:05.000Z</time>
      </trkpt>
      <trkpt lat="43.62539" lon="3.85012">
        <ele>46</ele>
        <time>2020-10-25T15:05:07.000Z</time>
      </trkpt>
      <trkpt lat="43.62539" lon="3.85015">
        <ele>46</ele>
        <time>2020-10-25T15:05:08.000Z</time>
      </trkpt>
      <trkpt lat="43.62539" lon="3.85018">
        <ele>46</ele>
        <time>2020-10-25T15:05:09.000Z</time>
      </trkpt>
      <trkpt lat="43.62537" lon="3.85021">
        <ele>46</ele>
        <time>2020-10-25T15:05:10.000Z</time>
      </trkpt>
      <trkpt lat="43.62536" lon="3.85024">
        <ele>46</ele>
        <time>2020-10-25T15:05:11.000Z</time>
      </trkpt>
      <trkpt lat="43.62534" lon="3.85029">
        <ele>46</ele>
        <time>2020-10-25T15:05:12.000Z</time>
      </trkpt>
      <trkpt lat="43.62532" lon="3.85034">
        <ele>46</ele>
        <time>2020-10-25T15:05:13.000Z</time>
      </trkpt>
      <trkpt lat="43.6253" lon="3.85039">
        <ele>46</ele>
        <time>2020-10-25T15:05:14.000Z</time>
      </trkpt>
      <trkpt lat="43.62528" lon="3.85045">
        <ele>46</ele>
        <time>2020-10-25T15:05:15.000Z</time>
      </trkpt>
      <trkpt lat="43.62525" lon="3.85051">
        <ele>46</ele>
        <time>2020-10-25T15:05:16.000Z</time>
      </trkpt>
      <trkpt lat="43.62522" lon="3.85058">
        <ele>46</ele>
        <time>2020-10-25T15:05:17.000Z</time>
      </trkpt>
      <trkpt lat="43.62519" lon="3.85064">
        <ele>46</ele>
        <time>2020-10-25T15:05:18.000Z</time>
      </trkpt>
      <trkpt lat="43.62516" lon="3.8507">
        <ele>46</ele>
        <time>2020-10-25T15:05:19.000Z</time>
      </trkpt>
      <trkpt lat="43.62513" lon="3.85076">
        <ele>46</ele>
        <time>2020-10-25T15:05:20.000Z</time>
      </trkpt>
      <trkpt lat="43.6251" lon="3.85083">
        <ele>46</ele>
        <time>2020-10-25T15:05:21.000Z</time>
      </trkpt>
      <trkpt lat="43.62507" lon="3.8509">
        <ele>46</ele>
        <time>2020-10-25T15:05:22.000Z</time>
      </trkpt>
      <trkpt lat="43.62504" lon="3.85098">
        <ele>46</ele>
        <time>2020-10-25T15:05:23.000Z</time>
      </trkpt>
      <trkpt lat="43.62501" lon="3.85105">
        <ele>46</ele>
        <time>2020-10-25T15:05:24.000Z</time>
      </trkpt>
      <trkpt lat="43.62498" lon="3.85113">
        <ele>46</ele>
        <time>2020-10-25T15:05:25.000Z</time>
      </trkpt>
      <trkpt lat="43.62494" lon="3.85121">
        <ele>46</ele>
        <time>2020-10-25T15:05:26.000Z</time>
      </trkpt>
      <trkpt lat="43.62491" lon="3.8513">
        <ele>46</ele>
        <time>2020-10-25T15:05:27.000Z</time>
      </trkpt>
      <trkpt lat="43.62488" lon="3.85138">
        <ele>46</ele>
        <time>2020-10-25T15:05:28.000Z</time>
      </trkpt>
      <trkpt lat="43.62485" lon="3.85147">
        <ele>46</ele>
        <time>2020-10-25T15:05:29.000Z</time>
      </trkpt>
      <trkpt lat="43.62481" lon="3.85155">
        <ele>45.903353627363</ele>
        <time>2020-10-25T15:05:30.000Z</time>
      </trkpt>
      <trkpt lat="43.62478" lon="3.85164">
        <ele>45.80473423573</ele>
        <time>2020-10-25T15:05:31.000Z</time>
      </trkpt>
      <trkpt lat="43.62475" lon="3.85172">
        <ele>45.706114844096</ele>
        <time>2020-10-25T15:05:32.000Z</time>
      </trkpt>
      <trkpt lat="43.62471" lon="3.85181">
        <ele>45.607495452463</ele>
        <time>2020-10-25T15:05:33.000Z</time>
      </trkpt>
      <trkpt lat="43.62468" lon="3.85189">
        <ele>45.508876060829</ele>
        <time>2020-10-25T15:05:34.000Z</time>
      </trkpt>
      <trkpt lat="43.62465" lon="3.85198">
        <ele>45.410256669195</ele>
        <time>2020-10-25T15:05:35.000Z</time>
      </trkpt>
      <trkpt lat="43.62461" lon="3.85206">
        <ele>45.311637277562</ele>
        <time>2020-10-25T15:05:36.000Z</time>
      </trkpt>
      <trkpt lat="43.62458" lon="3.85214">
        <ele>45.213017885929</ele>
        <time>2020-10-25T15:05:37.000Z</time>
      </trkpt>
      <trkpt lat="43.62455" lon="3.85222">
        <ele>45.114398494295</ele>
        <time>2020-10-25T15:05:38.000Z</time>
      </trkpt>
      <trkpt lat="43.62452" lon="3.85229">
        <ele>45.015779102661</ele>
        <time>2020-10-25T15:05:39.000Z</time>
      </trkpt>
      <trkpt lat="43.62448" lon="3.85237">
        <ele>45</ele>
        <time>2020-10-25T15:05:40.000Z</time>
      </trkpt>
      <trkpt lat="43.62445" lon="3.85244">
        <ele>45</ele>
        <time>2020-10-25T15:05:41.000Z</time>
      </trkpt>
      <trkpt lat="43.62441" lon="3.85252">
        <ele>45</ele>
        <time>2020-10-25T15:05:42.000Z</time>
      </trkpt>
      <trkpt lat="43.62437" lon="3.85261">
        <ele>45</ele>
        <time>2020-10-25T15:05:43.000Z</time>
      </trkpt>
      <trkpt lat="43.62433" lon="3.85269">
        <ele>45</ele>
        <time>2020-10-25T15:05:44.000Z</time>
      </trkpt>
      <trkpt lat="43.62428" lon="3.85277">
        <ele>45</ele>
        <time>2020-10-25T15:05:45.000Z</time>
      </trkpt>
      <trkpt lat="43.62424" lon="3.85285">
        <ele>45</ele>
        <time>2020-10-25T15:05:46.000Z</time>
      </trkpt>
      <trkpt lat="43.6242" lon="3.85293">
        <ele>45</ele>
        <time>2020-10-25T15:05:47.000Z</time>
      </trkpt>
      <trkpt lat="43.62415" lon="3.853">
        <ele>45</ele>
        <time>2020-10-25T15:05:48.000Z</time>
      </trkpt>
      <trkpt lat="43.6241" lon="3.85308">
        <ele>44.97000064</ele>
        <time>2020-10-25T15:05:49.000Z</time>
      </trkpt>
      <trkpt lat="43.62406" lon="3.85316">
        <ele>44.87000064</ele>
        <time>2020-10-25T15:05:50.000Z</time>
      </trkpt>
      <trkpt lat="43.62401" lon="3.85323">
        <ele>44.77000064</ele>
        <time>2020-10-25T15:05:51.000Z</time>
      </trkpt>
      <trkpt lat="43.62396" lon="3.85331">
        <ele>44.67000064</ele>
        <time>2020-10-25T15:05:52.000Z</time>
      </trkpt>
      <trkpt lat="43.62391" lon="3.85339">
        <ele>44.57000064</ele>
        <time>2020-10-25T15:05:53.000Z</time>
      </trkpt>
      <trkpt lat="43.62386" lon="3.85346">
        <ele>44.47000064</ele>
        <time>2020-10-25T15:05:54.000Z</time>
      </trkpt>
      <trkpt lat="43.62381" lon="3.85353">
        <ele>44.37000064</ele>
        <time>2020-10-25T15:05:55.000Z</time>
      </trkpt>
      <trkpt lat="43.62377" lon="3.8536">
        <ele>44.27000064</ele>
        <time>2020-10-25T15:05:56.000Z</time>
      </trkpt>
      <trkpt lat="43.62372" lon="3.85367">
        <ele>44.17000064</ele>
        <time>2020-10-25T15:05:57.000Z</time>
      </trkpt>
      <trkpt lat="43.62367" lon="3.85373">
        <ele>44.07000064</ele>
        <time>2020-10-25T15:05:58.000Z</time>
      </trkpt>
      <trkpt lat="43.62362" lon="3.85379">
        <ele>43.970846093946</ele>
        <time>2020-10-25T15:05:59.000Z</time>
      </trkpt>
      <trkpt lat="43.62358" lon="3.85386">
        <ele>43.87366433389</ele>
        <time>2020-10-25T15:06:00.000Z</time>
      </trkpt>
      <trkpt lat="43.62353" lon="3.85392">
        <ele>43.776482573833</ele>
        <time>2020-10-25T15:06:01.000Z</time>
      </trkpt>
      <trkpt lat="43.62348" lon="3.85399">
        <ele>43.679300813777</ele>
        <time>2020-10-25T15:06:02.000Z</time>
      </trkpt>
      <trkpt lat="43.62343" lon="3.85405">
        <ele>43.58211905372</ele>
        <time>2020-10-25T15:06:03.000Z</time>
      </trkpt>
      <trkpt lat="43.62338" lon="3.85411">
        <ele>43.484937293664</ele>
        <time>2020-10-25T15:06:04.000Z</time>
      </trkpt>
      <trkpt lat="43.62333" lon="3.85416">
        <ele>43.387755533607</ele>
        <time>2020-10-25T15:06:05.000Z</time>
      </trkpt>
      <trkpt lat="43.62328" lon="3.85421">
        <ele>43.290573773551</ele>
        <time>2020-10-25T15:06:06.000Z</time>
      </trkpt>
      <trkpt lat="43.62322" lon="3.85426">
        <ele>43.193392013494</ele>
        <time>2020-10-25T15:06:07.000Z</time>
      </trkpt>
      <trkpt lat="43.62316" lon="3.8543">
        <ele>43.096210253438</ele>
        <time>2020-10-25T15:06:08.000Z</time>
      </trkpt>
      <trkpt lat="43.62311" lon="3.85435">
        <ele>42.998972579313</ele>
        <time>2020-10-25T15:06:09.000Z</time>
      </trkpt>
      <trkpt lat="43.62305" lon="3.85439">
        <ele>42.896197622593</ele>
        <time>2020-10-25T15:06:10.000Z</time>
      </trkpt>
      <trkpt lat="43.62299" lon="3.85442">
        <ele>42.793422665874</ele>
        <time>2020-10-25T15:06:11.000Z</time>
      </trkpt>
      <trkpt lat="43.62293" lon="3.85445">
        <ele>42.690647709154</ele>
        <time>2020-10-25T15:06:12.000Z</time>
      </trkpt>
      <trkpt lat="43.62287" lon="3.85448">
        <ele>42.587872752435</ele>
        <time>2020-10-25T15:06:13.000Z</time>
      </trkpt>
      <trkpt lat="43.62282" lon="3.85452">
        <ele>42.485097795716</ele>
        <time>2020-10-25T15:06:14.000Z</time>
      </trkpt>
      <trkpt lat="43.62278" lon="3.85454">
        <ele>42.382322838996</ele>
        <time>2020-10-25T15:06:15.000Z</time>
      </trkpt>
      <trkpt lat="43.62274" lon="3.85455">
        <ele>42.279547882277</ele>
        <time>2020-10-25T15:06:16.000Z</time>
      </trkpt>
      <trkpt lat="43.6227" lon="3.85455">
        <ele>42.176772925557</ele>
        <time>2020-10-25T15:06:17.000Z</time>
      </trkpt>
      <trkpt lat="43.62266" lon="3.85455">
        <ele>42.073997968838</ele>
        <time>2020-10-25T15:06:18.000Z</time>
      </trkpt>
      <trkpt lat="43.62262" lon="3.85458">
        <ele>42</ele>
        <time>2020-10-25T15:06:19.000Z</time>
      </trkpt>
      <trkpt lat="43.62258" lon="3.85461">
        <ele>42</ele>
        <time>2020-10-25T15:06:20.000Z</time>
      </trkpt>
      <trkpt lat="43.62254" lon="3.85466">
        <ele>42</ele>
        <time>2020-10-25T15:06:21.000Z</time>
      </trkpt>
      <trkpt lat="43.6225" lon="3.8547">
        <ele>42</ele>
        <time>2020-10-25T15:06:22.000Z</time>
      </trkpt>
      <trkpt lat="43.62245" lon="3.85475">
        <ele>42</ele>
        <time>2020-10-25T15:06:23.000Z</time>
      </trkpt>
      <trkpt lat="43.62241" lon="3.85479">
        <ele>42</ele>
        <time>2020-10-25T15:06:24.000Z</time>
      </trkpt>
      <trkpt lat="43.62237" lon="3.85485">
        <ele>42</ele>
        <time>2020-10-25T15:06:25.000Z</time>
      </trkpt>
      <trkpt lat="43.62232" lon="3.8549">
        <ele>42</ele>
        <time>2020-10-25T15:06:26.000Z</time>
      </trkpt>
      <trkpt lat="43.62228" lon="3.85496">
        <ele>42</ele>
        <time>2020-10-25T15:06:27.000Z</time>
      </trkpt>
      <trkpt lat="43.62224" lon="3.85502">
        <ele>42</ele>
        <time>2020-10-25T15:06:28.000Z</time>
      </trkpt>
      <trkpt lat="43.62221" lon="3.85508">
        <ele>41.941805261041</ele>
        <time>2020-10-25T15:06:29.000Z</time>
      </trkpt>
      <trkpt lat="43.62217" lon="3.85514">
        <ele>41.747818659463</ele>
        <time>2020-10-25T15:06:30.000Z</time>
      </trkpt>
      <trkpt lat="43.62213" lon="3.8552">
        <ele>41.553832057884</ele>
        <time>2020-10-25T15:06:31.000Z</time>
      </trkpt>
      <trkpt lat="43.62209" lon="3.85526">
        <ele>41.359845456306</ele>
        <time>2020-10-25T15:06:32.000Z</time>
      </trkpt>
      <trkpt lat="43.62205" lon="3.85533">
        <ele>41.165858854728</ele>
        <time>2020-10-25T15:06:33.000Z</time>
      </trkpt>
      <trkpt lat="43.62201" lon="3.85539">
        <ele>40.97187225315</ele>
        <time>2020-10-25T15:06:34.000Z</time>
      </trkpt>
      <trkpt lat="43.62197" lon="3.85546">
        <ele>40.777885651572</ele>
        <time>2020-10-25T15:06:35.000Z</time>
      </trkpt>
      <trkpt lat="43.62193" lon="3.85552">
        <ele>40.583899049993</ele>
        <time>2020-10-25T15:06:36.000Z</time>
      </trkpt>
      <trkpt lat="43.62189" lon="3.85559">
        <ele>40.389912448415</ele>
        <time>2020-10-25T15:06:37.000Z</time>
      </trkpt>
      <trkpt lat="43.62185" lon="3.85565">
        <ele>40.195925846837</ele>
        <time>2020-10-25T15:06:38.000Z</time>
      </trkpt>
      <trkpt lat="43.62181" lon="3.85572">
        <ele>40.001939245259</ele>
        <time>2020-10-25T15:06:39.000Z</time>
      </trkpt>
      <trkpt lat="43.62176" lon="3.85578">
        <ele>39.89804295842</ele>
        <time>2020-10-25T15:06:40.000Z</time>
      </trkpt>
      <trkpt lat="43.62172" lon="3.85585">
        <ele>39.79505638062</ele>
        <time>2020-10-25T15:06:41.000Z</time>
      </trkpt>
      <trkpt lat="43.62167" lon="3.85591">
        <ele>39.692069802819</ele>
        <time>2020-10-25T15:06:42.000Z</time>
      </trkpt>
      <trkpt lat="43.62163" lon="3.85598">
        <ele>39.589083225019</ele>
        <time>2020-10-25T15:06:43.000Z</time>
      </trkpt>
      <trkpt lat="43.62159" lon="3.85605">
        <ele>39.486096647218</ele>
        <time>2020-10-25T15:06:44.000Z</time>
      </trkpt>
      <trkpt lat="43.62154" lon="3.85612">
        <ele>39.383110069418</ele>
        <time>2020-10-25T15:06:45.000Z</time>
      </trkpt>
      <trkpt lat="43.6215" lon="3.85619">
        <ele>39.280123491617</ele>
        <time>2020-10-25T15:06:46.000Z</time>
      </trkpt>
      <trkpt lat="43.62145" lon="3.85625">
        <ele>39.177136913817</ele>
        <time>2020-10-25T15:06:47.000Z</time>
      </trkpt>
      <trkpt lat="43.62141" lon="3.85632">
        <ele>39.074150336016</ele>
        <time>2020-10-25T15:06:48.000Z</time>
      </trkpt>
      <trkpt lat="43.62136" lon="3.85638">
        <ele>38.971943905767</ele>
        <time>2020-10-25T15:06:49.000Z</time>
      </trkpt>
      <trkpt lat="43.62131" lon="3.85644">
        <ele>38.871743569223</ele>
        <time>2020-10-25T15:06:50.000Z</time>
      </trkpt>
      <trkpt lat="43.62127" lon="3.85651">
        <ele>38.771543232678</ele>
        <time>2020-10-25T15:06:51.000Z</time>
      </trkpt>
      <trkpt lat="43.62123" lon="3.85658">
        <ele>38.671342896133</ele>
        <time>2020-10-25T15:06:52.000Z</time>
      </trkpt>
      <trkpt lat="43.62118" lon="3.85666">
        <ele>38.571142559588</ele>
        <time>2020-10-25T15:06:53.000Z</time>
      </trkpt>
      <trkpt lat="43.62114" lon="3.85673">
        <ele>38.470942223043</ele>
        <time>2020-10-25T15:06:54.000Z</time>
      </trkpt>
      <trkpt lat="43.62111" lon="3.85681">
        <ele>38.370741886498</ele>
        <time>2020-10-25T15:06:55.000Z</time>
      </trkpt>
      <trkpt lat="43.62107" lon="3.85689">
        <ele>38.270541549953</ele>
        <time>2020-10-25T15:06:56.000Z</time>
      </trkpt>
      <trkpt lat="43.62103" lon="3.85697">
        <ele>38.170341213408</ele>
        <time>2020-10-25T15:06:57.000Z</time>
      </trkpt>
      <trkpt lat="43.62099" lon="3.85704">
        <ele>38.070140876864</ele>
        <time>2020-10-25T15:06:58.000Z</time>
      </trkpt>
      <trkpt lat="43.62095" lon="3.85712">
        <ele>37.97003059981</ele>
        <time>2020-10-25T15:06:59.000Z</time>
      </trkpt>
      <trkpt lat="43.62092" lon="3.8572">
        <ele>37.870130467974</ele>
        <time>2020-10-25T15:07:00.000Z</time>
      </trkpt>
      <trkpt lat="43.62089" lon="3.85729">
        <ele>37.770230336138</ele>
        <time>2020-10-25T15:07:01.000Z</time>
      </trkpt>
      <trkpt lat="43.62086" lon="3.85737">
        <ele>37.670330204301</ele>
        <time>2020-10-25T15:07:02.000Z</time>
      </trkpt>
      <trkpt lat="43.62082" lon="3.85742">
        <ele>37.570430072465</ele>
        <time>2020-10-25T15:07:03.000Z</time>
      </trkpt>
      <trkpt lat="43.62077" lon="3.85747">
        <ele>37.470529940629</ele>
        <time>2020-10-25T15:07:04.000Z</time>
      </trkpt>
      <trkpt lat="43.62073" lon="3.85752">
        <ele>37.370629808793</ele>
        <time>2020-10-25T15:07:05.000Z</time>
      </trkpt>
      <trkpt lat="43.62069" lon="3.85758">
        <ele>37.270729676956</ele>
        <time>2020-10-25T15:07:06.000Z</time>
      </trkpt>
      <trkpt lat="43.62066" lon="3.85765">
        <ele>37.17082954512</ele>
        <time>2020-10-25T15:07:07.000Z</time>
      </trkpt>
      <trkpt lat="43.62063" lon="3.85772">
        <ele>37.070929413284</ele>
        <time>2020-10-25T15:07:08.000Z</time>
      </trkpt>
      <trkpt lat="43.62061" lon="3.8578">
        <ele>37</ele>
        <time>2020-10-25T15:07:09.000Z</time>
      </trkpt>
      <trkpt lat="43.62058" lon="3.85788">
        <ele>37</ele>
        <time>2020-10-25T15:07:10.000Z</time>
      </trkpt>
      <trkpt lat="43.62055" lon="3.85795">
        <ele>37</ele>
        <time>2020-10-25T15:07:11.000Z</time>
      </trkpt>
      <trkpt lat="43.62052" lon="3.85803">
        <ele>37</ele>
        <time>2020-10-25T15:07:12.000Z</time>
      </trkpt>
      <trkpt lat="43.62049" lon="3.8581">
        <ele>37</ele>
        <time>2020-10-25T15:07:13.000Z</time>
      </trkpt>
      <trkpt lat="43.62046" lon="3.85817">
        <ele>37</ele>
        <time>2020-10-25T15:07:14.000Z</time>
      </trkpt>
      <trkpt lat="43.62043" lon="3.85825">
        <ele>37</ele>
        <time>2020-10-25T15:07:15.000Z</time>
      </trkpt>
      <trkpt lat="43.6204" lon="3.85832">
        <ele>37</ele>
        <time>2020-10-25T15:07:16.000Z</time>
      </trkpt>
      <trkpt lat="43.62037" lon="3.85838">
        <ele>37</ele>
        <time>2020-10-25T15:07:17.000Z</time>
      </trkpt>
      <trkpt lat="43.62033" lon="3.85844">
        <ele>37</ele>
        <time>2020-10-25T15:07:18.000Z</time>
      </trkpt>
      <trkpt lat="43.62028" lon="3.85849">
        <ele>37</ele>
        <time>2020-10-25T15:07:19.000Z</time>
      </trkpt>
      <trkpt lat="43.62023" lon="3.85853">
        <ele>37</ele>
        <time>2020-10-25T15:07:20.000Z</time>
      </trkpt>
      <trkpt lat="43.62018" lon="3.85857">
        <ele>37</ele>
        <time>2020-10-25T15:07:21.000Z</time>
      </trkpt>
      <trkpt lat="43.62013" lon="3.8586">
        <ele>37</ele>
        <time>2020-10-25T15:07:22.000Z</time>
      </trkpt>
      <trkpt lat="43.62008" lon="3.85863">
        <ele>37</ele>
        <time>2020-10-25T15:07:23.000Z</time>
      </trkpt>
      <trkpt lat="43.62002" lon="3.85866">
        <ele>37</ele>
        <time>2020-10-25T15:07:24.000Z</time>
      </trkpt>
      <trkpt lat="43.61997" lon="3.85869">
        <ele>37</ele>
        <time>2020-10-25T15:07:25.000Z</time>
      </trkpt>
      <trkpt lat="43.61993" lon="3.85874">
        <ele>37</ele>
        <time>2020-10-25T15:07:26.000Z</time>
      </trkpt>
      <trkpt lat="43.61991" lon="3.8588">
        <ele>37</ele>
        <time>2020-10-25T15:07:27.000Z</time>
      </trkpt>
      <trkpt lat="43.61989" lon="3.85886">
        <ele>37</ele>
        <time>2020-10-25T15:07:28.000Z</time>
      </trkpt>
      <trkpt lat="43.61988" lon="3.85893">
        <ele>37</ele>
        <time>2020-10-25T15:07:29.000Z</time>
      </trkpt>
      <trkpt lat="43.61988" lon="3.85899">
        <ele>37</ele>
        <time>2020-10-25T15:07:30.000Z</time>
      </trkpt>
      <trkpt lat="43.61991" lon="3.85904">
        <ele>37</ele>
        <time>2020-10-25T15:07:31.000Z</time>
      </trkpt>
      <trkpt lat="43.61995" lon="3.85908">
        <ele>37</ele>
        <time>2020-10-25T15:07:32.000Z</time>
      </trkpt>
      <trkpt lat="43.61998" lon="3.85913">
        <ele>37</ele>
        <time>2020-10-25T15:07:33.000Z</time>
      </trkpt>
      <trkpt lat="43.62001" lon="3.8592">
        <ele>37</ele>
        <time>2020-10-25T15:07:34.000Z</time>
      </trkpt>
      <trkpt lat="43.62002" lon="3.85927">
        <ele>37</ele>
        <time>2020-10-25T15:07:35.000Z</time>
      </trkpt>
      <trkpt lat="43.62003" lon="3.85933">
        <ele>37</ele>
        <time>2020-10-25T15:07:36.000Z</time>
      </trkpt>
      <trkpt lat="43.62004" lon="3.85938">
        <ele>37</ele>
        <time>2020-10-25T15:07:37.000Z</time>
      </trkpt>
      <trkpt lat="43.62003" lon="3.85944">
        <ele>37</ele>
        <time>2020-10-25T15:07:38.000Z</time>
      </trkpt>
      <trkpt lat="43.62001" lon="3.8595">
        <ele>37</ele>
        <time>2020-10-25T15:07:39.000Z</time>
      </trkpt>
      <trkpt lat="43.61998" lon="3.85955">
        <ele>37.100512263069</ele>
        <time>2020-10-25T15:07:40.000Z</time>
      </trkpt>
      <trkpt lat="43.61996" lon="3.85961">
        <ele>37.203076466619</ele>
        <time>2020-10-25T15:07:41.000Z</time>
      </trkpt>
      <trkpt lat="43.61994" lon="3.85966">
        <ele>37.305640670169</ele>
        <time>2020-10-25T15:07:42.000Z</time>
      </trkpt>
      <trkpt lat="43.61991" lon="3.85972">
        <ele>37.40820487372</ele>
        <time>2020-10-25T15:07:43.000Z</time>
      </trkpt>
      <trkpt lat="43.61988" lon="3.85977">
        <ele>37.51076907727</ele>
        <time>2020-10-25T15:07:44.000Z</time>
      </trkpt>
      <trkpt lat="43.61984" lon="3.85982">
        <ele>37.61333328082</ele>
        <time>2020-10-25T15:07:45.000Z</time>
      </trkpt>
      <trkpt lat="43.61982" lon="3.85987">
        <ele>37.715897484371</ele>
        <time>2020-10-25T15:07:46.000Z</time>
      </trkpt>
      <trkpt lat="43.61979" lon="3.85992">
        <ele>37.818461687921</ele>
        <time>2020-10-25T15:07:47.000Z</time>
      </trkpt>
      <trkpt lat="43.61977" lon="3.85998">
        <ele>37.921025891472</ele>
        <time>2020-10-25T15:07:48.000Z</time>
      </trkpt>
      <trkpt lat="43.61975" lon="3.86004">
        <ele>38.023162434808</ele>
        <time>2020-10-25T15:07:49.000Z</time>
      </trkpt>
      <trkpt lat="43.61973" lon="3.8601">
        <ele>38.123867271991</ele>
        <time>2020-10-25T15:07:50.000Z</time>
      </trkpt>
      <trkpt lat="43.61971" lon="3.86016">
        <ele>38.224572109175</ele>
        <time>2020-10-25T15:07:51.000Z</time>
      </trkpt>
      <trkpt lat="43.61969" lon="3.86021">
        <ele>38.325276946359</ele>
        <time>2020-10-25T15:07:52.000Z</time>
      </trkpt>
      <trkpt lat="43.61967" lon="3.86027">
        <ele>38.425981783542</ele>
        <time>2020-10-25T15:07:53.000Z</time>
      </trkpt>
      <trkpt lat="43.61965" lon="3.86033">
        <ele>38.526686620726</ele>
        <time>2020-10-25T15:07:54.000Z</time>
      </trkpt>
      <trkpt lat="43.61962" lon="3.86038">
        <ele>38.62739145791</ele>
        <time>2020-10-25T15:07:55.000Z</time>
      </trkpt>
      <trkpt lat="43.6196" lon="3.86044">
        <ele>38.728096295093</ele>
        <time>2020-10-25T15:07:56.000Z</time>
      </trkpt>
      <trkpt lat="43.61957" lon="3.8605">
        <ele>38.828801132277</ele>
        <time>2020-10-25T15:07:57.000Z</time>
      </trkpt>
      <trkpt lat="43.61955" lon="3.86056">
        <ele>38.929505969461</ele>
        <time>2020-10-25T15:07:58.000Z</time>
      </trkpt>
      <trkpt lat="43.61953" lon="3.86062">
        <ele>39.05999872</ele>
        <time>2020-10-25T15:07:59.000Z</time>
      </trkpt>
      <trkpt lat="43.61951" lon="3.86068">
        <ele>39.25999872</ele>
        <time>2020-10-25T15:08:00.000Z</time>
      </trkpt>
      <trkpt lat="43.61949" lon="3.86074">
        <ele>39.45999872</ele>
        <time>2020-10-25T15:08:01.000Z</time>
      </trkpt>
      <trkpt lat="43.61946" lon="3.8608">
        <ele>39.65999872</ele>
        <time>2020-10-25T15:08:02.000Z</time>
      </trkpt>
      <trkpt lat="43.61944" lon="3.86086">
        <ele>39.85999872</ele>
        <time>2020-10-25T15:08:03.000Z</time>
      </trkpt>
      <trkpt lat="43.61941" lon="3.86092">
        <ele>40.05999872</ele>
        <time>2020-10-25T15:08:04.000Z</time>
      </trkpt>
      <trkpt lat="43.61939" lon="3.86098">
        <ele>40.25999872</ele>
        <time>2020-10-25T15:08:05.000Z</time>
      </trkpt>
      <trkpt lat="43.61937" lon="3.86104">
        <ele>40.45999872</ele>
        <time>2020-10-25T15:08:06.000Z</time>
      </trkpt>
      <trkpt lat="43.61935" lon="3.86109">
        <ele>40.65999872</ele>
        <time>2020-10-25T15:08:07.000Z</time>
      </trkpt>
      <trkpt lat="43.61933" lon="3.86115">
        <ele>40.85999872</ele>
        <time>2020-10-25T15:08:08.000Z</time>
      </trkpt>
      <trkpt lat="43.6193" lon="3.86121">
        <ele>41.05993880038</ele>
        <time>2020-10-25T15:08:09.000Z</time>
      </trkpt>
      <trkpt lat="43.61928" lon="3.86127">
        <ele>41.259739064052</ele>
        <time>2020-10-25T15:08:10.000Z</time>
      </trkpt>
      <trkpt lat="43.61926" lon="3.86133">
        <ele>41.459539327725</ele>
        <time>2020-10-25T15:08:11.000Z</time>
      </trkpt>
      <trkpt lat="43.61924" lon="3.86139">
        <ele>41.659339591397</ele>
        <time>2020-10-25T15:08:12.000Z</time>
      </trkpt>
      <trkpt lat="43.61923" lon="3.86145">
        <ele>41.85913985507</ele>
        <time>2020-10-25T15:08:13.000Z</time>
      </trkpt>
      <trkpt lat="43.61921" lon="3.86151">
        <ele>42.058940118742</ele>
        <time>2020-10-25T15:08:14.000Z</time>
      </trkpt>
      <trkpt lat="43.61918" lon="3.86156">
        <ele>42.258740382415</ele>
        <time>2020-10-25T15:08:15.000Z</time>
      </trkpt>
      <trkpt lat="43.61916" lon="3.86162">
        <ele>42.458540646087</ele>
        <time>2020-10-25T15:08:16.000Z</time>
      </trkpt>
      <trkpt lat="43.61914" lon="3.86168">
        <ele>42.658340909759</ele>
        <time>2020-10-25T15:08:17.000Z</time>
      </trkpt>
      <trkpt lat="43.61912" lon="3.86173">
        <ele>42.858141173432</ele>
        <time>2020-10-25T15:08:18.000Z</time>
      </trkpt>
      <trkpt lat="43.6191" lon="3.86179">
        <ele>43.02902869941</ele>
        <time>2020-10-25T15:08:19.000Z</time>
      </trkpt>
      <trkpt lat="43.61908" lon="3.86184">
        <ele>43.129128767446</ele>
        <time>2020-10-25T15:08:20.000Z</time>
      </trkpt>
      <trkpt lat="43.61906" lon="3.8619">
        <ele>43.229228835482</ele>
        <time>2020-10-25T15:08:21.000Z</time>
      </trkpt>
      <trkpt lat="43.61903" lon="3.86195">
        <ele>43.329328903518</ele>
        <time>2020-10-25T15:08:22.000Z</time>
      </trkpt>
      <trkpt lat="43.61901" lon="3.862">
        <ele>43.429428971554</ele>
        <time>2020-10-25T15:08:23.000Z</time>
      </trkpt>
      <trkpt lat="43.61899" lon="3.86206">
        <ele>43.52952903959</ele>
        <time>2020-10-25T15:08:24.000Z</time>
      </trkpt>
      <trkpt lat="43.61896" lon="3.86211">
        <ele>43.629629107626</ele>
        <time>2020-10-25T15:08:25.000Z</time>
      </trkpt>
      <trkpt lat="43.61894" lon="3.86217">
        <ele>43.729729175662</ele>
        <time>2020-10-25T15:08:26.000Z</time>
      </trkpt>
      <trkpt lat="43.61891" lon="3.86222">
        <ele>43.829829243698</ele>
        <time>2020-10-25T15:08:27.000Z</time>
      </trkpt>
      <trkpt lat="43.61888" lon="3.86228">
        <ele>43.929929311734</ele>
        <time>2020-10-25T15:08:28.000Z</time>
      </trkpt>
      <trkpt lat="43.61886" lon="3.86233">
        <ele>44.02999936</ele>
        <time>2020-10-25T15:08:29.000Z</time>
      </trkpt>
      <trkpt lat="43.61883" lon="3.86238">
        <ele>44.12999936</ele>
        <time>2020-10-25T15:08:30.000Z</time>
      </trkpt>
      <trkpt lat="43.6188" lon="3.86243">
        <ele>44.22999936</ele>
        <time>2020-10-25T15:08:31.000Z</time>
      </trkpt>
      <trkpt lat="43.61877" lon="3.86248">
        <ele>44.32999936</ele>
        <time>2020-10-25T15:08:32.000Z</time>
      </trkpt>
      <trkpt lat="43.61874" lon="3.86253">
        <ele>44.42999936</ele>
        <time>2020-10-25T15:08:33.000Z</time>
      </trkpt>
      <trkpt lat="43.61872" lon="3.86258">
        <ele>44.52999936</ele>
        <time>2020-10-25T15:08:34.000Z</time>
      </trkpt>
      <trkpt lat="43.61869" lon="3.86264">
        <ele>44.62999936</ele>
        <time>2020-10-25T15:08:35.000Z</time>
      </trkpt>
      <trkpt lat="43.61866" lon="3.86268">
        <ele>44.72999936</ele>
        <time>2020-10-25T15:08:36.000Z</time>
      </trkpt>
      <trkpt lat="43.61863" lon="3.86273">
        <ele>44.82999936</ele>
        <time>2020-10-25T15:08:37.000Z</time>
      </trkpt>
      <trkpt lat="43.6186" lon="3.86278">
        <ele>44.92999936</ele>
        <time>2020-10-25T15:08:38.000Z</time>
      </trkpt>
      <trkpt lat="43.61857" lon="3.86283">
        <ele>45</ele>
        <time>2020-10-25T15:08:39.000Z</time>
      </trkpt>
      <trkpt lat="43.61853" lon="3.86289">
        <ele>45</ele>
        <time>2020-10-25T15:08:40.000Z</time>
      </trkpt>
      <trkpt lat="43.6185" lon="3.86294">
        <ele>45</ele>
        <time>2020-10-25T15:08:41.000Z</time>
      </trkpt>
      <trkpt lat="43.61846" lon="3.86299">
        <ele>45</ele>
        <time>2020-10-25T15:08:42.000Z</time>
      </trkpt>
      <trkpt lat="43.61841" lon="3.86305">
        <ele>45</ele>
        <time>2020-10-25T15:08:43.000Z</time>
      </trkpt>
      <trkpt lat="43.61837" lon="3.8631">
        <ele>45</ele>
        <time>2020-10-25T15:08:44.000Z</time>
      </trkpt>
      <trkpt lat="43.61834" lon="3.86316">
        <ele>45</ele>
        <time>2020-10-25T15:08:45.000Z</time>
      </trkpt>
      <trkpt lat="43.61832" lon="3.86322">
        <ele>45</ele>
        <time>2020-10-25T15:08:46.000Z</time>
      </trkpt>
      <trkpt lat="43.61831" lon="3.86329">
        <ele>45</ele>
        <time>2020-10-25T15:08:47.000Z</time>
      </trkpt>
      <trkpt lat="43.61831" lon="3.86337">
        <ele>45</ele>
        <time>2020-10-25T15:08:48.000Z</time>
      </trkpt>
      <trkpt lat="43.61831" lon="3.86345">
        <ele>44.97000064</ele>
        <time>2020-10-25T15:08:49.000Z</time>
      </trkpt>
      <trkpt lat="43.61832" lon="3.86354">
        <ele>44.87000064</ele>
        <time>2020-10-25T15:08:50.000Z</time>
      </trkpt>
      <trkpt lat="43.61834" lon="3.86373">
        <ele>44.67000064</ele>
        <time>2020-10-25T15:08:52.000Z</time>
      </trkpt>
      <trkpt lat="43.61835" lon="3.86381">
        <ele>44.57000064</ele>
        <time>2020-10-25T15:08:53.000Z</time>
      </trkpt>
      <trkpt lat="43.61836" lon="3.8639">
        <ele>44.47000064</ele>
        <time>2020-10-25T15:08:54.000Z</time>
      </trkpt>
      <trkpt lat="43.61837" lon="3.864">
        <ele>44.37000064</ele>
        <time>2020-10-25T15:08:55.000Z</time>
      </trkpt>
      <trkpt lat="43.61838" lon="3.86409">
        <ele>44.27000064</ele>
        <time>2020-10-25T15:08:56.000Z</time>
      </trkpt>
      <trkpt lat="43.61838" lon="3.86428">
        <ele>44.07000064</ele>
        <time>2020-10-25T15:08:58.000Z</time>
      </trkpt>
      <trkpt lat="43.61839" lon="3.86448">
        <ele>43.618396943027</ele>
        <time>2020-10-25T15:09:00.000Z</time>
      </trkpt>
      <trkpt lat="43.61839" lon="3.86458">
        <ele>43.324854684841</ele>
        <time>2020-10-25T15:09:01.000Z</time>
      </trkpt>
      <trkpt lat="43.6184" lon="3.86469">
        <ele>43.031312426654</ele>
        <time>2020-10-25T15:09:02.000Z</time>
      </trkpt>
      <trkpt lat="43.61839" lon="3.86479">
        <ele>42.737770168467</ele>
        <time>2020-10-25T15:09:03.000Z</time>
      </trkpt>
      <trkpt lat="43.61838" lon="3.8649">
        <ele>42.44422791028</ele>
        <time>2020-10-25T15:09:04.000Z</time>
      </trkpt>
      <trkpt lat="43.61837" lon="3.86501">
        <ele>42.150685652093</ele>
        <time>2020-10-25T15:09:05.000Z</time>
      </trkpt>
      <trkpt lat="43.61834" lon="3.86511">
        <ele>41.857143393906</ele>
        <time>2020-10-25T15:09:06.000Z</time>
      </trkpt>
      <trkpt lat="43.61831" lon="3.86521">
        <ele>41.563601135719</ele>
        <time>2020-10-25T15:09:07.000Z</time>
      </trkpt>
      <trkpt lat="43.61828" lon="3.86531">
        <ele>41.270058877532</ele>
        <time>2020-10-25T15:09:08.000Z</time>
      </trkpt>
      <trkpt lat="43.61825" lon="3.8654">
        <ele>41</ele>
        <time>2020-10-25T15:09:09.000Z</time>
      </trkpt>
      <trkpt lat="43.61822" lon="3.86549">
        <ele>41</ele>
        <time>2020-10-25T15:09:10.000Z</time>
      </trkpt>
      <trkpt lat="43.61819" lon="3.86557">
        <ele>41</ele>
        <time>2020-10-25T15:09:11.000Z</time>
      </trkpt>
      <trkpt lat="43.61816" lon="3.86566">
        <ele>41</ele>
        <time>2020-10-25T15:09:12.000Z</time>
      </trkpt>
      <trkpt lat="43.61812" lon="3.86575">
        <ele>41</ele>
        <time>2020-10-25T15:09:13.000Z</time>
      </trkpt>
      <trkpt lat="43.61809" lon="3.86583">
        <ele>41</ele>
        <time>2020-10-25T15:09:14.000Z</time>
      </trkpt>
      <trkpt lat="43.61804" lon="3.86592">
        <ele>41</ele>
        <time>2020-10-25T15:09:15.000Z</time>
      </trkpt>
      <trkpt lat="43.618" lon="3.86601">
        <ele>41</ele>
        <time>2020-10-25T15:09:16.000Z</time>
      </trkpt>
      <trkpt lat="43.61796" lon="3.86609">
        <ele>41</ele>
        <time>2020-10-25T15:09:17.000Z</time>
      </trkpt>
      <trkpt lat="43.61791" lon="3.86618">
        <ele>41</ele>
        <time>2020-10-25T15:09:18.000Z</time>
      </trkpt>
      <trkpt lat="43.61787" lon="3.86626">
        <ele>41</ele>
        <time>2020-10-25T15:09:19.000Z</time>
      </trkpt>
      <trkpt lat="43.61783" lon="3.86635">
        <ele>40.857142272312</ele>
        <time>2020-10-25T15:09:20.000Z</time>
      </trkpt>
      <trkpt lat="43.6178" lon="3.86643">
        <ele>40.643922801588</ele>
        <time>2020-10-25T15:09:21.000Z</time>
      </trkpt>
      <trkpt lat="43.61776" lon="3.86652">
        <ele>40.430703330863</ele>
        <time>2020-10-25T15:09:22.000Z</time>
      </trkpt>
      <trkpt lat="43.61772" lon="3.86661">
        <ele>40.217483860139</ele>
        <time>2020-10-25T15:09:23.000Z</time>
      </trkpt>
      <trkpt lat="43.61769" lon="3.86671">
        <ele>40.004264389415</ele>
        <time>2020-10-25T15:09:24.000Z</time>
      </trkpt>
      <trkpt lat="43.61766" lon="3.86681">
        <ele>39.79104491869</ele>
        <time>2020-10-25T15:09:25.000Z</time>
      </trkpt>
      <trkpt lat="43.61763" lon="3.86691">
        <ele>39.577825447966</ele>
        <time>2020-10-25T15:09:26.000Z</time>
      </trkpt>
      <trkpt lat="43.6176" lon="3.86701">
        <ele>39.364605977241</ele>
        <time>2020-10-25T15:09:27.000Z</time>
      </trkpt>
      <trkpt lat="43.61757" lon="3.86711">
        <ele>39.151386506517</ele>
        <time>2020-10-25T15:09:28.000Z</time>
      </trkpt>
      <trkpt lat="43.61754" lon="3.86722">
        <ele>38.97097130059</ele>
        <time>2020-10-25T15:09:29.000Z</time>
      </trkpt>
      <trkpt lat="43.61752" lon="3.86732">
        <ele>38.870871232554</ele>
        <time>2020-10-25T15:09:30.000Z</time>
      </trkpt>
      <trkpt lat="43.61748" lon="3.86742">
        <ele>38.770771164518</ele>
        <time>2020-10-25T15:09:31.000Z</time>
      </trkpt>
      <trkpt lat="43.61744" lon="3.86752">
        <ele>38.670671096482</ele>
        <time>2020-10-25T15:09:32.000Z</time>
      </trkpt>
      <trkpt lat="43.6174" lon="3.86761">
        <ele>38.570571028446</ele>
        <time>2020-10-25T15:09:33.000Z</time>
      </trkpt>
      <trkpt lat="43.61734" lon="3.8677">
        <ele>38.47047096041</ele>
        <time>2020-10-25T15:09:34.000Z</time>
      </trkpt>
      <trkpt lat="43.61728" lon="3.86777">
        <ele>38.370370892374</ele>
        <time>2020-10-25T15:09:35.000Z</time>
      </trkpt>
      <trkpt lat="43.61722" lon="3.86783">
        <ele>38.270270824338</ele>
        <time>2020-10-25T15:09:36.000Z</time>
      </trkpt>
      <trkpt lat="43.61715" lon="3.86789">
        <ele>38.170170756302</ele>
        <time>2020-10-25T15:09:37.000Z</time>
      </trkpt>
      <trkpt lat="43.61708" lon="3.86795">
        <ele>38.070070688266</ele>
        <time>2020-10-25T15:09:38.000Z</time>
      </trkpt>
      <trkpt lat="43.61701" lon="3.868">
        <ele>38</ele>
        <time>2020-10-25T15:09:39.000Z</time>
      </trkpt>
      <trkpt lat="43.61695" lon="3.86806">
        <ele>38</ele>
        <time>2020-10-25T15:09:40.000Z</time>
      </trkpt>
      <trkpt lat="43.61688" lon="3.86812">
        <ele>38</ele>
        <time>2020-10-25T15:09:41.000Z</time>
      </trkpt>
      <trkpt lat="43.61681" lon="3.86818">
        <ele>38</ele>
        <time>2020-10-25T15:09:42.000Z</time>
      </trkpt>
      <trkpt lat="43.61673" lon="3.86823">
        <ele>38</ele>
        <time>2020-10-25T15:09:43.000Z</time>
      </trkpt>
      <trkpt lat="43.61666" lon="3.86828">
        <ele>38</ele>
        <time>2020-10-25T15:09:44.000Z</time>
      </trkpt>
      <trkpt lat="43.61659" lon="3.86834">
        <ele>38</ele>
        <time>2020-10-25T15:09:45.000Z</time>
      </trkpt>
      <trkpt lat="43.61651" lon="3.8684">
        <ele>38</ele>
        <time>2020-10-25T15:09:46.000Z</time>
      </trkpt>
      <trkpt lat="43.61645" lon="3.86846">
        <ele>38</ele>
        <time>2020-10-25T15:09:47.000Z</time>
      </trkpt>
      <trkpt lat="43.61637" lon="3.86851">
        <ele>38</ele>
        <time>2020-10-25T15:09:48.000Z</time>
      </trkpt>
      <trkpt lat="43.61631" lon="3.86858">
        <ele>38.02999936</ele>
        <time>2020-10-25T15:09:49.000Z</time>
      </trkpt>
      <trkpt lat="43.61624" lon="3.86864">
        <ele>38.12999936</ele>
        <time>2020-10-25T15:09:50.000Z</time>
      </trkpt>
      <trkpt lat="43.61618" lon="3.8687">
        <ele>38.22999936</ele>
        <time>2020-10-25T15:09:51.000Z</time>
      </trkpt>
      <trkpt lat="43.61612" lon="3.86876">
        <ele>38.32999936</ele>
        <time>2020-10-25T15:09:52.000Z</time>
      </trkpt>
      <trkpt lat="43.61605" lon="3.86882">
        <ele>38.42999936</ele>
        <time>2020-10-25T15:09:53.000Z</time>
      </trkpt>
      <trkpt lat="43.61599" lon="3.86889">
        <ele>38.52999936</ele>
        <time>2020-10-25T15:09:54.000Z</time>
      </trkpt>
      <trkpt lat="43.61587" lon="3.86901">
        <ele>38.72999936</ele>
        <time>2020-10-25T15:09:56.000Z</time>
      </trkpt>
      <trkpt lat="43.61574" lon="3.86913">
        <ele>38.92999936</ele>
        <time>2020-10-25T15:09:58.000Z</time>
      </trkpt>
      <trkpt lat="43.61568" lon="3.86919">
        <ele>39</ele>
        <time>2020-10-25T15:09:59.000Z</time>
      </trkpt>
      <trkpt lat="43.61561" lon="3.86925">
        <ele>39</ele>
        <time>2020-10-25T15:10:00.000Z</time>
      </trkpt>
      <trkpt lat="43.61555" lon="3.86931">
        <ele>39</ele>
        <time>2020-10-25T15:10:01.000Z</time>
      </trkpt>
      <trkpt lat="43.61548" lon="3.86936">
        <ele>39</ele>
        <time>2020-10-25T15:10:02.000Z</time>
      </trkpt>
      <trkpt lat="43.61542" lon="3.86942">
        <ele>39</ele>
        <time>2020-10-25T15:10:03.000Z</time>
      </trkpt>
      <trkpt lat="43.61537" lon="3.86948">
        <ele>39</ele>
        <time>2020-10-25T15:10:04.000Z</time>
      </trkpt>
      <trkpt lat="43.61531" lon="3.86955">
        <ele>39</ele>
        <time>2020-10-25T15:10:05.000Z</time>
      </trkpt>
      <trkpt lat="43.61525" lon="3.86961">
        <ele>39</ele>
        <time>2020-10-25T15:10:06.000Z</time>
      </trkpt>
      <trkpt lat="43.61519" lon="3.86967">
        <ele>39</ele>
        <time>2020-10-25T15:10:07.000Z</time>
      </trkpt>
      <trkpt lat="43.61512" lon="3.86973">
        <ele>39</ele>
        <time>2020-10-25T15:10:08.000Z</time>
      </trkpt>
      <trkpt lat="43.61506" lon="3.86979">
        <ele>39</ele>
        <time>2020-10-25T15:10:09.000Z</time>
      </trkpt>
      <trkpt lat="43.61499" lon="3.86985">
        <ele>39</ele>
        <time>2020-10-25T15:10:10.000Z</time>
      </trkpt>
      <trkpt lat="43.61492" lon="3.8699">
        <ele>39</ele>
        <time>2020-10-25T15:10:11.000Z</time>
      </trkpt>
      <trkpt lat="43.61485" lon="3.86995">
        <ele>39</ele>
        <time>2020-10-25T15:10:12.000Z</time>
      </trkpt>
      <trkpt lat="43.61478" lon="3.87">
        <ele>39</ele>
        <time>2020-10-25T15:10:13.000Z</time>
      </trkpt>
      <trkpt lat="43.61471" lon="3.87005">
        <ele>39</ele>
        <time>2020-10-25T15:10:14.000Z</time>
      </trkpt>
      <trkpt lat="43.61464" lon="3.87009">
        <ele>39</ele>
        <time>2020-10-25T15:10:15.000Z</time>
      </trkpt>
      <trkpt lat="43.61457" lon="3.87013">
        <ele>39</ele>
        <time>2020-10-25T15:10:16.000Z</time>
      </trkpt>
      <trkpt lat="43.6145" lon="3.87017">
        <ele>39</ele>
        <time>2020-10-25T15:10:17.000Z</time>
      </trkpt>
      <trkpt lat="43.61443" lon="3.87021">
        <ele>39</ele>
        <time>2020-10-25T15:10:18.000Z</time>
      </trkpt>
      <trkpt lat="43.61436" lon="3.87025">
        <ele>39</ele>
        <time>2020-10-25T15:10:19.000Z</time>
      </trkpt>
      <trkpt lat="43.61428" lon="3.87028">
        <ele>39</ele>
        <time>2020-10-25T15:10:20.000Z</time>
      </trkpt>
      <trkpt lat="43.61422" lon="3.87032">
        <ele>39</ele>
        <time>2020-10-25T15:10:21.000Z</time>
      </trkpt>
      <trkpt lat="43.61415" lon="3.87036">
        <ele>39</ele>
        <time>2020-10-25T15:10:22.000Z</time>
      </trkpt>
      <trkpt lat="43.61403" lon="3.87043">
        <ele>39</ele>
        <time>2020-10-25T15:10:24.000Z</time>
      </trkpt>
      <trkpt lat="43.6139" lon="3.87047">
        <ele>39</ele>
        <time>2020-10-25T15:10:26.000Z</time>
      </trkpt>
      <trkpt lat="43.61378" lon="3.87052">
        <ele>39</ele>
        <time>2020-10-25T15:10:28.000Z</time>
      </trkpt>
      <trkpt lat="43.61368" lon="3.87058">
        <ele>38.87000064</ele>
        <time>2020-10-25T15:10:30.000Z</time>
      </trkpt>
      <trkpt lat="43.61358" lon="3.87063">
        <ele>38.67000064</ele>
        <time>2020-10-25T15:10:32.000Z</time>
      </trkpt>
      <trkpt lat="43.6135" lon="3.8707">
        <ele>38.47000064</ele>
        <time>2020-10-25T15:10:34.000Z</time>
      </trkpt>
      <trkpt lat="43.61346" lon="3.87074">
        <ele>38.37000064</ele>
        <time>2020-10-25T15:10:35.000Z</time>
      </trkpt>
      <trkpt lat="43.6134" lon="3.87084">
        <ele>38.17000064</ele>
        <time>2020-10-25T15:10:37.000Z</time>
      </trkpt>
      <trkpt lat="43.61337" lon="3.87086">
        <ele>38.07000064</ele>
        <time>2020-10-25T15:10:38.000Z</time>
      </trkpt>
      <trkpt lat="43.61334" lon="3.8709">
        <ele>38</ele>
        <time>2020-10-25T15:10:39.000Z</time>
      </trkpt>
      <trkpt lat="43.61332" lon="3.87094">
        <ele>38</ele>
        <time>2020-10-25T15:10:40.000Z</time>
      </trkpt>
      <trkpt lat="43.61329" lon="3.87098">
        <ele>38</ele>
        <time>2020-10-25T15:10:41.000Z</time>
      </trkpt>
      <trkpt lat="43.61326" lon="3.87101">
        <ele>38</ele>
        <time>2020-10-25T15:10:42.000Z</time>
      </trkpt>
      <trkpt lat="43.61323" lon="3.87104">
        <ele>38</ele>
        <time>2020-10-25T15:10:43.000Z</time>
      </trkpt>
      <trkpt lat="43.61321" lon="3.87107">
        <ele>38</ele>
        <time>2020-10-25T15:10:44.000Z</time>
      </trkpt>
      <trkpt lat="43.61318" lon="3.8711">
        <ele>38</ele>
        <time>2020-10-25T15:10:45.000Z</time>
      </trkpt>
      <trkpt lat="43.61316" lon="3.87113">
        <ele>38</ele>
        <time>2020-10-25T15:10:46.000Z</time>
      </trkpt>
      <trkpt lat="43.61313" lon="3.87116">
        <ele>38</ele>
        <time>2020-10-25T15:10:47.000Z</time>
      </trkpt>
      <trkpt lat="43.6131" lon="3.87119">
        <ele>38</ele>
        <time>2020-10-25T15:10:48.000Z</time>
      </trkpt>
      <trkpt lat="43.61308" lon="3.87122">
        <ele>38</ele>
        <time>2020-10-25T15:10:49.000Z</time>
      </trkpt>
      <trkpt lat="43.61305" lon="3.87124">
        <ele>38</ele>
        <time>2020-10-25T15:10:50.000Z</time>
      </trkpt>
      <trkpt lat="43.61303" lon="3.87128">
        <ele>38</ele>
        <time>2020-10-25T15:10:51.000Z</time>
      </trkpt>
      <trkpt lat="43.613" lon="3.87132">
        <ele>38</ele>
        <time>2020-10-25T15:10:52.000Z</time>
      </trkpt>
      <trkpt lat="43.61298" lon="3.87135">
        <ele>38</ele>
        <time>2020-10-25T15:10:53.000Z</time>
      </trkpt>
      <trkpt lat="43.61295" lon="3.87139">
        <ele>38</ele>
        <time>2020-10-25T15:10:54.000Z</time>
      </trkpt>
      <trkpt lat="43.61293" lon="3.87143">
        <ele>38</ele>
        <time>2020-10-25T15:10:55.000Z</time>
      </trkpt>
      <trkpt lat="43.61291" lon="3.87147">
        <ele>38</ele>
        <time>2020-10-25T15:10:56.000Z</time>
      </trkpt>
      <trkpt lat="43.61289" lon="3.8715">
        <ele>38</ele>
        <time>2020-10-25T15:10:57.000Z</time>
      </trkpt>
      <trkpt lat="43.61287" lon="3.87153">
        <ele>38</ele>
        <time>2020-10-25T15:10:58.000Z</time>
      </trkpt>
      <trkpt lat="43.61285" lon="3.87156">
        <ele>38</ele>
        <time>2020-10-25T15:10:59.000Z</time>
      </trkpt>
      <trkpt lat="43.61282" lon="3.87159">
        <ele>38.201645039203</ele>
        <time>2020-10-25T15:11:00.000Z</time>
      </trkpt>
      <trkpt lat="43.6128" lon="3.87161">
        <ele>38.407406627038</ele>
        <time>2020-10-25T15:11:01.000Z</time>
      </trkpt>
      <trkpt lat="43.61277" lon="3.87164">
        <ele>38.613168214872</ele>
        <time>2020-10-25T15:11:02.000Z</time>
      </trkpt>
      <trkpt lat="43.61275" lon="3.87167">
        <ele>38.818929802706</ele>
        <time>2020-10-25T15:11:03.000Z</time>
      </trkpt>
      <trkpt lat="43.61272" lon="3.87171">
        <ele>39.02469139054</ele>
        <time>2020-10-25T15:11:04.000Z</time>
      </trkpt>
      <trkpt lat="43.6127" lon="3.87175">
        <ele>39.230452978374</ele>
        <time>2020-10-25T15:11:05.000Z</time>
      </trkpt>
      <trkpt lat="43.61268" lon="3.87178">
        <ele>39.436214566208</ele>
        <time>2020-10-25T15:11:06.000Z</time>
      </trkpt>
      <trkpt lat="43.61266" lon="3.87181">
        <ele>39.641976154043</ele>
        <time>2020-10-25T15:11:07.000Z</time>
      </trkpt>
      <trkpt lat="43.61264" lon="3.87184">
        <ele>39.847737741877</ele>
        <time>2020-10-25T15:11:08.000Z</time>
      </trkpt>
      <trkpt lat="43.61262" lon="3.87186">
        <ele>40.026105026692</ele>
        <time>2020-10-25T15:11:09.000Z</time>
      </trkpt>
      <trkpt lat="43.6126" lon="3.87189">
        <ele>40.126506504088</ele>
        <time>2020-10-25T15:11:10.000Z</time>
      </trkpt>
      <trkpt lat="43.61258" lon="3.87192">
        <ele>40.226907981484</ele>
        <time>2020-10-25T15:11:11.000Z</time>
      </trkpt>
      <trkpt lat="43.61256" lon="3.87195">
        <ele>40.327309458879</ele>
        <time>2020-10-25T15:11:12.000Z</time>
      </trkpt>
      <trkpt lat="43.61254" lon="3.87198">
        <ele>40.427710936275</ele>
        <time>2020-10-25T15:11:13.000Z</time>
      </trkpt>
      <trkpt lat="43.61252" lon="3.87201">
        <ele>40.528112413671</ele>
        <time>2020-10-25T15:11:14.000Z</time>
      </trkpt>
      <trkpt lat="43.61248" lon="3.87216">
        <ele>40.929718323254</ele>
        <time>2020-10-25T15:11:18.000Z</time>
      </trkpt>
      <trkpt lat="43.61249" lon="3.8722">
        <ele>41.11987760076</ele>
        <time>2020-10-25T15:11:19.000Z</time>
      </trkpt>
      <trkpt lat="43.61254" lon="3.87235">
        <ele>42.318679182794</ele>
        <time>2020-10-25T15:11:22.000Z</time>
      </trkpt>
      <trkpt lat="43.61255" lon="3.87244">
        <ele>43.117880237484</ele>
        <time>2020-10-25T15:11:24.000Z</time>
      </trkpt>
      <trkpt lat="43.61256" lon="3.8725">
        <ele>43.517480764829</ele>
        <time>2020-10-25T15:11:25.000Z</time>
      </trkpt>
      <trkpt lat="43.61257" lon="3.87254">
        <ele>43.917081292174</ele>
        <time>2020-10-25T15:11:26.000Z</time>
      </trkpt>
      <trkpt lat="43.61258" lon="3.87259">
        <ele>44.316681819519</ele>
        <time>2020-10-25T15:11:27.000Z</time>
      </trkpt>
      <trkpt lat="43.61258" lon="3.87264">
        <ele>44.716282346864</ele>
        <time>2020-10-25T15:11:28.000Z</time>
      </trkpt>
      <trkpt lat="43.61257" lon="3.87268">
        <ele>45.087086098231</ele>
        <time>2020-10-25T15:11:29.000Z</time>
      </trkpt>
      <trkpt lat="43.61252" lon="3.87276">
        <ele>45.987986710555</ele>
        <time>2020-10-25T15:11:32.000Z</time>
      </trkpt>
      <trkpt lat="43.6125" lon="3.87278">
        <ele>46.288286914663</ele>
        <time>2020-10-25T15:11:33.000Z</time>
      </trkpt>
      <trkpt lat="43.61245" lon="3.87283">
        <ele>47.189187526987</ele>
        <time>2020-10-25T15:11:36.000Z</time>
      </trkpt>
      <trkpt lat="43.61243" lon="3.87286">
        <ele>47.789787935203</ele>
        <time>2020-10-25T15:11:38.000Z</time>
      </trkpt>
      <trkpt lat="43.61242" lon="3.87288">
        <ele>48.02999936</ele>
        <time>2020-10-25T15:11:39.000Z</time>
      </trkpt>
      <trkpt lat="43.6124" lon="3.87291">
        <ele>48.22999936</ele>
        <time>2020-10-25T15:11:41.000Z</time>
      </trkpt>
      <trkpt lat="43.61238" lon="3.87295">
        <ele>48.42999936</ele>
        <time>2020-10-25T15:11:43.000Z</time>
      </trkpt>
      <trkpt lat="43.61235" lon="3.87298">
        <ele>48.62999936</ele>
        <time>2020-10-25T15:11:45.000Z</time>
      </trkpt>
      <trkpt lat="43.61233" lon="3.873">
        <ele>48.72999936</ele>
        <time>2020-10-25T15:11:46.000Z</time>
      </trkpt>
      <trkpt lat="43.61231" lon="3.87301">
        <ele>48.82999936</ele>
        <time>2020-10-25T15:11:47.000Z</time>
      </trkpt>
      <trkpt lat="43.6123" lon="3.87303">
        <ele>48.92999936</ele>
        <time>2020-10-25T15:11:48.000Z</time>
      </trkpt>
      <trkpt lat="43.61229" lon="3.87305">
        <ele>49.02996940019</ele>
        <time>2020-10-25T15:11:49.000Z</time>
      </trkpt>
      <trkpt lat="43.61228" lon="3.87308">
        <ele>49.129869532026</ele>
        <time>2020-10-25T15:11:50.000Z</time>
      </trkpt>
      <trkpt lat="43.61227" lon="3.87311">
        <ele>49.229769663862</ele>
        <time>2020-10-25T15:11:51.000Z</time>
      </trkpt>
      <trkpt lat="43.61226" lon="3.87313">
        <ele>49.329669795699</ele>
        <time>2020-10-25T15:11:52.000Z</time>
      </trkpt>
      <trkpt lat="43.61225" lon="3.87315">
        <ele>49.429569927535</ele>
        <time>2020-10-25T15:11:53.000Z</time>
      </trkpt>
      <trkpt lat="43.61223" lon="3.87317">
        <ele>49.529470059371</ele>
        <time>2020-10-25T15:11:54.000Z</time>
      </trkpt>
      <trkpt lat="43.6122" lon="3.87321">
        <ele>49.729270323044</ele>
        <time>2020-10-25T15:11:56.000Z</time>
      </trkpt>
      <trkpt lat="43.61214" lon="3.87329">
        <ele>50</ele>
        <time>2020-10-25T15:12:00.000Z</time>
      </trkpt>
      <trkpt lat="43.61211" lon="3.87333">
        <ele>50</ele>
        <time>2020-10-25T15:12:02.000Z</time>
      </trkpt>
      <trkpt lat="43.6121" lon="3.87335">
        <ele>50</ele>
        <time>2020-10-25T15:12:03.000Z</time>
      </trkpt>
      <trkpt lat="43.61209" lon="3.87337">
        <ele>50</ele>
        <time>2020-10-25T15:12:04.000Z</time>
      </trkpt>
      <trkpt lat="43.61207" lon="3.87339">
        <ele>50</ele>
        <time>2020-10-25T15:12:05.000Z</time>
      </trkpt>
      <trkpt lat="43.61205" lon="3.8734">
        <ele>50</ele>
        <time>2020-10-25T15:12:06.000Z</time>
      </trkpt>
      <trkpt lat="43.61202" lon="3.87342">
        <ele>50</ele>
        <time>2020-10-25T15:12:07.000Z</time>
      </trkpt>
      <trkpt lat="43.61197" lon="3.87351">
        <ele>50.22999936</ele>
        <time>2020-10-25T15:12:11.000Z</time>
      </trkpt>
      <trkpt lat="43.61195" lon="3.87356">
        <ele>50.42999936</ele>
        <time>2020-10-25T15:12:13.000Z</time>
      </trkpt>
      <trkpt lat="43.61195" lon="3.87359">
        <ele>50.52999936</ele>
        <time>2020-10-25T15:12:14.000Z</time>
      </trkpt>
      <trkpt lat="43.61193" lon="3.87361">
        <ele>50.62999936</ele>
        <time>2020-10-25T15:12:15.000Z</time>
      </trkpt>
      <trkpt lat="43.61185" lon="3.87371">
        <ele>51.125968372093</ele>
        <time>2020-10-25T15:12:20.000Z</time>
      </trkpt>
      <trkpt lat="43.61177" lon="3.87381">
        <ele>51.610464496124</ele>
        <time>2020-10-25T15:12:25.000Z</time>
      </trkpt>
      <trkpt lat="43.61172" lon="3.87391">
        <ele>52.202478016529</ele>
        <time>2020-10-25T15:12:30.000Z</time>
      </trkpt>
      <trkpt lat="43.61167" lon="3.87405">
        <ele>53.028924297521</ele>
        <time>2020-10-25T15:12:34.000Z</time>
      </trkpt>
      <trkpt lat="43.61165" lon="3.87421">
        <ele>53.648759008264</ele>
        <time>2020-10-25T15:12:37.000Z</time>
      </trkpt>
      <trkpt lat="43.61161" lon="3.8742">
        <ele>54.02999936</ele>
        <time>2020-10-25T15:12:39.000Z</time>
      </trkpt>
      <trkpt lat="43.61157" lon="3.87416">
        <ele>54.22999936</ele>
        <time>2020-10-25T15:12:41.000Z</time>
      </trkpt>
      <trkpt lat="43.61155" lon="3.87415">
        <ele>54.32999936</ele>
        <time>2020-10-25T15:12:42.000Z</time>
      </trkpt>
      <trkpt lat="43.61152" lon="3.87414">
        <ele>54.52999936</ele>
        <time>2020-10-25T15:12:44.000Z</time>
      </trkpt>
      <trkpt lat="43.61149" lon="3.87419">
        <ele>54.72999936</ele>
        <time>2020-10-25T15:12:46.000Z</time>
      </trkpt>
      <trkpt lat="43.61148" lon="3.87421">
        <ele>54.82999936</ele>
        <time>2020-10-25T15:12:47.000Z</time>
      </trkpt>
      <trkpt lat="43.61147" lon="3.87425">
        <ele>54.92999936</ele>
        <time>2020-10-25T15:12:48.000Z</time>
      </trkpt>
      <trkpt lat="43.61148" lon="3.87429">
        <ele>55</ele>
        <time>2020-10-25T15:12:49.000Z</time>
      </trkpt>
      <trkpt lat="43.61145" lon="3.87443">
        <ele>55</ele>
        <time>2020-10-25T15:12:54.000Z</time>
      </trkpt>
      <trkpt lat="43.61141" lon="3.87457">
        <ele>55</ele>
        <time>2020-10-25T15:12:58.000Z</time>
      </trkpt>
      <trkpt lat="43.61135" lon="3.87471">
        <ele>55.327705734456</ele>
        <time>2020-10-25T15:13:02.000Z</time>
      </trkpt>
      <trkpt lat="43.61131" lon="3.87486">
        <ele>55.72492557689</ele>
        <time>2020-10-25T15:13:06.000Z</time>
      </trkpt>
      <trkpt lat="43.61127" lon="3.87503">
        <ele>55.95440971632</ele>
        <time>2020-10-25T15:13:09.000Z</time>
      </trkpt>
      <trkpt lat="43.61129" lon="3.87516">
        <ele>55.557977982499</ele>
        <time>2020-10-25T15:13:11.000Z</time>
      </trkpt>
      <trkpt lat="43.61136" lon="3.87532">
        <ele>55.161546248678</ele>
        <time>2020-10-25T15:13:13.000Z</time>
      </trkpt>
      <trkpt lat="43.61139" lon="3.87547">
        <ele>54.765114514856</ele>
        <time>2020-10-25T15:13:15.000Z</time>
      </trkpt>
      <trkpt lat="43.61143" lon="3.87562">
        <ele>54.368682781035</ele>
        <time>2020-10-25T15:13:17.000Z</time>
      </trkpt>
      <trkpt lat="43.61145" lon="3.87574">
        <ele>54</ele>
        <time>2020-10-25T15:13:19.000Z</time>
      </trkpt>
      <trkpt lat="43.61151" lon="3.87587">
        <ele>54</ele>
        <time>2020-10-25T15:13:21.000Z</time>
      </trkpt>
      <trkpt lat="43.61157" lon="3.87597">
        <ele>54</ele>
        <time>2020-10-25T15:13:23.000Z</time>
      </trkpt>
      <trkpt lat="43.61163" lon="3.87606">
        <ele>54</ele>
        <time>2020-10-25T15:13:25.000Z</time>
      </trkpt>
      <trkpt lat="43.61169" lon="3.87616">
        <ele>54</ele>
        <time>2020-10-25T15:13:27.000Z</time>
      </trkpt>
      <trkpt lat="43.61177" lon="3.87631">
        <ele>54.12999936</ele>
        <time>2020-10-25T15:13:30.000Z</time>
      </trkpt>
      <trkpt lat="43.61184" lon="3.87638">
        <ele>54.32999936</ele>
        <time>2020-10-25T15:13:32.000Z</time>
      </trkpt>
      <trkpt lat="43.61183" lon="3.87655">
        <ele>54.62999936</ele>
        <time>2020-10-25T15:13:35.000Z</time>
      </trkpt>
      <trkpt lat="43.61179" lon="3.87668">
        <ele>54.82999936</ele>
        <time>2020-10-25T15:13:37.000Z</time>
      </trkpt>
      <trkpt lat="43.61176" lon="3.87684">
        <ele>55</ele>
        <time>2020-10-25T15:13:40.000Z</time>
      </trkpt>
      <trkpt lat="43.61172" lon="3.87696">
        <ele>55</ele>
        <time>2020-10-25T15:13:42.000Z</time>
      </trkpt>
      <trkpt lat="43.61166" lon="3.87711">
        <ele>55</ele>
        <time>2020-10-25T15:13:45.000Z</time>
      </trkpt>
      <trkpt lat="43.61165" lon="3.87726">
        <ele>55</ele>
        <time>2020-10-25T15:13:48.000Z</time>
      </trkpt>
      <trkpt lat="43.61164" lon="3.8773">
        <ele>55.05999872</ele>
        <time>2020-10-25T15:13:49.000Z</time>
      </trkpt>
      <trkpt lat="43.6116" lon="3.87743">
        <ele>55.85999872</ele>
        <time>2020-10-25T15:13:53.000Z</time>
      </trkpt>
      <trkpt lat="43.61153" lon="3.87747">
        <ele>57.889488447194</ele>
        <time>2020-10-25T15:14:02.000Z</time>
      </trkpt>
    </trkseg>
  </trk>
</gpx>